<?xml version='1.0' encoding='UTF-8'?><gpx version="1.1" creator="JPX - https://github.com/jenetics/jpx" xmlns="http://www.topografix.com/GPX/1/1"><trk><trkseg><trkpt lat="14.558403733226326" lon="120.99536302040772"><ele>9.0</ele><time>2026-04-14T03:28:41.986Z</time></trkpt><trkpt lat="14.558307683676531" lon="120.99539356390915"><ele>9.0</ele><time>2026-04-14T03:28:47.986Z</time></trkpt><trkpt lat="14.558231185115236" lon="120.995429970928"><ele>9.0</ele><time>2026-04-14T03:28:49.986Z</time></trkpt><trkpt lat="14.55817302355691" lon="120.99545717465078"><ele>9.0</ele><time>2026-04-14T03:28:51.986Z</time></trkpt><trkpt lat="14.558115533557611" lon="120.99548479306695"><ele>9.0</ele><time>2026-04-14T03:28:53.986Z</time></trkpt><trkpt lat="14.558054508483105" lon="120.99551481811982"><ele>9.0</ele><time>2026-04-14T03:28:56.069Z</time></trkpt><trkpt lat="14.55797007378076" lon="120.99555699621374"><ele>9.0</ele><time>2026-04-14T03:28:59.029Z</time></trkpt><trkpt lat="14.557661400831854" lon="120.99569049763781"><ele>9.0</ele><time>2026-04-14T03:29:10.226Z</time></trkpt><trkpt lat="14.558097432795732" lon="120.99614839576664"><ele>9.0</ele><time>2026-04-14T03:29:58.986Z</time></trkpt><trkpt lat="14.558145237458644" lon="120.99620113860821"><ele>9.0</ele><time>2026-04-14T03:30:06.987Z</time></trkpt><trkpt lat="14.558198449101159" lon="120.99625813901746"><ele>9.0</ele><time>2026-04-14T03:30:09.989Z</time></trkpt><trkpt lat="14.558268654959925" lon="120.99627642901785"><ele>9.0</ele><time>2026-04-14T03:30:13.992Z</time></trkpt><trkpt lat="14.558356605700729" lon="120.99627738460877"><ele>9.0</ele><time>2026-04-14T03:30:15.993Z</time></trkpt><trkpt lat="14.55843033956705" lon="120.99624970235722"><ele>9.0</ele><time>2026-04-14T03:30:16.994Z</time></trkpt><trkpt lat="14.558503916782055" lon="120.99622079518281"><ele>9.0</ele><time>2026-04-14T03:30:17.994Z</time></trkpt><trkpt lat="14.558608228978306" lon="120.9962137405209"><ele>9.0</ele><time>2026-04-14T03:30:18.994Z</time></trkpt><trkpt lat="14.558692926914036" lon="120.99619959652796"><ele>9.0</ele><time>2026-04-14T03:30:19.995Z</time></trkpt><trkpt lat="14.558785118243527" lon="120.99616092899076"><ele>9.0</ele><time>2026-04-14T03:30:20.995Z</time></trkpt><trkpt lat="14.558895765546788" lon="120.99615100497103"><ele>9.0</ele><time>2026-04-14T03:30:21.995Z</time></trkpt><trkpt lat="14.55901047729435" lon="120.99612076619799"><ele>9.0</ele><time>2026-04-14T03:30:22.996Z</time></trkpt><trkpt lat="14.559113754570761" lon="120.9960907804739"><ele>9.0</ele><time>2026-04-14T03:30:23.996Z</time></trkpt><trkpt lat="14.559225191580536" lon="120.99607624630468"><ele>9.0</ele><time>2026-04-14T03:30:24.996Z</time></trkpt><trkpt lat="14.55933398079805" lon="120.99603453045493"><ele>9.0</ele><time>2026-04-14T03:30:25.997Z</time></trkpt><trkpt lat="14.55942951159454" lon="120.99601253323053"><ele>9.0</ele><time>2026-04-14T03:30:26.997Z</time></trkpt><trkpt lat="14.559536745252927" lon="120.99600334246236"><ele>8.8</ele><time>2026-04-14T03:30:27.997Z</time></trkpt><trkpt lat="14.559646905934601" lon="120.99597460129925"><ele>8.600000000000001</ele><time>2026-04-14T03:30:28.997Z</time></trkpt><trkpt lat="14.559763049970421" lon="120.99595231454312"><ele>8.4</ele><time>2026-04-14T03:30:29.997Z</time></trkpt><trkpt lat="14.559872015101956" lon="120.99591037667768"><ele>8.200000000000001</ele><time>2026-04-14T03:30:30.998Z</time></trkpt><trkpt lat="14.559970052779422" lon="120.99589732442885"><ele>8.0</ele><time>2026-04-14T03:30:31.998Z</time></trkpt><trkpt lat="14.56007658642862" lon="120.9958676276029"><ele>7.75</ele><time>2026-04-14T03:30:32.998Z</time></trkpt><trkpt lat="14.56019449704371" lon="120.9958302377239"><ele>7.5</ele><time>2026-04-14T03:30:33.998Z</time></trkpt><trkpt lat="14.560305423454652" lon="120.99580586909754"><ele>7.25</ele><time>2026-04-14T03:30:34.998Z</time></trkpt><trkpt lat="14.560424464494883" lon="120.99578521020146"><ele>7.0</ele><time>2026-04-14T03:30:35.998Z</time></trkpt><trkpt lat="14.560533252820717" lon="120.9957479510119"><ele>7.0</ele><time>2026-04-14T03:30:36.999Z</time></trkpt><trkpt lat="14.560646613261442" lon="120.9957164177777"><ele>7.0</ele><time>2026-04-14T03:30:37.999Z</time></trkpt><trkpt lat="14.560767166502753" lon="120.99569673802529"><ele>7.0</ele><time>2026-04-14T03:30:38.999Z</time></trkpt><trkpt lat="14.560877791650885" lon="120.9956684826725"><ele>7.0</ele><time>2026-04-14T03:30:39.999Z</time></trkpt><trkpt lat="14.560988897660382" lon="120.99563716593536"><ele>7.0</ele><time>2026-04-14T03:30:40.999Z</time></trkpt><trkpt lat="14.561110335896505" lon="120.99560447313952"><ele>7.0</ele><time>2026-04-14T03:30:41.999Z</time></trkpt><trkpt lat="14.561227270876397" lon="120.99558534422833"><ele>7.0</ele><time>2026-04-14T03:30:42.999Z</time></trkpt><trkpt lat="14.561348753359441" lon="120.99555519919481"><ele>7.0</ele><time>2026-04-14T03:30:43.999Z</time></trkpt><trkpt lat="14.561465070356947" lon="120.9955246474539"><ele>7.3999999999999995</ele><time>2026-04-14T03:30:44.999Z</time></trkpt><trkpt lat="14.561578586161003" lon="120.99548729410945"><ele>7.799999999999999</ele><time>2026-04-14T03:30:45.999Z</time></trkpt><trkpt lat="14.5616767329976" lon="120.99545009479145"><ele>8.2</ele><time>2026-04-14T03:30:47Z</time></trkpt><trkpt lat="14.561769722675923" lon="120.99543681344618"><ele>8.6</ele><time>2026-04-14T03:30:48Z</time></trkpt><trkpt lat="14.561859366852477" lon="120.9954193333156"><ele>9.0</ele><time>2026-04-14T03:30:49Z</time></trkpt><trkpt lat="14.561940311031124" lon="120.99540411375445"><ele>9.0</ele><time>2026-04-14T03:30:50Z</time></trkpt><trkpt lat="14.562030786030475" lon="120.99537133310129"><ele>9.0</ele><time>2026-04-14T03:30:52Z</time></trkpt><trkpt lat="14.562091795530813" lon="120.99534315438927"><ele>9.0</ele><time>2026-04-14T03:30:54Z</time></trkpt><trkpt lat="14.5621972622055" lon="120.99531848428799"><ele>9.0</ele><time>2026-04-14T03:30:56Z</time></trkpt><trkpt lat="14.562264040627953" lon="120.99530314036336"><ele>9.0</ele><time>2026-04-14T03:30:57Z</time></trkpt><trkpt lat="14.562326765868098" lon="120.99529118125875"><ele>9.0</ele><time>2026-04-14T03:30:58Z</time></trkpt><trkpt lat="14.562428154127867" lon="120.9952772027741"><ele>9.25</ele><time>2026-04-14T03:31:00Z</time></trkpt><trkpt lat="14.562514067604676" lon="120.99525301430032"><ele>9.5</ele><time>2026-04-14T03:31:02Z</time></trkpt><trkpt lat="14.562626048172353" lon="120.99535063459169"><ele>9.75</ele><time>2026-04-14T03:31:55.001Z</time></trkpt><trkpt lat="14.56272786081119" lon="120.99539448980683"><ele>10.0</ele><time>2026-04-14T03:31:57.001Z</time></trkpt><trkpt lat="14.56279820857072" lon="120.9954872530475"><ele>10.0</ele><time>2026-04-14T03:31:59.001Z</time></trkpt><trkpt lat="14.562855487558002" lon="120.99560380642929"><ele>10.0</ele><time>2026-04-14T03:32:01.001Z</time></trkpt><trkpt lat="14.562883876145545" lon="120.99567647573343"><ele>10.0</ele><time>2026-04-14T03:32:02.001Z</time></trkpt><trkpt lat="14.562908926243406" lon="120.99573661956808"><ele>10.0</ele><time>2026-04-14T03:32:03.001Z</time></trkpt><trkpt lat="14.562938556458567" lon="120.99579609902247"><ele>10.0</ele><time>2026-04-14T03:32:04.001Z</time></trkpt><trkpt lat="14.562967018424047" lon="120.99585599733136"><ele>10.0</ele><time>2026-04-14T03:32:07.001Z</time></trkpt><trkpt lat="14.562974567776552" lon="120.99594607797178"><ele>9.833333333333334</ele><time>2026-04-14T03:32:11Z</time></trkpt><trkpt lat="14.56300634075603" lon="120.99603496657056"><ele>9.666666666666668</ele><time>2026-04-14T03:32:13Z</time></trkpt><trkpt lat="14.563036185409597" lon="120.99610948793456"><ele>9.5</ele><time>2026-04-14T03:32:14Z</time></trkpt><trkpt lat="14.563071566844387" lon="120.99617412699521"><ele>9.333333333333334</ele><time>2026-04-14T03:32:15Z</time></trkpt><trkpt lat="14.563104122416592" lon="120.99624797068417"><ele>9.166666666666666</ele><time>2026-04-14T03:32:16Z</time></trkpt><trkpt lat="14.563140777714954" lon="120.9963233678514"><ele>9.0</ele><time>2026-04-14T03:32:17Z</time></trkpt><trkpt lat="14.56318346074562" lon="120.99640711366786"><ele>9.0</ele><time>2026-04-14T03:32:18Z</time></trkpt><trkpt lat="14.563216770280725" lon="120.99648640148476"><ele>9.0</ele><time>2026-04-14T03:32:19Z</time></trkpt><trkpt lat="14.563252267701172" lon="120.99656218115815"><ele>9.0</ele><time>2026-04-14T03:32:20Z</time></trkpt><trkpt lat="14.563280562286833" lon="120.99663931744391"><ele>9.0</ele><time>2026-04-14T03:32:21Z</time></trkpt><trkpt lat="14.563305164146891" lon="120.99672654617366"><ele>9.0</ele><time>2026-04-14T03:32:22Z</time></trkpt><trkpt lat="14.563331619660195" lon="120.99678790012267"><ele>9.0</ele><time>2026-04-14T03:32:23Z</time></trkpt><trkpt lat="14.563369909553163" lon="120.99687115272354"><ele>8.666666666666666</ele><time>2026-04-14T03:32:24Z</time></trkpt><trkpt lat="14.563400756354573" lon="120.9969389651081"><ele>8.333333333333334</ele><time>2026-04-14T03:32:25Z</time></trkpt><trkpt lat="14.563423212244333" lon="120.99700616372452"><ele>8.0</ele><time>2026-04-14T03:32:26Z</time></trkpt><trkpt lat="14.563462355171579" lon="120.99710064835315"><ele>7.666666666666667</ele><time>2026-04-14T03:32:28Z</time></trkpt><trkpt lat="14.563497438365609" lon="120.9971651336555"><ele>7.333333333333334</ele><time>2026-04-14T03:32:30Z</time></trkpt><trkpt lat="14.563537444056196" lon="120.99724440096742"><ele>7.0</ele><time>2026-04-14T03:32:33Z</time></trkpt><trkpt lat="14.563568540626028" lon="120.99732292751173"><ele>7.000000000000001</ele><time>2026-04-14T03:32:36Z</time></trkpt><trkpt lat="14.563607738217604" lon="120.9973931133488"><ele>7.0</ele><time>2026-04-14T03:32:38Z</time></trkpt><trkpt lat="14.563652022014404" lon="120.99747713841006"><ele>7.0</ele><time>2026-04-14T03:32:40Z</time></trkpt><trkpt lat="14.563680211933972" lon="120.9975519757587"><ele>7.0</ele><time>2026-04-14T03:32:42Z</time></trkpt><trkpt lat="14.563721856810943" lon="120.9976429811117"><ele>7.000000000000001</ele><time>2026-04-14T03:32:44Z</time></trkpt><trkpt lat="14.563769042920809" lon="120.9977326301233"><ele>7.0</ele><time>2026-04-14T03:32:46Z</time></trkpt><trkpt lat="14.563822049441317" lon="120.99782979100293"><ele>7.000000000000001</ele><time>2026-04-14T03:32:48Z</time></trkpt><trkpt lat="14.563871447153526" lon="120.9979296856601"><ele>7.0</ele><time>2026-04-14T03:32:50Z</time></trkpt><trkpt lat="14.563910635423158" lon="120.99801979293949"><ele>7.0</ele><time>2026-04-14T03:32:51Z</time></trkpt><trkpt lat="14.563952335529086" lon="120.99810143054164"><ele>7.0</ele><time>2026-04-14T03:32:52Z</time></trkpt><trkpt lat="14.563984523466768" lon="120.9981584761778"><ele>7.000000000000001</ele><time>2026-04-14T03:32:53Z</time></trkpt><trkpt lat="14.564007309688073" lon="120.99824413815404"><ele>7.0</ele><time>2026-04-14T03:33:00Z</time></trkpt><trkpt lat="14.563873497015853" lon="120.99832973665846"><ele>7.0</ele><time>2026-04-14T03:33:03Z</time></trkpt><trkpt lat="14.563802288153019" lon="120.99834998827387"><ele>6.999999999999999</ele><time>2026-04-14T03:33:04Z</time></trkpt><trkpt lat="14.563728410563458" lon="120.99837993603546"><ele>6.999999999999999</ele><time>2026-04-14T03:33:05Z</time></trkpt><trkpt lat="14.563626263542037" lon="120.99840525746164"><ele>7.0</ele><time>2026-04-14T03:33:06Z</time></trkpt><trkpt lat="14.563525146248388" lon="120.99843438495645"><ele>7.0</ele><time>2026-04-14T03:33:07Z</time></trkpt><trkpt lat="14.563420971945536" lon="120.99846598901759"><ele>7.0</ele><time>2026-04-14T03:33:08Z</time></trkpt><trkpt lat="14.563323112918376" lon="120.99849483978295"><ele>6.999999999999999</ele><time>2026-04-14T03:33:09Z</time></trkpt><trkpt lat="14.563233537103779" lon="120.99851417670547"><ele>6.999999999999999</ele><time>2026-04-14T03:33:10Z</time></trkpt><trkpt lat="14.563144528098132" lon="120.99852810151286"><ele>7.0</ele><time>2026-04-14T03:33:11Z</time></trkpt><trkpt lat="14.563050058609452" lon="120.99856171321035"><ele>7.0</ele><time>2026-04-14T03:33:12Z</time></trkpt><trkpt lat="14.562969701863183" lon="120.99859213116642"><ele>7.000000000000001</ele><time>2026-04-14T03:33:13Z</time></trkpt><trkpt lat="14.562889922590573" lon="120.99861768823594"><ele>7.0</ele><time>2026-04-14T03:33:14Z</time></trkpt><trkpt lat="14.562815291820115" lon="120.99864305057686"><ele>7.0</ele><time>2026-04-14T03:33:15Z</time></trkpt><trkpt lat="14.56275343538188" lon="120.99866452301971"><ele>7.0</ele><time>2026-04-14T03:33:16Z</time></trkpt><trkpt lat="14.562673963179614" lon="120.99869668105015"><ele>7.000000000000001</ele><time>2026-04-14T03:33:17Z</time></trkpt><trkpt lat="14.562590335373525" lon="120.9987265181834"><ele>7.0</ele><time>2026-04-14T03:33:18Z</time></trkpt><trkpt lat="14.562505732022224" lon="120.99875758027528"><ele>7.333333333333334</ele><time>2026-04-14T03:33:19Z</time></trkpt><trkpt lat="14.562435912144007" lon="120.99878095988218"><ele>7.666666666666667</ele><time>2026-04-14T03:33:20Z</time></trkpt><trkpt lat="14.562358582800115" lon="120.9988098541918"><ele>8.0</ele><time>2026-04-14T03:33:21Z</time></trkpt><trkpt lat="14.56229977095281" lon="120.99883827209726"><ele>8.333333333333334</ele><time>2026-04-14T03:33:22Z</time></trkpt><trkpt lat="14.56222890985186" lon="120.99887637603781"><ele>8.666666666666666</ele><time>2026-04-14T03:33:23Z</time></trkpt><trkpt lat="14.562155658951301" lon="120.9989019569006"><ele>9.0</ele><time>2026-04-14T03:33:24Z</time></trkpt><trkpt lat="14.562059626874914" lon="120.99894381878306"><ele>9.000000000000002</ele><time>2026-04-14T03:33:26Z</time></trkpt><trkpt lat="14.562002562480842" lon="120.9989812680487"><ele>9.0</ele><time>2026-04-14T03:33:30Z</time></trkpt><trkpt lat="14.561983364173503" lon="120.99904748102094"><ele>9.0</ele><time>2026-04-14T03:33:34Z</time></trkpt><trkpt lat="14.562022380587381" lon="120.9991050183029"><ele>9.0</ele><time>2026-04-14T03:33:36Z</time></trkpt><trkpt lat="14.562077668461567" lon="120.99915867974396"><ele>9.0</ele><time>2026-04-14T03:33:38Z</time></trkpt><trkpt lat="14.562121382858889" lon="120.9992120117745"><ele>9.000000000000002</ele><time>2026-04-14T03:33:39Z</time></trkpt><trkpt lat="14.562177695712107" lon="120.99926045587651"><ele>9.0</ele><time>2026-04-14T03:33:40Z</time></trkpt><trkpt lat="14.562244307046178" lon="120.99932412985814"><ele>8.8</ele><time>2026-04-14T03:33:41Z</time></trkpt><trkpt lat="14.562308628787072" lon="120.99938624969352"><ele>8.600000000000001</ele><time>2026-04-14T03:33:42Z</time></trkpt><trkpt lat="14.562378566095521" lon="120.99945554678021"><ele>8.4</ele><time>2026-04-14T03:33:43Z</time></trkpt><trkpt lat="14.56244858836365" lon="120.99952615622607"><ele>8.200000000000001</ele><time>2026-04-14T03:33:44Z</time></trkpt><trkpt lat="14.562519055638836" lon="120.99958992548073"><ele>8.0</ele><time>2026-04-14T03:33:45Z</time></trkpt><trkpt lat="14.562589769931563" lon="120.99966151494681"><ele>7.999999999999999</ele><time>2026-04-14T03:33:46Z</time></trkpt><trkpt lat="14.562657483041248" lon="120.9997310195297"><ele>8.0</ele><time>2026-04-14T03:33:47Z</time></trkpt><trkpt lat="14.562712025411301" lon="120.99978995455052"><ele>8.0</ele><time>2026-04-14T03:33:48Z</time></trkpt><trkpt lat="14.562764884721096" lon="120.99985067518713"><ele>8.0</ele><time>2026-04-14T03:33:49Z</time></trkpt><trkpt lat="14.562829736334239" lon="120.99991165781266"><ele>7.999999999999999</ele><time>2026-04-14T03:33:50.001Z</time></trkpt><trkpt lat="14.562896872413711" lon="120.99997991580295"><ele>8.0</ele><time>2026-04-14T03:33:51.001Z</time></trkpt><trkpt lat="14.562961717706283" lon="121.00004381459068"><ele>7.833333333333333</ele><time>2026-04-14T03:33:52.001Z</time></trkpt><trkpt lat="14.56303354943542" lon="121.00011070702233"><ele>7.666666666666666</ele><time>2026-04-14T03:33:53.001Z</time></trkpt><trkpt lat="14.563101232432157" lon="121.00017410071607"><ele>7.5</ele><time>2026-04-14T03:33:54.001Z</time></trkpt><trkpt lat="14.563161258935263" lon="121.00023039534999"><ele>7.333333333333334</ele><time>2026-04-14T03:33:55.001Z</time></trkpt><trkpt lat="14.563226437527817" lon="121.00028739329512"><ele>7.166666666666667</ele><time>2026-04-14T03:33:56.001Z</time></trkpt><trkpt lat="14.563283810415316" lon="121.00035694422411"><ele>7.0</ele><time>2026-04-14T03:33:57.001Z</time></trkpt><trkpt lat="14.563348030956423" lon="121.00042453485204"><ele>7.0</ele><time>2026-04-14T03:33:58.001Z</time></trkpt><trkpt lat="14.563415346133892" lon="121.00049524411266"><ele>6.999999999999999</ele><time>2026-04-14T03:33:59.001Z</time></trkpt><trkpt lat="14.563496115629862" lon="121.00055889399628"><ele>6.999999999999999</ele><time>2026-04-14T03:34:00.001Z</time></trkpt><trkpt lat="14.563550160499325" lon="121.00062736462674"><ele>7.0</ele><time>2026-04-14T03:34:01.001Z</time></trkpt><trkpt lat="14.563614430055543" lon="121.00070361278006"><ele>7.0</ele><time>2026-04-14T03:34:02.001Z</time></trkpt><trkpt lat="14.563674761918946" lon="121.00077756189167"><ele>7.199999999999999</ele><time>2026-04-14T03:34:03.001Z</time></trkpt><trkpt lat="14.563745394155843" lon="121.00084973418373"><ele>7.3999999999999995</ele><time>2026-04-14T03:34:04.001Z</time></trkpt><trkpt lat="14.563818431970446" lon="121.00091851701121"><ele>7.6000000000000005</ele><time>2026-04-14T03:34:05.001Z</time></trkpt><trkpt lat="14.563890349385192" lon="121.00098725600515"><ele>7.800000000000001</ele><time>2026-04-14T03:34:06.001Z</time></trkpt><trkpt lat="14.563962983847773" lon="121.00106283015037"><ele>8.0</ele><time>2026-04-14T03:34:07.001Z</time></trkpt><trkpt lat="14.56403647439963" lon="121.0011400536731"><ele>8.0</ele><time>2026-04-14T03:34:08.001Z</time></trkpt><trkpt lat="14.564108467336517" lon="121.0012113386599"><ele>8.0</ele><time>2026-04-14T03:34:09.001Z</time></trkpt><trkpt lat="14.564185393073828" lon="121.0012953688024"><ele>8.0</ele><time>2026-04-14T03:34:10.001Z</time></trkpt><trkpt lat="14.564267540510413" lon="121.0013688011584"><ele>8.0</ele><time>2026-04-14T03:34:11.001Z</time></trkpt><trkpt lat="14.564346126354396" lon="121.00144493755323"><ele>8.0</ele><time>2026-04-14T03:34:12.001Z</time></trkpt><trkpt lat="14.564418647153468" lon="121.00151744458559"><ele>8.0</ele><time>2026-04-14T03:34:13.001Z</time></trkpt><trkpt lat="14.564489812416209" lon="121.0015932758197"><ele>8.0</ele><time>2026-04-14T03:34:14Z</time></trkpt><trkpt lat="14.564561584258637" lon="121.0016661989784"><ele>8.0</ele><time>2026-04-14T03:34:15Z</time></trkpt><trkpt lat="14.564639267894009" lon="121.00173977574656"><ele>8.0</ele><time>2026-04-14T03:34:16Z</time></trkpt><trkpt lat="14.564710877655155" lon="121.00181324212232"><ele>8.0</ele><time>2026-04-14T03:34:17Z</time></trkpt><trkpt lat="14.564786329880379" lon="121.00188847635138"><ele>7.6000000000000005</ele><time>2026-04-14T03:34:18Z</time></trkpt><trkpt lat="14.564851406806824" lon="121.00196276812197"><ele>7.200000000000001</ele><time>2026-04-14T03:34:19Z</time></trkpt><trkpt lat="14.56490949521907" lon="121.00203421038077"><ele>6.8</ele><time>2026-04-14T03:34:20Z</time></trkpt><trkpt lat="14.564981678406069" lon="121.00210109194686"><ele>6.4</ele><time>2026-04-14T03:34:21Z</time></trkpt><trkpt lat="14.565049947903791" lon="121.00217280153096"><ele>6.0</ele><time>2026-04-14T03:34:22Z</time></trkpt><trkpt lat="14.565102317490684" lon="121.00223830744135"><ele>5.999999999999999</ele><time>2026-04-14T03:34:23Z</time></trkpt><trkpt lat="14.565152230655254" lon="121.00229504422556"><ele>6.0</ele><time>2026-04-14T03:34:24Z</time></trkpt><trkpt lat="14.565209314896789" lon="121.00233659873126"><ele>6.0</ele><time>2026-04-14T03:34:25Z</time></trkpt><trkpt lat="14.56525101648821" lon="121.0023893634722"><ele>6.0</ele><time>2026-04-14T03:34:26Z</time></trkpt><trkpt lat="14.565304490165062" lon="121.0024434021634"><ele>6.0</ele><time>2026-04-14T03:34:27Z</time></trkpt><trkpt lat="14.565365114581867" lon="121.00249962855307"><ele>5.999999999999999</ele><time>2026-04-14T03:34:28Z</time></trkpt><trkpt lat="14.565422855230814" lon="121.00254594090019"><ele>6.0</ele><time>2026-04-14T03:34:29Z</time></trkpt><trkpt lat="14.565478725415131" lon="121.00261741897232"><ele>6.285714285714285</ele><time>2026-04-14T03:34:30Z</time></trkpt><trkpt lat="14.565546342802342" lon="121.00265883320509"><ele>6.571428571428571</ele><time>2026-04-14T03:34:31Z</time></trkpt><trkpt lat="14.565598175502235" lon="121.0027063427638"><ele>6.857142857142857</ele><time>2026-04-14T03:34:32Z</time></trkpt><trkpt lat="14.565645823159603" lon="121.00275001632417"><ele>7.142857142857142</ele><time>2026-04-14T03:34:33Z</time></trkpt><trkpt lat="14.565704097060909" lon="121.00280342984584"><ele>7.428571428571428</ele><time>2026-04-14T03:34:35Z</time></trkpt><trkpt lat="14.5657515618575" lon="121.00284693581472"><ele>7.7142857142857135</ele><time>2026-04-14T03:34:38Z</time></trkpt><trkpt lat="14.565807857698676" lon="121.0029027942917"><ele>8.0</ele><time>2026-04-14T03:34:43Z</time></trkpt><trkpt lat="14.565719537231088" lon="121.00311586820821"><ele>8.0</ele><time>2026-04-14T03:34:49Z</time></trkpt><trkpt lat="14.56566215743713" lon="121.0031520204005"><ele>8.0</ele><time>2026-04-14T03:34:51Z</time></trkpt><trkpt lat="14.565566436510714" lon="121.00321232953694"><ele>8.0</ele><time>2026-04-14T03:34:54Z</time></trkpt><trkpt lat="14.565460832076287" lon="121.0032850423166"><ele>8.0</ele><time>2026-04-14T03:34:56Z</time></trkpt><trkpt lat="14.565404027159929" lon="121.00333115170139"><ele>8.0</ele><time>2026-04-14T03:34:57Z</time></trkpt><trkpt lat="14.565341766022737" lon="121.00337799872315"><ele>7.6000000000000005</ele><time>2026-04-14T03:34:58Z</time></trkpt><trkpt lat="14.565282518022205" lon="121.00341852529543"><ele>7.200000000000001</ele><time>2026-04-14T03:34:59Z</time></trkpt><trkpt lat="14.565208450529028" lon="121.00349076653623"><ele>6.8</ele><time>2026-04-14T03:35:01Z</time></trkpt><trkpt lat="14.565115834792735" lon="121.00357107574557"><ele>6.4</ele><time>2026-04-14T03:35:03Z</time></trkpt><trkpt lat="14.565051529252662" lon="121.0035809488827"><ele>6.0</ele><time>2026-04-14T03:35:04Z</time></trkpt><trkpt lat="14.56496569692955" lon="121.00363896965287"><ele>6.0</ele><time>2026-04-14T03:35:06Z</time></trkpt><trkpt lat="14.564878988142853" lon="121.00365513461469"><ele>6.0</ele><time>2026-04-14T03:35:07Z</time></trkpt><trkpt lat="14.564791323936417" lon="121.00368598018977"><ele>6.0</ele><time>2026-04-14T03:35:08Z</time></trkpt><trkpt lat="14.564687089162804" lon="121.00374128254228"><ele>6.0</ele><time>2026-04-14T03:35:09Z</time></trkpt><trkpt lat="14.564524859582145" lon="121.00383266459858"><ele>6.0</ele><time>2026-04-14T03:35:10Z</time></trkpt><trkpt lat="14.564362431253057" lon="121.00392923570716"><ele>6.0</ele><time>2026-04-14T03:35:11Z</time></trkpt><trkpt lat="14.564206788863162" lon="121.00401749739993"><ele>6.0</ele><time>2026-04-14T03:35:12Z</time></trkpt><trkpt lat="14.564097717198328" lon="121.00407599809651"><ele>6.0</ele><time>2026-04-14T03:35:13Z</time></trkpt><trkpt lat="14.563966300112089" lon="121.00414349402172"><ele>6.0</ele><time>2026-04-14T03:35:14Z</time></trkpt><trkpt lat="14.56385652129087" lon="121.00420337350046"><ele>6.0</ele><time>2026-04-14T03:35:15Z</time></trkpt><trkpt lat="14.56370730798164" lon="121.0043071331827"><ele>6.25</ele><time>2026-04-14T03:35:16Z</time></trkpt><trkpt lat="14.563576814788979" lon="121.00439365136573"><ele>6.5</ele><time>2026-04-14T03:35:17Z</time></trkpt><trkpt lat="14.563460994857408" lon="121.00440966502147"><ele>6.75</ele><time>2026-04-14T03:35:18Z</time></trkpt><trkpt lat="14.5633683058355" lon="121.00445545660374"><ele>7.0</ele><time>2026-04-14T03:35:19Z</time></trkpt><trkpt lat="14.56323369591196" lon="121.00448011919157"><ele>7.000000000000001</ele><time>2026-04-14T03:35:21Z</time></trkpt><trkpt lat="14.563154495936962" lon="121.00450679636215"><ele>7.0</ele><time>2026-04-14T03:35:22Z</time></trkpt><trkpt lat="14.563071011400947" lon="121.00454185204161"><ele>7.0</ele><time>2026-04-14T03:35:23Z</time></trkpt><trkpt lat="14.562985780409004" lon="121.00458368100402"><ele>7.0</ele><time>2026-04-14T03:35:24Z</time></trkpt><trkpt lat="14.562902844068578" lon="121.00462734624409"><ele>7.000000000000001</ele><time>2026-04-14T03:35:25Z</time></trkpt><trkpt lat="14.562845099591613" lon="121.00466052430153"><ele>7.0</ele><time>2026-04-14T03:35:26Z</time></trkpt><trkpt lat="14.562772549094028" lon="121.00469352977399"><ele>6.6</ele><time>2026-04-14T03:35:27Z</time></trkpt><trkpt lat="14.562710496903465" lon="121.00472653747411"><ele>6.199999999999999</ele><time>2026-04-14T03:35:28Z</time></trkpt><trkpt lat="14.562624460383399" lon="121.00476708502778"><ele>5.8</ele><time>2026-04-14T03:35:30Z</time></trkpt><trkpt lat="14.562536316770737" lon="121.00480522282722"><ele>5.4</ele><time>2026-04-14T03:35:32Z</time></trkpt><trkpt lat="14.56241930178992" lon="121.00485892313004"><ele>5.0</ele><time>2026-04-14T03:35:34Z</time></trkpt><trkpt lat="14.562297476405563" lon="121.00491955078432"><ele>5.0</ele><time>2026-04-14T03:35:36Z</time></trkpt><trkpt lat="14.562232318307315" lon="121.00495621073782"><ele>5.0</ele><time>2026-04-14T03:35:37Z</time></trkpt><trkpt lat="14.562168867651788" lon="121.00499412331416"><ele>5.0</ele><time>2026-04-14T03:35:38Z</time></trkpt><trkpt lat="14.562101613876706" lon="121.00503410361958"><ele>5.0</ele><time>2026-04-14T03:35:39Z</time></trkpt><trkpt lat="14.562042415376784" lon="121.00507329644053"><ele>5.0</ele><time>2026-04-14T03:35:40Z</time></trkpt><trkpt lat="14.561977717917642" lon="121.00510821482372"><ele>5.0</ele><time>2026-04-14T03:35:41Z</time></trkpt><trkpt lat="14.561909133983844" lon="121.00514062413666"><ele>5.0</ele><time>2026-04-14T03:35:42Z</time></trkpt><trkpt lat="14.56180229484555" lon="121.00520086681894"><ele>5.166666666666667</ele><time>2026-04-14T03:35:44Z</time></trkpt><trkpt lat="14.561730252792566" lon="121.00524237116495"><ele>5.333333333333334</ele><time>2026-04-14T03:35:47Z</time></trkpt><trkpt lat="14.561664295717264" lon="121.00527285355022"><ele>5.5</ele><time>2026-04-14T03:35:49Z</time></trkpt><trkpt lat="14.561604909895184" lon="121.00531278643547"><ele>5.666666666666667</ele><time>2026-04-14T03:35:52Z</time></trkpt><trkpt lat="14.56153215816787" lon="121.00534613308255"><ele>5.833333333333333</ele><time>2026-04-14T03:35:54Z</time></trkpt><trkpt lat="14.56141108525057" lon="121.00541692141643"><ele>6.0</ele><time>2026-04-14T03:35:56Z</time></trkpt><trkpt lat="14.561344389218936" lon="121.0054514949483"><ele>6.0</ele><time>2026-04-14T03:35:57Z</time></trkpt><trkpt lat="14.561282914894235" lon="121.00548335469668"><ele>6.0</ele><time>2026-04-14T03:35:58Z</time></trkpt><trkpt lat="14.561187154059075" lon="121.00553871566557"><ele>6.0</ele><time>2026-04-14T03:36:00Z</time></trkpt><trkpt lat="14.561117156762514" lon="121.0055827303332"><ele>6.0</ele><time>2026-04-14T03:36:02Z</time></trkpt><trkpt lat="14.561038853364805" lon="121.00561823014985"><ele>6.0</ele><time>2026-04-14T03:36:04Z</time></trkpt><trkpt lat="14.56094798199794" lon="121.00566296588525"><ele>6.0</ele><time>2026-04-14T03:36:06Z</time></trkpt><trkpt lat="14.560857643595805" lon="121.00571220040932"><ele>6.25</ele><time>2026-04-14T03:36:08Z</time></trkpt><trkpt lat="14.56075102173376" lon="121.00576668430591"><ele>6.5</ele><time>2026-04-14T03:36:09Z</time></trkpt><trkpt lat="14.560677764312203" lon="121.00580567301878"><ele>6.75</ele><time>2026-04-14T03:36:10Z</time></trkpt><trkpt lat="14.560575306742319" lon="121.00586114696651"><ele>7.0</ele><time>2026-04-14T03:36:12Z</time></trkpt><trkpt lat="14.560447813218852" lon="121.00593965808343"><ele>6.8</ele><time>2026-04-14T03:36:14.001Z</time></trkpt><trkpt lat="14.560325759759921" lon="121.00600918432657"><ele>6.6</ele><time>2026-04-14T03:36:16.001Z</time></trkpt><trkpt lat="14.560254451093872" lon="121.00604450389237"><ele>6.3999999999999995</ele><time>2026-04-14T03:36:17.001Z</time></trkpt><trkpt lat="14.560181790240435" lon="121.00608616644969"><ele>6.199999999999999</ele><time>2026-04-14T03:36:18.001Z</time></trkpt><trkpt lat="14.560088013644117" lon="121.00613314846584"><ele>6.0</ele><time>2026-04-14T03:36:19.001Z</time></trkpt><trkpt lat="14.559993517845472" lon="121.00617577209087"><ele>5.999999999999999</ele><time>2026-04-14T03:36:20Z</time></trkpt><trkpt lat="14.559928970917548" lon="121.00621349916831"><ele>6.0</ele><time>2026-04-14T03:36:21Z</time></trkpt><trkpt lat="14.559860414796896" lon="121.00625805848767"><ele>6.0</ele><time>2026-04-14T03:36:22Z</time></trkpt><trkpt lat="14.559789327133942" lon="121.00629514847182"><ele>6.0</ele><time>2026-04-14T03:36:23Z</time></trkpt><trkpt lat="14.559719820065107" lon="121.0063258467205"><ele>6.0</ele><time>2026-04-14T03:36:24Z</time></trkpt><trkpt lat="14.559661207652603" lon="121.00636382835545"><ele>5.999999999999999</ele><time>2026-04-14T03:36:25Z</time></trkpt><trkpt lat="14.55960185478427" lon="121.00639884527206"><ele>6.0</ele><time>2026-04-14T03:36:26Z</time></trkpt><trkpt lat="14.559538416454203" lon="121.00643590748004"><ele>6.166666666666667</ele><time>2026-04-14T03:36:27Z</time></trkpt><trkpt lat="14.559476578489727" lon="121.00646312183322"><ele>6.333333333333334</ele><time>2026-04-14T03:36:28Z</time></trkpt><trkpt lat="14.559404118870386" lon="121.00649599494822"><ele>6.5</ele><time>2026-04-14T03:36:29Z</time></trkpt><trkpt lat="14.55931998359031" lon="121.00654906014833"><ele>6.666666666666667</ele><time>2026-04-14T03:36:30Z</time></trkpt><trkpt lat="14.55923649639786" lon="121.00660087022153"><ele>6.833333333333334</ele><time>2026-04-14T03:36:31Z</time></trkpt><trkpt lat="14.559149533068574" lon="121.006647452247"><ele>7.0</ele><time>2026-04-14T03:36:32Z</time></trkpt><trkpt lat="14.559078955795277" lon="121.00669041867926"><ele>7.000000000000001</ele><time>2026-04-14T03:36:33Z</time></trkpt><trkpt lat="14.559020058574596" lon="121.00672679341052"><ele>7.0</ele><time>2026-04-14T03:36:34Z</time></trkpt><trkpt lat="14.558910999218371" lon="121.00676757700758"><ele>7.0</ele><time>2026-04-14T03:36:36Z</time></trkpt><trkpt lat="14.55885013460916" lon="121.00680530035427"><ele>7.0</ele><time>2026-04-14T03:36:37Z</time></trkpt><trkpt lat="14.558791601695246" lon="121.00684663130278"><ele>7.000000000000001</ele><time>2026-04-14T03:36:38Z</time></trkpt><trkpt lat="14.558678562343918" lon="121.00689663632113"><ele>7.0</ele><time>2026-04-14T03:36:40Z</time></trkpt><trkpt lat="14.558618107039184" lon="121.00692887262416"><ele>7.333333333333334</ele><time>2026-04-14T03:36:41Z</time></trkpt><trkpt lat="14.558534299189988" lon="121.00700598240721"><ele>7.666666666666667</ele><time>2026-04-14T03:36:43Z</time></trkpt><trkpt lat="14.558466206305914" lon="121.00704313378213"><ele>8.0</ele><time>2026-04-14T03:36:44Z</time></trkpt><trkpt lat="14.558400390534613" lon="121.00706994076613"><ele>8.333333333333334</ele><time>2026-04-14T03:36:45Z</time></trkpt><trkpt lat="14.558327845562397" lon="121.00709940290965"><ele>8.666666666666666</ele><time>2026-04-14T03:36:46Z</time></trkpt><trkpt lat="14.55826444121999" lon="121.00714127152324"><ele>9.0</ele><time>2026-04-14T03:36:47Z</time></trkpt><trkpt lat="14.558188034646118" lon="121.00717438320414"><ele>9.0</ele><time>2026-04-14T03:36:48Z</time></trkpt><trkpt lat="14.558127699528514" lon="121.00720329688338"><ele>9.0</ele><time>2026-04-14T03:36:49Z</time></trkpt><trkpt lat="14.558059971597737" lon="121.0072329712983"><ele>9.0</ele><time>2026-04-14T03:36:50Z</time></trkpt><trkpt lat="14.558001427908586" lon="121.00726012382108"><ele>9.0</ele><time>2026-04-14T03:36:51Z</time></trkpt><trkpt lat="14.557942323523397" lon="121.00728776643497"><ele>9.0</ele><time>2026-04-14T03:36:52Z</time></trkpt><trkpt lat="14.557865858399751" lon="121.00734092648253"><ele>9.0</ele><time>2026-04-14T03:36:54Z</time></trkpt><trkpt lat="14.557753861326086" lon="121.0074077764221"><ele>8.8</ele><time>2026-04-14T03:36:56Z</time></trkpt><trkpt lat="14.557656999139942" lon="121.00745777991798"><ele>8.600000000000001</ele><time>2026-04-14T03:36:58Z</time></trkpt><trkpt lat="14.557562431854704" lon="121.00751817633096"><ele>8.4</ele><time>2026-04-14T03:37:00Z</time></trkpt><trkpt lat="14.557457589379561" lon="121.00757081171966"><ele>8.200000000000001</ele><time>2026-04-14T03:37:02Z</time></trkpt><trkpt lat="14.557399160331057" lon="121.00760293503872"><ele>8.0</ele><time>2026-04-14T03:37:03Z</time></trkpt><trkpt lat="14.557289170612975" lon="121.00766547916767"><ele>7.800000000000001</ele><time>2026-04-14T03:37:05Z</time></trkpt><trkpt lat="14.557187083100576" lon="121.00771948606513"><ele>7.6000000000000005</ele><time>2026-04-14T03:37:07Z</time></trkpt><trkpt lat="14.557093609568744" lon="121.00776784220045"><ele>7.3999999999999995</ele><time>2026-04-14T03:37:09Z</time></trkpt><trkpt lat="14.556987015807648" lon="121.00781531021433"><ele>7.199999999999999</ele><time>2026-04-14T03:37:11Z</time></trkpt><trkpt lat="14.556892427609384" lon="121.00785336561395"><ele>7.0</ele><time>2026-04-14T03:37:13Z</time></trkpt><trkpt lat="14.556783164866589" lon="121.00790970428677"><ele>6.666666666666667</ele><time>2026-04-14T03:37:15Z</time></trkpt><trkpt lat="14.556683859600469" lon="121.00795902727545"><ele>6.333333333333334</ele><time>2026-04-14T03:37:17Z</time></trkpt><trkpt lat="14.556631354055673" lon="121.0080067175562"><ele>6.0</ele><time>2026-04-14T03:37:18Z</time></trkpt><trkpt lat="14.556584941844953" lon="121.00805502773612"><ele>5.666666666666667</ele><time>2026-04-14T03:37:19Z</time></trkpt><trkpt lat="14.556527089478605" lon="121.00808339306909"><ele>5.333333333333334</ele><time>2026-04-14T03:37:20Z</time></trkpt><trkpt lat="14.556459711906806" lon="121.00811305894717"><ele>5.0</ele><time>2026-04-14T03:37:21Z</time></trkpt><trkpt lat="14.556392762223002" lon="121.00814460121221"><ele>5.0</ele><time>2026-04-14T03:37:22Z</time></trkpt><trkpt lat="14.556336343643702" lon="121.00817828950663"><ele>5.0</ele><time>2026-04-14T03:37:25Z</time></trkpt><trkpt lat="14.556266909582618" lon="121.00820583983443"><ele>5.0</ele><time>2026-04-14T03:37:27Z</time></trkpt><trkpt lat="14.556165295626373" lon="121.00826451504192"><ele>5.0</ele><time>2026-04-14T03:37:29Z</time></trkpt><trkpt lat="14.55607492300338" lon="121.0083192605689"><ele>5.0</ele><time>2026-04-14T03:37:31Z</time></trkpt><trkpt lat="14.555992639868942" lon="121.00835440487418"><ele>5.6</ele><time>2026-04-14T03:37:33Z</time></trkpt><trkpt lat="14.555915590954474" lon="121.00840556230754"><ele>6.2</ele><time>2026-04-14T03:37:35Z</time></trkpt><trkpt lat="14.555808839892096" lon="121.00846082287147"><ele>6.800000000000001</ele><time>2026-04-14T03:37:37Z</time></trkpt><trkpt lat="14.555749316778938" lon="121.0084957532656"><ele>7.4</ele><time>2026-04-14T03:37:38Z</time></trkpt><trkpt lat="14.555636597291382" lon="121.00855324335264"><ele>8.0</ele><time>2026-04-14T03:37:40Z</time></trkpt><trkpt lat="14.555564693004767" lon="121.00859075722478"><ele>7.999999999999999</ele><time>2026-04-14T03:37:41Z</time></trkpt><trkpt lat="14.555500645984983" lon="121.00862500900426"><ele>8.0</ele><time>2026-04-14T03:37:42Z</time></trkpt><trkpt lat="14.555435556037429" lon="121.00866045919915"><ele>8.0</ele><time>2026-04-14T03:37:43Z</time></trkpt><trkpt lat="14.555362516390153" lon="121.0087010736568"><ele>8.0</ele><time>2026-04-14T03:37:44Z</time></trkpt><trkpt lat="14.555290943328327" lon="121.00873753187214"><ele>7.999999999999999</ele><time>2026-04-14T03:37:45Z</time></trkpt><trkpt lat="14.55521114988536" lon="121.00877875743946"><ele>8.0</ele><time>2026-04-14T03:37:46Z</time></trkpt><trkpt lat="14.555126566126367" lon="121.00882889528543"><ele>7.4</ele><time>2026-04-14T03:37:47Z</time></trkpt><trkpt lat="14.555037549604716" lon="121.00887209427826"><ele>6.800000000000001</ele><time>2026-04-14T03:37:48Z</time></trkpt><trkpt lat="14.554937804367219" lon="121.00891179292115"><ele>6.2</ele><time>2026-04-14T03:37:49Z</time></trkpt><trkpt lat="14.554835496427954" lon="121.00894515128485"><ele>5.6</ele><time>2026-04-14T03:37:50Z</time></trkpt><trkpt lat="14.554745741607205" lon="121.00898620839767"><ele>5.0</ele><time>2026-04-14T03:37:51Z</time></trkpt><trkpt lat="14.554653040898456" lon="121.0090329154929"><ele>5.0</ele><time>2026-04-14T03:37:52Z</time></trkpt><trkpt lat="14.554547402809334" lon="121.00908616166627"><ele>5.0</ele><time>2026-04-14T03:37:53Z</time></trkpt><trkpt lat="14.554449378357228" lon="121.00914945797695"><ele>5.0</ele><time>2026-04-14T03:37:54Z</time></trkpt><trkpt lat="14.554345320507569" lon="121.00919441546382"><ele>5.0</ele><time>2026-04-14T03:37:55Z</time></trkpt><trkpt lat="14.554239240505582" lon="121.00924948609986"><ele>5.5</ele><time>2026-04-14T03:37:56Z</time></trkpt><trkpt lat="14.554131998676167" lon="121.00931054825017"><ele>6.0</ele><time>2026-04-14T03:37:57Z</time></trkpt><trkpt lat="14.554013936123157" lon="121.00936968368084"><ele>6.5</ele><time>2026-04-14T03:37:58Z</time></trkpt><trkpt lat="14.553897590422771" lon="121.00942736185125"><ele>7.0</ele><time>2026-04-14T03:37:59Z</time></trkpt><trkpt lat="14.553782605779071" lon="121.00950012904069"><ele>7.0</ele><time>2026-04-14T03:38:00Z</time></trkpt><trkpt lat="14.553687060904808" lon="121.00955691410216"><ele>7.0</ele><time>2026-04-14T03:38:01Z</time></trkpt><trkpt lat="14.553582785260442" lon="121.00960636254568"><ele>7.0</ele><time>2026-04-14T03:38:02Z</time></trkpt><trkpt lat="14.553481098829465" lon="121.00966615722062"><ele>7.0</ele><time>2026-04-14T03:38:03Z</time></trkpt><trkpt lat="14.553386214657985" lon="121.00973009962735"><ele>7.0</ele><time>2026-04-14T03:38:04Z</time></trkpt><trkpt lat="14.55328447297698" lon="121.00979195400599"><ele>6.999999999999999</ele><time>2026-04-14T03:38:05Z</time></trkpt><trkpt lat="14.553195791555599" lon="121.00984999664003"><ele>6.999999999999999</ele><time>2026-04-14T03:38:06Z</time></trkpt><trkpt lat="14.553104344442204" lon="121.00988711179687"><ele>7.0</ele><time>2026-04-14T03:38:07Z</time></trkpt><trkpt lat="14.553010720249645" lon="121.0099225950488"><ele>7.0</ele><time>2026-04-14T03:38:08Z</time></trkpt><trkpt lat="14.552909656671886" lon="121.00996757021476"><ele>7.0</ele><time>2026-04-14T03:38:09Z</time></trkpt><trkpt lat="14.552815969643172" lon="121.01002768378636"><ele>6.999999999999999</ele><time>2026-04-14T03:38:10Z</time></trkpt><trkpt lat="14.55272094382943" lon="121.01007282071367"><ele>6.999999999999999</ele><time>2026-04-14T03:38:11Z</time></trkpt><trkpt lat="14.552629594603761" lon="121.01011927742965"><ele>7.0</ele><time>2026-04-14T03:38:12Z</time></trkpt><trkpt lat="14.552543042269836" lon="121.01016473084739"><ele>7.0</ele><time>2026-04-14T03:38:13Z</time></trkpt><trkpt lat="14.552484798285162" lon="121.01021270911836"><ele>7.000000000000001</ele><time>2026-04-14T03:38:14Z</time></trkpt><trkpt lat="14.552404430965362" lon="121.01024936085413"><ele>7.0</ele><time>2026-04-14T03:38:15Z</time></trkpt><trkpt lat="14.552335529523505" lon="121.01028280498305"><ele>7.0</ele><time>2026-04-14T03:38:16Z</time></trkpt><trkpt lat="14.552265828481545" lon="121.01032292441654"><ele>7.0</ele><time>2026-04-14T03:38:17Z</time></trkpt><trkpt lat="14.552198986530604" lon="121.01036440843708"><ele>7.000000000000001</ele><time>2026-04-14T03:38:18Z</time></trkpt><trkpt lat="14.552135404066526" lon="121.01040821839631"><ele>7.0</ele><time>2026-04-14T03:38:19Z</time></trkpt><trkpt lat="14.552071637825618" lon="121.01044242716836"><ele>7.199999999999999</ele><time>2026-04-14T03:38:20Z</time></trkpt><trkpt lat="14.551999561816167" lon="121.01049370952862"><ele>7.3999999999999995</ele><time>2026-04-14T03:38:21Z</time></trkpt><trkpt lat="14.551911886942948" lon="121.01053331040754"><ele>7.6000000000000005</ele><time>2026-04-14T03:38:22Z</time></trkpt><trkpt lat="14.551831942253605" lon="121.01059825686707"><ele>7.800000000000001</ele><time>2026-04-14T03:38:23Z</time></trkpt><trkpt lat="14.551729130499078" lon="121.01067001955144"><ele>8.0</ele><time>2026-04-14T03:38:24Z</time></trkpt><trkpt lat="14.551624395062627" lon="121.01072668296779"><ele>8.0</ele><time>2026-04-14T03:38:25Z</time></trkpt><trkpt lat="14.551528242724581" lon="121.01077792547169"><ele>8.0</ele><time>2026-04-14T03:38:26Z</time></trkpt><trkpt lat="14.551456052220699" lon="121.01080683789208"><ele>8.0</ele><time>2026-04-14T03:38:27Z</time></trkpt><trkpt lat="14.551380746531487" lon="121.01081840664583"><ele>8.0</ele><time>2026-04-14T03:38:29Z</time></trkpt><trkpt lat="14.551321052928646" lon="121.01079446240038"><ele>8.0</ele><time>2026-04-14T03:38:45Z</time></trkpt><trkpt lat="14.551207230152134" lon="121.0108712279464"><ele>8.25</ele><time>2026-04-14T03:39:46Z</time></trkpt><trkpt lat="14.551135659213093" lon="121.01093773829251"><ele>8.5</ele><time>2026-04-14T03:39:47Z</time></trkpt><trkpt lat="14.551057828066245" lon="121.01100323422399"><ele>8.75</ele><time>2026-04-14T03:39:48Z</time></trkpt><trkpt lat="14.55092223400909" lon="121.01101302581561"><ele>9.0</ele><time>2026-04-14T03:39:49Z</time></trkpt><trkpt lat="14.550813222896215" lon="121.01106642373689"><ele>9.0</ele><time>2026-04-14T03:39:50Z</time></trkpt><trkpt lat="14.550690008569404" lon="121.0111051958323"><ele>9.0</ele><time>2026-04-14T03:39:51Z</time></trkpt><trkpt lat="14.55057019019219" lon="121.01119295240225"><ele>9.0</ele><time>2026-04-14T03:39:52Z</time></trkpt><trkpt lat="14.550442625151568" lon="121.01128562131395"><ele>9.0</ele><time>2026-04-14T03:39:53Z</time></trkpt><trkpt lat="14.550298950879915" lon="121.01138963423665"><ele>8.666666666666666</ele><time>2026-04-14T03:39:54Z</time></trkpt><trkpt lat="14.550170492429197" lon="121.01142156120187"><ele>8.333333333333332</ele><time>2026-04-14T03:39:55Z</time></trkpt><trkpt lat="14.550018358916919" lon="121.01148974716035"><ele>8.0</ele><time>2026-04-14T03:39:56Z</time></trkpt><trkpt lat="14.54986498887379" lon="121.01157171744711"><ele>8.666666666666666</ele><time>2026-04-14T03:39:57Z</time></trkpt><trkpt lat="14.549722497726016" lon="121.01166362418807"><ele>9.333333333333334</ele><time>2026-04-14T03:39:58Z</time></trkpt><trkpt lat="14.549559741233217" lon="121.01173876842171"><ele>10.0</ele><time>2026-04-14T03:39:59Z</time></trkpt><trkpt lat="14.549400573235685" lon="121.01183338822791"><ele>10.0</ele><time>2026-04-14T03:40:00Z</time></trkpt><trkpt lat="14.549257047896287" lon="121.01194227381225"><ele>10.0</ele><time>2026-04-14T03:40:01Z</time></trkpt><trkpt lat="14.54910380597833" lon="121.01201350970271"><ele>10.0</ele><time>2026-04-14T03:40:02Z</time></trkpt><trkpt lat="14.54895179106275" lon="121.01211351717593"><ele>10.0</ele><time>2026-04-14T03:40:03Z</time></trkpt><trkpt lat="14.54879175784374" lon="121.01221285931157"><ele>10.0</ele><time>2026-04-14T03:40:04Z</time></trkpt><trkpt lat="14.548641219252838" lon="121.01230790197472"><ele>10.0</ele><time>2026-04-14T03:40:05Z</time></trkpt><trkpt lat="14.54847378522147" lon="121.0124065855642"><ele>9.333333333333334</ele><time>2026-04-14T03:40:06Z</time></trkpt><trkpt lat="14.548313718756598" lon="121.01250304488623"><ele>8.666666666666666</ele><time>2026-04-14T03:40:07Z</time></trkpt><trkpt lat="14.548173016734763" lon="121.01258781504052"><ele>8.0</ele><time>2026-04-14T03:40:08Z</time></trkpt><trkpt lat="14.548011887942993" lon="121.01268583496062"><ele>8.5</ele><time>2026-04-14T03:40:09Z</time></trkpt><trkpt lat="14.547787249784147" lon="121.01280533333308"><ele>9.0</ele><time>2026-04-14T03:40:10Z</time></trkpt><trkpt lat="14.547591251751614" lon="121.01292656459229"><ele>9.0</ele><time>2026-04-14T03:40:11Z</time></trkpt><trkpt lat="14.547398560423098" lon="121.01303917940004"><ele>9.0</ele><time>2026-04-14T03:40:12Z</time></trkpt><trkpt lat="14.547225090065105" lon="121.01315547282694"><ele>9.0</ele><time>2026-04-14T03:40:13Z</time></trkpt><trkpt lat="14.547038681856032" lon="121.0132604647045"><ele>11.0</ele><time>2026-04-14T03:40:14Z</time></trkpt><trkpt lat="14.54682215933959" lon="121.01334749794745"><ele>13.0</ele><time>2026-04-14T03:40:15Z</time></trkpt><trkpt lat="14.546608611541169" lon="121.01344529583788"><ele>13.0</ele><time>2026-04-14T03:40:16Z</time></trkpt><trkpt lat="14.546404360341178" lon="121.01352671074024"><ele>13.0</ele><time>2026-04-14T03:40:17Z</time></trkpt><trkpt lat="14.54620636451839" lon="121.01364737961599"><ele>13.0</ele><time>2026-04-14T03:40:18Z</time></trkpt><trkpt lat="14.546019189790805" lon="121.01375141921055"><ele>12.0</ele><time>2026-04-14T03:40:19Z</time></trkpt><trkpt lat="14.545828328227591" lon="121.01385725071933"><ele>11.0</ele><time>2026-04-14T03:40:20Z</time></trkpt><trkpt lat="14.545634288814293" lon="121.01396008543236"><ele>10.0</ele><time>2026-04-14T03:40:21Z</time></trkpt><trkpt lat="14.545445431263467" lon="121.01405994945992"><ele>10.666666666666668</ele><time>2026-04-14T03:40:22Z</time></trkpt><trkpt lat="14.54524245619306" lon="121.01416074662515"><ele>11.333333333333334</ele><time>2026-04-14T03:40:23Z</time></trkpt><trkpt lat="14.545047074326824" lon="121.0142526345488"><ele>12.0</ele><time>2026-04-14T03:40:24Z</time></trkpt><trkpt lat="14.544856679401459" lon="121.01434979907121"><ele>12.0</ele><time>2026-04-14T03:40:25Z</time></trkpt><trkpt lat="14.544664061719324" lon="121.01447388272597"><ele>12.0</ele><time>2026-04-14T03:40:26Z</time></trkpt><trkpt lat="14.5444766633175" lon="121.01457586821894"><ele>12.0</ele><time>2026-04-14T03:40:27Z</time></trkpt><trkpt lat="14.544281565721466" lon="121.01468258914683"><ele>12.0</ele><time>2026-04-14T03:40:28Z</time></trkpt><trkpt lat="14.544088602969861" lon="121.01479043175286"><ele>12.0</ele><time>2026-04-14T03:40:29Z</time></trkpt><trkpt lat="14.543904845009653" lon="121.01489715700666"><ele>12.0</ele><time>2026-04-14T03:40:30Z</time></trkpt><trkpt lat="14.54371414619023" lon="121.01499852229898"><ele>12.0</ele><time>2026-04-14T03:40:30.999Z</time></trkpt><trkpt lat="14.5435167625512" lon="121.0150998488925"><ele>12.0</ele><time>2026-04-14T03:40:31.999Z</time></trkpt><trkpt lat="14.543323987921207" lon="121.01520637854601"><ele>12.0</ele><time>2026-04-14T03:40:32.999Z</time></trkpt><trkpt lat="14.54312742460885" lon="121.01530876256022"><ele>12.0</ele><time>2026-04-14T03:40:33.999Z</time></trkpt><trkpt lat="14.542925000415602" lon="121.01541687514926"><ele>12.0</ele><time>2026-04-14T03:40:34.999Z</time></trkpt><trkpt lat="14.542725701492712" lon="121.01552272124114"><ele>14.5</ele><time>2026-04-14T03:40:35.999Z</time></trkpt><trkpt lat="14.542523969796822" lon="121.01563405984126"><ele>17.0</ele><time>2026-04-14T03:40:36.999Z</time></trkpt><trkpt lat="14.542329710989351" lon="121.01574282774608"><ele>15.0</ele><time>2026-04-14T03:40:37.999Z</time></trkpt><trkpt lat="14.542132673548775" lon="121.01585048024745"><ele>13.0</ele><time>2026-04-14T03:40:38.999Z</time></trkpt><trkpt lat="14.541935705120366" lon="121.01593717170847"><ele>11.0</ele><time>2026-04-14T03:40:39.999Z</time></trkpt><trkpt lat="14.541753505057068" lon="121.01601897381609"><ele>11.0</ele><time>2026-04-14T03:40:40.999Z</time></trkpt><trkpt lat="14.541582443888649" lon="121.01608078685838"><ele>11.0</ele><time>2026-04-14T03:40:41.999Z</time></trkpt><trkpt lat="14.541418139219948" lon="121.01612919349341"><ele>11.0</ele><time>2026-04-14T03:40:42.999Z</time></trkpt><trkpt lat="14.541271197880864" lon="121.0161687976693"><ele>11.25</ele><time>2026-04-14T03:40:43.999Z</time></trkpt><trkpt lat="14.54112883179235" lon="121.01620859700334"><ele>11.5</ele><time>2026-04-14T03:40:44.999Z</time></trkpt><trkpt lat="14.540983839702172" lon="121.0162544549454"><ele>11.75</ele><time>2026-04-14T03:40:45.999Z</time></trkpt><trkpt lat="14.540854991664254" lon="121.01629885754487"><ele>12.0</ele><time>2026-04-14T03:40:46.999Z</time></trkpt><trkpt lat="14.540723677233478" lon="121.01635148071682"><ele>12.0</ele><time>2026-04-14T03:40:47.999Z</time></trkpt><trkpt lat="14.540595603778462" lon="121.01639784039148"><ele>12.0</ele><time>2026-04-14T03:40:48.999Z</time></trkpt><trkpt lat="14.540477334908736" lon="121.01644285194737"><ele>12.0</ele><time>2026-04-14T03:40:49.999Z</time></trkpt><trkpt lat="14.540370291505218" lon="121.01649478785562"><ele>12.0</ele><time>2026-04-14T03:40:50.999Z</time></trkpt><trkpt lat="14.540257646254696" lon="121.01655523879128"><ele>12.0</ele><time>2026-04-14T03:40:51.999Z</time></trkpt><trkpt lat="14.540161764303301" lon="121.01662839844761"><ele>12.0</ele><time>2026-04-14T03:40:52.999Z</time></trkpt><trkpt lat="14.540067688794617" lon="121.01669560664085"><ele>12.0</ele><time>2026-04-14T03:40:53.999Z</time></trkpt><trkpt lat="14.539961847936512" lon="121.01672818065805"><ele>12.0</ele><time>2026-04-14T03:40:54.999Z</time></trkpt><trkpt lat="14.539871461557269" lon="121.01678837751703"><ele>11.8</ele><time>2026-04-14T03:40:56Z</time></trkpt><trkpt lat="14.539789695624304" lon="121.01685289834813"><ele>11.6</ele><time>2026-04-14T03:40:57Z</time></trkpt><trkpt lat="14.539713603731242" lon="121.01691863942123"><ele>11.4</ele><time>2026-04-14T03:40:58Z</time></trkpt><trkpt lat="14.539640433436645" lon="121.0169835005723"><ele>11.200000000000001</ele><time>2026-04-14T03:40:59Z</time></trkpt><trkpt lat="14.539559524685977" lon="121.01704486957425"><ele>11.0</ele><time>2026-04-14T03:41:00Z</time></trkpt><trkpt lat="14.539479879753104" lon="121.01709774802038"><ele>11.333333333333332</ele><time>2026-04-14T03:41:01Z</time></trkpt><trkpt lat="14.539405929959402" lon="121.01716025301943"><ele>11.666666666666666</ele><time>2026-04-14T03:41:02Z</time></trkpt><trkpt lat="14.539336015231434" lon="121.01722056993228"><ele>12.0</ele><time>2026-04-14T03:41:03Z</time></trkpt><trkpt lat="14.539273722477922" lon="121.01727241213796"><ele>12.333333333333332</ele><time>2026-04-14T03:41:04Z</time></trkpt><trkpt lat="14.539208222816487" lon="121.01732550322687"><ele>12.666666666666666</ele><time>2026-04-14T03:41:05Z</time></trkpt><trkpt lat="14.539138244325965" lon="121.01737566605581"><ele>13.0</ele><time>2026-04-14T03:41:06Z</time></trkpt><trkpt lat="14.539071542042636" lon="121.0174260502452"><ele>12.999999999999998</ele><time>2026-04-14T03:41:07Z</time></trkpt><trkpt lat="14.53901880359233" lon="121.01746440688167"><ele>13.0</ele><time>2026-04-14T03:41:08Z</time></trkpt><trkpt lat="14.538959399173748" lon="121.01750744836635"><ele>13.0</ele><time>2026-04-14T03:41:09Z</time></trkpt><trkpt lat="14.538899247084595" lon="121.01753852245702"><ele>13.0</ele><time>2026-04-14T03:41:10Z</time></trkpt><trkpt lat="14.538827638071158" lon="121.01758331399728"><ele>12.999999999999998</ele><time>2026-04-14T03:41:11Z</time></trkpt><trkpt lat="14.53873468932777" lon="121.01764110937471"><ele>13.0</ele><time>2026-04-14T03:41:12Z</time></trkpt><trkpt lat="14.538638552421922" lon="121.01769566176732"><ele>12.600000000000001</ele><time>2026-04-14T03:41:13Z</time></trkpt><trkpt lat="14.538549770679374" lon="121.01774741734977"><ele>12.200000000000001</ele><time>2026-04-14T03:41:14Z</time></trkpt><trkpt lat="14.538454557347377" lon="121.01779869807969"><ele>11.8</ele><time>2026-04-14T03:41:15Z</time></trkpt><trkpt lat="14.538355848033914" lon="121.01785663217922"><ele>11.4</ele><time>2026-04-14T03:41:16Z</time></trkpt><trkpt lat="14.538256029505789" lon="121.01790319121292"><ele>11.0</ele><time>2026-04-14T03:41:17Z</time></trkpt><trkpt lat="14.538159600362752" lon="121.0179579458924"><ele>11.0</ele><time>2026-04-14T03:41:18Z</time></trkpt><trkpt lat="14.538057441385678" lon="121.0180160083846"><ele>11.0</ele><time>2026-04-14T03:41:19Z</time></trkpt><trkpt lat="14.537962700512898" lon="121.01806539632543"><ele>11.0</ele><time>2026-04-14T03:41:20Z</time></trkpt><trkpt lat="14.537864984722955" lon="121.01812154554091"><ele>11.0</ele><time>2026-04-14T03:41:21Z</time></trkpt><trkpt lat="14.537760999127956" lon="121.01818067188053"><ele>11.0</ele><time>2026-04-14T03:41:22Z</time></trkpt><trkpt lat="14.537654452351406" lon="121.01824032428495"><ele>11.0</ele><time>2026-04-14T03:41:23Z</time></trkpt><trkpt lat="14.537542699695297" lon="121.0183013802499"><ele>11.0</ele><time>2026-04-14T03:41:24Z</time></trkpt><trkpt lat="14.537425883299688" lon="121.01836344138941"><ele>11.0</ele><time>2026-04-14T03:41:25Z</time></trkpt><trkpt lat="14.53730246063933" lon="121.0184343509094"><ele>11.0</ele><time>2026-04-14T03:41:26Z</time></trkpt><trkpt lat="14.537174107541139" lon="121.01850621660644"><ele>11.0</ele><time>2026-04-14T03:41:27Z</time></trkpt><trkpt lat="14.537041258758947" lon="121.01857964295542"><ele>11.0</ele><time>2026-04-14T03:41:28Z</time></trkpt><trkpt lat="14.536906333210345" lon="121.01865778312046"><ele>11.0</ele><time>2026-04-14T03:41:29Z</time></trkpt><trkpt lat="14.536758094240495" lon="121.01873721915925"><ele>11.0</ele><time>2026-04-14T03:41:30Z</time></trkpt><trkpt lat="14.53660968349661" lon="121.01881783320307"><ele>11.0</ele><time>2026-04-14T03:41:31Z</time></trkpt><trkpt lat="14.536453677135745" lon="121.01890298617838"><ele>11.0</ele><time>2026-04-14T03:41:32Z</time></trkpt><trkpt lat="14.5362895671938" lon="121.01898404987617"><ele>11.0</ele><time>2026-04-14T03:41:33Z</time></trkpt><trkpt lat="14.536126894117126" lon="121.01907109547396"><ele>11.0</ele><time>2026-04-14T03:41:34Z</time></trkpt><trkpt lat="14.535958568198447" lon="121.01915979013933"><ele>12.333333333333332</ele><time>2026-04-14T03:41:35Z</time></trkpt><trkpt lat="14.535785659097115" lon="121.01924761536353"><ele>13.666666666666666</ele><time>2026-04-14T03:41:36Z</time></trkpt><trkpt lat="14.535609097028761" lon="121.01933804320089"><ele>15.0</ele><time>2026-04-14T03:41:37Z</time></trkpt><trkpt lat="14.535436317363693" lon="121.01943093617736"><ele>14.333333333333332</ele><time>2026-04-14T03:41:38Z</time></trkpt><trkpt lat="14.53526897539208" lon="121.01952468768758"><ele>13.666666666666666</ele><time>2026-04-14T03:41:39Z</time></trkpt><trkpt lat="14.535108424436203" lon="121.01962254861475"><ele>13.0</ele><time>2026-04-14T03:41:40Z</time></trkpt><trkpt lat="14.534945483342755" lon="121.01971359588602"><ele>13.0</ele><time>2026-04-14T03:41:41Z</time></trkpt><trkpt lat="14.534786111154345" lon="121.01980544026682"><ele>13.0</ele><time>2026-04-14T03:41:42Z</time></trkpt><trkpt lat="14.534630449541952" lon="121.01989190193427"><ele>13.0</ele><time>2026-04-14T03:41:43Z</time></trkpt><trkpt lat="14.534484212414933" lon="121.01998134982871"><ele>14.0</ele><time>2026-04-14T03:41:44Z</time></trkpt><trkpt lat="14.534336224934362" lon="121.02006431923482"><ele>15.0</ele><time>2026-04-14T03:41:45Z</time></trkpt><trkpt lat="14.534186120805746" lon="121.02013967408018"><ele>16.0</ele><time>2026-04-14T03:41:46Z</time></trkpt><trkpt lat="14.534042673746987" lon="121.02021517300517"><ele>16.0</ele><time>2026-04-14T03:41:47Z</time></trkpt><trkpt lat="14.533907626027448" lon="121.0202927968641"><ele>16.0</ele><time>2026-04-14T03:41:48Z</time></trkpt><trkpt lat="14.533775846804549" lon="121.02036141948706"><ele>16.0</ele><time>2026-04-14T03:41:49Z</time></trkpt><trkpt lat="14.533645716847914" lon="121.02043073097398"><ele>16.0</ele><time>2026-04-14T03:41:50Z</time></trkpt><trkpt lat="14.533517039044547" lon="121.02049670463533"><ele>16.25</ele><time>2026-04-14T03:41:51Z</time></trkpt><trkpt lat="14.53339603222689" lon="121.02057651579413"><ele>16.5</ele><time>2026-04-14T03:41:52Z</time></trkpt><trkpt lat="14.53327497600727" lon="121.02065329459927"><ele>16.75</ele><time>2026-04-14T03:41:53Z</time></trkpt><trkpt lat="14.533150631868166" lon="121.02073227602632"><ele>17.0</ele><time>2026-04-14T03:41:54Z</time></trkpt><trkpt lat="14.533023113679837" lon="121.02080375518383"><ele>15.333333333333334</ele><time>2026-04-14T03:41:55Z</time></trkpt><trkpt lat="14.532883928341114" lon="121.02088309598712"><ele>13.666666666666668</ele><time>2026-04-14T03:41:56Z</time></trkpt><trkpt lat="14.532739379607337" lon="121.02095997560644"><ele>12.0</ele><time>2026-04-14T03:41:57Z</time></trkpt><trkpt lat="14.53259960989037" lon="121.0210322332888"><ele>12.0</ele><time>2026-04-14T03:41:58Z</time></trkpt><trkpt lat="14.53243902292713" lon="121.02110728701392"><ele>12.0</ele><time>2026-04-14T03:41:59Z</time></trkpt><trkpt lat="14.532275272742151" lon="121.02118914873904"><ele>12.0</ele><time>2026-04-14T03:42:00Z</time></trkpt><trkpt lat="14.532122760218556" lon="121.02126150336683"><ele>10.666666666666666</ele><time>2026-04-14T03:42:01Z</time></trkpt><trkpt lat="14.531962664340845" lon="121.02134801171178"><ele>9.333333333333332</ele><time>2026-04-14T03:42:02Z</time></trkpt><trkpt lat="14.53178889735915" lon="121.0214410756791"><ele>8.0</ele><time>2026-04-14T03:42:03Z</time></trkpt><trkpt lat="14.531635172491917" lon="121.02152893185442"><ele>8.0</ele><time>2026-04-14T03:42:04Z</time></trkpt><trkpt lat="14.531463124707127" lon="121.02161923917531"><ele>8.0</ele><time>2026-04-14T03:42:05Z</time></trkpt><trkpt lat="14.53130761920144" lon="121.02170561887999"><ele>8.0</ele><time>2026-04-14T03:42:06Z</time></trkpt><trkpt lat="14.531158867362205" lon="121.02178596851672"><ele>8.333333333333332</ele><time>2026-04-14T03:42:07Z</time></trkpt><trkpt lat="14.53100982090605" lon="121.0218669225741"><ele>8.666666666666666</ele><time>2026-04-14T03:42:08Z</time></trkpt><trkpt lat="14.530863826806351" lon="121.0219468351777"><ele>9.0</ele><time>2026-04-14T03:42:09Z</time></trkpt><trkpt lat="14.530716636895372" lon="121.022038699235"><ele>9.0</ele><time>2026-04-14T03:42:10Z</time></trkpt><trkpt lat="14.530574878133752" lon="121.0221224760021"><ele>9.0</ele><time>2026-04-14T03:42:11Z</time></trkpt><trkpt lat="14.530430922060882" lon="121.02220488968095"><ele>9.0</ele><time>2026-04-14T03:42:12Z</time></trkpt><trkpt lat="14.530285592976576" lon="121.02228545115815"><ele>8.666666666666666</ele><time>2026-04-14T03:42:13Z</time></trkpt><trkpt lat="14.530133925495683" lon="121.02237424386209"><ele>8.333333333333332</ele><time>2026-04-14T03:42:14Z</time></trkpt><trkpt lat="14.529984672549842" lon="121.02246026069562"><ele>8.0</ele><time>2026-04-14T03:42:15Z</time></trkpt><trkpt lat="14.529822717972122" lon="121.02255248506272"><ele>8.666666666666666</ele><time>2026-04-14T03:42:16Z</time></trkpt><trkpt lat="14.529683835803187" lon="121.02262632984473"><ele>9.333333333333334</ele><time>2026-04-14T03:42:17Z</time></trkpt><trkpt lat="14.529546972994236" lon="121.02269067443385"><ele>10.0</ele><time>2026-04-14T03:42:18Z</time></trkpt><trkpt lat="14.529417156102067" lon="121.02276589939508"><ele>10.0</ele><time>2026-04-14T03:42:19Z</time></trkpt><trkpt lat="14.529278530173737" lon="121.02285151975295"><ele>10.0</ele><time>2026-04-14T03:42:20Z</time></trkpt><trkpt lat="14.529138566227617" lon="121.02293006872623"><ele>10.0</ele><time>2026-04-14T03:42:21Z</time></trkpt><trkpt lat="14.528988050939839" lon="121.02300293102938"><ele>10.0</ele><time>2026-04-14T03:42:22Z</time></trkpt><trkpt lat="14.52883183802647" lon="121.02308622335109"><ele>10.0</ele><time>2026-04-14T03:42:23Z</time></trkpt><trkpt lat="14.528680239555234" lon="121.02316504481159"><ele>10.0</ele><time>2026-04-14T03:42:24Z</time></trkpt><trkpt lat="14.528529482685238" lon="121.02326621183849"><ele>10.0</ele><time>2026-04-14T03:42:25Z</time></trkpt><trkpt lat="14.528378220512662" lon="121.02334691556534"><ele>10.0</ele><time>2026-04-14T03:42:26Z</time></trkpt><trkpt lat="14.528224361430404" lon="121.02342426750728"><ele>10.0</ele><time>2026-04-14T03:42:27Z</time></trkpt><trkpt lat="14.528069384872218" lon="121.02349703836369"><ele>10.0</ele><time>2026-04-14T03:42:28Z</time></trkpt><trkpt lat="14.527919610585334" lon="121.02357410931359"><ele>10.0</ele><time>2026-04-14T03:42:29Z</time></trkpt><trkpt lat="14.527766758961993" lon="121.02364737003467"><ele>10.0</ele><time>2026-04-14T03:42:30Z</time></trkpt><trkpt lat="14.527621063501963" lon="121.02373892374422"><ele>10.333333333333334</ele><time>2026-04-14T03:42:31Z</time></trkpt><trkpt lat="14.527471158878223" lon="121.02381090339718"><ele>10.666666666666666</ele><time>2026-04-14T03:42:32Z</time></trkpt><trkpt lat="14.527326437417342" lon="121.02388641107993"><ele>11.0</ele><time>2026-04-14T03:42:33Z</time></trkpt><trkpt lat="14.527172122142318" lon="121.02396401403085"><ele>11.333333333333332</ele><time>2026-04-14T03:42:34Z</time></trkpt><trkpt lat="14.527032875352736" lon="121.02403366472959"><ele>11.666666666666666</ele><time>2026-04-14T03:42:35Z</time></trkpt><trkpt lat="14.526883862057636" lon="121.02411986329199"><ele>12.0</ele><time>2026-04-14T03:42:36Z</time></trkpt><trkpt lat="14.526732907259865" lon="121.02420208997464"><ele>12.0</ele><time>2026-04-14T03:42:36.999Z</time></trkpt><trkpt lat="14.52657463247615" lon="121.0242840321641"><ele>12.0</ele><time>2026-04-14T03:42:37.999Z</time></trkpt><trkpt lat="14.526415889225918" lon="121.02437598603872"><ele>12.0</ele><time>2026-04-14T03:42:38.999Z</time></trkpt><trkpt lat="14.52624659175761" lon="121.02446071880361"><ele>10.333333333333334</ele><time>2026-04-14T03:42:39.999Z</time></trkpt><trkpt lat="14.526085162771192" lon="121.0245477564498"><ele>8.666666666666668</ele><time>2026-04-14T03:42:40.999Z</time></trkpt><trkpt lat="14.525921375848487" lon="121.02464513963287"><ele>7.0</ele><time>2026-04-14T03:42:41.999Z</time></trkpt><trkpt lat="14.525766094947995" lon="121.02472581167736"><ele>7.0</ele><time>2026-04-14T03:42:42.999Z</time></trkpt><trkpt lat="14.525616270934147" lon="121.02478757739986"><ele>7.0</ele><time>2026-04-14T03:42:43.999Z</time></trkpt><trkpt lat="14.525485044500682" lon="121.02484974842858"><ele>7.0</ele><time>2026-04-14T03:42:44.999Z</time></trkpt><trkpt lat="14.525355089068684" lon="121.02491675771144"><ele>8.333333333333334</ele><time>2026-04-14T03:42:45.999Z</time></trkpt><trkpt lat="14.52522020634548" lon="121.02497437818762"><ele>9.666666666666666</ele><time>2026-04-14T03:42:46.999Z</time></trkpt><trkpt lat="14.525084094914366" lon="121.02503736559672"><ele>11.0</ele><time>2026-04-14T03:42:47.999Z</time></trkpt><trkpt lat="14.524946758189772" lon="121.02511146920266"><ele>11.0</ele><time>2026-04-14T03:42:48.999Z</time></trkpt><trkpt lat="14.524809819471344" lon="121.02518703168657"><ele>11.0</ele><time>2026-04-14T03:42:49.999Z</time></trkpt><trkpt lat="14.52466679690709" lon="121.02526539718193"><ele>11.0</ele><time>2026-04-14T03:42:50.999Z</time></trkpt><trkpt lat="14.524530331227153" lon="121.02534113238232"><ele>12.0</ele><time>2026-04-14T03:42:51.999Z</time></trkpt><trkpt lat="14.524395733845415" lon="121.02541492678232"><ele>13.0</ele><time>2026-04-14T03:42:52.999Z</time></trkpt><trkpt lat="14.52427390017269" lon="121.02547843062396"><ele>14.0</ele><time>2026-04-14T03:42:53.999Z</time></trkpt><trkpt lat="14.52415611064497" lon="121.02553568594219"><ele>15.0</ele><time>2026-04-14T03:42:54.999Z</time></trkpt><trkpt lat="14.524047954124756" lon="121.02558516810822"><ele>15.0</ele><time>2026-04-14T03:42:55.999Z</time></trkpt><trkpt lat="14.523938785838235" lon="121.02563014483786"><ele>15.0</ele><time>2026-04-14T03:42:56.999Z</time></trkpt><trkpt lat="14.523820733683413" lon="121.02567354048901"><ele>15.0</ele><time>2026-04-14T03:42:57.999Z</time></trkpt><trkpt lat="14.523735945749412" lon="121.02570903028766"><ele>15.0</ele><time>2026-04-14T03:42:58.999Z</time></trkpt><trkpt lat="14.523659541094743" lon="121.02574963913017"><ele>15.0</ele><time>2026-04-14T03:42:59.999Z</time></trkpt><trkpt lat="14.52356073739931" lon="121.02574434764081"><ele>15.2</ele><time>2026-04-14T03:43:00.999Z</time></trkpt><trkpt lat="14.52349808963484" lon="121.0257816751749"><ele>15.4</ele><time>2026-04-14T03:43:01.999Z</time></trkpt><trkpt lat="14.52342293594307" lon="121.02582430358835"><ele>15.600000000000001</ele><time>2026-04-14T03:43:02.999Z</time></trkpt><trkpt lat="14.523312286246615" lon="121.02584370041957"><ele>15.8</ele><time>2026-04-14T03:43:04.999Z</time></trkpt><trkpt lat="14.523211885273787" lon="121.02580711673988"><ele>16.0</ele><time>2026-04-14T03:43:06.999Z</time></trkpt><trkpt lat="14.523175940269155" lon="121.02569516145954"><ele>16.400000000000002</ele><time>2026-04-14T03:43:08.999Z</time></trkpt><trkpt lat="14.523225809536731" lon="121.02558026796113"><ele>16.8</ele><time>2026-04-14T03:43:10.999Z</time></trkpt><trkpt lat="14.523271993936854" lon="121.02551058787354"><ele>17.200000000000003</ele><time>2026-04-14T03:43:11.999Z</time></trkpt><trkpt lat="14.523320122018477" lon="121.02545782849275"><ele>17.6</ele><time>2026-04-14T03:43:12.999Z</time></trkpt><trkpt lat="14.523369406593078" lon="121.02541730320392"><ele>18.0</ele><time>2026-04-14T03:43:13.999Z</time></trkpt><trkpt lat="14.523466810041509" lon="121.02534749850551"><ele>18.0</ele><time>2026-04-14T03:43:15.999Z</time></trkpt><trkpt lat="14.523578211622677" lon="121.02531530892554"><ele>18.0</ele><time>2026-04-14T03:43:17.999Z</time></trkpt><trkpt lat="14.523688114841782" lon="121.02534331848007"><ele>18.0</ele><time>2026-04-14T03:43:20Z</time></trkpt><trkpt lat="14.523763910863542" lon="121.02538747614528"><ele>18.0</ele><time>2026-04-14T03:43:22Z</time></trkpt><trkpt lat="14.523814228356459" lon="121.02543304889505"><ele>18.0</ele><time>2026-04-14T03:43:24Z</time></trkpt><trkpt lat="14.52389709840388" lon="121.02547940642513"><ele>17.5</ele><time>2026-04-14T03:43:27Z</time></trkpt><trkpt lat="14.523965050665483" lon="121.025533485547"><ele>17.0</ele><time>2026-04-14T03:43:30Z</time></trkpt><trkpt lat="14.524031672581534" lon="121.025584367202"><ele>16.5</ele><time>2026-04-14T03:43:35Z</time></trkpt><trkpt lat="14.524091311053565" lon="121.02563151250729"><ele>16.0</ele><time>2026-04-14T03:43:38Z</time></trkpt><trkpt lat="14.52416088655885" lon="121.02568514631254"><ele>15.5</ele><time>2026-04-14T03:43:41Z</time></trkpt><trkpt lat="14.524213711259133" lon="121.02572599063595"><ele>15.0</ele><time>2026-04-14T03:43:43Z</time></trkpt><trkpt lat="14.524281129163256" lon="121.02577769018686"><ele>15.333333333333334</ele><time>2026-04-14T03:43:46Z</time></trkpt><trkpt lat="14.524335199570139" lon="121.02581944021654"><ele>15.666666666666668</ele><time>2026-04-14T03:43:48Z</time></trkpt><trkpt lat="14.524411777860596" lon="121.02587881545223"><ele>16.0</ele><time>2026-04-14T03:43:51Z</time></trkpt><trkpt lat="14.524472218072868" lon="121.02592610371018"><ele>16.333333333333336</ele><time>2026-04-14T03:43:54Z</time></trkpt><trkpt lat="14.524528024370065" lon="121.02596987787054"><ele>16.666666666666668</ele><time>2026-04-14T03:43:58Z</time></trkpt><trkpt lat="14.524579379026376" lon="121.02602280105015"><ele>17.0</ele><time>2026-04-14T03:44:01Z</time></trkpt><trkpt lat="14.524653491081214" lon="121.0260593204441"><ele>16.2</ele><time>2026-04-14T03:44:05Z</time></trkpt><trkpt lat="14.524719686252679" lon="121.02609993611932"><ele>15.399999999999999</ele><time>2026-04-14T03:44:08Z</time></trkpt><trkpt lat="14.524785354500953" lon="121.02617187753255"><ele>14.600000000000001</ele><time>2026-04-14T03:44:11Z</time></trkpt><trkpt lat="14.524853026436155" lon="121.02625354312426"><ele>13.8</ele><time>2026-04-14T03:44:13Z</time></trkpt><trkpt lat="14.524923415990623" lon="121.02631611840422"><ele>13.0</ele><time>2026-04-14T03:44:16Z</time></trkpt><trkpt lat="14.524895366408147" lon="121.02645907255398"><ele>12.999999999999998</ele><time>2026-04-14T03:44:18Z</time></trkpt><trkpt lat="14.524850128437462" lon="121.0265607922534"><ele>13.0</ele><time>2026-04-14T03:44:20Z</time></trkpt><trkpt lat="14.524756652083665" lon="121.02663024343829"><ele>13.0</ele><time>2026-04-14T03:44:22Z</time></trkpt><trkpt lat="14.524695607446537" lon="121.02664870519361"><ele>13.0</ele><time>2026-04-14T03:44:23Z</time></trkpt><trkpt lat="14.52462371925543" lon="121.0266558092678"><ele>12.999999999999998</ele><time>2026-04-14T03:44:24Z</time></trkpt><trkpt lat="14.524554465486949" lon="121.02665307143575"><ele>13.0</ele><time>2026-04-14T03:44:25Z</time></trkpt><trkpt lat="14.524489299068405" lon="121.02663570958507"><ele>13.8</ele><time>2026-04-14T03:44:26Z</time></trkpt><trkpt lat="14.524385681183196" lon="121.02657244437505"><ele>14.600000000000001</ele><time>2026-04-14T03:44:28Z</time></trkpt><trkpt lat="14.524330561757221" lon="121.02653712951539"><ele>15.399999999999999</ele><time>2026-04-14T03:44:29Z</time></trkpt><trkpt lat="14.524232883303243" lon="121.02647411541656"><ele>16.2</ele><time>2026-04-14T03:44:31Z</time></trkpt><trkpt lat="14.524157226434689" lon="121.02642886823678"><ele>17.0</ele><time>2026-04-14T03:44:33Z</time></trkpt><trkpt lat="14.524079601304937" lon="121.02639797715388"><ele>17.0</ele><time>2026-04-14T03:44:37Z</time></trkpt><trkpt lat="14.524015744969605" lon="121.02635615674363"><ele>17.0</ele><time>2026-04-14T03:44:39Z</time></trkpt><trkpt lat="14.523914259659561" lon="121.02632878342995"><ele>17.0</ele><time>2026-04-14T03:44:41Z</time></trkpt><trkpt lat="14.52381261289344" lon="121.0264185904656"><ele>17.0</ele><time>2026-04-14T03:44:42.999Z</time></trkpt><trkpt lat="14.523742203815603" lon="121.02645623044988"><ele>17.0</ele><time>2026-04-14T03:44:43.999Z</time></trkpt><trkpt lat="14.523636776828551" lon="121.0265127297292"><ele>16.8</ele><time>2026-04-14T03:44:44.999Z</time></trkpt><trkpt lat="14.523541154124857" lon="121.02656413515516"><ele>16.6</ele><time>2026-04-14T03:44:45.999Z</time></trkpt><trkpt lat="14.523454037292439" lon="121.02661093541843"><ele>16.400000000000002</ele><time>2026-04-14T03:44:46.999Z</time></trkpt><trkpt lat="14.523359371644258" lon="121.02666150804193"><ele>16.2</ele><time>2026-04-14T03:44:47.999Z</time></trkpt><trkpt lat="14.52324216379646" lon="121.02672412326318"><ele>16.0</ele><time>2026-04-14T03:44:48.999Z</time></trkpt><trkpt lat="14.52312190559963" lon="121.02678836803759"><ele>15.75</ele><time>2026-04-14T03:44:49.999Z</time></trkpt><trkpt lat="14.522995351157082" lon="121.02685599312643"><ele>15.5</ele><time>2026-04-14T03:44:50.999Z</time></trkpt><trkpt lat="14.522861892258563" lon="121.0269273354725"><ele>15.25</ele><time>2026-04-14T03:44:51.999Z</time></trkpt><trkpt lat="14.522723607737115" lon="121.02700125746696"><ele>15.0</ele><time>2026-04-14T03:44:52.999Z</time></trkpt><trkpt lat="14.52258355060052" lon="121.02707612710357"><ele>15.666666666666668</ele><time>2026-04-14T03:44:53.999Z</time></trkpt><trkpt lat="14.522449833598806" lon="121.02715371328149"><ele>16.333333333333336</ele><time>2026-04-14T03:44:54.999Z</time></trkpt><trkpt lat="14.52231641312536" lon="121.0272304610597"><ele>17.0</ele><time>2026-04-14T03:44:55.999Z</time></trkpt><trkpt lat="14.522181535683421" lon="121.02730804693032"><ele>17.0</ele><time>2026-04-14T03:44:56.999Z</time></trkpt><trkpt lat="14.522046112494452" lon="121.02738594672596"><ele>17.0</ele><time>2026-04-14T03:44:57.999Z</time></trkpt><trkpt lat="14.521909715546444" lon="121.02746497087642"><ele>17.0</ele><time>2026-04-14T03:44:58.999Z</time></trkpt><trkpt lat="14.521781335559506" lon="121.02753937513417"><ele>17.0</ele><time>2026-04-14T03:44:59.999Z</time></trkpt><trkpt lat="14.521662479868686" lon="121.0276082594692"><ele>17.0</ele><time>2026-04-14T03:45:00.999Z</time></trkpt><trkpt lat="14.521551219270442" lon="121.02767408294628"><ele>17.0</ele><time>2026-04-14T03:45:01.999Z</time></trkpt><trkpt lat="14.521436603041465" lon="121.02774212407661"><ele>17.0</ele><time>2026-04-14T03:45:02.999Z</time></trkpt><trkpt lat="14.521320127263717" lon="121.02781126912265"><ele>16.666666666666668</ele><time>2026-04-14T03:45:03.999Z</time></trkpt><trkpt lat="14.521194003983808" lon="121.0278896442644"><ele>16.333333333333332</ele><time>2026-04-14T03:45:04.999Z</time></trkpt><trkpt lat="14.521073442761807" lon="121.02800380649704"><ele>16.0</ele><time>2026-04-14T03:45:05.999Z</time></trkpt><trkpt lat="14.520944318430848" lon="121.02809292698406"><ele>16.0</ele><time>2026-04-14T03:45:06.999Z</time></trkpt><trkpt lat="14.520822787296533" lon="121.02816252431153"><ele>16.0</ele><time>2026-04-14T03:45:07.999Z</time></trkpt><trkpt lat="14.520707538789033" lon="121.0282451789698"><ele>16.0</ele><time>2026-04-14T03:45:08.999Z</time></trkpt><trkpt lat="14.520580773442848" lon="121.02832657231758"><ele>16.0</ele><time>2026-04-14T03:45:09.999Z</time></trkpt><trkpt lat="14.520444077142814" lon="121.02839789574122"><ele>16.666666666666664</ele><time>2026-04-14T03:45:10.999Z</time></trkpt><trkpt lat="14.520302626332777" lon="121.0284645532225"><ele>17.333333333333332</ele><time>2026-04-14T03:45:11.999Z</time></trkpt><trkpt lat="14.520155746943237" lon="121.02853553577872"><ele>18.0</ele><time>2026-04-14T03:45:12.999Z</time></trkpt><trkpt lat="14.520014069344388" lon="121.02861399977236"><ele>18.0</ele><time>2026-04-14T03:45:13.999Z</time></trkpt><trkpt lat="14.519869512585842" lon="121.0286912041984"><ele>18.0</ele><time>2026-04-14T03:45:14.999Z</time></trkpt><trkpt lat="14.51971214851084" lon="121.02877202757458"><ele>18.0</ele><time>2026-04-14T03:45:15.999Z</time></trkpt><trkpt lat="14.519560489515529" lon="121.0288541075426"><ele>18.333333333333332</ele><time>2026-04-14T03:45:16.999Z</time></trkpt><trkpt lat="14.519408745087128" lon="121.0289364708688"><ele>18.666666666666664</ele><time>2026-04-14T03:45:18Z</time></trkpt><trkpt lat="14.519251779962996" lon="121.02902659149593"><ele>19.0</ele><time>2026-04-14T03:45:19Z</time></trkpt><trkpt lat="14.51909505386224" lon="121.02912085194687"><ele>19.0</ele><time>2026-04-14T03:45:20Z</time></trkpt><trkpt lat="14.518934403493665" lon="121.02921250011725"><ele>19.0</ele><time>2026-04-14T03:45:21Z</time></trkpt><trkpt lat="14.51876526835214" lon="121.0292995071996"><ele>19.0</ele><time>2026-04-14T03:45:22Z</time></trkpt><trkpt lat="14.518611334972702" lon="121.0293806151684"><ele>19.0</ele><time>2026-04-14T03:45:23Z</time></trkpt><trkpt lat="14.518464535606828" lon="121.02945772377969"><ele>19.0</ele><time>2026-04-14T03:45:24Z</time></trkpt><trkpt lat="14.518325294212515" lon="121.02953067945676"><ele>19.0</ele><time>2026-04-14T03:45:25Z</time></trkpt><trkpt lat="14.51819457049627" lon="121.02959827491478"><ele>19.0</ele><time>2026-04-14T03:45:26Z</time></trkpt><trkpt lat="14.518077687991685" lon="121.02966059525781"><ele>19.0</ele><time>2026-04-14T03:45:27Z</time></trkpt><trkpt lat="14.517972541444875" lon="121.02971453796876"><ele>19.0</ele><time>2026-04-14T03:45:28Z</time></trkpt><trkpt lat="14.517882688721338" lon="121.02975970623424"><ele>19.0</ele><time>2026-04-14T03:45:29Z</time></trkpt><trkpt lat="14.517813704306244" lon="121.0298007774166"><ele>19.0</ele><time>2026-04-14T03:45:30Z</time></trkpt><trkpt lat="14.517749885413581" lon="121.02983630594241"><ele>19.0</ele><time>2026-04-14T03:45:31Z</time></trkpt><trkpt lat="14.517690473907248" lon="121.02987477200173"><ele>19.0</ele><time>2026-04-14T03:45:32Z</time></trkpt><trkpt lat="14.517623416249238" lon="121.02991155340555"><ele>19.0</ele><time>2026-04-14T03:45:33Z</time></trkpt><trkpt lat="14.517550751278272" lon="121.02995169938588"><ele>19.0</ele><time>2026-04-14T03:45:34Z</time></trkpt><trkpt lat="14.517476377643002" lon="121.02999336460607"><ele>19.0</ele><time>2026-04-14T03:45:35Z</time></trkpt><trkpt lat="14.517394781667011" lon="121.03003698050765"><ele>19.0</ele><time>2026-04-14T03:45:36Z</time></trkpt><trkpt lat="14.517311123097768" lon="121.03007900759309"><ele>19.0</ele><time>2026-04-14T03:45:37Z</time></trkpt><trkpt lat="14.517223509445024" lon="121.03012018008758"><ele>19.0</ele><time>2026-04-14T03:45:38Z</time></trkpt><trkpt lat="14.517135848449065" lon="121.03016388439751"><ele>19.0</ele><time>2026-04-14T03:45:39Z</time></trkpt><trkpt lat="14.517043911756216" lon="121.03021096300847"><ele>19.0</ele><time>2026-04-14T03:45:40Z</time></trkpt><trkpt lat="14.51694955330553" lon="121.03025593632509"><ele>19.0</ele><time>2026-04-14T03:45:41Z</time></trkpt><trkpt lat="14.516851600822813" lon="121.03030772342667"><ele>19.799999999999997</ele><time>2026-04-14T03:45:42Z</time></trkpt><trkpt lat="14.516754076869892" lon="121.03036300935608"><ele>20.599999999999998</ele><time>2026-04-14T03:45:43Z</time></trkpt><trkpt lat="14.51665310800705" lon="121.03042025526172"><ele>21.4</ele><time>2026-04-14T03:45:44Z</time></trkpt><trkpt lat="14.516555517627861" lon="121.03047486101183"><ele>22.2</ele><time>2026-04-14T03:45:45Z</time></trkpt><trkpt lat="14.516468180104953" lon="121.0305211852812"><ele>23.0</ele><time>2026-04-14T03:45:46Z</time></trkpt><trkpt lat="14.516383545518474" lon="121.03056617527363"><ele>23.0</ele><time>2026-04-14T03:45:47Z</time></trkpt><trkpt lat="14.516294643349429" lon="121.03062157660511"><ele>23.0</ele><time>2026-04-14T03:45:48Z</time></trkpt><trkpt lat="14.516198227834606" lon="121.0306845953243"><ele>23.0</ele><time>2026-04-14T03:45:49Z</time></trkpt><trkpt lat="14.516083788376015" lon="121.03075068802873"><ele>23.0</ele><time>2026-04-14T03:45:50Z</time></trkpt><trkpt lat="14.515961404382754" lon="121.03081469102028"><ele>22.5</ele><time>2026-04-14T03:45:51Z</time></trkpt><trkpt lat="14.515833836534107" lon="121.03088167888777"><ele>22.0</ele><time>2026-04-14T03:45:52Z</time></trkpt><trkpt lat="14.515702060635846" lon="121.03095240136116"><ele>21.5</ele><time>2026-04-14T03:45:53Z</time></trkpt><trkpt lat="14.515568228156834" lon="121.0310279889652"><ele>21.0</ele><time>2026-04-14T03:45:54Z</time></trkpt><trkpt lat="14.515436573616281" lon="121.03109517391131"><ele>21.75</ele><time>2026-04-14T03:45:55Z</time></trkpt><trkpt lat="14.515307044216204" lon="121.03115790755481"><ele>22.5</ele><time>2026-04-14T03:45:56Z</time></trkpt><trkpt lat="14.515183252772385" lon="121.03122219079438"><ele>23.25</ele><time>2026-04-14T03:45:57Z</time></trkpt><trkpt lat="14.515057335688107" lon="121.03129697892568"><ele>24.0</ele><time>2026-04-14T03:45:58Z</time></trkpt><trkpt lat="14.514945469830284" lon="121.03136105068106"><ele>24.0</ele><time>2026-04-14T03:45:59Z</time></trkpt><trkpt lat="14.514844433873513" lon="121.03141587566014"><ele>24.0</ele><time>2026-04-14T03:46:00Z</time></trkpt><trkpt lat="14.514734616651936" lon="121.03147241503328"><ele>24.0</ele><time>2026-04-14T03:46:01Z</time></trkpt><trkpt lat="14.514616161869995" lon="121.03153932434402"><ele>24.0</ele><time>2026-04-14T03:46:02Z</time></trkpt><trkpt lat="14.514497308261973" lon="121.03160049140561"><ele>23.799999999999997</ele><time>2026-04-14T03:46:03Z</time></trkpt><trkpt lat="14.514394092581812" lon="121.03165513688113"><ele>23.599999999999998</ele><time>2026-04-14T03:46:04Z</time></trkpt><trkpt lat="14.514292351087716" lon="121.03170907137518"><ele>23.4</ele><time>2026-04-14T03:46:05Z</time></trkpt><trkpt lat="14.514195358233245" lon="121.03176536998923"><ele>23.2</ele><time>2026-04-14T03:46:06Z</time></trkpt><trkpt lat="14.514111272419607" lon="121.03182267451143"><ele>23.0</ele><time>2026-04-14T03:46:07Z</time></trkpt><trkpt lat="14.514037842048506" lon="121.03187551954845"><ele>23.0</ele><time>2026-04-14T03:46:08Z</time></trkpt><trkpt lat="14.513975178133622" lon="121.03191535441691"><ele>23.0</ele><time>2026-04-14T03:46:09Z</time></trkpt><trkpt lat="14.51390350127292" lon="121.03197132606729"><ele>23.0</ele><time>2026-04-14T03:46:11Z</time></trkpt><trkpt lat="14.51385106841007" lon="121.03201418791349"><ele>23.0</ele><time>2026-04-14T03:46:13Z</time></trkpt><trkpt lat="14.513800804288323" lon="121.03205703664578"><ele>23.0</ele><time>2026-04-14T03:46:15Z</time></trkpt><trkpt lat="14.513730152018498" lon="121.03212014940667"><ele>23.0</ele><time>2026-04-14T03:46:18Z</time></trkpt><trkpt lat="14.513681372925976" lon="121.03216435483435"><ele>23.166666666666668</ele><time>2026-04-14T03:46:20Z</time></trkpt><trkpt lat="14.513629011456901" lon="121.03220867986329"><ele>23.333333333333336</ele><time>2026-04-14T03:46:22Z</time></trkpt><trkpt lat="14.513563760623478" lon="121.03227027338748"><ele>23.5</ele><time>2026-04-14T03:46:24Z</time></trkpt><trkpt lat="14.513504974031422" lon="121.03233162885005"><ele>23.666666666666668</ele><time>2026-04-14T03:46:26Z</time></trkpt><trkpt lat="14.513425665464617" lon="121.0324037069992"><ele>23.833333333333332</ele><time>2026-04-14T03:46:28Z</time></trkpt><trkpt lat="14.513371903188096" lon="121.03244971156626"><ele>24.0</ele><time>2026-04-14T03:46:30Z</time></trkpt><trkpt lat="14.513314242467587" lon="121.0324933342981"><ele>24.333333333333332</ele><time>2026-04-14T03:46:33Z</time></trkpt><trkpt lat="14.513253388779068" lon="121.03253782506842"><ele>24.666666666666664</ele><time>2026-04-14T03:46:36Z</time></trkpt><trkpt lat="14.513192522607723" lon="121.03258600944393"><ele>25.0</ele><time>2026-04-14T03:46:40Z</time></trkpt><trkpt lat="14.513127238004868" lon="121.03262338539157"><ele>25.333333333333332</ele><time>2026-04-14T03:47:11.999Z</time></trkpt><trkpt lat="14.513028752360638" lon="121.032685411619"><ele>25.666666666666664</ele><time>2026-04-14T03:47:13.999Z</time></trkpt><trkpt lat="14.512934860101387" lon="121.03273185636202"><ele>26.0</ele><time>2026-04-14T03:47:15.999Z</time></trkpt><trkpt lat="14.512853906040615" lon="121.0327699003542"><ele>26.200000000000003</ele><time>2026-04-14T03:47:17.999Z</time></trkpt><trkpt lat="14.512763809011954" lon="121.0328236732479"><ele>26.400000000000002</ele><time>2026-04-14T03:47:19.999Z</time></trkpt><trkpt lat="14.512684254807903" lon="121.03286608098195"><ele>26.6</ele><time>2026-04-14T03:47:21.999Z</time></trkpt><trkpt lat="14.512598075476424" lon="121.03291111630519"><ele>26.8</ele><time>2026-04-14T03:47:24Z</time></trkpt><trkpt lat="14.51249088326427" lon="121.03298388788376"><ele>27.0</ele><time>2026-04-14T03:47:26Z</time></trkpt><trkpt lat="14.512436120192222" lon="121.03301711280179"><ele>27.0</ele><time>2026-04-14T03:47:27Z</time></trkpt><trkpt lat="14.512371625734959" lon="121.0330554254708"><ele>27.0</ele><time>2026-04-14T03:47:28Z</time></trkpt><trkpt lat="14.512306682877984" lon="121.03309186991581"><ele>27.0</ele><time>2026-04-14T03:47:30Z</time></trkpt><trkpt lat="14.51223354181999" lon="121.03314318361765"><ele>27.0</ele><time>2026-04-14T03:47:33Z</time></trkpt><trkpt lat="14.512151247528571" lon="121.03317782050978"><ele>27.0</ele><time>2026-04-14T03:47:35Z</time></trkpt><trkpt lat="14.512060611170446" lon="121.03320529794786"><ele>27.0</ele><time>2026-04-14T03:47:37Z</time></trkpt><trkpt lat="14.5120107143026" lon="121.03325602824954"><ele>27.0</ele><time>2026-04-14T03:47:39Z</time></trkpt><trkpt lat="14.51187332699303" lon="121.03333168905775"><ele>27.0</ele><time>2026-04-14T03:47:41Z</time></trkpt><trkpt lat="14.511772996961493" lon="121.03336052961572"><ele>27.0</ele><time>2026-04-14T03:47:42Z</time></trkpt><trkpt lat="14.511666316470395" lon="121.03340101113005"><ele>27.0</ele><time>2026-04-14T03:47:43Z</time></trkpt><trkpt lat="14.511575505390311" lon="121.03344331926823"><ele>27.0</ele><time>2026-04-14T03:47:44Z</time></trkpt><trkpt lat="14.511494176578575" lon="121.03347714828706"><ele>27.0</ele><time>2026-04-14T03:47:45Z</time></trkpt><trkpt lat="14.511401878903778" lon="121.03352216748608"><ele>27.0</ele><time>2026-04-14T03:47:47Z</time></trkpt><trkpt lat="14.511346817813378" lon="121.03355571928199"><ele>27.0</ele><time>2026-04-14T03:47:50Z</time></trkpt><trkpt lat="14.511286133628136" lon="121.03358432418476"><ele>27.0</ele><time>2026-04-14T03:47:54Z</time></trkpt><trkpt lat="14.511181095642225" lon="121.0336190389852"><ele>27.0</ele><time>2026-04-14T03:47:57Z</time></trkpt><trkpt lat="14.511121179870134" lon="121.03364679142983"><ele>27.0</ele><time>2026-04-14T03:47:58Z</time></trkpt><trkpt lat="14.51103353214806" lon="121.03367979934964"><ele>27.000000000000004</ele><time>2026-04-14T03:47:59Z</time></trkpt><trkpt lat="14.510933798240913" lon="121.03370969745416"><ele>27.000000000000004</ele><time>2026-04-14T03:48:00Z</time></trkpt><trkpt lat="14.510817468921514" lon="121.03374216083385"><ele>27.0</ele><time>2026-04-14T03:48:01Z</time></trkpt><trkpt lat="14.510704552006882" lon="121.03377360469595"><ele>27.0</ele><time>2026-04-14T03:48:02Z</time></trkpt><trkpt lat="14.510566904040799" lon="121.03388119447472"><ele>27.0</ele><time>2026-04-14T03:48:04Z</time></trkpt><trkpt lat="14.510459030996763" lon="121.0339342879884"><ele>27.0</ele><time>2026-04-14T03:48:05Z</time></trkpt><trkpt lat="14.51034533270456" lon="121.03399272873006"><ele>27.0</ele><time>2026-04-14T03:48:06Z</time></trkpt><trkpt lat="14.510229255918704" lon="121.03405509132037"><ele>27.0</ele><time>2026-04-14T03:48:07Z</time></trkpt><trkpt lat="14.51010609848974" lon="121.03412179404246"><ele>26.75</ele><time>2026-04-14T03:48:08Z</time></trkpt><trkpt lat="14.509979407654686" lon="121.03419009982596"><ele>26.5</ele><time>2026-04-14T03:48:09Z</time></trkpt><trkpt lat="14.509851726845925" lon="121.03425873134967"><ele>26.25</ele><time>2026-04-14T03:48:10Z</time></trkpt><trkpt lat="14.509723593560198" lon="121.0343266077778"><ele>26.0</ele><time>2026-04-14T03:48:11Z</time></trkpt><trkpt lat="14.509594626017215" lon="121.03439737182786"><ele>25.75</ele><time>2026-04-14T03:48:12Z</time></trkpt><trkpt lat="14.509464765373032" lon="121.03446842362506"><ele>25.5</ele><time>2026-04-14T03:48:13Z</time></trkpt><trkpt lat="14.509331885008791" lon="121.03453783679218"><ele>25.25</ele><time>2026-04-14T03:48:14Z</time></trkpt><trkpt lat="14.509207393676032" lon="121.03459765775"><ele>25.0</ele><time>2026-04-14T03:48:15Z</time></trkpt><trkpt lat="14.509091595426455" lon="121.0346477697388"><ele>25.0</ele><time>2026-04-14T03:48:16Z</time></trkpt><trkpt lat="14.50897758884799" lon="121.03469173981094"><ele>25.0</ele><time>2026-04-14T03:48:17Z</time></trkpt><trkpt lat="14.508855405909436" lon="121.03472947035387"><ele>25.0</ele><time>2026-04-14T03:48:18Z</time></trkpt><trkpt lat="14.508721913678418" lon="121.03474839021706"><ele>25.0</ele><time>2026-04-14T03:48:19Z</time></trkpt><trkpt lat="14.50857888550289" lon="121.03476402991033"><ele>23.5</ele><time>2026-04-14T03:48:20Z</time></trkpt><trkpt lat="14.508452908488659" lon="121.03478277480211"><ele>22.0</ele><time>2026-04-14T03:48:21Z</time></trkpt><trkpt lat="14.50834002687141" lon="121.0348047520548"><ele>20.5</ele><time>2026-04-14T03:48:22Z</time></trkpt><trkpt lat="14.508231261340732" lon="121.03482975517059"><ele>19.0</ele><time>2026-04-14T03:48:23Z</time></trkpt><trkpt lat="14.508116671260582" lon="121.03486246590055"><ele>19.0</ele><time>2026-04-14T03:48:24Z</time></trkpt><trkpt lat="14.508007300823145" lon="121.03490561636497"><ele>19.0</ele><time>2026-04-14T03:48:25Z</time></trkpt><trkpt lat="14.507893317896377" lon="121.03495670437844"><ele>19.0</ele><time>2026-04-14T03:48:26Z</time></trkpt><trkpt lat="14.507772840187682" lon="121.03501410092578"><ele>19.0</ele><time>2026-04-14T03:48:27Z</time></trkpt><trkpt lat="14.507651243425359" lon="121.03508211885197"><ele>19.5</ele><time>2026-04-14T03:48:28Z</time></trkpt><trkpt lat="14.507523898771316" lon="121.03515543687789"><ele>20.0</ele><time>2026-04-14T03:48:29Z</time></trkpt><trkpt lat="14.50739631944058" lon="121.03523155474085"><ele>20.5</ele><time>2026-04-14T03:48:30Z</time></trkpt><trkpt lat="14.507265105115927" lon="121.03530264222852"><ele>21.0</ele><time>2026-04-14T03:48:31Z</time></trkpt><trkpt lat="14.507129157440994" lon="121.03537633093515"><ele>20.5</ele><time>2026-04-14T03:48:32Z</time></trkpt><trkpt lat="14.50699585186145" lon="121.03545017620655"><ele>20.0</ele><time>2026-04-14T03:48:33Z</time></trkpt><trkpt lat="14.50687222462081" lon="121.0355111964115"><ele>19.5</ele><time>2026-04-14T03:48:34Z</time></trkpt><trkpt lat="14.506756934039036" lon="121.03556916632851"><ele>19.0</ele><time>2026-04-14T03:48:35Z</time></trkpt><trkpt lat="14.506647492749192" lon="121.0356243813338"><ele>19.0</ele><time>2026-04-14T03:48:36Z</time></trkpt><trkpt lat="14.506533935115614" lon="121.03567758268647"><ele>19.0</ele><time>2026-04-14T03:48:37Z</time></trkpt><trkpt lat="14.506418944131058" lon="121.03574619636412"><ele>19.0</ele><time>2026-04-14T03:48:38Z</time></trkpt><trkpt lat="14.506304786477328" lon="121.03580898597248"><ele>19.0</ele><time>2026-04-14T03:48:39Z</time></trkpt><trkpt lat="14.506187940746983" lon="121.03587728237999"><ele>19.5</ele><time>2026-04-14T03:48:40Z</time></trkpt><trkpt lat="14.506067329538654" lon="121.03594841574713"><ele>20.0</ele><time>2026-04-14T03:48:41Z</time></trkpt><trkpt lat="14.505945272156515" lon="121.03601944205587"><ele>20.5</ele><time>2026-04-14T03:48:42Z</time></trkpt><trkpt lat="14.505811168322897" lon="121.03608893661891"><ele>21.0</ele><time>2026-04-14T03:48:43Z</time></trkpt><trkpt lat="14.5056708984027" lon="121.03616065263734"><ele>21.0</ele><time>2026-04-14T03:48:44Z</time></trkpt><trkpt lat="14.505526139019935" lon="121.0362405540401"><ele>21.0</ele><time>2026-04-14T03:48:45Z</time></trkpt><trkpt lat="14.505378737507932" lon="121.03631499564122"><ele>21.0</ele><time>2026-04-14T03:48:46Z</time></trkpt><trkpt lat="14.505233947246714" lon="121.03638735257191"><ele>21.25</ele><time>2026-04-14T03:48:47Z</time></trkpt><trkpt lat="14.505102794705031" lon="121.03645201419066"><ele>21.5</ele><time>2026-04-14T03:48:48Z</time></trkpt><trkpt lat="14.504972362294028" lon="121.0365154117278"><ele>21.75</ele><time>2026-04-14T03:48:49Z</time></trkpt><trkpt lat="14.504844295769463" lon="121.03658525815874"><ele>22.0</ele><time>2026-04-14T03:48:50Z</time></trkpt><trkpt lat="14.504712524372524" lon="121.03665933633872"><ele>22.5</ele><time>2026-04-14T03:48:51Z</time></trkpt><trkpt lat="14.504578596417396" lon="121.03673029294488"><ele>23.0</ele><time>2026-04-14T03:48:52Z</time></trkpt><trkpt lat="14.504450455176103" lon="121.03679570847568"><ele>23.5</ele><time>2026-04-14T03:48:53Z</time></trkpt><trkpt lat="14.504322490605901" lon="121.03686257589402"><ele>24.0</ele><time>2026-04-14T03:48:54Z</time></trkpt><trkpt lat="14.5042028780509" lon="121.03692180802612"><ele>24.0</ele><time>2026-04-14T03:48:54.999Z</time></trkpt><trkpt lat="14.504082368786772" lon="121.03697973445169"><ele>24.0</ele><time>2026-04-14T03:48:55.999Z</time></trkpt><trkpt lat="14.503961663051566" lon="121.03704273405023"><ele>24.0</ele><time>2026-04-14T03:48:56.999Z</time></trkpt><trkpt lat="14.503839064974468" lon="121.03711363142887"><ele>24.0</ele><time>2026-04-14T03:48:57.999Z</time></trkpt><trkpt lat="14.503719890452315" lon="121.03718454803084"><ele>23.75</ele><time>2026-04-14T03:48:58.999Z</time></trkpt><trkpt lat="14.503597647320124" lon="121.037254068077"><ele>23.5</ele><time>2026-04-14T03:48:59.999Z</time></trkpt><trkpt lat="14.503471881145407" lon="121.03731910419043"><ele>23.25</ele><time>2026-04-14T03:49:00.999Z</time></trkpt><trkpt lat="14.50334826122891" lon="121.03738598192486"><ele>23.0</ele><time>2026-04-14T03:49:01.999Z</time></trkpt><trkpt lat="14.50322991982551" lon="121.0374530040157"><ele>23.2</ele><time>2026-04-14T03:49:02.999Z</time></trkpt><trkpt lat="14.503120643362903" lon="121.03750644949842"><ele>23.4</ele><time>2026-04-14T03:49:03.999Z</time></trkpt><trkpt lat="14.503032378639299" lon="121.03752985807317"><ele>23.599999999999998</ele><time>2026-04-14T03:49:04.999Z</time></trkpt><trkpt lat="14.502954289023991" lon="121.03754401554231"><ele>23.799999999999997</ele><time>2026-04-14T03:49:05.999Z</time></trkpt><trkpt lat="14.502887661256034" lon="121.03754803697761"><ele>24.0</ele><time>2026-04-14T03:49:06.999Z</time></trkpt><trkpt lat="14.502646858326832" lon="121.037757973246"><ele>24.0</ele><time>2026-04-14T03:49:07.999Z</time></trkpt><trkpt lat="14.502536075452843" lon="121.03781746086283"><ele>24.0</ele><time>2026-04-14T03:49:08.999Z</time></trkpt><trkpt lat="14.50242965269058" lon="121.03787769803853"><ele>24.0</ele><time>2026-04-14T03:49:09.999Z</time></trkpt><trkpt lat="14.502341870410843" lon="121.03792556482297"><ele>24.0</ele><time>2026-04-14T03:49:10.999Z</time></trkpt><trkpt lat="14.502275725084866" lon="121.03796550451787"><ele>24.0</ele><time>2026-04-14T03:49:11.999Z</time></trkpt><trkpt lat="14.502219519508765" lon="121.03800174839338"><ele>24.0</ele><time>2026-04-14T03:49:12.999Z</time></trkpt><trkpt lat="14.502120431720186" lon="121.0380361719283"><ele>24.0</ele><time>2026-04-14T03:49:14.999Z</time></trkpt><trkpt lat="14.502029800807644" lon="121.0380811837941"><ele>24.0</ele><time>2026-04-14T03:49:16.999Z</time></trkpt><trkpt lat="14.501960935066762" lon="121.03811694507507"><ele>24.0</ele><time>2026-04-14T03:49:17.999Z</time></trkpt><trkpt lat="14.50189241963052" lon="121.0381509260388"><ele>24.0</ele><time>2026-04-14T03:49:18.999Z</time></trkpt><trkpt lat="14.501834218629101" lon="121.03817921910097"><ele>24.0</ele><time>2026-04-14T03:49:19.999Z</time></trkpt><trkpt lat="14.501773605463292" lon="121.03820868478405"><ele>24.2</ele><time>2026-04-14T03:49:20.999Z</time></trkpt><trkpt lat="14.501701119631988" lon="121.03824392209127"><ele>24.4</ele><time>2026-04-14T03:49:21.999Z</time></trkpt><trkpt lat="14.501613677565741" lon="121.03828643003193"><ele>24.6</ele><time>2026-04-14T03:49:22.999Z</time></trkpt><trkpt lat="14.501513358769483" lon="121.03833519802544"><ele>24.8</ele><time>2026-04-14T03:49:23.999Z</time></trkpt><trkpt lat="14.501427552823095" lon="121.03837892045259"><ele>25.0</ele><time>2026-04-14T03:49:24.999Z</time></trkpt><trkpt lat="14.501361019375224" lon="121.03846090631981"><ele>25.0</ele><time>2026-04-14T03:49:25.999Z</time></trkpt><trkpt lat="14.501280092656685" lon="121.03850426372428"><ele>25.0</ele><time>2026-04-14T03:49:26.999Z</time></trkpt><trkpt lat="14.501202604142554" lon="121.03854793599334"><ele>25.0</ele><time>2026-04-14T03:49:27.999Z</time></trkpt><trkpt lat="14.501113026314444" lon="121.03859667217705"><ele>25.0</ele><time>2026-04-14T03:49:28.999Z</time></trkpt><trkpt lat="14.500996954890503" lon="121.03859466271633"><ele>25.0</ele><time>2026-04-14T03:49:29.999Z</time></trkpt><trkpt lat="14.50089697049749" lon="121.03864972240534"><ele>25.25</ele><time>2026-04-14T03:49:30.999Z</time></trkpt><trkpt lat="14.500784470437786" lon="121.03871167376107"><ele>25.5</ele><time>2026-04-14T03:49:31.999Z</time></trkpt><trkpt lat="14.500665996942931" lon="121.0387808464805"><ele>25.75</ele><time>2026-04-14T03:49:32.999Z</time></trkpt><trkpt lat="14.500541622577382" lon="121.03885208620189"><ele>26.0</ele><time>2026-04-14T03:49:33.999Z</time></trkpt><trkpt lat="14.500411161663271" lon="121.03892490732758"><ele>26.0</ele><time>2026-04-14T03:49:34.999Z</time></trkpt><trkpt lat="14.500274833709392" lon="121.03900002290547"><ele>26.0</ele><time>2026-04-14T03:49:35.999Z</time></trkpt><trkpt lat="14.500138262147809" lon="121.03907527273441"><ele>26.0</ele><time>2026-04-14T03:49:36.999Z</time></trkpt><trkpt lat="14.499998833949023" lon="121.03915138297477"><ele>25.666666666666664</ele><time>2026-04-14T03:49:38Z</time></trkpt><trkpt lat="14.499859311087189" lon="121.03922686484513"><ele>25.333333333333336</ele><time>2026-04-14T03:49:39Z</time></trkpt><trkpt lat="14.499717828705348" lon="121.0393032223676"><ele>25.0</ele><time>2026-04-14T03:49:40Z</time></trkpt><trkpt lat="14.499571566368788" lon="121.03938183637523"><ele>26.0</ele><time>2026-04-14T03:49:41Z</time></trkpt><trkpt lat="14.499426165666073" lon="121.03945998727937"><ele>27.0</ele><time>2026-04-14T03:49:42Z</time></trkpt><trkpt lat="14.49928080872354" lon="121.03953811465784"><ele>28.0</ele><time>2026-04-14T03:49:43Z</time></trkpt><trkpt lat="14.499140257658375" lon="121.03961365895077"><ele>28.0</ele><time>2026-04-14T03:49:44Z</time></trkpt><trkpt lat="14.49900295701186" lon="121.03968745596833"><ele>28.0</ele><time>2026-04-14T03:49:45Z</time></trkpt><trkpt lat="14.498865573119932" lon="121.03975845494647"><ele>28.0</ele><time>2026-04-14T03:49:46Z</time></trkpt><trkpt lat="14.49872719670266" lon="121.03983053313895"><ele>29.0</ele><time>2026-04-14T03:49:47Z</time></trkpt><trkpt lat="14.498589452288936" lon="121.03990228226829"><ele>30.0</ele><time>2026-04-14T03:49:48Z</time></trkpt><trkpt lat="14.498451297239871" lon="121.03998335025138"><ele>31.0</ele><time>2026-04-14T03:49:49Z</time></trkpt><trkpt lat="14.498314091244113" lon="121.04006044966238"><ele>31.333333333333336</ele><time>2026-04-14T03:49:50Z</time></trkpt><trkpt lat="14.498176044132812" lon="121.04013553269141"><ele>31.666666666666664</ele><time>2026-04-14T03:49:51Z</time></trkpt><trkpt lat="14.49803491603245" lon="121.04021229147602"><ele>32.0</ele><time>2026-04-14T03:49:52Z</time></trkpt><trkpt lat="14.49789901101893" lon="121.04028620942245"><ele>32.0</ele><time>2026-04-14T03:49:53Z</time></trkpt><trkpt lat="14.497759137015796" lon="121.04036228610937"><ele>32.0</ele><time>2026-04-14T03:49:54Z</time></trkpt><trkpt lat="14.497618803447027" lon="121.04043981929367"><ele>32.0</ele><time>2026-04-14T03:49:55Z</time></trkpt><trkpt lat="14.497475834111672" lon="121.04051612800907"><ele>32.0</ele><time>2026-04-14T03:49:56Z</time></trkpt><trkpt lat="14.49733410254531" lon="121.04059149343999"><ele>32.0</ele><time>2026-04-14T03:49:57Z</time></trkpt><trkpt lat="14.497185127244402" lon="121.0406687266823"><ele>32.0</ele><time>2026-04-14T03:49:58Z</time></trkpt><trkpt lat="14.497038136104592" lon="121.04074493124624"><ele>31.333333333333332</ele><time>2026-04-14T03:49:59Z</time></trkpt><trkpt lat="14.496890529027597" lon="121.04082521948989"><ele>30.666666666666664</ele><time>2026-04-14T03:50:00Z</time></trkpt><trkpt lat="14.496748175260803" lon="121.04090394811575"><ele>30.0</ele><time>2026-04-14T03:50:01Z</time></trkpt><trkpt lat="14.496607064526597" lon="121.04098198928082"><ele>30.0</ele><time>2026-04-14T03:50:02Z</time></trkpt><trkpt lat="14.496476372803107" lon="121.04105426825703"><ele>30.0</ele><time>2026-04-14T03:50:03Z</time></trkpt><trkpt lat="14.496348254292664" lon="121.04112512412688"><ele>30.0</ele><time>2026-04-14T03:50:04Z</time></trkpt><trkpt lat="14.496219085066873" lon="121.04119440450971"><ele>30.0</ele><time>2026-04-14T03:50:05Z</time></trkpt><trkpt lat="14.49608948587944" lon="121.04126404362107"><ele>29.75</ele><time>2026-04-14T03:50:06Z</time></trkpt><trkpt lat="14.495962043368793" lon="121.04133252352406"><ele>29.5</ele><time>2026-04-14T03:50:07Z</time></trkpt><trkpt lat="14.495836187835481" lon="121.04140015063238"><ele>29.25</ele><time>2026-04-14T03:50:08Z</time></trkpt><trkpt lat="14.495708315872808" lon="121.04147119870959"><ele>29.0</ele><time>2026-04-14T03:50:09Z</time></trkpt><trkpt lat="14.495570566561536" lon="121.04154296591943"><ele>29.0</ele><time>2026-04-14T03:50:10Z</time></trkpt><trkpt lat="14.495428255526063" lon="121.04161908690705"><ele>29.0</ele><time>2026-04-14T03:50:11Z</time></trkpt><trkpt lat="14.495279289931577" lon="121.04169876725248"><ele>29.0</ele><time>2026-04-14T03:50:12Z</time></trkpt><trkpt lat="14.495123151275505" lon="121.04178311651457"><ele>28.666666666666664</ele><time>2026-04-14T03:50:13Z</time></trkpt><trkpt lat="14.494967041769854" lon="121.04186466247455"><ele>28.333333333333336</ele><time>2026-04-14T03:50:14Z</time></trkpt><trkpt lat="14.494808884472741" lon="121.04194727810957"><ele>28.0</ele><time>2026-04-14T03:50:15Z</time></trkpt><trkpt lat="14.494657642652847" lon="121.04202628136787"><ele>27.666666666666668</ele><time>2026-04-14T03:50:16Z</time></trkpt><trkpt lat="14.494510061388956" lon="121.0421015633238"><ele>27.333333333333336</ele><time>2026-04-14T03:50:17Z</time></trkpt><trkpt lat="14.494373885658375" lon="121.04217643612459"><ele>27.0</ele><time>2026-04-14T03:50:18Z</time></trkpt><trkpt lat="14.494255054333319" lon="121.04224043289034"><ele>27.0</ele><time>2026-04-14T03:50:19Z</time></trkpt><trkpt lat="14.494141983626161" lon="121.04230102386688"><ele>27.0</ele><time>2026-04-14T03:50:20Z</time></trkpt><trkpt lat="14.494034319847039" lon="121.04235555136157"><ele>27.0</ele><time>2026-04-14T03:50:21Z</time></trkpt><trkpt lat="14.493922669050518" lon="121.04241209840136"><ele>27.0</ele><time>2026-04-14T03:50:22Z</time></trkpt><trkpt lat="14.493814482770889" lon="121.04247477057639"><ele>28.0</ele><time>2026-04-14T03:50:23Z</time></trkpt><trkpt lat="14.493712482190826" lon="121.0425316900481"><ele>29.0</ele><time>2026-04-14T03:50:24Z</time></trkpt><trkpt lat="14.493604042236434" lon="121.04259189296188"><ele>30.0</ele><time>2026-04-14T03:50:25Z</time></trkpt><trkpt lat="14.493493282710105" lon="121.04265595859954"><ele>31.0</ele><time>2026-04-14T03:50:26Z</time></trkpt><trkpt lat="14.493383543420853" lon="121.04271373409331"><ele>31.0</ele><time>2026-04-14T03:50:27Z</time></trkpt><trkpt lat="14.493274621335992" lon="121.04277078995068"><ele>31.0</ele><time>2026-04-14T03:50:28Z</time></trkpt><trkpt lat="14.493166132777167" lon="121.04282761872655"><ele>31.0</ele><time>2026-04-14T03:50:29Z</time></trkpt><trkpt lat="14.493056756503433" lon="121.04288491250891"><ele>31.0</ele><time>2026-04-14T03:50:30Z</time></trkpt><trkpt lat="14.492939629158398" lon="121.04294669920777"><ele>32.5</ele><time>2026-04-14T03:50:31Z</time></trkpt><trkpt lat="14.492817813026779" lon="121.04301100824591"><ele>34.0</ele><time>2026-04-14T03:50:32Z</time></trkpt><trkpt lat="14.492694394415205" lon="121.04308038502276"><ele>35.5</ele><time>2026-04-14T03:50:33Z</time></trkpt><trkpt lat="14.49256800793374" lon="121.04315177707997"><ele>37.0</ele><time>2026-04-14T03:50:34Z</time></trkpt><trkpt lat="14.492436996470184" lon="121.04322293371717"><ele>37.0</ele><time>2026-04-14T03:50:35Z</time></trkpt><trkpt lat="14.492300973384483" lon="121.04329540618949"><ele>37.0</ele><time>2026-04-14T03:50:36Z</time></trkpt><trkpt lat="14.492162631798706" lon="121.04336685283613"><ele>37.0</ele><time>2026-04-14T03:50:37Z</time></trkpt><trkpt lat="14.492023015203698" lon="121.04343895793951"><ele>36.333333333333336</ele><time>2026-04-14T03:50:38Z</time></trkpt><trkpt lat="14.491879129361454" lon="121.04351326790776"><ele>35.666666666666664</ele><time>2026-04-14T03:50:39Z</time></trkpt><trkpt lat="14.491738648979386" lon="121.04358601427992"><ele>35.0</ele><time>2026-04-14T03:50:40Z</time></trkpt><trkpt lat="14.491592761174754" lon="121.04366412828456"><ele>35.0</ele><time>2026-04-14T03:50:41Z</time></trkpt><trkpt lat="14.491449675369882" lon="121.04374256135382"><ele>35.0</ele><time>2026-04-14T03:50:42Z</time></trkpt><trkpt lat="14.491308496940894" lon="121.0438199492046"><ele>35.0</ele><time>2026-04-14T03:50:43Z</time></trkpt><trkpt lat="14.491167472371675" lon="121.04389725238657"><ele>35.33333333333333</ele><time>2026-04-14T03:50:44Z</time></trkpt><trkpt lat="14.49103130385069" lon="121.04397189371282"><ele>35.666666666666664</ele><time>2026-04-14T03:50:45Z</time></trkpt><trkpt lat="14.490896212822152" lon="121.04404594438927"><ele>36.0</ele><time>2026-04-14T03:50:46Z</time></trkpt><trkpt lat="14.490762517959796" lon="121.04411921280352"><ele>36.25</ele><time>2026-04-14T03:50:47Z</time></trkpt><trkpt lat="14.490627210713281" lon="121.04419321578904"><ele>36.5</ele><time>2026-04-14T03:50:48Z</time></trkpt><trkpt lat="14.490500238466351" lon="121.04426291695604"><ele>36.75</ele><time>2026-04-14T03:50:49Z</time></trkpt><trkpt lat="14.49038453905581" lon="121.04432644028422"><ele>37.0</ele><time>2026-04-14T03:50:50Z</time></trkpt><trkpt lat="14.49027564352272" lon="121.04438613838363"><ele>37.0</ele><time>2026-04-14T03:50:51Z</time></trkpt><trkpt lat="14.490175261799607" lon="121.04444077539414"><ele>37.0</ele><time>2026-04-14T03:50:52Z</time></trkpt><trkpt lat="14.49009252319098" lon="121.04448580945402"><ele>37.0</ele><time>2026-04-14T03:50:53Z</time></trkpt><trkpt lat="14.490017627909765" lon="121.04452657441668"><ele>37.0</ele><time>2026-04-14T03:50:54Z</time></trkpt><trkpt lat="14.489954625299745" lon="121.04456086627567"><ele>37.0</ele><time>2026-04-14T03:50:55Z</time></trkpt><trkpt lat="14.489858953119484" lon="121.044632213259"><ele>37.0</ele><time>2026-04-14T03:50:57Z</time></trkpt><trkpt lat="14.489747231251512" lon="121.04467374939297"><ele>37.0</ele><time>2026-04-14T03:50:59Z</time></trkpt><trkpt lat="14.489656750043904" lon="121.04473931624985"><ele>37.0</ele><time>2026-04-14T03:51:00.999Z</time></trkpt><trkpt lat="14.489563668469293" lon="121.04482658844964"><ele>37.0</ele><time>2026-04-14T03:51:02.999Z</time></trkpt><trkpt lat="14.489533369239282" lon="121.04488566570933"><ele>37.0</ele><time>2026-04-14T03:51:03.999Z</time></trkpt><trkpt lat="14.489517494054967" lon="121.04495520332617"><ele>36.57142857142857</ele><time>2026-04-14T03:51:04.999Z</time></trkpt><trkpt lat="14.489517015023083" lon="121.04503760453431"><ele>36.14285714285714</ele><time>2026-04-14T03:51:05.999Z</time></trkpt><trkpt lat="14.489517923149588" lon="121.04511065859438"><ele>35.71428571428571</ele><time>2026-04-14T03:51:06.999Z</time></trkpt><trkpt lat="14.489510280178752" lon="121.04517803720012"><ele>35.285714285714285</ele><time>2026-04-14T03:51:07.999Z</time></trkpt><trkpt lat="14.48950355043777" lon="121.04525062313233"><ele>34.857142857142854</ele><time>2026-04-14T03:51:08.999Z</time></trkpt><trkpt lat="14.48949506383496" lon="121.0453228372224"><ele>34.42857142857142</ele><time>2026-04-14T03:51:09.999Z</time></trkpt><trkpt lat="14.489487188101153" lon="121.04540094082269"><ele>34.0</ele><time>2026-04-14T03:51:10.999Z</time></trkpt><trkpt lat="14.489478446994015" lon="121.04548294018394"><ele>34.0</ele><time>2026-04-14T03:51:11.999Z</time></trkpt><trkpt lat="14.489468110749183" lon="121.04556431146388"><ele>34.0</ele><time>2026-04-14T03:51:12.999Z</time></trkpt><trkpt lat="14.48946356714044" lon="121.04564746410047"><ele>34.0</ele><time>2026-04-14T03:51:13.999Z</time></trkpt><trkpt lat="14.489459120778958" lon="121.04573053160134"><ele>34.0</ele><time>2026-04-14T03:51:14.999Z</time></trkpt><trkpt lat="14.489442989275304" lon="121.04581742392705"><ele>34.0</ele><time>2026-04-14T03:51:15.999Z</time></trkpt><trkpt lat="14.489427411334923" lon="121.04590517639491"><ele>34.0</ele><time>2026-04-14T03:51:16.999Z</time></trkpt><trkpt lat="14.489415368186007" lon="121.0459944216629"><ele>34.4</ele><time>2026-04-14T03:51:17.999Z</time></trkpt><trkpt lat="14.489404169342851" lon="121.04609935948578"><ele>34.8</ele><time>2026-04-14T03:51:18.999Z</time></trkpt><trkpt lat="14.489391290008788" lon="121.04620417405872"><ele>35.2</ele><time>2026-04-14T03:51:19.999Z</time></trkpt><trkpt lat="14.48937895643304" lon="121.04630705534723"><ele>35.6</ele><time>2026-04-14T03:51:20.999Z</time></trkpt><trkpt lat="14.489365858583195" lon="121.04641434299913"><ele>36.0</ele><time>2026-04-14T03:51:21.999Z</time></trkpt><trkpt lat="14.489353564592415" lon="121.0465127875278"><ele>36.0</ele><time>2026-04-14T03:51:22.999Z</time></trkpt><trkpt lat="14.489340951481925" lon="121.04660362661193"><ele>36.0</ele><time>2026-04-14T03:51:23.999Z</time></trkpt><trkpt lat="14.489328691786877" lon="121.04668278973932"><ele>36.0</ele><time>2026-04-14T03:51:24.999Z</time></trkpt><trkpt lat="14.489315873186445" lon="121.0467588385292"><ele>36.0</ele><time>2026-04-14T03:51:25.999Z</time></trkpt><trkpt lat="14.489293740652464" lon="121.04682131729437"><ele>36.0</ele><time>2026-04-14T03:51:26.999Z</time></trkpt><trkpt lat="14.489229577665382" lon="121.04690438079443"><ele>36.0</ele><time>2026-04-14T03:51:28.999Z</time></trkpt><trkpt lat="14.48912885672073" lon="121.0469747834171"><ele>36.2</ele><time>2026-04-14T03:51:30.999Z</time></trkpt><trkpt lat="14.489021726445698" lon="121.04700332883239"><ele>36.400000000000006</ele><time>2026-04-14T03:51:32.999Z</time></trkpt><trkpt lat="14.488936981943235" lon="121.04700467569155"><ele>36.6</ele><time>2026-04-14T03:51:34.999Z</time></trkpt><trkpt lat="14.48883587784473" lon="121.04699889807077"><ele>36.800000000000004</ele><time>2026-04-14T03:51:37Z</time></trkpt><trkpt lat="14.488758925433666" lon="121.0469806224567"><ele>37.0</ele><time>2026-04-14T03:51:38Z</time></trkpt><trkpt lat="14.488686321520664" lon="121.04695436885847"><ele>37.4</ele><time>2026-04-14T03:51:39Z</time></trkpt><trkpt lat="14.488598869200782" lon="121.04692436746284"><ele>37.800000000000004</ele><time>2026-04-14T03:51:40Z</time></trkpt><trkpt lat="14.48850044038944" lon="121.04689192290458"><ele>38.2</ele><time>2026-04-14T03:51:41Z</time></trkpt><trkpt lat="14.488402734020031" lon="121.04686207372076"><ele>38.6</ele><time>2026-04-14T03:51:42Z</time></trkpt><trkpt lat="14.488296344448418" lon="121.04683586485591"><ele>39.0</ele><time>2026-04-14T03:51:43Z</time></trkpt><trkpt lat="14.488197821608644" lon="121.0468074417742"><ele>39.0</ele><time>2026-04-14T03:51:44Z</time></trkpt><trkpt lat="14.488104328955238" lon="121.04678187355552"><ele>39.0</ele><time>2026-04-14T03:51:45Z</time></trkpt><trkpt lat="14.48800592011348" lon="121.04675945839885"><ele>39.0</ele><time>2026-04-14T03:51:46Z</time></trkpt><trkpt lat="14.48793742205561" lon="121.04674028573443"><ele>39.0</ele><time>2026-04-14T03:51:47Z</time></trkpt><trkpt lat="14.487855530893702" lon="121.04671310129294"><ele>39.0</ele><time>2026-04-14T03:51:48Z</time></trkpt><trkpt lat="14.487742115269407" lon="121.04667509019258"><ele>38.8</ele><time>2026-04-14T03:51:50Z</time></trkpt><trkpt lat="14.487658682955091" lon="121.046648280928"><ele>38.599999999999994</ele><time>2026-04-14T03:51:52Z</time></trkpt><trkpt lat="14.487577987260472" lon="121.04661362532714"><ele>38.4</ele><time>2026-04-14T03:51:55Z</time></trkpt><trkpt lat="14.48753034034054" lon="121.046542477201"><ele>38.199999999999996</ele><time>2026-04-14T03:51:58Z</time></trkpt><trkpt lat="14.487492924609882" lon="121.04644216458509"><ele>38.0</ele><time>2026-04-14T03:52:00Z</time></trkpt><trkpt lat="14.487460446530488" lon="121.04634105775853"><ele>37.83333333333333</ele><time>2026-04-14T03:52:02Z</time></trkpt><trkpt lat="14.487426943548577" lon="121.04626248652335"><ele>37.666666666666664</ele><time>2026-04-14T03:52:04Z</time></trkpt><trkpt lat="14.487399860848491" lon="121.0461745666075"><ele>37.5</ele><time>2026-04-14T03:52:06Z</time></trkpt><trkpt lat="14.487373722678633" lon="121.04610144353902"><ele>37.333333333333336</ele><time>2026-04-14T03:52:08Z</time></trkpt><trkpt lat="14.487341907293183" lon="121.04602241188516"><ele>37.16666666666667</ele><time>2026-04-14T03:52:10Z</time></trkpt><trkpt lat="14.487297756320707" lon="121.04594546182093"><ele>37.0</ele><time>2026-04-14T03:52:12Z</time></trkpt><trkpt lat="14.487251015954305" lon="121.04582737324381"><ele>36.6</ele><time>2026-04-14T03:52:14Z</time></trkpt><trkpt lat="14.487220247694507" lon="121.04575856614707"><ele>36.2</ele><time>2026-04-14T03:52:15Z</time></trkpt><trkpt lat="14.487171893645346" lon="121.04566520985358"><ele>35.8</ele><time>2026-04-14T03:52:17Z</time></trkpt><trkpt lat="14.487132605845384" lon="121.04556440767665"><ele>35.4</ele><time>2026-04-14T03:52:19Z</time></trkpt><trkpt lat="14.487105335841656" lon="121.04549715747712"><ele>35.0</ele><time>2026-04-14T03:52:23Z</time></trkpt><trkpt lat="14.486936472757751" lon="121.04552396122946"><ele>34.83333333333333</ele><time>2026-04-14T03:52:26Z</time></trkpt><trkpt lat="14.486849743271934" lon="121.04552474269884"><ele>34.666666666666664</ele><time>2026-04-14T03:52:30Z</time></trkpt><trkpt lat="14.486784384687864" lon="121.04552296047325"><ele>34.5</ele><time>2026-04-14T03:52:31Z</time></trkpt><trkpt lat="14.486705724122894" lon="121.04552109349693"><ele>34.333333333333336</ele><time>2026-04-14T03:52:33Z</time></trkpt><trkpt lat="14.486627599389855" lon="121.04553058842683"><ele>34.16666666666667</ele><time>2026-04-14T03:52:36Z</time></trkpt><trkpt lat="14.486522899333266" lon="121.04551225710837"><ele>34.0</ele><time>2026-04-14T03:52:39Z</time></trkpt><trkpt lat="14.486391686575457" lon="121.04549839372226"><ele>34.0</ele><time>2026-04-14T03:52:41Z</time></trkpt><trkpt lat="14.48631690708287" lon="121.04549059306547"><ele>34.0</ele><time>2026-04-14T03:52:42Z</time></trkpt><trkpt lat="14.486237572792355" lon="121.04548231727512"><ele>34.0</ele><time>2026-04-14T03:52:43Z</time></trkpt><trkpt lat="14.486158588312534" lon="121.04547258573261"><ele>34.0</ele><time>2026-04-14T03:52:44Z</time></trkpt><trkpt lat="14.486074207525846" lon="121.04546119517822"><ele>34.0</ele><time>2026-04-14T03:52:45Z</time></trkpt><trkpt lat="14.4859827282971" lon="121.04544884639914"><ele>34.0</ele><time>2026-04-14T03:52:46Z</time></trkpt><trkpt lat="14.485900069623877" lon="121.0454376883126"><ele>34.2</ele><time>2026-04-14T03:52:47Z</time></trkpt><trkpt lat="14.485811094012256" lon="121.04542567750032"><ele>34.4</ele><time>2026-04-14T03:52:48Z</time></trkpt><trkpt lat="14.485716141323497" lon="121.0454143260699"><ele>34.6</ele><time>2026-04-14T03:52:49Z</time></trkpt><trkpt lat="14.485618054362913" lon="121.04540432623418"><ele>34.8</ele><time>2026-04-14T03:52:50Z</time></trkpt><trkpt lat="14.485519751082023" lon="121.04539430434478"><ele>35.0</ele><time>2026-04-14T03:52:51Z</time></trkpt><trkpt lat="14.48541867022246" lon="121.04538399928498"><ele>34.0</ele><time>2026-04-14T03:52:52Z</time></trkpt><trkpt lat="14.485313797217717" lon="121.04537344015861"><ele>33.0</ele><time>2026-04-14T03:52:53Z</time></trkpt><trkpt lat="14.485211578912656" lon="121.04536058107257"><ele>32.0</ele><time>2026-04-14T03:52:54Z</time></trkpt><trkpt lat="14.485096566506323" lon="121.04534473229076"><ele>31.0</ele><time>2026-04-14T03:52:55Z</time></trkpt><trkpt lat="14.484994086766756" lon="121.04533061052581"><ele>30.0</ele><time>2026-04-14T03:52:56Z</time></trkpt><trkpt lat="14.484903395445725" lon="121.04531885986597"><ele>30.0</ele><time>2026-04-14T03:52:57Z</time></trkpt><trkpt lat="14.484817154608473" lon="121.04531332569464"><ele>30.0</ele><time>2026-04-14T03:52:58Z</time></trkpt><trkpt lat="14.484719516426308" lon="121.04530703451546"><ele>30.0</ele><time>2026-04-14T03:52:59Z</time></trkpt><trkpt lat="14.484638182078102" lon="121.04530149249075"><ele>30.0</ele><time>2026-04-14T03:53:00Z</time></trkpt><trkpt lat="14.484571006883556" lon="121.04529691525124"><ele>30.0</ele><time>2026-04-14T03:53:01Z</time></trkpt><trkpt lat="14.484504258031642" lon="121.04529691582685"><ele>30.0</ele><time>2026-04-14T03:53:02Z</time></trkpt><trkpt lat="14.484393820730746" lon="121.04529740786694"><ele>30.166666666666668</ele><time>2026-04-14T03:53:04Z</time></trkpt><trkpt lat="14.484267052678769" lon="121.04529797266433"><ele>30.333333333333336</ele><time>2026-04-14T03:53:06.001Z</time></trkpt><trkpt lat="14.484179103845992" lon="121.04529836450989"><ele>30.5</ele><time>2026-04-14T03:53:07.999Z</time></trkpt><trkpt lat="14.48410760290261" lon="121.04529868307662"><ele>30.666666666666668</ele><time>2026-04-14T03:53:11.999Z</time></trkpt><trkpt lat="14.484020532635496" lon="121.04529907100775"><ele>30.833333333333336</ele><time>2026-04-14T03:53:14.999Z</time></trkpt><trkpt lat="14.483952333688409" lon="121.04529937486099"><ele>31.0</ele><time>2026-04-14T03:53:17.999Z</time></trkpt><trkpt lat="14.483877694545564" lon="121.04529970740644"><ele>31.000000000000004</ele><time>2026-04-14T03:53:20.999Z</time></trkpt><trkpt lat="14.483799904209478" lon="121.0453000539931"><ele>31.0</ele><time>2026-04-14T03:53:22.999Z</time></trkpt><trkpt lat="14.483708132079906" lon="121.04530046287385"><ele>31.0</ele><time>2026-04-14T03:53:24.999Z</time></trkpt><trkpt lat="14.483597257031661" lon="121.04530095686614"><ele>31.0</ele><time>2026-04-14T03:53:26.999Z</time></trkpt><trkpt lat="14.483516645269892" lon="121.04530131602151"><ele>31.000000000000004</ele><time>2026-04-14T03:53:27.999Z</time></trkpt><trkpt lat="14.48344118824844" lon="121.04530165221126"><ele>31.0</ele><time>2026-04-14T03:53:28.999Z</time></trkpt><trkpt lat="14.483348973616803" lon="121.04530206306252"><ele>31.166666666666668</ele><time>2026-04-14T03:53:29.999Z</time></trkpt><trkpt lat="14.483236475260668" lon="121.04530256428195"><ele>31.333333333333336</ele><time>2026-04-14T03:53:32Z</time></trkpt><trkpt lat="14.483163241511123" lon="121.04530289056667"><ele>31.5</ele><time>2026-04-14T03:53:33Z</time></trkpt><trkpt lat="14.483095129487763" lon="121.0453031940303"><ele>31.666666666666664</ele><time>2026-04-14T03:53:34Z</time></trkpt><trkpt lat="14.483013907425237" lon="121.04530419730553"><ele>31.833333333333332</ele><time>2026-04-14T03:53:35Z</time></trkpt><trkpt lat="14.48294533521474" lon="121.04530499973264"><ele>32.0</ele><time>2026-04-14T03:53:36Z</time></trkpt><trkpt lat="14.482874403563441" lon="121.04530548607896"><ele>32.166666666666664</ele><time>2026-04-14T03:53:37Z</time></trkpt><trkpt lat="14.482807988906925" lon="121.04530594145271"><ele>32.33333333333333</ele><time>2026-04-14T03:53:38Z</time></trkpt><trkpt lat="14.48272598403029" lon="121.04530650373512"><ele>32.5</ele><time>2026-04-14T03:53:39Z</time></trkpt><trkpt lat="14.482650401138928" lon="121.04530646143449"><ele>32.666666666666664</ele><time>2026-04-14T03:53:40Z</time></trkpt><trkpt lat="14.482573326985776" lon="121.04530693078607"><ele>32.833333333333336</ele><time>2026-04-14T03:53:41Z</time></trkpt><trkpt lat="14.482484256514413" lon="121.04530747319085"><ele>33.0</ele><time>2026-04-14T03:53:42Z</time></trkpt><trkpt lat="14.482398007371083" lon="121.04530771532401"><ele>33.0</ele><time>2026-04-14T03:53:43Z</time></trkpt><trkpt lat="14.482299618024186" lon="121.0453080111244"><ele>33.0</ele><time>2026-04-14T03:53:44Z</time></trkpt><trkpt lat="14.482196788390759" lon="121.04530832028567"><ele>33.0</ele><time>2026-04-14T03:53:47Z</time></trkpt><trkpt lat="14.4820811010381" lon="121.04530866809691"><ele>33.0</ele><time>2026-04-14T03:53:49Z</time></trkpt><trkpt lat="14.482005477361456" lon="121.04530989116425"><ele>33.0</ele><time>2026-04-14T03:53:50Z</time></trkpt><trkpt lat="14.481935654684904" lon="121.04531083890713"><ele>33.0</ele><time>2026-04-14T03:53:51Z</time></trkpt><trkpt lat="14.481811158576363" lon="121.04531241369361"><ele>33.0</ele><time>2026-04-14T03:53:53Z</time></trkpt><trkpt lat="14.481722083293047" lon="121.04531354016392"><ele>33.0</ele><time>2026-04-14T03:53:55Z</time></trkpt><trkpt lat="14.481641189096633" lon="121.04531456317378"><ele>33.0</ele><time>2026-04-14T03:53:58Z</time></trkpt><trkpt lat="14.481565033326703" lon="121.0453776127328"><ele>33.0</ele><time>2026-04-14T03:54:03Z</time></trkpt><trkpt lat="14.481481620898746" lon="121.0453840847274"><ele>33.0</ele><time>2026-04-14T03:54:06Z</time></trkpt><trkpt lat="14.481410641779336" lon="121.04537765558818"><ele>33.0</ele><time>2026-04-14T03:54:10Z</time></trkpt><trkpt lat="14.4813413394933" lon="121.04537248232819"><ele>33.0</ele><time>2026-04-14T03:54:18Z</time></trkpt><trkpt lat="14.481250805125358" lon="121.04537392777289"><ele>33.0</ele><time>2026-04-14T03:54:23Z</time></trkpt><trkpt lat="14.481163115624971" lon="121.04537634699021"><ele>33.0</ele><time>2026-04-14T03:54:25Z</time></trkpt><trkpt lat="14.481064954746861" lon="121.04537951578615"><ele>33.0</ele><time>2026-04-14T03:54:27Z</time></trkpt><trkpt lat="14.480962802071414" lon="121.04537790284373"><ele>32.833333333333336</ele><time>2026-04-14T03:54:29Z</time></trkpt><trkpt lat="14.480876028022678" lon="121.04538029527184"><ele>32.666666666666664</ele><time>2026-04-14T03:54:31Z</time></trkpt><trkpt lat="14.480799031884887" lon="121.0453800132576"><ele>32.5</ele><time>2026-04-14T03:54:33Z</time></trkpt><trkpt lat="14.480717906158683" lon="121.04538295033787"><ele>32.33333333333333</ele><time>2026-04-14T03:54:35Z</time></trkpt><trkpt lat="14.480647479825263" lon="121.04538169432634"><ele>32.166666666666664</ele><time>2026-04-14T03:54:37Z</time></trkpt><trkpt lat="14.480572895797268" lon="121.04538188093768"><ele>32.0</ele><time>2026-04-14T03:54:39Z</time></trkpt><trkpt lat="14.480481684805266" lon="121.04538312172659"><ele>32.166666666666664</ele><time>2026-04-14T03:54:41Z</time></trkpt><trkpt lat="14.480367666550041" lon="121.04538572554803"><ele>32.33333333333333</ele><time>2026-04-14T03:54:43Z</time></trkpt><trkpt lat="14.480298622046778" lon="121.04538159467764"><ele>32.5</ele><time>2026-04-14T03:54:44Z</time></trkpt><trkpt lat="14.480229207527977" lon="121.0453851817694"><ele>32.666666666666664</ele><time>2026-04-14T03:54:45Z</time></trkpt><trkpt lat="14.480164583265841" lon="121.04538471912987"><ele>32.833333333333336</ele><time>2026-04-14T03:54:46Z</time></trkpt><trkpt lat="14.480095927468767" lon="121.04538853569215"><ele>33.0</ele><time>2026-04-14T03:54:47Z</time></trkpt><trkpt lat="14.480027492443423" lon="121.04538757164029"><ele>33.0</ele><time>2026-04-14T03:54:48Z</time></trkpt><trkpt lat="14.479959495713345" lon="121.0453896503478"><ele>33.0</ele><time>2026-04-14T03:54:49Z</time></trkpt><trkpt lat="14.479894544681471" lon="121.04539071554834"><ele>33.0</ele><time>2026-04-14T03:54:50Z</time></trkpt><trkpt lat="14.47983007810312" lon="121.04538673453857"><ele>33.0</ele><time>2026-04-14T03:54:51Z</time></trkpt><trkpt lat="14.479725700789318" lon="121.04538581533043"><ele>33.0</ele><time>2026-04-14T03:54:53Z</time></trkpt><trkpt lat="14.479642217393275" lon="121.0453834333797"><ele>33.0</ele><time>2026-04-14T03:54:55Z</time></trkpt><trkpt lat="14.479551400773195" lon="121.0453828803251"><ele>33.333333333333336</ele><time>2026-04-14T03:54:58.001Z</time></trkpt><trkpt lat="14.479477451886204" lon="121.04538204158264"><ele>33.666666666666664</ele><time>2026-04-14T03:55:06.001Z</time></trkpt><trkpt lat="14.479383396109629" lon="121.04538231697025"><ele>34.0</ele><time>2026-04-14T03:55:09.001Z</time></trkpt><trkpt lat="14.47928323699607" lon="121.045383890914"><ele>34.33333333333333</ele><time>2026-04-14T03:55:11.001Z</time></trkpt><trkpt lat="14.479181763027938" lon="121.04538944498302"><ele>34.666666666666664</ele><time>2026-04-14T03:55:12.999Z</time></trkpt><trkpt lat="14.479112392024277" lon="121.04539450173179"><ele>35.0</ele><time>2026-04-14T03:55:13.999Z</time></trkpt><trkpt lat="14.4790013325035" lon="121.04539067477647"><ele>35.0</ele><time>2026-04-14T03:55:15.999Z</time></trkpt><trkpt lat="14.478880962207898" lon="121.04539079182427"><ele>35.0</ele><time>2026-04-14T03:55:17.999Z</time></trkpt><trkpt lat="14.478753618533183" lon="121.04539108227387"><ele>35.0</ele><time>2026-04-14T03:55:19.999Z</time></trkpt><trkpt lat="14.478688316364108" lon="121.04539048621821"><ele>35.0</ele><time>2026-04-14T03:55:20.999Z</time></trkpt><trkpt lat="14.478581956696395" lon="121.04538873293843"><ele>35.0</ele><time>2026-04-14T03:55:22.999Z</time></trkpt><trkpt lat="14.478488730998714" lon="121.04538765625227"><ele>35.0</ele><time>2026-04-14T03:55:24.999Z</time></trkpt><trkpt lat="14.478385449324271" lon="121.04538561539107"><ele>35.0</ele><time>2026-04-14T03:55:26.999Z</time></trkpt><trkpt lat="14.478265322860736" lon="121.04538501866436"><ele>35.0</ele><time>2026-04-14T03:55:28.999Z</time></trkpt><trkpt lat="14.478142315467275" lon="121.04538887167675"><ele>35.0</ele><time>2026-04-14T03:55:30.999Z</time></trkpt><trkpt lat="14.47807585521443" lon="121.04538987308906"><ele>35.0</ele><time>2026-04-14T03:55:31.999Z</time></trkpt><trkpt lat="14.477964575990214" lon="121.04539165910718"><ele>34.666666666666664</ele><time>2026-04-14T03:55:34Z</time></trkpt><trkpt lat="14.477892462252827" lon="121.04539203346822"><ele>34.33333333333333</ele><time>2026-04-14T03:55:36Z</time></trkpt><trkpt lat="14.477811439311143" lon="121.04540046127497"><ele>34.0</ele><time>2026-04-14T03:55:42Z</time></trkpt><trkpt lat="14.477698461141047" lon="121.04539859843494"><ele>33.666666666666664</ele><time>2026-04-14T03:55:45Z</time></trkpt><trkpt lat="14.4776228584161" lon="121.04539444863542"><ele>33.333333333333336</ele><time>2026-04-14T03:55:46Z</time></trkpt><trkpt lat="14.477542596437031" lon="121.0453868139512"><ele>33.0</ele><time>2026-04-14T03:55:47Z</time></trkpt><trkpt lat="14.477476849718524" lon="121.04538080689566"><ele>33.0</ele><time>2026-04-14T03:55:48Z</time></trkpt><trkpt lat="14.47735291573071" lon="121.04537270818835"><ele>33.0</ele><time>2026-04-14T03:55:50Z</time></trkpt><trkpt lat="14.477273691799137" lon="121.0453781153764"><ele>33.0</ele><time>2026-04-14T03:55:51Z</time></trkpt><trkpt lat="14.477184155608104" lon="121.04538291166523"><ele>33.0</ele><time>2026-04-14T03:55:52Z</time></trkpt><trkpt lat="14.477094647485574" lon="121.04538801376286"><ele>33.0</ele><time>2026-04-14T03:55:53Z</time></trkpt><trkpt lat="14.477015898119594" lon="121.04538714207409"><ele>33.42857142857143</ele><time>2026-04-14T03:55:54Z</time></trkpt><trkpt lat="14.476944210866908" lon="121.0453896018968"><ele>33.85714285714286</ele><time>2026-04-14T03:55:55Z</time></trkpt><trkpt lat="14.476879475777814" lon="121.04538867099417"><ele>34.28571428571429</ele><time>2026-04-14T03:55:56Z</time></trkpt><trkpt lat="14.476786537260246" lon="121.04539149283214"><ele>34.714285714285715</ele><time>2026-04-14T03:55:58Z</time></trkpt><trkpt lat="14.476722303372707" lon="121.04539203172939"><ele>35.142857142857146</ele><time>2026-04-14T03:56:00Z</time></trkpt><trkpt lat="14.476702855606838" lon="121.04547271175375"><ele>35.57142857142858</ele><time>2026-04-14T03:56:04Z</time></trkpt><trkpt lat="14.476768900997653" lon="121.04548984363575"><ele>36.0</ele><time>2026-04-14T03:56:06Z</time></trkpt><trkpt lat="14.476840418576229" lon="121.04548192804018"><ele>36.0</ele><time>2026-04-14T03:56:08Z</time></trkpt><trkpt lat="14.476835158020718" lon="121.04540818315115"><ele>36.0</ele><time>2026-04-14T03:59:16.001Z</time></trkpt><trkpt lat="14.476805206901242" lon="121.04551668898125"><ele>36.0</ele><time>2026-04-14T03:59:25Z</time></trkpt><trkpt lat="14.476612924250071" lon="121.04555386301776"><ele>36.0</ele><time>2026-04-14T03:59:45Z</time></trkpt><trkpt lat="14.476663738777226" lon="121.04551225421521"><ele>36.0</ele><time>2026-04-14T04:00:39Z</time></trkpt><trkpt lat="14.476728851085333" lon="121.04548123461231"><ele>36.0</ele><time>2026-04-14T04:00:49.001Z</time></trkpt><trkpt lat="14.476663994331904" lon="121.04550357290604"><ele>36.0</ele><time>2026-04-14T04:05:58.001Z</time></trkpt><trkpt lat="14.476598549885594" lon="121.04556887702725"><ele>36.0</ele><time>2026-04-14T04:07:59.001Z</time></trkpt><trkpt lat="14.47662529264019" lon="121.04550804205309"><ele>36.0</ele><time>2026-04-14T04:08:59.001Z</time></trkpt><trkpt lat="14.476693615439654" lon="121.04547513158631"><ele>36.0</ele><time>2026-04-14T04:09:17.001Z</time></trkpt><trkpt lat="14.476643212040534" lon="121.04542540566742"><ele>36.0</ele><time>2026-04-14T04:10:39.001Z</time></trkpt><trkpt lat="14.47678651260448" lon="121.04547145097763"><ele>36.0</ele><time>2026-04-14T04:14:53Z</time></trkpt><trkpt lat="14.476850192102685" lon="121.04548635225886"><ele>36.0</ele><time>2026-04-14T04:15:02.001Z</time></trkpt><trkpt lat="14.477271071145452" lon="121.04563661016219"><ele>36.5</ele><time>2026-04-14T04:15:12.076Z</time></trkpt><trkpt lat="14.477332518052572" lon="121.04566146522251"><ele>37.0</ele><time>2026-04-14T04:15:15.073Z</time></trkpt><trkpt lat="14.476925771736948" lon="121.04582632425016"><ele>36.66666666666667</ele><time>2026-04-14T04:15:26.075Z</time></trkpt><trkpt lat="14.47678291582568" lon="121.04566786563223"><ele>36.333333333333336</ele><time>2026-04-14T04:15:39.001Z</time></trkpt><trkpt lat="14.476722086270229" lon="121.04547461114029"><ele>36.0</ele><time>2026-04-14T04:15:40.001Z</time></trkpt><trkpt lat="14.476697127102321" lon="121.04539220034994"><ele>36.0</ele><time>2026-04-14T04:15:41.001Z</time></trkpt><trkpt lat="14.476779721809136" lon="121.04539257555308"><ele>36.0</ele><time>2026-04-14T04:15:52.001Z</time></trkpt><trkpt lat="14.476805716146776" lon="121.04545665737554"><ele>36.0</ele><time>2026-04-14T04:15:53.001Z</time></trkpt><trkpt lat="14.476736563586739" lon="121.04544746818405"><ele>36.0</ele><time>2026-04-14T04:19:16.001Z</time></trkpt><trkpt lat="14.476650562634495" lon="121.0453924139374"><ele>36.0</ele><time>2026-04-14T04:19:30.001Z</time></trkpt><trkpt lat="14.476491208597892" lon="121.04539437759249"><ele>36.0</ele><time>2026-04-14T04:19:32.001Z</time></trkpt><trkpt lat="14.476391370630147" lon="121.04539084764257"><ele>36.0</ele><time>2026-04-14T04:19:33.001Z</time></trkpt><trkpt lat="14.476290844623724" lon="121.04538951246478"><ele>36.0</ele><time>2026-04-14T04:19:34.001Z</time></trkpt><trkpt lat="14.476182287168779" lon="121.04539069385034"><ele>36.0</ele><time>2026-04-14T04:19:35.001Z</time></trkpt><trkpt lat="14.476068120223534" lon="121.04539293675259"><ele>36.0</ele><time>2026-04-14T04:19:36.001Z</time></trkpt><trkpt lat="14.475949219097323" lon="121.04539453927224"><ele>36.0</ele><time>2026-04-14T04:19:37.001Z</time></trkpt><trkpt lat="14.475823029358718" lon="121.04539541310689"><ele>36.0</ele><time>2026-04-14T04:19:38.001Z</time></trkpt><trkpt lat="14.475696827642626" lon="121.04539849775584"><ele>36.0</ele><time>2026-04-14T04:19:39.001Z</time></trkpt><trkpt lat="14.47556649801729" lon="121.04539940492042"><ele>36.0</ele><time>2026-04-14T04:19:40.001Z</time></trkpt><trkpt lat="14.475431932584266" lon="121.0454015156168"><ele>36.0</ele><time>2026-04-14T04:19:41.001Z</time></trkpt><trkpt lat="14.475296229491857" lon="121.04540223052774"><ele>36.0</ele><time>2026-04-14T04:19:42.001Z</time></trkpt><trkpt lat="14.475155493647202" lon="121.04539945139238"><ele>36.0</ele><time>2026-04-14T04:19:43.001Z</time></trkpt><trkpt lat="14.475017527648339" lon="121.04539816960134"><ele>36.0</ele><time>2026-04-14T04:19:44.001Z</time></trkpt><trkpt lat="14.474879035939445" lon="121.045398483169"><ele>36.0</ele><time>2026-04-14T04:19:45.001Z</time></trkpt><trkpt lat="14.47474733344224" lon="121.04539834342202"><ele>36.0</ele><time>2026-04-14T04:19:46.001Z</time></trkpt><trkpt lat="14.474621100168843" lon="121.04539970115033"><ele>36.0</ele><time>2026-04-14T04:19:47.001Z</time></trkpt><trkpt lat="14.47449585226197" lon="121.04534763991462"><ele>36.0</ele><time>2026-04-14T04:19:48.001Z</time></trkpt><trkpt lat="14.474375289470366" lon="121.04534763991333"><ele>35.75</ele><time>2026-04-14T04:19:49.001Z</time></trkpt><trkpt lat="14.474250860208047" lon="121.04534763991239"><ele>35.5</ele><time>2026-04-14T04:19:50.001Z</time></trkpt><trkpt lat="14.474123139467189" lon="121.04534763991238"><ele>35.25</ele><time>2026-04-14T04:19:51.001Z</time></trkpt><trkpt lat="14.47400048691658" lon="121.04534763991157"><ele>35.0</ele><time>2026-04-14T04:19:52.001Z</time></trkpt><trkpt lat="14.473875322301929" lon="121.04534794947261"><ele>34.25</ele><time>2026-04-14T04:19:53.001Z</time></trkpt><trkpt lat="14.473763635370943" lon="121.04534833904285"><ele>33.5</ele><time>2026-04-14T04:19:54.001Z</time></trkpt><trkpt lat="14.473642888686575" lon="121.04534876021434"><ele>32.75</ele><time>2026-04-14T04:19:55.001Z</time></trkpt><trkpt lat="14.473522112010219" lon="121.04534893990775"><ele>32.0</ele><time>2026-04-14T04:19:56.001Z</time></trkpt><trkpt lat="14.473404503933196" lon="121.04534893990748"><ele>32.0</ele><time>2026-04-14T04:19:57.001Z</time></trkpt><trkpt lat="14.473291423971967" lon="121.04534893990697"><ele>32.0</ele><time>2026-04-14T04:19:58.001Z</time></trkpt><trkpt lat="14.473179776543999" lon="121.04534893990638"><ele>32.0</ele><time>2026-04-14T04:19:59.001Z</time></trkpt><trkpt lat="14.473065091483031" lon="121.04534893990572"><ele>32.0</ele><time>2026-04-14T04:20:00.001Z</time></trkpt><trkpt lat="14.472947514976148" lon="121.04534893990518"><ele>31.400000000000002</ele><time>2026-04-14T04:20:01.001Z</time></trkpt><trkpt lat="14.4728365010024" lon="121.04534893990453"><ele>30.800000000000004</ele><time>2026-04-14T04:20:02.001Z</time></trkpt><trkpt lat="14.472731380649911" lon="121.04534893990281"><ele>30.2</ele><time>2026-04-14T04:20:03.001Z</time></trkpt><trkpt lat="14.47263894978362" lon="121.0453482533116"><ele>29.6</ele><time>2026-04-14T04:20:04.001Z</time></trkpt><trkpt lat="14.472541135946724" lon="121.04534762568021"><ele>29.0</ele><time>2026-04-14T04:20:05.001Z</time></trkpt><trkpt lat="14.472445667621901" lon="121.04534701309905"><ele>28.999999999999996</ele><time>2026-04-14T04:20:06.001Z</time></trkpt><trkpt lat="14.472364822015797" lon="121.04534649434454"><ele>29.0</ele><time>2026-04-14T04:20:07.001Z</time></trkpt><trkpt lat="14.472276729581855" lon="121.04534691875304"><ele>29.0</ele><time>2026-04-14T04:20:08.001Z</time></trkpt><trkpt lat="14.472197625228523" lon="121.04534763537727"><ele>29.0</ele><time>2026-04-14T04:20:09.001Z</time></trkpt><trkpt lat="14.47211681528853" lon="121.04541312393587"><ele>28.999999999999996</ele><time>2026-04-14T04:20:10.001Z</time></trkpt><trkpt lat="14.472032486297689" lon="121.0454097079392"><ele>29.0</ele><time>2026-04-14T04:20:11.001Z</time></trkpt><trkpt lat="14.471945554909983" lon="121.04541074287552"><ele>29.166666666666664</ele><time>2026-04-14T04:20:12.001Z</time></trkpt><trkpt lat="14.47186780924014" lon="121.04541183077421"><ele>29.333333333333332</ele><time>2026-04-14T04:20:13.001Z</time></trkpt><trkpt lat="14.471791196394507" lon="121.0454091554827"><ele>29.5</ele><time>2026-04-14T04:20:14.001Z</time></trkpt><trkpt lat="14.47170594095893" lon="121.04540945107242"><ele>29.666666666666664</ele><time>2026-04-14T04:20:15.001Z</time></trkpt><trkpt lat="14.471610971717318" lon="121.04541222361364"><ele>29.833333333333332</ele><time>2026-04-14T04:20:16.001Z</time></trkpt><trkpt lat="14.471522843622978" lon="121.04535323429359"><ele>30.0</ele><time>2026-04-14T04:20:17.001Z</time></trkpt><trkpt lat="14.471432625150062" lon="121.0453539641509"><ele>30.0</ele><time>2026-04-14T04:20:18.001Z</time></trkpt><trkpt lat="14.4713482238038" lon="121.04535464694148"><ele>30.0</ele><time>2026-04-14T04:20:19.001Z</time></trkpt><trkpt lat="14.47126465746713" lon="121.04535455469733"><ele>30.0</ele><time>2026-04-14T04:20:20.001Z</time></trkpt><trkpt lat="14.471174966901962" lon="121.04535511231363"><ele>30.0</ele><time>2026-04-14T04:20:21.001Z</time></trkpt><trkpt lat="14.47108943360897" lon="121.04535564408553"><ele>30.0</ele><time>2026-04-14T04:20:22.001Z</time></trkpt><trkpt lat="14.470993253508313" lon="121.04535564025839"><ele>30.0</ele><time>2026-04-14T04:20:23.001Z</time></trkpt><trkpt lat="14.470897220232137" lon="121.04535564025929"><ele>30.25</ele><time>2026-04-14T04:20:24.001Z</time></trkpt><trkpt lat="14.470783601761902" lon="121.04535564026042"><ele>30.5</ele><time>2026-04-14T04:20:25Z</time></trkpt><trkpt lat="14.470663207038173" lon="121.04535564026206"><ele>30.75</ele><time>2026-04-14T04:20:26Z</time></trkpt><trkpt lat="14.470525392729238" lon="121.04535726153401"><ele>31.0</ele><time>2026-04-14T04:20:27Z</time></trkpt><trkpt lat="14.470388488492311" lon="121.04536038677632"><ele>31.0</ele><time>2026-04-14T04:20:28Z</time></trkpt><trkpt lat="14.47024378676045" lon="121.04536207747954"><ele>31.0</ele><time>2026-04-14T04:20:29Z</time></trkpt><trkpt lat="14.470108435549925" lon="121.04536147817326"><ele>31.0</ele><time>2026-04-14T04:20:30Z</time></trkpt><trkpt lat="14.469993725240744" lon="121.04536104026657"><ele>31.0</ele><time>2026-04-14T04:20:31Z</time></trkpt><trkpt lat="14.46988444860634" lon="121.04536104026839"><ele>31.0</ele><time>2026-04-14T04:20:32Z</time></trkpt><trkpt lat="14.469765601425514" lon="121.04536104026883"><ele>31.0</ele><time>2026-04-14T04:20:33Z</time></trkpt><trkpt lat="14.469653149207803" lon="121.0453610402694"><ele>31.0</ele><time>2026-04-14T04:20:34Z</time></trkpt><trkpt lat="14.469541579678515" lon="121.04536104026886"><ele>31.0</ele><time>2026-04-14T04:20:35Z</time></trkpt><trkpt lat="14.469436736255467" lon="121.0453610402688"><ele>31.0</ele><time>2026-04-14T04:20:36Z</time></trkpt><trkpt lat="14.469332767427854" lon="121.04536266249738"><ele>31.166666666666668</ele><time>2026-04-14T04:20:37Z</time></trkpt><trkpt lat="14.469237920899712" lon="121.04536381215266"><ele>31.333333333333336</ele><time>2026-04-14T04:20:38Z</time></trkpt><trkpt lat="14.46915757800244" lon="121.04536478600583"><ele>31.5</ele><time>2026-04-14T04:20:39Z</time></trkpt><trkpt lat="14.46907654346251" lon="121.0453657682438"><ele>31.666666666666664</ele><time>2026-04-14T04:20:40Z</time></trkpt><trkpt lat="14.468993461455138" lon="121.04536677530089"><ele>31.833333333333332</ele><time>2026-04-14T04:20:41Z</time></trkpt><trkpt lat="14.468911305077684" lon="121.04536701610927"><ele>32.0</ele><time>2026-04-14T04:20:42Z</time></trkpt><trkpt lat="14.468829187658194" lon="121.04536744656356"><ele>32.2</ele><time>2026-04-14T04:20:43Z</time></trkpt><trkpt lat="14.468741306824278" lon="121.04536778501732"><ele>32.400000000000006</ele><time>2026-04-14T04:20:44Z</time></trkpt><trkpt lat="14.46865352208623" lon="121.04536790822492"><ele>32.599999999999994</ele><time>2026-04-14T04:20:45Z</time></trkpt><trkpt lat="14.4685589418498" lon="121.045368040968"><ele>32.8</ele><time>2026-04-14T04:20:46Z</time></trkpt><trkpt lat="14.468465860495005" lon="121.04536817160691"><ele>33.0</ele><time>2026-04-14T04:20:47Z</time></trkpt><trkpt lat="14.468375691587582" lon="121.04536829816041"><ele>33.0</ele><time>2026-04-14T04:20:48Z</time></trkpt><trkpt lat="14.468277671820179" lon="121.04536843573197"><ele>33.0</ele><time>2026-04-14T04:20:49Z</time></trkpt><trkpt lat="14.468184977932902" lon="121.04536856582993"><ele>33.0</ele><time>2026-04-14T04:20:50Z</time></trkpt><trkpt lat="14.468091711019104" lon="121.04536869673043"><ele>33.0</ele><time>2026-04-14T04:20:51Z</time></trkpt><trkpt lat="14.468001338725891" lon="121.0453688235693"><ele>33.0</ele><time>2026-04-14T04:20:52Z</time></trkpt><trkpt lat="14.467906907079348" lon="121.04536895610474"><ele>33.6</ele><time>2026-04-14T04:20:53Z</time></trkpt><trkpt lat="14.467814378749706" lon="121.04536908596994"><ele>34.199999999999996</ele><time>2026-04-14T04:20:54Z</time></trkpt><trkpt lat="14.467717260260702" lon="121.04536922227412"><ele>34.8</ele><time>2026-04-14T04:20:55Z</time></trkpt><trkpt lat="14.467615575966368" lon="121.04542560225225"><ele>35.4</ele><time>2026-04-14T04:20:56Z</time></trkpt><trkpt lat="14.46751571715809" lon="121.04542449711255"><ele>36.0</ele><time>2026-04-14T04:20:57Z</time></trkpt><trkpt lat="14.467411936958547" lon="121.04542541498985"><ele>36.0</ele><time>2026-04-14T04:20:58Z</time></trkpt><trkpt lat="14.467302036425918" lon="121.04542774179302"><ele>36.0</ele><time>2026-04-14T04:20:59Z</time></trkpt><trkpt lat="14.467194452576713" lon="121.04537080119846"><ele>36.0</ele><time>2026-04-14T04:21:00Z</time></trkpt><trkpt lat="14.467086109127916" lon="121.0453713632367"><ele>36.0</ele><time>2026-04-14T04:21:01Z</time></trkpt><trkpt lat="14.466982060920424" lon="121.04537174063883"><ele>36.0</ele><time>2026-04-14T04:21:02Z</time></trkpt><trkpt lat="14.466883881300076" lon="121.04537174063923"><ele>36.4</ele><time>2026-04-14T04:21:03Z</time></trkpt><trkpt lat="14.46680419425341" lon="121.04537174064087"><ele>36.8</ele><time>2026-04-14T04:21:04Z</time></trkpt><trkpt lat="14.466723049785497" lon="121.04537174064191"><ele>37.199999999999996</ele><time>2026-04-14T04:21:05Z</time></trkpt><trkpt lat="14.466655533949604" lon="121.04537174064276"><ele>37.6</ele><time>2026-04-14T04:21:06Z</time></trkpt><trkpt lat="14.466542275824724" lon="121.04537210109052"><ele>38.0</ele><time>2026-04-14T04:21:08Z</time></trkpt><trkpt lat="14.466418543055834" lon="121.04537292440956"><ele>38.0</ele><time>2026-04-14T04:21:10Z</time></trkpt><trkpt lat="14.466352858498105" lon="121.04544753130213"><ele>38.0</ele><time>2026-04-14T04:21:11Z</time></trkpt><trkpt lat="14.466279950821386" lon="121.04544768628527"><ele>38.0</ele><time>2026-04-14T04:21:12Z</time></trkpt><trkpt lat="14.466203215456682" lon="121.04544660891955"><ele>38.0</ele><time>2026-04-14T04:21:13Z</time></trkpt><trkpt lat="14.466115622822297" lon="121.045447118821"><ele>38.0</ele><time>2026-04-14T04:21:14Z</time></trkpt><trkpt lat="14.466024809645521" lon="121.04537579451937"><ele>38.0</ele><time>2026-04-14T04:21:15.001Z</time></trkpt><trkpt lat="14.465932893979058" lon="121.04537730183584"><ele>38.0</ele><time>2026-04-14T04:21:16.001Z</time></trkpt><trkpt lat="14.465833409437714" lon="121.04537887749771"><ele>38.0</ele><time>2026-04-14T04:21:17.001Z</time></trkpt><trkpt lat="14.465737719457579" lon="121.04538039305892"><ele>38.0</ele><time>2026-04-14T04:21:18.001Z</time></trkpt><trkpt lat="14.465631779190238" lon="121.04538207096765"><ele>38.0</ele><time>2026-04-14T04:21:19.001Z</time></trkpt><trkpt lat="14.465524369554322" lon="121.04538377214807"><ele>38.0</ele><time>2026-04-14T04:21:20.001Z</time></trkpt><trkpt lat="14.46542050720406" lon="121.04538541714611"><ele>38.0</ele><time>2026-04-14T04:21:21.001Z</time></trkpt><trkpt lat="14.465325287104566" lon="121.0453869880949"><ele>38.0</ele><time>2026-04-14T04:21:22.001Z</time></trkpt><trkpt lat="14.465218674122385" lon="121.04538895421713"><ele>38.0</ele><time>2026-04-14T04:21:23.001Z</time></trkpt><trkpt lat="14.465103653201064" lon="121.04539074245952"><ele>38.0</ele><time>2026-04-14T04:21:24.001Z</time></trkpt><trkpt lat="14.464976466668444" lon="121.04539162479105"><ele>38.0</ele><time>2026-04-14T04:21:25.001Z</time></trkpt><trkpt lat="14.464839099068953" lon="121.04539257775255"><ele>38.0</ele><time>2026-04-14T04:21:26.001Z</time></trkpt><trkpt lat="14.464700015305901" lon="121.04539354261928"><ele>38.0</ele><time>2026-04-14T04:21:27.001Z</time></trkpt><trkpt lat="14.464564079642523" lon="121.04539448564636"><ele>38.0</ele><time>2026-04-14T04:21:28.001Z</time></trkpt><trkpt lat="14.464430668014973" lon="121.04539541116391"><ele>38.0</ele><time>2026-04-14T04:21:29.001Z</time></trkpt><trkpt lat="14.464293447073983" lon="121.04539636310722"><ele>38.0</ele><time>2026-04-14T04:21:30.001Z</time></trkpt><trkpt lat="14.464167630417283" lon="121.04539723593533"><ele>38.0</ele><time>2026-04-14T04:21:31.001Z</time></trkpt><trkpt lat="14.464045951656129" lon="121.0453980800581"><ele>38.0</ele><time>2026-04-14T04:21:32.001Z</time></trkpt><trkpt lat="14.463940568279936" lon="121.04539881013478"><ele>38.0</ele><time>2026-04-14T04:21:33.001Z</time></trkpt><trkpt lat="14.463843567850065" lon="121.04539947910317"><ele>37.666666666666664</ele><time>2026-04-14T04:21:34.001Z</time></trkpt><trkpt lat="14.463757469547565" lon="121.04540007288423"><ele>37.33333333333333</ele><time>2026-04-14T04:21:35.001Z</time></trkpt><trkpt lat="14.463669822482522" lon="121.04540067734735"><ele>37.0</ele><time>2026-04-14T04:21:36.001Z</time></trkpt><trkpt lat="14.463589210331934" lon="121.04540123329272"><ele>36.666666666666664</ele><time>2026-04-14T04:21:37.001Z</time></trkpt><trkpt lat="14.463517586605667" lon="121.0454017272495"><ele>36.333333333333336</ele><time>2026-04-14T04:21:38.001Z</time></trkpt><trkpt lat="14.463444619724314" lon="121.04540223046867"><ele>36.0</ele><time>2026-04-14T04:21:39.001Z</time></trkpt><trkpt lat="14.46336448051239" lon="121.04540278315247"><ele>36.0</ele><time>2026-04-14T04:21:40.001Z</time></trkpt><trkpt lat="14.463282762469941" lon="121.04540334672437"><ele>36.0</ele><time>2026-04-14T04:21:41.001Z</time></trkpt><trkpt lat="14.463197911751227" lon="121.04540393190152"><ele>36.0</ele><time>2026-04-14T04:21:42.001Z</time></trkpt><trkpt lat="14.46311296363444" lon="121.04540451775007"><ele>36.0</ele><time>2026-04-14T04:21:43.001Z</time></trkpt><trkpt lat="14.463023718526198" lon="121.04540513323286"><ele>36.0</ele><time>2026-04-14T04:21:44.001Z</time></trkpt><trkpt lat="14.462935851007343" lon="121.04540573921363"><ele>36.0</ele><time>2026-04-14T04:21:45.001Z</time></trkpt><trkpt lat="14.462846278391725" lon="121.04540473383244"><ele>36.2</ele><time>2026-04-14T04:21:46.001Z</time></trkpt><trkpt lat="14.462750632413757" lon="121.0454043402269"><ele>36.400000000000006</ele><time>2026-04-14T04:21:47.001Z</time></trkpt><trkpt lat="14.462649530870083" lon="121.04540392869855"><ele>36.6</ele><time>2026-04-14T04:21:48.001Z</time></trkpt><trkpt lat="14.462550830205558" lon="121.04540363348207"><ele>36.800000000000004</ele><time>2026-04-14T04:21:49.001Z</time></trkpt><trkpt lat="14.462461301734521" lon="121.04540336569957"><ele>37.0</ele><time>2026-04-14T04:21:50.001Z</time></trkpt><trkpt lat="14.462372321371204" lon="121.04540309992933"><ele>37.0</ele><time>2026-04-14T04:21:51.001Z</time></trkpt><trkpt lat="14.462285198691253" lon="121.04540283934355"><ele>37.0</ele><time>2026-04-14T04:21:52.001Z</time></trkpt><trkpt lat="14.462198552092389" lon="121.04540258018102"><ele>37.0</ele><time>2026-04-14T04:21:53.001Z</time></trkpt><trkpt lat="14.462115978868955" lon="121.04540233320134"><ele>37.0</ele><time>2026-04-14T04:21:54.001Z</time></trkpt><trkpt lat="14.462031417148365" lon="121.045402080275"><ele>37.0</ele><time>2026-04-14T04:21:55.001Z</time></trkpt><trkpt lat="14.461948600426338" lon="121.04540183256796"><ele>37.0</ele><time>2026-04-14T04:21:56.001Z</time></trkpt><trkpt lat="14.461862872830164" lon="121.04540157615426"><ele>37.2</ele><time>2026-04-14T04:21:57.001Z</time></trkpt><trkpt lat="14.461779323837266" lon="121.04540132625777"><ele>37.400000000000006</ele><time>2026-04-14T04:21:58.001Z</time></trkpt><trkpt lat="14.461685078324107" lon="121.04540104436664"><ele>37.599999999999994</ele><time>2026-04-14T04:21:59.001Z</time></trkpt><trkpt lat="14.461593120925151" lon="121.04540197667498"><ele>37.8</ele><time>2026-04-14T04:22:00.001Z</time></trkpt><trkpt lat="14.46149853568856" lon="121.04540241807256"><ele>38.0</ele><time>2026-04-14T04:22:01.001Z</time></trkpt><trkpt lat="14.461401606568929" lon="121.04540287040989"><ele>38.0</ele><time>2026-04-14T04:22:02.001Z</time></trkpt><trkpt lat="14.461304543771076" lon="121.045403338057"><ele>38.0</ele><time>2026-04-14T04:22:03.001Z</time></trkpt><trkpt lat="14.461210053109225" lon="121.04540378850868"><ele>38.0</ele><time>2026-04-14T04:22:04.001Z</time></trkpt><trkpt lat="14.46110758160805" lon="121.04540435646202"><ele>38.0</ele><time>2026-04-14T04:22:05.001Z</time></trkpt><trkpt lat="14.461007581435524" lon="121.04540494599283"><ele>38.0</ele><time>2026-04-14T04:22:06.001Z</time></trkpt><trkpt lat="14.460906716523906" lon="121.04540554062115"><ele>38.4</ele><time>2026-04-14T04:22:07.001Z</time></trkpt><trkpt lat="14.460810488907143" lon="121.04540610791052"><ele>38.8</ele><time>2026-04-14T04:22:08.001Z</time></trkpt><trkpt lat="14.460708974613876" lon="121.0454067063666"><ele>39.2</ele><time>2026-04-14T04:22:09.001Z</time></trkpt><trkpt lat="14.460608525440298" lon="121.04540729854354"><ele>39.6</ele><time>2026-04-14T04:22:10.001Z</time></trkpt><trkpt lat="14.460504029640955" lon="121.04540791457698"><ele>40.0</ele><time>2026-04-14T04:22:11.001Z</time></trkpt><trkpt lat="14.460399143436893" lon="121.04540853291205"><ele>40.4</ele><time>2026-04-14T04:22:12.001Z</time></trkpt><trkpt lat="14.460288541746118" lon="121.04540918494199"><ele>40.8</ele><time>2026-04-14T04:22:13.001Z</time></trkpt><trkpt lat="14.460171262107263" lon="121.04540987634076"><ele>41.2</ele><time>2026-04-14T04:22:14.001Z</time></trkpt><trkpt lat="14.46006916421152" lon="121.04541047823616"><ele>41.6</ele><time>2026-04-14T04:22:15.001Z</time></trkpt><trkpt lat="14.459957387060017" lon="121.04541327489234"><ele>42.0</ele><time>2026-04-14T04:22:16.001Z</time></trkpt><trkpt lat="14.459848831707333" lon="121.04541668043974"><ele>42.0</ele><time>2026-04-14T04:22:17.001Z</time></trkpt><trkpt lat="14.459738578540207" lon="121.04542013925132"><ele>42.0</ele><time>2026-04-14T04:22:18.001Z</time></trkpt><trkpt lat="14.459628346889197" lon="121.04542355745053"><ele>42.0</ele><time>2026-04-14T04:22:19.001Z</time></trkpt><trkpt lat="14.459526878726987" lon="121.04542659087899"><ele>42.0</ele><time>2026-04-14T04:22:20.001Z</time></trkpt><trkpt lat="14.45943234996773" lon="121.04542925062432"><ele>42.0</ele><time>2026-04-14T04:22:21.001Z</time></trkpt><trkpt lat="14.459345302843696" lon="121.04543169085757"><ele>42.0</ele><time>2026-04-14T04:22:22.001Z</time></trkpt><trkpt lat="14.459261749908867" lon="121.04543410063421"><ele>42.0</ele><time>2026-04-14T04:22:23.001Z</time></trkpt><trkpt lat="14.459169630044329" lon="121.04543698104766"><ele>42.0</ele><time>2026-04-14T04:22:24.001Z</time></trkpt><trkpt lat="14.45909295441487" lon="121.04543894110357"><ele>42.0</ele><time>2026-04-14T04:22:25.001Z</time></trkpt><trkpt lat="14.459004043415087" lon="121.04543945253884"><ele>42.0</ele><time>2026-04-14T04:22:26.001Z</time></trkpt><trkpt lat="14.458925699100737" lon="121.0454399031913"><ele>42.0</ele><time>2026-04-14T04:22:27.001Z</time></trkpt><trkpt lat="14.458837305735415" lon="121.04543966304253"><ele>41.8</ele><time>2026-04-14T04:22:28.001Z</time></trkpt><trkpt lat="14.458749136786196" lon="121.04543876973952"><ele>41.6</ele><time>2026-04-14T04:22:29.001Z</time></trkpt><trkpt lat="14.458655594973129" lon="121.04543782200032"><ele>41.4</ele><time>2026-04-14T04:22:30.001Z</time></trkpt><trkpt lat="14.45856289637869" lon="121.04543688280386"><ele>41.199999999999996</ele><time>2026-04-14T04:22:31Z</time></trkpt><trkpt lat="14.458461529215054" lon="121.04543562722729"><ele>41.0</ele><time>2026-04-14T04:22:32Z</time></trkpt><trkpt lat="14.4583575934911" lon="121.04543451566457"><ele>41.0</ele><time>2026-04-14T04:22:33Z</time></trkpt><trkpt lat="14.45825591075077" lon="121.04543344128383"><ele>41.0</ele><time>2026-04-14T04:22:34Z</time></trkpt><trkpt lat="14.458145616576624" lon="121.0454322793522"><ele>41.0</ele><time>2026-04-14T04:22:35Z</time></trkpt><trkpt lat="14.458037420393193" lon="121.04543118971814"><ele>41.0</ele><time>2026-04-14T04:22:36Z</time></trkpt><trkpt lat="14.457936162265467" lon="121.04542961846904"><ele>41.0</ele><time>2026-04-14T04:22:37Z</time></trkpt><trkpt lat="14.457837991867834" lon="121.04542806317882"><ele>40.199999999999996</ele><time>2026-04-14T04:22:38Z</time></trkpt><trkpt lat="14.457736713224008" lon="121.04542674101388"><ele>39.4</ele><time>2026-04-14T04:22:39Z</time></trkpt><trkpt lat="14.457639805880374" lon="121.04542674101307"><ele>38.6</ele><time>2026-04-14T04:22:40Z</time></trkpt><trkpt lat="14.457549158813292" lon="121.045425728674"><ele>37.8</ele><time>2026-04-14T04:22:41Z</time></trkpt><trkpt lat="14.457464114432854" lon="121.04542467890155"><ele>37.0</ele><time>2026-04-14T04:22:42Z</time></trkpt><trkpt lat="14.457383666131658" lon="121.04542368586436"><ele>37.0</ele><time>2026-04-14T04:22:43Z</time></trkpt><trkpt lat="14.457309722122522" lon="121.04542277311407"><ele>37.0</ele><time>2026-04-14T04:22:44Z</time></trkpt><trkpt lat="14.457243336742735" lon="121.04542195366676"><ele>37.0</ele><time>2026-04-14T04:22:45Z</time></trkpt><trkpt lat="14.457178036476785" lon="121.04542114761384"><ele>37.0</ele><time>2026-04-14T04:22:46Z</time></trkpt><trkpt lat="14.457046643653843" lon="121.04541952572889"><ele>37.0</ele><time>2026-04-14T04:22:48Z</time></trkpt><trkpt lat="14.456965575240057" lon="121.04544701339252"><ele>37.0</ele><time>2026-04-14T04:22:49Z</time></trkpt><trkpt lat="14.456897219932696" lon="121.04544839531266"><ele>36.833333333333336</ele><time>2026-04-14T04:22:50Z</time></trkpt><trkpt lat="14.456824494014379" lon="121.04545277481915"><ele>36.66666666666667</ele><time>2026-04-14T04:22:51Z</time></trkpt><trkpt lat="14.456754695799658" lon="121.04545504699193"><ele>36.5</ele><time>2026-04-14T04:22:52Z</time></trkpt><trkpt lat="14.456645840414252" lon="121.0454575634782"><ele>36.333333333333336</ele><time>2026-04-14T04:22:54Z</time></trkpt><trkpt lat="14.45658710995756" lon="121.04543392090494"><ele>36.166666666666664</ele><time>2026-04-14T04:22:56Z</time></trkpt><trkpt lat="14.456505113825237" lon="121.04543669696643"><ele>36.0</ele><time>2026-04-14T04:23:00Z</time></trkpt><trkpt lat="14.456423176287968" lon="121.04544059376529"><ele>36.0</ele><time>2026-04-14T04:23:02Z</time></trkpt><trkpt lat="14.456328712138859" lon="121.04544394972916"><ele>36.0</ele><time>2026-04-14T04:23:04Z</time></trkpt><trkpt lat="14.456222866962348" lon="121.04544855989452"><ele>36.0</ele><time>2026-04-14T04:23:06Z</time></trkpt><trkpt lat="14.456099184950105" lon="121.04547172258783"><ele>36.0</ele><time>2026-04-14T04:23:08Z</time></trkpt><trkpt lat="14.456028607855309" lon="121.04547230716902"><ele>36.0</ele><time>2026-04-14T04:23:09Z</time></trkpt><trkpt lat="14.455961367757148" lon="121.04547165706303"><ele>36.333333333333336</ele><time>2026-04-14T04:23:10Z</time></trkpt><trkpt lat="14.455833929995626" lon="121.0454691694143"><ele>36.666666666666664</ele><time>2026-04-14T04:23:12Z</time></trkpt><trkpt lat="14.455762679016004" lon="121.04546936510324"><ele>37.0</ele><time>2026-04-14T04:23:13Z</time></trkpt><trkpt lat="14.455686420453793" lon="121.04546936958623"><ele>37.33333333333333</ele><time>2026-04-14T04:23:14Z</time></trkpt><trkpt lat="14.455614887292219" lon="121.04547221441779"><ele>37.666666666666664</ele><time>2026-04-14T04:23:15Z</time></trkpt><trkpt lat="14.4555411133605" lon="121.04547506363566"><ele>38.0</ele><time>2026-04-14T04:23:16Z</time></trkpt><trkpt lat="14.455468995615766" lon="121.04548351407077"><ele>37.0</ele><time>2026-04-14T04:23:17Z</time></trkpt><trkpt lat="14.45539230111714" lon="121.04549243178464"><ele>36.0</ele><time>2026-04-14T04:23:18Z</time></trkpt><trkpt lat="14.455316709597959" lon="121.04549873641994"><ele>35.0</ele><time>2026-04-14T04:23:19Z</time></trkpt><trkpt lat="14.455235939487181" lon="121.04550818961408"><ele>34.0</ele><time>2026-04-14T04:23:20Z</time></trkpt><trkpt lat="14.45515139019917" lon="121.04552485351469"><ele>33.0</ele><time>2026-04-14T04:23:21Z</time></trkpt><trkpt lat="14.455061279633695" lon="121.04554458260425"><ele>32.0</ele><time>2026-04-14T04:23:22Z</time></trkpt><trkpt lat="14.454979138801843" lon="121.04556612718237"><ele>31.999999999999996</ele><time>2026-04-14T04:23:23Z</time></trkpt><trkpt lat="14.454896340531354" lon="121.04559505284828"><ele>32.0</ele><time>2026-04-14T04:23:24Z</time></trkpt><trkpt lat="14.454819374125684" lon="121.04561642547506"><ele>32.0</ele><time>2026-04-14T04:23:25Z</time></trkpt><trkpt lat="14.454744911142363" lon="121.04564050948676"><ele>32.0</ele><time>2026-04-14T04:23:26Z</time></trkpt><trkpt lat="14.454678137226193" lon="121.04566209650027"><ele>31.999999999999996</ele><time>2026-04-14T04:23:27Z</time></trkpt><trkpt lat="14.454601683378225" lon="121.04569007388928"><ele>32.0</ele><time>2026-04-14T04:23:28Z</time></trkpt><trkpt lat="14.454510395350619" lon="121.04572257786664"><ele>31.0</ele><time>2026-04-14T04:23:29Z</time></trkpt><trkpt lat="14.454413346598239" lon="121.0457541253803"><ele>30.000000000000004</ele><time>2026-04-14T04:23:30Z</time></trkpt><trkpt lat="14.454323413743854" lon="121.04578191835238"><ele>29.000000000000004</ele><time>2026-04-14T04:23:31Z</time></trkpt><trkpt lat="14.45425363773013" lon="121.04580633146116"><ele>28.0</ele><time>2026-04-14T04:23:32Z</time></trkpt><trkpt lat="14.45415183338859" lon="121.04585277562433"><ele>27.0</ele><time>2026-04-14T04:23:34Z</time></trkpt><trkpt lat="14.454022108261789" lon="121.0458340814037"><ele>26.833333333333332</ele><time>2026-04-14T04:23:36Z</time></trkpt><trkpt lat="14.4539613040747" lon="121.04585512781455"><ele>26.666666666666664</ele><time>2026-04-14T04:23:37Z</time></trkpt><trkpt lat="14.453863576284723" lon="121.04589088732126"><ele>26.5</ele><time>2026-04-14T04:23:39Z</time></trkpt><trkpt lat="14.453753672849654" lon="121.04592670665524"><ele>26.333333333333332</ele><time>2026-04-14T04:23:41Z</time></trkpt><trkpt lat="14.453694768593678" lon="121.04595393534636"><ele>26.166666666666664</ele><time>2026-04-14T04:23:42Z</time></trkpt><trkpt lat="14.453628378119536" lon="121.04596501940637"><ele>26.0</ele><time>2026-04-14T04:23:43Z</time></trkpt><trkpt lat="14.45356138051719" lon="121.04597664779718"><ele>25.666666666666664</ele><time>2026-04-14T04:23:44Z</time></trkpt><trkpt lat="14.453472175026256" lon="121.04594954894958"><ele>25.333333333333332</ele><time>2026-04-14T04:23:49Z</time></trkpt><trkpt lat="14.453395636111484" lon="121.04593197521076"><ele>25.0</ele><time>2026-04-14T04:23:50Z</time></trkpt><trkpt lat="14.45332020479546" lon="121.04590481609455"><ele>24.666666666666664</ele><time>2026-04-14T04:23:51.001Z</time></trkpt><trkpt lat="14.453243666613623" lon="121.04587246618347"><ele>24.333333333333332</ele><time>2026-04-14T04:23:52.001Z</time></trkpt><trkpt lat="14.453167330146679" lon="121.04583509986098"><ele>24.0</ele><time>2026-04-14T04:23:53.001Z</time></trkpt><trkpt lat="14.453089611504335" lon="121.04579459196233"><ele>23.799999999999997</ele><time>2026-04-14T04:23:54.001Z</time></trkpt><trkpt lat="14.453006863667172" lon="121.04575146278214"><ele>23.599999999999998</ele><time>2026-04-14T04:23:55.001Z</time></trkpt><trkpt lat="14.452922403814178" lon="121.04570744127925"><ele>23.4</ele><time>2026-04-14T04:23:56.001Z</time></trkpt><trkpt lat="14.452828008480978" lon="121.04568957691924"><ele>23.2</ele><time>2026-04-14T04:23:57.001Z</time></trkpt><trkpt lat="14.452735217010757" lon="121.04563618515847"><ele>23.0</ele><time>2026-04-14T04:23:58.001Z</time></trkpt><trkpt lat="14.45262514707676" lon="121.0456067522404"><ele>22.0</ele><time>2026-04-14T04:23:59.001Z</time></trkpt><trkpt lat="14.452505318786892" lon="121.0455763321273"><ele>21.0</ele><time>2026-04-14T04:24:00.001Z</time></trkpt><trkpt lat="14.452382473993632" lon="121.04554679198763"><ele>20.0</ele><time>2026-04-14T04:24:01.001Z</time></trkpt><trkpt lat="14.452257985381825" lon="121.04552033707844"><ele>19.0</ele><time>2026-04-14T04:24:02.001Z</time></trkpt><trkpt lat="14.452124901051732" lon="121.04549839968541"><ele>17.5</ele><time>2026-04-14T04:24:03.001Z</time></trkpt><trkpt lat="14.451988456310309" lon="121.0454799680137"><ele>16.0</ele><time>2026-04-14T04:24:04.001Z</time></trkpt><trkpt lat="14.451842676992083" lon="121.0454812507896"><ele>14.5</ele><time>2026-04-14T04:24:05.001Z</time></trkpt><trkpt lat="14.451686710312748" lon="121.04547715803966"><ele>13.0</ele><time>2026-04-14T04:24:06.001Z</time></trkpt><trkpt lat="14.451522325597828" lon="121.04547535556254"><ele>13.0</ele><time>2026-04-14T04:24:07.001Z</time></trkpt><trkpt lat="14.451360742870191" lon="121.04547612625046"><ele>13.0</ele><time>2026-04-14T04:24:08.001Z</time></trkpt><trkpt lat="14.451195412794554" lon="121.04548112406074"><ele>13.0</ele><time>2026-04-14T04:24:09.001Z</time></trkpt><trkpt lat="14.451031126936138" lon="121.04546823356795"><ele>15.333333333333332</ele><time>2026-04-14T04:24:10.001Z</time></trkpt><trkpt lat="14.450868282229356" lon="121.04546527051455"><ele>17.666666666666668</ele><time>2026-04-14T04:24:11.001Z</time></trkpt><trkpt lat="14.45070294183216" lon="121.04546133942641"><ele>20.0</ele><time>2026-04-14T04:24:12.001Z</time></trkpt><trkpt lat="14.450534817502549" lon="121.04545768296114"><ele>19.666666666666668</ele><time>2026-04-14T04:24:13.001Z</time></trkpt><trkpt lat="14.450362355106773" lon="121.04545445424067"><ele>19.333333333333332</ele><time>2026-04-14T04:24:14.001Z</time></trkpt><trkpt lat="14.450196264562642" lon="121.04545073486061"><ele>19.0</ele><time>2026-04-14T04:24:15.001Z</time></trkpt><trkpt lat="14.450037562847577" lon="121.04544697599025"><ele>19.0</ele><time>2026-04-14T04:24:16.001Z</time></trkpt><trkpt lat="14.449889649370153" lon="121.04545060558894"><ele>19.0</ele><time>2026-04-14T04:24:17.001Z</time></trkpt><trkpt lat="14.449772176662199" lon="121.04545119613493"><ele>19.0</ele><time>2026-04-14T04:24:18.001Z</time></trkpt><trkpt lat="14.449639397621125" lon="121.0454515178732"><ele>19.0</ele><time>2026-04-14T04:24:19.001Z</time></trkpt><trkpt lat="14.449522907561668" lon="121.04545180014158"><ele>18.599999999999998</ele><time>2026-04-14T04:24:20.001Z</time></trkpt><trkpt lat="14.44941153257825" lon="121.0454520700066"><ele>18.2</ele><time>2026-04-14T04:24:21.001Z</time></trkpt><trkpt lat="14.44930844643374" lon="121.04545224168932"><ele>17.799999999999997</ele><time>2026-04-14T04:24:22.001Z</time></trkpt><trkpt lat="14.449212630277337" lon="121.04545224168953"><ele>17.4</ele><time>2026-04-14T04:24:23.001Z</time></trkpt><trkpt lat="14.449124193276962" lon="121.04545224168979"><ele>17.0</ele><time>2026-04-14T04:24:24.001Z</time></trkpt><trkpt lat="14.449038977061486" lon="121.04545224168925"><ele>17.0</ele><time>2026-04-14T04:24:25.001Z</time></trkpt><trkpt lat="14.448945503186007" lon="121.04545224168965"><ele>17.0</ele><time>2026-04-14T04:24:26.001Z</time></trkpt><trkpt lat="14.448855627512806" lon="121.04545224168818"><ele>17.0</ele><time>2026-04-14T04:24:27.001Z</time></trkpt><trkpt lat="14.448781733106497" lon="121.04545183072449"><ele>17.0</ele><time>2026-04-14T04:24:28.001Z</time></trkpt><trkpt lat="14.448672462195612" lon="121.04546696519503"><ele>17.0</ele><time>2026-04-14T04:24:30.001Z</time></trkpt><trkpt lat="14.448545354581364" lon="121.04546556429875"><ele>16.4</ele><time>2026-04-14T04:24:32.001Z</time></trkpt><trkpt lat="14.448459880588302" lon="121.04545027471428"><ele>15.799999999999999</ele><time>2026-04-14T04:24:33.001Z</time></trkpt><trkpt lat="14.448365627273557" lon="121.0454472770412"><ele>15.2</ele><time>2026-04-14T04:24:34.001Z</time></trkpt><trkpt lat="14.448266078115221" lon="121.04544768042273"><ele>14.6</ele><time>2026-04-14T04:24:35.001Z</time></trkpt><trkpt lat="14.448156768879437" lon="121.04544812335386"><ele>14.0</ele><time>2026-04-14T04:24:36.001Z</time></trkpt><trkpt lat="14.448047335505407" lon="121.04545251630387"><ele>14.2</ele><time>2026-04-14T04:24:37Z</time></trkpt><trkpt lat="14.447939146619948" lon="121.04545830955225"><ele>14.399999999999999</ele><time>2026-04-14T04:24:38Z</time></trkpt><trkpt lat="14.447827509557074" lon="121.04545788166868"><ele>14.6</ele><time>2026-04-14T04:24:39Z</time></trkpt><trkpt lat="14.447719202368365" lon="121.04545906081295"><ele>14.8</ele><time>2026-04-14T04:24:40Z</time></trkpt><trkpt lat="14.447609018628537" lon="121.04545894205175"><ele>15.0</ele><time>2026-04-14T04:24:41Z</time></trkpt><trkpt lat="14.447499715748576" lon="121.04545894205121"><ele>15.0</ele><time>2026-04-14T04:24:42Z</time></trkpt><trkpt lat="14.447391034034158" lon="121.04545894205079"><ele>15.0</ele><time>2026-04-14T04:24:43Z</time></trkpt><trkpt lat="14.447286926126953" lon="121.04545894205039"><ele>15.0</ele><time>2026-04-14T04:24:44Z</time></trkpt><trkpt lat="14.447187974265262" lon="121.04545894205053"><ele>15.0</ele><time>2026-04-14T04:24:45Z</time></trkpt><trkpt lat="14.44709528681536" lon="121.0454589420505"><ele>15.0</ele><time>2026-04-14T04:24:46Z</time></trkpt><trkpt lat="14.447003629288913" lon="121.04545894205081"><ele>15.333333333333334</ele><time>2026-04-14T04:24:47Z</time></trkpt><trkpt lat="14.446909341496614" lon="121.04545894205077"><ele>15.666666666666668</ele><time>2026-04-14T04:24:48Z</time></trkpt><trkpt lat="14.446826517749814" lon="121.04545894205063"><ele>16.0</ele><time>2026-04-14T04:24:49Z</time></trkpt><trkpt lat="14.446748428891786" lon="121.04545894204956"><ele>16.333333333333336</ele><time>2026-04-14T04:24:50Z</time></trkpt><trkpt lat="14.446679290951785" lon="121.04545894205003"><ele>16.666666666666668</ele><time>2026-04-14T04:24:51Z</time></trkpt><trkpt lat="14.446612850288968" lon="121.04545894204992"><ele>17.0</ele><time>2026-04-14T04:24:52Z</time></trkpt><trkpt lat="14.446541689892078" lon="121.04545894204942"><ele>17.0</ele><time>2026-04-14T04:24:53Z</time></trkpt><trkpt lat="14.446468766008993" lon="121.04545894204936"><ele>17.0</ele><time>2026-04-14T04:24:54Z</time></trkpt><trkpt lat="14.446391973143237" lon="121.04545894205108"><ele>17.0</ele><time>2026-04-14T04:24:55Z</time></trkpt><trkpt lat="14.446308731817826" lon="121.0454589420512"><ele>17.0</ele><time>2026-04-14T04:24:56Z</time></trkpt><trkpt lat="14.446221781796284" lon="121.04545988429506"><ele>17.0</ele><time>2026-04-14T04:24:57Z</time></trkpt><trkpt lat="14.446131648885803" lon="121.04546121339783"><ele>17.0</ele><time>2026-04-14T04:24:58Z</time></trkpt><trkpt lat="14.44603554301476" lon="121.04546263058606"><ele>17.2</ele><time>2026-04-14T04:24:59Z</time></trkpt><trkpt lat="14.445938823594075" lon="121.04546164205001"><ele>17.4</ele><time>2026-04-14T04:25:00Z</time></trkpt><trkpt lat="14.445846579247025" lon="121.0454629420495"><ele>17.6</ele><time>2026-04-14T04:25:01Z</time></trkpt><trkpt lat="14.445770602795262" lon="121.04546294204975"><ele>17.8</ele><time>2026-04-14T04:25:02Z</time></trkpt><trkpt lat="14.445690625153603" lon="121.04546294205052"><ele>18.0</ele><time>2026-04-14T04:25:05Z</time></trkpt><trkpt lat="14.445578731356028" lon="121.04546354794535"><ele>18.0</ele><time>2026-04-14T04:25:07Z</time></trkpt><trkpt lat="14.445495837054306" lon="121.04546400610633"><ele>18.0</ele><time>2026-04-14T04:25:08Z</time></trkpt><trkpt lat="14.445399976351748" lon="121.0454643420524"><ele>18.0</ele><time>2026-04-14T04:25:09Z</time></trkpt><trkpt lat="14.445286089169592" lon="121.04546614729416"><ele>18.0</ele><time>2026-04-14T04:25:10Z</time></trkpt><trkpt lat="14.445167838126165" lon="121.04547515800253"><ele>18.0</ele><time>2026-04-14T04:25:11Z</time></trkpt><trkpt lat="14.445033170897405" lon="121.04548541961613"><ele>18.0</ele><time>2026-04-14T04:25:12Z</time></trkpt><trkpt lat="14.444898731157963" lon="121.04550980079803"><ele>18.0</ele><time>2026-04-14T04:25:13Z</time></trkpt><trkpt lat="14.444764435676225" lon="121.04550123362225"><ele>18.0</ele><time>2026-04-14T04:25:14Z</time></trkpt><trkpt lat="14.444614276822398" lon="121.04549588678678"><ele>18.0</ele><time>2026-04-14T04:25:15Z</time></trkpt><trkpt lat="14.444468379672664" lon="121.0454943132169"><ele>18.0</ele><time>2026-04-14T04:25:16Z</time></trkpt><trkpt lat="14.444318284931196" lon="121.04549986405546"><ele>18.0</ele><time>2026-04-14T04:25:17Z</time></trkpt><trkpt lat="14.444161338558807" lon="121.04550093367149"><ele>18.0</ele><time>2026-04-14T04:25:18Z</time></trkpt><trkpt lat="14.444007377715597" lon="121.04549899252058"><ele>18.0</ele><time>2026-04-14T04:25:19Z</time></trkpt><trkpt lat="14.443865039437604" lon="121.04549982199826"><ele>18.0</ele><time>2026-04-14T04:25:20Z</time></trkpt><trkpt lat="14.44373780492529" lon="121.04548580283395"><ele>18.0</ele><time>2026-04-14T04:25:21Z</time></trkpt><trkpt lat="14.443616953311322" lon="121.04547966102149"><ele>18.0</ele><time>2026-04-14T04:25:22Z</time></trkpt><trkpt lat="14.443503901466539" lon="121.04547274047988"><ele>17.8</ele><time>2026-04-14T04:25:23Z</time></trkpt><trkpt lat="14.443393668355803" lon="121.04547323143518"><ele>17.6</ele><time>2026-04-14T04:25:24Z</time></trkpt><trkpt lat="14.443287714398569" lon="121.04547343423135"><ele>17.4</ele><time>2026-04-14T04:25:25Z</time></trkpt><trkpt lat="14.443180825825728" lon="121.04546852948756"><ele>17.2</ele><time>2026-04-14T04:25:26Z</time></trkpt><trkpt lat="14.443077144884306" lon="121.04547917280367"><ele>17.0</ele><time>2026-04-14T04:25:27Z</time></trkpt><trkpt lat="14.442980447092856" lon="121.0454875300433"><ele>16.6</ele><time>2026-04-14T04:25:28Z</time></trkpt><trkpt lat="14.442883507310432" lon="121.04549071946619"><ele>16.2</ele><time>2026-04-14T04:25:29Z</time></trkpt><trkpt lat="14.442775386589318" lon="121.04547476391959"><ele>15.8</ele><time>2026-04-14T04:25:30Z</time></trkpt><trkpt lat="14.44266607571267" lon="121.04546425030416"><ele>15.4</ele><time>2026-04-14T04:25:31Z</time></trkpt><trkpt lat="14.442540816218395" lon="121.04546309978929"><ele>15.0</ele><time>2026-04-14T04:25:32Z</time></trkpt><trkpt lat="14.44241374385982" lon="121.04545099285367"><ele>15.0</ele><time>2026-04-14T04:25:33Z</time></trkpt><trkpt lat="14.442287966138641" lon="121.04547798715976"><ele>15.0</ele><time>2026-04-14T04:25:34Z</time></trkpt><trkpt lat="14.442172412873738" lon="121.045486717609"><ele>15.0</ele><time>2026-04-14T04:25:35Z</time></trkpt><trkpt lat="14.442090789792974" lon="121.04549166822576"><ele>15.0</ele><time>2026-04-14T04:25:36Z</time></trkpt><trkpt lat="14.442001260350217" lon="121.04549814074814"><ele>15.0</ele><time>2026-04-14T04:25:38Z</time></trkpt><trkpt lat="14.441910424643016" lon="121.04550820058165"><ele>15.166666666666666</ele><time>2026-04-14T04:25:40Z</time></trkpt><trkpt lat="14.441824700187075" lon="121.04552412358252"><ele>15.333333333333332</ele><time>2026-04-14T04:25:42Z</time></trkpt><trkpt lat="14.441750248267684" lon="121.04553217162507"><ele>15.5</ele><time>2026-04-14T04:25:44.001Z</time></trkpt><trkpt lat="14.441685324014731" lon="121.04554327578873"><ele>15.666666666666666</ele><time>2026-04-14T04:25:47.001Z</time></trkpt><trkpt lat="14.44159939374332" lon="121.04555480296885"><ele>15.833333333333332</ele><time>2026-04-14T04:25:49.001Z</time></trkpt><trkpt lat="14.441491217620149" lon="121.04556280798899"><ele>16.0</ele><time>2026-04-14T04:25:51.001Z</time></trkpt><trkpt lat="14.44142406092458" lon="121.04556630823906"><ele>16.0</ele><time>2026-04-14T04:25:52.001Z</time></trkpt><trkpt lat="14.441355413515648" lon="121.04556802218026"><ele>16.0</ele><time>2026-04-14T04:25:53.001Z</time></trkpt><trkpt lat="14.441246813537862" lon="121.04556688765658"><ele>16.0</ele><time>2026-04-14T04:25:55.001Z</time></trkpt><trkpt lat="14.441136182793013" lon="121.04556857491855"><ele>16.0</ele><time>2026-04-14T04:25:57.001Z</time></trkpt><trkpt lat="14.441050943966099" lon="121.0455689086841"><ele>16.0</ele><time>2026-04-14T04:25:59.001Z</time></trkpt><trkpt lat="14.440950972809695" lon="121.04557605955455"><ele>16.400000000000002</ele><time>2026-04-14T04:26:01.001Z</time></trkpt><trkpt lat="14.440864788207268" lon="121.0455715641748"><ele>16.8</ele><time>2026-04-14T04:26:03.001Z</time></trkpt><trkpt lat="14.44075672023244" lon="121.04557832003721"><ele>17.200000000000003</ele><time>2026-04-14T04:26:05.001Z</time></trkpt><trkpt lat="14.440638896548172" lon="121.04557763443302"><ele>17.6</ele><time>2026-04-14T04:26:07.001Z</time></trkpt><trkpt lat="14.440522036042413" lon="121.04557963830527"><ele>18.0</ele><time>2026-04-14T04:26:09.001Z</time></trkpt><trkpt lat="14.440395947556569" lon="121.04557969138992"><ele>18.000000000000004</ele><time>2026-04-14T04:26:11.001Z</time></trkpt><trkpt lat="14.440332029019052" lon="121.04558252666882"><ele>18.0</ele><time>2026-04-14T04:26:12.001Z</time></trkpt><trkpt lat="14.440268826192463" lon="121.04558068581683"><ele>18.0</ele><time>2026-04-14T04:26:13.001Z</time></trkpt><trkpt lat="14.440205354864888" lon="121.04557902848849"><ele>18.0</ele><time>2026-04-14T04:26:14.001Z</time></trkpt><trkpt lat="14.440123354743696" lon="121.04558053325857"><ele>18.0</ele><time>2026-04-14T04:26:15.001Z</time></trkpt><trkpt lat="14.440052488408924" lon="121.04557612276301"><ele>18.000000000000004</ele><time>2026-04-14T04:26:16.001Z</time></trkpt><trkpt lat="14.439971241374943" lon="121.04557803982634"><ele>18.0</ele><time>2026-04-14T04:26:17.001Z</time></trkpt><trkpt lat="14.439896235283712" lon="121.04557789060685"><ele>18.0</ele><time>2026-04-14T04:26:18.001Z</time></trkpt><trkpt lat="14.439824298504696" lon="121.0455732547165"><ele>18.0</ele><time>2026-04-14T04:26:19.001Z</time></trkpt><trkpt lat="14.439745884058107" lon="121.04557366068087"><ele>18.0</ele><time>2026-04-14T04:26:20.001Z</time></trkpt><trkpt lat="14.439677106805249" lon="121.04557251032219"><ele>18.0</ele><time>2026-04-14T04:26:21.001Z</time></trkpt><trkpt lat="14.439602828400625" lon="121.04557048127293"><ele>18.0</ele><time>2026-04-14T04:26:22.001Z</time></trkpt><trkpt lat="14.439527589043054" lon="121.04556689360888"><ele>18.0</ele><time>2026-04-14T04:26:23.001Z</time></trkpt><trkpt lat="14.439441351315724" lon="121.04556476751672"><ele>17.666666666666668</ele><time>2026-04-14T04:26:24.001Z</time></trkpt><trkpt lat="14.439360191566399" lon="121.04555748819526"><ele>17.333333333333332</ele><time>2026-04-14T04:26:25.001Z</time></trkpt><trkpt lat="14.439287431453" lon="121.04555109295089"><ele>17.0</ele><time>2026-04-14T04:26:26.001Z</time></trkpt><trkpt lat="14.439216538485296" lon="121.04554400791957"><ele>16.666666666666664</ele><time>2026-04-14T04:26:27.001Z</time></trkpt><trkpt lat="14.439153168997846" lon="121.04553646262062"><ele>16.333333333333332</ele><time>2026-04-14T04:26:28.001Z</time></trkpt><trkpt lat="14.43903707261583" lon="121.04552728308367"><ele>16.0</ele><time>2026-04-14T04:26:30.001Z</time></trkpt><trkpt lat="14.43896907922472" lon="121.0455252879207"><ele>15.999999999999998</ele><time>2026-04-14T04:26:31.001Z</time></trkpt><trkpt lat="14.438894553589236" lon="121.04551963202374"><ele>16.0</ele><time>2026-04-14T04:26:32.001Z</time></trkpt><trkpt lat="14.438819351270947" lon="121.04552119984949"><ele>16.0</ele><time>2026-04-14T04:26:33.001Z</time></trkpt><trkpt lat="14.438756279664542" lon="121.04551442836153"><ele>16.0</ele><time>2026-04-14T04:26:34.001Z</time></trkpt><trkpt lat="14.438633023358172" lon="121.0455098212707"><ele>15.999999999999998</ele><time>2026-04-14T04:26:36.001Z</time></trkpt><trkpt lat="14.438568765662144" lon="121.04550549505112"><ele>16.0</ele><time>2026-04-14T04:26:37.001Z</time></trkpt><trkpt lat="14.438493188607158" lon="121.04550345060672"><ele>15.4</ele><time>2026-04-14T04:26:39.001Z</time></trkpt><trkpt lat="14.438406958067803" lon="121.04549461269012"><ele>14.8</ele><time>2026-04-14T04:26:41.001Z</time></trkpt><trkpt lat="14.438298232236717" lon="121.0454960544841"><ele>14.200000000000001</ele><time>2026-04-14T04:26:43Z</time></trkpt><trkpt lat="14.43817052015493" lon="121.04550523089458"><ele>13.600000000000001</ele><time>2026-04-14T04:26:45Z</time></trkpt><trkpt lat="14.438069839197832" lon="121.0455102308124"><ele>13.0</ele><time>2026-04-14T04:26:46Z</time></trkpt><trkpt lat="14.437961796371981" lon="121.04550321700826"><ele>12.25</ele><time>2026-04-14T04:26:47Z</time></trkpt><trkpt lat="14.437844889028735" lon="121.04549092443851"><ele>11.5</ele><time>2026-04-14T04:26:48Z</time></trkpt><trkpt lat="14.437710277780768" lon="121.04549178678165"><ele>10.75</ele><time>2026-04-14T04:26:49Z</time></trkpt><trkpt lat="14.437577126446127" lon="121.04549456207415"><ele>10.0</ele><time>2026-04-14T04:26:50Z</time></trkpt><trkpt lat="14.437439357475522" lon="121.04549561109845"><ele>10.0</ele><time>2026-04-14T04:26:51Z</time></trkpt><trkpt lat="14.437318457719776" lon="121.04549955122465"><ele>10.0</ele><time>2026-04-14T04:26:52Z</time></trkpt><trkpt lat="14.437206053501313" lon="121.04550299192913"><ele>10.0</ele><time>2026-04-14T04:26:53Z</time></trkpt><trkpt lat="14.437102232164417" lon="121.0455013662035"><ele>10.0</ele><time>2026-04-14T04:26:54Z</time></trkpt><trkpt lat="14.436991004890679" lon="121.04550278657227"><ele>10.0</ele><time>2026-04-14T04:26:55Z</time></trkpt><trkpt lat="14.436877193239615" lon="121.04552022528019"><ele>10.2</ele><time>2026-04-14T04:26:56Z</time></trkpt><trkpt lat="14.436764089869818" lon="121.0455271335313"><ele>10.4</ele><time>2026-04-14T04:26:57Z</time></trkpt><trkpt lat="14.436654750744825" lon="121.04552235494879"><ele>10.600000000000001</ele><time>2026-04-14T04:26:58Z</time></trkpt><trkpt lat="14.436547404852405" lon="121.04552733570668"><ele>10.8</ele><time>2026-04-14T04:26:59Z</time></trkpt><trkpt lat="14.436448435897118" lon="121.04554344870638"><ele>11.0</ele><time>2026-04-14T04:27:00Z</time></trkpt><trkpt lat="14.436355325043001" lon="121.04554107993707"><ele>11.166666666666666</ele><time>2026-04-14T04:27:01Z</time></trkpt><trkpt lat="14.436266270482824" lon="121.04553641521763"><ele>11.333333333333332</ele><time>2026-04-14T04:27:02Z</time></trkpt><trkpt lat="14.436174854570016" lon="121.04552876109173"><ele>11.5</ele><time>2026-04-14T04:27:03Z</time></trkpt><trkpt lat="14.436100798379956" lon="121.04553645246573"><ele>11.666666666666666</ele><time>2026-04-14T04:27:04Z</time></trkpt><trkpt lat="14.436029033112389" lon="121.04553204681118"><ele>11.833333333333334</ele><time>2026-04-14T04:27:05Z</time></trkpt><trkpt lat="14.435950121473859" lon="121.04553236122197"><ele>12.0</ele><time>2026-04-14T04:27:06Z</time></trkpt><trkpt lat="14.435869327000947" lon="121.04553452451695"><ele>12.0</ele><time>2026-04-14T04:27:07Z</time></trkpt><trkpt lat="14.435787857053743" lon="121.045536833647"><ele>12.0</ele><time>2026-04-14T04:27:08Z</time></trkpt><trkpt lat="14.435715418002832" lon="121.04553763790821"><ele>12.0</ele><time>2026-04-14T04:27:09Z</time></trkpt><trkpt lat="14.435646856769766" lon="121.04553708629899"><ele>12.0</ele><time>2026-04-14T04:27:10Z</time></trkpt><trkpt lat="14.435573578320481" lon="121.04553909714701"><ele>12.0</ele><time>2026-04-14T04:27:11Z</time></trkpt><trkpt lat="14.43549066127053" lon="121.04553904232236"><ele>12.0</ele><time>2026-04-14T04:27:12Z</time></trkpt><trkpt lat="14.435400955243743" lon="121.04553645917565"><ele>11.6</ele><time>2026-04-14T04:27:13Z</time></trkpt><trkpt lat="14.435306772556547" lon="121.04553496067597"><ele>11.2</ele><time>2026-04-14T04:27:14Z</time></trkpt><trkpt lat="14.435215021556514" lon="121.0455346663719"><ele>10.8</ele><time>2026-04-14T04:27:15Z</time></trkpt><trkpt lat="14.435124045136883" lon="121.04554060564766"><ele>10.4</ele><time>2026-04-14T04:27:16Z</time></trkpt><trkpt lat="14.435018643483767" lon="121.04553695067638"><ele>10.0</ele><time>2026-04-14T04:27:17Z</time></trkpt><trkpt lat="14.43492777196163" lon="121.04554006883329"><ele>10.0</ele><time>2026-04-14T04:27:18Z</time></trkpt><trkpt lat="14.434836214065554" lon="121.0455401963405"><ele>10.0</ele><time>2026-04-14T04:27:19Z</time></trkpt><trkpt lat="14.434737654956136" lon="121.04554436576683"><ele>10.0</ele><time>2026-04-14T04:27:20Z</time></trkpt><trkpt lat="14.434619749879149" lon="121.04554938034642"><ele>10.0</ele><time>2026-04-14T04:27:21Z</time></trkpt><trkpt lat="14.434495755311541" lon="121.04555449122729"><ele>10.0</ele><time>2026-04-14T04:27:22Z</time></trkpt><trkpt lat="14.4343655034278" lon="121.0455491539129"><ele>9.75</ele><time>2026-04-14T04:27:23Z</time></trkpt><trkpt lat="14.43422520222955" lon="121.04554598408086"><ele>9.5</ele><time>2026-04-14T04:27:24Z</time></trkpt><trkpt lat="14.434083835623893" lon="121.04554296607598"><ele>9.25</ele><time>2026-04-14T04:27:25Z</time></trkpt><trkpt lat="14.43395044508002" lon="121.04553737287331"><ele>9.0</ele><time>2026-04-14T04:27:26Z</time></trkpt><trkpt lat="14.433832737444972" lon="121.0455387050528"><ele>9.4</ele><time>2026-04-14T04:27:27Z</time></trkpt><trkpt lat="14.433721820614242" lon="121.04553915266997"><ele>9.8</ele><time>2026-04-14T04:27:28Z</time></trkpt><trkpt lat="14.433617089331534" lon="121.04553772503796"><ele>10.200000000000001</ele><time>2026-04-14T04:27:29Z</time></trkpt><trkpt lat="14.433519872716005" lon="121.04553919717314"><ele>10.600000000000001</ele><time>2026-04-14T04:27:30Z</time></trkpt><trkpt lat="14.433418215162082" lon="121.04553616575846"><ele>11.0</ele><time>2026-04-14T04:27:31Z</time></trkpt><trkpt lat="14.433328161522132" lon="121.04554475075763"><ele>11.0</ele><time>2026-04-14T04:27:32Z</time></trkpt><trkpt lat="14.433244211745395" lon="121.0455460084675"><ele>11.0</ele><time>2026-04-14T04:27:33Z</time></trkpt><trkpt lat="14.433162601387545" lon="121.04554644230028"><ele>11.0</ele><time>2026-04-14T04:27:34Z</time></trkpt><trkpt lat="14.433071671911993" lon="121.04554615901583"><ele>11.0</ele><time>2026-04-14T04:27:35Z</time></trkpt><trkpt lat="14.432977524373499" lon="121.04554905004387"><ele>11.0</ele><time>2026-04-14T04:27:36Z</time></trkpt><trkpt lat="14.432888610778557" lon="121.0455597167251"><ele>11.0</ele><time>2026-04-14T04:27:37Z</time></trkpt><trkpt lat="14.432795950909732" lon="121.04556569351409"><ele>11.25</ele><time>2026-04-14T04:27:38Z</time></trkpt><trkpt lat="14.43269294589516" lon="121.04556857692772"><ele>11.5</ele><time>2026-04-14T04:27:39Z</time></trkpt><trkpt lat="14.432573302063759" lon="121.04556176994873"><ele>11.75</ele><time>2026-04-14T04:27:40Z</time></trkpt><trkpt lat="14.432446226607924" lon="121.04556535474927"><ele>12.0</ele><time>2026-04-14T04:27:41Z</time></trkpt><trkpt lat="14.43232661463635" lon="121.04555529658269"><ele>12.0</ele><time>2026-04-14T04:27:42Z</time></trkpt><trkpt lat="14.432215491067403" lon="121.04555058861916"><ele>12.0</ele><time>2026-04-14T04:27:43Z</time></trkpt><trkpt lat="14.432115773125874" lon="121.04554948045676"><ele>12.0</ele><time>2026-04-14T04:27:44Z</time></trkpt><trkpt lat="14.432022224689419" lon="121.0455535091445"><ele>12.0</ele><time>2026-04-14T04:27:45Z</time></trkpt><trkpt lat="14.431933853826179" lon="121.04555958101693"><ele>12.0</ele><time>2026-04-14T04:27:46Z</time></trkpt><trkpt lat="14.431853405428612" lon="121.04555622193868"><ele>11.833333333333334</ele><time>2026-04-14T04:27:47Z</time></trkpt><trkpt lat="14.431786460773601" lon="121.04555352064182"><ele>11.666666666666666</ele><time>2026-04-14T04:27:48Z</time></trkpt><trkpt lat="14.431703141524721" lon="121.04555504636323"><ele>11.5</ele><time>2026-04-14T04:27:49Z</time></trkpt><trkpt lat="14.431623216397966" lon="121.0455558242146"><ele>11.333333333333332</ele><time>2026-04-14T04:27:50Z</time></trkpt><trkpt lat="14.431556845108624" lon="121.0455577991549"><ele>11.166666666666666</ele><time>2026-04-14T04:27:51Z</time></trkpt><trkpt lat="14.431449307783106" lon="121.04555288714619"><ele>11.0</ele><time>2026-04-14T04:27:53.001Z</time></trkpt><trkpt lat="14.43134607245711" lon="121.04555703868732"><ele>10.833333333333332</ele><time>2026-04-14T04:27:55.001Z</time></trkpt><trkpt lat="14.431237334705553" lon="121.04555566111087"><ele>10.666666666666666</ele><time>2026-04-14T04:27:57.001Z</time></trkpt><trkpt lat="14.431149095751541" lon="121.0455566825715"><ele>10.5</ele><time>2026-04-14T04:27:59.001Z</time></trkpt><trkpt lat="14.431051266835393" lon="121.04555481066882"><ele>10.333333333333334</ele><time>2026-04-14T04:28:01.001Z</time></trkpt><trkpt lat="14.430988085818639" lon="121.04555768044824"><ele>10.166666666666668</ele><time>2026-04-14T04:28:02.001Z</time></trkpt><trkpt lat="14.430910756402849" lon="121.04555815945884"><ele>10.0</ele><time>2026-04-14T04:28:03.001Z</time></trkpt><trkpt lat="14.430843275188632" lon="121.04555910013727"><ele>10.0</ele><time>2026-04-14T04:28:04.001Z</time></trkpt><trkpt lat="14.430762090058163" lon="121.04555424070205"><ele>10.0</ele><time>2026-04-14T04:28:05.001Z</time></trkpt><trkpt lat="14.430695596101543" lon="121.04555881943864"><ele>10.0</ele><time>2026-04-14T04:28:06.001Z</time></trkpt><trkpt lat="14.430620266905274" lon="121.04555898028603"><ele>10.0</ele><time>2026-04-14T04:28:07.001Z</time></trkpt><trkpt lat="14.430546020032798" lon="121.04555778078266"><ele>10.0</ele><time>2026-04-14T04:28:08.001Z</time></trkpt><trkpt lat="14.43047823626329" lon="121.04556023783114"><ele>10.0</ele><time>2026-04-14T04:28:09.001Z</time></trkpt><trkpt lat="14.430413451974829" lon="121.04555933484491"><ele>10.0</ele><time>2026-04-14T04:28:10.001Z</time></trkpt><trkpt lat="14.430342035530247" lon="121.04555480102657"><ele>10.0</ele><time>2026-04-14T04:28:11.001Z</time></trkpt><trkpt lat="14.430270173797961" lon="121.04556130306331"><ele>10.0</ele><time>2026-04-14T04:28:12.001Z</time></trkpt><trkpt lat="14.43019646256977" lon="121.04556238328995"><ele>10.0</ele><time>2026-04-14T04:28:13.001Z</time></trkpt><trkpt lat="14.430132280622022" lon="121.04556177946704"><ele>10.0</ele><time>2026-04-14T04:28:14.001Z</time></trkpt><trkpt lat="14.430066838941778" lon="121.04556318477871"><ele>10.0</ele><time>2026-04-14T04:28:15.001Z</time></trkpt><trkpt lat="14.430001911098364" lon="121.0455644596133"><ele>10.0</ele><time>2026-04-14T04:28:16.001Z</time></trkpt><trkpt lat="14.429930932666815" lon="121.0455637711492"><ele>10.0</ele><time>2026-04-14T04:28:17.001Z</time></trkpt><trkpt lat="14.429847095171269" lon="121.04556681208136"><ele>10.0</ele><time>2026-04-14T04:28:18.001Z</time></trkpt><trkpt lat="14.429760020612575" lon="121.04557167835065"><ele>10.0</ele><time>2026-04-14T04:28:19.001Z</time></trkpt><trkpt lat="14.429657864958347" lon="121.04557316697469"><ele>10.0</ele><time>2026-04-14T04:28:20.001Z</time></trkpt><trkpt lat="14.429557502464354" lon="121.04557560531862"><ele>10.0</ele><time>2026-04-14T04:28:21.001Z</time></trkpt><trkpt lat="14.429461795885135" lon="121.04557498234705"><ele>10.0</ele><time>2026-04-14T04:28:22.001Z</time></trkpt><trkpt lat="14.429374807100958" lon="121.04557371093695"><ele>10.333333333333334</ele><time>2026-04-14T04:28:23.001Z</time></trkpt><trkpt lat="14.429292180593716" lon="121.04557329126868"><ele>10.666666666666668</ele><time>2026-04-14T04:28:24.001Z</time></trkpt><trkpt lat="14.429217813400737" lon="121.04557483513138"><ele>11.0</ele><time>2026-04-14T04:28:25.001Z</time></trkpt><trkpt lat="14.429137762061773" lon="121.0455746782549"><ele>11.333333333333334</ele><time>2026-04-14T04:28:26.001Z</time></trkpt><trkpt lat="14.429065120390446" lon="121.04557260848853"><ele>11.666666666666666</ele><time>2026-04-14T04:28:27.001Z</time></trkpt><trkpt lat="14.428993434702035" lon="121.04557129103775"><ele>12.0</ele><time>2026-04-14T04:28:28.001Z</time></trkpt><trkpt lat="14.42891100143549" lon="121.04557534809658"><ele>12.0</ele><time>2026-04-14T04:28:29.001Z</time></trkpt><trkpt lat="14.428828062963577" lon="121.04557474742204"><ele>12.0</ele><time>2026-04-14T04:28:30.001Z</time></trkpt><trkpt lat="14.428751794288562" lon="121.04557245218966"><ele>12.0</ele><time>2026-04-14T04:28:31.001Z</time></trkpt><trkpt lat="14.428681084176949" lon="121.04557520603461"><ele>12.0</ele><time>2026-04-14T04:28:32.001Z</time></trkpt><trkpt lat="14.428608698064284" lon="121.04557466809521"><ele>12.0</ele><time>2026-04-14T04:28:33.001Z</time></trkpt><trkpt lat="14.428541543519124" lon="121.04557542479864"><ele>12.0</ele><time>2026-04-14T04:28:34.001Z</time></trkpt><trkpt lat="14.428434133520529" lon="121.04557350954967"><ele>12.0</ele><time>2026-04-14T04:28:36.001Z</time></trkpt><trkpt lat="14.428332426475405" lon="121.04557377751875"><ele>12.0</ele><time>2026-04-14T04:28:38.001Z</time></trkpt><trkpt lat="14.42826108541433" lon="121.04557841430363"><ele>12.0</ele><time>2026-04-14T04:28:40.001Z</time></trkpt><trkpt lat="14.428190018218165" lon="121.04557768318189"><ele>12.0</ele><time>2026-04-14T04:28:42.001Z</time></trkpt><trkpt lat="14.428106272338137" lon="121.04558129192353"><ele>12.0</ele><time>2026-04-14T04:28:44.001Z</time></trkpt><trkpt lat="14.428026613666642" lon="121.04558501652316"><ele>12.0</ele><time>2026-04-14T04:28:46.001Z</time></trkpt><trkpt lat="14.427943110748611" lon="121.04558806898574"><ele>11.8</ele><time>2026-04-14T04:28:48.001Z</time></trkpt><trkpt lat="14.427868612580681" lon="121.04558996466169"><ele>11.6</ele><time>2026-04-14T04:28:50Z</time></trkpt><trkpt lat="14.427783511570661" lon="121.0455901706686"><ele>11.4</ele><time>2026-04-14T04:28:52Z</time></trkpt><trkpt lat="14.427698747190604" lon="121.04559516226718"><ele>11.200000000000001</ele><time>2026-04-14T04:28:54Z</time></trkpt><trkpt lat="14.42759825810098" lon="121.0455935442998"><ele>11.0</ele><time>2026-04-14T04:28:56Z</time></trkpt><trkpt lat="14.427485594745349" lon="121.04559522101131"><ele>11.0</ele><time>2026-04-14T04:28:58Z</time></trkpt><trkpt lat="14.427373375968747" lon="121.04559916124896"><ele>11.0</ele><time>2026-04-14T04:29:00Z</time></trkpt><trkpt lat="14.42729716322124" lon="121.04560279667042"><ele>11.0</ele><time>2026-04-14T04:29:01Z</time></trkpt><trkpt lat="14.427206573205552" lon="121.04560631983574"><ele>11.0</ele><time>2026-04-14T04:29:02Z</time></trkpt><trkpt lat="14.427104947339396" lon="121.04560817208683"><ele>11.0</ele><time>2026-04-14T04:29:03Z</time></trkpt><trkpt lat="14.426994495647927" lon="121.04561027654134"><ele>11.5</ele><time>2026-04-14T04:29:04Z</time></trkpt><trkpt lat="14.426877090782522" lon="121.04560870297814"><ele>12.0</ele><time>2026-04-14T04:29:05Z</time></trkpt><trkpt lat="14.42675115102793" lon="121.04560584387146"><ele>12.5</ele><time>2026-04-14T04:29:06Z</time></trkpt><trkpt lat="14.426614165338796" lon="121.0456030383964"><ele>13.0</ele><time>2026-04-14T04:29:07Z</time></trkpt><trkpt lat="14.426475094166783" lon="121.04560668255893"><ele>13.0</ele><time>2026-04-14T04:29:08Z</time></trkpt><trkpt lat="14.426339661730673" lon="121.04559825541484"><ele>13.0</ele><time>2026-04-14T04:29:09Z</time></trkpt><trkpt lat="14.426218601294206" lon="121.04559680126121"><ele>13.0</ele><time>2026-04-14T04:29:10Z</time></trkpt><trkpt lat="14.426104970459983" lon="121.04559555448573"><ele>13.0</ele><time>2026-04-14T04:29:11Z</time></trkpt><trkpt lat="14.425990634818834" lon="121.04559637865457"><ele>13.2</ele><time>2026-04-14T04:29:12Z</time></trkpt><trkpt lat="14.42588557427379" lon="121.04559362880671"><ele>13.4</ele><time>2026-04-14T04:29:13Z</time></trkpt><trkpt lat="14.425787129802973" lon="121.04559852782577"><ele>13.599999999999998</ele><time>2026-04-14T04:29:14Z</time></trkpt><trkpt lat="14.425682318711232" lon="121.04560011635958"><ele>13.799999999999999</ele><time>2026-04-14T04:29:15Z</time></trkpt><trkpt lat="14.425589429956409" lon="121.04559908573503"><ele>14.0</ele><time>2026-04-14T04:29:16Z</time></trkpt><trkpt lat="14.42549550322914" lon="121.04560157030696"><ele>13.799999999999999</ele><time>2026-04-14T04:29:17Z</time></trkpt><trkpt lat="14.425393627961629" lon="121.04559970728748"><ele>13.599999999999998</ele><time>2026-04-14T04:29:18Z</time></trkpt><trkpt lat="14.425289617738656" lon="121.04560780045112"><ele>13.4</ele><time>2026-04-14T04:29:19Z</time></trkpt><trkpt lat="14.425179254284371" lon="121.04560663850852"><ele>13.2</ele><time>2026-04-14T04:29:20Z</time></trkpt><trkpt lat="14.425082776208393" lon="121.04560044393473"><ele>13.0</ele><time>2026-04-14T04:29:21Z</time></trkpt><trkpt lat="14.42499505625264" lon="121.04560053690899"><ele>12.999999999999998</ele><time>2026-04-14T04:29:22Z</time></trkpt><trkpt lat="14.424899879736623" lon="121.04559913853807"><ele>13.0</ele><time>2026-04-14T04:29:23Z</time></trkpt><trkpt lat="14.42482087836852" lon="121.0455975805682"><ele>13.0</ele><time>2026-04-14T04:29:24Z</time></trkpt><trkpt lat="14.42473975852355" lon="121.04559827603126"><ele>13.0</ele><time>2026-04-14T04:29:25Z</time></trkpt><trkpt lat="14.424669649418322" lon="121.04559954172633"><ele>12.999999999999998</ele><time>2026-04-14T04:29:26Z</time></trkpt><trkpt lat="14.4245484283162" lon="121.0455949694871"><ele>13.0</ele><time>2026-04-14T04:29:28Z</time></trkpt><trkpt lat="14.424435657493515" lon="121.04559538807148"><ele>13.8</ele><time>2026-04-14T04:29:30Z</time></trkpt><trkpt lat="14.424327820559041" lon="121.04559635614942"><ele>14.600000000000001</ele><time>2026-04-14T04:29:32Z</time></trkpt><trkpt lat="14.424224437364193" lon="121.04559552773604"><ele>15.399999999999999</ele><time>2026-04-14T04:29:34Z</time></trkpt><trkpt lat="14.424135072840441" lon="121.0455956651867"><ele>16.2</ele><time>2026-04-14T04:29:36Z</time></trkpt><trkpt lat="14.424033850252844" lon="121.04559700903748"><ele>17.0</ele><time>2026-04-14T04:29:38Z</time></trkpt><trkpt lat="14.423922870693074" lon="121.04559605645049"><ele>16.333333333333336</ele><time>2026-04-14T04:29:40Z</time></trkpt><trkpt lat="14.423799662906418" lon="121.04559803353592"><ele>15.666666666666668</ele><time>2026-04-14T04:29:42Z</time></trkpt><trkpt lat="14.423736581890598" lon="121.04559787336905"><ele>15.0</ele><time>2026-04-14T04:29:43Z</time></trkpt><trkpt lat="14.423667829330574" lon="121.0455968585359"><ele>14.333333333333332</ele><time>2026-04-14T04:29:44Z</time></trkpt><trkpt lat="14.423596329840716" lon="121.04560097369375"><ele>13.666666666666666</ele><time>2026-04-14T04:29:45Z</time></trkpt><trkpt lat="14.423518679343815" lon="121.04560679672659"><ele>13.0</ele><time>2026-04-14T04:29:46Z</time></trkpt><trkpt lat="14.42343849662596" lon="121.04560901810305"><ele>12.999999999999998</ele><time>2026-04-14T04:29:47Z</time></trkpt><trkpt lat="14.423361904060336" lon="121.04560870173285"><ele>13.0</ele><time>2026-04-14T04:29:48Z</time></trkpt><trkpt lat="14.423291568635921" lon="121.04561464258231"><ele>13.0</ele><time>2026-04-14T04:29:49Z</time></trkpt><trkpt lat="14.423216496341082" lon="121.04562594596966"><ele>13.0</ele><time>2026-04-14T04:29:50Z</time></trkpt><trkpt lat="14.423143103352603" lon="121.04563759682127"><ele>12.999999999999998</ele><time>2026-04-14T04:29:51Z</time></trkpt><trkpt lat="14.42307911960765" lon="121.0456551738146"><ele>13.0</ele><time>2026-04-14T04:29:52Z</time></trkpt><trkpt lat="14.422957734585635" lon="121.04568193249723"><ele>12.571428571428571</ele><time>2026-04-14T04:29:54Z</time></trkpt><trkpt lat="14.422893696848217" lon="121.04569963020217"><ele>12.142857142857144</ele><time>2026-04-14T04:29:55Z</time></trkpt><trkpt lat="14.422825552952697" lon="121.0457130308598"><ele>11.714285714285715</ele><time>2026-04-14T04:29:56Z</time></trkpt><trkpt lat="14.422752834792686" lon="121.04572623820054"><ele>11.285714285714285</ele><time>2026-04-14T04:29:57.001Z</time></trkpt><trkpt lat="14.422674322213478" lon="121.04573875800082"><ele>10.857142857142858</ele><time>2026-04-14T04:29:58.001Z</time></trkpt><trkpt lat="14.422595623454804" lon="121.04574399074542"><ele>10.428571428571429</ele><time>2026-04-14T04:29:59.001Z</time></trkpt><trkpt lat="14.422517284026506" lon="121.04574739027302"><ele>10.0</ele><time>2026-04-14T04:30:00.001Z</time></trkpt><trkpt lat="14.422441078431723" lon="121.04575146716012"><ele>10.0</ele><time>2026-04-14T04:30:01.001Z</time></trkpt><trkpt lat="14.422360506723189" lon="121.04574896017486"><ele>10.0</ele><time>2026-04-14T04:30:02.001Z</time></trkpt><trkpt lat="14.422286844972508" lon="121.0457488946123"><ele>10.0</ele><time>2026-04-14T04:30:03.001Z</time></trkpt><trkpt lat="14.422220106072071" lon="121.04574577230247"><ele>10.0</ele><time>2026-04-14T04:30:04.001Z</time></trkpt><trkpt lat="14.422105931484085" lon="121.0457481029448"><ele>10.0</ele><time>2026-04-14T04:30:06.001Z</time></trkpt><trkpt lat="14.422005652047734" lon="121.04574684090383"><ele>10.0</ele><time>2026-04-14T04:30:08.001Z</time></trkpt><trkpt lat="14.421925032131828" lon="121.04574152890653"><ele>10.0</ele><time>2026-04-14T04:30:10.001Z</time></trkpt><trkpt lat="14.421822808842718" lon="121.04573378587553"><ele>10.0</ele><time>2026-04-14T04:30:12.001Z</time></trkpt><trkpt lat="14.421698172867698" lon="121.04571298667393"><ele>10.0</ele><time>2026-04-14T04:30:14.001Z</time></trkpt><trkpt lat="14.421582038911449" lon="121.04569689556001"><ele>10.0</ele><time>2026-04-14T04:30:16.001Z</time></trkpt><trkpt lat="14.421456211683896" lon="121.0456865517532"><ele>10.0</ele><time>2026-04-14T04:30:18.001Z</time></trkpt><trkpt lat="14.421391819831928" lon="121.04568474575979"><ele>10.0</ele><time>2026-04-14T04:30:19.001Z</time></trkpt><trkpt lat="14.421328766909836" lon="121.04568567840779"><ele>10.0</ele><time>2026-04-14T04:30:20.001Z</time></trkpt><trkpt lat="14.421263186391325" lon="121.0456837982356"><ele>10.0</ele><time>2026-04-14T04:30:21.001Z</time></trkpt><trkpt lat="14.421188894386585" lon="121.04568711197163"><ele>10.0</ele><time>2026-04-14T04:30:22.001Z</time></trkpt><trkpt lat="14.421105956290056" lon="121.04568793394424"><ele>10.0</ele><time>2026-04-14T04:30:23.001Z</time></trkpt><trkpt lat="14.421017528495588" lon="121.04568505187484"><ele>10.0</ele><time>2026-04-14T04:30:24.001Z</time></trkpt><trkpt lat="14.420932506994063" lon="121.0456820519536"><ele>10.833333333333334</ele><time>2026-04-14T04:30:25.001Z</time></trkpt><trkpt lat="14.420854734289128" lon="121.04567696231949"><ele>11.666666666666668</ele><time>2026-04-14T04:30:26.001Z</time></trkpt><trkpt lat="14.420770371486183" lon="121.04566532115294"><ele>12.5</ele><time>2026-04-14T04:30:27.001Z</time></trkpt><trkpt lat="14.420685611402458" lon="121.04565311377833"><ele>13.333333333333334</ele><time>2026-04-14T04:30:28.001Z</time></trkpt><trkpt lat="14.420607857838016" lon="121.04564610264462"><ele>14.166666666666666</ele><time>2026-04-14T04:30:29.001Z</time></trkpt><trkpt lat="14.420540417971505" lon="121.04562447852118"><ele>15.0</ele><time>2026-04-14T04:30:30.001Z</time></trkpt><trkpt lat="14.420475128626245" lon="121.04562236411091"><ele>15.0</ele><time>2026-04-14T04:30:31.001Z</time></trkpt><trkpt lat="14.420533946878273" lon="121.04533970559456"><ele>15.0</ele><time>2026-04-14T04:30:33.001Z</time></trkpt><trkpt lat="14.42043457289177" lon="121.04527244975965"><ele>15.0</ele><time>2026-04-14T04:30:35.001Z</time></trkpt><trkpt lat="14.420379684498581" lon="121.04523559895891"><ele>15.666666666666668</ele><time>2026-04-14T04:30:36.001Z</time></trkpt><trkpt lat="14.420192836414794" lon="121.04538914837897"><ele>16.333333333333336</ele><time>2026-04-14T04:30:37.001Z</time></trkpt><trkpt lat="14.420080086095584" lon="121.04535985608985"><ele>17.0</ele><time>2026-04-14T04:30:39.001Z</time></trkpt><trkpt lat="14.419973531628289" lon="121.0453273861057"><ele>17.0</ele><time>2026-04-14T04:30:41.001Z</time></trkpt><trkpt lat="14.419902232407406" lon="121.04532052572485"><ele>17.0</ele><time>2026-04-14T04:30:42.001Z</time></trkpt><trkpt lat="14.419824388602114" lon="121.04531880940945"><ele>17.0</ele><time>2026-04-14T04:30:43.001Z</time></trkpt><trkpt lat="14.419740683866124" lon="121.04532134056903"><ele>17.0</ele><time>2026-04-14T04:30:44.001Z</time></trkpt><trkpt lat="14.419668037902124" lon="121.04532905268694"><ele>17.0</ele><time>2026-04-14T04:30:45.001Z</time></trkpt><trkpt lat="14.419599588950176" lon="121.0453239786722"><ele>17.0</ele><time>2026-04-14T04:30:46.001Z</time></trkpt><trkpt lat="14.419488172358191" lon="121.04530811748091"><ele>17.2</ele><time>2026-04-14T04:30:48.001Z</time></trkpt><trkpt lat="14.419416358496886" lon="121.04528977862661"><ele>17.4</ele><time>2026-04-14T04:30:50.001Z</time></trkpt><trkpt lat="14.419323651835063" lon="121.04522852998981"><ele>17.6</ele><time>2026-04-14T04:30:52.001Z</time></trkpt><trkpt lat="14.419266942611232" lon="121.04513813285219"><ele>17.8</ele><time>2026-04-14T04:30:54.001Z</time></trkpt><trkpt lat="14.419225977070976" lon="121.04501645917675"><ele>18.0</ele><time>2026-04-14T04:30:56Z</time></trkpt><trkpt lat="14.419226778113536" lon="121.04494004590596"><ele>17.4</ele><time>2026-04-14T04:30:57Z</time></trkpt><trkpt lat="14.419215089442277" lon="121.04486667169989"><ele>16.8</ele><time>2026-04-14T04:30:58Z</time></trkpt><trkpt lat="14.419209461506465" lon="121.04474835864374"><ele>16.2</ele><time>2026-04-14T04:31:00Z</time></trkpt><trkpt lat="14.419213629698358" lon="121.0446334293857"><ele>15.6</ele><time>2026-04-14T04:31:02Z</time></trkpt><trkpt lat="14.419214922881768" lon="121.04451297002011"><ele>15.0</ele><time>2026-04-14T04:31:04Z</time></trkpt><trkpt lat="14.419216138029437" lon="121.04440016784392"><ele>15.0</ele><time>2026-04-14T04:31:06Z</time></trkpt><trkpt lat="14.41921499646505" lon="121.04431686007293"><ele>15.0</ele><time>2026-04-14T04:31:08Z</time></trkpt><trkpt lat="14.4192128359226" lon="121.04424899371703"><ele>15.0</ele><time>2026-04-14T04:31:09Z</time></trkpt><trkpt lat="14.419209844395013" lon="121.04417809211616"><ele>15.0</ele><time>2026-04-14T04:31:10Z</time></trkpt><trkpt lat="14.419212832021245" lon="121.04409688348144"><ele>15.0</ele><time>2026-04-14T04:31:12Z</time></trkpt><trkpt lat="14.419220976562489" lon="121.04401376896178"><ele>15.0</ele><time>2026-04-14T04:31:14Z</time></trkpt><trkpt lat="14.41926535485247" lon="121.04392446860663"><ele>15.0</ele><time>2026-04-14T04:31:16Z</time></trkpt><trkpt lat="14.41931236390274" lon="121.04387017325455"><ele>15.0</ele><time>2026-04-14T04:31:17Z</time></trkpt><trkpt lat="14.419368423681608" lon="121.0438191027618"><ele>15.0</ele><time>2026-04-14T04:31:18Z</time></trkpt><trkpt lat="14.419454724478683" lon="121.04375735228558"><ele>15.0</ele><time>2026-04-14T04:31:20Z</time></trkpt><trkpt lat="14.419499667143322" lon="121.04370958655102"><ele>15.0</ele><time>2026-04-14T04:31:22Z</time></trkpt><trkpt lat="14.419547576103636" lon="121.04366682951724"><ele>15.0</ele><time>2026-04-14T04:31:26Z</time></trkpt><trkpt lat="14.419596947570977" lon="121.04361102978054"><ele>15.0</ele><time>2026-04-14T04:32:07.001Z</time></trkpt><trkpt lat="14.41965003005759" lon="121.04353755570246"><ele>15.0</ele><time>2026-04-14T04:32:09.001Z</time></trkpt><trkpt lat="14.419724725506946" lon="121.0434622899456"><ele>15.0</ele><time>2026-04-14T04:32:11.001Z</time></trkpt><trkpt lat="14.419772165553276" lon="121.04341770058338"><ele>15.0</ele><time>2026-04-14T04:32:12.001Z</time></trkpt><trkpt lat="14.419820734109301" lon="121.04333230711667"><ele>15.0</ele><time>2026-04-14T04:32:16.001Z</time></trkpt><trkpt lat="14.419886086984523" lon="121.043250735592"><ele>15.333333333333334</ele><time>2026-04-14T04:32:18.001Z</time></trkpt><trkpt lat="14.419926057627379" lon="121.04319958915583"><ele>15.666666666666668</ele><time>2026-04-14T04:32:19.001Z</time></trkpt><trkpt lat="14.419978260317958" lon="121.04314627071336"><ele>16.0</ele><time>2026-04-14T04:32:20.001Z</time></trkpt><trkpt lat="14.420024972152468" lon="121.04307454695342"><ele>16.333333333333336</ele><time>2026-04-14T04:32:21.001Z</time></trkpt><trkpt lat="14.420083556875792" lon="121.04300719088197"><ele>16.666666666666668</ele><time>2026-04-14T04:32:22.001Z</time></trkpt><trkpt lat="14.420140470412017" lon="121.04292462432554"><ele>17.0</ele><time>2026-04-14T04:32:23.001Z</time></trkpt><trkpt lat="14.420190928523231" lon="121.04285984194354"><ele>17.0</ele><time>2026-04-14T04:32:24.001Z</time></trkpt><trkpt lat="14.420242881567662" lon="121.04278969681206"><ele>17.0</ele><time>2026-04-14T04:32:25.001Z</time></trkpt><trkpt lat="14.420295617440246" lon="121.04272004806731"><ele>17.0</ele><time>2026-04-14T04:32:26.001Z</time></trkpt><trkpt lat="14.420345012259002" lon="121.0426542088951"><ele>17.0</ele><time>2026-04-14T04:32:27.001Z</time></trkpt><trkpt lat="14.420401671914254" lon="121.04257654876487"><ele>17.0</ele><time>2026-04-14T04:32:28.001Z</time></trkpt><trkpt lat="14.420453308018802" lon="121.04250684216649"><ele>17.0</ele><time>2026-04-14T04:32:29.001Z</time></trkpt><trkpt lat="14.42049833619268" lon="121.04245252160717"><ele>17.5</ele><time>2026-04-14T04:32:30.001Z</time></trkpt><trkpt lat="14.420549747078612" lon="121.04236812099444"><ele>18.0</ele><time>2026-04-14T04:32:32.001Z</time></trkpt><trkpt lat="14.420580422603837" lon="121.0422442868009"><ele>18.5</ele><time>2026-04-14T04:32:34.001Z</time></trkpt><trkpt lat="14.42048144857437" lon="121.04208010658765"><ele>19.0</ele><time>2026-04-14T04:32:37.001Z</time></trkpt><trkpt lat="14.420421963236047" lon="121.04203772538546"><ele>19.5</ele><time>2026-04-14T04:32:38.001Z</time></trkpt><trkpt lat="14.42035208333095" lon="121.0419867547405"><ele>20.0</ele><time>2026-04-14T04:32:39.001Z</time></trkpt><trkpt lat="14.420270091816324" lon="121.04192919872291"><ele>20.5</ele><time>2026-04-14T04:32:40.001Z</time></trkpt><trkpt lat="14.420215928973988" lon="121.04186980211445"><ele>21.0</ele><time>2026-04-14T04:32:41.001Z</time></trkpt><trkpt lat="14.42016120848375" lon="121.04180699908817"><ele>21.5</ele><time>2026-04-14T04:32:42.001Z</time></trkpt><trkpt lat="14.420102373766442" lon="121.0417372190808"><ele>22.0</ele><time>2026-04-14T04:32:43.001Z</time></trkpt><trkpt lat="14.420047427391868" lon="121.04166152927148"><ele>21.200000000000003</ele><time>2026-04-14T04:32:44.001Z</time></trkpt><trkpt lat="14.420000121273166" lon="121.04157387289413"><ele>20.400000000000002</ele><time>2026-04-14T04:32:45.001Z</time></trkpt><trkpt lat="14.419945446386379" lon="121.0415030265741"><ele>19.6</ele><time>2026-04-14T04:32:46.001Z</time></trkpt><trkpt lat="14.41990238874352" lon="121.04141764272251"><ele>18.8</ele><time>2026-04-14T04:32:47.001Z</time></trkpt><trkpt lat="14.419859824593523" lon="121.04131620949684"><ele>18.0</ele><time>2026-04-14T04:32:48.001Z</time></trkpt><trkpt lat="14.419824072996063" lon="121.04121894725579"><ele>18.0</ele><time>2026-04-14T04:32:49.001Z</time></trkpt><trkpt lat="14.419790668255413" lon="121.04111229414538"><ele>18.0</ele><time>2026-04-14T04:32:50.001Z</time></trkpt><trkpt lat="14.419759365813087" lon="121.04100621344742"><ele>18.0</ele><time>2026-04-14T04:32:51.001Z</time></trkpt><trkpt lat="14.419733162969157" lon="121.04089726495383"><ele>18.0</ele><time>2026-04-14T04:32:52.001Z</time></trkpt><trkpt lat="14.4197110655831" lon="121.04078890631844"><ele>18.0</ele><time>2026-04-14T04:32:53.001Z</time></trkpt><trkpt lat="14.419688564319415" lon="121.04067315353697"><ele>19.4</ele><time>2026-04-14T04:32:54.001Z</time></trkpt><trkpt lat="14.419671769589144" lon="121.04056397659467"><ele>20.8</ele><time>2026-04-14T04:32:55.001Z</time></trkpt><trkpt lat="14.419657340337022" lon="121.04045784631943"><ele>22.2</ele><time>2026-04-14T04:32:56.001Z</time></trkpt><trkpt lat="14.419638848202084" lon="121.04037584490258"><ele>23.6</ele><time>2026-04-14T04:32:57.001Z</time></trkpt><trkpt lat="14.419629010459047" lon="121.04029404575482"><ele>25.0</ele><time>2026-04-14T04:32:58.001Z</time></trkpt><trkpt lat="14.419613795731026" lon="121.040196709207"><ele>25.0</ele><time>2026-04-14T04:33:00.001Z</time></trkpt><trkpt lat="14.419600819725048" lon="121.0401077268605"><ele>25.0</ele><time>2026-04-14T04:33:02Z</time></trkpt><trkpt lat="14.419563254333156" lon="121.04003461519672"><ele>25.0</ele><time>2026-04-14T04:33:59.001Z</time></trkpt><trkpt lat="14.419524377265263" lon="121.0399370015047"><ele>25.0</ele><time>2026-04-14T04:34:01.001Z</time></trkpt><trkpt lat="14.41948013791385" lon="121.03981629406712"><ele>25.0</ele><time>2026-04-14T04:34:03.001Z</time></trkpt><trkpt lat="14.419442947738565" lon="121.03972770539073"><ele>24.8</ele><time>2026-04-14T04:34:04.001Z</time></trkpt><trkpt lat="14.419410893534767" lon="121.03964200369182"><ele>24.6</ele><time>2026-04-14T04:34:05.001Z</time></trkpt><trkpt lat="14.419368363285148" lon="121.03955754353967"><ele>24.4</ele><time>2026-04-14T04:34:06.001Z</time></trkpt><trkpt lat="14.419323232885317" lon="121.0394725883055"><ele>24.2</ele><time>2026-04-14T04:34:07.001Z</time></trkpt><trkpt lat="14.419274485296999" lon="121.03938905217416"><ele>24.0</ele><time>2026-04-14T04:34:08.001Z</time></trkpt><trkpt lat="14.419211580311346" lon="121.03929361485018"><ele>24.0</ele><time>2026-04-14T04:34:09.001Z</time></trkpt><trkpt lat="14.419156841242946" lon="121.03921064883833"><ele>24.0</ele><time>2026-04-14T04:34:10.001Z</time></trkpt><trkpt lat="14.41910179187779" lon="121.03912964415203"><ele>24.0</ele><time>2026-04-14T04:34:11.001Z</time></trkpt><trkpt lat="14.419047624620484" lon="121.03905170604817"><ele>24.0</ele><time>2026-04-14T04:34:12.001Z</time></trkpt><trkpt lat="14.418988956982153" lon="121.03897393405241"><ele>24.0</ele><time>2026-04-14T04:34:13.001Z</time></trkpt><trkpt lat="14.41893284894842" lon="121.03890493105433"><ele>25.2</ele><time>2026-04-14T04:34:14.001Z</time></trkpt><trkpt lat="14.418870855862544" lon="121.0388361023568"><ele>26.4</ele><time>2026-04-14T04:34:15.001Z</time></trkpt><trkpt lat="14.418806397540026" lon="121.03876018039833"><ele>27.6</ele><time>2026-04-14T04:34:16.001Z</time></trkpt><trkpt lat="14.418754456454064" lon="121.03869636846994"><ele>28.8</ele><time>2026-04-14T04:34:17.001Z</time></trkpt><trkpt lat="14.418702907719362" lon="121.03863091491777"><ele>30.0</ele><time>2026-04-14T04:34:18.001Z</time></trkpt><trkpt lat="14.418611166185537" lon="121.0385681079586"><ele>30.0</ele><time>2026-04-14T04:34:20.001Z</time></trkpt><trkpt lat="14.41859286625403" lon="121.03849863890916"><ele>30.0</ele><time>2026-04-14T04:34:21.001Z</time></trkpt><trkpt lat="14.418566215577147" lon="121.03838037877094"><ele>30.0</ele><time>2026-04-14T04:34:23.001Z</time></trkpt><trkpt lat="14.418580692868373" lon="121.03829093079374"><ele>30.0</ele><time>2026-04-14T04:34:24.001Z</time></trkpt><trkpt lat="14.418619905882467" lon="121.03819195184788"><ele>30.0</ele><time>2026-04-14T04:34:25.001Z</time></trkpt><trkpt lat="14.41867158257912" lon="121.03809757682009"><ele>28.75</ele><time>2026-04-14T04:34:26.001Z</time></trkpt><trkpt lat="14.418725602107827" lon="121.03799188061768"><ele>27.5</ele><time>2026-04-14T04:34:27.001Z</time></trkpt><trkpt lat="14.418775732080869" lon="121.03788228630874"><ele>26.25</ele><time>2026-04-14T04:34:28.001Z</time></trkpt><trkpt lat="14.41883519993673" lon="121.03777810920161"><ele>25.0</ele><time>2026-04-14T04:34:29.001Z</time></trkpt><trkpt lat="14.418893647546515" lon="121.0376704991118"><ele>25.2</ele><time>2026-04-14T04:34:30.001Z</time></trkpt><trkpt lat="14.418951780266005" lon="121.03756267564376"><ele>25.4</ele><time>2026-04-14T04:34:31.001Z</time></trkpt><trkpt lat="14.419007999412742" lon="121.03746738709206"><ele>25.6</ele><time>2026-04-14T04:34:32.001Z</time></trkpt><trkpt lat="14.41906379890975" lon="121.03735471448654"><ele>25.8</ele><time>2026-04-14T04:34:33.001Z</time></trkpt><trkpt lat="14.419111117960433" lon="121.03726617314729"><ele>26.0</ele><time>2026-04-14T04:34:34.001Z</time></trkpt><trkpt lat="14.41915497066923" lon="121.03719078217289"><ele>25.999999999999996</ele><time>2026-04-14T04:34:35.001Z</time></trkpt><trkpt lat="14.419197178478896" lon="121.03710940124404"><ele>26.0</ele><time>2026-04-14T04:34:36.001Z</time></trkpt><trkpt lat="14.419232376988978" lon="121.03704279473806"><ele>26.0</ele><time>2026-04-14T04:34:37.001Z</time></trkpt><trkpt lat="14.419263999585297" lon="121.0369858847349"><ele>26.0</ele><time>2026-04-14T04:34:38.001Z</time></trkpt><trkpt lat="14.41931130174881" lon="121.03689286226006"><ele>25.999999999999996</ele><time>2026-04-14T04:34:40.001Z</time></trkpt><trkpt lat="14.419349692357573" lon="121.036822903576"><ele>26.0</ele><time>2026-04-14T04:34:42.001Z</time></trkpt><trkpt lat="14.4193884720047" lon="121.03676431119214"><ele>26.0</ele><time>2026-04-14T04:35:48.001Z</time></trkpt><trkpt lat="14.41945303367175" lon="121.03665616515339"><ele>26.0</ele><time>2026-04-14T04:35:50.001Z</time></trkpt><trkpt lat="14.419496463947427" lon="121.03658203731413"><ele>26.0</ele><time>2026-04-14T04:35:51.001Z</time></trkpt><trkpt lat="14.419545934595657" lon="121.03649616239848"><ele>26.0</ele><time>2026-04-14T04:35:52.001Z</time></trkpt><trkpt lat="14.419596412033178" lon="121.03640156511774"><ele>26.0</ele><time>2026-04-14T04:35:53.001Z</time></trkpt><trkpt lat="14.419660201891734" lon="121.03629110218958"><ele>25.5</ele><time>2026-04-14T04:35:54.001Z</time></trkpt><trkpt lat="14.419724786054745" lon="121.03617995433605"><ele>25.0</ele><time>2026-04-14T04:35:55.001Z</time></trkpt><trkpt lat="14.419790366863172" lon="121.03606344917601"><ele>24.5</ele><time>2026-04-14T04:35:56.001Z</time></trkpt><trkpt lat="14.419849669942618" lon="121.0359569615898"><ele>24.0</ele><time>2026-04-14T04:35:57.001Z</time></trkpt><trkpt lat="14.419905008712206" lon="121.03585887448324"><ele>24.2</ele><time>2026-04-14T04:35:58.001Z</time></trkpt><trkpt lat="14.41995859718175" lon="121.03575518577263"><ele>24.4</ele><time>2026-04-14T04:35:59.001Z</time></trkpt><trkpt lat="14.420006431596551" lon="121.0356678478915"><ele>24.6</ele><time>2026-04-14T04:36:00.001Z</time></trkpt><trkpt lat="14.420054956429869" lon="121.0355794837801"><ele>24.8</ele><time>2026-04-14T04:36:01.001Z</time></trkpt><trkpt lat="14.420097922433557" lon="121.03549649444948"><ele>25.0</ele><time>2026-04-14T04:36:02.001Z</time></trkpt><trkpt lat="14.42013217768691" lon="121.0354270571585"><ele>25.0</ele><time>2026-04-14T04:36:03.001Z</time></trkpt><trkpt lat="14.420167084333894" lon="121.03535312104476"><ele>25.0</ele><time>2026-04-14T04:36:04.001Z</time></trkpt><trkpt lat="14.420218043611369" lon="121.03525890636833"><ele>25.0</ele><time>2026-04-14T04:36:06.001Z</time></trkpt><trkpt lat="14.42025036260011" lon="121.03520173080967"><ele>25.0</ele><time>2026-04-14T04:36:08.001Z</time></trkpt><trkpt lat="14.420293802844375" lon="121.03511652095895"><ele>25.0</ele><time>2026-04-14T04:36:32.001Z</time></trkpt><trkpt lat="14.42035921290752" lon="121.03500969897418"><ele>24.6</ele><time>2026-04-14T04:36:34.001Z</time></trkpt><trkpt lat="14.420403620412545" lon="121.0349441033171"><ele>24.2</ele><time>2026-04-14T04:36:35.001Z</time></trkpt><trkpt lat="14.420451946807813" lon="121.03487634395988"><ele>23.799999999999997</ele><time>2026-04-14T04:36:36.001Z</time></trkpt><trkpt lat="14.4204914530709" lon="121.03475443888122"><ele>23.4</ele><time>2026-04-14T04:36:38.001Z</time></trkpt><trkpt lat="14.420533313604382" lon="121.0346753284471"><ele>23.0</ele><time>2026-04-14T04:36:39.001Z</time></trkpt><trkpt lat="14.420581025436222" lon="121.03459802282505"><ele>23.0</ele><time>2026-04-14T04:36:40.001Z</time></trkpt><trkpt lat="14.420623463915707" lon="121.03451628257841"><ele>23.0</ele><time>2026-04-14T04:36:41.001Z</time></trkpt><trkpt lat="14.420663797424702" lon="121.03443572959011"><ele>23.0</ele><time>2026-04-14T04:36:42.001Z</time></trkpt><trkpt lat="14.42070716105828" lon="121.03435028064202"><ele>23.0</ele><time>2026-04-14T04:36:43.001Z</time></trkpt><trkpt lat="14.42074821217569" lon="121.03426585152847"><ele>23.0</ele><time>2026-04-14T04:36:44.001Z</time></trkpt><trkpt lat="14.420785174787643" lon="121.0341842244232"><ele>24.166666666666668</ele><time>2026-04-14T04:36:45.001Z</time></trkpt><trkpt lat="14.420817901863375" lon="121.03410357241755"><ele>25.333333333333336</ele><time>2026-04-14T04:36:46.001Z</time></trkpt><trkpt lat="14.420848438749495" lon="121.03402205725591"><ele>26.5</ele><time>2026-04-14T04:36:47.001Z</time></trkpt><trkpt lat="14.420879888139014" lon="121.03393653537935"><ele>27.666666666666668</ele><time>2026-04-14T04:36:48.001Z</time></trkpt><trkpt lat="14.42090482049066" lon="121.03384621226343"><ele>28.833333333333332</ele><time>2026-04-14T04:36:49.001Z</time></trkpt><trkpt lat="14.420929015103557" lon="121.03375023802273"><ele>30.0</ele><time>2026-04-14T04:36:50.001Z</time></trkpt><trkpt lat="14.420946984829582" lon="121.03364439772491"><ele>30.0</ele><time>2026-04-14T04:36:51.001Z</time></trkpt><trkpt lat="14.420973134296192" lon="121.03353545218812"><ele>30.0</ele><time>2026-04-14T04:36:52.001Z</time></trkpt><trkpt lat="14.420997598235626" lon="121.0334194936925"><ele>30.0</ele><time>2026-04-14T04:36:53.001Z</time></trkpt><trkpt lat="14.42102607695928" lon="121.03330502161954"><ele>30.0</ele><time>2026-04-14T04:36:54.001Z</time></trkpt><trkpt lat="14.421058233012584" lon="121.03319269692165"><ele>30.6</ele><time>2026-04-14T04:36:55.001Z</time></trkpt><trkpt lat="14.4210938469951" lon="121.03308696529284"><ele>31.2</ele><time>2026-04-14T04:36:56.001Z</time></trkpt><trkpt lat="14.421127204429173" lon="121.03298941779687"><ele>31.799999999999997</ele><time>2026-04-14T04:36:57.001Z</time></trkpt><trkpt lat="14.421160198120727" lon="121.03288522154328"><ele>32.4</ele><time>2026-04-14T04:36:58.001Z</time></trkpt><trkpt lat="14.421186589447165" lon="121.03278310710316"><ele>33.0</ele><time>2026-04-14T04:36:59.001Z</time></trkpt><trkpt lat="14.421189200294423" lon="121.03267385021334"><ele>33.0</ele><time>2026-04-14T04:37:00.001Z</time></trkpt><trkpt lat="14.42120842471899" lon="121.03257063327347"><ele>33.0</ele><time>2026-04-14T04:37:01.001Z</time></trkpt><trkpt lat="14.42123360852777" lon="121.03247781445835"><ele>33.0</ele><time>2026-04-14T04:37:02.001Z</time></trkpt><trkpt lat="14.421260305773217" lon="121.03238513206092"><ele>33.0</ele><time>2026-04-14T04:37:03.001Z</time></trkpt><trkpt lat="14.421293517246797" lon="121.03229410842505"><ele>33.0</ele><time>2026-04-14T04:37:04.001Z</time></trkpt><trkpt lat="14.421316855146362" lon="121.03221201270853"><ele>31.333333333333332</ele><time>2026-04-14T04:37:05.001Z</time></trkpt><trkpt lat="14.42134111015969" lon="121.03212512721367"><ele>29.666666666666668</ele><time>2026-04-14T04:37:06.001Z</time></trkpt><trkpt lat="14.421358912344449" lon="121.03204756122254"><ele>28.0</ele><time>2026-04-14T04:37:07.001Z</time></trkpt><trkpt lat="14.421376744357126" lon="121.03196725239742"><ele>26.333333333333336</ele><time>2026-04-14T04:37:08.001Z</time></trkpt><trkpt lat="14.421400677935027" lon="121.0318709987491"><ele>24.666666666666668</ele><time>2026-04-14T04:37:09.001Z</time></trkpt><trkpt lat="14.421424101898376" lon="121.03176630970601"><ele>23.0</ele><time>2026-04-14T04:37:10.001Z</time></trkpt><trkpt lat="14.421443909565422" lon="121.03165085263764"><ele>23.75</ele><time>2026-04-14T04:37:11.001Z</time></trkpt><trkpt lat="14.421473066867977" lon="121.03152217403606"><ele>24.5</ele><time>2026-04-14T04:37:12.001Z</time></trkpt><trkpt lat="14.42150836450788" lon="121.03138811819679"><ele>25.25</ele><time>2026-04-14T04:37:13Z</time></trkpt><trkpt lat="14.421546213839052" lon="121.03125299073288"><ele>26.0</ele><time>2026-04-14T04:37:14Z</time></trkpt><trkpt lat="14.421577902133413" lon="121.03113708561052"><ele>26.0</ele><time>2026-04-14T04:37:15Z</time></trkpt><trkpt lat="14.421606679595596" lon="121.03102126529838"><ele>26.0</ele><time>2026-04-14T04:37:16Z</time></trkpt><trkpt lat="14.421643284761087" lon="121.03089803989262"><ele>26.0</ele><time>2026-04-14T04:37:17Z</time></trkpt><trkpt lat="14.421664145160213" lon="121.03079087515705"><ele>26.0</ele><time>2026-04-14T04:37:18Z</time></trkpt><trkpt lat="14.421690344098671" lon="121.03067902350958"><ele>24.75</ele><time>2026-04-14T04:37:19Z</time></trkpt><trkpt lat="14.421718527136033" lon="121.03055724698426"><ele>23.5</ele><time>2026-04-14T04:37:20Z</time></trkpt><trkpt lat="14.421744451850158" lon="121.0304371326843"><ele>22.25</ele><time>2026-04-14T04:37:21Z</time></trkpt><trkpt lat="14.421781727506223" lon="121.03031240626163"><ele>21.0</ele><time>2026-04-14T04:37:22Z</time></trkpt><trkpt lat="14.421815065569676" lon="121.03018943001668"><ele>21.0</ele><time>2026-04-14T04:37:23Z</time></trkpt><trkpt lat="14.421846883767685" lon="121.03006368353125"><ele>21.0</ele><time>2026-04-14T04:37:24Z</time></trkpt><trkpt lat="14.421882422341218" lon="121.02993126823682"><ele>21.0</ele><time>2026-04-14T04:37:25Z</time></trkpt><trkpt lat="14.42192004910195" lon="121.02979234211173"><ele>21.0</ele><time>2026-04-14T04:37:26Z</time></trkpt><trkpt lat="14.421957517446632" lon="121.0296519710975"><ele>22.5</ele><time>2026-04-14T04:37:27Z</time></trkpt><trkpt lat="14.421995470237643" lon="121.02951481566578"><ele>24.0</ele><time>2026-04-14T04:37:28Z</time></trkpt><trkpt lat="14.42203151371167" lon="121.02937054940513"><ele>25.5</ele><time>2026-04-14T04:37:29Z</time></trkpt><trkpt lat="14.422064016650808" lon="121.02923550088396"><ele>27.0</ele><time>2026-04-14T04:37:30Z</time></trkpt><trkpt lat="14.422097822434667" lon="121.02911773919246"><ele>27.8</ele><time>2026-04-14T04:37:31Z</time></trkpt><trkpt lat="14.422126053801582" lon="121.02899563223801"><ele>28.6</ele><time>2026-04-14T04:37:32Z</time></trkpt><trkpt lat="14.4221541618015" lon="121.02889998660628"><ele>29.400000000000002</ele><time>2026-04-14T04:37:33Z</time></trkpt><trkpt lat="14.422175928037339" lon="121.02880195462104"><ele>30.200000000000003</ele><time>2026-04-14T04:37:34Z</time></trkpt><trkpt lat="14.422201890226553" lon="121.02870518403168"><ele>31.0</ele><time>2026-04-14T04:37:35.001Z</time></trkpt><trkpt lat="14.422222620776166" lon="121.02863215403853"><ele>31.166666666666668</ele><time>2026-04-14T04:37:36Z</time></trkpt><trkpt lat="14.422238276394188" lon="121.02856173397817"><ele>31.333333333333336</ele><time>2026-04-14T04:37:37Z</time></trkpt><trkpt lat="14.422256991389538" lon="121.0284920667058"><ele>31.5</ele><time>2026-04-14T04:37:39.001Z</time></trkpt><trkpt lat="14.422255839543716" lon="121.02842555440509"><ele>31.666666666666664</ele><time>2026-04-14T04:37:46.001Z</time></trkpt><trkpt lat="14.422283457237423" lon="121.02832394979107"><ele>31.833333333333332</ele><time>2026-04-14T04:37:48.001Z</time></trkpt><trkpt lat="14.422314861210529" lon="121.02820945245206"><ele>32.0</ele><time>2026-04-14T04:37:50.001Z</time></trkpt><trkpt lat="14.422342322021494" lon="121.02810827430781"><ele>32.33333333333333</ele><time>2026-04-14T04:37:52.001Z</time></trkpt><trkpt lat="14.42236306934348" lon="121.02804167178952"><ele>32.666666666666664</ele><time>2026-04-14T04:37:55.001Z</time></trkpt><trkpt lat="14.422350210609727" lon="121.02795960049566"><ele>33.0</ele><time>2026-04-14T04:38:01.001Z</time></trkpt><trkpt lat="14.422389680230102" lon="121.02786323056833"><ele>33.333333333333336</ele><time>2026-04-14T04:38:03.001Z</time></trkpt><trkpt lat="14.42240789618808" lon="121.02779604396879"><ele>33.66666666666667</ele><time>2026-04-14T04:38:04.001Z</time></trkpt><trkpt lat="14.422423550534106" lon="121.02772708487592"><ele>34.0</ele><time>2026-04-14T04:38:05.001Z</time></trkpt><trkpt lat="14.422457994238325" lon="121.02760639329301"><ele>34.0</ele><time>2026-04-14T04:38:07.001Z</time></trkpt><trkpt lat="14.42247795470933" lon="121.02753865732107"><ele>34.0</ele><time>2026-04-14T04:38:08.001Z</time></trkpt><trkpt lat="14.422499929329076" lon="121.02745921209741"><ele>34.0</ele><time>2026-04-14T04:38:09.001Z</time></trkpt><trkpt lat="14.422517493041836" lon="121.02737380667672"><ele>34.0</ele><time>2026-04-14T04:38:10.001Z</time></trkpt><trkpt lat="14.422542858659513" lon="121.02729286521661"><ele>34.0</ele><time>2026-04-14T04:38:11.001Z</time></trkpt><trkpt lat="14.422568865467793" lon="121.02721519820658"><ele>34.0</ele><time>2026-04-14T04:38:12.001Z</time></trkpt><trkpt lat="14.422589974976251" lon="121.02713549939138"><ele>33.833333333333336</ele><time>2026-04-14T04:38:13.001Z</time></trkpt><trkpt lat="14.422612724971867" lon="121.02706522843609"><ele>33.66666666666667</ele><time>2026-04-14T04:38:14.001Z</time></trkpt><trkpt lat="14.422637060329205" lon="121.02698454367597"><ele>33.5</ele><time>2026-04-14T04:38:15.001Z</time></trkpt><trkpt lat="14.42265760195239" lon="121.02691472922747"><ele>33.333333333333336</ele><time>2026-04-14T04:38:16.001Z</time></trkpt><trkpt lat="14.422683831959066" lon="121.02683802498315"><ele>33.166666666666664</ele><time>2026-04-14T04:38:17.001Z</time></trkpt><trkpt lat="14.42271262590393" lon="121.02676712267068"><ele>33.0</ele><time>2026-04-14T04:38:18.001Z</time></trkpt><trkpt lat="14.42273771585361" lon="121.02668114386871"><ele>33.8</ele><time>2026-04-14T04:38:19.001Z</time></trkpt><trkpt lat="14.422764039818604" lon="121.02659334816241"><ele>34.599999999999994</ele><time>2026-04-14T04:38:20.001Z</time></trkpt><trkpt lat="14.422792689552123" lon="121.02650631425264"><ele>35.400000000000006</ele><time>2026-04-14T04:38:21.001Z</time></trkpt><trkpt lat="14.422818679769327" lon="121.02640839141783"><ele>36.2</ele><time>2026-04-14T04:38:22.001Z</time></trkpt><trkpt lat="14.422847078128052" lon="121.02630971465294"><ele>37.0</ele><time>2026-04-14T04:38:23.001Z</time></trkpt><trkpt lat="14.422872382239728" lon="121.02622274018314"><ele>37.0</ele><time>2026-04-14T04:38:24.001Z</time></trkpt><trkpt lat="14.422896454909763" lon="121.02613465765447"><ele>37.0</ele><time>2026-04-14T04:38:25.001Z</time></trkpt><trkpt lat="14.422925689560872" lon="121.02604551435675"><ele>37.0</ele><time>2026-04-14T04:38:26.001Z</time></trkpt><trkpt lat="14.422944442019174" lon="121.02595344954577"><ele>37.0</ele><time>2026-04-14T04:38:27.001Z</time></trkpt><trkpt lat="14.422962729487814" lon="121.02586151931824"><ele>37.0</ele><time>2026-04-14T04:38:28.001Z</time></trkpt><trkpt lat="14.422981678126764" lon="121.02577946843836"><ele>37.0</ele><time>2026-04-14T04:38:29.001Z</time></trkpt><trkpt lat="14.423005778982509" lon="121.02569588435627"><ele>37.6</ele><time>2026-04-14T04:38:30.001Z</time></trkpt><trkpt lat="14.423028951213423" lon="121.0256059891164"><ele>38.2</ele><time>2026-04-14T04:38:31.001Z</time></trkpt><trkpt lat="14.423053875567442" lon="121.02552466675748"><ele>38.8</ele><time>2026-04-14T04:38:32.001Z</time></trkpt><trkpt lat="14.423079340388709" lon="121.0254381034503"><ele>39.4</ele><time>2026-04-14T04:38:33.001Z</time></trkpt><trkpt lat="14.423111272859323" lon="121.02534099751607"><ele>40.0</ele><time>2026-04-14T04:38:34.001Z</time></trkpt><trkpt lat="14.423141953603757" lon="121.02523761201903"><ele>40.0</ele><time>2026-04-14T04:38:35.001Z</time></trkpt><trkpt lat="14.423170275825052" lon="121.02513057085253"><ele>40.0</ele><time>2026-04-14T04:38:36.001Z</time></trkpt><trkpt lat="14.423192919999437" lon="121.02504130144662"><ele>40.0</ele><time>2026-04-14T04:38:37.001Z</time></trkpt><trkpt lat="14.423213313053159" lon="121.02494671412862"><ele>40.0</ele><time>2026-04-14T04:38:38.001Z</time></trkpt><trkpt lat="14.423234185851621" lon="121.02486703610839"><ele>40.0</ele><time>2026-04-14T04:38:39.001Z</time></trkpt><trkpt lat="14.423256488494504" lon="121.02477619772701"><ele>42.4</ele><time>2026-04-14T04:38:40.001Z</time></trkpt><trkpt lat="14.423281505216824" lon="121.02467783208056"><ele>44.8</ele><time>2026-04-14T04:38:41.001Z</time></trkpt><trkpt lat="14.423305760033058" lon="121.02459625085191"><ele>47.2</ele><time>2026-04-14T04:38:42.001Z</time></trkpt><trkpt lat="14.42331379659397" lon="121.02449300892322"><ele>49.6</ele><time>2026-04-14T04:38:44.001Z</time></trkpt><trkpt lat="14.423328162263298" lon="121.02439071833787"><ele>52.0</ele><time>2026-04-14T04:38:46.001Z</time></trkpt><trkpt lat="14.423359299635324" lon="121.02430201462013"><ele>52.0</ele><time>2026-04-14T04:38:48.001Z</time></trkpt><trkpt lat="14.423376316285813" lon="121.02423650240287"><ele>52.0</ele><time>2026-04-14T04:40:56.001Z</time></trkpt><trkpt lat="14.423395915946216" lon="121.02415645277785"><ele>52.0</ele><time>2026-04-14T04:40:58.001Z</time></trkpt><trkpt lat="14.423418213286862" lon="121.02405110590084"><ele>52.0</ele><time>2026-04-14T04:41:00.001Z</time></trkpt><trkpt lat="14.423479387899613" lon="121.02395109746652"><ele>52.0</ele><time>2026-04-14T04:41:02.001Z</time></trkpt><trkpt lat="14.42348465197569" lon="121.0238564908859"><ele>51.0</ele><time>2026-04-14T04:41:03.001Z</time></trkpt><trkpt lat="14.423495823426284" lon="121.02376793034571"><ele>50.0</ele><time>2026-04-14T04:41:04.001Z</time></trkpt><trkpt lat="14.423494026893364" lon="121.02368785759253"><ele>49.0</ele><time>2026-04-14T04:41:05.001Z</time></trkpt><trkpt lat="14.423504082979406" lon="121.02358577152326"><ele>48.0</ele><time>2026-04-14T04:41:06.001Z</time></trkpt><trkpt lat="14.42346668962727" lon="121.0234840510876"><ele>47.0</ele><time>2026-04-14T04:41:07.001Z</time></trkpt><trkpt lat="14.42344998265814" lon="121.02337352677552"><ele>46.8</ele><time>2026-04-14T04:41:08.001Z</time></trkpt><trkpt lat="14.423435219092939" lon="121.02326132561167"><ele>46.6</ele><time>2026-04-14T04:41:09.001Z</time></trkpt><trkpt lat="14.42342431319738" lon="121.02316163308606"><ele>46.4</ele><time>2026-04-14T04:41:10.001Z</time></trkpt><trkpt lat="14.423412492455068" lon="121.02306452560934"><ele>46.199999999999996</ele><time>2026-04-14T04:41:11.001Z</time></trkpt><trkpt lat="14.4234066744184" lon="121.02297246832177"><ele>46.0</ele><time>2026-04-14T04:41:12.001Z</time></trkpt><trkpt lat="14.423462613345245" lon="121.0228813070937"><ele>46.0</ele><time>2026-04-14T04:41:13.001Z</time></trkpt><trkpt lat="14.42345758308176" lon="121.02280926733668"><ele>46.0</ele><time>2026-04-14T04:41:14.001Z</time></trkpt><trkpt lat="14.423452537750329" lon="121.02273701179895"><ele>46.0</ele><time>2026-04-14T04:41:15.001Z</time></trkpt><trkpt lat="14.42344450239275" lon="121.02262193529378"><ele>46.0</ele><time>2026-04-14T04:41:17.001Z</time></trkpt><trkpt lat="14.423441219540578" lon="121.02254461898922"><ele>46.0</ele><time>2026-04-14T04:41:20.001Z</time></trkpt><trkpt lat="14.423264661651855" lon="121.02245952915065"><ele>46.0</ele><time>2026-04-14T04:41:24.001Z</time></trkpt><trkpt lat="14.423190463236471" lon="121.02245155717357"><ele>46.0</ele><time>2026-04-14T04:41:25Z</time></trkpt><trkpt lat="14.423108600461116" lon="121.02245495794469"><ele>46.0</ele><time>2026-04-14T04:41:26Z</time></trkpt><trkpt lat="14.423015008649388" lon="121.02246366371988"><ele>46.0</ele><time>2026-04-14T04:41:27Z</time></trkpt><trkpt lat="14.422909452522207" lon="121.02247267347636"><ele>46.0</ele><time>2026-04-14T04:41:28Z</time></trkpt><trkpt lat="14.422799391958597" lon="121.02248004239732"><ele>46.0</ele><time>2026-04-14T04:41:29Z</time></trkpt><trkpt lat="14.422684934315505" lon="121.02248301183701"><ele>46.0</ele><time>2026-04-14T04:41:30Z</time></trkpt><trkpt lat="14.422572824087718" lon="121.02246864275716"><ele>46.0</ele><time>2026-04-14T04:41:31Z</time></trkpt><trkpt lat="14.42245949124619" lon="121.02242193066682"><ele>46.0</ele><time>2026-04-14T04:41:32Z</time></trkpt><trkpt lat="14.422354617631598" lon="121.02235359045093"><ele>46.0</ele><time>2026-04-14T04:41:33Z</time></trkpt><trkpt lat="14.422248516528507" lon="121.02228058833586"><ele>46.0</ele><time>2026-04-14T04:41:34Z</time></trkpt><trkpt lat="14.422130840084376" lon="121.02220548227241"><ele>46.0</ele><time>2026-04-14T04:41:35Z</time></trkpt><trkpt lat="14.422018880803662" lon="121.02212975700924"><ele>46.0</ele><time>2026-04-14T04:41:36Z</time></trkpt><trkpt lat="14.421914341712604" lon="121.02205976277475"><ele>45.8</ele><time>2026-04-14T04:41:37Z</time></trkpt><trkpt lat="14.421815098173333" lon="121.02199239201252"><ele>45.599999999999994</ele><time>2026-04-14T04:41:38Z</time></trkpt><trkpt lat="14.421713431654066" lon="121.02191977039124"><ele>45.4</ele><time>2026-04-14T04:41:39Z</time></trkpt><trkpt lat="14.42163820832718" lon="121.02185941930021"><ele>45.2</ele><time>2026-04-14T04:41:40Z</time></trkpt><trkpt lat="14.421572491374048" lon="121.02180980729682"><ele>45.0</ele><time>2026-04-14T04:41:41Z</time></trkpt><trkpt lat="14.421493870941784" lon="121.02175571414841"><ele>45.0</ele><time>2026-04-14T04:41:42Z</time></trkpt><trkpt lat="14.421404122413797" lon="121.02170387003261"><ele>45.0</ele><time>2026-04-14T04:41:43Z</time></trkpt><trkpt lat="14.42130370754353" lon="121.02165268581277"><ele>45.0</ele><time>2026-04-14T04:41:44Z</time></trkpt><trkpt lat="14.42119786007448" lon="121.0215942070085"><ele>45.0</ele><time>2026-04-14T04:41:45Z</time></trkpt><trkpt lat="14.42108666714649" lon="121.02152296805494"><ele>44.75</ele><time>2026-04-14T04:41:46Z</time></trkpt><trkpt lat="14.420971395427646" lon="121.02144494521404"><ele>44.5</ele><time>2026-04-14T04:41:47Z</time></trkpt><trkpt lat="14.420851893790068" lon="121.02136641269549"><ele>44.25</ele><time>2026-04-14T04:41:48Z</time></trkpt><trkpt lat="14.420724768566437" lon="121.02128516470599"><ele>44.0</ele><time>2026-04-14T04:41:49Z</time></trkpt><trkpt lat="14.420590581533679" lon="121.02119853140859"><ele>44.0</ele><time>2026-04-14T04:41:50Z</time></trkpt><trkpt lat="14.420452639584758" lon="121.02110829723583"><ele>44.0</ele><time>2026-04-14T04:41:51Z</time></trkpt><trkpt lat="14.420312418656053" lon="121.02101852415153"><ele>44.0</ele><time>2026-04-14T04:41:52Z</time></trkpt><trkpt lat="14.420170064965525" lon="121.02092936886044"><ele>44.0</ele><time>2026-04-14T04:41:53.001Z</time></trkpt><trkpt lat="14.420025631494857" lon="121.02084192966898"><ele>44.0</ele><time>2026-04-14T04:41:54.001Z</time></trkpt><trkpt lat="14.419884356000894" lon="121.02075459305769"><ele>44.0</ele><time>2026-04-14T04:41:55.001Z</time></trkpt><trkpt lat="14.419745028644934" lon="121.02066463821129"><ele>44.0</ele><time>2026-04-14T04:41:56.001Z</time></trkpt><trkpt lat="14.419606050852693" lon="121.02057308783036"><ele>44.0</ele><time>2026-04-14T04:41:57.001Z</time></trkpt><trkpt lat="14.41946695353918" lon="121.02048454369705"><ele>44.0</ele><time>2026-04-14T04:41:58.001Z</time></trkpt><trkpt lat="14.419327432506364" lon="121.02039551210356"><ele>44.0</ele><time>2026-04-14T04:41:59.001Z</time></trkpt><trkpt lat="14.419185141111306" lon="121.02030838704265"><ele>44.0</ele><time>2026-04-14T04:42:00.001Z</time></trkpt><trkpt lat="14.419040542497898" lon="121.02021832006368"><ele>44.0</ele><time>2026-04-14T04:42:01.001Z</time></trkpt><trkpt lat="14.418900613553026" lon="121.02013071797008"><ele>44.33333333333333</ele><time>2026-04-14T04:42:02.001Z</time></trkpt><trkpt lat="14.41875779651577" lon="121.02004284540712"><ele>44.666666666666664</ele><time>2026-04-14T04:42:03.001Z</time></trkpt><trkpt lat="14.418616491700146" lon="121.01995223423265"><ele>45.0</ele><time>2026-04-14T04:42:04.001Z</time></trkpt><trkpt lat="14.41847393087238" lon="121.01985951224592"><ele>45.0</ele><time>2026-04-14T04:42:05.001Z</time></trkpt><trkpt lat="14.418331309989595" lon="121.01976829369957"><ele>45.0</ele><time>2026-04-14T04:42:06.001Z</time></trkpt><trkpt lat="14.41819182044675" lon="121.019675210282"><ele>45.0</ele><time>2026-04-14T04:42:07.001Z</time></trkpt><trkpt lat="14.418049004441936" lon="121.01958581742636"><ele>45.666666666666664</ele><time>2026-04-14T04:42:08.001Z</time></trkpt><trkpt lat="14.417905998106363" lon="121.01949737365561"><ele>46.33333333333333</ele><time>2026-04-14T04:42:09.001Z</time></trkpt><trkpt lat="14.417769449402877" lon="121.01941187118959"><ele>47.0</ele><time>2026-04-14T04:42:10.001Z</time></trkpt><trkpt lat="14.41765122692616" lon="121.0193336771324"><ele>47.0</ele><time>2026-04-14T04:42:11.001Z</time></trkpt><trkpt lat="14.417546936564777" lon="121.01926212711935"><ele>47.0</ele><time>2026-04-14T04:42:12.001Z</time></trkpt><trkpt lat="14.417439026766003" lon="121.01918902165029"><ele>47.0</ele><time>2026-04-14T04:42:13.001Z</time></trkpt><trkpt lat="14.417320445980641" lon="121.01911444025616"><ele>47.0</ele><time>2026-04-14T04:42:14.001Z</time></trkpt><trkpt lat="14.417189718012946" lon="121.01904236857729"><ele>46.666666666666664</ele><time>2026-04-14T04:42:15.001Z</time></trkpt><trkpt lat="14.417055681120003" lon="121.01896278070261"><ele>46.333333333333336</ele><time>2026-04-14T04:42:16.001Z</time></trkpt><trkpt lat="14.416917362613418" lon="121.01887848350032"><ele>46.0</ele><time>2026-04-14T04:42:17.001Z</time></trkpt><trkpt lat="14.416774653960942" lon="121.01879371502909"><ele>46.0</ele><time>2026-04-14T04:42:18.001Z</time></trkpt><trkpt lat="14.416630820283872" lon="121.01870299552014"><ele>46.0</ele><time>2026-04-14T04:42:19.001Z</time></trkpt><trkpt lat="14.416482312587629" lon="121.01860804740777"><ele>46.0</ele><time>2026-04-14T04:42:20.001Z</time></trkpt><trkpt lat="14.41633780792383" lon="121.01851170464802"><ele>45.333333333333336</ele><time>2026-04-14T04:42:21.001Z</time></trkpt><trkpt lat="14.416186920733704" lon="121.0184107972142"><ele>44.666666666666664</ele><time>2026-04-14T04:42:22.001Z</time></trkpt><trkpt lat="14.41603133171484" lon="121.01831615093992"><ele>44.0</ele><time>2026-04-14T04:42:23.001Z</time></trkpt><trkpt lat="14.415878291030701" lon="121.01822384020393"><ele>44.0</ele><time>2026-04-14T04:42:24.001Z</time></trkpt><trkpt lat="14.415722587200264" lon="121.0181314916521"><ele>44.0</ele><time>2026-04-14T04:42:25.001Z</time></trkpt><trkpt lat="14.41556104387529" lon="121.01803747455278"><ele>44.0</ele><time>2026-04-14T04:42:26.001Z</time></trkpt><trkpt lat="14.415409310322158" lon="121.01794469622916"><ele>44.33333333333333</ele><time>2026-04-14T04:42:27.001Z</time></trkpt><trkpt lat="14.41525155892475" lon="121.01785037019809"><ele>44.666666666666664</ele><time>2026-04-14T04:42:28.001Z</time></trkpt><trkpt lat="14.415097734066396" lon="121.01775249747458"><ele>45.0</ele><time>2026-04-14T04:42:29.001Z</time></trkpt><trkpt lat="14.414945720413108" lon="121.0176543454317"><ele>45.0</ele><time>2026-04-14T04:42:30.001Z</time></trkpt><trkpt lat="14.41479593708754" lon="121.01755918429203"><ele>45.0</ele><time>2026-04-14T04:42:31.001Z</time></trkpt><trkpt lat="14.414653433522872" lon="121.01747114847387"><ele>45.0</ele><time>2026-04-14T04:42:32.001Z</time></trkpt><trkpt lat="14.414511722437023" lon="121.0173869259682"><ele>45.0</ele><time>2026-04-14T04:42:33.001Z</time></trkpt><trkpt lat="14.414390941476414" lon="121.01730581771223"><ele>45.0</ele><time>2026-04-14T04:42:34.001Z</time></trkpt><trkpt lat="14.414302493497335" lon="121.01718921448416"><ele>45.0</ele><time>2026-04-14T04:42:35.001Z</time></trkpt><trkpt lat="14.41423467240824" lon="121.01706782024618"><ele>45.0</ele><time>2026-04-14T04:42:36.001Z</time></trkpt><trkpt lat="14.414176556775404" lon="121.01694272746172"><ele>45.0</ele><time>2026-04-14T04:42:37.001Z</time></trkpt><trkpt lat="14.414119789833775" lon="121.01682367703566"><ele>45.0</ele><time>2026-04-14T04:42:38.001Z</time></trkpt><trkpt lat="14.414077498654622" lon="121.0167006274706"><ele>45.0</ele><time>2026-04-14T04:42:39.001Z</time></trkpt><trkpt lat="14.414018662003063" lon="121.01659525020436"><ele>45.0</ele><time>2026-04-14T04:42:40.001Z</time></trkpt><trkpt lat="14.413952429658128" lon="121.01649672156964"><ele>45.0</ele><time>2026-04-14T04:42:41.001Z</time></trkpt><trkpt lat="14.413878994623424" lon="121.01640755278144"><ele>45.0</ele><time>2026-04-14T04:42:42.001Z</time></trkpt><trkpt lat="14.41379210867429" lon="121.01632379254977"><ele>45.0</ele><time>2026-04-14T04:42:43.001Z</time></trkpt><trkpt lat="14.413696640922597" lon="121.01623956900909"><ele>45.0</ele><time>2026-04-14T04:42:44.001Z</time></trkpt><trkpt lat="14.413591937156513" lon="121.01616058079375"><ele>45.0</ele><time>2026-04-14T04:42:45.001Z</time></trkpt><trkpt lat="14.413472136695528" lon="121.01608730326679"><ele>45.0</ele><time>2026-04-14T04:42:46.001Z</time></trkpt><trkpt lat="14.413357260214374" lon="121.01601233387815"><ele>45.0</ele><time>2026-04-14T04:42:47.001Z</time></trkpt><trkpt lat="14.413243734720067" lon="121.01593243448588"><ele>45.0</ele><time>2026-04-14T04:42:48.001Z</time></trkpt><trkpt lat="14.413113741047525" lon="121.01585062598467"><ele>45.666666666666664</ele><time>2026-04-14T04:42:49.001Z</time></trkpt><trkpt lat="14.412983623601034" lon="121.01577487474468"><ele>46.33333333333333</ele><time>2026-04-14T04:42:50.001Z</time></trkpt><trkpt lat="14.41284889760438" lon="121.01569257785245"><ele>47.0</ele><time>2026-04-14T04:42:51.001Z</time></trkpt><trkpt lat="14.41271516495134" lon="121.0156121303626"><ele>47.0</ele><time>2026-04-14T04:42:52.001Z</time></trkpt><trkpt lat="14.412572810368793" lon="121.01552822453223"><ele>47.0</ele><time>2026-04-14T04:42:53.001Z</time></trkpt><trkpt lat="14.41242980091203" lon="121.01543764646215"><ele>47.0</ele><time>2026-04-14T04:42:54.001Z</time></trkpt><trkpt lat="14.412283420773303" lon="121.01534866360234"><ele>48.0</ele><time>2026-04-14T04:42:55.001Z</time></trkpt><trkpt lat="14.41213907923385" lon="121.01526066449387"><ele>49.0</ele><time>2026-04-14T04:42:56.001Z</time></trkpt><trkpt lat="14.411989636514495" lon="121.01516753049115"><ele>50.0</ele><time>2026-04-14T04:42:57.001Z</time></trkpt><trkpt lat="14.411839305099985" lon="121.01507423899605"><ele>50.0</ele><time>2026-04-14T04:42:58.001Z</time></trkpt><trkpt lat="14.411690527424494" lon="121.01497713837328"><ele>50.0</ele><time>2026-04-14T04:42:59.001Z</time></trkpt><trkpt lat="14.411538353760827" lon="121.01488011921504"><ele>50.0</ele><time>2026-04-14T04:43:00.001Z</time></trkpt><trkpt lat="14.411386215750206" lon="121.0147900881999"><ele>49.333333333333336</ele><time>2026-04-14T04:43:01.001Z</time></trkpt><trkpt lat="14.411232590473542" lon="121.014693657608"><ele>48.66666666666667</ele><time>2026-04-14T04:43:02.001Z</time></trkpt><trkpt lat="14.41107706057009" lon="121.01459383769604"><ele>48.0</ele><time>2026-04-14T04:43:03.001Z</time></trkpt><trkpt lat="14.41092022400313" lon="121.01449413290486"><ele>48.0</ele><time>2026-04-14T04:43:04.001Z</time></trkpt><trkpt lat="14.410762625458965" lon="121.01439364503625"><ele>48.0</ele><time>2026-04-14T04:43:05.001Z</time></trkpt><trkpt lat="14.410602745210392" lon="121.01428984067115"><ele>48.0</ele><time>2026-04-14T04:43:06.001Z</time></trkpt><trkpt lat="14.410441879456016" lon="121.01418323790183"><ele>49.0</ele><time>2026-04-14T04:43:07.001Z</time></trkpt><trkpt lat="14.410279114753182" lon="121.01407967890759"><ele>50.0</ele><time>2026-04-14T04:43:08.001Z</time></trkpt><trkpt lat="14.410116632847778" lon="121.01397941533028"><ele>51.0</ele><time>2026-04-14T04:43:09.001Z</time></trkpt><trkpt lat="14.409954610460202" lon="121.01387856510217"><ele>51.0</ele><time>2026-04-14T04:43:10.001Z</time></trkpt><trkpt lat="14.40979184603635" lon="121.01377460734525"><ele>51.0</ele><time>2026-04-14T04:43:11.001Z</time></trkpt><trkpt lat="14.40962686253145" lon="121.01367129764404"><ele>51.0</ele><time>2026-04-14T04:43:12.001Z</time></trkpt><trkpt lat="14.409463430966786" lon="121.01356930188997"><ele>50.66666666666667</ele><time>2026-04-14T04:43:13.001Z</time></trkpt><trkpt lat="14.409309398803886" lon="121.01346988113573"><ele>50.333333333333336</ele><time>2026-04-14T04:43:14.001Z</time></trkpt><trkpt lat="14.409163509897773" lon="121.01337627571239"><ele>50.0</ele><time>2026-04-14T04:43:15.001Z</time></trkpt><trkpt lat="14.409019641282768" lon="121.01328770384492"><ele>50.0</ele><time>2026-04-14T04:43:16.001Z</time></trkpt><trkpt lat="14.40887676200554" lon="121.01319904550586"><ele>50.0</ele><time>2026-04-14T04:43:17.001Z</time></trkpt><trkpt lat="14.408736991307745" lon="121.01311358074807"><ele>50.0</ele><time>2026-04-14T04:43:18.001Z</time></trkpt><trkpt lat="14.408599935672587" lon="121.01302255712628"><ele>50.0</ele><time>2026-04-14T04:43:19.001Z</time></trkpt><trkpt lat="14.408463157442295" lon="121.01293366308806"><ele>50.0</ele><time>2026-04-14T04:43:20.001Z</time></trkpt><trkpt lat="14.408327699058816" lon="121.01284506260441"><ele>50.0</ele><time>2026-04-14T04:43:21.001Z</time></trkpt><trkpt lat="14.408198546067709" lon="121.01276256750819"><ele>50.0</ele><time>2026-04-14T04:43:22.001Z</time></trkpt><trkpt lat="14.40807358659743" lon="121.01268332828232"><ele>50.0</ele><time>2026-04-14T04:43:23.001Z</time></trkpt><trkpt lat="14.40795264102686" lon="121.01260401996164"><ele>50.0</ele><time>2026-04-14T04:43:24.001Z</time></trkpt><trkpt lat="14.407831310857395" lon="121.01252335150527"><ele>50.0</ele><time>2026-04-14T04:43:25.001Z</time></trkpt><trkpt lat="14.407708265021379" lon="121.01244395483536"><ele>49.75</ele><time>2026-04-14T04:43:26.001Z</time></trkpt><trkpt lat="14.407585342981033" lon="121.01236417630231"><ele>49.5</ele><time>2026-04-14T04:43:27.001Z</time></trkpt><trkpt lat="14.407457686511458" lon="121.01228639664167"><ele>49.25</ele><time>2026-04-14T04:43:28.001Z</time></trkpt><trkpt lat="14.407333093745532" lon="121.012211329142"><ele>49.0</ele><time>2026-04-14T04:43:29.001Z</time></trkpt><trkpt lat="14.407205092303435" lon="121.01212846779158"><ele>49.666666666666664</ele><time>2026-04-14T04:43:30.001Z</time></trkpt><trkpt lat="14.407079408833905" lon="121.01204503526729"><ele>50.33333333333333</ele><time>2026-04-14T04:43:31Z</time></trkpt><trkpt lat="14.406948347774021" lon="121.01196666747593"><ele>51.0</ele><time>2026-04-14T04:43:32Z</time></trkpt><trkpt lat="14.406814914280842" lon="121.01189564031104"><ele>51.0</ele><time>2026-04-14T04:43:33Z</time></trkpt><trkpt lat="14.406677821613417" lon="121.0118437745279"><ele>51.0</ele><time>2026-04-14T04:43:34Z</time></trkpt><trkpt lat="14.406527992580497" lon="121.01180283068466"><ele>51.0</ele><time>2026-04-14T04:43:35Z</time></trkpt><trkpt lat="14.406385351507964" lon="121.01177590088109"><ele>51.0</ele><time>2026-04-14T04:43:36Z</time></trkpt><trkpt lat="14.406235712285172" lon="121.01176067611182"><ele>51.25</ele><time>2026-04-14T04:43:37Z</time></trkpt><trkpt lat="14.406090411143158" lon="121.01175068410464"><ele>51.5</ele><time>2026-04-14T04:43:38Z</time></trkpt><trkpt lat="14.40594789423553" lon="121.0117551822733"><ele>51.75</ele><time>2026-04-14T04:43:39Z</time></trkpt><trkpt lat="14.405821500179965" lon="121.0117722859633"><ele>52.0</ele><time>2026-04-14T04:43:40Z</time></trkpt><trkpt lat="14.40569774509986" lon="121.0118016951826"><ele>52.0</ele><time>2026-04-14T04:43:41Z</time></trkpt><trkpt lat="14.405586828615125" lon="121.01184083784128"><ele>52.0</ele><time>2026-04-14T04:43:42Z</time></trkpt><trkpt lat="14.405483933370478" lon="121.01190346063487"><ele>52.0</ele><time>2026-04-14T04:43:43Z</time></trkpt><trkpt lat="14.405396483956304" lon="121.01198712736678"><ele>52.0</ele><time>2026-04-14T04:43:44Z</time></trkpt><trkpt lat="14.405315402875104" lon="121.01207888965885"><ele>52.25</ele><time>2026-04-14T04:43:45Z</time></trkpt><trkpt lat="14.405227053726284" lon="121.01216569362843"><ele>52.5</ele><time>2026-04-14T04:43:46Z</time></trkpt><trkpt lat="14.405127359802545" lon="121.01223277059415"><ele>52.75</ele><time>2026-04-14T04:43:47Z</time></trkpt><trkpt lat="14.405017531269651" lon="121.0122760682467"><ele>53.0</ele><time>2026-04-14T04:43:48Z</time></trkpt><trkpt lat="14.404912674636257" lon="121.01229777452784"><ele>53.0</ele><time>2026-04-14T04:43:49Z</time></trkpt><trkpt lat="14.404791678059118" lon="121.01229722022033"><ele>53.0</ele><time>2026-04-14T04:43:50Z</time></trkpt><trkpt lat="14.404664669973945" lon="121.01227683064607"><ele>53.0</ele><time>2026-04-14T04:43:51Z</time></trkpt><trkpt lat="14.404528308755417" lon="121.01224842682977"><ele>53.0</ele><time>2026-04-14T04:43:52Z</time></trkpt><trkpt lat="14.404387099246376" lon="121.01222772319362"><ele>52.75</ele><time>2026-04-14T04:43:53Z</time></trkpt><trkpt lat="14.404242952824502" lon="121.01220756345256"><ele>52.5</ele><time>2026-04-14T04:43:54Z</time></trkpt><trkpt lat="14.404110553245063" lon="121.01218762637856"><ele>52.25</ele><time>2026-04-14T04:43:55Z</time></trkpt><trkpt lat="14.40398934327912" lon="121.0121730821137"><ele>52.0</ele><time>2026-04-14T04:43:56Z</time></trkpt><trkpt lat="14.40386792557544" lon="121.01215865917531"><ele>51.8</ele><time>2026-04-14T04:43:57Z</time></trkpt><trkpt lat="14.403761716514557" lon="121.01214754875807"><ele>51.6</ele><time>2026-04-14T04:43:58Z</time></trkpt><trkpt lat="14.403657954803732" lon="121.01213585817378"><ele>51.4</ele><time>2026-04-14T04:43:59Z</time></trkpt><trkpt lat="14.403575994929465" lon="121.01212164334655"><ele>51.199999999999996</ele><time>2026-04-14T04:44:00Z</time></trkpt><trkpt lat="14.403506935694914" lon="121.01211039269235"><ele>51.0</ele><time>2026-04-14T04:44:01Z</time></trkpt><trkpt lat="14.403420101483972" lon="121.01210233430825"><ele>51.0</ele><time>2026-04-14T04:44:03Z</time></trkpt><trkpt lat="14.403338007659448" lon="121.01209662837458"><ele>51.0</ele><time>2026-04-14T04:44:06Z</time></trkpt><trkpt lat="14.403257889035157" lon="121.01209189731964"><ele>51.0</ele><time>2026-04-14T04:44:15.001Z</time></trkpt><trkpt lat="14.403189996119831" lon="121.01208656539724"><ele>51.0</ele><time>2026-04-14T04:44:16.001Z</time></trkpt><trkpt lat="14.403114198683289" lon="121.01207248309571"><ele>51.0</ele><time>2026-04-14T04:44:17.001Z</time></trkpt><trkpt lat="14.403021534651977" lon="121.01205795057237"><ele>51.0</ele><time>2026-04-14T04:44:18.001Z</time></trkpt><trkpt lat="14.402920833062874" lon="121.0120461002345"><ele>51.25</ele><time>2026-04-14T04:44:19.001Z</time></trkpt><trkpt lat="14.402811219691376" lon="121.01202857343013"><ele>51.5</ele><time>2026-04-14T04:44:20.001Z</time></trkpt><trkpt lat="14.402699340565004" lon="121.01201100773638"><ele>51.75</ele><time>2026-04-14T04:44:21.001Z</time></trkpt><trkpt lat="14.402586015636654" lon="121.01199478351232"><ele>52.0</ele><time>2026-04-14T04:44:22.001Z</time></trkpt><trkpt lat="14.402462690481771" lon="121.0119791145966"><ele>52.0</ele><time>2026-04-14T04:44:23.001Z</time></trkpt><trkpt lat="14.402336382761224" lon="121.01196385193475"><ele>52.0</ele><time>2026-04-14T04:44:24.001Z</time></trkpt><trkpt lat="14.402207569929342" lon="121.01194802954227"><ele>52.0</ele><time>2026-04-14T04:44:25.001Z</time></trkpt><trkpt lat="14.402070629779745" lon="121.0119341507172"><ele>52.0</ele><time>2026-04-14T04:44:26.001Z</time></trkpt><trkpt lat="14.401927435817646" lon="121.01191720770102"><ele>52.25</ele><time>2026-04-14T04:44:27.001Z</time></trkpt><trkpt lat="14.40178457785167" lon="121.01189967882956"><ele>52.5</ele><time>2026-04-14T04:44:28.001Z</time></trkpt><trkpt lat="14.401636539288459" lon="121.01188388787978"><ele>52.75</ele><time>2026-04-14T04:44:29.001Z</time></trkpt><trkpt lat="14.401483046713656" lon="121.01186857132086"><ele>53.0</ele><time>2026-04-14T04:44:30.001Z</time></trkpt><trkpt lat="14.4013271361448" lon="121.01185262974828"><ele>54.0</ele><time>2026-04-14T04:44:31.001Z</time></trkpt><trkpt lat="14.401174947274566" lon="121.0118388872327"><ele>55.0</ele><time>2026-04-14T04:44:32.001Z</time></trkpt><trkpt lat="14.401037137868585" lon="121.01182264711312"><ele>56.0</ele><time>2026-04-14T04:44:33.001Z</time></trkpt><trkpt lat="14.400902809854848" lon="121.01180643324365"><ele>57.0</ele><time>2026-04-14T04:44:34.001Z</time></trkpt><trkpt lat="14.400777000086732" lon="121.01179043841515"><ele>57.0</ele><time>2026-04-14T04:44:35.001Z</time></trkpt><trkpt lat="14.400661733709374" lon="121.01177755252685"><ele>57.0</ele><time>2026-04-14T04:44:36.001Z</time></trkpt><trkpt lat="14.40054899719587" lon="121.01176398244357"><ele>57.0</ele><time>2026-04-14T04:44:37.001Z</time></trkpt><trkpt lat="14.400431874139073" lon="121.01175233529317"><ele>57.0</ele><time>2026-04-14T04:44:38.001Z</time></trkpt><trkpt lat="14.400311726758112" lon="121.01174458919162"><ele>55.75</ele><time>2026-04-14T04:44:39.001Z</time></trkpt><trkpt lat="14.400187367973462" lon="121.011736389242"><ele>54.5</ele><time>2026-04-14T04:44:40.001Z</time></trkpt><trkpt lat="14.400058221646578" lon="121.0117279904468"><ele>53.25</ele><time>2026-04-14T04:44:41.001Z</time></trkpt><trkpt lat="14.399927615999044" lon="121.01172522662738"><ele>52.0</ele><time>2026-04-14T04:44:42.001Z</time></trkpt><trkpt lat="14.399802266975872" lon="121.01172031730341"><ele>52.0</ele><time>2026-04-14T04:44:43.001Z</time></trkpt><trkpt lat="14.399671642540515" lon="121.01171190671766"><ele>52.0</ele><time>2026-04-14T04:44:44.001Z</time></trkpt><trkpt lat="14.399542978276237" lon="121.01169357345799"><ele>52.0</ele><time>2026-04-14T04:44:45.001Z</time></trkpt><trkpt lat="14.399401524395177" lon="121.01167477084736"><ele>52.0</ele><time>2026-04-14T04:44:46.001Z</time></trkpt><trkpt lat="14.399264594536552" lon="121.01165546483566"><ele>52.25</ele><time>2026-04-14T04:44:47.001Z</time></trkpt><trkpt lat="14.399120534854207" lon="121.01163475250034"><ele>52.5</ele><time>2026-04-14T04:44:48.001Z</time></trkpt><trkpt lat="14.398975384357728" lon="121.01161414711756"><ele>52.75</ele><time>2026-04-14T04:44:49.001Z</time></trkpt><trkpt lat="14.398821354700718" lon="121.01158333030087"><ele>53.0</ele><time>2026-04-14T04:44:50.001Z</time></trkpt><trkpt lat="14.398675113415631" lon="121.01153887772625"><ele>53.75</ele><time>2026-04-14T04:44:51.001Z</time></trkpt><trkpt lat="14.398526632638852" lon="121.01148907914852"><ele>54.5</ele><time>2026-04-14T04:44:52.001Z</time></trkpt><trkpt lat="14.398385193683037" lon="121.0114416342637"><ele>55.25</ele><time>2026-04-14T04:44:53.001Z</time></trkpt><trkpt lat="14.398248731682395" lon="121.01139705239407"><ele>56.0</ele><time>2026-04-14T04:44:54.001Z</time></trkpt><trkpt lat="14.398121165848343" lon="121.01135692333378"><ele>56.0</ele><time>2026-04-14T04:44:55.001Z</time></trkpt><trkpt lat="14.398004965882372" lon="121.01132073101266"><ele>55.99999999999999</ele><time>2026-04-14T04:44:56.001Z</time></trkpt><trkpt lat="14.397894893823254" lon="121.01128587638219"><ele>55.99999999999999</ele><time>2026-04-14T04:44:57.001Z</time></trkpt><trkpt lat="14.397794571192826" lon="121.01125405062402"><ele>56.0</ele><time>2026-04-14T04:44:58.001Z</time></trkpt><trkpt lat="14.39769887161426" lon="121.01123394772236"><ele>56.0</ele><time>2026-04-14T04:44:59.001Z</time></trkpt><trkpt lat="14.397598320993948" lon="121.01121092338501"><ele>55.8</ele><time>2026-04-14T04:45:00.001Z</time></trkpt><trkpt lat="14.397501477565644" lon="121.01118169837886"><ele>55.599999999999994</ele><time>2026-04-14T04:45:01.001Z</time></trkpt><trkpt lat="14.397392678927034" lon="121.01114699172359"><ele>55.4</ele><time>2026-04-14T04:45:02.001Z</time></trkpt><trkpt lat="14.397295256626627" lon="121.0111160674022"><ele>55.2</ele><time>2026-04-14T04:45:03.001Z</time></trkpt><trkpt lat="14.397198177745791" lon="121.01108489895604"><ele>55.0</ele><time>2026-04-14T04:45:04.001Z</time></trkpt><trkpt lat="14.39709739373354" lon="121.01105078666029"><ele>55.5</ele><time>2026-04-14T04:45:05.001Z</time></trkpt><trkpt lat="14.396992995929626" lon="121.01101003499183"><ele>56.0</ele><time>2026-04-14T04:45:06.001Z</time></trkpt><trkpt lat="14.396885079454592" lon="121.0109705153438"><ele>56.5</ele><time>2026-04-14T04:45:07.001Z</time></trkpt><trkpt lat="14.396762036516757" lon="121.01093826672057"><ele>57.0</ele><time>2026-04-14T04:45:08.001Z</time></trkpt><trkpt lat="14.396639424991893" lon="121.01090266225307"><ele>57.0</ele><time>2026-04-14T04:45:09.001Z</time></trkpt><trkpt lat="14.396510216290482" lon="121.01085674759815"><ele>57.0</ele><time>2026-04-14T04:45:10.001Z</time></trkpt><trkpt lat="14.396378704796748" lon="121.01081456649443"><ele>57.0</ele><time>2026-04-14T04:45:11.001Z</time></trkpt><trkpt lat="14.396236114206365" lon="121.0107731064664"><ele>57.0</ele><time>2026-04-14T04:45:12.001Z</time></trkpt><trkpt lat="14.396091870448451" lon="121.01073064673487"><ele>57.33333333333333</ele><time>2026-04-14T04:45:13.001Z</time></trkpt><trkpt lat="14.395937399000319" lon="121.01068275595613"><ele>57.666666666666664</ele><time>2026-04-14T04:45:14.001Z</time></trkpt><trkpt lat="14.395786282007782" lon="121.01063185963231"><ele>58.0</ele><time>2026-04-14T04:45:15.001Z</time></trkpt><trkpt lat="14.395630070436598" lon="121.01058008527005"><ele>58.33333333333333</ele><time>2026-04-14T04:45:16.001Z</time></trkpt><trkpt lat="14.3954725401507" lon="121.01052997138059"><ele>58.66666666666667</ele><time>2026-04-14T04:45:17.001Z</time></trkpt><trkpt lat="14.395309036658222" lon="121.01048078033102"><ele>59.0</ele><time>2026-04-14T04:45:18.001Z</time></trkpt><trkpt lat="14.395143626240047" lon="121.01043122346977"><ele>59.0</ele><time>2026-04-14T04:45:19.001Z</time></trkpt><trkpt lat="14.394987858092293" lon="121.01038088484974"><ele>59.0</ele><time>2026-04-14T04:45:20.001Z</time></trkpt><trkpt lat="14.394820730881762" lon="121.010329012181"><ele>59.0</ele><time>2026-04-14T04:45:21.001Z</time></trkpt><trkpt lat="14.39466414504045" lon="121.01027599247463"><ele>59.0</ele><time>2026-04-14T04:45:22.001Z</time></trkpt><trkpt lat="14.39451907168321" lon="121.01022445915375"><ele>59.0</ele><time>2026-04-14T04:45:23.001Z</time></trkpt><trkpt lat="14.39437312973891" lon="121.01017222422236"><ele>59.0</ele><time>2026-04-14T04:45:24.001Z</time></trkpt><trkpt lat="14.394219328288532" lon="121.01012324304324"><ele>59.0</ele><time>2026-04-14T04:45:25.001Z</time></trkpt><trkpt lat="14.394062976498288" lon="121.01007473341048"><ele>59.0</ele><time>2026-04-14T04:45:26.001Z</time></trkpt><trkpt lat="14.393911115792545" lon="121.01002505988096"><ele>59.0</ele><time>2026-04-14T04:45:27.001Z</time></trkpt><trkpt lat="14.393768785564637" lon="121.00997499847986"><ele>58.0</ele><time>2026-04-14T04:45:28.001Z</time></trkpt><trkpt lat="14.39361667934497" lon="121.00992818044523"><ele>57.0</ele><time>2026-04-14T04:45:29.001Z</time></trkpt><trkpt lat="14.393463135805034" lon="121.00988748869344"><ele>56.0</ele><time>2026-04-14T04:45:30.001Z</time></trkpt><trkpt lat="14.39329863275821" lon="121.00983748894195"><ele>56.0</ele><time>2026-04-14T04:45:31.001Z</time></trkpt><trkpt lat="14.393134276297742" lon="121.00978532009039"><ele>56.0</ele><time>2026-04-14T04:45:32.001Z</time></trkpt><trkpt lat="14.3929639843112" lon="121.00972992826104"><ele>56.0</ele><time>2026-04-14T04:45:33.001Z</time></trkpt><trkpt lat="14.392793072118222" lon="121.00967445334427"><ele>57.333333333333336</ele><time>2026-04-14T04:45:34.001Z</time></trkpt><trkpt lat="14.392625398449956" lon="121.00960325225024"><ele>58.66666666666667</ele><time>2026-04-14T04:45:35.001Z</time></trkpt><trkpt lat="14.392456084415457" lon="121.00954517730537"><ele>60.0</ele><time>2026-04-14T04:45:36.001Z</time></trkpt><trkpt lat="14.392298974896168" lon="121.0094908782985"><ele>59.33333333333333</ele><time>2026-04-14T04:45:37Z</time></trkpt><trkpt lat="14.392144839817373" lon="121.00943748504469"><ele>58.666666666666664</ele><time>2026-04-14T04:45:38Z</time></trkpt><trkpt lat="14.391986934943073" lon="121.00938303201988"><ele>58.0</ele><time>2026-04-14T04:45:39Z</time></trkpt><trkpt lat="14.391843442784488" lon="121.00932801433159"><ele>58.0</ele><time>2026-04-14T04:45:40Z</time></trkpt><trkpt lat="14.391695485106325" lon="121.00929371943471"><ele>58.0</ele><time>2026-04-14T04:45:41Z</time></trkpt><trkpt lat="14.391560707586565" lon="121.00927247701222"><ele>58.0</ele><time>2026-04-14T04:45:42Z</time></trkpt><trkpt lat="14.391432391484663" lon="121.00927667643168"><ele>58.0</ele><time>2026-04-14T04:45:43Z</time></trkpt><trkpt lat="14.39128864495386" lon="121.00930415833216"><ele>57.0</ele><time>2026-04-14T04:45:44Z</time></trkpt><trkpt lat="14.391140886123262" lon="121.0093400665088"><ele>56.0</ele><time>2026-04-14T04:45:45Z</time></trkpt><trkpt lat="14.390988991666953" lon="121.00936557714112"><ele>55.0</ele><time>2026-04-14T04:45:46Z</time></trkpt><trkpt lat="14.390831688727134" lon="121.00938924913764"><ele>55.0</ele><time>2026-04-14T04:45:47Z</time></trkpt><trkpt lat="14.390668519197627" lon="121.00941626762022"><ele>55.0</ele><time>2026-04-14T04:45:48Z</time></trkpt><trkpt lat="14.390501494706262" lon="121.00944223791085"><ele>55.0</ele><time>2026-04-14T04:45:49Z</time></trkpt><trkpt lat="14.390329481347775" lon="121.00946771591691"><ele>54.33333333333333</ele><time>2026-04-14T04:45:50Z</time></trkpt><trkpt lat="14.390157352868156" lon="121.00949532962629"><ele>53.66666666666667</ele><time>2026-04-14T04:45:51Z</time></trkpt><trkpt lat="14.389972278359053" lon="121.00952892865469"><ele>53.0</ele><time>2026-04-14T04:45:52Z</time></trkpt><trkpt lat="14.389792566615785" lon="121.00955761137944"><ele>51.333333333333336</ele><time>2026-04-14T04:45:53Z</time></trkpt><trkpt lat="14.389622457416648" lon="121.00957910077847"><ele>49.66666666666667</ele><time>2026-04-14T04:45:54Z</time></trkpt><trkpt lat="14.38945457705773" lon="121.00960966933044"><ele>48.0</ele><time>2026-04-14T04:45:55Z</time></trkpt><trkpt lat="14.389286129336394" lon="121.00963359168709"><ele>48.0</ele><time>2026-04-14T04:45:56Z</time></trkpt><trkpt lat="14.389113727869798" lon="121.00965864089322"><ele>48.0</ele><time>2026-04-14T04:45:57Z</time></trkpt><trkpt lat="14.388946108291915" lon="121.00968366067258"><ele>48.0</ele><time>2026-04-14T04:45:58Z</time></trkpt><trkpt lat="14.388782947595924" lon="121.00970677651758"><ele>49.66666666666667</ele><time>2026-04-14T04:45:59Z</time></trkpt><trkpt lat="14.388621765020352" lon="121.00973096360207"><ele>51.333333333333336</ele><time>2026-04-14T04:46:00Z</time></trkpt><trkpt lat="14.388453511689935" lon="121.00975774562245"><ele>53.0</ele><time>2026-04-14T04:46:01Z</time></trkpt><trkpt lat="14.38828600550029" lon="121.00978301367212"><ele>53.0</ele><time>2026-04-14T04:46:02Z</time></trkpt><trkpt lat="14.388114179325026" lon="121.00981344773187"><ele>53.0</ele><time>2026-04-14T04:46:03Z</time></trkpt><trkpt lat="14.387936782472593" lon="121.00984351146695"><ele>53.0</ele><time>2026-04-14T04:46:04Z</time></trkpt><trkpt lat="14.387761404265508" lon="121.00987182862572"><ele>53.333333333333336</ele><time>2026-04-14T04:46:05Z</time></trkpt><trkpt lat="14.3875800198431" lon="121.00989826220717"><ele>53.66666666666667</ele><time>2026-04-14T04:46:06Z</time></trkpt><trkpt lat="14.387395245276338" lon="121.00992602988359"><ele>54.0</ele><time>2026-04-14T04:46:07Z</time></trkpt><trkpt lat="14.387204037520894" lon="121.00995443226975"><ele>55.33333333333333</ele><time>2026-04-14T04:46:08Z</time></trkpt><trkpt lat="14.387013965483575" lon="121.00998326728299"><ele>56.666666666666664</ele><time>2026-04-14T04:46:09Z</time></trkpt><trkpt lat="14.386822596033452" lon="121.01001315212845"><ele>58.0</ele><time>2026-04-14T04:46:10Z</time></trkpt><trkpt lat="14.38663331028208" lon="121.01004554368764"><ele>58.33333333333333</ele><time>2026-04-14T04:46:11Z</time></trkpt><trkpt lat="14.386445647094995" lon="121.01007654476876"><ele>58.66666666666667</ele><time>2026-04-14T04:46:12Z</time></trkpt><trkpt lat="14.38626129685192" lon="121.01011001790562"><ele>59.0</ele><time>2026-04-14T04:46:13Z</time></trkpt><trkpt lat="14.38609070774205" lon="121.01013663542372"><ele>59.0</ele><time>2026-04-14T04:46:14Z</time></trkpt><trkpt lat="14.385929609466388" lon="121.01015722460399"><ele>59.0</ele><time>2026-04-14T04:46:15Z</time></trkpt><trkpt lat="14.385780147682556" lon="121.01017483639077"><ele>59.0</ele><time>2026-04-14T04:46:16Z</time></trkpt><trkpt lat="14.385645137140692" lon="121.01019124883688"><ele>59.0</ele><time>2026-04-14T04:46:17Z</time></trkpt><trkpt lat="14.385534019683746" lon="121.01020720225095"><ele>58.6</ele><time>2026-04-14T04:46:18Z</time></trkpt><trkpt lat="14.385435174306757" lon="121.0102226539845"><ele>58.2</ele><time>2026-04-14T04:46:19Z</time></trkpt><trkpt lat="14.38535974792831" lon="121.01023710416288"><ele>57.800000000000004</ele><time>2026-04-14T04:46:20Z</time></trkpt><trkpt lat="14.38525498663565" lon="121.01025310070867"><ele>57.400000000000006</ele><time>2026-04-14T04:46:22Z</time></trkpt><trkpt lat="14.385182986484482" lon="121.01025526529925"><ele>57.0</ele><time>2026-04-14T04:47:01.001Z</time></trkpt><trkpt lat="14.385049809586292" lon="121.0102771454611"><ele>57.0</ele><time>2026-04-14T04:47:03.001Z</time></trkpt><trkpt lat="14.384959881079492" lon="121.01029757187567"><ele>57.0</ele><time>2026-04-14T04:47:04.001Z</time></trkpt><trkpt lat="14.384869599304094" lon="121.0103224130957"><ele>57.0</ele><time>2026-04-14T04:47:05.001Z</time></trkpt><trkpt lat="14.384776075374067" lon="121.01035981973614"><ele>57.0</ele><time>2026-04-14T04:47:06.001Z</time></trkpt><trkpt lat="14.384677365285945" lon="121.01040159746859"><ele>57.0</ele><time>2026-04-14T04:47:07.001Z</time></trkpt><trkpt lat="14.384578146505843" lon="121.01044756032057"><ele>58.25</ele><time>2026-04-14T04:47:08.001Z</time></trkpt><trkpt lat="14.38447882634473" lon="121.0105072179812"><ele>59.5</ele><time>2026-04-14T04:47:09.001Z</time></trkpt><trkpt lat="14.384371432834966" lon="121.01057912001157"><ele>60.75</ele><time>2026-04-14T04:47:10.001Z</time></trkpt><trkpt lat="14.38425294980018" lon="121.01065841653197"><ele>62.0</ele><time>2026-04-14T04:47:11.001Z</time></trkpt><trkpt lat="14.38412929546488" lon="121.01074189585854"><ele>61.66666666666667</ele><time>2026-04-14T04:47:12.001Z</time></trkpt><trkpt lat="14.384000455232352" lon="121.01083355658075"><ele>61.33333333333333</ele><time>2026-04-14T04:47:13.001Z</time></trkpt><trkpt lat="14.383869271961373" lon="121.01092786559182"><ele>61.0</ele><time>2026-04-14T04:47:14.001Z</time></trkpt><trkpt lat="14.383737047076396" lon="121.0110251119177"><ele>61.0</ele><time>2026-04-14T04:47:15.001Z</time></trkpt><trkpt lat="14.383599247311265" lon="121.0111189413875"><ele>61.0</ele><time>2026-04-14T04:47:16.001Z</time></trkpt><trkpt lat="14.383458688828728" lon="121.01121699521788"><ele>61.0</ele><time>2026-04-14T04:47:17.001Z</time></trkpt><trkpt lat="14.383315004280018" lon="121.01131715510114"><ele>61.0</ele><time>2026-04-14T04:47:18.001Z</time></trkpt><trkpt lat="14.38316431024056" lon="121.01142140114324"><ele>61.0</ele><time>2026-04-14T04:47:19.001Z</time></trkpt><trkpt lat="14.38301137125803" lon="121.01152756646647"><ele>61.0</ele><time>2026-04-14T04:47:20.001Z</time></trkpt><trkpt lat="14.382858223934067" lon="121.01163537092398"><ele>61.666666666666664</ele><time>2026-04-14T04:47:21.001Z</time></trkpt><trkpt lat="14.38270231561443" lon="121.01174740144334"><ele>62.33333333333333</ele><time>2026-04-14T04:47:22.001Z</time></trkpt><trkpt lat="14.382543502612211" lon="121.0118574700212"><ele>63.0</ele><time>2026-04-14T04:47:23.001Z</time></trkpt><trkpt lat="14.382386446894397" lon="121.01196901516415"><ele>63.0</ele><time>2026-04-14T04:47:24.001Z</time></trkpt><trkpt lat="14.382225455649463" lon="121.0120860847062"><ele>63.0</ele><time>2026-04-14T04:47:25.001Z</time></trkpt><trkpt lat="14.382064358765351" lon="121.0122008055841"><ele>63.0</ele><time>2026-04-14T04:47:26.001Z</time></trkpt><trkpt lat="14.38190026240863" lon="121.01231591949757"><ele>63.0</ele><time>2026-04-14T04:47:27.001Z</time></trkpt><trkpt lat="14.381732182681253" lon="121.01242950356675"><ele>63.0</ele><time>2026-04-14T04:47:28.001Z</time></trkpt><trkpt lat="14.381565214008152" lon="121.01254362508925"><ele>63.0</ele><time>2026-04-14T04:47:29.001Z</time></trkpt><trkpt lat="14.381398388099443" lon="121.01265516526941"><ele>63.0</ele><time>2026-04-14T04:47:30.001Z</time></trkpt><trkpt lat="14.381233111443574" lon="121.01276796508228"><ele>63.0</ele><time>2026-04-14T04:47:31.001Z</time></trkpt><trkpt lat="14.381073100694" lon="121.01287953755569"><ele>63.0</ele><time>2026-04-14T04:47:32.001Z</time></trkpt><trkpt lat="14.380912509275738" lon="121.01299119673034"><ele>63.0</ele><time>2026-04-14T04:47:33.001Z</time></trkpt><trkpt lat="14.380760028343495" lon="121.01309451171922"><ele>63.0</ele><time>2026-04-14T04:47:34.001Z</time></trkpt><trkpt lat="14.380612868752268" lon="121.01319119057868"><ele>63.0</ele><time>2026-04-14T04:47:35.001Z</time></trkpt><trkpt lat="14.380465007046821" lon="121.0132774071485"><ele>63.66666666666667</ele><time>2026-04-14T04:47:36.001Z</time></trkpt><trkpt lat="14.380309452698281" lon="121.01334672512814"><ele>64.33333333333334</ele><time>2026-04-14T04:47:37.001Z</time></trkpt><trkpt lat="14.38014922302335" lon="121.01339832227717"><ele>65.0</ele><time>2026-04-14T04:47:38.001Z</time></trkpt><trkpt lat="14.379983863432525" lon="121.0134344667516"><ele>65.0</ele><time>2026-04-14T04:47:39.001Z</time></trkpt><trkpt lat="14.379815632324469" lon="121.01344755096221"><ele>65.0</ele><time>2026-04-14T04:47:40.001Z</time></trkpt><trkpt lat="14.379642425692053" lon="121.01343783271673"><ele>65.0</ele><time>2026-04-14T04:47:41.001Z</time></trkpt><trkpt lat="14.379466560505758" lon="121.01341249437492"><ele>63.66666666666667</ele><time>2026-04-14T04:47:42.001Z</time></trkpt><trkpt lat="14.379287856704819" lon="121.01337711771853"><ele>62.33333333333333</ele><time>2026-04-14T04:47:43Z</time></trkpt><trkpt lat="14.379104876817392" lon="121.01334206701611"><ele>61.0</ele><time>2026-04-14T04:47:44Z</time></trkpt><trkpt lat="14.378922840695767" lon="121.01330802925632"><ele>60.0</ele><time>2026-04-14T04:47:45Z</time></trkpt><trkpt lat="14.378747118000646" lon="121.01327669618101"><ele>59.0</ele><time>2026-04-14T04:47:46Z</time></trkpt><trkpt lat="14.378568003138744" lon="121.0132455346281"><ele>58.0</ele><time>2026-04-14T04:47:47Z</time></trkpt><trkpt lat="14.378386309523123" lon="121.01321380436043"><ele>58.0</ele><time>2026-04-14T04:47:48Z</time></trkpt><trkpt lat="14.378200312120429" lon="121.01318185920017"><ele>58.0</ele><time>2026-04-14T04:47:49Z</time></trkpt><trkpt lat="14.378017690182288" lon="121.01314956170613"><ele>58.0</ele><time>2026-04-14T04:47:50Z</time></trkpt><trkpt lat="14.37783158572761" lon="121.01312040735557"><ele>59.666666666666664</ele><time>2026-04-14T04:47:51Z</time></trkpt><trkpt lat="14.377641994085856" lon="121.01309063974453"><ele>61.33333333333333</ele><time>2026-04-14T04:47:52Z</time></trkpt><trkpt lat="14.37745689533017" lon="121.01305728328767"><ele>63.0</ele><time>2026-04-14T04:47:53Z</time></trkpt><trkpt lat="14.377278178161623" lon="121.01302520668365"><ele>63.0</ele><time>2026-04-14T04:47:54Z</time></trkpt><trkpt lat="14.377109241290439" lon="121.01299698855038"><ele>63.0</ele><time>2026-04-14T04:47:55Z</time></trkpt><trkpt lat="14.376949835619223" lon="121.01296902586617"><ele>63.0</ele><time>2026-04-14T04:47:56Z</time></trkpt><trkpt lat="14.376788357120729" lon="121.01293857060514"><ele>63.0</ele><time>2026-04-14T04:47:57Z</time></trkpt><trkpt lat="14.376630564431343" lon="121.01291439837094"><ele>63.0</ele><time>2026-04-14T04:47:58Z</time></trkpt><trkpt lat="14.376482958616272" lon="121.0128881748687"><ele>63.0</ele><time>2026-04-14T04:47:59Z</time></trkpt><trkpt lat="14.376336296147247" lon="121.01286100528532"><ele>63.75</ele><time>2026-04-14T04:48:00Z</time></trkpt><trkpt lat="14.376201247397203" lon="121.0128316202958"><ele>64.5</ele><time>2026-04-14T04:48:01Z</time></trkpt><trkpt lat="14.376066330731703" lon="121.01280437466082"><ele>65.25</ele><time>2026-04-14T04:48:02Z</time></trkpt><trkpt lat="14.375940287755698" lon="121.01277572660477"><ele>66.0</ele><time>2026-04-14T04:48:03Z</time></trkpt><trkpt lat="14.37580508987533" lon="121.01274557973606"><ele>66.0</ele><time>2026-04-14T04:48:04Z</time></trkpt><trkpt lat="14.375673867953594" lon="121.0127129030876"><ele>66.0</ele><time>2026-04-14T04:48:05Z</time></trkpt><trkpt lat="14.375545358258146" lon="121.01266086162263"><ele>66.0</ele><time>2026-04-14T04:48:06Z</time></trkpt><trkpt lat="14.375419692313773" lon="121.01259390772258"><ele>66.0</ele><time>2026-04-14T04:48:07Z</time></trkpt><trkpt lat="14.375306305995338" lon="121.01251932424975"><ele>65.5</ele><time>2026-04-14T04:48:08Z</time></trkpt><trkpt lat="14.375201948379438" lon="121.01243098296253"><ele>65.0</ele><time>2026-04-14T04:48:09Z</time></trkpt><trkpt lat="14.375100606847623" lon="121.01233588183246"><ele>64.5</ele><time>2026-04-14T04:48:10Z</time></trkpt><trkpt lat="14.37501378657942" lon="121.0122306731365"><ele>64.0</ele><time>2026-04-14T04:48:11Z</time></trkpt><trkpt lat="14.374942860136075" lon="121.01211547543994"><ele>64.0</ele><time>2026-04-14T04:48:12Z</time></trkpt><trkpt lat="14.374886323220633" lon="121.01200313661381"><ele>64.0</ele><time>2026-04-14T04:48:13Z</time></trkpt><trkpt lat="14.37485091036984" lon="121.0119042503514"><ele>64.0</ele><time>2026-04-14T04:48:14Z</time></trkpt><trkpt lat="14.374831832630962" lon="121.01182598025649"><ele>64.0</ele><time>2026-04-14T04:48:15Z</time></trkpt><trkpt lat="14.37481977839775" lon="121.01175722695851"><ele>64.0</ele><time>2026-04-14T04:48:16Z</time></trkpt><trkpt lat="14.37480542315008" lon="121.01166400754846"><ele>62.6</ele><time>2026-04-14T04:48:18Z</time></trkpt><trkpt lat="14.374792511119711" lon="121.01159806315879"><ele>61.2</ele><time>2026-04-14T04:48:20Z</time></trkpt><trkpt lat="14.374781077271868" lon="121.01152926028074"><ele>59.800000000000004</ele><time>2026-04-14T04:48:23Z</time></trkpt><trkpt lat="14.37477241698133" lon="121.01141674950372"><ele>58.400000000000006</ele><time>2026-04-14T04:48:29Z</time></trkpt><trkpt lat="14.374754358267806" lon="121.01126827448905"><ele>57.0</ele><time>2026-04-14T04:48:31Z</time></trkpt><trkpt lat="14.374745008253338" lon="121.01117992948586"><ele>57.0</ele><time>2026-04-14T04:48:32Z</time></trkpt><trkpt lat="14.374737035282372" lon="121.01107052785802"><ele>57.0</ele><time>2026-04-14T04:48:33.001Z</time></trkpt><trkpt lat="14.374729592869212" lon="121.01096333714752"><ele>57.0</ele><time>2026-04-14T04:48:34.001Z</time></trkpt><trkpt lat="14.374723103825561" lon="121.0108449510327"><ele>57.0</ele><time>2026-04-14T04:48:35.001Z</time></trkpt><trkpt lat="14.374724125240895" lon="121.01072338265779"><ele>57.0</ele><time>2026-04-14T04:48:36.001Z</time></trkpt><trkpt lat="14.374721950242035" lon="121.01059142786134"><ele>57.75</ele><time>2026-04-14T04:48:37.001Z</time></trkpt><trkpt lat="14.374721719046555" lon="121.01046454451573"><ele>58.5</ele><time>2026-04-14T04:48:38.001Z</time></trkpt><trkpt lat="14.37471807864223" lon="121.01032600080872"><ele>59.25</ele><time>2026-04-14T04:48:39.001Z</time></trkpt><trkpt lat="14.374717491785068" lon="121.01018839820344"><ele>60.0</ele><time>2026-04-14T04:48:40.001Z</time></trkpt><trkpt lat="14.374719878861164" lon="121.01004232047016"><ele>61.5</ele><time>2026-04-14T04:48:41.001Z</time></trkpt><trkpt lat="14.374722855951052" lon="121.00989731668392"><ele>63.0</ele><time>2026-04-14T04:48:42.001Z</time></trkpt><trkpt lat="14.374719556226518" lon="121.00974681018263"><ele>64.5</ele><time>2026-04-14T04:48:43.001Z</time></trkpt><trkpt lat="14.374724813920144" lon="121.00960390954609"><ele>66.0</ele><time>2026-04-14T04:48:44.001Z</time></trkpt><trkpt lat="14.374725069371861" lon="121.00946008577058"><ele>66.0</ele><time>2026-04-14T04:48:45.001Z</time></trkpt><trkpt lat="14.374720635562191" lon="121.009315146793"><ele>66.0</ele><time>2026-04-14T04:48:46.001Z</time></trkpt><trkpt lat="14.374728588308496" lon="121.00918861676816"><ele>66.0</ele><time>2026-04-14T04:48:47.001Z</time></trkpt><trkpt lat="14.374730627416579" lon="121.00905748275417"><ele>66.0</ele><time>2026-04-14T04:48:48.001Z</time></trkpt><trkpt lat="14.374732973945509" lon="121.00892319180632"><ele>66.0</ele><time>2026-04-14T04:48:49.001Z</time></trkpt><trkpt lat="14.374734623099783" lon="121.00879007939446"><ele>66.0</ele><time>2026-04-14T04:48:50.001Z</time></trkpt><trkpt lat="14.374730649150614" lon="121.00865203796305"><ele>66.0</ele><time>2026-04-14T04:48:51.001Z</time></trkpt><trkpt lat="14.374731393282966" lon="121.00852033567313"><ele>66.0</ele><time>2026-04-14T04:48:52.001Z</time></trkpt><trkpt lat="14.374732108780245" lon="121.0084022861613"><ele>66.2</ele><time>2026-04-14T04:48:53.001Z</time></trkpt><trkpt lat="14.374726645244495" lon="121.00829386294397"><ele>66.39999999999999</ele><time>2026-04-14T04:48:54.001Z</time></trkpt><trkpt lat="14.37472401080866" lon="121.00819043344029"><ele>66.6</ele><time>2026-04-14T04:48:55.001Z</time></trkpt><trkpt lat="14.374724539836258" lon="121.0080872274548"><ele>66.8</ele><time>2026-04-14T04:48:56.001Z</time></trkpt><trkpt lat="14.374725352187241" lon="121.00799323438564"><ele>67.0</ele><time>2026-04-14T04:48:57.001Z</time></trkpt><trkpt lat="14.374728980291032" lon="121.0079140251205"><ele>67.0</ele><time>2026-04-14T04:48:58.001Z</time></trkpt><trkpt lat="14.374731750334394" lon="121.00784830149541"><ele>67.0</ele><time>2026-04-14T04:48:59.001Z</time></trkpt><trkpt lat="14.374729189726953" lon="121.00776958810897"><ele>67.0</ele><time>2026-04-14T04:49:01.001Z</time></trkpt><trkpt lat="14.37473507183182" lon="121.00768928729418"><ele>67.0</ele><time>2026-04-14T04:49:08.001Z</time></trkpt><trkpt lat="14.374737333598814" lon="121.00762218619104"><ele>67.0</ele><time>2026-04-14T04:49:09.001Z</time></trkpt><trkpt lat="14.374738966502584" lon="121.00754139515846"><ele>67.0</ele><time>2026-04-14T04:49:10.001Z</time></trkpt><trkpt lat="14.374741071073288" lon="121.00744346545054"><ele>66.0</ele><time>2026-04-14T04:49:11.001Z</time></trkpt><trkpt lat="14.374741389583276" lon="121.00733175661435"><ele>65.0</ele><time>2026-04-14T04:49:12.001Z</time></trkpt><trkpt lat="14.374744034265106" lon="121.00721140282955"><ele>64.0</ele><time>2026-04-14T04:49:13.001Z</time></trkpt><trkpt lat="14.374745085575054" lon="121.0070813063671"><ele>63.0</ele><time>2026-04-14T04:49:14.001Z</time></trkpt><trkpt lat="14.37474398386694" lon="121.00694180809757"><ele>63.0</ele><time>2026-04-14T04:49:15.001Z</time></trkpt><trkpt lat="14.374740648874898" lon="121.00679385034253"><ele>63.0</ele><time>2026-04-14T04:49:16.001Z</time></trkpt><trkpt lat="14.37474048421508" lon="121.00663739789672"><ele>63.0</ele><time>2026-04-14T04:49:17.001Z</time></trkpt><trkpt lat="14.37474218900437" lon="121.00647425170368"><ele>62.0</ele><time>2026-04-14T04:49:18.001Z</time></trkpt><trkpt lat="14.374741457345815" lon="121.00630661986118"><ele>61.0</ele><time>2026-04-14T04:49:19.001Z</time></trkpt><trkpt lat="14.374742738030031" lon="121.00614063548669"><ele>60.0</ele><time>2026-04-14T04:49:20.001Z</time></trkpt><trkpt lat="14.374743319540578" lon="121.00597072719742"><ele>60.0</ele><time>2026-04-14T04:49:21.001Z</time></trkpt><trkpt lat="14.37474705471905" lon="121.00579883019591"><ele>60.0</ele><time>2026-04-14T04:49:22.001Z</time></trkpt><trkpt lat="14.374748750627306" lon="121.0056213505073"><ele>60.0</ele><time>2026-04-14T04:49:23.001Z</time></trkpt><trkpt lat="14.374750802741007" lon="121.0054445363107"><ele>60.0</ele><time>2026-04-14T04:49:24.001Z</time></trkpt><trkpt lat="14.374753051487719" lon="121.00526341102118"><ele>60.0</ele><time>2026-04-14T04:49:25.001Z</time></trkpt><trkpt lat="14.374754061037681" lon="121.00508265800264"><ele>60.0</ele><time>2026-04-14T04:49:26.001Z</time></trkpt><trkpt lat="14.374752798948588" lon="121.00490285588653"><ele>61.66666666666667</ele><time>2026-04-14T04:49:27.001Z</time></trkpt><trkpt lat="14.37475599016735" lon="121.00471566622957"><ele>63.333333333333336</ele><time>2026-04-14T04:49:28.001Z</time></trkpt><trkpt lat="14.374750363718412" lon="121.00454127689349"><ele>65.0</ele><time>2026-04-14T04:49:29.001Z</time></trkpt><trkpt lat="14.374745937082318" lon="121.00435970251725"><ele>65.0</ele><time>2026-04-14T04:49:30.001Z</time></trkpt><trkpt lat="14.374731869810955" lon="121.00417628671245"><ele>65.0</ele><time>2026-04-14T04:49:31.001Z</time></trkpt><trkpt lat="14.374706997861654" lon="121.0039944385687"><ele>65.0</ele><time>2026-04-14T04:49:32.001Z</time></trkpt><trkpt lat="14.374674566752597" lon="121.00380953802873"><ele>65.0</ele><time>2026-04-14T04:49:33.001Z</time></trkpt><trkpt lat="14.374645026617758" lon="121.00361866256807"><ele>65.0</ele><time>2026-04-14T04:49:34.001Z</time></trkpt><trkpt lat="14.37461870405718" lon="121.00343242100082"><ele>65.0</ele><time>2026-04-14T04:49:35.001Z</time></trkpt><trkpt lat="14.374592910554204" lon="121.00324859839449"><ele>66.0</ele><time>2026-04-14T04:49:36.001Z</time></trkpt><trkpt lat="14.37456749262444" lon="121.00306550317423"><ele>67.0</ele><time>2026-04-14T04:49:37.001Z</time></trkpt><trkpt lat="14.37454657948678" lon="121.0028830301826"><ele>68.0</ele><time>2026-04-14T04:49:38.001Z</time></trkpt><trkpt lat="14.3745360727657" lon="121.00270551566857"><ele>68.0</ele><time>2026-04-14T04:49:39.001Z</time></trkpt><trkpt lat="14.374552914406646" lon="121.00252745862069"><ele>68.0</ele><time>2026-04-14T04:49:40.001Z</time></trkpt><trkpt lat="14.374597658675102" lon="121.00235209006757"><ele>68.0</ele><time>2026-04-14T04:49:41.001Z</time></trkpt><trkpt lat="14.374645312399194" lon="121.0021775415844"><ele>68.0</ele><time>2026-04-14T04:49:42.001Z</time></trkpt><trkpt lat="14.374684510499675" lon="121.00200624713227"><ele>68.0</ele><time>2026-04-14T04:49:43.001Z</time></trkpt><trkpt lat="14.37472420246302" lon="121.00184907586471"><ele>68.0</ele><time>2026-04-14T04:49:44.001Z</time></trkpt><trkpt lat="14.374758194562274" lon="121.00170791850212"><ele>67.6</ele><time>2026-04-14T04:49:45.001Z</time></trkpt><trkpt lat="14.37478369315708" lon="121.00157647460898"><ele>67.19999999999999</ele><time>2026-04-14T04:49:46.001Z</time></trkpt><trkpt lat="14.374806827176485" lon="121.00147359409887"><ele>66.8</ele><time>2026-04-14T04:49:47.001Z</time></trkpt><trkpt lat="14.374823131425526" lon="121.00138646896214"><ele>66.39999999999999</ele><time>2026-04-14T04:49:48.001Z</time></trkpt><trkpt lat="14.374844010382517" lon="121.00127756808708"><ele>66.0</ele><time>2026-04-14T04:49:50Z</time></trkpt><trkpt lat="14.374855276235355" lon="121.00120897116064"><ele>66.0</ele><time>2026-04-14T04:49:53Z</time></trkpt><trkpt lat="14.374861504866484" lon="121.00114325363748"><ele>66.0</ele><time>2026-04-14T04:50:04Z</time></trkpt><trkpt lat="14.374877177389273" lon="121.00107055107777"><ele>66.0</ele><time>2026-04-14T04:50:05Z</time></trkpt><trkpt lat="14.37489803139201" lon="121.0009804206955"><ele>66.0</ele><time>2026-04-14T04:50:06Z</time></trkpt><trkpt lat="14.374920766739546" lon="121.00087978657685"><ele>66.0</ele><time>2026-04-14T04:50:07Z</time></trkpt><trkpt lat="14.374944709262543" lon="121.00076587762769"><ele>66.0</ele><time>2026-04-14T04:50:08Z</time></trkpt><trkpt lat="14.374975445954947" lon="121.0006410238315"><ele>65.5</ele><time>2026-04-14T04:50:09Z</time></trkpt><trkpt lat="14.375029953331458" lon="121.00051107919907"><ele>65.0</ele><time>2026-04-14T04:50:10Z</time></trkpt><trkpt lat="14.375078051451489" lon="121.00036604409259"><ele>64.5</ele><time>2026-04-14T04:50:11Z</time></trkpt><trkpt lat="14.375127514144811" lon="121.00021695088735"><ele>64.0</ele><time>2026-04-14T04:50:12Z</time></trkpt><trkpt lat="14.375202483019375" lon="121.00006564708005"><ele>64.0</ele><time>2026-04-14T04:50:13Z</time></trkpt><trkpt lat="14.375276689171013" lon="120.99990814493367"><ele>64.0</ele><time>2026-04-14T04:50:14Z</time></trkpt><trkpt lat="14.375378901453423" lon="120.99976173418233"><ele>64.0</ele><time>2026-04-14T04:50:15Z</time></trkpt><trkpt lat="14.375483163271571" lon="120.99961477131325"><ele>63.666666666666664</ele><time>2026-04-14T04:50:16Z</time></trkpt><trkpt lat="14.3755924064849" lon="120.99946215550584"><ele>63.33333333333333</ele><time>2026-04-14T04:50:17Z</time></trkpt><trkpt lat="14.375707656744021" lon="120.99931473761418"><ele>63.0</ele><time>2026-04-14T04:50:18Z</time></trkpt><trkpt lat="14.375831283927493" lon="120.99917315707764"><ele>63.66666666666667</ele><time>2026-04-14T04:50:19Z</time></trkpt><trkpt lat="14.375967614910733" lon="120.99904222950966"><ele>64.33333333333334</ele><time>2026-04-14T04:50:20Z</time></trkpt><trkpt lat="14.37611871401241" lon="120.99892568943228"><ele>65.0</ele><time>2026-04-14T04:50:21Z</time></trkpt><trkpt lat="14.376282268449026" lon="120.99881458718191"><ele>66.33333333333334</ele><time>2026-04-14T04:50:22Z</time></trkpt><trkpt lat="14.376444347582224" lon="120.99870722373821"><ele>67.66666666666667</ele><time>2026-04-14T04:50:23Z</time></trkpt><trkpt lat="14.37661152192263" lon="120.9985944030577"><ele>69.0</ele><time>2026-04-14T04:50:24Z</time></trkpt><trkpt lat="14.376773306173202" lon="120.99848381149556"><ele>69.0</ele><time>2026-04-14T04:50:25Z</time></trkpt><trkpt lat="14.376931992193919" lon="120.99837438015365"><ele>69.0</ele><time>2026-04-14T04:50:26Z</time></trkpt><trkpt lat="14.377086066985616" lon="120.99826979355984"><ele>69.0</ele><time>2026-04-14T04:50:27Z</time></trkpt><trkpt lat="14.377241677785586" lon="120.99816576648314"><ele>67.66666666666667</ele><time>2026-04-14T04:50:28Z</time></trkpt><trkpt lat="14.377391367955163" lon="120.99806094888032"><ele>66.33333333333334</ele><time>2026-04-14T04:50:29Z</time></trkpt><trkpt lat="14.377538519771125" lon="120.9979564150297"><ele>65.0</ele><time>2026-04-14T04:50:30Z</time></trkpt><trkpt lat="14.377677385189996" lon="120.99785780288369"><ele>65.0</ele><time>2026-04-14T04:50:31Z</time></trkpt><trkpt lat="14.377811020071391" lon="120.99776473981602"><ele>65.0</ele><time>2026-04-14T04:50:32Z</time></trkpt><trkpt lat="14.37794307377043" lon="120.9976720142036"><ele>65.0</ele><time>2026-04-14T04:50:33Z</time></trkpt><trkpt lat="14.378063526984066" lon="120.99758988683433"><ele>64.5</ele><time>2026-04-14T04:50:34Z</time></trkpt><trkpt lat="14.378172023549896" lon="120.99751581958976"><ele>64.0</ele><time>2026-04-14T04:50:35Z</time></trkpt><trkpt lat="14.378278031294892" lon="120.99742963353017"><ele>63.5</ele><time>2026-04-14T04:50:36Z</time></trkpt><trkpt lat="14.378377683905146" lon="120.99736077052704"><ele>63.0</ele><time>2026-04-14T04:50:37Z</time></trkpt><trkpt lat="14.378458385365604" lon="120.99729529655696"><ele>63.0</ele><time>2026-04-14T04:50:38Z</time></trkpt><trkpt lat="14.378537486316214" lon="120.99723448936543"><ele>63.0</ele><time>2026-04-14T04:50:39Z</time></trkpt><trkpt lat="14.37868593081144" lon="120.99727037687748"><ele>63.0</ele><time>2026-04-14T04:50:40Z</time></trkpt><trkpt lat="14.37878617892978" lon="120.99727386670571"><ele>63.0</ele><time>2026-04-14T04:50:41Z</time></trkpt><trkpt lat="14.378896465214334" lon="120.99728903911866"><ele>62.75</ele><time>2026-04-14T04:50:42Z</time></trkpt><trkpt lat="14.379008906390144" lon="120.99729821981052"><ele>62.5</ele><time>2026-04-14T04:50:43.001Z</time></trkpt><trkpt lat="14.379115347672244" lon="120.99731266592597"><ele>62.25</ele><time>2026-04-14T04:50:44.001Z</time></trkpt><trkpt lat="14.379235726752107" lon="120.99737795935866"><ele>62.0</ele><time>2026-04-14T04:50:45.001Z</time></trkpt><trkpt lat="14.379334101887418" lon="120.99743513958178"><ele>61.8</ele><time>2026-04-14T04:50:46.001Z</time></trkpt><trkpt lat="14.379428440075158" lon="120.99750386999318"><ele>61.6</ele><time>2026-04-14T04:50:47.001Z</time></trkpt><trkpt lat="14.379532476897156" lon="120.9975538318039"><ele>61.39999999999999</ele><time>2026-04-14T04:50:48.001Z</time></trkpt><trkpt lat="14.379629241748006" lon="120.99760108568738"><ele>61.199999999999996</ele><time>2026-04-14T04:50:49.001Z</time></trkpt><trkpt lat="14.379725865868217" lon="120.99764818227898"><ele>61.0</ele><time>2026-04-14T04:50:50.001Z</time></trkpt><trkpt lat="14.379806885745293" lon="120.99769185955323"><ele>60.99999999999999</ele><time>2026-04-14T04:50:51.001Z</time></trkpt><trkpt lat="14.379883987803003" lon="120.99773042226116"><ele>61.0</ele><time>2026-04-14T04:50:52.001Z</time></trkpt><trkpt lat="14.379948599900281" lon="120.99774820491523"><ele>61.0</ele><time>2026-04-14T04:50:54.001Z</time></trkpt><trkpt lat="14.380058430885505" lon="120.99773863932644"><ele>61.0</ele><time>2026-04-14T04:50:56.001Z</time></trkpt><trkpt lat="14.38013229690803" lon="120.9977758548779"><ele>60.99999999999999</ele><time>2026-04-14T04:50:57.001Z</time></trkpt><trkpt lat="14.380199549422816" lon="120.99776206400175"><ele>61.0</ele><time>2026-04-14T04:50:58.001Z</time></trkpt><trkpt lat="14.380274612187488" lon="120.99771807474878"><ele>61.0</ele><time>2026-04-14T04:50:59.001Z</time></trkpt><trkpt lat="14.38033541694093" lon="120.99765859450679"><ele>60.99999999999999</ele><time>2026-04-14T04:51:00.001Z</time></trkpt><trkpt lat="14.380392441468624" lon="120.99757494164665"><ele>60.99999999999999</ele><time>2026-04-14T04:51:01.001Z</time></trkpt><trkpt lat="14.380436961712505" lon="120.99749811671165"><ele>61.0</ele><time>2026-04-14T04:51:02.001Z</time></trkpt><trkpt lat="14.380491856616073" lon="120.99741206076473"><ele>61.0</ele><time>2026-04-14T04:51:03.001Z</time></trkpt><trkpt lat="14.380548408257939" lon="120.99735154986159"><ele>61.8</ele><time>2026-04-14T04:51:04.001Z</time></trkpt><trkpt lat="14.380605458852116" lon="120.99726702972292"><ele>62.599999999999994</ele><time>2026-04-14T04:51:06.001Z</time></trkpt><trkpt lat="14.380751251021138" lon="120.99733721140873"><ele>63.4</ele><time>2026-04-14T04:51:07.001Z</time></trkpt><trkpt lat="14.380824506481162" lon="120.99738571945231"><ele>64.2</ele><time>2026-04-14T04:51:08.001Z</time></trkpt><trkpt lat="14.380907098368683" lon="120.99744111223978"><ele>65.0</ele><time>2026-04-14T04:51:09.001Z</time></trkpt><trkpt lat="14.380986104744434" lon="120.99749603219301"><ele>64.8</ele><time>2026-04-14T04:51:10.001Z</time></trkpt><trkpt lat="14.381069228019998" lon="120.99755289146454"><ele>64.6</ele><time>2026-04-14T04:51:11.001Z</time></trkpt><trkpt lat="14.381161096986986" lon="120.99760827270383"><ele>64.4</ele><time>2026-04-14T04:51:12.001Z</time></trkpt><trkpt lat="14.381263753703971" lon="120.99766318774003"><ele>64.2</ele><time>2026-04-14T04:51:13.001Z</time></trkpt><trkpt lat="14.381371870442221" lon="120.9977178105379"><ele>64.0</ele><time>2026-04-14T04:51:14.001Z</time></trkpt><trkpt lat="14.381481916064997" lon="120.99777348343693"><ele>64.0</ele><time>2026-04-14T04:51:15.001Z</time></trkpt><trkpt lat="14.381599225501333" lon="120.99783130584298"><ele>64.0</ele><time>2026-04-14T04:51:16.001Z</time></trkpt><trkpt lat="14.381707512589633" lon="120.99790445897794"><ele>64.0</ele><time>2026-04-14T04:51:17.001Z</time></trkpt><trkpt lat="14.381823249827836" lon="120.9979634092843"><ele>64.0</ele><time>2026-04-14T04:51:18.001Z</time></trkpt><trkpt lat="14.381947823631648" lon="120.998021244757"><ele>64.0</ele><time>2026-04-14T04:51:19.001Z</time></trkpt><trkpt lat="14.382067727541237" lon="120.9980762846778"><ele>64.0</ele><time>2026-04-14T04:51:20.001Z</time></trkpt><trkpt lat="14.382185562051033" lon="120.99813140265755"><ele>64.0</ele><time>2026-04-14T04:51:21.001Z</time></trkpt><trkpt lat="14.382310439404478" lon="120.99817192546895"><ele>64.0</ele><time>2026-04-14T04:51:22.001Z</time></trkpt><trkpt lat="14.382432306268338" lon="120.99820437340209"><ele>63.25</ele><time>2026-04-14T04:51:23.001Z</time></trkpt><trkpt lat="14.382567918046316" lon="120.99822659121486"><ele>62.5</ele><time>2026-04-14T04:51:24.001Z</time></trkpt><trkpt lat="14.38270457097775" lon="120.99823648950203"><ele>61.75</ele><time>2026-04-14T04:51:25.001Z</time></trkpt><trkpt lat="14.382819358131803" lon="120.99822104090269"><ele>61.0</ele><time>2026-04-14T04:51:26.001Z</time></trkpt><trkpt lat="14.382951915534091" lon="120.99822184614158"><ele>60.25</ele><time>2026-04-14T04:51:27.001Z</time></trkpt><trkpt lat="14.383071442394135" lon="120.99821181649727"><ele>59.5</ele><time>2026-04-14T04:51:28.001Z</time></trkpt><trkpt lat="14.383188684881127" lon="120.99817095000117"><ele>58.75</ele><time>2026-04-14T04:51:29.001Z</time></trkpt><trkpt lat="14.383303737772554" lon="120.99815661807287"><ele>58.0</ele><time>2026-04-14T04:51:30.001Z</time></trkpt><trkpt lat="14.383418867827967" lon="120.9981217575152"><ele>58.0</ele><time>2026-04-14T04:51:31.001Z</time></trkpt><trkpt lat="14.383529330317286" lon="120.99807615220371"><ele>58.0</ele><time>2026-04-14T04:51:32.001Z</time></trkpt><trkpt lat="14.383646100975023" lon="120.99801786577696"><ele>58.0</ele><time>2026-04-14T04:51:33.001Z</time></trkpt><trkpt lat="14.383748406653739" lon="120.99795196705622"><ele>58.0</ele><time>2026-04-14T04:51:34.001Z</time></trkpt><trkpt lat="14.383852703741304" lon="120.9978717973934"><ele>58.0</ele><time>2026-04-14T04:51:35.001Z</time></trkpt><trkpt lat="14.383953516728344" lon="120.99778514967113"><ele>58.0</ele><time>2026-04-14T04:51:36.001Z</time></trkpt><trkpt lat="14.384052618889246" lon="120.99769951383381"><ele>58.0</ele><time>2026-04-14T04:51:37.001Z</time></trkpt><trkpt lat="14.384140675990965" lon="120.99760996910396"><ele>58.0</ele><time>2026-04-14T04:51:38.001Z</time></trkpt><trkpt lat="14.384228978825455" lon="120.99753728932232"><ele>58.2</ele><time>2026-04-14T04:51:39.001Z</time></trkpt><trkpt lat="14.384314370164502" lon="120.99746254772064"><ele>58.4</ele><time>2026-04-14T04:51:40.001Z</time></trkpt><trkpt lat="14.384408599921738" lon="120.99739175778359"><ele>58.60000000000001</ele><time>2026-04-14T04:51:41.001Z</time></trkpt><trkpt lat="14.384501423969775" lon="120.99733845202793"><ele>58.800000000000004</ele><time>2026-04-14T04:51:42.001Z</time></trkpt><trkpt lat="14.384594569401035" lon="120.99730369029893"><ele>59.0</ele><time>2026-04-14T04:51:43.001Z</time></trkpt><trkpt lat="14.384689521365079" lon="120.9972878082597"><ele>59.0</ele><time>2026-04-14T04:51:44.001Z</time></trkpt><trkpt lat="14.384785912277712" lon="120.99727381219442"><ele>59.00000000000001</ele><time>2026-04-14T04:51:45.001Z</time></trkpt><trkpt lat="14.384858261431809" lon="120.99725932897346"><ele>59.00000000000001</ele><time>2026-04-14T04:51:46.001Z</time></trkpt><trkpt lat="14.38495766937431" lon="120.99723188546938"><ele>59.0</ele><time>2026-04-14T04:51:48.001Z</time></trkpt><trkpt lat="14.385042089293936" lon="120.99721454431182"><ele>59.0</ele><time>2026-04-14T04:51:50.001Z</time></trkpt><trkpt lat="14.385169749880887" lon="120.99723373435558"><ele>59.00000000000001</ele><time>2026-04-14T04:51:52.001Z</time></trkpt><trkpt lat="14.385245864741233" lon="120.99725275216831"><ele>59.0</ele><time>2026-04-14T04:51:53.001Z</time></trkpt><trkpt lat="14.385328016651318" lon="120.99726947531056"><ele>59.0</ele><time>2026-04-14T04:51:54Z</time></trkpt><trkpt lat="14.385410332497296" lon="120.99728575103518"><ele>59.0</ele><time>2026-04-14T04:51:55Z</time></trkpt><trkpt lat="14.385493963323539" lon="120.99730135843645"><ele>59.00000000000001</ele><time>2026-04-14T04:51:56Z</time></trkpt><trkpt lat="14.3855840526564" lon="120.99730931277519"><ele>59.0</ele><time>2026-04-14T04:51:57Z</time></trkpt><trkpt lat="14.38568085034497" lon="120.997307339775"><ele>58.800000000000004</ele><time>2026-04-14T04:51:58Z</time></trkpt><trkpt lat="14.38577566812497" lon="120.99730299527592"><ele>58.60000000000001</ele><time>2026-04-14T04:51:59Z</time></trkpt><trkpt lat="14.385877282869336" lon="120.99728530009997"><ele>58.4</ele><time>2026-04-14T04:52:00Z</time></trkpt><trkpt lat="14.385974510483875" lon="120.9972503440021"><ele>58.2</ele><time>2026-04-14T04:52:01Z</time></trkpt><trkpt lat="14.386071106876862" lon="120.99720404791424"><ele>58.0</ele><time>2026-04-14T04:52:02Z</time></trkpt><trkpt lat="14.386170175981201" lon="120.99715750929623"><ele>58.0</ele><time>2026-04-14T04:52:03Z</time></trkpt><trkpt lat="14.386267734863663" lon="120.99712746484445"><ele>58.0</ele><time>2026-04-14T04:52:04Z</time></trkpt><trkpt lat="14.386368467418032" lon="120.99708998916988"><ele>58.0</ele><time>2026-04-14T04:52:05Z</time></trkpt><trkpt lat="14.386471519978196" lon="120.99705437917918"><ele>58.0</ele><time>2026-04-14T04:52:06Z</time></trkpt><trkpt lat="14.386580891048029" lon="120.99700985283252"><ele>58.0</ele><time>2026-04-14T04:52:07Z</time></trkpt><trkpt lat="14.386684371995418" lon="120.99696728783388"><ele>58.2</ele><time>2026-04-14T04:52:08Z</time></trkpt><trkpt lat="14.386794612720736" lon="120.99692562689059"><ele>58.4</ele><time>2026-04-14T04:52:09Z</time></trkpt><trkpt lat="14.38689012784116" lon="120.99688929457109"><ele>58.60000000000001</ele><time>2026-04-14T04:52:10Z</time></trkpt><trkpt lat="14.386987008791559" lon="120.99685298284103"><ele>58.800000000000004</ele><time>2026-04-14T04:52:11Z</time></trkpt><trkpt lat="14.387076006098642" lon="120.99681314033386"><ele>59.0</ele><time>2026-04-14T04:52:12Z</time></trkpt><trkpt lat="14.387163172451572" lon="120.99677053218728"><ele>58.6</ele><time>2026-04-14T04:52:13Z</time></trkpt><trkpt lat="14.387251404489046" lon="120.99671767855901"><ele>58.2</ele><time>2026-04-14T04:52:14Z</time></trkpt><trkpt lat="14.387328630619656" lon="120.9966861790704"><ele>57.800000000000004</ele><time>2026-04-14T04:52:15Z</time></trkpt><trkpt lat="14.38741461174349" lon="120.99663451503025"><ele>57.400000000000006</ele><time>2026-04-14T04:52:16Z</time></trkpt><trkpt lat="14.387495212857251" lon="120.9965858805909"><ele>57.0</ele><time>2026-04-14T04:52:17Z</time></trkpt><trkpt lat="14.387571169938738" lon="120.99653291587244"><ele>56.5</ele><time>2026-04-14T04:52:18Z</time></trkpt><trkpt lat="14.387652879778445" lon="120.99650912618611"><ele>56.0</ele><time>2026-04-14T04:52:19Z</time></trkpt><trkpt lat="14.38773417587325" lon="120.99649614784573"><ele>55.5</ele><time>2026-04-14T04:52:20Z</time></trkpt><trkpt lat="14.387797466037902" lon="120.99650918948902"><ele>55.0</ele><time>2026-04-14T04:52:21Z</time></trkpt><trkpt lat="14.387888797163523" lon="120.9965459136908"><ele>54.5</ele><time>2026-04-14T04:52:23Z</time></trkpt><trkpt lat="14.38796807322809" lon="120.99655564507506"><ele>54.0</ele><time>2026-04-14T04:52:25Z</time></trkpt><trkpt lat="14.388036052372703" lon="120.99646243797491"><ele>53.800000000000004</ele><time>2026-04-14T04:52:27Z</time></trkpt><trkpt lat="14.387997499371359" lon="120.99633316976586"><ele>53.60000000000001</ele><time>2026-04-14T04:52:29Z</time></trkpt><trkpt lat="14.387932650326338" lon="120.9962989122162"><ele>53.4</ele><time>2026-04-14T04:52:30Z</time></trkpt><trkpt lat="14.38789801763729" lon="120.99624165934792"><ele>53.2</ele><time>2026-04-14T04:52:31Z</time></trkpt><trkpt lat="14.3878573171917" lon="120.99611244968115"><ele>53.0</ele><time>2026-04-14T04:52:33Z</time></trkpt><trkpt lat="14.387841086776103" lon="120.99603227239582"><ele>53.0</ele><time>2026-04-14T04:52:34Z</time></trkpt><trkpt lat="14.387831891208089" lon="120.99596150185971"><ele>53.0</ele><time>2026-04-14T04:52:35Z</time></trkpt><trkpt lat="14.387822464591945" lon="120.99584595257932"><ele>53.0</ele><time>2026-04-14T04:52:37.001Z</time></trkpt><trkpt lat="14.387811221050304" lon="120.99577178846083"><ele>53.0</ele><time>2026-04-14T04:52:39.001Z</time></trkpt><trkpt lat="14.38779200639486" lon="120.99564504564532"><ele>53.0</ele><time>2026-04-14T04:52:42.001Z</time></trkpt><trkpt lat="14.387780757726992" lon="120.99557084770443"><ele>53.16666666666667</ele><time>2026-04-14T04:52:43.001Z</time></trkpt><trkpt lat="14.387770440735078" lon="120.9954999786795"><ele>53.333333333333336</ele><time>2026-04-14T04:52:44.001Z</time></trkpt><trkpt lat="14.387760004773275" lon="120.9954118527823"><ele>53.5</ele><time>2026-04-14T04:52:45.001Z</time></trkpt><trkpt lat="14.387749919332313" lon="120.99532668684884"><ele>53.66666666666667</ele><time>2026-04-14T04:52:46.001Z</time></trkpt><trkpt lat="14.387738669895644" lon="120.99523169159987"><ele>53.833333333333336</ele><time>2026-04-14T04:52:47.001Z</time></trkpt><trkpt lat="14.387726859599297" lon="120.99513252719353"><ele>54.0</ele><time>2026-04-14T04:52:48.001Z</time></trkpt><trkpt lat="14.387715971971428" lon="120.99504120220493"><ele>54.800000000000004</ele><time>2026-04-14T04:52:49.001Z</time></trkpt><trkpt lat="14.387702733474619" lon="120.99493541889603"><ele>55.60000000000001</ele><time>2026-04-14T04:52:50.001Z</time></trkpt><trkpt lat="14.387687834787979" lon="120.99482892567693"><ele>56.4</ele><time>2026-04-14T04:52:51.001Z</time></trkpt><trkpt lat="14.38767437932858" lon="120.9947327483956"><ele>57.2</ele><time>2026-04-14T04:52:52.001Z</time></trkpt><trkpt lat="14.38766255766511" lon="120.99464824920223"><ele>58.0</ele><time>2026-04-14T04:52:53.001Z</time></trkpt><trkpt lat="14.387651136309476" lon="120.99456661134094"><ele>57.99999999999999</ele><time>2026-04-14T04:52:54.001Z</time></trkpt><trkpt lat="14.38763920733062" lon="120.99448134507614"><ele>58.0</ele><time>2026-04-14T04:52:55.001Z</time></trkpt><trkpt lat="14.387628725986934" lon="120.99440642625612"><ele>58.0</ele><time>2026-04-14T04:52:56.001Z</time></trkpt><trkpt lat="14.387615679276148" lon="120.99431573809572"><ele>58.0</ele><time>2026-04-14T04:52:58.001Z</time></trkpt><trkpt lat="14.387601538799375" lon="120.99421803672928"><ele>57.99999999999999</ele><time>2026-04-14T04:53:02.001Z</time></trkpt><trkpt lat="14.387586222730908" lon="120.99411221280594"><ele>58.0</ele><time>2026-04-14T04:53:04.001Z</time></trkpt><trkpt lat="14.387576418629669" lon="120.99404447292416"><ele>57.666666666666664</ele><time>2026-04-14T04:53:05.001Z</time></trkpt><trkpt lat="14.387565467550678" lon="120.99396880818372"><ele>57.33333333333333</ele><time>2026-04-14T04:53:06.001Z</time></trkpt><trkpt lat="14.387553652020186" lon="120.99388717066104"><ele>57.0</ele><time>2026-04-14T04:53:07.001Z</time></trkpt><trkpt lat="14.387528888134064" lon="120.99379708458987"><ele>56.66666666666667</ele><time>2026-04-14T04:53:08.001Z</time></trkpt><trkpt lat="14.387507312094781" lon="120.99371908830645"><ele>56.333333333333336</ele><time>2026-04-14T04:53:09.001Z</time></trkpt><trkpt lat="14.387483136201183" lon="120.9936316936827"><ele>56.0</ele><time>2026-04-14T04:53:10.001Z</time></trkpt><trkpt lat="14.387458671335454" lon="120.9935432544508"><ele>56.00000000000001</ele><time>2026-04-14T04:53:11.001Z</time></trkpt><trkpt lat="14.387429835401177" lon="120.99346260061006"><ele>56.0</ele><time>2026-04-14T04:53:12.001Z</time></trkpt><trkpt lat="14.387390506362415" lon="120.99337615150428"><ele>56.0</ele><time>2026-04-14T04:53:13.001Z</time></trkpt><trkpt lat="14.387357072653877" lon="120.99330952949221"><ele>56.0</ele><time>2026-04-14T04:53:14.001Z</time></trkpt><trkpt lat="14.387318651663445" lon="120.9932539645933"><ele>56.00000000000001</ele><time>2026-04-14T04:53:15.001Z</time></trkpt><trkpt lat="14.38727673703129" lon="120.99318908973476"><ele>56.0</ele><time>2026-04-14T04:53:16.001Z</time></trkpt><trkpt lat="14.387218890952758" lon="120.99313175501558"><ele>56.00000000000001</ele><time>2026-04-14T04:53:17.001Z</time></trkpt><trkpt lat="14.387171637240854" lon="120.99308411149235"><ele>56.0</ele><time>2026-04-14T04:53:18.001Z</time></trkpt><trkpt lat="14.38708737702389" lon="120.99302067226442"><ele>56.0</ele><time>2026-04-14T04:53:20.001Z</time></trkpt><trkpt lat="14.387000085716513" lon="120.99295615778685"><ele>56.0</ele><time>2026-04-14T04:53:23.001Z</time></trkpt><trkpt lat="14.38694323370297" lon="120.99291414011407"><ele>56.00000000000001</ele><time>2026-04-14T04:53:24.001Z</time></trkpt><trkpt lat="14.386870335967737" lon="120.99287395115846"><ele>56.0</ele><time>2026-04-14T04:53:25.001Z</time></trkpt><trkpt lat="14.38679927313608" lon="120.99284559758303"><ele>56.00000000000001</ele><time>2026-04-14T04:53:26.001Z</time></trkpt><trkpt lat="14.38673530443434" lon="120.99279753599617"><ele>56.0</ele><time>2026-04-14T04:53:27.001Z</time></trkpt><trkpt lat="14.386686129710531" lon="120.99274940574311"><ele>56.0</ele><time>2026-04-14T04:53:28.001Z</time></trkpt><trkpt lat="14.386646896118343" lon="120.99269418668945"><ele>56.0</ele><time>2026-04-14T04:53:29.001Z</time></trkpt><trkpt lat="14.38663551504853" lon="120.99261790211922"><ele>56.00000000000001</ele><time>2026-04-14T04:53:30.001Z</time></trkpt><trkpt lat="14.386574452377703" lon="120.9925247765155"><ele>56.0</ele><time>2026-04-14T04:53:32.001Z</time></trkpt><trkpt lat="14.386515416353063" lon="120.99249655502156"><ele>56.00000000000001</ele><time>2026-04-14T04:53:33.001Z</time></trkpt><trkpt lat="14.386421907281276" lon="120.99248577709339"><ele>56.0</ele><time>2026-04-14T04:53:34.001Z</time></trkpt><trkpt lat="14.386355419655228" lon="120.99251496263118"><ele>56.0</ele><time>2026-04-14T04:53:35.001Z</time></trkpt><trkpt lat="14.386237493311357" lon="120.99247313748913"><ele>56.0</ele><time>2026-04-14T04:53:37.001Z</time></trkpt><trkpt lat="14.38617433190021" lon="120.9924328119592"><ele>56.00000000000001</ele><time>2026-04-14T04:53:38.001Z</time></trkpt><trkpt lat="14.386106900660593" lon="120.99238672953867"><ele>56.0</ele><time>2026-04-14T04:53:39.001Z</time></trkpt><trkpt lat="14.386029256119185" lon="120.99234195435275"><ele>55.66666666666667</ele><time>2026-04-14T04:53:40.001Z</time></trkpt><trkpt lat="14.385967420061512" lon="120.99230066128321"><ele>55.333333333333336</ele><time>2026-04-14T04:53:41.001Z</time></trkpt><trkpt lat="14.385913281790486" lon="120.99226070329928"><ele>55.0</ele><time>2026-04-14T04:53:42.001Z</time></trkpt><trkpt lat="14.385858476552468" lon="120.99221481539853"><ele>54.66666666666667</ele><time>2026-04-14T04:53:44.001Z</time></trkpt><trkpt lat="14.385802770621943" lon="120.99218021627767"><ele>54.333333333333336</ele><time>2026-04-14T04:53:47.001Z</time></trkpt><trkpt lat="14.385717903608775" lon="120.99214117655765"><ele>54.0</ele><time>2026-04-14T04:53:49.001Z</time></trkpt><trkpt lat="14.385634949093442" lon="120.9920955558247"><ele>54.0</ele><time>2026-04-14T04:53:51.001Z</time></trkpt><trkpt lat="14.38556719966213" lon="120.99206115521085"><ele>54.00000000000001</ele><time>2026-04-14T04:53:53.001Z</time></trkpt><trkpt lat="14.385481033907796" lon="120.99208800989558"><ele>54.00000000000001</ele><time>2026-04-14T04:53:56.001Z</time></trkpt><trkpt lat="14.385409455166602" lon="120.9921626622632"><ele>54.0</ele><time>2026-04-14T04:53:58.002Z</time></trkpt><trkpt lat="14.385320746705096" lon="120.9922447599856"><ele>54.0</ele><time>2026-04-14T04:54:00Z</time></trkpt><trkpt lat="14.3852266330859" lon="120.99229299065412"><ele>54.0</ele><time>2026-04-14T04:54:02Z</time></trkpt><trkpt lat="14.385142026049312" lon="120.99233825321642"><ele>54.00000000000001</ele><time>2026-04-14T04:54:04Z</time></trkpt><trkpt lat="14.385068708483066" lon="120.99235882490802"><ele>54.00000000000001</ele><time>2026-04-14T04:54:07Z</time></trkpt><trkpt lat="14.385004610509652" lon="120.99243948726755"><ele>54.0</ele><time>2026-04-14T04:54:28Z</time></trkpt><trkpt lat="14.384911503593532" lon="120.99251174718785"><ele>54.0</ele><time>2026-04-14T04:54:30Z</time></trkpt><trkpt lat="14.384845290507235" lon="120.99252813199251"><ele>54.42857142857143</ele><time>2026-04-14T04:54:31Z</time></trkpt><trkpt lat="14.384785317767294" lon="120.99255981476728"><ele>54.857142857142854</ele><time>2026-04-14T04:54:32Z</time></trkpt><trkpt lat="14.38472242467415" lon="120.99259296383447"><ele>55.285714285714285</ele><time>2026-04-14T04:54:33.001Z</time></trkpt><trkpt lat="14.384657018930055" lon="120.9926274372295"><ele>55.71428571428571</ele><time>2026-04-14T04:54:34.001Z</time></trkpt><trkpt lat="14.384590002482907" lon="120.99263729514993"><ele>56.14285714285714</ele><time>2026-04-14T04:54:35.001Z</time></trkpt><trkpt lat="14.384530554867126" lon="120.99267205484882"><ele>56.57142857142857</ele><time>2026-04-14T04:54:36.001Z</time></trkpt><trkpt lat="14.38445887883249" lon="120.99266015423993"><ele>57.0</ele><time>2026-04-14T04:54:37.001Z</time></trkpt><trkpt lat="14.384392732709378" lon="120.9926660068873"><ele>57.0</ele><time>2026-04-14T04:54:38.001Z</time></trkpt><trkpt lat="14.384322656076522" lon="120.99266960252228"><ele>57.0</ele><time>2026-04-14T04:54:39.001Z</time></trkpt><trkpt lat="14.384246021176148" lon="120.99267353466318"><ele>57.0</ele><time>2026-04-14T04:54:40.001Z</time></trkpt><trkpt lat="14.38416434729024" lon="120.99267091473831"><ele>57.0</ele><time>2026-04-14T04:54:41.001Z</time></trkpt><trkpt lat="14.384078062835634" lon="120.99268092554759"><ele>57.0</ele><time>2026-04-14T04:54:42.001Z</time></trkpt><trkpt lat="14.383991730760844" lon="120.9926769110373"><ele>57.0</ele><time>2026-04-14T04:54:43.001Z</time></trkpt><trkpt lat="14.383905214181134" lon="120.99266868988566"><ele>57.333333333333336</ele><time>2026-04-14T04:54:44.001Z</time></trkpt><trkpt lat="14.383825553187759" lon="120.9926627916951"><ele>57.66666666666667</ele><time>2026-04-14T04:54:45.001Z</time></trkpt><trkpt lat="14.383749089628347" lon="120.99265923303564"><ele>58.0</ele><time>2026-04-14T04:54:46.001Z</time></trkpt><trkpt lat="14.383679869447546" lon="120.99266173022214"><ele>58.333333333333336</ele><time>2026-04-14T04:54:47.001Z</time></trkpt><trkpt lat="14.383572758341156" lon="120.99268560861942"><ele>58.66666666666667</ele><time>2026-04-14T04:54:49.001Z</time></trkpt><trkpt lat="14.383491095490728" lon="120.99275152580782"><ele>59.0</ele><time>2026-04-14T04:54:51.001Z</time></trkpt><trkpt lat="14.38344770898612" lon="120.99280555393189"><ele>59.0</ele><time>2026-04-14T04:54:52.001Z</time></trkpt><trkpt lat="14.383401551325408" lon="120.99285984430163"><ele>59.0</ele><time>2026-04-14T04:54:53.001Z</time></trkpt><trkpt lat="14.383353783853824" lon="120.99290812982998"><ele>59.0</ele><time>2026-04-14T04:54:54.001Z</time></trkpt><trkpt lat="14.38329303147292" lon="120.99296134802862"><ele>59.0</ele><time>2026-04-14T04:54:55.001Z</time></trkpt><trkpt lat="14.383230521989566" lon="120.99301457813844"><ele>59.0</ele><time>2026-04-14T04:54:56.001Z</time></trkpt><trkpt lat="14.38318009357629" lon="120.99306191646126"><ele>59.0</ele><time>2026-04-14T04:54:57.001Z</time></trkpt><trkpt lat="14.383134800289302" lon="120.99310868728321"><ele>59.0</ele><time>2026-04-14T04:54:58.001Z</time></trkpt><trkpt lat="14.383057062852052" lon="120.99320440837707"><ele>58.6</ele><time>2026-04-14T04:55:00.001Z</time></trkpt><trkpt lat="14.383012146265804" lon="120.99330966976733"><ele>58.2</ele><time>2026-04-14T04:55:02.001Z</time></trkpt><trkpt lat="14.383019183131914" lon="120.99340098992349"><ele>57.800000000000004</ele><time>2026-04-14T04:55:04.001Z</time></trkpt><trkpt lat="14.383016126066584" lon="120.99350520833053"><ele>57.400000000000006</ele><time>2026-04-14T04:55:07.001Z</time></trkpt><trkpt lat="14.383016994743006" lon="120.99363976793728"><ele>57.0</ele><time>2026-04-14T04:55:09.001Z</time></trkpt><trkpt lat="14.383013630315375" lon="120.99371470987742"><ele>57.5</ele><time>2026-04-14T04:55:10.001Z</time></trkpt><trkpt lat="14.383010129647381" lon="120.99380139142939"><ele>58.0</ele><time>2026-04-14T04:55:11.001Z</time></trkpt><trkpt lat="14.383007992200032" lon="120.99388768837855"><ele>58.5</ele><time>2026-04-14T04:55:12.001Z</time></trkpt><trkpt lat="14.383008034304257" lon="120.99397046551205"><ele>59.0</ele><time>2026-04-14T04:55:13.001Z</time></trkpt><trkpt lat="14.38300576980363" lon="120.99404970045912"><ele>59.5</ele><time>2026-04-14T04:55:14.001Z</time></trkpt><trkpt lat="14.383005217585348" lon="120.99412938896214"><ele>60.0</ele><time>2026-04-14T04:55:15.001Z</time></trkpt><trkpt lat="14.383003097794795" lon="120.99419791951013"><ele>60.0</ele><time>2026-04-14T04:55:16.001Z</time></trkpt><trkpt lat="14.382998350930585" lon="120.99431330888027"><ele>60.0</ele><time>2026-04-14T04:55:18.001Z</time></trkpt><trkpt lat="14.382977570699575" lon="120.99440917578224"><ele>60.0</ele><time>2026-04-14T04:55:21.001Z</time></trkpt><trkpt lat="14.382909749320183" lon="120.99450036294942"><ele>60.0</ele><time>2026-04-14T04:55:23.001Z</time></trkpt><trkpt lat="14.382821949614627" lon="120.99453931758426"><ele>60.0</ele><time>2026-04-14T04:55:25.001Z</time></trkpt><trkpt lat="14.382711928884296" lon="120.99455382249982"><ele>60.0</ele><time>2026-04-14T04:55:28.001Z</time></trkpt><trkpt lat="14.382582531955313" lon="120.99456575032099"><ele>60.0</ele><time>2026-04-14T04:55:30.001Z</time></trkpt><trkpt lat="14.382507851446283" lon="120.99456645578178"><ele>60.0</ele><time>2026-04-14T04:55:31.001Z</time></trkpt><trkpt lat="14.38243142377483" lon="120.994567757538"><ele>60.0</ele><time>2026-04-14T04:55:32.001Z</time></trkpt><trkpt lat="14.382352565181932" lon="120.99457125442731"><ele>60.0</ele><time>2026-04-14T04:55:33.001Z</time></trkpt><trkpt lat="14.382267277354867" lon="120.99456883583935"><ele>60.0</ele><time>2026-04-14T04:55:34.001Z</time></trkpt><trkpt lat="14.382185035338217" lon="120.99456409712705"><ele>60.333333333333336</ele><time>2026-04-14T04:55:35.001Z</time></trkpt><trkpt lat="14.382100453517284" lon="120.99456281954956"><ele>60.66666666666667</ele><time>2026-04-14T04:55:36.001Z</time></trkpt><trkpt lat="14.382018449421146" lon="120.99456329399544"><ele>61.0</ele><time>2026-04-14T04:55:37.001Z</time></trkpt><trkpt lat="14.38194132490126" lon="120.99456202586227"><ele>61.333333333333336</ele><time>2026-04-14T04:55:38.001Z</time></trkpt><trkpt lat="14.381872201484631" lon="120.99456112088258"><ele>61.66666666666667</ele><time>2026-04-14T04:55:39.001Z</time></trkpt><trkpt lat="14.381808921919726" lon="120.99455979719409"><ele>62.0</ele><time>2026-04-14T04:55:41.001Z</time></trkpt><trkpt lat="14.381700455994757" lon="120.99455925249622"><ele>62.0</ele><time>2026-04-14T04:55:44.001Z</time></trkpt><trkpt lat="14.381582609977977" lon="120.99454614852546"><ele>62.0</ele><time>2026-04-14T04:55:46.001Z</time></trkpt><trkpt lat="14.381469305825156" lon="120.99453022837123"><ele>62.0</ele><time>2026-04-14T04:55:48.001Z</time></trkpt><trkpt lat="14.381378047188715" lon="120.99452419890505"><ele>62.0</ele><time>2026-04-14T04:55:50.001Z</time></trkpt><trkpt lat="14.381280917697563" lon="120.99451791964573"><ele>62.0</ele><time>2026-04-14T04:55:52.001Z</time></trkpt><trkpt lat="14.381181681742826" lon="120.99451262621429"><ele>62.0</ele><time>2026-04-14T04:55:54.001Z</time></trkpt><trkpt lat="14.381100583096675" lon="120.99450596285189"><ele>62.0</ele><time>2026-04-14T04:55:56.001Z</time></trkpt><trkpt lat="14.38102742823628" lon="120.9944973313465"><ele>62.0</ele><time>2026-04-14T04:55:58.002Z</time></trkpt><trkpt lat="14.380915950597807" lon="120.99447802237572"><ele>62.0</ele><time>2026-04-14T04:56:00.002Z</time></trkpt><trkpt lat="14.38083416457789" lon="120.99443905282904"><ele>62.0</ele><time>2026-04-14T04:56:02.002Z</time></trkpt><trkpt lat="14.3807867351624" lon="120.99431932783295"><ele>62.0</ele><time>2026-04-14T04:56:05.002Z</time></trkpt><trkpt lat="14.380781483295241" lon="120.9942479217308"><ele>62.0</ele><time>2026-04-14T04:56:06Z</time></trkpt><trkpt lat="14.380771408937058" lon="120.99417044588292"><ele>62.0</ele><time>2026-04-14T04:56:07Z</time></trkpt><trkpt lat="14.380763499577874" lon="120.99407503463513"><ele>62.0</ele><time>2026-04-14T04:56:08Z</time></trkpt><trkpt lat="14.380752571351643" lon="120.99396691491535"><ele>62.0</ele><time>2026-04-14T04:56:09Z</time></trkpt><trkpt lat="14.380743828857046" lon="120.99384724640277"><ele>61.5</ele><time>2026-04-14T04:56:10Z</time></trkpt><trkpt lat="14.380732443049737" lon="120.99372253473452"><ele>61.0</ele><time>2026-04-14T04:56:11Z</time></trkpt><trkpt lat="14.38071998348523" lon="120.99358434063915"><ele>60.5</ele><time>2026-04-14T04:56:12Z</time></trkpt><trkpt lat="14.380708776625934" lon="120.9934494504685"><ele>60.0</ele><time>2026-04-14T04:56:13Z</time></trkpt><trkpt lat="14.380698439361403" lon="120.99330838080073"><ele>59.5</ele><time>2026-04-14T04:56:14Z</time></trkpt><trkpt lat="14.38068568522984" lon="120.99316300686617"><ele>59.0</ele><time>2026-04-14T04:56:15Z</time></trkpt><trkpt lat="14.380673720176219" lon="120.99301621581606"><ele>58.5</ele><time>2026-04-14T04:56:16Z</time></trkpt><trkpt lat="14.38066043284539" lon="120.99286514520828"><ele>58.0</ele><time>2026-04-14T04:56:17Z</time></trkpt><trkpt lat="14.380649647209887" lon="120.99271039715182"><ele>58.0</ele><time>2026-04-14T04:56:18Z</time></trkpt><trkpt lat="14.380637437329769" lon="120.99255347497244"><ele>58.0</ele><time>2026-04-14T04:56:19Z</time></trkpt><trkpt lat="14.380625149862201" lon="120.99239226480809"><ele>58.0</ele><time>2026-04-14T04:56:20Z</time></trkpt><trkpt lat="14.38061243480051" lon="120.99223117089687"><ele>57.75</ele><time>2026-04-14T04:56:21Z</time></trkpt><trkpt lat="14.380597129651479" lon="120.99207692606969"><ele>57.5</ele><time>2026-04-14T04:56:22Z</time></trkpt><trkpt lat="14.38059146383793" lon="120.99193426663255"><ele>57.25</ele><time>2026-04-14T04:56:23Z</time></trkpt><trkpt lat="14.380596973546982" lon="120.99179656560018"><ele>57.0</ele><time>2026-04-14T04:56:24Z</time></trkpt><trkpt lat="14.380616929443738" lon="120.99166085795362"><ele>57.0</ele><time>2026-04-14T04:56:25Z</time></trkpt><trkpt lat="14.380657549523479" lon="120.9915288431527"><ele>57.0</ele><time>2026-04-14T04:56:26Z</time></trkpt><trkpt lat="14.380719617790833" lon="120.99140387991774"><ele>57.0</ele><time>2026-04-14T04:56:27Z</time></trkpt><trkpt lat="14.38080025491665" lon="120.99128556443999"><ele>57.0</ele><time>2026-04-14T04:56:28Z</time></trkpt><trkpt lat="14.380888979237536" lon="120.99117394830866"><ele>57.0</ele><time>2026-04-14T04:56:29Z</time></trkpt><trkpt lat="14.380977250133872" lon="120.99106245307844"><ele>57.0</ele><time>2026-04-14T04:56:30Z</time></trkpt><trkpt lat="14.381061157851914" lon="120.99094480349338"><ele>57.0</ele><time>2026-04-14T04:56:31Z</time></trkpt><trkpt lat="14.381146025494571" lon="120.99082447810666"><ele>57.0</ele><time>2026-04-14T04:56:32Z</time></trkpt><trkpt lat="14.3812366546441" lon="120.99070512919164"><ele>57.0</ele><time>2026-04-14T04:56:33Z</time></trkpt><trkpt lat="14.381331832512247" lon="120.990583224885"><ele>57.0</ele><time>2026-04-14T04:56:34Z</time></trkpt><trkpt lat="14.38142953794425" lon="120.99045755617539"><ele>57.0</ele><time>2026-04-14T04:56:35Z</time></trkpt><trkpt lat="14.381523300442012" lon="120.99033444599496"><ele>57.0</ele><time>2026-04-14T04:56:36Z</time></trkpt><trkpt lat="14.38161334551444" lon="120.9902122444222"><ele>57.0</ele><time>2026-04-14T04:56:37Z</time></trkpt><trkpt lat="14.381695078298739" lon="120.9900829840868"><ele>57.0</ele><time>2026-04-14T04:56:38Z</time></trkpt><trkpt lat="14.381768444777459" lon="120.98993567552135"><ele>55.33333333333333</ele><time>2026-04-14T04:56:39Z</time></trkpt><trkpt lat="14.381824795391351" lon="120.98979242642264"><ele>53.666666666666664</ele><time>2026-04-14T04:56:40Z</time></trkpt><trkpt lat="14.38186010497184" lon="120.98963888349782"><ele>52.0</ele><time>2026-04-14T04:56:41Z</time></trkpt><trkpt lat="14.381884874627067" lon="120.98947892259416"><ele>52.0</ele><time>2026-04-14T04:56:42Z</time></trkpt><trkpt lat="14.381906156310565" lon="120.9893202715746"><ele>52.0</ele><time>2026-04-14T04:56:43Z</time></trkpt><trkpt lat="14.381916381986404" lon="120.98915222903089"><ele>52.0</ele><time>2026-04-14T04:56:44Z</time></trkpt><trkpt lat="14.38191803599036" lon="120.98899772276562"><ele>49.75</ele><time>2026-04-14T04:56:45.001Z</time></trkpt><trkpt lat="14.38191940234129" lon="120.98884745489573"><ele>47.5</ele><time>2026-04-14T04:56:46.001Z</time></trkpt><trkpt lat="14.381928317059137" lon="120.98871551285234"><ele>45.25</ele><time>2026-04-14T04:56:47.001Z</time></trkpt><trkpt lat="14.381929950108049" lon="120.98858760713388"><ele>43.0</ele><time>2026-04-14T04:56:48.001Z</time></trkpt><trkpt lat="14.381929607276122" lon="120.98845876735848"><ele>43.0</ele><time>2026-04-14T04:56:49.001Z</time></trkpt><trkpt lat="14.381939385861743" lon="120.9883600460078"><ele>43.0</ele><time>2026-04-14T04:56:50.001Z</time></trkpt><trkpt lat="14.381959167589011" lon="120.98826221482031"><ele>43.0</ele><time>2026-04-14T04:56:51.001Z</time></trkpt><trkpt lat="14.381940719790634" lon="120.98812266535892"><ele>43.0</ele><time>2026-04-14T04:56:52.001Z</time></trkpt><trkpt lat="14.38196728473997" lon="120.9880040253937"><ele>43.0</ele><time>2026-04-14T04:56:53.001Z</time></trkpt><trkpt lat="14.382009291524831" lon="120.98788756001488"><ele>43.0</ele><time>2026-04-14T04:56:54.001Z</time></trkpt><trkpt lat="14.382061456476023" lon="120.98778577928317"><ele>43.0</ele><time>2026-04-14T04:56:55.001Z</time></trkpt><trkpt lat="14.382111567103008" lon="120.9876983994893"><ele>43.0</ele><time>2026-04-14T04:56:56.001Z</time></trkpt><trkpt lat="14.382156829458754" lon="120.9876128293632"><ele>43.0</ele><time>2026-04-14T04:56:57.001Z</time></trkpt><trkpt lat="14.382203303336283" lon="120.98752301960643"><ele>43.0</ele><time>2026-04-14T04:56:58.001Z</time></trkpt><trkpt lat="14.382248089844648" lon="120.98742898314694"><ele>43.599999999999994</ele><time>2026-04-14T04:56:59.001Z</time></trkpt><trkpt lat="14.382296437191824" lon="120.98733263257647"><ele>44.199999999999996</ele><time>2026-04-14T04:57:00.001Z</time></trkpt><trkpt lat="14.382342071208043" lon="120.98723248648503"><ele>44.8</ele><time>2026-04-14T04:57:01.001Z</time></trkpt><trkpt lat="14.382385165962503" lon="120.98713432085397"><ele>45.4</ele><time>2026-04-14T04:57:02.001Z</time></trkpt><trkpt lat="14.382430311748752" lon="120.98703408161205"><ele>46.0</ele><time>2026-04-14T04:57:03.001Z</time></trkpt><trkpt lat="14.382474450260585" lon="120.9869284517867"><ele>46.0</ele><time>2026-04-14T04:57:04.001Z</time></trkpt><trkpt lat="14.382522461464673" lon="120.9868230015895"><ele>46.0</ele><time>2026-04-14T04:57:05.001Z</time></trkpt><trkpt lat="14.382571900451929" lon="120.98671153853883"><ele>46.0</ele><time>2026-04-14T04:57:06.001Z</time></trkpt><trkpt lat="14.382626057335273" lon="120.98659633602517"><ele>46.0</ele><time>2026-04-14T04:57:07.001Z</time></trkpt><trkpt lat="14.382679224161599" lon="120.98647336330252"><ele>45.75</ele><time>2026-04-14T04:57:08.001Z</time></trkpt><trkpt lat="14.382739616827246" lon="120.98634688211436"><ele>45.5</ele><time>2026-04-14T04:57:09.001Z</time></trkpt><trkpt lat="14.382799409310653" lon="120.98621590034982"><ele>45.25</ele><time>2026-04-14T04:57:10.001Z</time></trkpt><trkpt lat="14.38286104495456" lon="120.98608158762318"><ele>45.0</ele><time>2026-04-14T04:57:11.001Z</time></trkpt><trkpt lat="14.38292172644259" lon="120.98594192804192"><ele>45.5</ele><time>2026-04-14T04:57:12.001Z</time></trkpt><trkpt lat="14.382985050802134" lon="120.98580014641202"><ele>46.0</ele><time>2026-04-14T04:57:13.001Z</time></trkpt><trkpt lat="14.383051887910428" lon="120.98567398822783"><ele>46.5</ele><time>2026-04-14T04:57:14.001Z</time></trkpt><trkpt lat="14.383113462903658" lon="120.98553160066095"><ele>47.0</ele><time>2026-04-14T04:57:15.001Z</time></trkpt><trkpt lat="14.383176229078256" lon="120.98538397553932"><ele>47.0</ele><time>2026-04-14T04:57:16.001Z</time></trkpt><trkpt lat="14.383247651691466" lon="120.98524613388709"><ele>47.0</ele><time>2026-04-14T04:57:17.001Z</time></trkpt><trkpt lat="14.38332070673821" lon="120.9851121602647"><ele>47.0</ele><time>2026-04-14T04:57:18.001Z</time></trkpt><trkpt lat="14.383382884210274" lon="120.98496961399576"><ele>45.33333333333333</ele><time>2026-04-14T04:57:19.001Z</time></trkpt><trkpt lat="14.383435620387893" lon="120.98481946664259"><ele>43.666666666666664</ele><time>2026-04-14T04:57:20.001Z</time></trkpt><trkpt lat="14.383481211223195" lon="120.98465828002222"><ele>42.0</ele><time>2026-04-14T04:57:21.001Z</time></trkpt><trkpt lat="14.383518912429745" lon="120.98449095472348"><ele>42.0</ele><time>2026-04-14T04:57:22.001Z</time></trkpt><trkpt lat="14.383549554876932" lon="120.98431357485616"><ele>42.0</ele><time>2026-04-14T04:57:23.001Z</time></trkpt><trkpt lat="14.383573654907979" lon="120.98417588886211"><ele>42.0</ele><time>2026-04-14T04:57:24.001Z</time></trkpt><trkpt lat="14.383592089484939" lon="120.98401995769865"><ele>43.666666666666664</ele><time>2026-04-14T04:57:25.001Z</time></trkpt><trkpt lat="14.383609426965778" lon="120.98386593178782"><ele>45.33333333333333</ele><time>2026-04-14T04:57:26.001Z</time></trkpt><trkpt lat="14.383616535113116" lon="120.98370612874069"><ele>47.0</ele><time>2026-04-14T04:57:27.001Z</time></trkpt><trkpt lat="14.383619166170721" lon="120.98354015860578"><ele>47.0</ele><time>2026-04-14T04:57:28.001Z</time></trkpt><trkpt lat="14.383609228902865" lon="120.98336169647934"><ele>47.0</ele><time>2026-04-14T04:57:29.001Z</time></trkpt><trkpt lat="14.383595811279035" lon="120.9831770327866"><ele>47.0</ele><time>2026-04-14T04:57:30.001Z</time></trkpt><trkpt lat="14.383592012550867" lon="120.98300736779338"><ele>46.666666666666664</ele><time>2026-04-14T04:57:31.001Z</time></trkpt><trkpt lat="14.383584212038011" lon="120.98282400465649"><ele>46.333333333333336</ele><time>2026-04-14T04:57:32.001Z</time></trkpt><trkpt lat="14.383578270281737" lon="120.98264482624298"><ele>46.0</ele><time>2026-04-14T04:57:33.001Z</time></trkpt><trkpt lat="14.383574940856143" lon="120.98247157060905"><ele>45.66666666666667</ele><time>2026-04-14T04:57:34.001Z</time></trkpt><trkpt lat="14.383573163112512" lon="120.98229343892775"><ele>45.333333333333336</ele><time>2026-04-14T04:57:35.001Z</time></trkpt><trkpt lat="14.38356858912186" lon="120.9821231854746"><ele>45.0</ele><time>2026-04-14T04:57:36.001Z</time></trkpt><trkpt lat="14.38355738105094" lon="120.98193936558829"><ele>45.0</ele><time>2026-04-14T04:57:37.001Z</time></trkpt><trkpt lat="14.383550782287811" lon="120.9817737153354"><ele>45.0</ele><time>2026-04-14T04:57:38.001Z</time></trkpt><trkpt lat="14.38354942566752" lon="120.98162615726211"><ele>45.0</ele><time>2026-04-14T04:57:39.001Z</time></trkpt><trkpt lat="14.383547956149675" lon="120.98148091011365"><ele>45.0</ele><time>2026-04-14T04:57:40.001Z</time></trkpt><trkpt lat="14.383542507590441" lon="120.98133478717232"><ele>44.5</ele><time>2026-04-14T04:57:41.001Z</time></trkpt><trkpt lat="14.38354034609086" lon="120.98120391016748"><ele>44.0</ele><time>2026-04-14T04:57:42.001Z</time></trkpt><trkpt lat="14.38353669788774" lon="120.98108079373745"><ele>43.5</ele><time>2026-04-14T04:57:43.001Z</time></trkpt><trkpt lat="14.383527979093717" lon="120.98096426583119"><ele>43.0</ele><time>2026-04-14T04:57:44.001Z</time></trkpt><trkpt lat="14.383538902055182" lon="120.98086211099225"><ele>43.2</ele><time>2026-04-14T04:57:45.001Z</time></trkpt><trkpt lat="14.383539250720117" lon="120.98076391397406"><ele>43.4</ele><time>2026-04-14T04:57:46.001Z</time></trkpt><trkpt lat="14.383553035408097" lon="120.98066675300413"><ele>43.6</ele><time>2026-04-14T04:57:47.001Z</time></trkpt><trkpt lat="14.38363434935068" lon="120.98057690159786"><ele>43.800000000000004</ele><time>2026-04-14T04:57:48.001Z</time></trkpt><trkpt lat="14.38371977828562" lon="120.98050161887416"><ele>44.0</ele><time>2026-04-14T04:57:49.001Z</time></trkpt><trkpt lat="14.383822927216267" lon="120.98044067071035"><ele>43.75</ele><time>2026-04-14T04:57:50.001Z</time></trkpt><trkpt lat="14.383940578604049" lon="120.98039728788358"><ele>43.5</ele><time>2026-04-14T04:57:51.001Z</time></trkpt><trkpt lat="14.384066399540044" lon="120.98035941513821"><ele>43.25</ele><time>2026-04-14T04:57:52.001Z</time></trkpt><trkpt lat="14.384196883164698" lon="120.98031306521297"><ele>43.0</ele><time>2026-04-14T04:57:53.001Z</time></trkpt><trkpt lat="14.384333484606078" lon="120.9802607845722"><ele>43.0</ele><time>2026-04-14T04:57:54.001Z</time></trkpt><trkpt lat="14.38447454050033" lon="120.98021089120068"><ele>43.0</ele><time>2026-04-14T04:57:55.001Z</time></trkpt><trkpt lat="14.384615079507846" lon="120.98016122630246"><ele>43.0</ele><time>2026-04-14T04:57:56.001Z</time></trkpt><trkpt lat="14.384757932460882" lon="120.98010783182359"><ele>43.0</ele><time>2026-04-14T04:57:57.001Z</time></trkpt><trkpt lat="14.38490414297453" lon="120.98005375866131"><ele>43.0</ele><time>2026-04-14T04:57:58.001Z</time></trkpt><trkpt lat="14.385050720443152" lon="120.97999960549815"><ele>43.0</ele><time>2026-04-14T04:57:59.001Z</time></trkpt><trkpt lat="14.385197219334952" lon="120.97994459003047"><ele>43.0</ele><time>2026-04-14T04:58:00.001Z</time></trkpt><trkpt lat="14.38533416571601" lon="120.97989095576132"><ele>43.0</ele><time>2026-04-14T04:58:01.001Z</time></trkpt><trkpt lat="14.385465800565314" lon="120.97982995074369"><ele>43.0</ele><time>2026-04-14T04:58:02.001Z</time></trkpt><trkpt lat="14.385589956030184" lon="120.97976065332283"><ele>43.0</ele><time>2026-04-14T04:58:03.001Z</time></trkpt><trkpt lat="14.385700498048063" lon="120.97966852429937"><ele>43.25</ele><time>2026-04-14T04:58:04.001Z</time></trkpt><trkpt lat="14.385789750706426" lon="120.97955063498871"><ele>43.5</ele><time>2026-04-14T04:58:05.001Z</time></trkpt><trkpt lat="14.385861936259404" lon="120.97941535359784"><ele>43.75</ele><time>2026-04-14T04:58:06.001Z</time></trkpt><trkpt lat="14.385913289020845" lon="120.97926673390398"><ele>44.0</ele><time>2026-04-14T04:58:07.001Z</time></trkpt><trkpt lat="14.385944713719722" lon="120.97911146794151"><ele>44.0</ele><time>2026-04-14T04:58:08.002Z</time></trkpt><trkpt lat="14.38596216523816" lon="120.97895062445268"><ele>44.0</ele><time>2026-04-14T04:58:09.002Z</time></trkpt><trkpt lat="14.385975962261469" lon="120.97879327555646"><ele>44.0</ele><time>2026-04-14T04:58:10.002Z</time></trkpt><trkpt lat="14.385994197464726" lon="120.97862747198418"><ele>44.0</ele><time>2026-04-14T04:58:11.002Z</time></trkpt><trkpt lat="14.386013224099834" lon="120.9784721298496"><ele>44.0</ele><time>2026-04-14T04:58:12Z</time></trkpt><trkpt lat="14.3860309750527" lon="120.97832534782286"><ele>44.0</ele><time>2026-04-14T04:58:13Z</time></trkpt><trkpt lat="14.386045142955386" lon="120.97818953422517"><ele>44.0</ele><time>2026-04-14T04:58:14Z</time></trkpt><trkpt lat="14.386057894304914" lon="120.9780658313649"><ele>44.666666666666664</ele><time>2026-04-14T04:58:15Z</time></trkpt><trkpt lat="14.38606677753512" lon="120.97796023778645"><ele>45.33333333333333</ele><time>2026-04-14T04:58:16Z</time></trkpt><trkpt lat="14.386076985586946" lon="120.97788278907412"><ele>46.0</ele><time>2026-04-14T04:58:17Z</time></trkpt><trkpt lat="14.386084534634916" lon="120.97780225228271"><ele>46.666666666666664</ele><time>2026-04-14T04:58:18Z</time></trkpt><trkpt lat="14.386089927119745" lon="120.97772216592708"><ele>47.333333333333336</ele><time>2026-04-14T04:58:19Z</time></trkpt><trkpt lat="14.386104029287175" lon="120.97763109307148"><ele>48.0</ele><time>2026-04-14T04:58:20Z</time></trkpt><trkpt lat="14.386120569145064" lon="120.97754513993648"><ele>47.666666666666664</ele><time>2026-04-14T04:58:21Z</time></trkpt><trkpt lat="14.386136898169125" lon="120.97745578365313"><ele>47.333333333333336</ele><time>2026-04-14T04:58:22Z</time></trkpt><trkpt lat="14.386150948140253" lon="120.97737057965254"><ele>47.0</ele><time>2026-04-14T04:58:23Z</time></trkpt><trkpt lat="14.386165426093955" lon="120.97728973477314"><ele>46.66666666666667</ele><time>2026-04-14T04:58:24Z</time></trkpt><trkpt lat="14.386182812925322" lon="120.97721963173029"><ele>46.333333333333336</ele><time>2026-04-14T04:58:25Z</time></trkpt><trkpt lat="14.386200191966985" lon="120.9771494319968"><ele>46.0</ele><time>2026-04-14T04:58:26Z</time></trkpt><trkpt lat="14.386218187367252" lon="120.97708323970747"><ele>46.0</ele><time>2026-04-14T04:58:27Z</time></trkpt><trkpt lat="14.386237059013295" lon="120.97701199793045"><ele>46.0</ele><time>2026-04-14T04:58:28Z</time></trkpt><trkpt lat="14.386254672399616" lon="120.9769429352029"><ele>46.0</ele><time>2026-04-14T04:58:29Z</time></trkpt><trkpt lat="14.386290849750829" lon="120.97682295929769"><ele>46.0</ele><time>2026-04-14T04:58:31Z</time></trkpt><trkpt lat="14.386312101281417" lon="120.97674796470815"><ele>46.0</ele><time>2026-04-14T04:58:32Z</time></trkpt><trkpt lat="14.386351931096268" lon="120.97661891200525"><ele>46.142857142857146</ele><time>2026-04-14T04:58:34Z</time></trkpt><trkpt lat="14.386364354743005" lon="120.97655443221288"><ele>46.285714285714285</ele><time>2026-04-14T04:58:35Z</time></trkpt><trkpt lat="14.386380749418974" lon="120.97648402072502"><ele>46.42857142857143</ele><time>2026-04-14T04:58:36Z</time></trkpt><trkpt lat="14.386395871019275" lon="120.97641603692227"><ele>46.57142857142857</ele><time>2026-04-14T04:58:37Z</time></trkpt><trkpt lat="14.386413278313954" lon="120.97634541321823"><ele>46.71428571428571</ele><time>2026-04-14T04:58:38Z</time></trkpt><trkpt lat="14.386431589932544" lon="120.97626618237153"><ele>46.857142857142854</ele><time>2026-04-14T04:58:39Z</time></trkpt><trkpt lat="14.386446556337992" lon="120.97618889595016"><ele>47.0</ele><time>2026-04-14T04:58:40Z</time></trkpt><trkpt lat="14.38647108031045" lon="120.97610878205853"><ele>47.0</ele><time>2026-04-14T04:58:41Z</time></trkpt><trkpt lat="14.386492619659439" lon="120.97602869675681"><ele>47.0</ele><time>2026-04-14T04:58:42Z</time></trkpt><trkpt lat="14.386513107100706" lon="120.97595337809727"><ele>47.0</ele><time>2026-04-14T04:58:43Z</time></trkpt><trkpt lat="14.386532872354488" lon="120.97588335973306"><ele>47.0</ele><time>2026-04-14T04:58:44Z</time></trkpt><trkpt lat="14.386554983008782" lon="120.97580726943941"><ele>47.0</ele><time>2026-04-14T04:58:45Z</time></trkpt><trkpt lat="14.386579620845323" lon="120.97571703747593"><ele>47.0</ele><time>2026-04-14T04:58:46Z</time></trkpt><trkpt lat="14.386604489362483" lon="120.97564235481538"><ele>46.2</ele><time>2026-04-14T04:58:47Z</time></trkpt><trkpt lat="14.386634959292012" lon="120.97554770726853"><ele>45.400000000000006</ele><time>2026-04-14T04:58:48.001Z</time></trkpt><trkpt lat="14.386673264038205" lon="120.97545810224479"><ele>44.599999999999994</ele><time>2026-04-14T04:58:49.001Z</time></trkpt><trkpt lat="14.3867057073438" lon="120.97537225717848"><ele>43.8</ele><time>2026-04-14T04:58:50.001Z</time></trkpt><trkpt lat="14.386727746923585" lon="120.9752964797548"><ele>43.0</ele><time>2026-04-14T04:58:51.001Z</time></trkpt><trkpt lat="14.386761814584228" lon="120.97518346221781"><ele>43.0</ele><time>2026-04-14T04:58:53.001Z</time></trkpt><trkpt lat="14.386797643581149" lon="120.97506806213877"><ele>43.0</ele><time>2026-04-14T04:58:55.001Z</time></trkpt><trkpt lat="14.386813854306206" lon="120.97499533065285"><ele>43.0</ele><time>2026-04-14T04:58:56.001Z</time></trkpt><trkpt lat="14.386821831350671" lon="120.97492031562543"><ele>43.0</ele><time>2026-04-14T04:58:57.001Z</time></trkpt><trkpt lat="14.386831814361704" lon="120.97482799977658"><ele>43.0</ele><time>2026-04-14T04:58:58.001Z</time></trkpt><trkpt lat="14.386847528737778" lon="120.97472645954305"><ele>44.0</ele><time>2026-04-14T04:58:59.001Z</time></trkpt><trkpt lat="14.386882358804632" lon="120.9746223549117"><ele>45.0</ele><time>2026-04-14T04:59:00.001Z</time></trkpt><trkpt lat="14.386903513564894" lon="120.97450286640711"><ele>46.0</ele><time>2026-04-14T04:59:01.001Z</time></trkpt><trkpt lat="14.386916559589217" lon="120.97437700359735"><ele>47.0</ele><time>2026-04-14T04:59:02.001Z</time></trkpt><trkpt lat="14.386930206020928" lon="120.97424933526486"><ele>46.5</ele><time>2026-04-14T04:59:03.001Z</time></trkpt><trkpt lat="14.386932514830319" lon="120.97411596908765"><ele>46.0</ele><time>2026-04-14T04:59:04.001Z</time></trkpt><trkpt lat="14.386959827438094" lon="120.97397965115086"><ele>45.5</ele><time>2026-04-14T04:59:05.001Z</time></trkpt><trkpt lat="14.386994032622624" lon="120.9738507985819"><ele>45.0</ele><time>2026-04-14T04:59:06.001Z</time></trkpt><trkpt lat="14.387029954243065" lon="120.97374278141882"><ele>45.0</ele><time>2026-04-14T04:59:07.001Z</time></trkpt><trkpt lat="14.387065272775708" lon="120.9736462023264"><ele>45.0</ele><time>2026-04-14T04:59:08.001Z</time></trkpt><trkpt lat="14.387099460988425" lon="120.97356415209255"><ele>45.0</ele><time>2026-04-14T04:59:09.001Z</time></trkpt><trkpt lat="14.38713360338337" lon="120.9734855723669"><ele>45.0</ele><time>2026-04-14T04:59:10.001Z</time></trkpt><trkpt lat="14.387164698693633" lon="120.97341252184908"><ele>45.0</ele><time>2026-04-14T04:59:11.001Z</time></trkpt><trkpt lat="14.387196425130796" lon="120.97331599568102"><ele>45.0</ele><time>2026-04-14T04:59:12.001Z</time></trkpt><trkpt lat="14.387218717748686" lon="120.97323200182937"><ele>44.8</ele><time>2026-04-14T04:59:13.001Z</time></trkpt><trkpt lat="14.387235919296009" lon="120.973157199964"><ele>44.6</ele><time>2026-04-14T04:59:14.001Z</time></trkpt><trkpt lat="14.38727042927969" lon="120.9730298497004"><ele>44.400000000000006</ele><time>2026-04-14T04:59:16.001Z</time></trkpt><trkpt lat="14.387301205252419" lon="120.97291014770482"><ele>44.2</ele><time>2026-04-14T04:59:18.001Z</time></trkpt><trkpt lat="14.38731185742496" lon="120.97283933905653"><ele>44.0</ele><time>2026-04-14T04:59:19.001Z</time></trkpt><trkpt lat="14.38733022640639" lon="120.9727286518445"><ele>44.0</ele><time>2026-04-14T04:59:21.001Z</time></trkpt><trkpt lat="14.387361299539338" lon="120.97260996744659"><ele>44.0</ele><time>2026-04-14T04:59:23.001Z</time></trkpt><trkpt lat="14.38738526391984" lon="120.9725091064122"><ele>44.0</ele><time>2026-04-14T04:59:25.001Z</time></trkpt><trkpt lat="14.387418284596226" lon="120.97239905628756"><ele>44.0</ele><time>2026-04-14T04:59:27.001Z</time></trkpt><trkpt lat="14.387457902541458" lon="120.97226844879307"><ele>43.6</ele><time>2026-04-14T04:59:29.001Z</time></trkpt><trkpt lat="14.387480549952397" lon="120.97218074082963"><ele>43.2</ele><time>2026-04-14T04:59:30.001Z</time></trkpt><trkpt lat="14.38750419882088" lon="120.97208348605135"><ele>42.800000000000004</ele><time>2026-04-14T04:59:31.001Z</time></trkpt><trkpt lat="14.387520846456333" lon="120.9719730006613"><ele>42.400000000000006</ele><time>2026-04-14T04:59:32.001Z</time></trkpt><trkpt lat="14.387542655672316" lon="120.97185090724149"><ele>42.0</ele><time>2026-04-14T04:59:33.001Z</time></trkpt><trkpt lat="14.387576236392816" lon="120.97171975651703"><ele>42.0</ele><time>2026-04-14T04:59:34.001Z</time></trkpt><trkpt lat="14.387614454759472" lon="120.97158604059942"><ele>42.0</ele><time>2026-04-14T04:59:35.001Z</time></trkpt><trkpt lat="14.387645701152646" lon="120.97146528268198"><ele>42.0</ele><time>2026-04-14T04:59:36.001Z</time></trkpt><trkpt lat="14.387675621197891" lon="120.97135563403411"><ele>42.0</ele><time>2026-04-14T04:59:37.001Z</time></trkpt><trkpt lat="14.387704570775773" lon="120.9712535591404"><ele>42.0</ele><time>2026-04-14T04:59:38.001Z</time></trkpt><trkpt lat="14.38773315450342" lon="120.97115205325778"><ele>42.0</ele><time>2026-04-14T04:59:39.001Z</time></trkpt><trkpt lat="14.38776927726406" lon="120.97105589060779"><ele>42.0</ele><time>2026-04-14T04:59:40.001Z</time></trkpt><trkpt lat="14.387803592221179" lon="120.97095429798946"><ele>42.0</ele><time>2026-04-14T04:59:41.001Z</time></trkpt><trkpt lat="14.387830512475164" lon="120.9708514750499"><ele>42.0</ele><time>2026-04-14T04:59:42.001Z</time></trkpt><trkpt lat="14.387863198318948" lon="120.97074702972759"><ele>42.6</ele><time>2026-04-14T04:59:43.001Z</time></trkpt><trkpt lat="14.387905019453685" lon="120.9706510184955"><ele>43.2</ele><time>2026-04-14T04:59:44.001Z</time></trkpt><trkpt lat="14.387949227936902" lon="120.9705743529277"><ele>43.8</ele><time>2026-04-14T04:59:45.001Z</time></trkpt><trkpt lat="14.387992809250907" lon="120.97049178645493"><ele>44.4</ele><time>2026-04-14T04:59:46.001Z</time></trkpt><trkpt lat="14.388040099473507" lon="120.97041235731136"><ele>45.0</ele><time>2026-04-14T04:59:47.001Z</time></trkpt><trkpt lat="14.388100529581745" lon="120.97032369183938"><ele>45.0</ele><time>2026-04-14T04:59:48.001Z</time></trkpt><trkpt lat="14.38817278303667" lon="120.9702315548573"><ele>45.0</ele><time>2026-04-14T04:59:49.001Z</time></trkpt><trkpt lat="14.388249398356592" lon="120.97013167136906"><ele>45.0</ele><time>2026-04-14T04:59:50.001Z</time></trkpt><trkpt lat="14.388317357050193" lon="120.97001787809468"><ele>45.0</ele><time>2026-04-14T04:59:51.001Z</time></trkpt><trkpt lat="14.388372890217456" lon="120.96989632456678"><ele>45.0</ele><time>2026-04-14T04:59:52.001Z</time></trkpt><trkpt lat="14.388422922193662" lon="120.9697668827987"><ele>45.0</ele><time>2026-04-14T04:59:53.001Z</time></trkpt><trkpt lat="14.388466870680297" lon="120.96963261136037"><ele>45.0</ele><time>2026-04-14T04:59:54.001Z</time></trkpt><trkpt lat="14.388510341954904" lon="120.96948925711916"><ele>45.0</ele><time>2026-04-14T04:59:55.001Z</time></trkpt><trkpt lat="14.388556185189769" lon="120.96935099941292"><ele>45.0</ele><time>2026-04-14T04:59:56.001Z</time></trkpt><trkpt lat="14.388601131304398" lon="120.96920718700498"><ele>45.0</ele><time>2026-04-14T04:59:57.001Z</time></trkpt><trkpt lat="14.388648991635739" lon="120.96907249779645"><ele>45.0</ele><time>2026-04-14T04:59:58.001Z</time></trkpt><trkpt lat="14.38869202463047" lon="120.96893901040997"><ele>45.0</ele><time>2026-04-14T04:59:59.001Z</time></trkpt><trkpt lat="14.388731286770986" lon="120.96881192763777"><ele>45.0</ele><time>2026-04-14T05:00:00.001Z</time></trkpt><trkpt lat="14.388765088265572" lon="120.96866729069265"><ele>45.0</ele><time>2026-04-14T05:00:01.001Z</time></trkpt><trkpt lat="14.388791530794249" lon="120.96852709474891"><ele>45.0</ele><time>2026-04-14T05:00:02.001Z</time></trkpt><trkpt lat="14.38880923931334" lon="120.96838278608263"><ele>45.0</ele><time>2026-04-14T05:00:03.001Z</time></trkpt><trkpt lat="14.388819671117894" lon="120.96825080898687"><ele>45.0</ele><time>2026-04-14T05:00:04.001Z</time></trkpt><trkpt lat="14.388822498994992" lon="120.96813250611632"><ele>45.0</ele><time>2026-04-14T05:00:05.001Z</time></trkpt><trkpt lat="14.388820951065362" lon="120.96801374202003"><ele>45.0</ele><time>2026-04-14T05:00:06.001Z</time></trkpt><trkpt lat="14.388821981352548" lon="120.96790516155917"><ele>45.0</ele><time>2026-04-14T05:00:07.001Z</time></trkpt><trkpt lat="14.388825877194481" lon="120.96781123188231"><ele>45.0</ele><time>2026-04-14T05:00:08.001Z</time></trkpt><trkpt lat="14.388827435874871" lon="120.96773100726067"><ele>45.0</ele><time>2026-04-14T05:00:09.001Z</time></trkpt><trkpt lat="14.3888231709062" lon="120.96766233698952"><ele>45.0</ele><time>2026-04-14T05:00:10.001Z</time></trkpt><trkpt lat="14.388818885568396" lon="120.96759459982184"><ele>45.0</ele><time>2026-04-14T05:00:11.001Z</time></trkpt><trkpt lat="14.388819753128127" lon="120.96752346898715"><ele>45.0</ele><time>2026-04-14T05:00:12.001Z</time></trkpt><trkpt lat="14.388823651335738" lon="120.96745690158693"><ele>45.0</ele><time>2026-04-14T05:00:13.002Z</time></trkpt><trkpt lat="14.38882741355939" lon="120.96734648717087"><ele>45.0</ele><time>2026-04-14T05:00:15.002Z</time></trkpt><trkpt lat="14.388826242598357" lon="120.96728094824216"><ele>45.0</ele><time>2026-04-14T05:00:16.002Z</time></trkpt><trkpt lat="14.388822188078835" lon="120.96720724961042"><ele>45.2</ele><time>2026-04-14T05:00:17.002Z</time></trkpt><trkpt lat="14.388810878753016" lon="120.96711895413428"><ele>45.4</ele><time>2026-04-14T05:00:18Z</time></trkpt><trkpt lat="14.388791216215509" lon="120.96702119744253"><ele>45.599999999999994</ele><time>2026-04-14T05:00:19Z</time></trkpt><trkpt lat="14.388767951537167" lon="120.96692170886327"><ele>45.8</ele><time>2026-04-14T05:00:20Z</time></trkpt><trkpt lat="14.388746588561052" lon="120.96681051149031"><ele>46.0</ele><time>2026-04-14T05:00:21Z</time></trkpt><trkpt lat="14.38872207784767" lon="120.96669483895457"><ele>45.75</ele><time>2026-04-14T05:00:22Z</time></trkpt><trkpt lat="14.388693050648707" lon="120.96657885572296"><ele>45.5</ele><time>2026-04-14T05:00:23Z</time></trkpt><trkpt lat="14.38866638198659" lon="120.96646671551346"><ele>45.25</ele><time>2026-04-14T05:00:24Z</time></trkpt><trkpt lat="14.388637193362577" lon="120.96634897543287"><ele>45.0</ele><time>2026-04-14T05:00:25Z</time></trkpt><trkpt lat="14.388612155506221" lon="120.96623991646774"><ele>45.0</ele><time>2026-04-14T05:00:26Z</time></trkpt><trkpt lat="14.3885822343401" lon="120.96611737121273"><ele>45.0</ele><time>2026-04-14T05:00:27Z</time></trkpt><trkpt lat="14.388553352327433" lon="120.96599697599076"><ele>45.0</ele><time>2026-04-14T05:00:28Z</time></trkpt><trkpt lat="14.38852538570369" lon="120.96587339318849"><ele>45.0</ele><time>2026-04-14T05:00:29Z</time></trkpt><trkpt lat="14.38849620712576" lon="120.96574351977937"><ele>44.75</ele><time>2026-04-14T05:00:30Z</time></trkpt><trkpt lat="14.38846554079651" lon="120.9656115328649"><ele>44.5</ele><time>2026-04-14T05:00:31Z</time></trkpt><trkpt lat="14.388436065799354" lon="120.96547944070306"><ele>44.25</ele><time>2026-04-14T05:00:32Z</time></trkpt><trkpt lat="14.388399738052572" lon="120.96534785261275"><ele>44.0</ele><time>2026-04-14T05:00:33Z</time></trkpt><trkpt lat="14.388357866371095" lon="120.96520981157623"><ele>44.0</ele><time>2026-04-14T05:00:34Z</time></trkpt><trkpt lat="14.388318129030255" lon="120.9650689976011"><ele>44.0</ele><time>2026-04-14T05:00:35Z</time></trkpt><trkpt lat="14.388272214324745" lon="120.96493291462592"><ele>44.0</ele><time>2026-04-14T05:00:36Z</time></trkpt><trkpt lat="14.388225698675214" lon="120.96479610836666"><ele>44.0</ele><time>2026-04-14T05:00:37Z</time></trkpt><trkpt lat="14.388180505222737" lon="120.96466922450955"><ele>44.0</ele><time>2026-04-14T05:00:38Z</time></trkpt><trkpt lat="14.388126484723035" lon="120.9645314866309"><ele>44.0</ele><time>2026-04-14T05:00:39Z</time></trkpt><trkpt lat="14.388065149565588" lon="120.96439470814063"><ele>44.0</ele><time>2026-04-14T05:00:40Z</time></trkpt><trkpt lat="14.388003527434105" lon="120.96425988905045"><ele>44.0</ele><time>2026-04-14T05:00:41Z</time></trkpt><trkpt lat="14.387958340688083" lon="120.96411694187658"><ele>43.5</ele><time>2026-04-14T05:00:42Z</time></trkpt><trkpt lat="14.387896696160073" lon="120.96397965436451"><ele>43.0</ele><time>2026-04-14T05:00:43Z</time></trkpt><trkpt lat="14.387834081220666" lon="120.96384121068776"><ele>42.5</ele><time>2026-04-14T05:00:44Z</time></trkpt><trkpt lat="14.387772849690224" lon="120.96370543514868"><ele>42.0</ele><time>2026-04-14T05:00:45Z</time></trkpt><trkpt lat="14.387710971192677" lon="120.96357843775637"><ele>42.0</ele><time>2026-04-14T05:00:46Z</time></trkpt><trkpt lat="14.38763725372534" lon="120.96346840513054"><ele>42.0</ele><time>2026-04-14T05:00:47Z</time></trkpt><trkpt lat="14.387584343819139" lon="120.96335753318544"><ele>42.0</ele><time>2026-04-14T05:00:48Z</time></trkpt><trkpt lat="14.387531054025112" lon="120.96324709783289"><ele>42.0</ele><time>2026-04-14T05:00:49Z</time></trkpt><trkpt lat="14.38747726299029" lon="120.96313700925897"><ele>41.8</ele><time>2026-04-14T05:00:50Z</time></trkpt><trkpt lat="14.387426573979726" lon="120.9630279744072"><ele>41.6</ele><time>2026-04-14T05:00:51Z</time></trkpt><trkpt lat="14.38738015213136" lon="120.96292559248802"><ele>41.4</ele><time>2026-04-14T05:00:52Z</time></trkpt><trkpt lat="14.38733590463361" lon="120.96282822864578"><ele>41.199999999999996</ele><time>2026-04-14T05:00:53Z</time></trkpt><trkpt lat="14.38729146899672" lon="120.96273380366843"><ele>41.0</ele><time>2026-04-14T05:00:54Z</time></trkpt><trkpt lat="14.387246066125302" lon="120.96263535544614"><ele>41.0</ele><time>2026-04-14T05:00:55.001Z</time></trkpt><trkpt lat="14.387194825748486" lon="120.96253372769922"><ele>41.0</ele><time>2026-04-14T05:00:56.001Z</time></trkpt><trkpt lat="14.387133000909685" lon="120.9624262717742"><ele>41.0</ele><time>2026-04-14T05:00:57.001Z</time></trkpt><trkpt lat="14.387068637673917" lon="120.96230437059035"><ele>41.0</ele><time>2026-04-14T05:00:58.001Z</time></trkpt><trkpt lat="14.38700468429911" lon="120.96217033165426"><ele>41.0</ele><time>2026-04-14T05:00:59.001Z</time></trkpt><trkpt lat="14.386942307884802" lon="120.96202915550589"><ele>41.0</ele><time>2026-04-14T05:01:00.001Z</time></trkpt><trkpt lat="14.386875721094341" lon="120.9618816501646"><ele>41.0</ele><time>2026-04-14T05:01:01.001Z</time></trkpt><trkpt lat="14.386809110176369" lon="120.96173058530624"><ele>40.0</ele><time>2026-04-14T05:01:02.001Z</time></trkpt><trkpt lat="14.386741471052426" lon="120.9615805766655"><ele>39.0</ele><time>2026-04-14T05:01:03.001Z</time></trkpt><trkpt lat="14.38666821585814" lon="120.96143079119639"><ele>38.0</ele><time>2026-04-14T05:01:04.001Z</time></trkpt><trkpt lat="14.386613673802335" lon="120.96127356296005"><ele>38.0</ele><time>2026-04-14T05:01:05.001Z</time></trkpt><trkpt lat="14.386531619373422" lon="120.9611261035889"><ele>38.0</ele><time>2026-04-14T05:01:06.001Z</time></trkpt><trkpt lat="14.386453536096042" lon="120.96099645988042"><ele>38.0</ele><time>2026-04-14T05:01:07.001Z</time></trkpt><trkpt lat="14.38636361750919" lon="120.96088526931183"><ele>39.0</ele><time>2026-04-14T05:01:08.001Z</time></trkpt><trkpt lat="14.386281334831006" lon="120.96076839617388"><ele>40.0</ele><time>2026-04-14T05:01:09.001Z</time></trkpt><trkpt lat="14.386188849378787" lon="120.96065603613437"><ele>41.0</ele><time>2026-04-14T05:01:10.001Z</time></trkpt><trkpt lat="14.386084561663878" lon="120.9605458379662"><ele>42.0</ele><time>2026-04-14T05:01:11.001Z</time></trkpt><trkpt lat="14.385971424217546" lon="120.9604339722552"><ele>42.0</ele><time>2026-04-14T05:01:12.001Z</time></trkpt><trkpt lat="14.385849860004818" lon="120.9603244093093"><ele>42.0</ele><time>2026-04-14T05:01:13.001Z</time></trkpt><trkpt lat="14.385724094571433" lon="120.96022107157091"><ele>42.0</ele><time>2026-04-14T05:01:14.001Z</time></trkpt><trkpt lat="14.385592194797015" lon="120.96011209438825"><ele>42.333333333333336</ele><time>2026-04-14T05:01:15.001Z</time></trkpt><trkpt lat="14.385452942930486" lon="120.96001135485739"><ele>42.66666666666667</ele><time>2026-04-14T05:01:16.001Z</time></trkpt><trkpt lat="14.38531622513886" lon="120.95991722924016"><ele>43.0</ele><time>2026-04-14T05:01:17.001Z</time></trkpt><trkpt lat="14.385181796655756" lon="120.95982896413716"><ele>43.0</ele><time>2026-04-14T05:01:18.001Z</time></trkpt><trkpt lat="14.385042722018573" lon="120.95974219412155"><ele>43.0</ele><time>2026-04-14T05:01:19.001Z</time></trkpt><trkpt lat="14.384903199225729" lon="120.95965386520908"><ele>43.0</ele><time>2026-04-14T05:01:20.001Z</time></trkpt><trkpt lat="14.384760990983304" lon="120.95955863587811"><ele>42.66666666666667</ele><time>2026-04-14T05:01:21.001Z</time></trkpt><trkpt lat="14.384621814695576" lon="120.95946007100416"><ele>42.333333333333336</ele><time>2026-04-14T05:01:22.001Z</time></trkpt><trkpt lat="14.384485624979712" lon="120.95936161135045"><ele>42.0</ele><time>2026-04-14T05:01:23.001Z</time></trkpt><trkpt lat="14.384358766912598" lon="120.95927369301707"><ele>42.25</ele><time>2026-04-14T05:01:24.001Z</time></trkpt><trkpt lat="14.384234227272666" lon="120.95918660926898"><ele>42.5</ele><time>2026-04-14T05:01:25.001Z</time></trkpt><trkpt lat="14.384111588011615" lon="120.95910384507128"><ele>42.75</ele><time>2026-04-14T05:01:26.001Z</time></trkpt><trkpt lat="14.383991259663969" lon="120.95902425473463"><ele>43.0</ele><time>2026-04-14T05:01:27.001Z</time></trkpt><trkpt lat="14.38387707827727" lon="120.95894790948292"><ele>43.0</ele><time>2026-04-14T05:01:28.001Z</time></trkpt><trkpt lat="14.383773004187118" lon="120.95887317981078"><ele>43.0</ele><time>2026-04-14T05:01:29.001Z</time></trkpt><trkpt lat="14.383677229417929" lon="120.95880435583271"><ele>43.0</ele><time>2026-04-14T05:01:30.001Z</time></trkpt><trkpt lat="14.383580917767846" lon="120.95874660590074"><ele>43.0</ele><time>2026-04-14T05:01:31.001Z</time></trkpt><trkpt lat="14.383485849263636" lon="120.95870042921797"><ele>43.0</ele><time>2026-04-14T05:01:32.001Z</time></trkpt><trkpt lat="14.383412268636016" lon="120.95863272674534"><ele>43.0</ele><time>2026-04-14T05:01:33.001Z</time></trkpt><trkpt lat="14.383332793380253" lon="120.95857896000568"><ele>43.0</ele><time>2026-04-14T05:01:34.001Z</time></trkpt><trkpt lat="14.383262127640645" lon="120.95853115309743"><ele>43.0</ele><time>2026-04-14T05:01:35.001Z</time></trkpt><trkpt lat="14.383196578277506" lon="120.95848701393543"><ele>43.0</ele><time>2026-04-14T05:01:36.001Z</time></trkpt><trkpt lat="14.383139578338428" lon="120.9584493738234"><ele>43.0</ele><time>2026-04-14T05:01:37.001Z</time></trkpt><trkpt lat="14.383065891699738" lon="120.95840996874867"><ele>42.599999999999994</ele><time>2026-04-14T05:01:39.001Z</time></trkpt><trkpt lat="14.383000089829396" lon="120.95837066816044"><ele>42.199999999999996</ele><time>2026-04-14T05:01:43.001Z</time></trkpt><trkpt lat="14.382910454566717" lon="120.95831094236316"><ele>41.8</ele><time>2026-04-14T05:01:45.001Z</time></trkpt><trkpt lat="14.382843003770189" lon="120.95826053081234"><ele>41.4</ele><time>2026-04-14T05:01:46.001Z</time></trkpt><trkpt lat="14.382767953840235" lon="120.9582051592228"><ele>41.0</ele><time>2026-04-14T05:01:47.001Z</time></trkpt><trkpt lat="14.38267774395917" lon="120.95814266081025"><ele>41.0</ele><time>2026-04-14T05:01:48.001Z</time></trkpt><trkpt lat="14.382578472712556" lon="120.95807434506037"><ele>41.0</ele><time>2026-04-14T05:01:49.001Z</time></trkpt><trkpt lat="14.382470980437606" lon="120.95800094620007"><ele>41.0</ele><time>2026-04-14T05:01:50.001Z</time></trkpt><trkpt lat="14.382358500951963" lon="120.95792492581649"><ele>41.0</ele><time>2026-04-14T05:01:51.001Z</time></trkpt><trkpt lat="14.38224038243225" lon="120.95784249558731"><ele>41.33333333333333</ele><time>2026-04-14T05:01:52.001Z</time></trkpt><trkpt lat="14.382122286522344" lon="120.95775221839322"><ele>41.666666666666664</ele><time>2026-04-14T05:01:53.001Z</time></trkpt><trkpt lat="14.38200174803653" lon="120.95765138916225"><ele>42.0</ele><time>2026-04-14T05:01:54.001Z</time></trkpt><trkpt lat="14.381877721389985" lon="120.95754786355882"><ele>42.333333333333336</ele><time>2026-04-14T05:01:55.001Z</time></trkpt><trkpt lat="14.381753329790605" lon="120.95743735691332"><ele>42.66666666666667</ele><time>2026-04-14T05:01:56.001Z</time></trkpt><trkpt lat="14.381625481279416" lon="120.95731560846136"><ele>43.0</ele><time>2026-04-14T05:01:57.001Z</time></trkpt><trkpt lat="14.381503687076053" lon="120.95719536628495"><ele>43.0</ele><time>2026-04-14T05:01:58.001Z</time></trkpt><trkpt lat="14.381391689237601" lon="120.95708010230462"><ele>43.0</ele><time>2026-04-14T05:01:59.001Z</time></trkpt><trkpt lat="14.38127933092169" lon="120.95696061762959"><ele>43.0</ele><time>2026-04-14T05:02:00.001Z</time></trkpt><trkpt lat="14.38116973311724" lon="120.95683280318771"><ele>43.0</ele><time>2026-04-14T05:02:01.001Z</time></trkpt><trkpt lat="14.3810550538585" lon="120.95670746979268"><ele>43.0</ele><time>2026-04-14T05:02:02.001Z</time></trkpt><trkpt lat="14.38093939036416" lon="120.95658394532803"><ele>43.0</ele><time>2026-04-14T05:02:03.001Z</time></trkpt><trkpt lat="14.380820496753055" lon="120.95645469641566"><ele>43.0</ele><time>2026-04-14T05:02:04.001Z</time></trkpt><trkpt lat="14.380704267820182" lon="120.95632170523909"><ele>43.0</ele><time>2026-04-14T05:02:05.001Z</time></trkpt><trkpt lat="14.38058841243471" lon="120.95618873506848"><ele>43.0</ele><time>2026-04-14T05:02:06.001Z</time></trkpt><trkpt lat="14.380467209423689" lon="120.95605498495209"><ele>42.333333333333336</ele><time>2026-04-14T05:02:07.001Z</time></trkpt><trkpt lat="14.38034536716802" lon="120.95591644171942"><ele>41.666666666666664</ele><time>2026-04-14T05:02:08.001Z</time></trkpt><trkpt lat="14.380221742693939" lon="120.95577174494034"><ele>41.0</ele><time>2026-04-14T05:02:09.001Z</time></trkpt><trkpt lat="14.380094860255355" lon="120.95562646024096"><ele>41.0</ele><time>2026-04-14T05:02:10.001Z</time></trkpt><trkpt lat="14.37996466277761" lon="120.95547617903523"><ele>41.0</ele><time>2026-04-14T05:02:11.001Z</time></trkpt><trkpt lat="14.379840975566305" lon="120.95533671374012"><ele>41.0</ele><time>2026-04-14T05:02:12.001Z</time></trkpt><trkpt lat="14.379716328877754" lon="120.95519636515444"><ele>41.666666666666664</ele><time>2026-04-14T05:02:13.001Z</time></trkpt><trkpt lat="14.37959720383201" lon="120.95506299800628"><ele>42.333333333333336</ele><time>2026-04-14T05:02:14.001Z</time></trkpt><trkpt lat="14.3794764398508" lon="120.95492478323396"><ele>43.0</ele><time>2026-04-14T05:02:15.001Z</time></trkpt><trkpt lat="14.379357588430285" lon="120.95479477241491"><ele>43.0</ele><time>2026-04-14T05:02:16.001Z</time></trkpt><trkpt lat="14.379236016370808" lon="120.95466176947593"><ele>43.0</ele><time>2026-04-14T05:02:17.001Z</time></trkpt><trkpt lat="14.379117496772267" lon="120.95451941756619"><ele>43.0</ele><time>2026-04-14T05:02:18.001Z</time></trkpt><trkpt lat="14.378997600459412" lon="120.95437312675455"><ele>43.0</ele><time>2026-04-14T05:02:19.001Z</time></trkpt><trkpt lat="14.378878162554784" lon="120.95422702704276"><ele>43.0</ele><time>2026-04-14T05:02:20.001Z</time></trkpt><trkpt lat="14.378753452568786" lon="120.954084374657"><ele>43.0</ele><time>2026-04-14T05:02:21.001Z</time></trkpt><trkpt lat="14.378622211707743" lon="120.95394525099564"><ele>43.333333333333336</ele><time>2026-04-14T05:02:22.002Z</time></trkpt><trkpt lat="14.378499103219697" lon="120.95380510441424"><ele>43.666666666666664</ele><time>2026-04-14T05:02:23.002Z</time></trkpt><trkpt lat="14.378382102224348" lon="120.95365690528449"><ele>44.0</ele><time>2026-04-14T05:02:24Z</time></trkpt><trkpt lat="14.378271165596782" lon="120.95349700082708"><ele>44.0</ele><time>2026-04-14T05:02:25Z</time></trkpt><trkpt lat="14.37816841534258" lon="120.95332736875001"><ele>44.0</ele><time>2026-04-14T05:02:26Z</time></trkpt><trkpt lat="14.378069841952772" lon="120.95315328079596"><ele>44.0</ele><time>2026-04-14T05:02:27Z</time></trkpt><trkpt lat="14.377972827736206" lon="120.95297752438975"><ele>44.33333333333333</ele><time>2026-04-14T05:02:28Z</time></trkpt><trkpt lat="14.377877515611807" lon="120.95279747760667"><ele>44.666666666666664</ele><time>2026-04-14T05:02:29Z</time></trkpt><trkpt lat="14.377784503361415" lon="120.95260613658348"><ele>45.0</ele><time>2026-04-14T05:02:30Z</time></trkpt><trkpt lat="14.377703083826798" lon="120.95240508057894"><ele>43.333333333333336</ele><time>2026-04-14T05:02:31Z</time></trkpt><trkpt lat="14.377632618833864" lon="120.95220091010016"><ele>41.66666666666667</ele><time>2026-04-14T05:02:32Z</time></trkpt><trkpt lat="14.377565472568888" lon="120.95199436119728"><ele>40.0</ele><time>2026-04-14T05:02:33Z</time></trkpt><trkpt lat="14.377494821218116" lon="120.95178509236946"><ele>41.0</ele><time>2026-04-14T05:02:34Z</time></trkpt><trkpt lat="14.377419693613563" lon="120.95157820399514"><ele>42.0</ele><time>2026-04-14T05:02:35Z</time></trkpt><trkpt lat="14.377344379543677" lon="120.9513676805918"><ele>43.0</ele><time>2026-04-14T05:02:36Z</time></trkpt><trkpt lat="14.377267171606944" lon="120.95115731320304"><ele>43.0</ele><time>2026-04-14T05:02:37Z</time></trkpt><trkpt lat="14.377187389187219" lon="120.95094316858652"><ele>43.0</ele><time>2026-04-14T05:02:38Z</time></trkpt><trkpt lat="14.377110188444563" lon="120.95072711076772"><ele>43.0</ele><time>2026-04-14T05:02:39Z</time></trkpt><trkpt lat="14.377033292625766" lon="120.95050925871813"><ele>42.66666666666667</ele><time>2026-04-14T05:02:40Z</time></trkpt><trkpt lat="14.37695564584734" lon="120.95028975124255"><ele>42.333333333333336</ele><time>2026-04-14T05:02:41Z</time></trkpt><trkpt lat="14.376880735083136" lon="120.95007798009073"><ele>42.0</ele><time>2026-04-14T05:02:42Z</time></trkpt><trkpt lat="14.376798836155995" lon="120.94986063301889"><ele>41.0</ele><time>2026-04-14T05:02:43Z</time></trkpt><trkpt lat="14.37672399014632" lon="120.9496478263828"><ele>40.0</ele><time>2026-04-14T05:02:44Z</time></trkpt><trkpt lat="14.376644145049966" lon="120.94943434724532"><ele>39.0</ele><time>2026-04-14T05:02:45Z</time></trkpt><trkpt lat="14.376566036306613" lon="120.9492187951655"><ele>39.0</ele><time>2026-04-14T05:02:46Z</time></trkpt><trkpt lat="14.376487144719711" lon="120.94900431935132"><ele>39.0</ele><time>2026-04-14T05:02:47Z</time></trkpt><trkpt lat="14.37641229771573" lon="120.9487932020772"><ele>39.0</ele><time>2026-04-14T05:02:48Z</time></trkpt><trkpt lat="14.376340733799049" lon="120.94859480474966"><ele>39.0</ele><time>2026-04-14T05:02:49Z</time></trkpt><trkpt lat="14.376270569897207" lon="120.94840710000129"><ele>39.0</ele><time>2026-04-14T05:02:50Z</time></trkpt><trkpt lat="14.37620583484665" lon="120.94823170212585"><ele>39.0</ele><time>2026-04-14T05:02:51Z</time></trkpt><trkpt lat="14.376141979858803" lon="120.94806020481892"><ele>38.75</ele><time>2026-04-14T05:02:52Z</time></trkpt><trkpt lat="14.376086570308004" lon="120.947909082303"><ele>38.5</ele><time>2026-04-14T05:02:53Z</time></trkpt><trkpt lat="14.376039512029013" lon="120.94777868320098"><ele>38.25</ele><time>2026-04-14T05:02:54Z</time></trkpt><trkpt lat="14.375994219496864" lon="120.94765356494915"><ele>38.0</ele><time>2026-04-14T05:02:55Z</time></trkpt><trkpt lat="14.375947712603312" lon="120.94753031035015"><ele>38.0</ele><time>2026-04-14T05:02:56Z</time></trkpt><trkpt lat="14.375907737274023" lon="120.94741294896501"><ele>38.0</ele><time>2026-04-14T05:02:57Z</time></trkpt><trkpt lat="14.375863057152666" lon="120.94729544543839"><ele>38.0</ele><time>2026-04-14T05:02:58Z</time></trkpt><trkpt lat="14.375813159922282" lon="120.94717572691064"><ele>38.0</ele><time>2026-04-14T05:02:59Z</time></trkpt><trkpt lat="14.375769608262132" lon="120.9470644643"><ele>38.0</ele><time>2026-04-14T05:03:00Z</time></trkpt><trkpt lat="14.375722348266407" lon="120.94694501417028"><ele>38.0</ele><time>2026-04-14T05:03:01Z</time></trkpt><trkpt lat="14.37568890718184" lon="120.94681181247294"><ele>38.0</ele><time>2026-04-14T05:03:02Z</time></trkpt><trkpt lat="14.375621313525519" lon="120.94668453047818"><ele>38.0</ele><time>2026-04-14T05:03:03Z</time></trkpt><trkpt lat="14.375570193306558" lon="120.94654291427757"><ele>38.5</ele><time>2026-04-14T05:03:04Z</time></trkpt><trkpt lat="14.37551940952339" lon="120.94640156538141"><ele>39.0</ele><time>2026-04-14T05:03:05Z</time></trkpt><trkpt lat="14.375462154488034" lon="120.94626853397286"><ele>39.5</ele><time>2026-04-14T05:03:06.001Z</time></trkpt><trkpt lat="14.375387133211591" lon="120.94613878057591"><ele>40.0</ele><time>2026-04-14T05:03:07.001Z</time></trkpt><trkpt lat="14.375312430806778" lon="120.94599233233924"><ele>40.66666666666667</ele><time>2026-04-14T05:03:08.001Z</time></trkpt><trkpt lat="14.375217184363086" lon="120.9458570532761"><ele>41.333333333333336</ele><time>2026-04-14T05:03:09.001Z</time></trkpt><trkpt lat="14.375117879736434" lon="120.94571672769015"><ele>42.0</ele><time>2026-04-14T05:03:10.001Z</time></trkpt><trkpt lat="14.375012799631335" lon="120.94557466856634"><ele>42.0</ele><time>2026-04-14T05:03:11.001Z</time></trkpt><trkpt lat="14.374893048727516" lon="120.94542863646701"><ele>42.0</ele><time>2026-04-14T05:03:12.001Z</time></trkpt><trkpt lat="14.374766034930676" lon="120.94528901536356"><ele>42.0</ele><time>2026-04-14T05:03:13.001Z</time></trkpt><trkpt lat="14.37464654571592" lon="120.94513305530572"><ele>41.666666666666664</ele><time>2026-04-14T05:03:14.001Z</time></trkpt><trkpt lat="14.374516779650374" lon="120.94497169735052"><ele>41.33333333333333</ele><time>2026-04-14T05:03:15.001Z</time></trkpt><trkpt lat="14.374395136046845" lon="120.94482170283713"><ele>41.0</ele><time>2026-04-14T05:03:16.001Z</time></trkpt><trkpt lat="14.374277996309639" lon="120.94467458826706"><ele>41.0</ele><time>2026-04-14T05:03:17.001Z</time></trkpt><trkpt lat="14.374165732220323" lon="120.94453058385878"><ele>41.0</ele><time>2026-04-14T05:03:18.001Z</time></trkpt><trkpt lat="14.374067555690347" lon="120.9444036319816"><ele>41.0</ele><time>2026-04-14T05:03:19.001Z</time></trkpt><trkpt lat="14.373964521783043" lon="120.94427806253849"><ele>41.0</ele><time>2026-04-14T05:03:20.001Z</time></trkpt><trkpt lat="14.373860230572902" lon="120.94414869664534"><ele>41.0</ele><time>2026-04-14T05:03:21.001Z</time></trkpt><trkpt lat="14.373760371444206" lon="120.94402432614486"><ele>41.0</ele><time>2026-04-14T05:03:22.001Z</time></trkpt><trkpt lat="14.37365189559019" lon="120.94389628896451"><ele>41.0</ele><time>2026-04-14T05:03:23.001Z</time></trkpt><trkpt lat="14.373561484771562" lon="120.94375306653323"><ele>41.0</ele><time>2026-04-14T05:03:24.001Z</time></trkpt><trkpt lat="14.373459432791211" lon="120.94361766219275"><ele>41.0</ele><time>2026-04-14T05:03:25.001Z</time></trkpt><trkpt lat="14.373363048210885" lon="120.94348234137838"><ele>40.666666666666664</ele><time>2026-04-14T05:03:26.001Z</time></trkpt><trkpt lat="14.37329866133656" lon="120.94332564903068"><ele>40.333333333333336</ele><time>2026-04-14T05:03:27.001Z</time></trkpt><trkpt lat="14.373260819362992" lon="120.9431608151406"><ele>40.0</ele><time>2026-04-14T05:03:28.001Z</time></trkpt><trkpt lat="14.373222517116552" lon="120.94299613046027"><ele>40.0</ele><time>2026-04-14T05:03:29.001Z</time></trkpt><trkpt lat="14.373201087725269" lon="120.94283365106205"><ele>40.0</ele><time>2026-04-14T05:03:30.001Z</time></trkpt><trkpt lat="14.37319234764406" lon="120.94266269778966"><ele>40.0</ele><time>2026-04-14T05:03:31.001Z</time></trkpt><trkpt lat="14.373191300307564" lon="120.94248890525463"><ele>39.333333333333336</ele><time>2026-04-14T05:03:32.001Z</time></trkpt><trkpt lat="14.37317860173177" lon="120.94231205004047"><ele>38.666666666666664</ele><time>2026-04-14T05:03:33.001Z</time></trkpt><trkpt lat="14.373177349540697" lon="120.94213581736513"><ele>38.0</ele><time>2026-04-14T05:03:34.001Z</time></trkpt><trkpt lat="14.373170523639098" lon="120.94196921377046"><ele>38.0</ele><time>2026-04-14T05:03:35.001Z</time></trkpt><trkpt lat="14.37316640846782" lon="120.94180959836787"><ele>38.0</ele><time>2026-04-14T05:03:36.001Z</time></trkpt><trkpt lat="14.373162560392021" lon="120.94165845066264"><ele>38.0</ele><time>2026-04-14T05:03:37.001Z</time></trkpt><trkpt lat="14.373153720048233" lon="120.94151301246868"><ele>38.0</ele><time>2026-04-14T05:03:38.001Z</time></trkpt><trkpt lat="14.373132035258699" lon="120.94136425634528"><ele>39.0</ele><time>2026-04-14T05:03:39.001Z</time></trkpt><trkpt lat="14.373098902975423" lon="120.94121814801329"><ele>40.0</ele><time>2026-04-14T05:03:40.001Z</time></trkpt><trkpt lat="14.373054259206148" lon="120.94106857802784"><ele>41.0</ele><time>2026-04-14T05:03:41.001Z</time></trkpt><trkpt lat="14.373007696069319" lon="120.94092976435056"><ele>42.0</ele><time>2026-04-14T05:03:42.001Z</time></trkpt><trkpt lat="14.372967384289089" lon="120.94077657878971"><ele>42.0</ele><time>2026-04-14T05:03:43.001Z</time></trkpt><trkpt lat="14.372886148493341" lon="120.94064115300814"><ele>42.0</ele><time>2026-04-14T05:03:44.001Z</time></trkpt><trkpt lat="14.372815699783493" lon="120.94049536562484"><ele>42.0</ele><time>2026-04-14T05:03:45.001Z</time></trkpt><trkpt lat="14.372734398464743" lon="120.94035389744063"><ele>42.0</ele><time>2026-04-14T05:03:46.001Z</time></trkpt><trkpt lat="14.372650604014767" lon="120.94021124542903"><ele>42.0</ele><time>2026-04-14T05:03:47.001Z</time></trkpt><trkpt lat="14.372560093537395" lon="120.94006824293572"><ele>42.0</ele><time>2026-04-14T05:03:48.001Z</time></trkpt><trkpt lat="14.372466691227404" lon="120.9399208565093"><ele>42.0</ele><time>2026-04-14T05:03:49.001Z</time></trkpt><trkpt lat="14.372372934634573" lon="120.939773264728"><ele>42.0</ele><time>2026-04-14T05:03:50.001Z</time></trkpt><trkpt lat="14.37227644466469" lon="120.93962019529889"><ele>42.0</ele><time>2026-04-14T05:03:51.001Z</time></trkpt><trkpt lat="14.37217902697182" lon="120.93946954068373"><ele>42.333333333333336</ele><time>2026-04-14T05:03:52.001Z</time></trkpt><trkpt lat="14.372080332557925" lon="120.93931804819948"><ele>42.66666666666667</ele><time>2026-04-14T05:03:53.001Z</time></trkpt><trkpt lat="14.37198234013853" lon="120.93917025545575"><ele>43.0</ele><time>2026-04-14T05:03:54.001Z</time></trkpt><trkpt lat="14.371882427873132" lon="120.93902657746034"><ele>42.333333333333336</ele><time>2026-04-14T05:03:55.001Z</time></trkpt><trkpt lat="14.371783021680201" lon="120.93888679500434"><ele>41.666666666666664</ele><time>2026-04-14T05:03:56.001Z</time></trkpt><trkpt lat="14.371687672819949" lon="120.93875087643309"><ele>41.0</ele><time>2026-04-14T05:03:57.001Z</time></trkpt><trkpt lat="14.371588688728236" lon="120.93862298706637"><ele>41.0</ele><time>2026-04-14T05:03:58.001Z</time></trkpt><trkpt lat="14.371487476704626" lon="120.93851333641415"><ele>41.0</ele><time>2026-04-14T05:03:59.001Z</time></trkpt><trkpt lat="14.371374206208442" lon="120.93841098037873"><ele>41.0</ele><time>2026-04-14T05:04:00.001Z</time></trkpt><trkpt lat="14.371252877263988" lon="120.93830710256836"><ele>40.666666666666664</ele><time>2026-04-14T05:04:01.001Z</time></trkpt><trkpt lat="14.371128861281951" lon="120.9382036586817"><ele>40.333333333333336</ele><time>2026-04-14T05:04:02.001Z</time></trkpt><trkpt lat="14.37099950954603" lon="120.93810245067151"><ele>40.0</ele><time>2026-04-14T05:04:03.001Z</time></trkpt><trkpt lat="14.370871953930358" lon="120.9380060881614"><ele>40.0</ele><time>2026-04-14T05:04:04.001Z</time></trkpt><trkpt lat="14.370748201973136" lon="120.93791765199741"><ele>40.0</ele><time>2026-04-14T05:04:05.001Z</time></trkpt><trkpt lat="14.370638236421778" lon="120.9378313760721"><ele>40.0</ele><time>2026-04-14T05:04:06.001Z</time></trkpt><trkpt lat="14.370529610444256" lon="120.93775172865394"><ele>40.0</ele><time>2026-04-14T05:04:07.001Z</time></trkpt><trkpt lat="14.370428844445076" lon="120.93767703376918"><ele>40.4</ele><time>2026-04-14T05:04:08.001Z</time></trkpt><trkpt lat="14.370332937307564" lon="120.93760785339497"><ele>40.8</ele><time>2026-04-14T05:04:09.001Z</time></trkpt><trkpt lat="14.370254051042757" lon="120.93753034280117"><ele>41.2</ele><time>2026-04-14T05:04:10.001Z</time></trkpt><trkpt lat="14.370144435112062" lon="120.9375073114036"><ele>41.6</ele><time>2026-04-14T05:04:11.001Z</time></trkpt><trkpt lat="14.370060426417366" lon="120.93747190383722"><ele>42.0</ele><time>2026-04-14T05:04:12.001Z</time></trkpt><trkpt lat="14.369987489187153" lon="120.93743693121074"><ele>42.0</ele><time>2026-04-14T05:04:13.001Z</time></trkpt><trkpt lat="14.369898821983806" lon="120.9373489403575"><ele>42.0</ele><time>2026-04-14T05:04:15.001Z</time></trkpt><trkpt lat="14.369821554525695" lon="120.93729235609341"><ele>42.0</ele><time>2026-04-14T05:04:17.001Z</time></trkpt><trkpt lat="14.369747370920463" lon="120.9372184027135"><ele>42.0</ele><time>2026-04-14T05:04:19.001Z</time></trkpt><trkpt lat="14.369690909888345" lon="120.9370975761972"><ele>41.666666666666664</ele><time>2026-04-14T05:04:21.001Z</time></trkpt><trkpt lat="14.369650003208392" lon="120.93698132884627"><ele>41.333333333333336</ele><time>2026-04-14T05:04:23.001Z</time></trkpt><trkpt lat="14.36960643878496" lon="120.93686999422162"><ele>41.0</ele><time>2026-04-14T05:04:25.001Z</time></trkpt><trkpt lat="14.369582744630401" lon="120.93680953790931"><ele>40.66666666666667</ele><time>2026-04-14T05:04:26.001Z</time></trkpt><trkpt lat="14.369556791959848" lon="120.93674331891494"><ele>40.333333333333336</ele><time>2026-04-14T05:04:27.001Z</time></trkpt><trkpt lat="14.369529977032112" lon="120.93667600734348"><ele>40.0</ele><time>2026-04-14T05:04:28.001Z</time></trkpt><trkpt lat="14.369498727583833" lon="120.93659763505931"><ele>40.0</ele><time>2026-04-14T05:04:29.001Z</time></trkpt><trkpt lat="14.369469281514835" lon="120.93652378556627"><ele>40.0</ele><time>2026-04-14T05:04:30Z</time></trkpt><trkpt lat="14.369436227504039" lon="120.93644088750901"><ele>40.0</ele><time>2026-04-14T05:04:31Z</time></trkpt><trkpt lat="14.369404817126142" lon="120.93636211161588"><ele>40.0</ele><time>2026-04-14T05:04:32Z</time></trkpt><trkpt lat="14.36937304276023" lon="120.93627922680145"><ele>40.0</ele><time>2026-04-14T05:04:33Z</time></trkpt><trkpt lat="14.369337172098078" lon="120.93618620910848"><ele>40.0</ele><time>2026-04-14T05:04:34Z</time></trkpt><trkpt lat="14.369305325218736" lon="120.93610452710709"><ele>40.0</ele><time>2026-04-14T05:04:35Z</time></trkpt><trkpt lat="14.3692696755127" lon="120.93601460985028"><ele>40.0</ele><time>2026-04-14T05:04:36Z</time></trkpt><trkpt lat="14.369239879499785" lon="120.93593781056084"><ele>40.0</ele><time>2026-04-14T05:04:37Z</time></trkpt><trkpt lat="14.369206375729162" lon="120.93585071223818"><ele>40.0</ele><time>2026-04-14T05:04:38Z</time></trkpt><trkpt lat="14.369174205189102" lon="120.93576998492246"><ele>40.0</ele><time>2026-04-14T05:04:39Z</time></trkpt><trkpt lat="14.36914155135433" lon="120.935686706155"><ele>40.0</ele><time>2026-04-14T05:04:40Z</time></trkpt><trkpt lat="14.369110762552602" lon="120.93560752485251"><ele>39.8</ele><time>2026-04-14T05:04:41Z</time></trkpt><trkpt lat="14.369075263531684" lon="120.93551627498186"><ele>39.6</ele><time>2026-04-14T05:04:42Z</time></trkpt><trkpt lat="14.369040721419683" lon="120.93542987944136"><ele>39.4</ele><time>2026-04-14T05:04:43Z</time></trkpt><trkpt lat="14.368997335314862" lon="120.93533392728028"><ele>39.2</ele><time>2026-04-14T05:04:44Z</time></trkpt><trkpt lat="14.368951869634897" lon="120.9352363210592"><ele>39.0</ele><time>2026-04-14T05:04:45Z</time></trkpt><trkpt lat="14.36890339934137" lon="120.93513405974763"><ele>39.2</ele><time>2026-04-14T05:04:46Z</time></trkpt><trkpt lat="14.36885285017185" lon="120.93503734791958"><ele>39.4</ele><time>2026-04-14T05:04:47Z</time></trkpt><trkpt lat="14.368803476989747" lon="120.9349425053783"><ele>39.6</ele><time>2026-04-14T05:04:48Z</time></trkpt><trkpt lat="14.368752348711803" lon="120.93485023245339"><ele>39.8</ele><time>2026-04-14T05:04:49Z</time></trkpt><trkpt lat="14.368708293102895" lon="120.93477102099146"><ele>40.0</ele><time>2026-04-14T05:04:50Z</time></trkpt><trkpt lat="14.368662386935409" lon="120.93468862529203"><ele>40.0</ele><time>2026-04-14T05:04:51Z</time></trkpt><trkpt lat="14.36862033336512" lon="120.9346108640368"><ele>40.0</ele><time>2026-04-14T05:04:52Z</time></trkpt><trkpt lat="14.368580270995096" lon="120.93453707582424"><ele>40.0</ele><time>2026-04-14T05:04:53Z</time></trkpt><trkpt lat="14.368539136689794" lon="120.93446070302755"><ele>40.0</ele><time>2026-04-14T05:04:54Z</time></trkpt><trkpt lat="14.368500254801692" lon="120.93438801770009"><ele>40.0</ele><time>2026-04-14T05:04:55Z</time></trkpt><trkpt lat="14.368466170520596" lon="120.93432430096698"><ele>40.0</ele><time>2026-04-14T05:04:56Z</time></trkpt><trkpt lat="14.368426851266452" lon="120.93425079802928"><ele>39.8</ele><time>2026-04-14T05:04:57Z</time></trkpt><trkpt lat="14.368387532408914" lon="120.93417726857218"><ele>39.6</ele><time>2026-04-14T05:04:58Z</time></trkpt><trkpt lat="14.36834330189773" lon="120.93409380248602"><ele>39.4</ele><time>2026-04-14T05:04:59Z</time></trkpt><trkpt lat="14.368298982660125" lon="120.93401080873208"><ele>39.2</ele><time>2026-04-14T05:05:00Z</time></trkpt><trkpt lat="14.368252717525717" lon="120.93392452425529"><ele>39.0</ele><time>2026-04-14T05:05:01Z</time></trkpt><trkpt lat="14.368200964430162" lon="120.93382739899222"><ele>39.0</ele><time>2026-04-14T05:05:02Z</time></trkpt><trkpt lat="14.368146187405744" lon="120.93372413778465"><ele>39.0</ele><time>2026-04-14T05:05:03Z</time></trkpt><trkpt lat="14.368083527873667" lon="120.93360615062255"><ele>39.0</ele><time>2026-04-14T05:05:04Z</time></trkpt><trkpt lat="14.36802124041576" lon="120.93348886406869"><ele>39.0</ele><time>2026-04-14T05:05:05Z</time></trkpt><trkpt lat="14.36795222234251" lon="120.93335890383065"><ele>39.75</ele><time>2026-04-14T05:05:06Z</time></trkpt><trkpt lat="14.367884396623719" lon="120.93323577708904"><ele>40.5</ele><time>2026-04-14T05:05:07Z</time></trkpt><trkpt lat="14.367824496983806" lon="120.93312825747944"><ele>41.25</ele><time>2026-04-14T05:05:08Z</time></trkpt><trkpt lat="14.36777506394992" lon="120.93302493985921"><ele>42.0</ele><time>2026-04-14T05:05:09Z</time></trkpt><trkpt lat="14.367747061691494" lon="120.93290932181493"><ele>42.0</ele><time>2026-04-14T05:05:10Z</time></trkpt><trkpt lat="14.367740161134718" lon="120.93279363964368"><ele>42.0</ele><time>2026-04-14T05:05:11Z</time></trkpt><trkpt lat="14.367728978488724" lon="120.9326568505582"><ele>42.0</ele><time>2026-04-14T05:05:12Z</time></trkpt><trkpt lat="14.367716174396996" lon="120.93251753177502"><ele>42.0</ele><time>2026-04-14T05:05:13Z</time></trkpt><trkpt lat="14.367703380963352" lon="120.93237832900132"><ele>41.75</ele><time>2026-04-14T05:05:14Z</time></trkpt><trkpt lat="14.367690525096462" lon="120.93223844681437"><ele>41.5</ele><time>2026-04-14T05:05:15.001Z</time></trkpt><trkpt lat="14.367678285846937" lon="120.93210527393997"><ele>41.25</ele><time>2026-04-14T05:05:16.001Z</time></trkpt><trkpt lat="14.367666033278931" lon="120.93197195630066"><ele>41.0</ele><time>2026-04-14T05:05:17.001Z</time></trkpt><trkpt lat="14.367654881192303" lon="120.9318506125664"><ele>41.0</ele><time>2026-04-14T05:05:18.001Z</time></trkpt><trkpt lat="14.367644318219048" lon="120.93173567902349"><ele>41.0</ele><time>2026-04-14T05:05:19.001Z</time></trkpt><trkpt lat="14.367583353530021" lon="120.93162910661205"><ele>41.0</ele><time>2026-04-14T05:05:20.001Z</time></trkpt><trkpt lat="14.367572361939443" lon="120.93152840719078"><ele>41.0</ele><time>2026-04-14T05:05:21.001Z</time></trkpt><trkpt lat="14.367561767110553" lon="120.93143419599848"><ele>41.0</ele><time>2026-04-14T05:05:22.001Z</time></trkpt><trkpt lat="14.367553279211974" lon="120.93133586112408"><ele>41.199999999999996</ele><time>2026-04-14T05:05:23.001Z</time></trkpt><trkpt lat="14.367541882632336" lon="120.93123089046556"><ele>41.4</ele><time>2026-04-14T05:05:24.001Z</time></trkpt><trkpt lat="14.367551068326145" lon="120.93113619003019"><ele>41.6</ele><time>2026-04-14T05:05:25.001Z</time></trkpt><trkpt lat="14.36752875865625" lon="120.93103310996574"><ele>41.8</ele><time>2026-04-14T05:05:26.001Z</time></trkpt><trkpt lat="14.367521372259105" lon="120.93093223641789"><ele>42.0</ele><time>2026-04-14T05:05:27.001Z</time></trkpt><trkpt lat="14.367528699213185" lon="120.93082288099654"><ele>42.0</ele><time>2026-04-14T05:05:28.001Z</time></trkpt><trkpt lat="14.367521358671569" lon="120.93072013814658"><ele>42.0</ele><time>2026-04-14T05:05:29.001Z</time></trkpt><trkpt lat="14.36751502764438" lon="120.93063112007461"><ele>42.0</ele><time>2026-04-14T05:05:30.001Z</time></trkpt><trkpt lat="14.36750858995391" lon="120.9305402734999"><ele>42.0</ele><time>2026-04-14T05:05:31.001Z</time></trkpt><trkpt lat="14.367501819542381" lon="120.93044473179795"><ele>42.0</ele><time>2026-04-14T05:05:32.001Z</time></trkpt><trkpt lat="14.367495209714159" lon="120.93035145608489"><ele>42.0</ele><time>2026-04-14T05:05:33.001Z</time></trkpt><trkpt lat="14.36748840745928" lon="120.9302554649456"><ele>42.0</ele><time>2026-04-14T05:05:34.001Z</time></trkpt><trkpt lat="14.367482070546403" lon="120.9301660404221"><ele>42.0</ele><time>2026-04-14T05:05:35.001Z</time></trkpt><trkpt lat="14.367476159987634" lon="120.93008267267085"><ele>42.0</ele><time>2026-04-14T05:05:36.001Z</time></trkpt><trkpt lat="14.367454407913296" lon="120.93000887244015"><ele>42.0</ele><time>2026-04-14T05:05:37.001Z</time></trkpt><trkpt lat="14.367450779231254" lon="120.92993964994396"><ele>42.0</ele><time>2026-04-14T05:05:38.001Z</time></trkpt><trkpt lat="14.367460481959274" lon="120.92986172990203"><ele>42.0</ele><time>2026-04-14T05:05:41.001Z</time></trkpt><trkpt lat="14.367454754900905" lon="120.92978102128326"><ele>42.0</ele><time>2026-04-14T05:05:45.001Z</time></trkpt><trkpt lat="14.367447859437434" lon="120.92968384685953"><ele>42.0</ele><time>2026-04-14T05:05:48.001Z</time></trkpt><trkpt lat="14.36744107248657" lon="120.92958820168889"><ele>42.0</ele><time>2026-04-14T05:05:50.001Z</time></trkpt><trkpt lat="14.367435337309859" lon="120.92950737865328"><ele>42.0</ele><time>2026-04-14T05:05:52.001Z</time></trkpt><trkpt lat="14.367422552019498" lon="120.92939243376509"><ele>42.0</ele><time>2026-04-14T05:05:54.001Z</time></trkpt><trkpt lat="14.367420672790567" lon="120.92932150410184"><ele>42.0</ele><time>2026-04-14T05:05:55.001Z</time></trkpt><trkpt lat="14.36741293998805" lon="120.92923838921524"><ele>42.0</ele><time>2026-04-14T05:05:57.001Z</time></trkpt><trkpt lat="14.367411167031518" lon="120.92916857117035"><ele>42.0</ele><time>2026-04-14T05:06:00.001Z</time></trkpt><trkpt lat="14.367406531744775" lon="120.92906779263357"><ele>42.0</ele><time>2026-04-14T05:06:02.001Z</time></trkpt><trkpt lat="14.367403227048191" lon="120.92893902107579"><ele>42.0</ele><time>2026-04-14T05:06:04.001Z</time></trkpt><trkpt lat="14.367403055781173" lon="120.92887119014748"><ele>41.8</ele><time>2026-04-14T05:06:05.001Z</time></trkpt><trkpt lat="14.367414578795913" lon="120.92876090567547"><ele>41.6</ele><time>2026-04-14T05:06:07.001Z</time></trkpt><trkpt lat="14.367431164743605" lon="120.92867663054109"><ele>41.4</ele><time>2026-04-14T05:06:09.001Z</time></trkpt><trkpt lat="14.367464342158858" lon="120.92861184246185"><ele>41.199999999999996</ele><time>2026-04-14T05:06:11.001Z</time></trkpt><trkpt lat="14.367530304844093" lon="120.92854231178062"><ele>41.0</ele><time>2026-04-14T05:06:14.001Z</time></trkpt><trkpt lat="14.367588064247702" lon="120.92843911506203"><ele>40.4</ele><time>2026-04-14T05:06:16.001Z</time></trkpt><trkpt lat="14.36761876922998" lon="120.92834888048073"><ele>39.8</ele><time>2026-04-14T05:06:17.001Z</time></trkpt><trkpt lat="14.367646387683282" lon="120.9282541301952"><ele>39.199999999999996</ele><time>2026-04-14T05:06:18.001Z</time></trkpt><trkpt lat="14.36768409411191" lon="120.9281483676412"><ele>38.599999999999994</ele><time>2026-04-14T05:06:19.001Z</time></trkpt><trkpt lat="14.367725009299331" lon="120.92804558829314"><ele>38.0</ele><time>2026-04-14T05:06:20.001Z</time></trkpt><trkpt lat="14.36776919836219" lon="120.92792999759175"><ele>38.0</ele><time>2026-04-14T05:06:21.001Z</time></trkpt><trkpt lat="14.367813521920443" lon="120.92781341546656"><ele>38.0</ele><time>2026-04-14T05:06:22.001Z</time></trkpt><trkpt lat="14.367859439701371" lon="120.92769048543796"><ele>38.0</ele><time>2026-04-14T05:06:23.001Z</time></trkpt><trkpt lat="14.367896686795007" lon="120.92757625772907"><ele>38.0</ele><time>2026-04-14T05:06:24.001Z</time></trkpt><trkpt lat="14.367912284619186" lon="120.92745258232034"><ele>39.0</ele><time>2026-04-14T05:06:25.001Z</time></trkpt><trkpt lat="14.367898468328661" lon="120.92733181592821"><ele>40.0</ele><time>2026-04-14T05:06:26.001Z</time></trkpt><trkpt lat="14.367867742026379" lon="120.92720674486243"><ele>41.0</ele><time>2026-04-14T05:06:27.001Z</time></trkpt><trkpt lat="14.367831402522507" lon="120.92708097859959"><ele>42.0</ele><time>2026-04-14T05:06:28.001Z</time></trkpt><trkpt lat="14.367801097034965" lon="120.92693976337904"><ele>42.0</ele><time>2026-04-14T05:06:29.001Z</time></trkpt><trkpt lat="14.367778201515627" lon="120.92680519385718"><ele>42.0</ele><time>2026-04-14T05:06:30.001Z</time></trkpt><trkpt lat="14.367750411850592" lon="120.92666151035733"><ele>42.0</ele><time>2026-04-14T05:06:31.001Z</time></trkpt><trkpt lat="14.367723344374012" lon="120.92651714464547"><ele>42.0</ele><time>2026-04-14T05:06:32.001Z</time></trkpt><trkpt lat="14.36769377205882" lon="120.92638636401364"><ele>42.0</ele><time>2026-04-14T05:06:33.001Z</time></trkpt><trkpt lat="14.367675371200145" lon="120.92623825342183"><ele>42.0</ele><time>2026-04-14T05:06:34.001Z</time></trkpt><trkpt lat="14.367664108389976" lon="120.92608294571622"><ele>42.0</ele><time>2026-04-14T05:06:35.001Z</time></trkpt><trkpt lat="14.367669127050586" lon="120.92593524811852"><ele>42.0</ele><time>2026-04-14T05:06:36Z</time></trkpt><trkpt lat="14.367675080412992" lon="120.92579049358723"><ele>41.75</ele><time>2026-04-14T05:06:37Z</time></trkpt><trkpt lat="14.367683379994252" lon="120.92565093927863"><ele>41.5</ele><time>2026-04-14T05:06:38Z</time></trkpt><trkpt lat="14.367696272378504" lon="120.92553068836528"><ele>41.25</ele><time>2026-04-14T05:06:39Z</time></trkpt><trkpt lat="14.36770230668679" lon="120.92541614551445"><ele>41.0</ele><time>2026-04-14T05:06:40Z</time></trkpt><trkpt lat="14.36770111653385" lon="120.92529933813776"><ele>41.0</ele><time>2026-04-14T05:06:41Z</time></trkpt><trkpt lat="14.367712608627913" lon="120.92519037999939"><ele>41.0</ele><time>2026-04-14T05:06:42Z</time></trkpt><trkpt lat="14.367707192566728" lon="120.92507502972346"><ele>41.0</ele><time>2026-04-14T05:06:43Z</time></trkpt><trkpt lat="14.367698262841154" lon="120.92494973875144"><ele>41.0</ele><time>2026-04-14T05:06:44Z</time></trkpt><trkpt lat="14.367648319769925" lon="120.92482942437768"><ele>41.0</ele><time>2026-04-14T05:06:45Z</time></trkpt><trkpt lat="14.367596708108024" lon="120.92471388639012"><ele>41.0</ele><time>2026-04-14T05:06:46Z</time></trkpt><trkpt lat="14.367559429002634" lon="120.92459331117507"><ele>41.0</ele><time>2026-04-14T05:06:47Z</time></trkpt><trkpt lat="14.367520441937517" lon="120.92446968155238"><ele>41.0</ele><time>2026-04-14T05:06:48Z</time></trkpt><trkpt lat="14.367479057836587" lon="120.92434291144029"><ele>40.75</ele><time>2026-04-14T05:06:49Z</time></trkpt><trkpt lat="14.367444478414988" lon="120.9242099100923"><ele>40.5</ele><time>2026-04-14T05:06:50Z</time></trkpt><trkpt lat="14.367424632166843" lon="120.92407446326348"><ele>40.25</ele><time>2026-04-14T05:06:51Z</time></trkpt><trkpt lat="14.367407970399178" lon="120.92393236913135"><ele>40.0</ele><time>2026-04-14T05:06:52Z</time></trkpt><trkpt lat="14.367387898722946" lon="120.92380531236181"><ele>40.0</ele><time>2026-04-14T05:06:53Z</time></trkpt><trkpt lat="14.367370039839285" lon="120.92367395055032"><ele>40.0</ele><time>2026-04-14T05:06:54Z</time></trkpt><trkpt lat="14.367359584137864" lon="120.92354676980818"><ele>40.0</ele><time>2026-04-14T05:06:55Z</time></trkpt><trkpt lat="14.367345174237277" lon="120.92340879422066"><ele>40.0</ele><time>2026-04-14T05:06:56Z</time></trkpt><trkpt lat="14.367327294829995" lon="120.92327416271716"><ele>40.25</ele><time>2026-04-14T05:06:57Z</time></trkpt><trkpt lat="14.367307132305779" lon="120.92314263331065"><ele>40.5</ele><time>2026-04-14T05:06:58Z</time></trkpt><trkpt lat="14.36728778373818" lon="120.92300103914526"><ele>40.75</ele><time>2026-04-14T05:06:59Z</time></trkpt><trkpt lat="14.367266897835172" lon="120.92285649916265"><ele>41.0</ele><time>2026-04-14T05:07:00Z</time></trkpt><trkpt lat="14.367249395425445" lon="120.92271285922733"><ele>41.0</ele><time>2026-04-14T05:07:01Z</time></trkpt><trkpt lat="14.367233363042386" lon="120.92256774539516"><ele>41.0</ele><time>2026-04-14T05:07:02Z</time></trkpt><trkpt lat="14.36720963265133" lon="120.92241126127409"><ele>41.0</ele><time>2026-04-14T05:07:03Z</time></trkpt><trkpt lat="14.367191730707477" lon="120.92225822722291"><ele>41.0</ele><time>2026-04-14T05:07:04Z</time></trkpt><trkpt lat="14.367168831372053" lon="120.92209631407334"><ele>40.33333333333333</ele><time>2026-04-14T05:07:05Z</time></trkpt><trkpt lat="14.367150202633828" lon="120.92193693685117"><ele>39.666666666666664</ele><time>2026-04-14T05:07:06Z</time></trkpt><trkpt lat="14.367124559510856" lon="120.92176189455485"><ele>39.0</ele><time>2026-04-14T05:07:07Z</time></trkpt><trkpt lat="14.367095978603642" lon="120.92158878803644"><ele>39.0</ele><time>2026-04-14T05:07:08Z</time></trkpt><trkpt lat="14.367064291358426" lon="120.92141109947566"><ele>39.0</ele><time>2026-04-14T05:07:09Z</time></trkpt><trkpt lat="14.367025926496217" lon="120.92122589836825"><ele>39.0</ele><time>2026-04-14T05:07:10Z</time></trkpt><trkpt lat="14.366994186779415" lon="120.9210417625914"><ele>39.666666666666664</ele><time>2026-04-14T05:07:11Z</time></trkpt><trkpt lat="14.36696660789661" lon="120.92086793440593"><ele>40.33333333333333</ele><time>2026-04-14T05:07:12Z</time></trkpt><trkpt lat="14.366939521489899" lon="120.9207035275401"><ele>41.0</ele><time>2026-04-14T05:07:13Z</time></trkpt><trkpt lat="14.366913790829331" lon="120.920545589677"><ele>41.0</ele><time>2026-04-14T05:07:14Z</time></trkpt><trkpt lat="14.366884597372799" lon="120.9203904494179"><ele>41.0</ele><time>2026-04-14T05:07:15Z</time></trkpt><trkpt lat="14.366860803400181" lon="120.92025694569402"><ele>41.0</ele><time>2026-04-14T05:07:16Z</time></trkpt><trkpt lat="14.366829550903045" lon="120.92012155219363"><ele>41.0</ele><time>2026-04-14T05:07:17.001Z</time></trkpt><trkpt lat="14.36680550552634" lon="120.91999584553724"><ele>41.599999999999994</ele><time>2026-04-14T05:07:18.001Z</time></trkpt><trkpt lat="14.366787548124169" lon="120.9198789181545"><ele>42.2</ele><time>2026-04-14T05:07:19.001Z</time></trkpt><trkpt lat="14.366765194400951" lon="120.91976560386402"><ele>42.8</ele><time>2026-04-14T05:07:20.001Z</time></trkpt><trkpt lat="14.366739198623241" lon="120.91967306540222"><ele>43.400000000000006</ele><time>2026-04-14T05:07:21.001Z</time></trkpt><trkpt lat="14.366725644670415" lon="120.91960346476957"><ele>44.0</ele><time>2026-04-14T05:07:22.001Z</time></trkpt><trkpt lat="14.366720843363911" lon="120.9195103141183"><ele>44.0</ele><time>2026-04-14T05:07:24.001Z</time></trkpt><trkpt lat="14.366793710109823" lon="120.9194461066553"><ele>44.0</ele><time>2026-04-14T05:07:27.001Z</time></trkpt><trkpt lat="14.366849364144363" lon="120.91940939852738"><ele>44.0</ele><time>2026-04-14T05:07:29.001Z</time></trkpt><trkpt lat="14.366912993374664" lon="120.91939070836456"><ele>44.0</ele><time>2026-04-14T05:07:30.001Z</time></trkpt><trkpt lat="14.36697962798562" lon="120.91937175119726"><ele>44.0</ele><time>2026-04-14T05:07:31.001Z</time></trkpt><trkpt lat="14.367054162915712" lon="120.91934843580337"><ele>44.0</ele><time>2026-04-14T05:07:32.001Z</time></trkpt><trkpt lat="14.367130663006145" lon="120.91933345842138"><ele>44.166666666666664</ele><time>2026-04-14T05:07:33.001Z</time></trkpt><trkpt lat="14.36720958281512" lon="120.91930876953622"><ele>44.33333333333333</ele><time>2026-04-14T05:07:34.001Z</time></trkpt><trkpt lat="14.36729221006858" lon="120.91928091357748"><ele>44.5</ele><time>2026-04-14T05:07:35.001Z</time></trkpt><trkpt lat="14.367382007962096" lon="120.91925195528084"><ele>44.666666666666664</ele><time>2026-04-14T05:07:36.001Z</time></trkpt><trkpt lat="14.367458869735628" lon="120.91923548337336"><ele>44.833333333333336</ele><time>2026-04-14T05:07:37.001Z</time></trkpt><trkpt lat="14.367540638183089" lon="120.91922173378504"><ele>45.0</ele><time>2026-04-14T05:07:38.001Z</time></trkpt><trkpt lat="14.367630199087843" lon="120.9191947184855"><ele>45.0</ele><time>2026-04-14T05:07:39.001Z</time></trkpt><trkpt lat="14.36772592823362" lon="120.91917093450967"><ele>45.0</ele><time>2026-04-14T05:07:40.001Z</time></trkpt><trkpt lat="14.367821334215746" lon="120.91914832450057"><ele>45.0</ele><time>2026-04-14T05:07:41.001Z</time></trkpt><trkpt lat="14.367919093152496" lon="120.91912347894184"><ele>45.0</ele><time>2026-04-14T05:07:42.001Z</time></trkpt><trkpt lat="14.368025818648878" lon="120.91910029954582"><ele>45.0</ele><time>2026-04-14T05:07:43.001Z</time></trkpt><trkpt lat="14.368130505859265" lon="120.91908163633866"><ele>44.75</ele><time>2026-04-14T05:07:44.001Z</time></trkpt><trkpt lat="14.36823835981679" lon="120.919065251665"><ele>44.5</ele><time>2026-04-14T05:07:45.001Z</time></trkpt><trkpt lat="14.368357979348094" lon="120.91904270323745"><ele>44.25</ele><time>2026-04-14T05:07:46.001Z</time></trkpt><trkpt lat="14.368476700515695" lon="120.91901973382643"><ele>44.0</ele><time>2026-04-14T05:07:47.001Z</time></trkpt><trkpt lat="14.368594744706009" lon="120.91899758793659"><ele>44.0</ele><time>2026-04-14T05:07:48.001Z</time></trkpt><trkpt lat="14.368716856725362" lon="120.91897664685094"><ele>44.0</ele><time>2026-04-14T05:07:49.001Z</time></trkpt><trkpt lat="14.368849118531433" lon="120.918954411292"><ele>44.0</ele><time>2026-04-14T05:07:50.001Z</time></trkpt><trkpt lat="14.368979955237958" lon="120.91893330960903"><ele>44.0</ele><time>2026-04-14T05:07:51.001Z</time></trkpt><trkpt lat="14.369112572983733" lon="120.91891430831055"><ele>43.5</ele><time>2026-04-14T05:07:52.001Z</time></trkpt><trkpt lat="14.369248982936691" lon="120.9188943992043"><ele>43.0</ele><time>2026-04-14T05:07:53.001Z</time></trkpt><trkpt lat="14.369383230510703" lon="120.91886964165377"><ele>42.5</ele><time>2026-04-14T05:07:54.001Z</time></trkpt><trkpt lat="14.369519908794592" lon="120.91884366000984"><ele>42.0</ele><time>2026-04-14T05:07:55.001Z</time></trkpt><trkpt lat="14.36965310364697" lon="120.9188200184491"><ele>40.75</ele><time>2026-04-14T05:07:56.001Z</time></trkpt><trkpt lat="14.369795896232624" lon="120.91879598661936"><ele>39.5</ele><time>2026-04-14T05:07:57.001Z</time></trkpt><trkpt lat="14.369938660721132" lon="120.91877058244478"><ele>38.25</ele><time>2026-04-14T05:07:58.001Z</time></trkpt><trkpt lat="14.370078381734858" lon="120.91874593834878"><ele>37.0</ele><time>2026-04-14T05:07:59.001Z</time></trkpt><trkpt lat="14.370212332126425" lon="120.91872473700182"><ele>37.0</ele><time>2026-04-14T05:08:00.001Z</time></trkpt><trkpt lat="14.370346088281257" lon="120.91869942339787"><ele>37.0</ele><time>2026-04-14T05:08:01.001Z</time></trkpt><trkpt lat="14.37045884994915" lon="120.91868402084798"><ele>37.0</ele><time>2026-04-14T05:08:02.001Z</time></trkpt><trkpt lat="14.370579428312576" lon="120.91865829862427"><ele>37.0</ele><time>2026-04-14T05:08:03.001Z</time></trkpt><trkpt lat="14.37069662624127" lon="120.91863840279781"><ele>37.25</ele><time>2026-04-14T05:08:04.001Z</time></trkpt><trkpt lat="14.370821005373607" lon="120.91861908263661"><ele>37.5</ele><time>2026-04-14T05:08:05.001Z</time></trkpt><trkpt lat="14.370948044109461" lon="120.91860717937112"><ele>37.75</ele><time>2026-04-14T05:08:06.001Z</time></trkpt><trkpt lat="14.371079965170702" lon="120.9186095068765"><ele>38.0</ele><time>2026-04-14T05:08:07.001Z</time></trkpt><trkpt lat="14.3712133655414" lon="120.91862610700828"><ele>38.0</ele><time>2026-04-14T05:08:08.001Z</time></trkpt><trkpt lat="14.371341587051552" lon="120.91864803797662"><ele>38.0</ele><time>2026-04-14T05:08:09.001Z</time></trkpt><trkpt lat="14.37146877506715" lon="120.91865537230248"><ele>38.0</ele><time>2026-04-14T05:08:10.001Z</time></trkpt><trkpt lat="14.371597983887535" lon="120.91864788456841"><ele>38.0</ele><time>2026-04-14T05:08:11.001Z</time></trkpt><trkpt lat="14.371730867865013" lon="120.91863541931563"><ele>37.25</ele><time>2026-04-14T05:08:12.001Z</time></trkpt><trkpt lat="14.371867377416775" lon="120.91861978908953"><ele>36.5</ele><time>2026-04-14T05:08:13.001Z</time></trkpt><trkpt lat="14.37199814914879" lon="120.91860752600743"><ele>35.75</ele><time>2026-04-14T05:08:14.001Z</time></trkpt><trkpt lat="14.372136016887891" lon="120.91859796991767"><ele>35.0</ele><time>2026-04-14T05:08:15.001Z</time></trkpt><trkpt lat="14.372275524575812" lon="120.91858618490232"><ele>35.0</ele><time>2026-04-14T05:08:16.001Z</time></trkpt><trkpt lat="14.372420629717418" lon="120.91857243879883"><ele>35.0</ele><time>2026-04-14T05:08:17.001Z</time></trkpt><trkpt lat="14.372564819479104" lon="120.91855978386596"><ele>35.0</ele><time>2026-04-14T05:08:18.001Z</time></trkpt><trkpt lat="14.37270636547675" lon="120.91854720027848"><ele>35.0</ele><time>2026-04-14T05:08:19.001Z</time></trkpt><trkpt lat="14.372869146705838" lon="120.91852864322627"><ele>35.0</ele><time>2026-04-14T05:08:20.001Z</time></trkpt><trkpt lat="14.37302211363168" lon="120.91851591664252"><ele>35.0</ele><time>2026-04-14T05:08:21.001Z</time></trkpt><trkpt lat="14.373173831319752" lon="120.91850006567925"><ele>35.0</ele><time>2026-04-14T05:08:22.001Z</time></trkpt><trkpt lat="14.373325703340889" lon="120.91848858740222"><ele>35.0</ele><time>2026-04-14T05:08:23.001Z</time></trkpt><trkpt lat="14.373485558452693" lon="120.91847688554657"><ele>35.0</ele><time>2026-04-14T05:08:24.001Z</time></trkpt><trkpt lat="14.373637712534775" lon="120.91846520238408"><ele>35.0</ele><time>2026-04-14T05:08:25.001Z</time></trkpt><trkpt lat="14.373794772086903" lon="120.91843974110066"><ele>35.0</ele><time>2026-04-14T05:08:26.001Z</time></trkpt><trkpt lat="14.373953635332741" lon="120.9184088581198"><ele>35.0</ele><time>2026-04-14T05:08:27.001Z</time></trkpt><trkpt lat="14.374105256907155" lon="120.91837869877709"><ele>35.0</ele><time>2026-04-14T05:08:28.001Z</time></trkpt><trkpt lat="14.374260370238737" lon="120.91834744154922"><ele>35.0</ele><time>2026-04-14T05:08:29.001Z</time></trkpt><trkpt lat="14.374415552250605" lon="120.91831854105668"><ele>35.0</ele><time>2026-04-14T05:08:30.001Z</time></trkpt><trkpt lat="14.37456290780664" lon="120.91829051624353"><ele>35.0</ele><time>2026-04-14T05:08:31.001Z</time></trkpt><trkpt lat="14.374708836723755" lon="120.91826087877543"><ele>35.25</ele><time>2026-04-14T05:08:32.001Z</time></trkpt><trkpt lat="14.374852869178612" lon="120.91823422402035"><ele>35.5</ele><time>2026-04-14T05:08:33.001Z</time></trkpt><trkpt lat="14.375002281687014" lon="120.91820436505445"><ele>35.75</ele><time>2026-04-14T05:08:34.001Z</time></trkpt><trkpt lat="14.37514734469967" lon="120.91817118257217"><ele>36.0</ele><time>2026-04-14T05:08:35.001Z</time></trkpt><trkpt lat="14.37529413972999" lon="120.91813312180828"><ele>36.0</ele><time>2026-04-14T05:08:36.001Z</time></trkpt><trkpt lat="14.37544677442501" lon="120.91809673291151"><ele>36.0</ele><time>2026-04-14T05:08:37.001Z</time></trkpt><trkpt lat="14.375599569130504" lon="120.918059704839"><ele>36.0</ele><time>2026-04-14T05:08:38.001Z</time></trkpt><trkpt lat="14.375756760998932" lon="120.9180127519781"><ele>35.333333333333336</ele><time>2026-04-14T05:08:39.001Z</time></trkpt><trkpt lat="14.375894859020375" lon="120.91796875934175"><ele>34.66666666666667</ele><time>2026-04-14T05:08:40.001Z</time></trkpt><trkpt lat="14.376038978073849" lon="120.91789943941096"><ele>34.0</ele><time>2026-04-14T05:08:41.001Z</time></trkpt><trkpt lat="14.376188528074321" lon="120.91783625365645"><ele>34.0</ele><time>2026-04-14T05:08:42Z</time></trkpt><trkpt lat="14.376342057132186" lon="120.91777793302327"><ele>34.0</ele><time>2026-04-14T05:08:43Z</time></trkpt><trkpt lat="14.376501904874285" lon="120.91771788020712"><ele>34.0</ele><time>2026-04-14T05:08:44Z</time></trkpt><trkpt lat="14.376658879994741" lon="120.91763484016145"><ele>34.333333333333336</ele><time>2026-04-14T05:08:45Z</time></trkpt><trkpt lat="14.376797090658066" lon="120.91753680688633"><ele>34.666666666666664</ele><time>2026-04-14T05:08:46Z</time></trkpt><trkpt lat="14.376929511186413" lon="120.9174266840931"><ele>35.0</ele><time>2026-04-14T05:08:47Z</time></trkpt><trkpt lat="14.37706242511132" lon="120.91732040754134"><ele>34.33333333333333</ele><time>2026-04-14T05:08:48Z</time></trkpt><trkpt lat="14.377196715538886" lon="120.91722151350281"><ele>33.666666666666664</ele><time>2026-04-14T05:08:49Z</time></trkpt><trkpt lat="14.377336996604024" lon="120.91713202453828"><ele>33.0</ele><time>2026-04-14T05:08:50Z</time></trkpt><trkpt lat="14.377484630046611" lon="120.91705347842057"><ele>33.0</ele><time>2026-04-14T05:08:51Z</time></trkpt><trkpt lat="14.377633102701052" lon="120.91698316261473"><ele>33.0</ele><time>2026-04-14T05:08:52Z</time></trkpt><trkpt lat="14.377783808711085" lon="120.91691008764975"><ele>33.0</ele><time>2026-04-14T05:08:53Z</time></trkpt><trkpt lat="14.377931095535487" lon="120.91684147461798"><ele>33.0</ele><time>2026-04-14T05:08:54Z</time></trkpt><trkpt lat="14.378057055330931" lon="120.91678273908522"><ele>33.0</ele><time>2026-04-14T05:08:55Z</time></trkpt><trkpt lat="14.378179954198933" lon="120.91672794208044"><ele>33.0</ele><time>2026-04-14T05:08:56Z</time></trkpt><trkpt lat="14.378308699213768" lon="120.91667335580063"><ele>33.0</ele><time>2026-04-14T05:08:57Z</time></trkpt><trkpt lat="14.378438475463781" lon="120.91662991240139"><ele>33.0</ele><time>2026-04-14T05:08:58Z</time></trkpt><trkpt lat="14.37856572363342" lon="120.91659654355144"><ele>33.0</ele><time>2026-04-14T05:08:59Z</time></trkpt><trkpt lat="14.378697050300282" lon="120.91656733987544"><ele>33.0</ele><time>2026-04-14T05:09:00Z</time></trkpt><trkpt lat="14.37882808235808" lon="120.91653978783425"><ele>33.0</ele><time>2026-04-14T05:09:01Z</time></trkpt><trkpt lat="14.378969012072693" lon="120.91651107207771"><ele>33.75</ele><time>2026-04-14T05:09:02Z</time></trkpt><trkpt lat="14.379110586056532" lon="120.91649399914239"><ele>34.5</ele><time>2026-04-14T05:09:03Z</time></trkpt><trkpt lat="14.37925355320879" lon="120.91648606184694"><ele>35.25</ele><time>2026-04-14T05:09:04Z</time></trkpt><trkpt lat="14.379403842198805" lon="120.91647559852353"><ele>36.0</ele><time>2026-04-14T05:09:05Z</time></trkpt><trkpt lat="14.379547884450398" lon="120.91646135659123"><ele>35.25</ele><time>2026-04-14T05:09:06Z</time></trkpt><trkpt lat="14.379688516517792" lon="120.91645083343117"><ele>34.5</ele><time>2026-04-14T05:09:07Z</time></trkpt><trkpt lat="14.379826540627967" lon="120.91644089640808"><ele>33.75</ele><time>2026-04-14T05:09:08Z</time></trkpt><trkpt lat="14.379959239743684" lon="120.91643679063041"><ele>33.0</ele><time>2026-04-14T05:09:09Z</time></trkpt><trkpt lat="14.380082429274484" lon="120.91643946127384"><ele>33.0</ele><time>2026-04-14T05:09:10Z</time></trkpt><trkpt lat="14.380208312910057" lon="120.91642936243643"><ele>33.0</ele><time>2026-04-14T05:09:11Z</time></trkpt><trkpt lat="14.380321462086568" lon="120.9164175843702"><ele>33.0</ele><time>2026-04-14T05:09:12Z</time></trkpt><trkpt lat="14.38043625068597" lon="120.91641047290165"><ele>33.0</ele><time>2026-04-14T05:09:13Z</time></trkpt><trkpt lat="14.38054710725567" lon="120.91639954457834"><ele>32.6</ele><time>2026-04-14T05:09:14Z</time></trkpt><trkpt lat="14.380645036398956" lon="120.91639641886563"><ele>32.199999999999996</ele><time>2026-04-14T05:09:15Z</time></trkpt><trkpt lat="14.380735162003129" lon="120.91639264388013"><ele>31.8</ele><time>2026-04-14T05:09:16Z</time></trkpt><trkpt lat="14.380822374231517" lon="120.9163877855222"><ele>31.4</ele><time>2026-04-14T05:09:17Z</time></trkpt><trkpt lat="14.380908742405387" lon="120.91638505769396"><ele>31.0</ele><time>2026-04-14T05:09:18Z</time></trkpt><trkpt lat="14.381000966319526" lon="120.91638348244898"><ele>31.0</ele><time>2026-04-14T05:09:19Z</time></trkpt><trkpt lat="14.381104907826087" lon="120.91638061715854"><ele>31.0</ele><time>2026-04-14T05:09:20Z</time></trkpt><trkpt lat="14.381216732125443" lon="120.91637664754089"><ele>31.0</ele><time>2026-04-14T05:09:21Z</time></trkpt><trkpt lat="14.381335370207406" lon="120.91636806829756"><ele>31.0</ele><time>2026-04-14T05:09:22Z</time></trkpt><trkpt lat="14.381454625685057" lon="120.91635910398756"><ele>31.0</ele><time>2026-04-14T05:09:23Z</time></trkpt><trkpt lat="14.381571845542952" lon="120.91634378275837"><ele>31.0</ele><time>2026-04-14T05:09:24Z</time></trkpt><trkpt lat="14.381702638727084" lon="120.91632577905794"><ele>31.0</ele><time>2026-04-14T05:09:25Z</time></trkpt><trkpt lat="14.381844096302359" lon="120.91630756573815"><ele>31.0</ele><time>2026-04-14T05:09:26.001Z</time></trkpt><trkpt lat="14.38198728729364" lon="120.91629114409147"><ele>31.0</ele><time>2026-04-14T05:09:27.001Z</time></trkpt><trkpt lat="14.382139836086562" lon="120.91627414585004"><ele>31.0</ele><time>2026-04-14T05:09:28.001Z</time></trkpt><trkpt lat="14.382288196370684" lon="120.91626419675099"><ele>31.0</ele><time>2026-04-14T05:09:29.001Z</time></trkpt><trkpt lat="14.382449067332686" lon="120.91624976439313"><ele>30.666666666666668</ele><time>2026-04-14T05:09:30.001Z</time></trkpt><trkpt lat="14.382605583158925" lon="120.91623936226179"><ele>30.333333333333336</ele><time>2026-04-14T05:09:31.001Z</time></trkpt><trkpt lat="14.382764986368194" lon="120.91623078253568"><ele>30.0</ele><time>2026-04-14T05:09:32.001Z</time></trkpt><trkpt lat="14.382938222951365" lon="120.91622953311253"><ele>30.0</ele><time>2026-04-14T05:09:33.001Z</time></trkpt><trkpt lat="14.383098318006397" lon="120.91623226795939"><ele>30.0</ele><time>2026-04-14T05:09:34.001Z</time></trkpt><trkpt lat="14.383262380750208" lon="120.91623858831795"><ele>30.0</ele><time>2026-04-14T05:09:35.001Z</time></trkpt><trkpt lat="14.383420651102314" lon="120.916245110649"><ele>30.0</ele><time>2026-04-14T05:09:36.001Z</time></trkpt><trkpt lat="14.383570312726356" lon="120.91624823011279"><ele>30.0</ele><time>2026-04-14T05:09:37.001Z</time></trkpt><trkpt lat="14.383700170575748" lon="120.91624816844134"><ele>30.0</ele><time>2026-04-14T05:09:38.001Z</time></trkpt><trkpt lat="14.383834662163338" lon="120.91624493603005"><ele>30.0</ele><time>2026-04-14T05:09:39.001Z</time></trkpt><trkpt lat="14.383961103865134" lon="120.91624416850473"><ele>30.25</ele><time>2026-04-14T05:09:40.001Z</time></trkpt><trkpt lat="14.384078251061732" lon="120.91625035880281"><ele>30.5</ele><time>2026-04-14T05:09:41.001Z</time></trkpt><trkpt lat="14.384189996648352" lon="120.91628034652757"><ele>30.75</ele><time>2026-04-14T05:09:42.001Z</time></trkpt><trkpt lat="14.384276118293839" lon="120.91633872336249"><ele>31.0</ele><time>2026-04-14T05:09:43.001Z</time></trkpt><trkpt lat="14.384356077352372" lon="120.91642339771255"><ele>31.0</ele><time>2026-04-14T05:09:44.001Z</time></trkpt><trkpt lat="14.384421775653841" lon="120.91653060699905"><ele>31.0</ele><time>2026-04-14T05:09:45.001Z</time></trkpt><trkpt lat="14.384474632259433" lon="120.9166336098968"><ele>31.0</ele><time>2026-04-14T05:09:46.001Z</time></trkpt><trkpt lat="14.38454575781362" lon="120.91675309247915"><ele>31.0</ele><time>2026-04-14T05:09:47.001Z</time></trkpt><trkpt lat="14.38462790544448" lon="120.91686546063104"><ele>30.25</ele><time>2026-04-14T05:09:48.001Z</time></trkpt><trkpt lat="14.384716008998733" lon="120.91697676359374"><ele>29.5</ele><time>2026-04-14T05:09:49.001Z</time></trkpt><trkpt lat="14.384807464741437" lon="120.9170875214876"><ele>28.75</ele><time>2026-04-14T05:09:50.001Z</time></trkpt><trkpt lat="14.384908101723811" lon="120.91719842600321"><ele>28.0</ele><time>2026-04-14T05:09:51.001Z</time></trkpt><trkpt lat="14.385011639684743" lon="120.91731282101972"><ele>28.0</ele><time>2026-04-14T05:09:52.001Z</time></trkpt><trkpt lat="14.38511294675786" lon="120.91743756597465"><ele>28.0</ele><time>2026-04-14T05:09:53.001Z</time></trkpt><trkpt lat="14.385212188488952" lon="120.91755883666498"><ele>28.0</ele><time>2026-04-14T05:09:54.001Z</time></trkpt><trkpt lat="14.385313511912505" lon="120.91768310966681"><ele>27.75</ele><time>2026-04-14T05:09:55.001Z</time></trkpt><trkpt lat="14.385415138397077" lon="120.91780547584717"><ele>27.5</ele><time>2026-04-14T05:09:56.001Z</time></trkpt><trkpt lat="14.38551974006599" lon="120.91791800782767"><ele>27.25</ele><time>2026-04-14T05:09:57.001Z</time></trkpt><trkpt lat="14.385613719829296" lon="120.91802063022286"><ele>27.0</ele><time>2026-04-14T05:09:58.001Z</time></trkpt><trkpt lat="14.385708115226866" lon="120.91812024768426"><ele>27.0</ele><time>2026-04-14T05:09:59.001Z</time></trkpt><trkpt lat="14.385803163979107" lon="120.91822021618535"><ele>27.0</ele><time>2026-04-14T05:10:00.001Z</time></trkpt><trkpt lat="14.385905093807876" lon="120.91832952896344"><ele>27.0</ele><time>2026-04-14T05:10:01.001Z</time></trkpt><trkpt lat="14.38600215044908" lon="120.91843757069994"><ele>27.0</ele><time>2026-04-14T05:10:02.001Z</time></trkpt><trkpt lat="14.386103372730352" lon="120.91855031316754"><ele>27.0</ele><time>2026-04-14T05:10:03.001Z</time></trkpt><trkpt lat="14.386198402508349" lon="120.91865645577103"><ele>27.0</ele><time>2026-04-14T05:10:04.001Z</time></trkpt><trkpt lat="14.386285854917835" lon="120.91875395945733"><ele>27.0</ele><time>2026-04-14T05:10:05.001Z</time></trkpt><trkpt lat="14.386375193075324" lon="120.91883315229806"><ele>27.0</ele><time>2026-04-14T05:10:06.001Z</time></trkpt><trkpt lat="14.386467163880312" lon="120.91889740208411"><ele>27.0</ele><time>2026-04-14T05:10:07.001Z</time></trkpt><trkpt lat="14.386552880242885" lon="120.91894377509784"><ele>27.000000000000004</ele><time>2026-04-14T05:10:08.001Z</time></trkpt><trkpt lat="14.386655807299999" lon="120.91897172081032"><ele>27.000000000000004</ele><time>2026-04-14T05:10:09.001Z</time></trkpt><trkpt lat="14.386763842837173" lon="120.91896592975431"><ele>27.0</ele><time>2026-04-14T05:10:10.001Z</time></trkpt><trkpt lat="14.386874874995822" lon="120.91894122264208"><ele>27.0</ele><time>2026-04-14T05:10:11.001Z</time></trkpt><trkpt lat="14.387000336995506" lon="120.91891270779006"><ele>27.0</ele><time>2026-04-14T05:10:12.001Z</time></trkpt><trkpt lat="14.387126997550867" lon="120.91889893519235"><ele>27.0</ele><time>2026-04-14T05:10:13.001Z</time></trkpt><trkpt lat="14.38725974202875" lon="120.91889419999606"><ele>27.0</ele><time>2026-04-14T05:10:14.001Z</time></trkpt><trkpt lat="14.387395463567357" lon="120.91888762145851"><ele>27.0</ele><time>2026-04-14T05:10:15.001Z</time></trkpt><trkpt lat="14.387535038046451" lon="120.91888140737612"><ele>26.5</ele><time>2026-04-14T05:10:16.001Z</time></trkpt><trkpt lat="14.387679255508102" lon="120.91887709335671"><ele>26.0</ele><time>2026-04-14T05:10:17.001Z</time></trkpt><trkpt lat="14.387825473457948" lon="120.9188716345126"><ele>25.5</ele><time>2026-04-14T05:10:18.001Z</time></trkpt><trkpt lat="14.387974553969206" lon="120.91886649606677"><ele>25.0</ele><time>2026-04-14T05:10:19.001Z</time></trkpt><trkpt lat="14.388120874697853" lon="120.91886179835952"><ele>25.0</ele><time>2026-04-14T05:10:20.001Z</time></trkpt><trkpt lat="14.388269993813408" lon="120.91886965990649"><ele>25.0</ele><time>2026-04-14T05:10:21.001Z</time></trkpt><trkpt lat="14.388406570355261" lon="120.91889433769492"><ele>25.0</ele><time>2026-04-14T05:10:22.001Z</time></trkpt><trkpt lat="14.388527993680611" lon="120.9189243766902"><ele>25.0</ele><time>2026-04-14T05:10:23.001Z</time></trkpt><trkpt lat="14.388659268815871" lon="120.9189403045321"><ele>25.0</ele><time>2026-04-14T05:10:24.001Z</time></trkpt><trkpt lat="14.388788460900912" lon="120.91893862915362"><ele>25.0</ele><time>2026-04-14T05:10:25.001Z</time></trkpt><trkpt lat="14.388917758369754" lon="120.9189400897612"><ele>25.0</ele><time>2026-04-14T05:10:26.001Z</time></trkpt><trkpt lat="14.389049915379898" lon="120.91893432237384"><ele>25.0</ele><time>2026-04-14T05:10:27.001Z</time></trkpt><trkpt lat="14.389165154660274" lon="120.91892894197007"><ele>24.75</ele><time>2026-04-14T05:10:28.001Z</time></trkpt><trkpt lat="14.389289730458342" lon="120.91891666512119"><ele>24.5</ele><time>2026-04-14T05:10:29.001Z</time></trkpt><trkpt lat="14.389408619648327" lon="120.91889828346004"><ele>24.25</ele><time>2026-04-14T05:10:30.001Z</time></trkpt><trkpt lat="14.389526871425016" lon="120.91888430484883"><ele>24.0</ele><time>2026-04-14T05:10:31.001Z</time></trkpt><trkpt lat="14.389640756553552" lon="120.91887049400461"><ele>24.0</ele><time>2026-04-14T05:10:32.001Z</time></trkpt><trkpt lat="14.389751289153905" lon="120.91885820219929"><ele>24.0</ele><time>2026-04-14T05:10:33.001Z</time></trkpt><trkpt lat="14.389858359964641" lon="120.91884751427808"><ele>24.0</ele><time>2026-04-14T05:10:34.001Z</time></trkpt><trkpt lat="14.389966224576712" lon="120.91882837193644"><ele>24.0</ele><time>2026-04-14T05:10:35.001Z</time></trkpt><trkpt lat="14.390057498809277" lon="120.91879377801011"><ele>24.0</ele><time>2026-04-14T05:10:36.001Z</time></trkpt><trkpt lat="14.390147785793632" lon="120.9187253678189"><ele>24.0</ele><time>2026-04-14T05:10:37.001Z</time></trkpt><trkpt lat="14.390225696756564" lon="120.9186464022637"><ele>24.0</ele><time>2026-04-14T05:10:38.001Z</time></trkpt><trkpt lat="14.390307731986782" lon="120.91855999782983"><ele>24.0</ele><time>2026-04-14T05:10:39.001Z</time></trkpt><trkpt lat="14.390399126622015" lon="120.91848146488701"><ele>24.0</ele><time>2026-04-14T05:10:40.001Z</time></trkpt><trkpt lat="14.390490013545604" lon="120.91840009538684"><ele>24.0</ele><time>2026-04-14T05:10:41.001Z</time></trkpt><trkpt lat="14.390587157695064" lon="120.91832629464321"><ele>24.0</ele><time>2026-04-14T05:10:42.001Z</time></trkpt><trkpt lat="14.390697835390492" lon="120.91826142611286"><ele>24.0</ele><time>2026-04-14T05:10:43.001Z</time></trkpt><trkpt lat="14.390823016302583" lon="120.91820579533456"><ele>24.0</ele><time>2026-04-14T05:10:44.001Z</time></trkpt><trkpt lat="14.390956747575867" lon="120.91815158091137"><ele>24.0</ele><time>2026-04-14T05:10:45.001Z</time></trkpt><trkpt lat="14.39108187141724" lon="120.91810132410914"><ele>24.0</ele><time>2026-04-14T05:10:46.001Z</time></trkpt><trkpt lat="14.391214476901808" lon="120.91804412282858"><ele>24.0</ele><time>2026-04-14T05:10:47.001Z</time></trkpt><trkpt lat="14.391339350082891" lon="120.91799493111037"><ele>24.0</ele><time>2026-04-14T05:10:48Z</time></trkpt><trkpt lat="14.39145569723485" lon="120.91794971027898"><ele>23.75</ele><time>2026-04-14T05:10:49Z</time></trkpt><trkpt lat="14.391565439202981" lon="120.91791849403833"><ele>23.5</ele><time>2026-04-14T05:10:50Z</time></trkpt><trkpt lat="14.39168501362362" lon="120.91789781050369"><ele>23.25</ele><time>2026-04-14T05:10:51Z</time></trkpt><trkpt lat="14.391811625786207" lon="120.91789734005981"><ele>23.0</ele><time>2026-04-14T05:10:52Z</time></trkpt><trkpt lat="14.391944817099104" lon="120.91789869121361"><ele>23.0</ele><time>2026-04-14T05:10:53Z</time></trkpt><trkpt lat="14.392077284086312" lon="120.91790116382442"><ele>23.0</ele><time>2026-04-14T05:10:54Z</time></trkpt><trkpt lat="14.392219481945618" lon="120.91789909267352"><ele>23.0</ele><time>2026-04-14T05:10:55Z</time></trkpt><trkpt lat="14.392354243104046" lon="120.91789852989953"><ele>23.0</ele><time>2026-04-14T05:10:56Z</time></trkpt><trkpt lat="14.392492844611736" lon="120.9178969541386"><ele>23.25</ele><time>2026-04-14T05:10:57Z</time></trkpt><trkpt lat="14.39262315121018" lon="120.91789743805622"><ele>23.5</ele><time>2026-04-14T05:10:58Z</time></trkpt><trkpt lat="14.392742660606304" lon="120.91789390604995"><ele>23.75</ele><time>2026-04-14T05:10:59Z</time></trkpt><trkpt lat="14.392859270834425" lon="120.91789209879202"><ele>24.0</ele><time>2026-04-14T05:11:00Z</time></trkpt><trkpt lat="14.392974790355112" lon="120.91788749640723"><ele>23.6</ele><time>2026-04-14T05:11:01Z</time></trkpt><trkpt lat="14.39308810998138" lon="120.91788731579514"><ele>23.2</ele><time>2026-04-14T05:11:02Z</time></trkpt><trkpt lat="14.393191109953657" lon="120.91788683178832"><ele>22.8</ele><time>2026-04-14T05:11:03Z</time></trkpt><trkpt lat="14.393302426144198" lon="120.917884492569"><ele>22.400000000000002</ele><time>2026-04-14T05:11:04Z</time></trkpt><trkpt lat="14.393411248514154" lon="120.91788340886335"><ele>22.0</ele><time>2026-04-14T05:11:05Z</time></trkpt><trkpt lat="14.393522077119183" lon="120.91788258949624"><ele>22.0</ele><time>2026-04-14T05:11:06Z</time></trkpt><trkpt lat="14.393627081750537" lon="120.91788085386553"><ele>22.0</ele><time>2026-04-14T05:11:07Z</time></trkpt><trkpt lat="14.393728110455465" lon="120.917881113352"><ele>22.0</ele><time>2026-04-14T05:11:08Z</time></trkpt><trkpt lat="14.393825069929669" lon="120.9178797507454"><ele>22.0</ele><time>2026-04-14T05:11:09Z</time></trkpt><trkpt lat="14.393919428135062" lon="120.9178777002375"><ele>22.0</ele><time>2026-04-14T05:11:10Z</time></trkpt><trkpt lat="14.394020259372416" lon="120.91787636714133"><ele>21.8</ele><time>2026-04-14T05:11:11Z</time></trkpt><trkpt lat="14.394122372116147" lon="120.91787427958037"><ele>21.6</ele><time>2026-04-14T05:11:12Z</time></trkpt><trkpt lat="14.394224688247972" lon="120.91786961072093"><ele>21.400000000000002</ele><time>2026-04-14T05:11:13Z</time></trkpt><trkpt lat="14.394323390614323" lon="120.91786459296029"><ele>21.200000000000003</ele><time>2026-04-14T05:11:14Z</time></trkpt><trkpt lat="14.394421673258195" lon="120.91785734400578"><ele>21.0</ele><time>2026-04-14T05:11:15Z</time></trkpt><trkpt lat="14.394508057884513" lon="120.9178552589941"><ele>21.0</ele><time>2026-04-14T05:11:16Z</time></trkpt><trkpt lat="14.394596332711192" lon="120.9178496177464"><ele>21.0</ele><time>2026-04-14T05:11:17Z</time></trkpt><trkpt lat="14.394687776422249" lon="120.91784167548272"><ele>21.0</ele><time>2026-04-14T05:11:18Z</time></trkpt><trkpt lat="14.394785079852921" lon="120.91783390201265"><ele>21.0</ele><time>2026-04-14T05:11:19Z</time></trkpt><trkpt lat="14.394886598666456" lon="120.91783321025106"><ele>21.0</ele><time>2026-04-14T05:11:20Z</time></trkpt><trkpt lat="14.39500018468228" lon="120.91783012032705"><ele>21.25</ele><time>2026-04-14T05:11:21Z</time></trkpt><trkpt lat="14.395114841826716" lon="120.91782139152343"><ele>21.5</ele><time>2026-04-14T05:11:22Z</time></trkpt><trkpt lat="14.395240990078294" lon="120.91781200971926"><ele>21.75</ele><time>2026-04-14T05:11:23Z</time></trkpt><trkpt lat="14.395364781206549" lon="120.91780707426325"><ele>22.0</ele><time>2026-04-14T05:11:24Z</time></trkpt><trkpt lat="14.395486278580782" lon="120.91779581029398"><ele>21.75</ele><time>2026-04-14T05:11:25Z</time></trkpt><trkpt lat="14.39559966695573" lon="120.91779015911261"><ele>21.5</ele><time>2026-04-14T05:11:26Z</time></trkpt><trkpt lat="14.395722626802872" lon="120.91778149160706"><ele>21.25</ele><time>2026-04-14T05:11:27Z</time></trkpt><trkpt lat="14.395837901672536" lon="120.91776868474349"><ele>21.0</ele><time>2026-04-14T05:11:28Z</time></trkpt><trkpt lat="14.395953537648753" lon="120.9177601647163"><ele>21.0</ele><time>2026-04-14T05:11:29Z</time></trkpt><trkpt lat="14.396062992658306" lon="120.9177527766163"><ele>21.0</ele><time>2026-04-14T05:11:30Z</time></trkpt><trkpt lat="14.396170745361788" lon="120.91774622595088"><ele>21.0</ele><time>2026-04-14T05:11:31Z</time></trkpt><trkpt lat="14.396293531270484" lon="120.91773951488743"><ele>21.0</ele><time>2026-04-14T05:11:32Z</time></trkpt><trkpt lat="14.396408843326029" lon="120.91774590211146"><ele>21.0</ele><time>2026-04-14T05:11:33Z</time></trkpt><trkpt lat="14.396515126499565" lon="120.91774662250091"><ele>21.0</ele><time>2026-04-14T05:11:34.001Z</time></trkpt><trkpt lat="14.396623001056383" lon="120.91774783093892"><ele>21.0</ele><time>2026-04-14T05:11:35.001Z</time></trkpt><trkpt lat="14.396727209067278" lon="120.91775836680854"><ele>21.0</ele><time>2026-04-14T05:11:36.001Z</time></trkpt><trkpt lat="14.396850702123" lon="120.91776464210923"><ele>21.0</ele><time>2026-04-14T05:11:37.001Z</time></trkpt><trkpt lat="14.396981213807114" lon="120.91777929787582"><ele>21.0</ele><time>2026-04-14T05:11:38.001Z</time></trkpt><trkpt lat="14.397118257131273" lon="120.91777801739995"><ele>21.0</ele><time>2026-04-14T05:11:39.001Z</time></trkpt><trkpt lat="14.397270281541932" lon="120.91777442040545"><ele>21.0</ele><time>2026-04-14T05:11:40.001Z</time></trkpt><trkpt lat="14.397426922108895" lon="120.9177688935669"><ele>21.0</ele><time>2026-04-14T05:11:41.001Z</time></trkpt><trkpt lat="14.397588451787747" lon="120.91777101916259"><ele>21.0</ele><time>2026-04-14T05:11:42.001Z</time></trkpt><trkpt lat="14.39775404466052" lon="120.91777408850811"><ele>21.0</ele><time>2026-04-14T05:11:43.001Z</time></trkpt><trkpt lat="14.397911734357269" lon="120.91778090977027"><ele>21.0</ele><time>2026-04-14T05:11:44.001Z</time></trkpt><trkpt lat="14.398064158440071" lon="120.91779134023447"><ele>21.0</ele><time>2026-04-14T05:11:45.001Z</time></trkpt><trkpt lat="14.398258606759015" lon="120.9177782910746"><ele>21.0</ele><time>2026-04-14T05:11:46.001Z</time></trkpt><trkpt lat="14.398436835483762" lon="120.91777687837772"><ele>21.0</ele><time>2026-04-14T05:11:47.001Z</time></trkpt><trkpt lat="14.39861309972711" lon="120.91777636217817"><ele>21.0</ele><time>2026-04-14T05:11:48.001Z</time></trkpt><trkpt lat="14.398783871636565" lon="120.9177753865062"><ele>21.0</ele><time>2026-04-14T05:11:49.001Z</time></trkpt><trkpt lat="14.39895445946355" lon="120.91777451596825"><ele>21.0</ele><time>2026-04-14T05:11:50.001Z</time></trkpt><trkpt lat="14.399125999887898" lon="120.91776908245176"><ele>20.333333333333332</ele><time>2026-04-14T05:11:51.001Z</time></trkpt><trkpt lat="14.399295031087966" lon="120.91775934065487"><ele>19.666666666666664</ele><time>2026-04-14T05:11:52.001Z</time></trkpt><trkpt lat="14.39946307885208" lon="120.91774610291351"><ele>19.0</ele><time>2026-04-14T05:11:53.001Z</time></trkpt><trkpt lat="14.3996334615016" lon="120.91772912691562"><ele>19.333333333333332</ele><time>2026-04-14T05:11:54.001Z</time></trkpt><trkpt lat="14.39980562163087" lon="120.91770956835579"><ele>19.666666666666668</ele><time>2026-04-14T05:11:55.001Z</time></trkpt><trkpt lat="14.399969005353245" lon="120.91769359915831"><ele>20.0</ele><time>2026-04-14T05:11:56.001Z</time></trkpt><trkpt lat="14.400129553268735" lon="120.91767681157225"><ele>20.0</ele><time>2026-04-14T05:11:57.001Z</time></trkpt><trkpt lat="14.400288326016732" lon="120.91766092222483"><ele>20.0</ele><time>2026-04-14T05:11:58.001Z</time></trkpt><trkpt lat="14.400444126265354" lon="120.91763598447152"><ele>20.0</ele><time>2026-04-14T05:11:59.001Z</time></trkpt><trkpt lat="14.400599156595932" lon="120.91760565065778"><ele>20.25</ele><time>2026-04-14T05:12:00.001Z</time></trkpt><trkpt lat="14.400749592626019" lon="120.91756954878296"><ele>20.5</ele><time>2026-04-14T05:12:01.001Z</time></trkpt><trkpt lat="14.400888797035076" lon="120.91753504798665"><ele>20.75</ele><time>2026-04-14T05:12:02.001Z</time></trkpt><trkpt lat="14.401023876429004" lon="120.91751054972215"><ele>21.0</ele><time>2026-04-14T05:12:03.001Z</time></trkpt><trkpt lat="14.40115231622726" lon="120.91751367706986"><ele>21.25</ele><time>2026-04-14T05:12:04.001Z</time></trkpt><trkpt lat="14.401277060553973" lon="120.91755414113634"><ele>21.5</ele><time>2026-04-14T05:12:05.001Z</time></trkpt><trkpt lat="14.401404128078186" lon="120.91761370782032"><ele>21.75</ele><time>2026-04-14T05:12:06.001Z</time></trkpt><trkpt lat="14.401529879315534" lon="120.9176623200384"><ele>22.0</ele><time>2026-04-14T05:12:07.001Z</time></trkpt><trkpt lat="14.401666601457551" lon="120.9176787049564"><ele>21.0</ele><time>2026-04-14T05:12:08.001Z</time></trkpt><trkpt lat="14.401807544976" lon="120.91767779032078"><ele>20.0</ele><time>2026-04-14T05:12:09.001Z</time></trkpt><trkpt lat="14.401962283697022" lon="120.91767569102164"><ele>19.0</ele><time>2026-04-14T05:12:10.001Z</time></trkpt><trkpt lat="14.40212333601113" lon="120.91768130304925"><ele>18.5</ele><time>2026-04-14T05:12:11.001Z</time></trkpt><trkpt lat="14.402278931845263" lon="120.9176901717724"><ele>18.0</ele><time>2026-04-14T05:12:12.001Z</time></trkpt><trkpt lat="14.402425783991468" lon="120.91769214579392"><ele>17.5</ele><time>2026-04-14T05:12:13.001Z</time></trkpt><trkpt lat="14.402571825856434" lon="120.91769512464653"><ele>17.0</ele><time>2026-04-14T05:12:14.001Z</time></trkpt><trkpt lat="14.402716495342283" lon="120.91770307041617"><ele>17.0</ele><time>2026-04-14T05:12:15.001Z</time></trkpt><trkpt lat="14.402862876317423" lon="120.91770993254222"><ele>17.0</ele><time>2026-04-14T05:12:16.001Z</time></trkpt><trkpt lat="14.403011039996326" lon="120.91771995780758"><ele>17.0</ele><time>2026-04-14T05:12:17.001Z</time></trkpt><trkpt lat="14.403161591688027" lon="120.91773280936123"><ele>17.0</ele><time>2026-04-14T05:12:18.001Z</time></trkpt><trkpt lat="14.403310801038861" lon="120.91774322909414"><ele>17.0</ele><time>2026-04-14T05:12:19.001Z</time></trkpt><trkpt lat="14.403459387231068" lon="120.91775479914837"><ele>17.0</ele><time>2026-04-14T05:12:20.001Z</time></trkpt><trkpt lat="14.403608057507482" lon="120.91776869064412"><ele>17.0</ele><time>2026-04-14T05:12:21.001Z</time></trkpt><trkpt lat="14.403754273075066" lon="120.91777649387133"><ele>17.0</ele><time>2026-04-14T05:12:22.001Z</time></trkpt><trkpt lat="14.403899379356943" lon="120.91778090231607"><ele>17.0</ele><time>2026-04-14T05:12:23.001Z</time></trkpt><trkpt lat="14.404041468698955" lon="120.91778341225984"><ele>17.0</ele><time>2026-04-14T05:12:24.001Z</time></trkpt><trkpt lat="14.4041858286349" lon="120.91778499702237"><ele>17.0</ele><time>2026-04-14T05:12:25.001Z</time></trkpt><trkpt lat="14.404330039522668" lon="120.91779097935645"><ele>17.0</ele><time>2026-04-14T05:12:26.001Z</time></trkpt><trkpt lat="14.404477693130998" lon="120.91779621491463"><ele>17.0</ele><time>2026-04-14T05:12:27.001Z</time></trkpt><trkpt lat="14.404622831117392" lon="120.91780791975626"><ele>17.0</ele><time>2026-04-14T05:12:28.001Z</time></trkpt><trkpt lat="14.404761498120791" lon="120.91781594238473"><ele>17.0</ele><time>2026-04-14T05:12:29.001Z</time></trkpt><trkpt lat="14.404886840813692" lon="120.91782428712048"><ele>17.0</ele><time>2026-04-14T05:12:30.001Z</time></trkpt><trkpt lat="14.404987125948661" lon="120.91784111159215"><ele>17.0</ele><time>2026-04-14T05:12:31.001Z</time></trkpt><trkpt lat="14.405087126709557" lon="120.91786086562652"><ele>17.0</ele><time>2026-04-14T05:12:32.001Z</time></trkpt><trkpt lat="14.405177821224353" lon="120.91789990751323"><ele>17.0</ele><time>2026-04-14T05:12:33.001Z</time></trkpt><trkpt lat="14.405264302790137" lon="120.91792179750131"><ele>17.0</ele><time>2026-04-14T05:12:34.001Z</time></trkpt><trkpt lat="14.405320423229131" lon="120.91800829132919"><ele>17.0</ele><time>2026-04-14T05:12:35.001Z</time></trkpt><trkpt lat="14.40539362839048" lon="120.91804923438879"><ele>17.5</ele><time>2026-04-14T05:12:36.001Z</time></trkpt><trkpt lat="14.405557111509966" lon="120.91805578012307"><ele>18.0</ele><time>2026-04-14T05:12:38.001Z</time></trkpt><trkpt lat="14.405646224394793" lon="120.91802374655097"><ele>18.5</ele><time>2026-04-14T05:12:39.001Z</time></trkpt><trkpt lat="14.405733393938803" lon="120.91797081690356"><ele>19.0</ele><time>2026-04-14T05:12:40.001Z</time></trkpt><trkpt lat="14.405817104398887" lon="120.91790996430198"><ele>19.0</ele><time>2026-04-14T05:12:41.001Z</time></trkpt><trkpt lat="14.405868032642958" lon="120.91782970472899"><ele>19.0</ele><time>2026-04-14T05:12:42.001Z</time></trkpt><trkpt lat="14.406016029808052" lon="120.91785381731934"><ele>19.0</ele><time>2026-04-14T05:12:43.001Z</time></trkpt><trkpt lat="14.406126737803005" lon="120.91785746109805"><ele>19.0</ele><time>2026-04-14T05:12:44.001Z</time></trkpt><trkpt lat="14.406235805521943" lon="120.91786392635557"><ele>18.5</ele><time>2026-04-14T05:12:45.001Z</time></trkpt><trkpt lat="14.406351248623329" lon="120.91785429573224"><ele>18.0</ele><time>2026-04-14T05:12:46.001Z</time></trkpt><trkpt lat="14.406478488216772" lon="120.9178258276126"><ele>17.5</ele><time>2026-04-14T05:12:47.001Z</time></trkpt><trkpt lat="14.406607177687409" lon="120.91779624502328"><ele>17.0</ele><time>2026-04-14T05:12:48.001Z</time></trkpt><trkpt lat="14.406743828771724" lon="120.91776491482648"><ele>17.0</ele><time>2026-04-14T05:12:49.001Z</time></trkpt><trkpt lat="14.406886417942674" lon="120.91773419146614"><ele>17.0</ele><time>2026-04-14T05:12:50.001Z</time></trkpt><trkpt lat="14.40702963081291" lon="120.91770359606771"><ele>17.0</ele><time>2026-04-14T05:12:51.001Z</time></trkpt><trkpt lat="14.407172479063837" lon="120.91767192785056"><ele>17.0</ele><time>2026-04-14T05:12:52.001Z</time></trkpt><trkpt lat="14.40729378993587" lon="120.91764297924477"><ele>17.25</ele><time>2026-04-14T05:12:53.001Z</time></trkpt><trkpt lat="14.407418390443707" lon="120.91762143015414"><ele>17.5</ele><time>2026-04-14T05:12:54Z</time></trkpt><trkpt lat="14.407533877679068" lon="120.91761865301879"><ele>17.75</ele><time>2026-04-14T05:12:55Z</time></trkpt><trkpt lat="14.407641130783656" lon="120.91764562622467"><ele>18.0</ele><time>2026-04-14T05:12:56Z</time></trkpt><trkpt lat="14.407743642147302" lon="120.91770317931869"><ele>18.0</ele><time>2026-04-14T05:12:57Z</time></trkpt><trkpt lat="14.407821845401177" lon="120.9177706548642"><ele>18.0</ele><time>2026-04-14T05:12:58Z</time></trkpt><trkpt lat="14.40787078673993" lon="120.91784451654537"><ele>18.0</ele><time>2026-04-14T05:12:59Z</time></trkpt><trkpt lat="14.407907710684869" lon="120.91793999215608"><ele>18.0</ele><time>2026-04-14T05:13:00Z</time></trkpt><trkpt lat="14.407916172526122" lon="120.91803855428405"><ele>18.0</ele><time>2026-04-14T05:13:01Z</time></trkpt><trkpt lat="14.407910913693888" lon="120.91815120188132"><ele>18.0</ele><time>2026-04-14T05:13:02Z</time></trkpt><trkpt lat="14.407911886301548" lon="120.91826761965986"><ele>18.0</ele><time>2026-04-14T05:13:03Z</time></trkpt><trkpt lat="14.407916998882852" lon="120.91839504499109"><ele>18.0</ele><time>2026-04-14T05:13:04Z</time></trkpt><trkpt lat="14.40792044298817" lon="120.9185209351569"><ele>18.0</ele><time>2026-04-14T05:13:05Z</time></trkpt><trkpt lat="14.407923640142949" lon="120.91865316752104"><ele>17.5</ele><time>2026-04-14T05:13:06Z</time></trkpt><trkpt lat="14.407930110616526" lon="120.9187897791725"><ele>17.0</ele><time>2026-04-14T05:13:07Z</time></trkpt><trkpt lat="14.407939908397488" lon="120.91893329469423"><ele>16.5</ele><time>2026-04-14T05:13:08Z</time></trkpt><trkpt lat="14.40794507652285" lon="120.9190752157585"><ele>16.0</ele><time>2026-04-14T05:13:09Z</time></trkpt><trkpt lat="14.407950820832372" lon="120.91922288324434"><ele>15.75</ele><time>2026-04-14T05:13:10Z</time></trkpt><trkpt lat="14.407958756440982" lon="120.919371764323"><ele>15.5</ele><time>2026-04-14T05:13:11Z</time></trkpt><trkpt lat="14.407962742279823" lon="120.91952343227825"><ele>15.25</ele><time>2026-04-14T05:13:12Z</time></trkpt><trkpt lat="14.40796781844835" lon="120.9196778719836"><ele>15.0</ele><time>2026-04-14T05:13:13Z</time></trkpt><trkpt lat="14.40797593953699" lon="120.91982037522142"><ele>15.0</ele><time>2026-04-14T05:13:14Z</time></trkpt><trkpt lat="14.407980245029815" lon="120.91995556260528"><ele>15.0</ele><time>2026-04-14T05:13:15Z</time></trkpt><trkpt lat="14.40798818043629" lon="120.9200888693951"><ele>15.0</ele><time>2026-04-14T05:13:16Z</time></trkpt><trkpt lat="14.407993714740794" lon="120.9202154588573"><ele>15.0</ele><time>2026-04-14T05:13:17Z</time></trkpt><trkpt lat="14.408000825025496" lon="120.92033744524875"><ele>15.5</ele><time>2026-04-14T05:13:18Z</time></trkpt><trkpt lat="14.408010900496514" lon="120.92046451971243"><ele>16.0</ele><time>2026-04-14T05:13:19Z</time></trkpt><trkpt lat="14.408027634137264" lon="120.9205854375497"><ele>16.5</ele><time>2026-04-14T05:13:20Z</time></trkpt><trkpt lat="14.408055359160013" lon="120.92070623715951"><ele>17.0</ele><time>2026-04-14T05:13:21Z</time></trkpt><trkpt lat="14.408091574735963" lon="120.920830316824"><ele>17.25</ele><time>2026-04-14T05:13:22Z</time></trkpt><trkpt lat="14.408127445758248" lon="120.92094224284283"><ele>17.5</ele><time>2026-04-14T05:13:23Z</time></trkpt><trkpt lat="14.408158613171832" lon="120.92106271636688"><ele>17.75</ele><time>2026-04-14T05:13:24Z</time></trkpt><trkpt lat="14.40818458964203" lon="120.92117677286886"><ele>18.0</ele><time>2026-04-14T05:13:25Z</time></trkpt><trkpt lat="14.40821550204293" lon="120.92129407087432"><ele>18.0</ele><time>2026-04-14T05:13:26Z</time></trkpt><trkpt lat="14.408237983061946" lon="120.9213955933907"><ele>18.0</ele><time>2026-04-14T05:13:27Z</time></trkpt><trkpt lat="14.408263093978663" lon="120.92150305678324"><ele>18.0</ele><time>2026-04-14T05:13:28Z</time></trkpt><trkpt lat="14.40828422501735" lon="120.92159899766808"><ele>18.0</ele><time>2026-04-14T05:13:29Z</time></trkpt><trkpt lat="14.408301688798826" lon="120.92169455711938"><ele>18.0</ele><time>2026-04-14T05:13:30Z</time></trkpt><trkpt lat="14.408315085169614" lon="120.92178466593674"><ele>17.666666666666668</ele><time>2026-04-14T05:13:31Z</time></trkpt><trkpt lat="14.408332601335065" lon="120.92187421213019"><ele>17.333333333333332</ele><time>2026-04-14T05:13:32Z</time></trkpt><trkpt lat="14.4083498210046" lon="120.92194115424363"><ele>17.0</ele><time>2026-04-14T05:13:33Z</time></trkpt><trkpt lat="14.408368749714251" lon="120.92204327664126"><ele>16.666666666666664</ele><time>2026-04-14T05:13:35Z</time></trkpt><trkpt lat="14.408374516402917" lon="120.92211350984012"><ele>16.333333333333332</ele><time>2026-04-14T05:13:36Z</time></trkpt><trkpt lat="14.408385652481284" lon="120.92223830571866"><ele>16.0</ele><time>2026-04-14T05:13:38Z</time></trkpt><trkpt lat="14.408398706592536" lon="120.92230661422353"><ele>15.999999999999998</ele><time>2026-04-14T05:13:39Z</time></trkpt><trkpt lat="14.408426570067617" lon="120.92237900543829"><ele>16.0</ele><time>2026-04-14T05:13:40Z</time></trkpt><trkpt lat="14.408469583107745" lon="120.92243718602683"><ele>16.0</ele><time>2026-04-14T05:13:41Z</time></trkpt><trkpt lat="14.408522902963636" lon="120.92247890522307"><ele>16.0</ele><time>2026-04-14T05:13:42.001Z</time></trkpt><trkpt lat="14.408592535478803" lon="120.92251212297228"><ele>15.999999999999998</ele><time>2026-04-14T05:13:43.001Z</time></trkpt><trkpt lat="14.408717298702076" lon="120.9225351368842"><ele>16.0</ele><time>2026-04-14T05:13:45.001Z</time></trkpt><trkpt lat="14.408821932747168" lon="120.92257302480668"><ele>15.999999999999998</ele><time>2026-04-14T05:13:47.001Z</time></trkpt><trkpt lat="14.408863708573735" lon="120.92262186130544"><ele>16.0</ele><time>2026-04-14T05:13:48.001Z</time></trkpt><trkpt lat="14.408890964263414" lon="120.92269248067056"><ele>16.0</ele><time>2026-04-14T05:13:49.001Z</time></trkpt><trkpt lat="14.408901519063216" lon="120.92277461204212"><ele>16.0</ele><time>2026-04-14T05:13:50.001Z</time></trkpt><trkpt lat="14.408910378237225" lon="120.92287010208841"><ele>15.999999999999998</ele><time>2026-04-14T05:13:51.001Z</time></trkpt><trkpt lat="14.408923229737223" lon="120.9229743989532"><ele>16.0</ele><time>2026-04-14T05:13:52.001Z</time></trkpt><trkpt lat="14.40894082840823" lon="120.9230915531525"><ele>16.0</ele><time>2026-04-14T05:13:53.001Z</time></trkpt><trkpt lat="14.408963031285825" lon="120.92321518805953"><ele>16.0</ele><time>2026-04-14T05:13:54.001Z</time></trkpt><trkpt lat="14.408987886139982" lon="120.92334160886988"><ele>16.0</ele><time>2026-04-14T05:13:55.001Z</time></trkpt><trkpt lat="14.409013461245223" lon="120.9234725636276"><ele>16.0</ele><time>2026-04-14T05:13:56.001Z</time></trkpt><trkpt lat="14.409037280075061" lon="120.92360286668304"><ele>15.75</ele><time>2026-04-14T05:13:57.001Z</time></trkpt><trkpt lat="14.409058615234828" lon="120.92372958284201"><ele>15.5</ele><time>2026-04-14T05:13:58.001Z</time></trkpt><trkpt lat="14.409081227557891" lon="120.92385722515014"><ele>15.25</ele><time>2026-04-14T05:13:59.001Z</time></trkpt><trkpt lat="14.409100677772221" lon="120.92398485423293"><ele>15.0</ele><time>2026-04-14T05:14:00.001Z</time></trkpt><trkpt lat="14.409125230306284" lon="120.92412507613524"><ele>15.4</ele><time>2026-04-14T05:14:01.001Z</time></trkpt><trkpt lat="14.409144764689172" lon="120.9242503108946"><ele>15.8</ele><time>2026-04-14T05:14:02.001Z</time></trkpt><trkpt lat="14.409164430830295" lon="120.92436103422078"><ele>16.2</ele><time>2026-04-14T05:14:03.001Z</time></trkpt><trkpt lat="14.409181545176907" lon="120.92446157066233"><ele>16.6</ele><time>2026-04-14T05:14:04.001Z</time></trkpt><trkpt lat="14.409198161203221" lon="120.92453926855023"><ele>17.0</ele><time>2026-04-14T05:14:05.001Z</time></trkpt><trkpt lat="14.409216166771165" lon="120.92462695395545"><ele>17.0</ele><time>2026-04-14T05:14:07.001Z</time></trkpt><trkpt lat="14.409270631622272" lon="120.92469351782057"><ele>17.0</ele><time>2026-04-14T05:14:09.001Z</time></trkpt><trkpt lat="14.40935033317213" lon="120.92471508696026"><ele>17.0</ele><time>2026-04-14T05:14:11.001Z</time></trkpt><trkpt lat="14.409445855217784" lon="120.92469531170603"><ele>17.0</ele><time>2026-04-14T05:14:13.001Z</time></trkpt><trkpt lat="14.409560066001443" lon="120.92463553536014"><ele>17.0</ele><time>2026-04-14T05:14:15.001Z</time></trkpt><trkpt lat="14.409631008873767" lon="120.92462563833989"><ele>17.333333333333336</ele><time>2026-04-14T05:14:16.001Z</time></trkpt><trkpt lat="14.409703016793383" lon="120.9245813323083"><ele>17.666666666666668</ele><time>2026-04-14T05:14:17.001Z</time></trkpt><trkpt lat="14.409777324134533" lon="120.92455276781655"><ele>18.0</ele><time>2026-04-14T05:14:18.001Z</time></trkpt><trkpt lat="14.409848877012923" lon="120.92452301754041"><ele>18.333333333333332</ele><time>2026-04-14T05:14:19.001Z</time></trkpt><trkpt lat="14.40993648515794" lon="120.92450253343563"><ele>18.666666666666664</ele><time>2026-04-14T05:14:20.001Z</time></trkpt><trkpt lat="14.410018494299525" lon="120.9244686213631"><ele>19.0</ele><time>2026-04-14T05:14:21.001Z</time></trkpt><trkpt lat="14.410108359980716" lon="120.9244314604237"><ele>19.0</ele><time>2026-04-14T05:14:22.001Z</time></trkpt><trkpt lat="14.410193388424297" lon="120.92439547571598"><ele>19.0</ele><time>2026-04-14T05:14:23.001Z</time></trkpt><trkpt lat="14.410289762216538" lon="120.92435493349123"><ele>19.0</ele><time>2026-04-14T05:14:24.001Z</time></trkpt><trkpt lat="14.410381928032201" lon="120.92431616147427"><ele>19.0</ele><time>2026-04-14T05:14:25.001Z</time></trkpt><trkpt lat="14.410469283250697" lon="120.92427688577699"><ele>19.0</ele><time>2026-04-14T05:14:26.001Z</time></trkpt><trkpt lat="14.410563361577507" lon="120.92423384340029"><ele>19.5</ele><time>2026-04-14T05:14:27.001Z</time></trkpt><trkpt lat="14.410657663373208" lon="120.92417530106286"><ele>20.0</ele><time>2026-04-14T05:14:28.001Z</time></trkpt><trkpt lat="14.410763804668344" lon="120.92413682596738"><ele>20.5</ele><time>2026-04-14T05:14:29.001Z</time></trkpt><trkpt lat="14.41087006223296" lon="120.92410157786752"><ele>21.0</ele><time>2026-04-14T05:14:30.001Z</time></trkpt><trkpt lat="14.410983512343574" lon="120.9240695103834"><ele>21.0</ele><time>2026-04-14T05:14:31.001Z</time></trkpt><trkpt lat="14.411099924898373" lon="120.92405275158248"><ele>21.0</ele><time>2026-04-14T05:14:32.001Z</time></trkpt><trkpt lat="14.411217549928923" lon="120.92404792403977"><ele>21.0</ele><time>2026-04-14T05:14:33.001Z</time></trkpt><trkpt lat="14.411342874602305" lon="120.92405102334357"><ele>21.0</ele><time>2026-04-14T05:14:34.001Z</time></trkpt><trkpt lat="14.411465958254752" lon="120.92405142149397"><ele>20.5</ele><time>2026-04-14T05:14:35.001Z</time></trkpt><trkpt lat="14.411585966365923" lon="120.92405272701727"><ele>20.0</ele><time>2026-04-14T05:14:36.001Z</time></trkpt><trkpt lat="14.41171506758653" lon="120.92405651876126"><ele>19.5</ele><time>2026-04-14T05:14:37.001Z</time></trkpt><trkpt lat="14.411837776014533" lon="120.92406313540903"><ele>19.0</ele><time>2026-04-14T05:14:38.001Z</time></trkpt><trkpt lat="14.411949900497179" lon="120.92407158714617"><ele>19.0</ele><time>2026-04-14T05:14:39.001Z</time></trkpt><trkpt lat="14.412053555005464" lon="120.92408261913903"><ele>19.0</ele><time>2026-04-14T05:14:40.001Z</time></trkpt><trkpt lat="14.412155791595412" lon="120.92411410884657"><ele>19.0</ele><time>2026-04-14T05:14:41.001Z</time></trkpt><trkpt lat="14.412249267563695" lon="120.924128469376"><ele>19.0</ele><time>2026-04-14T05:14:42.001Z</time></trkpt><trkpt lat="14.412329297006414" lon="120.92413959004465"><ele>19.0</ele><time>2026-04-14T05:14:43.001Z</time></trkpt><trkpt lat="14.412397277144104" lon="120.92414903636954"><ele>18.5</ele><time>2026-04-14T05:14:44.001Z</time></trkpt><trkpt lat="14.412463203384682" lon="120.92415819728849"><ele>18.0</ele><time>2026-04-14T05:14:45.001Z</time></trkpt><trkpt lat="14.412566811244265" lon="120.9241725943426"><ele>17.5</ele><time>2026-04-14T05:14:47.001Z</time></trkpt><trkpt lat="14.412659451680183" lon="120.9241939441562"><ele>17.0</ele><time>2026-04-14T05:14:49.001Z</time></trkpt><trkpt lat="14.41272239961218" lon="120.92421217100892"><ele>16.5</ele><time>2026-04-14T05:14:50.001Z</time></trkpt><trkpt lat="14.412786001998834" lon="120.92423243414672"><ele>16.0</ele><time>2026-04-14T05:14:51.001Z</time></trkpt><trkpt lat="14.412852858847385" lon="120.92425229946559"><ele>16.0</ele><time>2026-04-14T05:14:52.001Z</time></trkpt><trkpt lat="14.412915228728123" lon="120.92426944206136"><ele>16.0</ele><time>2026-04-14T05:14:53.001Z</time></trkpt><trkpt lat="14.413041964105753" lon="120.92429369985159"><ele>16.0</ele><time>2026-04-14T05:14:55.001Z</time></trkpt><trkpt lat="14.413108350457819" lon="120.9242957554531"><ele>16.0</ele><time>2026-04-14T05:14:56.001Z</time></trkpt><trkpt lat="14.41323107496715" lon="120.92431406618215"><ele>16.0</ele><time>2026-04-14T05:14:58.001Z</time></trkpt><trkpt lat="14.413304393023848" lon="120.92432095342564"><ele>15.8</ele><time>2026-04-14T05:14:59.001Z</time></trkpt><trkpt lat="14.413401622768305" lon="120.92432584759193"><ele>15.600000000000001</ele><time>2026-04-14T05:15:00Z</time></trkpt><trkpt lat="14.413507992050352" lon="120.9243316023614"><ele>15.4</ele><time>2026-04-14T05:15:01Z</time></trkpt><trkpt lat="14.413625134729719" lon="120.9243282515399"><ele>15.2</ele><time>2026-04-14T05:15:02Z</time></trkpt><trkpt lat="14.41374183153322" lon="120.92431207718049"><ele>15.0</ele><time>2026-04-14T05:15:03Z</time></trkpt><trkpt lat="14.4138700225719" lon="120.92429430968137"><ele>14.75</ele><time>2026-04-14T05:15:04Z</time></trkpt><trkpt lat="14.414006029328341" lon="120.92425772751875"><ele>14.5</ele><time>2026-04-14T05:15:05Z</time></trkpt><trkpt lat="14.414138846811806" lon="120.92422521663458"><ele>14.25</ele><time>2026-04-14T05:15:06Z</time></trkpt><trkpt lat="14.41427755631794" lon="120.9241911070121"><ele>14.0</ele><time>2026-04-14T05:15:07Z</time></trkpt><trkpt lat="14.414417230802227" lon="120.92415699776232"><ele>14.0</ele><time>2026-04-14T05:15:08Z</time></trkpt><trkpt lat="14.41455975390056" lon="120.92412431600837"><ele>14.0</ele><time>2026-04-14T05:15:09Z</time></trkpt><trkpt lat="14.41471037728718" lon="120.92409177101925"><ele>14.0</ele><time>2026-04-14T05:15:10Z</time></trkpt><trkpt lat="14.4148587159225" lon="120.92405971969028"><ele>14.0</ele><time>2026-04-14T05:15:11Z</time></trkpt><trkpt lat="14.415003268246647" lon="120.92402969179905"><ele>14.0</ele><time>2026-04-14T05:15:12Z</time></trkpt><trkpt lat="14.415133729377054" lon="120.92400304619613"><ele>14.0</ele><time>2026-04-14T05:15:13Z</time></trkpt><trkpt lat="14.415260901773813" lon="120.92399096013685"><ele>14.0</ele><time>2026-04-14T05:15:14Z</time></trkpt><trkpt lat="14.415381594770679" lon="120.92398051381915"><ele>13.75</ele><time>2026-04-14T05:15:15Z</time></trkpt><trkpt lat="14.415501840426098" lon="120.92396975341154"><ele>13.5</ele><time>2026-04-14T05:15:16Z</time></trkpt><trkpt lat="14.415622068053436" lon="120.92395899461972"><ele>13.25</ele><time>2026-04-14T05:15:17Z</time></trkpt><trkpt lat="14.41574701992838" lon="120.9239477060791"><ele>13.0</ele><time>2026-04-14T05:15:18Z</time></trkpt><trkpt lat="14.415871313693888" lon="120.92393608226064"><ele>13.0</ele><time>2026-04-14T05:15:19Z</time></trkpt><trkpt lat="14.415999287494806" lon="120.92392426397045"><ele>13.0</ele><time>2026-04-14T05:15:20Z</time></trkpt><trkpt lat="14.416128430845282" lon="120.92391258197155"><ele>13.0</ele><time>2026-04-14T05:15:21Z</time></trkpt><trkpt lat="14.416253033553621" lon="120.92390061779035"><ele>13.0</ele><time>2026-04-14T05:15:22Z</time></trkpt><trkpt lat="14.41638581532823" lon="120.92387158824094"><ele>13.0</ele><time>2026-04-14T05:15:23Z</time></trkpt><trkpt lat="14.416519195706407" lon="120.92386204648501"><ele>13.0</ele><time>2026-04-14T05:15:24Z</time></trkpt><trkpt lat="14.4166431117018" lon="120.92385478950037"><ele>13.0</ele><time>2026-04-14T05:15:25Z</time></trkpt><trkpt lat="14.4167798472358" lon="120.92383938404592"><ele>13.0</ele><time>2026-04-14T05:15:26Z</time></trkpt><trkpt lat="14.416902097894353" lon="120.92382896997229"><ele>13.0</ele><time>2026-04-14T05:15:27Z</time></trkpt><trkpt lat="14.41702893686964" lon="120.92381391928865"><ele>13.0</ele><time>2026-04-14T05:15:28Z</time></trkpt><trkpt lat="14.417150554535837" lon="120.92380312257772"><ele>13.0</ele><time>2026-04-14T05:15:29Z</time></trkpt><trkpt lat="14.417279213645754" lon="120.92380965379198"><ele>13.0</ele><time>2026-04-14T05:15:30Z</time></trkpt><trkpt lat="14.417393366826166" lon="120.9238032114836"><ele>13.25</ele><time>2026-04-14T05:15:31Z</time></trkpt><trkpt lat="14.41750960389341" lon="120.92379665157029"><ele>13.5</ele><time>2026-04-14T05:15:32Z</time></trkpt><trkpt lat="14.417618395569122" lon="120.92377441765098"><ele>13.75</ele><time>2026-04-14T05:15:33Z</time></trkpt><trkpt lat="14.417735911956946" lon="120.92378363640924"><ele>14.0</ele><time>2026-04-14T05:15:34Z</time></trkpt><trkpt lat="14.417844563610153" lon="120.9237772256275"><ele>14.0</ele><time>2026-04-14T05:15:35Z</time></trkpt><trkpt lat="14.417947588707223" lon="120.92377089747907"><ele>13.999999999999998</ele><time>2026-04-14T05:15:36Z</time></trkpt><trkpt lat="14.418057285507537" lon="120.9237620117681"><ele>13.999999999999998</ele><time>2026-04-14T05:15:37Z</time></trkpt><trkpt lat="14.418171360211232" lon="120.92375277143599"><ele>14.0</ele><time>2026-04-14T05:15:38Z</time></trkpt><trkpt lat="14.418278383498096" lon="120.92374410228656"><ele>14.0</ele><time>2026-04-14T05:15:39Z</time></trkpt><trkpt lat="14.418392650507997" lon="120.92373487821314"><ele>14.0</ele><time>2026-04-14T05:15:40Z</time></trkpt><trkpt lat="14.418510940459402" lon="120.92372569868276"><ele>13.999999999999998</ele><time>2026-04-14T05:15:41Z</time></trkpt><trkpt lat="14.418610161432602" lon="120.9237179989426"><ele>13.999999999999998</ele><time>2026-04-14T05:15:42Z</time></trkpt><trkpt lat="14.418703106610124" lon="120.9237107862164"><ele>14.0</ele><time>2026-04-14T05:15:43Z</time></trkpt><trkpt lat="14.418789886666044" lon="120.92370401394648"><ele>14.0</ele><time>2026-04-14T05:15:44Z</time></trkpt><trkpt lat="14.418866777172235" lon="120.92368522918474"><ele>13.833333333333334</ele><time>2026-04-14T05:15:45Z</time></trkpt><trkpt lat="14.418935063989853" lon="120.92368050502884"><ele>13.666666666666668</ele><time>2026-04-14T05:15:46Z</time></trkpt><trkpt lat="14.419004957905871" lon="120.92367902290101"><ele>13.5</ele><time>2026-04-14T05:15:47Z</time></trkpt><trkpt lat="14.419087087289185" lon="120.92367676499525"><ele>13.333333333333332</ele><time>2026-04-14T05:15:48Z</time></trkpt><trkpt lat="14.41916711476959" lon="120.92367648052557"><ele>13.166666666666666</ele><time>2026-04-14T05:15:49Z</time></trkpt><trkpt lat="14.419252184137049" lon="120.9236857474555"><ele>13.0</ele><time>2026-04-14T05:15:50Z</time></trkpt><trkpt lat="14.419328788715978" lon="120.92366499552529"><ele>13.0</ele><time>2026-04-14T05:15:51.001Z</time></trkpt><trkpt lat="14.41947035041849" lon="120.92366086038908"><ele>13.0</ele><time>2026-04-14T05:15:53.001Z</time></trkpt><trkpt lat="14.419542154474689" lon="120.92365474743389"><ele>13.0</ele><time>2026-04-14T05:15:54.001Z</time></trkpt><trkpt lat="14.419623610736018" lon="120.92364352514943"><ele>13.0</ele><time>2026-04-14T05:15:55.001Z</time></trkpt><trkpt lat="14.419705432737445" lon="120.92364115636414"><ele>13.0</ele><time>2026-04-14T05:15:56.001Z</time></trkpt><trkpt lat="14.419793549808308" lon="120.92363140211235"><ele>12.600000000000001</ele><time>2026-04-14T05:15:57.001Z</time></trkpt><trkpt lat="14.419884734784642" lon="120.92362271930486"><ele>12.200000000000001</ele><time>2026-04-14T05:15:58.001Z</time></trkpt><trkpt lat="14.419979625142586" lon="120.9236113569267"><ele>11.8</ele><time>2026-04-14T05:15:59.001Z</time></trkpt><trkpt lat="14.420079871386791" lon="120.92360580505395"><ele>11.4</ele><time>2026-04-14T05:16:00.001Z</time></trkpt><trkpt lat="14.420151594887956" lon="120.92360338798518"><ele>11.0</ele><time>2026-04-14T05:16:01.001Z</time></trkpt><trkpt lat="14.42024683615822" lon="120.92359283851805"><ele>11.0</ele><time>2026-04-14T05:16:03.001Z</time></trkpt><trkpt lat="14.420312290063839" lon="120.92358049711038"><ele>11.0</ele><time>2026-04-14T05:16:05.001Z</time></trkpt><trkpt lat="14.42042276482104" lon="120.92355680056006"><ele>11.0</ele><time>2026-04-14T05:16:07.001Z</time></trkpt><trkpt lat="14.42048863646861" lon="120.9235527855156"><ele>11.0</ele><time>2026-04-14T05:16:08.001Z</time></trkpt><trkpt lat="14.42058194502212" lon="120.92356534649566"><ele>11.0</ele><time>2026-04-14T05:16:10.001Z</time></trkpt><trkpt lat="14.420651906353921" lon="120.92356005757598"><ele>11.0</ele><time>2026-04-14T05:16:12.001Z</time></trkpt><trkpt lat="14.420727390463831" lon="120.92354138317187"><ele>10.8</ele><time>2026-04-14T05:16:14.001Z</time></trkpt><trkpt lat="14.420811639580274" lon="120.92353855390833"><ele>10.600000000000001</ele><time>2026-04-14T05:16:16.001Z</time></trkpt><trkpt lat="14.420911473684184" lon="120.92353737541258"><ele>10.4</ele><time>2026-04-14T05:16:18.001Z</time></trkpt><trkpt lat="14.4210199816015" lon="120.9235350874368"><ele>10.2</ele><time>2026-04-14T05:16:20.001Z</time></trkpt><trkpt lat="14.42112778300555" lon="120.92353476430247"><ele>10.0</ele><time>2026-04-14T05:16:22.001Z</time></trkpt><trkpt lat="14.421242184305422" lon="120.92354008424444"><ele>10.0</ele><time>2026-04-14T05:16:24.001Z</time></trkpt><trkpt lat="14.421324269255043" lon="120.92353837000294"><ele>10.0</ele><time>2026-04-14T05:16:26.001Z</time></trkpt><trkpt lat="14.421438577791102" lon="120.92353682698676"><ele>10.0</ele><time>2026-04-14T05:16:28.001Z</time></trkpt><trkpt lat="14.421524447112331" lon="120.92354879045034"><ele>10.0</ele><time>2026-04-14T05:16:29.001Z</time></trkpt><trkpt lat="14.421629419008816" lon="120.9235491383054"><ele>10.0</ele><time>2026-04-14T05:16:30.001Z</time></trkpt><trkpt lat="14.421738660128582" lon="120.92354465111087"><ele>10.0</ele><time>2026-04-14T05:16:31.001Z</time></trkpt><trkpt lat="14.421842083162803" lon="120.92352202676477"><ele>10.0</ele><time>2026-04-14T05:16:32.001Z</time></trkpt><trkpt lat="14.421949706744911" lon="120.92351728648666"><ele>10.0</ele><time>2026-04-14T05:16:33.001Z</time></trkpt><trkpt lat="14.422057045063418" lon="120.92350749183763"><ele>10.0</ele><time>2026-04-14T05:16:34.001Z</time></trkpt><trkpt lat="14.42215913801324" lon="120.92349539472647"><ele>10.0</ele><time>2026-04-14T05:16:35.001Z</time></trkpt><trkpt lat="14.422260562518373" lon="120.92347699895404"><ele>10.0</ele><time>2026-04-14T05:16:36.001Z</time></trkpt><trkpt lat="14.422367981966309" lon="120.92345451092298"><ele>10.0</ele><time>2026-04-14T05:16:37.001Z</time></trkpt><trkpt lat="14.422479847378524" lon="120.92343516023098"><ele>10.0</ele><time>2026-04-14T05:16:38.001Z</time></trkpt><trkpt lat="14.422587749996335" lon="120.92341469263283"><ele>10.0</ele><time>2026-04-14T05:16:39.001Z</time></trkpt><trkpt lat="14.422691021709396" lon="120.92339697249679"><ele>10.0</ele><time>2026-04-14T05:16:40.001Z</time></trkpt><trkpt lat="14.422796203501887" lon="120.92338081718592"><ele>10.2</ele><time>2026-04-14T05:16:41.001Z</time></trkpt><trkpt lat="14.422885900177484" lon="120.92336997057328"><ele>10.4</ele><time>2026-04-14T05:16:42.001Z</time></trkpt><trkpt lat="14.422977369397623" lon="120.9233562218886"><ele>10.600000000000001</ele><time>2026-04-14T05:16:43.001Z</time></trkpt><trkpt lat="14.423066702421206" lon="120.92334441199735"><ele>10.8</ele><time>2026-04-14T05:16:44.001Z</time></trkpt><trkpt lat="14.423172935700403" lon="120.9233256425458"><ele>11.0</ele><time>2026-04-14T05:16:45.001Z</time></trkpt><trkpt lat="14.423249694513604" lon="120.92331968591196"><ele>11.0</ele><time>2026-04-14T05:16:46.001Z</time></trkpt><trkpt lat="14.423336990340182" lon="120.92331011820659"><ele>11.0</ele><time>2026-04-14T05:16:47.001Z</time></trkpt><trkpt lat="14.423431689287522" lon="120.92330040510504"><ele>11.0</ele><time>2026-04-14T05:16:48.001Z</time></trkpt><trkpt lat="14.423531918712413" lon="120.92328633283257"><ele>11.0</ele><time>2026-04-14T05:16:49.001Z</time></trkpt><trkpt lat="14.423637934037894" lon="120.9232754552251"><ele>11.0</ele><time>2026-04-14T05:16:50.001Z</time></trkpt><trkpt lat="14.423741630375693" lon="120.923268859453"><ele>11.25</ele><time>2026-04-14T05:16:51.001Z</time></trkpt><trkpt lat="14.423851128955626" lon="120.92326070594953"><ele>11.5</ele><time>2026-04-14T05:16:52.001Z</time></trkpt><trkpt lat="14.423964404336452" lon="120.92325043278895"><ele>11.75</ele><time>2026-04-14T05:16:53.001Z</time></trkpt><trkpt lat="14.424075567644868" lon="120.92324595168981"><ele>12.0</ele><time>2026-04-14T05:16:54.001Z</time></trkpt><trkpt lat="14.424194632770874" lon="120.92324033884766"><ele>12.0</ele><time>2026-04-14T05:16:55.001Z</time></trkpt><trkpt lat="14.424311357601592" lon="120.92324011186697"><ele>12.0</ele><time>2026-04-14T05:16:56.001Z</time></trkpt><trkpt lat="14.424444242682783" lon="120.92323296734435"><ele>12.0</ele><time>2026-04-14T05:16:57.001Z</time></trkpt><trkpt lat="14.424563554134295" lon="120.92323458228618"><ele>12.0</ele><time>2026-04-14T05:16:58.001Z</time></trkpt><trkpt lat="14.424689963511643" lon="120.92325102700302"><ele>12.0</ele><time>2026-04-14T05:16:59.001Z</time></trkpt><trkpt lat="14.424827428673147" lon="120.92325197291918"><ele>12.0</ele><time>2026-04-14T05:17:00.001Z</time></trkpt><trkpt lat="14.424961591128623" lon="120.9232528961077"><ele>12.0</ele><time>2026-04-14T05:17:01.001Z</time></trkpt><trkpt lat="14.425095986475853" lon="120.92323690603162"><ele>12.0</ele><time>2026-04-14T05:17:02.001Z</time></trkpt><trkpt lat="14.425222994613701" lon="120.92325469485898"><ele>12.0</ele><time>2026-04-14T05:17:03.001Z</time></trkpt><trkpt lat="14.425336663068753" lon="120.92323950654887"><ele>12.0</ele><time>2026-04-14T05:17:04.001Z</time></trkpt><trkpt lat="14.425449125172888" lon="120.92325625089235"><ele>12.0</ele><time>2026-04-14T05:17:05.001Z</time></trkpt><trkpt lat="14.425548642344088" lon="120.92325705070724"><ele>12.0</ele><time>2026-04-14T05:17:06Z</time></trkpt><trkpt lat="14.425632948788241" lon="120.92325800109643"><ele>12.0</ele><time>2026-04-14T05:17:07Z</time></trkpt><trkpt lat="14.42572065254688" lon="120.92325898978324"><ele>11.6</ele><time>2026-04-14T05:17:08Z</time></trkpt><trkpt lat="14.425798694190183" lon="120.92325986954901"><ele>11.2</ele><time>2026-04-14T05:17:09Z</time></trkpt><trkpt lat="14.425888699899758" lon="120.92326088418616"><ele>10.8</ele><time>2026-04-14T05:17:10Z</time></trkpt><trkpt lat="14.425993999754203" lon="120.92325895940817"><ele>10.4</ele><time>2026-04-14T05:17:11Z</time></trkpt><trkpt lat="14.42610051605256" lon="120.92325708105692"><ele>10.0</ele><time>2026-04-14T05:17:12Z</time></trkpt><trkpt lat="14.426211004697748" lon="120.92325562180682"><ele>10.0</ele><time>2026-04-14T05:17:13Z</time></trkpt><trkpt lat="14.4263154578954" lon="120.92325433543718"><ele>10.0</ele><time>2026-04-14T05:17:14Z</time></trkpt><trkpt lat="14.426402265077124" lon="120.92325326638398"><ele>10.0</ele><time>2026-04-14T05:17:15Z</time></trkpt><trkpt lat="14.426504065967036" lon="120.92325201268714"><ele>10.0</ele><time>2026-04-14T05:17:16Z</time></trkpt><trkpt lat="14.426602546205398" lon="120.92325153091456"><ele>10.0</ele><time>2026-04-14T05:17:17Z</time></trkpt><trkpt lat="14.426692774293858" lon="120.92325041594495"><ele>10.0</ele><time>2026-04-14T05:17:18Z</time></trkpt><trkpt lat="14.42679094469793" lon="120.92317030896994"><ele>10.0</ele><time>2026-04-14T05:17:19Z</time></trkpt><trkpt lat="14.426886478310866" lon="120.92312421647142"><ele>10.0</ele><time>2026-04-14T05:17:20Z</time></trkpt><trkpt lat="14.42697212736765" lon="120.92305446304917"><ele>10.0</ele><time>2026-04-14T05:17:21Z</time></trkpt><trkpt lat="14.427066284487049" lon="120.92299719195711"><ele>10.0</ele><time>2026-04-14T05:17:22Z</time></trkpt><trkpt lat="14.427156525296157" lon="120.92294206053987"><ele>10.2</ele><time>2026-04-14T05:17:23Z</time></trkpt><trkpt lat="14.427240405994603" lon="120.92289073284654"><ele>10.4</ele><time>2026-04-14T05:17:24Z</time></trkpt><trkpt lat="14.427326434343943" lon="120.92283809097513"><ele>10.600000000000001</ele><time>2026-04-14T05:17:25Z</time></trkpt><trkpt lat="14.427416519827792" lon="120.92278296649116"><ele>10.8</ele><time>2026-04-14T05:17:26Z</time></trkpt><trkpt lat="14.42750737593125" lon="120.92272737045431"><ele>11.0</ele><time>2026-04-14T05:17:27Z</time></trkpt><trkpt lat="14.427586599757277" lon="120.92267889236123"><ele>11.0</ele><time>2026-04-14T05:17:28Z</time></trkpt><trkpt lat="14.427675239492826" lon="120.92262465256466"><ele>11.0</ele><time>2026-04-14T05:17:29Z</time></trkpt><trkpt lat="14.427772765217249" lon="120.92258599465642"><ele>11.0</ele><time>2026-04-14T05:17:30Z</time></trkpt><trkpt lat="14.427858895709498" lon="120.9225304235282"><ele>11.0</ele><time>2026-04-14T05:17:31Z</time></trkpt><trkpt lat="14.427947699712966" lon="120.92247938075208"><ele>11.0</ele><time>2026-04-14T05:17:32Z</time></trkpt><trkpt lat="14.428035216965485" lon="120.92241843472786"><ele>10.833333333333332</ele><time>2026-04-14T05:17:33Z</time></trkpt><trkpt lat="14.428110433258047" lon="120.92237246613601"><ele>10.666666666666666</ele><time>2026-04-14T05:17:34Z</time></trkpt><trkpt lat="14.428173849899217" lon="120.92234128345702"><ele>10.5</ele><time>2026-04-14T05:17:35Z</time></trkpt><trkpt lat="14.428239627493953" lon="120.92231002511512"><ele>10.333333333333334</ele><time>2026-04-14T05:17:36Z</time></trkpt><trkpt lat="14.428309753700177" lon="120.92229351554315"><ele>10.166666666666668</ele><time>2026-04-14T05:17:37Z</time></trkpt><trkpt lat="14.42842150579828" lon="120.9223011794521"><ele>10.0</ele><time>2026-04-14T05:17:39Z</time></trkpt><trkpt lat="14.428493852761807" lon="120.92233330587241"><ele>10.0</ele><time>2026-04-14T05:17:42Z</time></trkpt><trkpt lat="14.428559329096892" lon="120.92234847007141"><ele>10.0</ele><time>2026-04-14T05:17:44Z</time></trkpt><trkpt lat="14.42859075438794" lon="120.92242926586552"><ele>10.0</ele><time>2026-04-14T05:17:48Z</time></trkpt><trkpt lat="14.42857594715078" lon="120.92257084220498"><ele>10.0</ele><time>2026-04-14T05:17:50Z</time></trkpt><trkpt lat="14.4285693744146" lon="120.92264121689462"><ele>10.0</ele><time>2026-04-14T05:17:51Z</time></trkpt><trkpt lat="14.428567655556732" lon="120.92272326823158"><ele>10.0</ele><time>2026-04-14T05:17:52Z</time></trkpt><trkpt lat="14.428566117948343" lon="120.92279911242282"><ele>10.333333333333334</ele><time>2026-04-14T05:17:53Z</time></trkpt><trkpt lat="14.428566017521758" lon="120.92287895996327"><ele>10.666666666666668</ele><time>2026-04-14T05:17:54Z</time></trkpt><trkpt lat="14.428561357480529" lon="120.92296145180697"><ele>11.0</ele><time>2026-04-14T05:17:55Z</time></trkpt><trkpt lat="14.428555878844373" lon="120.92305145820751"><ele>11.333333333333334</ele><time>2026-04-14T05:17:56Z</time></trkpt><trkpt lat="14.428551667743593" lon="120.92313556916041"><ele>11.666666666666666</ele><time>2026-04-14T05:17:57Z</time></trkpt><trkpt lat="14.428545917458685" lon="120.92321702467576"><ele>12.0</ele><time>2026-04-14T05:17:58Z</time></trkpt><trkpt lat="14.42854775341606" lon="120.92330744917798"><ele>12.0</ele><time>2026-04-14T05:17:59Z</time></trkpt><trkpt lat="14.428531158085763" lon="120.92339640725133"><ele>12.0</ele><time>2026-04-14T05:18:00Z</time></trkpt><trkpt lat="14.428527601094943" lon="120.92348686104427"><ele>12.0</ele><time>2026-04-14T05:18:01Z</time></trkpt><trkpt lat="14.428523936210134" lon="120.92358005855986"><ele>12.0</ele><time>2026-04-14T05:18:02Z</time></trkpt><trkpt lat="14.428537653067835" lon="120.92366845595832"><ele>12.0</ele><time>2026-04-14T05:18:03.001Z</time></trkpt><trkpt lat="14.428537001248985" lon="120.92374769292604"><ele>12.0</ele><time>2026-04-14T05:18:04.001Z</time></trkpt><trkpt lat="14.428519570332321" lon="120.92382622661985"><ele>11.666666666666666</ele><time>2026-04-14T05:18:05.001Z</time></trkpt><trkpt lat="14.428534725308559" lon="120.92389673407224"><ele>11.333333333333334</ele><time>2026-04-14T05:18:06.001Z</time></trkpt><trkpt lat="14.428531943152171" lon="120.92396447980673"><ele>11.0</ele><time>2026-04-14T05:18:07.001Z</time></trkpt><trkpt lat="14.428515390664632" lon="120.92404292631173"><ele>10.666666666666668</ele><time>2026-04-14T05:18:08.001Z</time></trkpt><trkpt lat="14.428513995000493" lon="120.92411528621456"><ele>10.333333333333334</ele><time>2026-04-14T05:18:09.001Z</time></trkpt><trkpt lat="14.428533285181853" lon="120.92423766932978"><ele>10.0</ele><time>2026-04-14T05:18:11.001Z</time></trkpt><trkpt lat="14.428536854574547" lon="120.92436881418345"><ele>10.0</ele><time>2026-04-14T05:18:13.001Z</time></trkpt><trkpt lat="14.428534652096786" lon="120.92449883545318"><ele>10.0</ele><time>2026-04-14T05:18:15.001Z</time></trkpt><trkpt lat="14.428540656254746" lon="120.92460447841354"><ele>10.0</ele><time>2026-04-14T05:18:17.001Z</time></trkpt><trkpt lat="14.428554325949777" lon="120.92470624311541"><ele>10.0</ele><time>2026-04-14T05:18:19.001Z</time></trkpt><trkpt lat="14.428566024106095" lon="120.9248014234084"><ele>10.0</ele><time>2026-04-14T05:18:21.001Z</time></trkpt><trkpt lat="14.42857145624" lon="120.92490449137902"><ele>10.0</ele><time>2026-04-14T05:18:23.001Z</time></trkpt><trkpt lat="14.428583412601206" lon="120.92501722782718"><ele>10.0</ele><time>2026-04-14T05:18:25.001Z</time></trkpt><trkpt lat="14.428593508146205" lon="120.9251365055586"><ele>10.0</ele><time>2026-04-14T05:18:27.001Z</time></trkpt><trkpt lat="14.428601573014372" lon="120.92526415215899"><ele>10.0</ele><time>2026-04-14T05:18:29.001Z</time></trkpt><trkpt lat="14.428605984668947" lon="120.92532945839675"><ele>10.0</ele><time>2026-04-14T05:18:30.001Z</time></trkpt><trkpt lat="14.428617055919483" lon="120.92545604764291"><ele>10.0</ele><time>2026-04-14T05:18:32.001Z</time></trkpt><trkpt lat="14.428620146561636" lon="120.9255210835631"><ele>10.0</ele><time>2026-04-14T05:18:33.001Z</time></trkpt><trkpt lat="14.428614862485974" lon="120.92563942815744"><ele>10.0</ele><time>2026-04-14T05:18:35.001Z</time></trkpt><trkpt lat="14.428620713554778" lon="120.92573493491086"><ele>10.0</ele><time>2026-04-14T05:18:37.001Z</time></trkpt><trkpt lat="14.42862616034956" lon="120.92583680045308"><ele>10.0</ele><time>2026-04-14T05:18:39.001Z</time></trkpt><trkpt lat="14.428633770590114" lon="120.92595789554547"><ele>10.2</ele><time>2026-04-14T05:18:41.001Z</time></trkpt><trkpt lat="14.428640850360274" lon="120.92603125738646"><ele>10.4</ele><time>2026-04-14T05:18:42.001Z</time></trkpt><trkpt lat="14.428653389196944" lon="120.92616118706333"><ele>10.600000000000001</ele><time>2026-04-14T05:18:44.001Z</time></trkpt><trkpt lat="14.428659656871261" lon="120.92622613383367"><ele>10.8</ele><time>2026-04-14T05:18:45.001Z</time></trkpt><trkpt lat="14.428671244003269" lon="120.92635285889124"><ele>11.0</ele><time>2026-04-14T05:18:47.001Z</time></trkpt><trkpt lat="14.428677367317158" lon="120.92642094804067"><ele>11.0</ele><time>2026-04-14T05:18:48.001Z</time></trkpt><trkpt lat="14.428683353595906" lon="120.92648751341943"><ele>11.0</ele><time>2026-04-14T05:18:49.001Z</time></trkpt><trkpt lat="14.428688351244007" lon="120.9265527631844"><ele>11.0</ele><time>2026-04-14T05:18:50.001Z</time></trkpt><trkpt lat="14.428695410842012" lon="120.92665838563786"><ele>11.0</ele><time>2026-04-14T05:18:52.001Z</time></trkpt><trkpt lat="14.428702197768374" lon="120.92675766212774"><ele>11.0</ele><time>2026-04-14T05:18:54.001Z</time></trkpt><trkpt lat="14.428707498136363" lon="120.92683495431227"><ele>11.0</ele><time>2026-04-14T05:18:56.001Z</time></trkpt><trkpt lat="14.42871640780678" lon="120.92693003745244"><ele>10.8</ele><time>2026-04-14T05:18:58.001Z</time></trkpt><trkpt lat="14.428727609099285" lon="120.92704298093834"><ele>10.600000000000001</ele><time>2026-04-14T05:19:00.001Z</time></trkpt><trkpt lat="14.428734022907921" lon="120.9271076518621"><ele>10.4</ele><time>2026-04-14T05:19:01.001Z</time></trkpt><trkpt lat="14.428745487736787" lon="120.9272232526065"><ele>10.2</ele><time>2026-04-14T05:19:03.001Z</time></trkpt><trkpt lat="14.42875668624171" lon="120.9273361679887"><ele>10.0</ele><time>2026-04-14T05:19:05.001Z</time></trkpt><trkpt lat="14.42876826727143" lon="120.92745294039408"><ele>10.333333333333334</ele><time>2026-04-14T05:19:07.001Z</time></trkpt><trkpt lat="14.428779667623008" lon="120.92756789102042"><ele>10.666666666666668</ele><time>2026-04-14T05:19:09.001Z</time></trkpt><trkpt lat="14.428789175825608" lon="120.92766376295985"><ele>11.0</ele><time>2026-04-14T05:19:11.001Z</time></trkpt><trkpt lat="14.428795972766325" lon="120.92773229703575"><ele>11.333333333333334</ele><time>2026-04-14T05:19:13Z</time></trkpt><trkpt lat="14.428803649109959" lon="120.92780969819331"><ele>11.666666666666666</ele><time>2026-04-14T05:19:18Z</time></trkpt><trkpt lat="14.428812026732507" lon="120.92789834481917"><ele>12.0</ele><time>2026-04-14T05:19:21Z</time></trkpt><trkpt lat="14.42883402036303" lon="120.92796491328241"><ele>12.0</ele><time>2026-04-14T05:19:23Z</time></trkpt><trkpt lat="14.428824134103031" lon="120.9280467507085"><ele>12.0</ele><time>2026-04-14T05:19:26Z</time></trkpt><trkpt lat="14.428830384622277" lon="120.92812158168317"><ele>12.0</ele><time>2026-04-14T05:19:27Z</time></trkpt><trkpt lat="14.428837093850655" lon="120.92820190433191"><ele>12.0</ele><time>2026-04-14T05:19:28Z</time></trkpt><trkpt lat="14.428844569546344" lon="120.92829140307163"><ele>12.0</ele><time>2026-04-14T05:19:29Z</time></trkpt><trkpt lat="14.42885220765016" lon="120.92838284615766"><ele>12.0</ele><time>2026-04-14T05:19:30Z</time></trkpt><trkpt lat="14.428859903470029" lon="120.92847498024307"><ele>11.666666666666666</ele><time>2026-04-14T05:19:31Z</time></trkpt><trkpt lat="14.428869495913496" lon="120.9285606815919"><ele>11.333333333333334</ele><time>2026-04-14T05:19:32Z</time></trkpt><trkpt lat="14.42888739280646" lon="120.9286459207037"><ele>11.0</ele><time>2026-04-14T05:19:33Z</time></trkpt><trkpt lat="14.42889413967958" lon="120.92871460630907"><ele>10.666666666666668</ele><time>2026-04-14T05:19:34Z</time></trkpt><trkpt lat="14.428906513005868" lon="120.92878933026876"><ele>10.333333333333334</ele><time>2026-04-14T05:19:35Z</time></trkpt><trkpt lat="14.428917921908912" lon="120.92890362156018"><ele>10.0</ele><time>2026-04-14T05:19:37Z</time></trkpt><trkpt lat="14.428910600268486" lon="120.92898612235562"><ele>10.0</ele><time>2026-04-14T05:19:39Z</time></trkpt><trkpt lat="14.428916339727193" lon="120.92907842116519"><ele>10.0</ele><time>2026-04-14T05:19:41Z</time></trkpt><trkpt lat="14.428937822170132" lon="120.9291809718481"><ele>10.0</ele><time>2026-04-14T05:19:43Z</time></trkpt><trkpt lat="14.42893345144536" lon="120.92929669635689"><ele>10.0</ele><time>2026-04-14T05:19:45Z</time></trkpt><trkpt lat="14.428945766148267" lon="120.92941338461512"><ele>10.0</ele><time>2026-04-14T05:19:47Z</time></trkpt><trkpt lat="14.428958864758778" lon="120.92953821611272"><ele>10.0</ele><time>2026-04-14T05:19:49Z</time></trkpt><trkpt lat="14.42897191356045" lon="120.92966359223168"><ele>10.0</ele><time>2026-04-14T05:19:51Z</time></trkpt><trkpt lat="14.42898456687027" lon="120.92979002848037"><ele>10.0</ele><time>2026-04-14T05:19:53Z</time></trkpt><trkpt lat="14.428991475270749" lon="120.92985517115348"><ele>10.0</ele><time>2026-04-14T05:19:54Z</time></trkpt><trkpt lat="14.429004853750603" lon="120.92998132336335"><ele>10.0</ele><time>2026-04-14T05:19:56Z</time></trkpt><trkpt lat="14.429012035457154" lon="120.9300490431697"><ele>10.6</ele><time>2026-04-14T05:19:57Z</time></trkpt><trkpt lat="14.4290255848294" lon="120.93017680679837"><ele>11.2</ele><time>2026-04-14T05:19:59Z</time></trkpt><trkpt lat="14.42903253321871" lon="120.93024232654324"><ele>11.8</ele><time>2026-04-14T05:20:00Z</time></trkpt><trkpt lat="14.429038792384445" lon="120.930309314873"><ele>12.4</ele><time>2026-04-14T05:20:01Z</time></trkpt><trkpt lat="14.429045509585952" lon="120.93037738195915"><ele>13.0</ele><time>2026-04-14T05:20:02Z</time></trkpt><trkpt lat="14.429058850795398" lon="120.93051257180325"><ele>13.0</ele><time>2026-04-14T05:20:04Z</time></trkpt><trkpt lat="14.429071360459144" lon="120.93063933537742"><ele>13.0</ele><time>2026-04-14T05:20:06Z</time></trkpt><trkpt lat="14.429083326967985" lon="120.93076059503008"><ele>13.0</ele><time>2026-04-14T05:20:08Z</time></trkpt><trkpt lat="14.4290954350923" lon="120.93088328970174"><ele>13.0</ele><time>2026-04-14T05:20:10.001Z</time></trkpt><trkpt lat="14.429107606793746" lon="120.93100662862079"><ele>13.0</ele><time>2026-04-14T05:20:12.001Z</time></trkpt><trkpt lat="14.4291172650678" lon="120.93112940973276"><ele>13.0</ele><time>2026-04-14T05:20:14.001Z</time></trkpt><trkpt lat="14.429126397208606" lon="120.9312503130203"><ele>13.0</ele><time>2026-04-14T05:20:16.001Z</time></trkpt><trkpt lat="14.429135304373734" lon="120.93136943645958"><ele>13.0</ele><time>2026-04-14T05:20:18.001Z</time></trkpt><trkpt lat="14.42914439657001" lon="120.93149388299223"><ele>13.0</ele><time>2026-04-14T05:20:20.001Z</time></trkpt><trkpt lat="14.429153009655568" lon="120.93161081084394"><ele>13.0</ele><time>2026-04-14T05:20:22.001Z</time></trkpt><trkpt lat="14.42916153754718" lon="120.93171821250667"><ele>13.0</ele><time>2026-04-14T05:20:24.001Z</time></trkpt><trkpt lat="14.42916975346863" lon="120.9318216851738"><ele>13.0</ele><time>2026-04-14T05:20:26.001Z</time></trkpt><trkpt lat="14.429178084499735" lon="120.93192660754346"><ele>13.0</ele><time>2026-04-14T05:20:28.001Z</time></trkpt><trkpt lat="14.429184731304899" lon="120.93201031850958"><ele>12.833333333333332</ele><time>2026-04-14T05:20:30.001Z</time></trkpt><trkpt lat="14.429190275655804" lon="120.93208014498249"><ele>12.666666666666666</ele><time>2026-04-14T05:20:32.001Z</time></trkpt><trkpt lat="14.429201288044416" lon="120.9321596890565"><ele>12.5</ele><time>2026-04-14T05:20:35.001Z</time></trkpt><trkpt lat="14.429224114458805" lon="120.93224599483433"><ele>12.333333333333332</ele><time>2026-04-14T05:20:43.001Z</time></trkpt><trkpt lat="14.429239979130697" lon="120.93233777928724"><ele>12.166666666666666</ele><time>2026-04-14T05:20:47.001Z</time></trkpt><trkpt lat="14.429142313515598" lon="120.93238679791199"><ele>12.0</ele><time>2026-04-14T05:20:49.001Z</time></trkpt><trkpt lat="14.429078617157312" lon="120.93241120629956"><ele>12.0</ele><time>2026-04-14T05:20:50.001Z</time></trkpt><trkpt lat="14.429017543221258" lon="120.93244386982796"><ele>12.0</ele><time>2026-04-14T05:20:51.001Z</time></trkpt><trkpt lat="14.428960793801513" lon="120.93247735090819"><ele>12.0</ele><time>2026-04-14T05:20:52.001Z</time></trkpt><trkpt lat="14.428866817942154" lon="120.93253351975297"><ele>12.0</ele><time>2026-04-14T05:20:54.001Z</time></trkpt><trkpt lat="14.428756088894001" lon="120.93260046188624"><ele>12.0</ele><time>2026-04-14T05:20:56.001Z</time></trkpt><trkpt lat="14.428693253525763" lon="120.9326366588371"><ele>12.0</ele><time>2026-04-14T05:20:57.001Z</time></trkpt><trkpt lat="14.428625816172481" lon="120.93267185360895"><ele>12.333333333333334</ele><time>2026-04-14T05:20:58.001Z</time></trkpt><trkpt lat="14.428562160110923" lon="120.93270303231475"><ele>12.666666666666668</ele><time>2026-04-14T05:20:59.001Z</time></trkpt><trkpt lat="14.42850503677229" lon="120.93273389129013"><ele>13.0</ele><time>2026-04-14T05:21:00.001Z</time></trkpt><trkpt lat="14.42844196625996" lon="120.93276791009716"><ele>13.333333333333334</ele><time>2026-04-14T05:21:01.001Z</time></trkpt><trkpt lat="14.428377300550386" lon="120.9328051856337"><ele>13.666666666666668</ele><time>2026-04-14T05:21:02.001Z</time></trkpt><trkpt lat="14.4282684382734" lon="120.93287039732327"><ele>14.0</ele><time>2026-04-14T05:21:04.001Z</time></trkpt><trkpt lat="14.42817326605151" lon="120.93293624146071"><ele>14.0</ele><time>2026-04-14T05:21:06.001Z</time></trkpt><trkpt lat="14.428085457410646" lon="120.93299205765153"><ele>13.999999999999998</ele><time>2026-04-14T05:21:08.001Z</time></trkpt><trkpt lat="14.428001135797798" lon="120.93304927759276"><ele>13.999999999999998</ele><time>2026-04-14T05:21:10.001Z</time></trkpt><trkpt lat="14.427930021606464" lon="120.93310192100002"><ele>14.0</ele><time>2026-04-14T05:21:12.001Z</time></trkpt><trkpt lat="14.42785486930008" lon="120.93316003402914"><ele>14.0</ele><time>2026-04-14T05:21:14.001Z</time></trkpt><trkpt lat="14.42778759539291" lon="120.93320309296077"><ele>13.666666666666668</ele><time>2026-04-14T05:21:16.001Z</time></trkpt><trkpt lat="14.427726690898904" lon="120.93324075458617"><ele>13.333333333333334</ele><time>2026-04-14T05:21:18Z</time></trkpt><trkpt lat="14.427636994609921" lon="120.93329033575458"><ele>13.0</ele><time>2026-04-14T05:21:20Z</time></trkpt><trkpt lat="14.427578157524358" lon="120.93332413645972"><ele>12.666666666666668</ele><time>2026-04-14T05:21:21Z</time></trkpt><trkpt lat="14.427519627004438" lon="120.93335996545552"><ele>12.333333333333334</ele><time>2026-04-14T05:21:22Z</time></trkpt><trkpt lat="14.42745516484611" lon="120.9333972956376"><ele>12.0</ele><time>2026-04-14T05:21:23Z</time></trkpt><trkpt lat="14.42739360723959" lon="120.93343566826015"><ele>11.8</ele><time>2026-04-14T05:21:24Z</time></trkpt><trkpt lat="14.42733094545777" lon="120.93347379180504"><ele>11.6</ele><time>2026-04-14T05:21:25Z</time></trkpt><trkpt lat="14.427269452107085" lon="120.93351289539731"><ele>11.4</ele><time>2026-04-14T05:21:26Z</time></trkpt><trkpt lat="14.427211287257654" lon="120.93354977435575"><ele>11.200000000000001</ele><time>2026-04-14T05:21:27Z</time></trkpt><trkpt lat="14.427108443015468" lon="120.93361459674333"><ele>11.0</ele><time>2026-04-14T05:21:29Z</time></trkpt><trkpt lat="14.427008063380415" lon="120.93367474707948"><ele>11.0</ele><time>2026-04-14T05:21:31Z</time></trkpt><trkpt lat="14.426950854293695" lon="120.93371067067218"><ele>11.0</ele><time>2026-04-14T05:21:33Z</time></trkpt><trkpt lat="14.42688684889239" lon="120.93374860356732"><ele>11.0</ele><time>2026-04-14T05:21:35Z</time></trkpt><trkpt lat="14.42679612096457" lon="120.93380810475229"><ele>11.0</ele><time>2026-04-14T05:21:37Z</time></trkpt><trkpt lat="14.426699700878183" lon="120.93387567586676"><ele>11.0</ele><time>2026-04-14T05:21:39Z</time></trkpt><trkpt lat="14.426615259692092" lon="120.933931693136"><ele>11.0</ele><time>2026-04-14T05:21:41Z</time></trkpt><trkpt lat="14.42655857001407" lon="120.93396732445947"><ele>11.0</ele><time>2026-04-14T05:21:47Z</time></trkpt><trkpt lat="14.426470595237346" lon="120.93402768712795"><ele>11.0</ele><time>2026-04-14T05:21:50Z</time></trkpt><trkpt lat="14.426375998753628" lon="120.93409563995642"><ele>11.0</ele><time>2026-04-14T05:21:52Z</time></trkpt><trkpt lat="14.42631388714325" lon="120.93413384396013"><ele>11.0</ele><time>2026-04-14T05:21:53Z</time></trkpt><trkpt lat="14.426257527956542" lon="120.93416775745436"><ele>11.0</ele><time>2026-04-14T05:21:54Z</time></trkpt><trkpt lat="14.426204202133997" lon="120.93420277714606"><ele>11.4</ele><time>2026-04-14T05:21:55Z</time></trkpt><trkpt lat="14.426121890009341" lon="120.93425064052597"><ele>11.8</ele><time>2026-04-14T05:21:57Z</time></trkpt><trkpt lat="14.42603662890243" lon="120.93429941106884"><ele>12.200000000000001</ele><time>2026-04-14T05:21:59Z</time></trkpt><trkpt lat="14.425952994183353" lon="120.93434807726372"><ele>12.600000000000001</ele><time>2026-04-14T05:22:01Z</time></trkpt><trkpt lat="14.42587848982412" lon="120.93439255021899"><ele>13.0</ele><time>2026-04-14T05:22:03Z</time></trkpt><trkpt lat="14.42580165736156" lon="120.93443889402837"><ele>12.999999999999998</ele><time>2026-04-14T05:22:05Z</time></trkpt><trkpt lat="14.425732434967559" lon="120.9344807667135"><ele>13.0</ele><time>2026-04-14T05:22:07Z</time></trkpt><trkpt lat="14.425674340169877" lon="120.93451610028073"><ele>13.0</ele><time>2026-04-14T05:22:09Z</time></trkpt><trkpt lat="14.425597375114496" lon="120.93457163052588"><ele>13.0</ele><time>2026-04-14T05:22:12.001Z</time></trkpt><trkpt lat="14.425574898788636" lon="120.93464914889898"><ele>12.999999999999998</ele><time>2026-04-14T05:22:15.001Z</time></trkpt><trkpt lat="14.425643359973927" lon="120.93473219334818"><ele>13.0</ele><time>2026-04-14T05:22:17.001Z</time></trkpt><trkpt lat="14.425698919889664" lon="120.93480169408231"><ele>13.0</ele><time>2026-04-14T05:22:18.001Z</time></trkpt><trkpt lat="14.42575989117574" lon="120.93487961243083"><ele>13.0</ele><time>2026-04-14T05:22:19.001Z</time></trkpt><trkpt lat="14.425824219986955" lon="120.93497225615067"><ele>13.0</ele><time>2026-04-14T05:22:20.001Z</time></trkpt><trkpt lat="14.425895662075996" lon="120.93506434155809"><ele>13.0</ele><time>2026-04-14T05:22:21.001Z</time></trkpt><trkpt lat="14.425971054741167" lon="120.93516171979134"><ele>13.0</ele><time>2026-04-14T05:22:22.001Z</time></trkpt><trkpt lat="14.426039877226893" lon="120.93525504104852"><ele>13.25</ele><time>2026-04-14T05:22:23.001Z</time></trkpt><trkpt lat="14.42611475080908" lon="120.93534909431798"><ele>13.5</ele><time>2026-04-14T05:22:24.001Z</time></trkpt><trkpt lat="14.42619318545766" lon="120.93544583534963"><ele>13.75</ele><time>2026-04-14T05:22:25.001Z</time></trkpt><trkpt lat="14.426268954710993" lon="120.93554141749125"><ele>14.0</ele><time>2026-04-14T05:22:26.001Z</time></trkpt><trkpt lat="14.426336648227675" lon="120.93562876569757"><ele>13.6</ele><time>2026-04-14T05:22:27.001Z</time></trkpt><trkpt lat="14.426403194036558" lon="120.9357127414861"><ele>13.2</ele><time>2026-04-14T05:22:28.001Z</time></trkpt><trkpt lat="14.426459814733269" lon="120.93578627020622"><ele>12.799999999999999</ele><time>2026-04-14T05:22:29.001Z</time></trkpt><trkpt lat="14.426516076837608" lon="120.93585688196734"><ele>12.399999999999999</ele><time>2026-04-14T05:22:30.001Z</time></trkpt><trkpt lat="14.426574962916622" lon="120.93592563202971"><ele>12.0</ele><time>2026-04-14T05:22:31.001Z</time></trkpt><trkpt lat="14.426633527902096" lon="120.93599840550387"><ele>12.0</ele><time>2026-04-14T05:22:32.001Z</time></trkpt><trkpt lat="14.426695730281608" lon="120.93606898940365"><ele>12.0</ele><time>2026-04-14T05:22:33.001Z</time></trkpt><trkpt lat="14.426762166517758" lon="120.93614259337967"><ele>12.0</ele><time>2026-04-14T05:22:34.001Z</time></trkpt><trkpt lat="14.426826648223278" lon="120.93622215010002"><ele>12.0</ele><time>2026-04-14T05:22:35.001Z</time></trkpt><trkpt lat="14.426879503086164" lon="120.93629905901754"><ele>12.0</ele><time>2026-04-14T05:22:36.001Z</time></trkpt><trkpt lat="14.426928833317632" lon="120.93637069084704"><ele>12.0</ele><time>2026-04-14T05:22:37.001Z</time></trkpt><trkpt lat="14.426977811793488" lon="120.93642967299904"><ele>12.0</ele><time>2026-04-14T05:22:38.001Z</time></trkpt><trkpt lat="14.427030010094281" lon="120.93649333439537"><ele>12.0</ele><time>2026-04-14T05:22:39.001Z</time></trkpt><trkpt lat="14.42708291304468" lon="120.93655548880629"><ele>12.0</ele><time>2026-04-14T05:22:40.001Z</time></trkpt><trkpt lat="14.427134571612244" lon="120.93661687013633"><ele>12.0</ele><time>2026-04-14T05:22:41.001Z</time></trkpt><trkpt lat="14.427185331531597" lon="120.93668074131433"><ele>12.0</ele><time>2026-04-14T05:22:42.001Z</time></trkpt><trkpt lat="14.427234319103846" lon="120.93673430596569"><ele>12.0</ele><time>2026-04-14T05:22:43.001Z</time></trkpt><trkpt lat="14.42728047546856" lon="120.93678965957085"><ele>12.0</ele><time>2026-04-14T05:22:44.001Z</time></trkpt><trkpt lat="14.427323149995633" lon="120.9368388699974"><ele>12.0</ele><time>2026-04-14T05:22:45.001Z</time></trkpt><trkpt lat="14.42740551862899" lon="120.93692706647256"><ele>12.0</ele><time>2026-04-14T05:22:47.001Z</time></trkpt><trkpt lat="14.427487502627972" lon="120.93702389052213"><ele>12.0</ele><time>2026-04-14T05:22:49.001Z</time></trkpt><trkpt lat="14.427563199685405" lon="120.93712401609878"><ele>12.0</ele><time>2026-04-14T05:22:51.001Z</time></trkpt><trkpt lat="14.427627858925243" lon="120.9372049445511"><ele>12.0</ele><time>2026-04-14T05:22:53.001Z</time></trkpt><trkpt lat="14.427702807165126" lon="120.93723711540612"><ele>12.0</ele><time>2026-04-14T05:22:56.001Z</time></trkpt><trkpt lat="14.427786720478144" lon="120.93717887267931"><ele>12.0</ele><time>2026-04-14T05:22:58.001Z</time></trkpt><trkpt lat="14.427861809179886" lon="120.93712629212463"><ele>12.0</ele><time>2026-04-14T05:23:00.001Z</time></trkpt><trkpt lat="14.42793773311801" lon="120.93707756826352"><ele>11.6</ele><time>2026-04-14T05:23:02.001Z</time></trkpt><trkpt lat="14.428036087743928" lon="120.93702387375939"><ele>11.2</ele><time>2026-04-14T05:23:04.001Z</time></trkpt><trkpt lat="14.428144317095763" lon="120.93695809917001"><ele>10.8</ele><time>2026-04-14T05:23:06.001Z</time></trkpt><trkpt lat="14.428202868525934" lon="120.93692494175691"><ele>10.4</ele><time>2026-04-14T05:23:07.001Z</time></trkpt><trkpt lat="14.428308790528797" lon="120.93686688043518"><ele>10.0</ele><time>2026-04-14T05:23:09.001Z</time></trkpt><trkpt lat="14.42836599582247" lon="120.93683807815175"><ele>10.0</ele><time>2026-04-14T05:23:10.001Z</time></trkpt><trkpt lat="14.428426236826065" lon="120.93680405129614"><ele>10.0</ele><time>2026-04-14T05:23:11.001Z</time></trkpt><trkpt lat="14.428483479774364" lon="120.93676787553767"><ele>10.0</ele><time>2026-04-14T05:23:12.001Z</time></trkpt><trkpt lat="14.42854551982918" lon="120.93673088075722"><ele>10.0</ele><time>2026-04-14T05:23:13.001Z</time></trkpt><trkpt lat="14.42860417410054" lon="120.93669714894125"><ele>10.0</ele><time>2026-04-14T05:23:14.001Z</time></trkpt><trkpt lat="14.428708182912674" lon="120.93664019581207"><ele>10.0</ele><time>2026-04-14T05:23:16.001Z</time></trkpt><trkpt lat="14.428776114732743" lon="120.93661107646165"><ele>10.0</ele><time>2026-04-14T05:23:18.001Z</time></trkpt><trkpt lat="14.428867209432447" lon="120.9366566718058"><ele>10.0</ele><time>2026-04-14T05:23:21.001Z</time></trkpt><trkpt lat="14.428899003192596" lon="120.93675626090605"><ele>10.0</ele><time>2026-04-14T05:23:23.001Z</time></trkpt><trkpt lat="14.428939910568944" lon="120.93684687402478"><ele>10.0</ele><time>2026-04-14T05:23:25Z</time></trkpt><trkpt lat="14.42897558519403" lon="120.93691956418161"><ele>10.0</ele><time>2026-04-14T05:23:27Z</time></trkpt><trkpt lat="14.429021448002258" lon="120.93699951797798"><ele>10.0</ele><time>2026-04-14T05:23:29Z</time></trkpt><trkpt lat="14.42908202792248" lon="120.93703763621157"><ele>10.0</ele><time>2026-04-14T05:23:31Z</time></trkpt><trkpt lat="14.429153742787175" lon="120.9370330760701"><ele>10.0</ele><time>2026-04-14T05:23:33Z</time></trkpt><trkpt lat="14.429217009164407" lon="120.93700468985413"><ele>10.0</ele><time>2026-04-14T05:23:35Z</time></trkpt><trkpt lat="14.4292731395215" lon="120.93696312488197"><ele>10.0</ele><time>2026-04-14T05:23:37Z</time></trkpt><trkpt lat="14.429305970888072" lon="120.93690491526607"><ele>10.0</ele><time>2026-04-14T05:23:39Z</time></trkpt><trkpt lat="14.42928870394777" lon="120.9368252512731"><ele>10.0</ele><time>2026-04-14T05:23:41Z</time></trkpt><trkpt lat="14.429252548797102" lon="120.93676629520198"><ele>10.166666666666668</ele><time>2026-04-14T05:23:42Z</time></trkpt><trkpt lat="14.429225403065862" lon="120.93669866445218"><ele>10.333333333333334</ele><time>2026-04-14T05:23:43Z</time></trkpt><trkpt lat="14.429197022642322" lon="120.93662193516514"><ele>10.5</ele><time>2026-04-14T05:23:44Z</time></trkpt><trkpt lat="14.429167518079735" lon="120.9365468238146"><ele>10.666666666666666</ele><time>2026-04-14T05:23:45Z</time></trkpt><trkpt lat="14.429140464820156" lon="120.93648181477728"><ele>10.833333333333332</ele><time>2026-04-14T05:23:46Z</time></trkpt><trkpt lat="14.429100380149656" lon="120.93638086830023"><ele>11.0</ele><time>2026-04-14T05:23:48Z</time></trkpt><trkpt lat="14.429059128144242" lon="120.9362986087131"><ele>11.0</ele><time>2026-04-14T05:23:50Z</time></trkpt><trkpt lat="14.429010103261689" lon="120.93622875957325"><ele>11.0</ele><time>2026-04-14T05:23:52Z</time></trkpt><trkpt lat="14.428931532213143" lon="120.93615959459098"><ele>11.0</ele><time>2026-04-14T05:23:54Z</time></trkpt><trkpt lat="14.428812802892459" lon="120.93617029541545"><ele>11.0</ele><time>2026-04-14T05:23:56Z</time></trkpt><trkpt lat="14.428726670463469" lon="120.9362337023333"><ele>11.0</ele><time>2026-04-14T05:23:58Z</time></trkpt><trkpt lat="14.428671262566162" lon="120.9362987723615"><ele>11.0</ele><time>2026-04-14T05:24:00Z</time></trkpt><trkpt lat="14.428695859739747" lon="120.93639929638952"><ele>11.0</ele><time>2026-04-14T05:24:02Z</time></trkpt><trkpt lat="14.42873733782034" lon="120.93645708664846"><ele>11.0</ele><time>2026-04-14T05:24:03Z</time></trkpt><trkpt lat="14.42877880326088" lon="120.93651398413053"><ele>11.0</ele><time>2026-04-14T05:24:04Z</time></trkpt><trkpt lat="14.428818920880355" lon="120.93657952126192"><ele>11.0</ele><time>2026-04-14T05:24:05Z</time></trkpt><trkpt lat="14.428856684279491" lon="120.93663487547185"><ele>11.0</ele><time>2026-04-14T05:24:06Z</time></trkpt><trkpt lat="14.428887389338193" lon="120.93669300461934"><ele>11.0</ele><time>2026-04-14T05:24:07Z</time></trkpt><trkpt lat="14.428921981481777" lon="120.93676551794513"><ele>10.833333333333332</ele><time>2026-04-14T05:24:08Z</time></trkpt><trkpt lat="14.42895162672601" lon="120.93684905818796"><ele>10.666666666666666</ele><time>2026-04-14T05:24:09Z</time></trkpt><trkpt lat="14.42898446180965" lon="120.93692182730685"><ele>10.5</ele><time>2026-04-14T05:24:10Z</time></trkpt><trkpt lat="14.42901258122425" lon="120.9369828179617"><ele>10.333333333333334</ele><time>2026-04-14T05:24:11Z</time></trkpt><trkpt lat="14.429069401856463" lon="120.93707587835941"><ele>10.166666666666668</ele><time>2026-04-14T05:24:13Z</time></trkpt><trkpt lat="14.429104160450208" lon="120.93713633434602"><ele>10.0</ele><time>2026-04-14T05:24:18Z</time></trkpt><trkpt lat="14.429028132972759" lon="120.93716909159747"><ele>10.0</ele><time>2026-04-14T05:26:15.031Z</time></trkpt><trkpt lat="14.429003471688576" lon="120.9373659753922"><ele>10.0</ele><time>2026-04-14T05:26:19.03Z</time></trkpt><trkpt lat="14.42892696952214" lon="120.93763799840566"><ele>10.0</ele><time>2026-04-14T05:26:20.03Z</time></trkpt><trkpt lat="14.428925830987565" lon="120.9377281148809"><ele>10.0</ele><time>2026-04-14T05:26:21.03Z</time></trkpt><trkpt lat="14.428985846623283" lon="120.93754680908235"><ele>10.0</ele><time>2026-04-14T05:26:23.028Z</time></trkpt><trkpt lat="14.429021656466569" lon="120.9374231573637"><ele>10.0</ele><time>2026-04-14T05:26:24.03Z</time></trkpt><trkpt lat="14.429050691470579" lon="120.9371182654875"><ele>10.0</ele><time>2026-04-14T05:27:08.01Z</time></trkpt><trkpt lat="14.429112916903643" lon="120.93705216059237"><ele>10.0</ele><time>2026-04-14T05:27:14.011Z</time></trkpt><trkpt lat="14.4291717345058" lon="120.93700915861031"><ele>10.0</ele><time>2026-04-14T05:27:31.011Z</time></trkpt><trkpt lat="14.429075537533071" lon="120.93726863031293"><ele>10.0</ele><time>2026-04-14T05:27:37.012Z</time></trkpt><trkpt lat="14.429143412724642" lon="120.93721987355151"><ele>10.0</ele><time>2026-04-14T05:28:10.017Z</time></trkpt><trkpt lat="14.429167707175699" lon="120.93710684295087"><ele>10.0</ele><time>2026-04-14T05:28:12.018Z</time></trkpt><trkpt lat="14.4291910252204" lon="120.93703017574546"><ele>10.0</ele><time>2026-04-14T05:28:14.018Z</time></trkpt><trkpt lat="14.429157160165463" lon="120.93709462892237"><ele>10.0</ele><time>2026-04-14T05:28:53Z</time></trkpt><trkpt lat="14.42905389390859" lon="120.93712833723785"><ele>10.0</ele><time>2026-04-14T05:29:05Z</time></trkpt><trkpt lat="14.42912342440112" lon="120.93713890378163"><ele>10.0</ele><time>2026-04-14T05:56:33.001Z</time></trkpt><trkpt lat="14.429059559757116" lon="120.93712451815283"><ele>10.0</ele><time>2026-04-14T05:59:27.001Z</time></trkpt><trkpt lat="14.429080654605652" lon="120.93704681921403"><ele>10.0</ele><time>2026-04-14T05:59:32.001Z</time></trkpt><trkpt lat="14.429159696180875" lon="120.93700250763528"><ele>10.0</ele><time>2026-04-14T05:59:34.001Z</time></trkpt><trkpt lat="14.429231841918623" lon="120.93696908448695"><ele>10.0</ele><time>2026-04-14T05:59:36.001Z</time></trkpt><trkpt lat="14.4292949448598" lon="120.93690997768826"><ele>10.0</ele><time>2026-04-14T05:59:38.001Z</time></trkpt><trkpt lat="14.4292922039864" lon="120.93682921583186"><ele>10.0</ele><time>2026-04-14T05:59:40.001Z</time></trkpt><trkpt lat="14.42926055000598" lon="120.93674463484226"><ele>10.2</ele><time>2026-04-14T05:59:42.001Z</time></trkpt><trkpt lat="14.429217966954226" lon="120.93663696260097"><ele>10.4</ele><time>2026-04-14T05:59:44.001Z</time></trkpt><trkpt lat="14.429190135731389" lon="120.9365600883346"><ele>10.600000000000001</ele><time>2026-04-14T05:59:46.001Z</time></trkpt><trkpt lat="14.429161278736945" lon="120.93648018177245"><ele>10.8</ele><time>2026-04-14T05:59:48.001Z</time></trkpt><trkpt lat="14.429124514326887" lon="120.93639587320219"><ele>11.0</ele><time>2026-04-14T05:59:50Z</time></trkpt><trkpt lat="14.429079996447387" lon="120.93629464121886"><ele>11.0</ele><time>2026-04-14T05:59:52Z</time></trkpt><trkpt lat="14.429039763633464" lon="120.93620572446885"><ele>11.0</ele><time>2026-04-14T05:59:54Z</time></trkpt><trkpt lat="14.429001954760958" lon="120.93609378851218"><ele>11.0</ele><time>2026-04-14T05:59:56Z</time></trkpt><trkpt lat="14.42897842935864" lon="120.93602670709761"><ele>11.0</ele><time>2026-04-14T05:59:57Z</time></trkpt><trkpt lat="14.428950107782779" lon="120.93595755153312"><ele>11.0</ele><time>2026-04-14T05:59:58Z</time></trkpt><trkpt lat="14.428945208222586" lon="120.93587922964227"><ele>11.0</ele><time>2026-04-14T05:59:59Z</time></trkpt><trkpt lat="14.42891673194198" lon="120.93580910133298"><ele>11.0</ele><time>2026-04-14T06:00:00Z</time></trkpt><trkpt lat="14.428867805132445" lon="120.93569062386673"><ele>11.0</ele><time>2026-04-14T06:00:02Z</time></trkpt><trkpt lat="14.428841700309627" lon="120.9356268476348"><ele>11.0</ele><time>2026-04-14T06:00:03Z</time></trkpt><trkpt lat="14.42881435254281" lon="120.93555987143647"><ele>11.0</ele><time>2026-04-14T06:00:04Z</time></trkpt><trkpt lat="14.428788096861402" lon="120.93549555062722"><ele>11.0</ele><time>2026-04-14T06:00:05Z</time></trkpt><trkpt lat="14.42876125410964" lon="120.93542979162123"><ele>11.0</ele><time>2026-04-14T06:00:06Z</time></trkpt><trkpt lat="14.428734092473507" lon="120.9353632513974"><ele>11.0</ele><time>2026-04-14T06:00:07Z</time></trkpt><trkpt lat="14.428706932409636" lon="120.93529523564321"><ele>11.0</ele><time>2026-04-14T06:00:08Z</time></trkpt><trkpt lat="14.428681671117086" lon="120.9352339330878"><ele>11.0</ele><time>2026-04-14T06:00:09Z</time></trkpt><trkpt lat="14.428638669691797" lon="120.93512957986731"><ele>11.0</ele><time>2026-04-14T06:00:11Z</time></trkpt><trkpt lat="14.428609863555723" lon="120.93505967490496"><ele>11.0</ele><time>2026-04-14T06:00:14Z</time></trkpt><trkpt lat="14.428579511877981" lon="120.93498549895021"><ele>11.0</ele><time>2026-04-14T06:00:17Z</time></trkpt><trkpt lat="14.428544634166162" lon="120.93489872898961"><ele>11.0</ele><time>2026-04-14T06:00:19Z</time></trkpt><trkpt lat="14.428505753505364" lon="120.93480200035314"><ele>11.0</ele><time>2026-04-14T06:00:21Z</time></trkpt><trkpt lat="14.42846097633997" lon="120.93469060219768"><ele>11.0</ele><time>2026-04-14T06:00:23Z</time></trkpt><trkpt lat="14.428436595493533" lon="120.9346299466972"><ele>11.0</ele><time>2026-04-14T06:00:24Z</time></trkpt><trkpt lat="14.42840969321069" lon="120.93456301828125"><ele>11.0</ele><time>2026-04-14T06:00:25Z</time></trkpt><trkpt lat="14.428380775839582" lon="120.93449107666032"><ele>11.0</ele><time>2026-04-14T06:00:26Z</time></trkpt><trkpt lat="14.428351402022194" lon="120.93441799947715"><ele>11.0</ele><time>2026-04-14T06:00:27Z</time></trkpt><trkpt lat="14.428320727495885" lon="120.93434168633551"><ele>11.0</ele><time>2026-04-14T06:00:28Z</time></trkpt><trkpt lat="14.428289729021758" lon="120.93426331291225"><ele>11.0</ele><time>2026-04-14T06:00:29Z</time></trkpt><trkpt lat="14.428261912425908" lon="120.93419337741948"><ele>11.0</ele><time>2026-04-14T06:00:30Z</time></trkpt><trkpt lat="14.428235273432243" lon="120.93412640261262"><ele>11.0</ele><time>2026-04-14T06:00:31Z</time></trkpt><trkpt lat="14.428208698006793" lon="120.93405958762776"><ele>11.0</ele><time>2026-04-14T06:00:32Z</time></trkpt><trkpt lat="14.4281799169564" lon="120.93398722733855"><ele>11.166666666666666</ele><time>2026-04-14T06:00:33Z</time></trkpt><trkpt lat="14.428113054399695" lon="120.9339237271307"><ele>11.333333333333332</ele><time>2026-04-14T06:00:34Z</time></trkpt><trkpt lat="14.428083966066362" lon="120.93384627016773"><ele>11.5</ele><time>2026-04-14T06:00:35Z</time></trkpt><trkpt lat="14.428058188585569" lon="120.93376783694542"><ele>11.666666666666666</ele><time>2026-04-14T06:00:36Z</time></trkpt><trkpt lat="14.42803325151554" lon="120.93369388447265"><ele>11.833333333333334</ele><time>2026-04-14T06:00:37Z</time></trkpt><trkpt lat="14.428007684011925" lon="120.93362853637223"><ele>12.0</ele><time>2026-04-14T06:00:38Z</time></trkpt><trkpt lat="14.427978887857419" lon="120.93356163777082"><ele>12.0</ele><time>2026-04-14T06:00:39Z</time></trkpt><trkpt lat="14.427982881925203" lon="120.93348937956634"><ele>12.0</ele><time>2026-04-14T06:00:40Z</time></trkpt><trkpt lat="14.427946885589364" lon="120.93339882465591"><ele>12.0</ele><time>2026-04-14T06:00:42Z</time></trkpt><trkpt lat="14.427899525131577" lon="120.93333621216556"><ele>12.0</ele><time>2026-04-14T06:00:44Z</time></trkpt><trkpt lat="14.42787935079929" lon="120.93327437917166"><ele>12.0</ele><time>2026-04-14T06:00:46Z</time></trkpt><trkpt lat="14.427896562258931" lon="120.93319028930435"><ele>12.0</ele><time>2026-04-14T06:00:48Z</time></trkpt><trkpt lat="14.42797274584948" lon="120.93310332446764"><ele>12.333333333333334</ele><time>2026-04-14T06:00:50Z</time></trkpt><trkpt lat="14.428025144340443" lon="120.93305750468244"><ele>12.666666666666668</ele><time>2026-04-14T06:00:51Z</time></trkpt><trkpt lat="14.428077245648582" lon="120.93301537036518"><ele>13.0</ele><time>2026-04-14T06:00:52Z</time></trkpt><trkpt lat="14.428169187072719" lon="120.93294582556243"><ele>13.333333333333334</ele><time>2026-04-14T06:00:54Z</time></trkpt><trkpt lat="14.42827827964196" lon="120.93288103252051"><ele>13.666666666666668</ele><time>2026-04-14T06:00:56Z</time></trkpt><trkpt lat="14.428341597690496" lon="120.9328424792519"><ele>14.0</ele><time>2026-04-14T06:00:57Z</time></trkpt><trkpt lat="14.428405621989187" lon="120.93280259491979"><ele>14.000000000000002</ele><time>2026-04-14T06:00:58.001Z</time></trkpt><trkpt lat="14.428472653958668" lon="120.93276339530976"><ele>14.0</ele><time>2026-04-14T06:00:59.001Z</time></trkpt><trkpt lat="14.42853523566407" lon="120.93272658016144"><ele>14.0</ele><time>2026-04-14T06:01:00.001Z</time></trkpt><trkpt lat="14.428625672616722" lon="120.93267649389354"><ele>14.0</ele><time>2026-04-14T06:01:02.001Z</time></trkpt><trkpt lat="14.428685378506751" lon="120.93264146506475"><ele>14.000000000000002</ele><time>2026-04-14T06:01:04.001Z</time></trkpt><trkpt lat="14.42876278387115" lon="120.93259830461933"><ele>14.0</ele><time>2026-04-14T06:01:06.001Z</time></trkpt><trkpt lat="14.428863860709843" lon="120.93254367861968"><ele>13.666666666666668</ele><time>2026-04-14T06:01:08.001Z</time></trkpt><trkpt lat="14.428922476517421" lon="120.93251072207953"><ele>13.333333333333334</ele><time>2026-04-14T06:01:09.001Z</time></trkpt><trkpt lat="14.428993741618806" lon="120.93246599821494"><ele>13.0</ele><time>2026-04-14T06:01:10.001Z</time></trkpt><trkpt lat="14.429091834261175" lon="120.93240728334303"><ele>12.666666666666668</ele><time>2026-04-14T06:01:12.001Z</time></trkpt><trkpt lat="14.429159819727788" lon="120.93236630457915"><ele>12.333333333333334</ele><time>2026-04-14T06:01:14.001Z</time></trkpt><trkpt lat="14.429225767931898" lon="120.9323237923643"><ele>12.0</ele><time>2026-04-14T06:01:18.001Z</time></trkpt><trkpt lat="14.42926512997856" lon="120.93226950290213"><ele>12.0</ele><time>2026-04-14T06:01:22.001Z</time></trkpt><trkpt lat="14.429247842923829" lon="120.93215644295805"><ele>12.0</ele><time>2026-04-14T06:01:25.001Z</time></trkpt><trkpt lat="14.429235332299461" lon="120.93206274974844"><ele>12.0</ele><time>2026-04-14T06:01:27.001Z</time></trkpt><trkpt lat="14.429221272050393" lon="120.93194706765213"><ele>12.0</ele><time>2026-04-14T06:01:29.001Z</time></trkpt><trkpt lat="14.429214097863799" lon="120.93182351544623"><ele>12.0</ele><time>2026-04-14T06:01:31.001Z</time></trkpt><trkpt lat="14.429205276225911" lon="120.9317582175958"><ele>12.166666666666666</ele><time>2026-04-14T06:01:32.001Z</time></trkpt><trkpt lat="14.429200948624883" lon="120.93168050590441"><ele>12.333333333333332</ele><time>2026-04-14T06:01:33.001Z</time></trkpt><trkpt lat="14.429192546431127" lon="120.93160567320902"><ele>12.5</ele><time>2026-04-14T06:01:34.001Z</time></trkpt><trkpt lat="14.429192151645983" lon="120.93152162060025"><ele>12.666666666666666</ele><time>2026-04-14T06:01:35.001Z</time></trkpt><trkpt lat="14.429179690153616" lon="120.93143896630947"><ele>12.833333333333332</ele><time>2026-04-14T06:01:36.001Z</time></trkpt><trkpt lat="14.429180293843809" lon="120.93134649228102"><ele>13.0</ele><time>2026-04-14T06:01:37.001Z</time></trkpt><trkpt lat="14.429175457130686" lon="120.93124784273036"><ele>12.999999999999998</ele><time>2026-04-14T06:01:38.001Z</time></trkpt><trkpt lat="14.4291657311387" lon="120.93116202254207"><ele>13.0</ele><time>2026-04-14T06:01:39.001Z</time></trkpt><trkpt lat="14.429157660410803" lon="120.93106696464237"><ele>13.0</ele><time>2026-04-14T06:01:40.001Z</time></trkpt><trkpt lat="14.429147952286392" lon="120.9309761399854"><ele>13.0</ele><time>2026-04-14T06:01:41.001Z</time></trkpt><trkpt lat="14.429138361717477" lon="120.93089320827674"><ele>12.999999999999998</ele><time>2026-04-14T06:01:42.001Z</time></trkpt><trkpt lat="14.429131205798248" lon="120.93081630848626"><ele>13.0</ele><time>2026-04-14T06:01:43.001Z</time></trkpt><trkpt lat="14.429124387731935" lon="120.93074419190981"><ele>12.999999999999998</ele><time>2026-04-14T06:01:44.001Z</time></trkpt><trkpt lat="14.429111667505987" lon="120.93063332778979"><ele>13.0</ele><time>2026-04-14T06:01:46.001Z</time></trkpt><trkpt lat="14.429103295633128" lon="120.93056379717073"><ele>13.0</ele><time>2026-04-14T06:01:48.001Z</time></trkpt><trkpt lat="14.42909135913687" lon="120.9304630602776"><ele>13.0</ele><time>2026-04-14T06:01:50.001Z</time></trkpt><trkpt lat="14.429083490576396" lon="120.93039418253693"><ele>12.999999999999998</ele><time>2026-04-14T06:01:51.001Z</time></trkpt><trkpt lat="14.429077142782518" lon="120.93032069057722"><ele>13.0</ele><time>2026-04-14T06:01:52.001Z</time></trkpt><trkpt lat="14.429069235929807" lon="120.9302384783275"><ele>12.999999999999998</ele><time>2026-04-14T06:01:53.001Z</time></trkpt><trkpt lat="14.429060075271911" lon="120.9301543217727"><ele>13.0</ele><time>2026-04-14T06:01:54.001Z</time></trkpt><trkpt lat="14.429051612684498" lon="120.93006571447928"><ele>13.0</ele><time>2026-04-14T06:01:55.001Z</time></trkpt><trkpt lat="14.429041591308582" lon="120.92997652589797"><ele>13.0</ele><time>2026-04-14T06:01:55.999Z</time></trkpt><trkpt lat="14.429036593435082" lon="120.92989482393007"><ele>12.999999999999998</ele><time>2026-04-14T06:01:56.999Z</time></trkpt><trkpt lat="14.429024395095949" lon="120.92981750631428"><ele>13.0</ele><time>2026-04-14T06:01:57.999Z</time></trkpt><trkpt lat="14.429017503237052" lon="120.92974359135678"><ele>12.571428571428571</ele><time>2026-04-14T06:01:58.999Z</time></trkpt><trkpt lat="14.429009561040463" lon="120.92966822342422"><ele>12.142857142857144</ele><time>2026-04-14T06:01:59.999Z</time></trkpt><trkpt lat="14.429002793628811" lon="120.92958923240805"><ele>11.714285714285715</ele><time>2026-04-14T06:02:00.999Z</time></trkpt><trkpt lat="14.428993695675471" lon="120.92950788536163"><ele>11.285714285714285</ele><time>2026-04-14T06:02:01.999Z</time></trkpt><trkpt lat="14.428987230145713" lon="120.92943028757794"><ele>10.857142857142858</ele><time>2026-04-14T06:02:02.999Z</time></trkpt><trkpt lat="14.428977591690636" lon="120.92935907864133"><ele>10.428571428571429</ele><time>2026-04-14T06:02:03.999Z</time></trkpt><trkpt lat="14.42897056197556" lon="120.92928600685727"><ele>10.0</ele><time>2026-04-14T06:02:04.999Z</time></trkpt><trkpt lat="14.428963116517085" lon="120.92920985753938"><ele>10.0</ele><time>2026-04-14T06:02:05.999Z</time></trkpt><trkpt lat="14.428955269067995" lon="120.92913231113177"><ele>10.0</ele><time>2026-04-14T06:02:06.999Z</time></trkpt><trkpt lat="14.428949588597957" lon="120.9290642627644"><ele>10.0</ele><time>2026-04-14T06:02:07.999Z</time></trkpt><trkpt lat="14.428940014715831" lon="120.92894804988703"><ele>10.0</ele><time>2026-04-14T06:02:09.999Z</time></trkpt><trkpt lat="14.428928168371419" lon="120.92885295829352"><ele>10.0</ele><time>2026-04-14T06:02:11.999Z</time></trkpt><trkpt lat="14.428921948550052" lon="120.92877585689074"><ele>10.0</ele><time>2026-04-14T06:02:13.999Z</time></trkpt><trkpt lat="14.428915882586688" lon="120.92869848007396"><ele>10.0</ele><time>2026-04-14T06:02:16.999Z</time></trkpt><trkpt lat="14.428909792611352" lon="120.92861749432936"><ele>10.0</ele><time>2026-04-14T06:02:20Z</time></trkpt><trkpt lat="14.428897933787578" lon="120.92855184028825"><ele>10.0</ele><time>2026-04-14T06:02:26Z</time></trkpt><trkpt lat="14.428891516874648" lon="120.92847409640964"><ele>10.0</ele><time>2026-04-14T06:02:28Z</time></trkpt><trkpt lat="14.428881521172235" lon="120.92839445587373"><ele>10.0</ele><time>2026-04-14T06:02:30Z</time></trkpt><trkpt lat="14.42887788932343" lon="120.92829717024583"><ele>10.0</ele><time>2026-04-14T06:02:32Z</time></trkpt><trkpt lat="14.428865205756678" lon="120.92820419465127"><ele>10.333333333333334</ele><time>2026-04-14T06:02:34Z</time></trkpt><trkpt lat="14.428855174134604" lon="120.92809892798667"><ele>10.666666666666668</ele><time>2026-04-14T06:02:36Z</time></trkpt><trkpt lat="14.428845550219837" lon="120.92803406362249"><ele>11.0</ele><time>2026-04-14T06:02:37Z</time></trkpt><trkpt lat="14.428846598914626" lon="120.92794307937984"><ele>11.333333333333334</ele><time>2026-04-14T06:02:40Z</time></trkpt><trkpt lat="14.428838876311028" lon="120.92786050485262"><ele>11.666666666666666</ele><time>2026-04-14T06:02:42Z</time></trkpt><trkpt lat="14.428829151957867" lon="120.9277845865096"><ele>12.0</ele><time>2026-04-14T06:02:45Z</time></trkpt><trkpt lat="14.428810289628021" lon="120.92767293827278"><ele>12.2</ele><time>2026-04-14T06:02:48Z</time></trkpt><trkpt lat="14.42880218424815" lon="120.92760197925499"><ele>12.399999999999999</ele><time>2026-04-14T06:02:49Z</time></trkpt><trkpt lat="14.428791809008121" lon="120.92749834464269"><ele>12.600000000000001</ele><time>2026-04-14T06:02:50Z</time></trkpt><trkpt lat="14.428787668819675" lon="120.92740146362293"><ele>12.8</ele><time>2026-04-14T06:02:51Z</time></trkpt><trkpt lat="14.428782651690428" lon="120.92729630233131"><ele>13.0</ele><time>2026-04-14T06:02:52Z</time></trkpt><trkpt lat="14.428778232335167" lon="120.92720230501922"><ele>12.714285714285714</ele><time>2026-04-14T06:02:53Z</time></trkpt><trkpt lat="14.428772364993884" lon="120.9271164257861"><ele>12.428571428571429</ele><time>2026-04-14T06:02:54Z</time></trkpt><trkpt lat="14.428766595028067" lon="120.92703957480087"><ele>12.142857142857142</ele><time>2026-04-14T06:02:55Z</time></trkpt><trkpt lat="14.428761778477044" lon="120.9269661703601"><ele>11.857142857142858</ele><time>2026-04-14T06:02:56Z</time></trkpt><trkpt lat="14.428757420042077" lon="120.92688822813105"><ele>11.571428571428571</ele><time>2026-04-14T06:02:57Z</time></trkpt><trkpt lat="14.428752038998223" lon="120.92681131249236"><ele>11.285714285714286</ele><time>2026-04-14T06:02:58Z</time></trkpt><trkpt lat="14.428745850721375" lon="120.926741646876"><ele>11.0</ele><time>2026-04-14T06:02:59Z</time></trkpt><trkpt lat="14.428741322509019" lon="120.92667034971906"><ele>11.0</ele><time>2026-04-14T06:03:00Z</time></trkpt><trkpt lat="14.428733429695338" lon="120.9265949126329"><ele>11.0</ele><time>2026-04-14T06:03:01Z</time></trkpt><trkpt lat="14.428727505920541" lon="120.92652510287444"><ele>11.0</ele><time>2026-04-14T06:03:02Z</time></trkpt><trkpt lat="14.428719415640654" lon="120.92644907923585"><ele>11.0</ele><time>2026-04-14T06:03:03Z</time></trkpt><trkpt lat="14.428711862269983" lon="120.92638024948914"><ele>11.0</ele><time>2026-04-14T06:03:04Z</time></trkpt><trkpt lat="14.428703980525139" lon="120.92630466190163"><ele>11.0</ele><time>2026-04-14T06:03:05Z</time></trkpt><trkpt lat="14.428697230355633" lon="120.92623258421254"><ele>11.0</ele><time>2026-04-14T06:03:06Z</time></trkpt><trkpt lat="14.428692463352355" lon="120.9261580883142"><ele>11.0</ele><time>2026-04-14T06:03:07Z</time></trkpt><trkpt lat="14.42868468219761" lon="120.92608981342723"><ele>11.0</ele><time>2026-04-14T06:03:08Z</time></trkpt><trkpt lat="14.428676195277957" lon="120.92602146916505"><ele>11.0</ele><time>2026-04-14T06:03:09Z</time></trkpt><trkpt lat="14.428667585369752" lon="120.92595263991667"><ele>11.0</ele><time>2026-04-14T06:03:10Z</time></trkpt><trkpt lat="14.428659459767323" lon="120.92587303752256"><ele>11.0</ele><time>2026-04-14T06:03:11Z</time></trkpt><trkpt lat="14.428645791639463" lon="120.92578516797795"><ele>11.0</ele><time>2026-04-14T06:03:12Z</time></trkpt><trkpt lat="14.42863707032497" lon="120.92569268949909"><ele>10.8</ele><time>2026-04-14T06:03:13Z</time></trkpt><trkpt lat="14.428634778845495" lon="120.92558661157824"><ele>10.600000000000001</ele><time>2026-04-14T06:03:14Z</time></trkpt><trkpt lat="14.42863195270814" lon="120.92547382075053"><ele>10.4</ele><time>2026-04-14T06:03:15Z</time></trkpt><trkpt lat="14.428629148414236" lon="120.92536112485037"><ele>10.2</ele><time>2026-04-14T06:03:16Z</time></trkpt><trkpt lat="14.428625334128231" lon="120.92525536447141"><ele>10.0</ele><time>2026-04-14T06:03:17Z</time></trkpt><trkpt lat="14.42862472845852" lon="120.92516044958792"><ele>10.0</ele><time>2026-04-14T06:03:18Z</time></trkpt><trkpt lat="14.42861958692727" lon="120.92507522998324"><ele>10.0</ele><time>2026-04-14T06:03:19Z</time></trkpt><trkpt lat="14.428608560955606" lon="120.92498517278239"><ele>10.0</ele><time>2026-04-14T06:03:20Z</time></trkpt><trkpt lat="14.428597263476664" lon="120.92489640068132"><ele>10.0</ele><time>2026-04-14T06:03:21Z</time></trkpt><trkpt lat="14.428584304248261" lon="120.92480198218804"><ele>10.0</ele><time>2026-04-14T06:03:22Z</time></trkpt><trkpt lat="14.42857352865191" lon="120.92471462095985"><ele>10.0</ele><time>2026-04-14T06:03:23Z</time></trkpt><trkpt lat="14.42856897941012" lon="120.9246391561588"><ele>10.0</ele><time>2026-04-14T06:03:24Z</time></trkpt><trkpt lat="14.428562067486537" lon="120.92456715022442"><ele>10.0</ele><time>2026-04-14T06:03:25Z</time></trkpt><trkpt lat="14.428559096317606" lon="120.92449709658523"><ele>10.0</ele><time>2026-04-14T06:03:26Z</time></trkpt><trkpt lat="14.428556310495054" lon="120.92442380366013"><ele>10.0</ele><time>2026-04-14T06:03:27Z</time></trkpt><trkpt lat="14.428559046562537" lon="120.92434084846461"><ele>10.0</ele><time>2026-04-14T06:03:28Z</time></trkpt><trkpt lat="14.428559420569334" lon="120.92425904081948"><ele>10.0</ele><time>2026-04-14T06:03:29Z</time></trkpt><trkpt lat="14.428556718287782" lon="120.92418120007501"><ele>10.0</ele><time>2026-04-14T06:03:30Z</time></trkpt><trkpt lat="14.428555947440604" lon="120.92409896236501"><ele>10.0</ele><time>2026-04-14T06:03:31.002Z</time></trkpt><trkpt lat="14.428552011065689" lon="120.92402315143815"><ele>10.0</ele><time>2026-04-14T06:03:32Z</time></trkpt><trkpt lat="14.428549323931025" lon="120.92394079566641"><ele>10.0</ele><time>2026-04-14T06:03:33Z</time></trkpt><trkpt lat="14.428546142699938" lon="120.92385850018508"><ele>10.0</ele><time>2026-04-14T06:03:34Z</time></trkpt><trkpt lat="14.428553350559188" lon="120.92377386649581"><ele>10.0</ele><time>2026-04-14T06:03:35Z</time></trkpt><trkpt lat="14.428558844422199" lon="120.92368851561245"><ele>10.0</ele><time>2026-04-14T06:03:36Z</time></trkpt><trkpt lat="14.42855885769593" lon="120.92360510818753"><ele>10.0</ele><time>2026-04-14T06:03:37Z</time></trkpt><trkpt lat="14.42856056583282" lon="120.92351913009298"><ele>10.0</ele><time>2026-04-14T06:03:38Z</time></trkpt><trkpt lat="14.428565457366963" lon="120.9234405746332"><ele>10.0</ele><time>2026-04-14T06:03:39Z</time></trkpt><trkpt lat="14.428568411977036" lon="120.92336676916818"><ele>10.0</ele><time>2026-04-14T06:03:40Z</time></trkpt><trkpt lat="14.428572349923963" lon="120.92329515339152"><ele>10.0</ele><time>2026-04-14T06:03:41.001Z</time></trkpt><trkpt lat="14.428576365133626" lon="120.92322889083668"><ele>10.0</ele><time>2026-04-14T06:03:42.001Z</time></trkpt><trkpt lat="14.42858050698075" lon="120.92311377468329"><ele>10.333333333333334</ele><time>2026-04-14T06:03:44.001Z</time></trkpt><trkpt lat="14.428584928128036" lon="120.9230111913496"><ele>10.666666666666668</ele><time>2026-04-14T06:03:46.001Z</time></trkpt><trkpt lat="14.428587623871806" lon="120.92294453049692"><ele>11.0</ele><time>2026-04-14T06:03:48.001Z</time></trkpt><trkpt lat="14.428587448295497" lon="120.92286018504143"><ele>11.333333333333334</ele><time>2026-04-14T06:03:50.001Z</time></trkpt><trkpt lat="14.428598723664933" lon="120.92279374412713"><ele>11.666666666666666</ele><time>2026-04-14T06:03:52.001Z</time></trkpt><trkpt lat="14.428590921318737" lon="120.92271904023913"><ele>12.0</ele><time>2026-04-14T06:04:31Z</time></trkpt><trkpt lat="14.428595952877005" lon="120.92264665723866"><ele>12.0</ele><time>2026-04-14T06:04:34Z</time></trkpt><trkpt lat="14.428599773502958" lon="120.92257758038336"><ele>12.0</ele><time>2026-04-14T06:04:37Z</time></trkpt><trkpt lat="14.428604370804578" lon="120.92248739632326"><ele>12.0</ele><time>2026-04-14T06:04:40Z</time></trkpt><trkpt lat="14.428612384737411" lon="120.92240296897661"><ele>12.0</ele><time>2026-04-14T06:04:43Z</time></trkpt><trkpt lat="14.428611943461739" lon="120.92232704303623"><ele>12.0</ele><time>2026-04-14T06:04:46Z</time></trkpt><trkpt lat="14.428566716230032" lon="120.92227778533506"><ele>12.0</ele><time>2026-04-14T06:04:48Z</time></trkpt><trkpt lat="14.42847930978166" lon="120.9222662146767"><ele>11.666666666666666</ele><time>2026-04-14T06:04:50Z</time></trkpt><trkpt lat="14.428381953269009" lon="120.92226603791849"><ele>11.333333333333334</ele><time>2026-04-14T06:04:52Z</time></trkpt><trkpt lat="14.428268023382785" lon="120.92227737333818"><ele>11.0</ele><time>2026-04-14T06:04:54Z</time></trkpt><trkpt lat="14.428167520910367" lon="120.92230256931596"><ele>10.666666666666668</ele><time>2026-04-14T06:04:56Z</time></trkpt><trkpt lat="14.428108852143534" lon="120.92232954438975"><ele>10.333333333333334</ele><time>2026-04-14T06:04:57Z</time></trkpt><trkpt lat="14.428049300954234" lon="120.92236370321582"><ele>10.0</ele><time>2026-04-14T06:04:58Z</time></trkpt><trkpt lat="14.427974106134874" lon="120.92241221090978"><ele>10.0</ele><time>2026-04-14T06:04:59Z</time></trkpt><trkpt lat="14.42789275886078" lon="120.9224696116394"><ele>10.0</ele><time>2026-04-14T06:05:00Z</time></trkpt><trkpt lat="14.427795673609184" lon="120.92252865266725"><ele>10.0</ele><time>2026-04-14T06:05:01Z</time></trkpt><trkpt lat="14.427698148763708" lon="120.92258511636966"><ele>10.0</ele><time>2026-04-14T06:05:02Z</time></trkpt><trkpt lat="14.42759546472046" lon="120.92264773447141"><ele>10.0</ele><time>2026-04-14T06:05:03Z</time></trkpt><trkpt lat="14.427485012219256" lon="120.92271203179708"><ele>10.0</ele><time>2026-04-14T06:05:04Z</time></trkpt><trkpt lat="14.42738255896289" lon="120.92277589849986"><ele>10.0</ele><time>2026-04-14T06:05:05Z</time></trkpt><trkpt lat="14.427278675924274" lon="120.92284691670557"><ele>10.0</ele><time>2026-04-14T06:05:06Z</time></trkpt><trkpt lat="14.427179950283259" lon="120.92291676254533"><ele>10.0</ele><time>2026-04-14T06:05:07Z</time></trkpt><trkpt lat="14.427070342873474" lon="120.9229876178796"><ele>10.0</ele><time>2026-04-14T06:05:08Z</time></trkpt><trkpt lat="14.426977037543827" lon="120.92304924612998"><ele>10.0</ele><time>2026-04-14T06:05:09Z</time></trkpt><trkpt lat="14.426877164960834" lon="120.9231061216424"><ele>10.0</ele><time>2026-04-14T06:05:10Z</time></trkpt><trkpt lat="14.426784152631415" lon="120.92315713048279"><ele>10.0</ele><time>2026-04-14T06:05:11Z</time></trkpt><trkpt lat="14.426669568719896" lon="120.92319676163211"><ele>10.0</ele><time>2026-04-14T06:05:12Z</time></trkpt><trkpt lat="14.426561234420195" lon="120.9232162961277"><ele>10.0</ele><time>2026-04-14T06:05:13Z</time></trkpt><trkpt lat="14.426446856709266" lon="120.9232168648628"><ele>10.0</ele><time>2026-04-14T06:05:14Z</time></trkpt><trkpt lat="14.426320752622749" lon="120.92321201103161"><ele>10.0</ele><time>2026-04-14T06:05:15Z</time></trkpt><trkpt lat="14.426196819566913" lon="120.92320249382071"><ele>10.0</ele><time>2026-04-14T06:05:16Z</time></trkpt><trkpt lat="14.426075031889143" lon="120.92320131186985"><ele>10.0</ele><time>2026-04-14T06:05:17Z</time></trkpt><trkpt lat="14.425966063197269" lon="120.92320087760154"><ele>10.0</ele><time>2026-04-14T06:05:18Z</time></trkpt><trkpt lat="14.425840057034645" lon="120.92320407644733"><ele>10.0</ele><time>2026-04-14T06:05:19Z</time></trkpt><trkpt lat="14.425711665328906" lon="120.92320443732171"><ele>10.0</ele><time>2026-04-14T06:05:20Z</time></trkpt><trkpt lat="14.425588274617407" lon="120.92320501292197"><ele>10.0</ele><time>2026-04-14T06:05:21Z</time></trkpt><trkpt lat="14.425461421349235" lon="120.9232040019358"><ele>10.0</ele><time>2026-04-14T06:05:22Z</time></trkpt><trkpt lat="14.42533146267698" lon="120.9232042544471"><ele>10.0</ele><time>2026-04-14T06:05:23Z</time></trkpt><trkpt lat="14.425204300026056" lon="120.92320219186661"><ele>10.5</ele><time>2026-04-14T06:05:24Z</time></trkpt><trkpt lat="14.425076996728858" lon="120.92320001076796"><ele>11.0</ele><time>2026-04-14T06:05:25Z</time></trkpt><trkpt lat="14.424947809919491" lon="120.92320405012863"><ele>11.5</ele><time>2026-04-14T06:05:26Z</time></trkpt><trkpt lat="14.424817274038551" lon="120.92320460997603"><ele>12.0</ele><time>2026-04-14T06:05:27Z</time></trkpt><trkpt lat="14.424690142759637" lon="120.92320795243234"><ele>12.0</ele><time>2026-04-14T06:05:28Z</time></trkpt><trkpt lat="14.42455470933883" lon="120.92321289480543"><ele>12.0</ele><time>2026-04-14T06:05:29Z</time></trkpt><trkpt lat="14.42442865934287" lon="120.92321548272298"><ele>12.0</ele><time>2026-04-14T06:05:30Z</time></trkpt><trkpt lat="14.424287954318059" lon="120.92321736450816"><ele>12.0</ele><time>2026-04-14T06:05:31Z</time></trkpt><trkpt lat="14.424159507729648" lon="120.92321909727451"><ele>12.0</ele><time>2026-04-14T06:05:32Z</time></trkpt><trkpt lat="14.424031475814843" lon="120.92322706390848"><ele>12.0</ele><time>2026-04-14T06:05:33Z</time></trkpt><trkpt lat="14.423905964086792" lon="120.92323052210284"><ele>12.0</ele><time>2026-04-14T06:05:34Z</time></trkpt><trkpt lat="14.423800057166813" lon="120.9232381385363"><ele>12.0</ele><time>2026-04-14T06:05:35Z</time></trkpt><trkpt lat="14.423686400997138" lon="120.92324737213168"><ele>11.833333333333334</ele><time>2026-04-14T06:05:36Z</time></trkpt><trkpt lat="14.423592866775826" lon="120.92325909307081"><ele>11.666666666666666</ele><time>2026-04-14T06:05:37Z</time></trkpt><trkpt lat="14.423493059707091" lon="120.92327081487902"><ele>11.5</ele><time>2026-04-14T06:05:38Z</time></trkpt><trkpt lat="14.423407125738304" lon="120.92328117763121"><ele>11.333333333333332</ele><time>2026-04-14T06:05:39.001Z</time></trkpt><trkpt lat="14.423324546859968" lon="120.92329151036239"><ele>11.166666666666666</ele><time>2026-04-14T06:05:40.001Z</time></trkpt><trkpt lat="14.423247978105195" lon="120.92329491070217"><ele>11.0</ele><time>2026-04-14T06:05:41.001Z</time></trkpt><trkpt lat="14.42318098561568" lon="120.9233055297832"><ele>11.0</ele><time>2026-04-14T06:05:43.001Z</time></trkpt><trkpt lat="14.423140476805443" lon="120.92337127779626"><ele>11.0</ele><time>2026-04-14T06:05:53.001Z</time></trkpt><trkpt lat="14.450075566205328" lon="120.92424943100194"><ele>9.75</ele><time>2026-04-14T07:20:08.001Z</time></trkpt><trkpt lat="14.450096196665896" lon="120.92434568547708"><ele>8.5</ele><time>2026-04-14T07:20:10.001Z</time></trkpt><trkpt lat="14.450141001421844" lon="120.92454666323378"><ele>7.25</ele><time>2026-04-14T07:20:14.001Z</time></trkpt><trkpt lat="14.450162137278824" lon="120.92465445154592"><ele>6.0</ele><time>2026-04-14T07:20:16.001Z</time></trkpt><trkpt lat="14.450182530126144" lon="120.92474763053845"><ele>6.0</ele><time>2026-04-14T07:20:18.001Z</time></trkpt><trkpt lat="14.450206178995293" lon="120.92485187979113"><ele>6.0</ele><time>2026-04-14T07:20:20.001Z</time></trkpt><trkpt lat="14.45022381010772" lon="120.92492276530025"><ele>6.0</ele><time>2026-04-14T07:20:21.001Z</time></trkpt><trkpt lat="14.450238928869787" lon="120.92500142698192"><ele>6.0</ele><time>2026-04-14T07:20:22.001Z</time></trkpt><trkpt lat="14.450250499300388" lon="120.92507703670859"><ele>6.0</ele><time>2026-04-14T07:20:23.001Z</time></trkpt><trkpt lat="14.450264690018576" lon="120.92515058179866"><ele>6.0</ele><time>2026-04-14T07:20:24.001Z</time></trkpt><trkpt lat="14.4502886564541" lon="120.9252684094654"><ele>6.25</ele><time>2026-04-14T07:20:26.001Z</time></trkpt><trkpt lat="14.450312932826787" lon="120.92538720963191"><ele>6.5</ele><time>2026-04-14T07:20:28.001Z</time></trkpt><trkpt lat="14.450340049906913" lon="120.92551113440219"><ele>6.75</ele><time>2026-04-14T07:20:30.001Z</time></trkpt><trkpt lat="14.450359542591153" lon="120.92562521610523"><ele>7.0</ele><time>2026-04-14T07:20:32.001Z</time></trkpt><trkpt lat="14.450385978668967" lon="120.92575960072638"><ele>7.000000000000001</ele><time>2026-04-14T07:20:34.001Z</time></trkpt><trkpt lat="14.450402079434188" lon="120.92582930344099"><ele>7.0</ele><time>2026-04-14T07:20:35.001Z</time></trkpt><trkpt lat="14.450428579958366" lon="120.92594970568678"><ele>7.0</ele><time>2026-04-14T07:20:37.001Z</time></trkpt><trkpt lat="14.450451028089521" lon="120.92606001525694"><ele>7.0</ele><time>2026-04-14T07:20:39.001Z</time></trkpt><trkpt lat="14.450465851805987" lon="120.92613731919437"><ele>7.000000000000001</ele><time>2026-04-14T07:20:41.001Z</time></trkpt><trkpt lat="14.450480781818639" lon="120.92621162422726"><ele>7.0</ele><time>2026-04-14T07:20:44.001Z</time></trkpt><trkpt lat="14.450498405277797" lon="120.92627620724343"><ele>7.166666666666667</ele><time>2026-04-14T07:20:46.001Z</time></trkpt><trkpt lat="14.450521470505828" lon="120.92638889689114"><ele>7.333333333333334</ele><time>2026-04-14T07:20:48.001Z</time></trkpt><trkpt lat="14.450533937429382" lon="120.92645853011953"><ele>7.5</ele><time>2026-04-14T07:20:49.001Z</time></trkpt><trkpt lat="14.450546969770405" lon="120.92653266589501"><ele>7.666666666666666</ele><time>2026-04-14T07:20:50.001Z</time></trkpt><trkpt lat="14.45056102840277" lon="120.92660785777522"><ele>7.833333333333333</ele><time>2026-04-14T07:20:51.001Z</time></trkpt><trkpt lat="14.450575674750038" lon="120.92668108760074"><ele>8.0</ele><time>2026-04-14T07:20:52.001Z</time></trkpt><trkpt lat="14.45058915185996" lon="120.92675007384838"><ele>7.6000000000000005</ele><time>2026-04-14T07:20:53.001Z</time></trkpt><trkpt lat="14.450616075064946" lon="120.92694150015589"><ele>7.200000000000001</ele><time>2026-04-14T07:20:56.001Z</time></trkpt><trkpt lat="14.450628567801198" lon="120.92706810896715"><ele>6.8</ele><time>2026-04-14T07:20:58.001Z</time></trkpt><trkpt lat="14.450636621615422" lon="120.92713439404628"><ele>6.4</ele><time>2026-04-14T07:20:59.001Z</time></trkpt><trkpt lat="14.45063962348947" lon="120.92720884710505"><ele>6.0</ele><time>2026-04-14T07:21:00.001Z</time></trkpt><trkpt lat="14.45063455481873" lon="120.92727989175638"><ele>6.0</ele><time>2026-04-14T07:21:01.001Z</time></trkpt><trkpt lat="14.450624723283964" lon="120.92735428609825"><ele>6.0</ele><time>2026-04-14T07:21:02.001Z</time></trkpt><trkpt lat="14.45061066840501" lon="120.92743083765245"><ele>6.0</ele><time>2026-04-14T07:21:03.001Z</time></trkpt><trkpt lat="14.45059435422443" lon="120.92751058253818"><ele>6.0</ele><time>2026-04-14T07:21:04.001Z</time></trkpt><trkpt lat="14.450577939511271" lon="120.92759110551476"><ele>6.0</ele><time>2026-04-14T07:21:05.001Z</time></trkpt><trkpt lat="14.450561095434516" lon="120.92766882266433"><ele>6.0</ele><time>2026-04-14T07:21:06.002Z</time></trkpt><trkpt lat="14.450545663432376" lon="120.92774086585801"><ele>6.4</ele><time>2026-04-14T07:21:07.002Z</time></trkpt><trkpt lat="14.45053146301017" lon="120.92780617497621"><ele>6.8</ele><time>2026-04-14T07:21:08.002Z</time></trkpt><trkpt lat="14.450504595328454" lon="120.9279222880603"><ele>7.200000000000001</ele><time>2026-04-14T07:21:10.002Z</time></trkpt><trkpt lat="14.450488214996888" lon="120.92801365802859"><ele>7.6000000000000005</ele><time>2026-04-14T07:21:12.002Z</time></trkpt><trkpt lat="14.450485210458128" lon="120.92808068027762"><ele>8.0</ele><time>2026-04-14T07:21:15.002Z</time></trkpt><trkpt lat="14.450536722827371" lon="120.9282709924065"><ele>8.0</ele><time>2026-04-14T07:21:22.002Z</time></trkpt><trkpt lat="14.45061169902595" lon="120.92835370160459"><ele>8.0</ele><time>2026-04-14T07:21:24.002Z</time></trkpt><trkpt lat="14.45070150931273" lon="120.92839803699964"><ele>8.0</ele><time>2026-04-14T07:21:26.002Z</time></trkpt><trkpt lat="14.450795333469744" lon="120.92841168431376"><ele>8.0</ele><time>2026-04-14T07:21:28.002Z</time></trkpt><trkpt lat="14.450860852759288" lon="120.92840739443328"><ele>8.0</ele><time>2026-04-14T07:21:30.002Z</time></trkpt><trkpt lat="14.450940467414958" lon="120.92839236540465"><ele>8.0</ele><time>2026-04-14T07:21:33.002Z</time></trkpt><trkpt lat="14.451007559043063" lon="120.92838298289382"><ele>8.0</ele><time>2026-04-14T07:21:37.002Z</time></trkpt><trkpt lat="14.451192246243314" lon="120.92835608834419"><ele>8.0</ele><time>2026-04-14T07:21:42Z</time></trkpt><trkpt lat="14.451282686429268" lon="120.92835197368056"><ele>8.0</ele><time>2026-04-14T07:21:44Z</time></trkpt><trkpt lat="14.451361689773119" lon="120.92834599426473"><ele>8.0</ele><time>2026-04-14T07:21:46Z</time></trkpt><trkpt lat="14.451466397784614" lon="120.92833602587285"><ele>7.800000000000001</ele><time>2026-04-14T07:21:48Z</time></trkpt><trkpt lat="14.451575501487943" lon="120.92832712088504"><ele>7.6000000000000005</ele><time>2026-04-14T07:21:50Z</time></trkpt><trkpt lat="14.451690637400423" lon="120.9283176853551"><ele>7.3999999999999995</ele><time>2026-04-14T07:21:52Z</time></trkpt><trkpt lat="14.451809654550221" lon="120.92830599704874"><ele>7.199999999999999</ele><time>2026-04-14T07:21:54Z</time></trkpt><trkpt lat="14.451875185627884" lon="120.92829986215209"><ele>7.0</ele><time>2026-04-14T07:21:55Z</time></trkpt><trkpt lat="14.452000239663608" lon="120.92829364524556"><ele>7.0</ele><time>2026-04-14T07:21:57Z</time></trkpt><trkpt lat="14.452112838594102" lon="120.92830224476656"><ele>7.0</ele><time>2026-04-14T07:21:59Z</time></trkpt><trkpt lat="14.452315169818537" lon="120.92833289656228"><ele>7.0</ele><time>2026-04-14T07:22:03Z</time></trkpt><trkpt lat="14.452431603468597" lon="120.92836584092795"><ele>7.0</ele><time>2026-04-14T07:22:05Z</time></trkpt><trkpt lat="14.45249304737579" lon="120.92839083843111"><ele>6.666666666666667</ele><time>2026-04-14T07:22:06Z</time></trkpt><trkpt lat="14.452558165191542" lon="120.9284217405703"><ele>6.333333333333334</ele><time>2026-04-14T07:22:07Z</time></trkpt><trkpt lat="14.452627054168119" lon="120.92845667976687"><ele>6.0</ele><time>2026-04-14T07:22:08Z</time></trkpt><trkpt lat="14.452696625345203" lon="120.92849722403028"><ele>5.666666666666667</ele><time>2026-04-14T07:22:09Z</time></trkpt><trkpt lat="14.452766487295767" lon="120.92853895046721"><ele>5.333333333333334</ele><time>2026-04-14T07:22:10Z</time></trkpt><trkpt lat="14.452832226153005" lon="120.92858445444367"><ele>5.0</ele><time>2026-04-14T07:22:11Z</time></trkpt><trkpt lat="14.45289424415736" lon="120.92863566600421"><ele>5.0</ele><time>2026-04-14T07:22:12Z</time></trkpt><trkpt lat="14.452956621898979" lon="120.92868885190774"><ele>5.0</ele><time>2026-04-14T07:22:13Z</time></trkpt><trkpt lat="14.453019481963917" lon="120.92874408111503"><ele>5.0</ele><time>2026-04-14T07:22:14Z</time></trkpt><trkpt lat="14.453078694390001" lon="120.92879721826249"><ele>5.0</ele><time>2026-04-14T07:22:15Z</time></trkpt><trkpt lat="14.453138512502202" lon="120.92885236140481"><ele>5.0</ele><time>2026-04-14T07:22:16Z</time></trkpt><trkpt lat="14.453198158205858" lon="120.92891082049418"><ele>5.0</ele><time>2026-04-14T07:22:17Z</time></trkpt><trkpt lat="14.453258441663511" lon="120.92896951778803"><ele>5.0</ele><time>2026-04-14T07:22:18Z</time></trkpt><trkpt lat="14.453322643146285" lon="120.92902750389148"><ele>5.0</ele><time>2026-04-14T07:22:19Z</time></trkpt><trkpt lat="14.45339161489038" lon="120.92909439774871"><ele>5.0</ele><time>2026-04-14T07:22:20.001Z</time></trkpt><trkpt lat="14.453523967800226" lon="120.92921656281248"><ele>5.0</ele><time>2026-04-14T07:22:22.001Z</time></trkpt><trkpt lat="14.453576040832171" lon="120.92926137532126"><ele>5.0</ele><time>2026-04-14T07:22:23.001Z</time></trkpt><trkpt lat="14.45362970767794" lon="120.929311277935"><ele>5.0</ele><time>2026-04-14T07:22:24.001Z</time></trkpt><trkpt lat="14.45369028390541" lon="120.92936966934026"><ele>5.0</ele><time>2026-04-14T07:22:25.001Z</time></trkpt><trkpt lat="14.453756956778149" lon="120.92943176356437"><ele>5.0</ele><time>2026-04-14T07:22:26.001Z</time></trkpt><trkpt lat="14.453828362566961" lon="120.92949598425264"><ele>5.0</ele><time>2026-04-14T07:22:27.001Z</time></trkpt><trkpt lat="14.453903262514821" lon="120.92956067456369"><ele>5.0</ele><time>2026-04-14T07:22:28.001Z</time></trkpt><trkpt lat="14.453982744517544" lon="120.9296239997011"><ele>5.0</ele><time>2026-04-14T07:22:29.001Z</time></trkpt><trkpt lat="14.454063448811583" lon="120.92968568012813"><ele>5.0</ele><time>2026-04-14T07:22:30.001Z</time></trkpt><trkpt lat="14.454154240606334" lon="120.92974549736523"><ele>5.0</ele><time>2026-04-14T07:22:31.001Z</time></trkpt><trkpt lat="14.454246792576212" lon="120.92979389983826"><ele>5.0</ele><time>2026-04-14T07:22:32.001Z</time></trkpt><trkpt lat="14.454338612525373" lon="120.92983244304196"><ele>5.0</ele><time>2026-04-14T07:22:33.001Z</time></trkpt><trkpt lat="14.454426600473207" lon="120.92986182605983"><ele>5.0</ele><time>2026-04-14T07:22:34.001Z</time></trkpt><trkpt lat="14.454509121230894" lon="120.92988490756258"><ele>5.0</ele><time>2026-04-14T07:22:35.001Z</time></trkpt><trkpt lat="14.45459213323274" lon="120.9299014494623"><ele>5.0</ele><time>2026-04-14T07:22:36.001Z</time></trkpt><trkpt lat="14.454681011632635" lon="120.92991673831312"><ele>5.0</ele><time>2026-04-14T07:22:37.001Z</time></trkpt><trkpt lat="14.454776755139715" lon="120.92993359191755"><ele>5.0</ele><time>2026-04-14T07:22:38.001Z</time></trkpt><trkpt lat="14.454878221889429" lon="120.92995290912678"><ele>5.333333333333334</ele><time>2026-04-14T07:22:39.001Z</time></trkpt><trkpt lat="14.454987955812221" lon="120.92997343346613"><ele>5.666666666666667</ele><time>2026-04-14T07:22:40.001Z</time></trkpt><trkpt lat="14.455101702855925" lon="120.92999424000455"><ele>6.0</ele><time>2026-04-14T07:22:41.001Z</time></trkpt><trkpt lat="14.45534485776785" lon="120.93004533728254"><ele>6.5</ele><time>2026-04-14T07:22:43.001Z</time></trkpt><trkpt lat="14.455471527212545" lon="120.93007075359526"><ele>7.0</ele><time>2026-04-14T07:22:44.001Z</time></trkpt><trkpt lat="14.455597922834716" lon="120.9300961510344"><ele>7.5</ele><time>2026-04-14T07:22:45.001Z</time></trkpt><trkpt lat="14.455729051401452" lon="120.93012071707096"><ele>8.0</ele><time>2026-04-14T07:22:46.001Z</time></trkpt><trkpt lat="14.455863938315122" lon="120.93014688255693"><ele>8.0</ele><time>2026-04-14T07:22:47.001Z</time></trkpt><trkpt lat="14.456000438262608" lon="120.930173373061"><ele>8.0</ele><time>2026-04-14T07:22:48.001Z</time></trkpt><trkpt lat="14.456135031499484" lon="120.93020151391609"><ele>8.0</ele><time>2026-04-14T07:22:49.001Z</time></trkpt><trkpt lat="14.456262324003276" lon="120.93022903314257"><ele>8.0</ele><time>2026-04-14T07:22:50.001Z</time></trkpt><trkpt lat="14.456378489508937" lon="120.93024968351284"><ele>8.0</ele><time>2026-04-14T07:22:51.001Z</time></trkpt><trkpt lat="14.45649043053965" lon="120.9302695030063"><ele>8.0</ele><time>2026-04-14T07:22:52.001Z</time></trkpt><trkpt lat="14.456593021829473" lon="120.93029183088177"><ele>8.0</ele><time>2026-04-14T07:22:53.001Z</time></trkpt><trkpt lat="14.456688249723385" lon="120.93031273500081"><ele>8.0</ele><time>2026-04-14T07:22:54.001Z</time></trkpt><trkpt lat="14.456780786305702" lon="120.93033444409957"><ele>8.0</ele><time>2026-04-14T07:22:55.001Z</time></trkpt><trkpt lat="14.456868645131946" lon="120.93037102213086"><ele>8.0</ele><time>2026-04-14T07:22:56.001Z</time></trkpt><trkpt lat="14.45695096161158" lon="120.93041892437185"><ele>8.0</ele><time>2026-04-14T07:22:57.001Z</time></trkpt><trkpt lat="14.457022854382355" lon="120.93048432281941"><ele>8.0</ele><time>2026-04-14T07:22:58.001Z</time></trkpt><trkpt lat="14.457084140904668" lon="120.93056228546762"><ele>8.0</ele><time>2026-04-14T07:22:59.001Z</time></trkpt><trkpt lat="14.4571414521758" lon="120.93064277165793"><ele>8.0</ele><time>2026-04-14T07:23:00.001Z</time></trkpt><trkpt lat="14.457178539528964" lon="120.93073760693247"><ele>7.800000000000001</ele><time>2026-04-14T07:23:01.001Z</time></trkpt><trkpt lat="14.457213281378438" lon="120.93083007003325"><ele>7.6000000000000005</ele><time>2026-04-14T07:23:02.001Z</time></trkpt><trkpt lat="14.45727681894482" lon="120.93100357064635"><ele>7.3999999999999995</ele><time>2026-04-14T07:23:04.001Z</time></trkpt><trkpt lat="14.457305110950822" lon="120.93108295325175"><ele>7.199999999999999</ele><time>2026-04-14T07:23:05.001Z</time></trkpt><trkpt lat="14.45733267314615" lon="120.9311622588429"><ele>7.0</ele><time>2026-04-14T07:23:06.001Z</time></trkpt><trkpt lat="14.457361408286726" lon="120.93124307514601"><ele>7.0</ele><time>2026-04-14T07:23:07.001Z</time></trkpt><trkpt lat="14.457389162454724" lon="120.93132282025421"><ele>6.999999999999999</ele><time>2026-04-14T07:23:08.001Z</time></trkpt><trkpt lat="14.457419867727426" lon="120.93140768115883"><ele>6.999999999999999</ele><time>2026-04-14T07:23:09.001Z</time></trkpt><trkpt lat="14.45745100024583" lon="120.93149712888297"><ele>7.0</ele><time>2026-04-14T07:23:10.001Z</time></trkpt><trkpt lat="14.457481756325906" lon="120.93158848290649"><ele>7.0</ele><time>2026-04-14T07:23:11.001Z</time></trkpt><trkpt lat="14.457514188792542" lon="120.93168257139456"><ele>6.8</ele><time>2026-04-14T07:23:12.001Z</time></trkpt><trkpt lat="14.457548772618356" lon="120.93178017440661"><ele>6.6</ele><time>2026-04-14T07:23:13.001Z</time></trkpt><trkpt lat="14.457583182001075" lon="120.93187997739525"><ele>6.3999999999999995</ele><time>2026-04-14T07:23:14.001Z</time></trkpt><trkpt lat="14.457618426416131" lon="120.93198231100746"><ele>6.199999999999999</ele><time>2026-04-14T07:23:15.001Z</time></trkpt><trkpt lat="14.457654942216756" lon="120.93208556394525"><ele>6.0</ele><time>2026-04-14T07:23:16.001Z</time></trkpt><trkpt lat="14.45769179612013" lon="120.93218943638729"><ele>6.0</ele><time>2026-04-14T07:23:17.001Z</time></trkpt><trkpt lat="14.457727395526032" lon="120.93229712602682"><ele>6.0</ele><time>2026-04-14T07:23:18.001Z</time></trkpt><trkpt lat="14.457757643982825" lon="120.93240684952384"><ele>6.0</ele><time>2026-04-14T07:23:19.001Z</time></trkpt><trkpt lat="14.457783657355133" lon="120.9325174211847"><ele>6.0</ele><time>2026-04-14T07:23:20.001Z</time></trkpt><trkpt lat="14.457804549352552" lon="120.93262807141694"><ele>6.0</ele><time>2026-04-14T07:23:21.001Z</time></trkpt><trkpt lat="14.457821906473894" lon="120.93273929277116"><ele>6.0</ele><time>2026-04-14T07:23:22.001Z</time></trkpt><trkpt lat="14.457838174056057" lon="120.93284994604396"><ele>6.0</ele><time>2026-04-14T07:23:23.001Z</time></trkpt><trkpt lat="14.45786823708945" lon="120.93307145548387"><ele>6.0</ele><time>2026-04-14T07:23:25.001Z</time></trkpt><trkpt lat="14.45787968542136" lon="120.93318157740994"><ele>6.0</ele><time>2026-04-14T07:23:26.001Z</time></trkpt><trkpt lat="14.457889631297292" lon="120.9332924021794"><ele>6.5</ele><time>2026-04-14T07:23:27.001Z</time></trkpt><trkpt lat="14.457901438595197" lon="120.93340681512491"><ele>7.0</ele><time>2026-04-14T07:23:28.001Z</time></trkpt><trkpt lat="14.457915138078375" lon="120.93352143985247"><ele>7.5</ele><time>2026-04-14T07:23:29.001Z</time></trkpt><trkpt lat="14.457928815199773" lon="120.93363881714401"><ele>8.0</ele><time>2026-04-14T07:23:30.001Z</time></trkpt><trkpt lat="14.457940867841469" lon="120.93375670652054"><ele>8.0</ele><time>2026-04-14T07:23:31.001Z</time></trkpt><trkpt lat="14.457950957531907" lon="120.93387173723119"><ele>8.0</ele><time>2026-04-14T07:23:32.001Z</time></trkpt><trkpt lat="14.457963471411865" lon="120.93398352680987"><ele>8.0</ele><time>2026-04-14T07:23:33.001Z</time></trkpt><trkpt lat="14.457976510291516" lon="120.93409352335327"><ele>8.0</ele><time>2026-04-14T07:23:34.001Z</time></trkpt><trkpt lat="14.457990259995583" lon="120.93420028401177"><ele>8.0</ele><time>2026-04-14T07:23:35.001Z</time></trkpt><trkpt lat="14.458006014139052" lon="120.93430488714715"><ele>7.6000000000000005</ele><time>2026-04-14T07:23:36.001Z</time></trkpt><trkpt lat="14.458020802534234" lon="120.93440747289957"><ele>7.200000000000001</ele><time>2026-04-14T07:23:37.001Z</time></trkpt><trkpt lat="14.458043600451248" lon="120.93451310066914"><ele>6.8</ele><time>2026-04-14T07:23:38.001Z</time></trkpt><trkpt lat="14.458068295676483" lon="120.93461854041307"><ele>6.4</ele><time>2026-04-14T07:23:39.001Z</time></trkpt><trkpt lat="14.458094297990995" lon="120.93472338298305"><ele>6.0</ele><time>2026-04-14T07:23:40.001Z</time></trkpt><trkpt lat="14.458121081556326" lon="120.93482890215444"><ele>6.0</ele><time>2026-04-14T07:23:41.001Z</time></trkpt><trkpt lat="14.458147993626444" lon="120.93493816507426"><ele>6.0</ele><time>2026-04-14T07:23:42.001Z</time></trkpt><trkpt lat="14.458173165528263" lon="120.9350498230069"><ele>6.0</ele><time>2026-04-14T07:23:43.002Z</time></trkpt><trkpt lat="14.458197087435652" lon="120.9351616869558"><ele>6.0</ele><time>2026-04-14T07:23:44.002Z</time></trkpt><trkpt lat="14.45824695955595" lon="120.93538866683917"><ele>5.6</ele><time>2026-04-14T07:23:46.002Z</time></trkpt><trkpt lat="14.458273008633123" lon="120.93550426129542"><ele>5.199999999999999</ele><time>2026-04-14T07:23:47.002Z</time></trkpt><trkpt lat="14.45829505074821" lon="120.93561112136656"><ele>4.800000000000001</ele><time>2026-04-14T07:23:48Z</time></trkpt><trkpt lat="14.458313044756315" lon="120.93570968122454"><ele>4.4</ele><time>2026-04-14T07:23:49Z</time></trkpt><trkpt lat="14.45833104219994" lon="120.93580122403021"><ele>4.0</ele><time>2026-04-14T07:23:50Z</time></trkpt><trkpt lat="14.458348671846494" lon="120.93588674641138"><ele>4.166666666666666</ele><time>2026-04-14T07:23:51Z</time></trkpt><trkpt lat="14.458370425513166" lon="120.93596455917637"><ele>4.333333333333333</ele><time>2026-04-14T07:23:52Z</time></trkpt><trkpt lat="14.458396111304973" lon="120.93604280462463"><ele>4.5</ele><time>2026-04-14T07:23:53Z</time></trkpt><trkpt lat="14.458421558065497" lon="120.93612607088463"><ele>4.666666666666667</ele><time>2026-04-14T07:23:54Z</time></trkpt><trkpt lat="14.458446101313694" lon="120.93621927399417"><ele>4.833333333333334</ele><time>2026-04-14T07:23:55Z</time></trkpt><trkpt lat="14.458468296707276" lon="120.93631356766764"><ele>5.0</ele><time>2026-04-14T07:23:56Z</time></trkpt><trkpt lat="14.458482159379608" lon="120.9363931830412"><ele>5.0</ele><time>2026-04-14T07:23:57Z</time></trkpt><trkpt lat="14.458497138237652" lon="120.9364649797197"><ele>5.0</ele><time>2026-04-14T07:23:58Z</time></trkpt><trkpt lat="14.458511763713298" lon="120.9365367213464"><ele>5.0</ele><time>2026-04-14T07:23:59Z</time></trkpt><trkpt lat="14.458526867758112" lon="120.93661256264716"><ele>5.0</ele><time>2026-04-14T07:24:00Z</time></trkpt><trkpt lat="14.45854258724502" lon="120.93669771735004"><ele>5.0</ele><time>2026-04-14T07:24:01Z</time></trkpt><trkpt lat="14.458563412521823" lon="120.93679159736074"><ele>5.0</ele><time>2026-04-14T07:24:02Z</time></trkpt><trkpt lat="14.458586794467198" lon="120.936891718293"><ele>5.666666666666667</ele><time>2026-04-14T07:24:03Z</time></trkpt><trkpt lat="14.458611304167771" lon="120.93699754482432"><ele>6.333333333333334</ele><time>2026-04-14T07:24:04Z</time></trkpt><trkpt lat="14.458634738765886" lon="120.93711110123947"><ele>7.0</ele><time>2026-04-14T07:24:05Z</time></trkpt><trkpt lat="14.458690255977938" lon="120.93734738243822"><ele>7.0</ele><time>2026-04-14T07:24:07Z</time></trkpt><trkpt lat="14.458718405359258" lon="120.93746706780587"><ele>7.0</ele><time>2026-04-14T07:24:08Z</time></trkpt><trkpt lat="14.458744278612896" lon="120.93759071879857"><ele>7.0</ele><time>2026-04-14T07:24:09Z</time></trkpt><trkpt lat="14.45877115084573" lon="120.93771488859525"><ele>7.0</ele><time>2026-04-14T07:24:10Z</time></trkpt><trkpt lat="14.458799380174561" lon="120.93783832510503"><ele>6.6</ele><time>2026-04-14T07:24:11Z</time></trkpt><trkpt lat="14.45882721663098" lon="120.93795686709181"><ele>6.199999999999999</ele><time>2026-04-14T07:24:12Z</time></trkpt><trkpt lat="14.458851734736674" lon="120.93806777480489"><ele>5.8</ele><time>2026-04-14T07:24:13Z</time></trkpt><trkpt lat="14.45887350753707" lon="120.93817153482367"><ele>5.4</ele><time>2026-04-14T07:24:14Z</time></trkpt><trkpt lat="14.458894659552005" lon="120.93826991579974"><ele>5.0</ele><time>2026-04-14T07:24:15Z</time></trkpt><trkpt lat="14.458917376571714" lon="120.93836768998928"><ele>5.6</ele><time>2026-04-14T07:24:16Z</time></trkpt><trkpt lat="14.458941896253204" lon="120.9384672891078"><ele>6.2</ele><time>2026-04-14T07:24:17Z</time></trkpt><trkpt lat="14.458966743957884" lon="120.93856857222937"><ele>6.800000000000001</ele><time>2026-04-14T07:24:18Z</time></trkpt><trkpt lat="14.458990067297366" lon="120.93866968062802"><ele>7.4</ele><time>2026-04-14T07:24:19Z</time></trkpt><trkpt lat="14.45901351488338" lon="120.93877390892855"><ele>8.0</ele><time>2026-04-14T07:24:20Z</time></trkpt><trkpt lat="14.459038751097548" lon="120.93887837464672"><ele>8.0</ele><time>2026-04-14T07:24:21Z</time></trkpt><trkpt lat="14.459064257258744" lon="120.93898288982714"><ele>8.0</ele><time>2026-04-14T07:24:22Z</time></trkpt><trkpt lat="14.459087899580085" lon="120.93908581423064"><ele>8.0</ele><time>2026-04-14T07:24:23Z</time></trkpt><trkpt lat="14.459109133828198" lon="120.9391815527837"><ele>8.0</ele><time>2026-04-14T07:24:24Z</time></trkpt><trkpt lat="14.459125738669858" lon="120.93927484518368"><ele>8.0</ele><time>2026-04-14T07:24:25.001Z</time></trkpt><trkpt lat="14.459142829971556" lon="120.93936790667881"><ele>8.0</ele><time>2026-04-14T07:24:26.001Z</time></trkpt><trkpt lat="14.459179716699312" lon="120.93955413593848"><ele>8.0</ele><time>2026-04-14T07:24:28.001Z</time></trkpt><trkpt lat="14.459197200062272" lon="120.93964359829901"><ele>8.0</ele><time>2026-04-14T07:24:29.001Z</time></trkpt><trkpt lat="14.459211948971708" lon="120.93972571827578"><ele>8.0</ele><time>2026-04-14T07:24:30.001Z</time></trkpt><trkpt lat="14.459223591968282" lon="120.93979810254069"><ele>8.0</ele><time>2026-04-14T07:24:31.001Z</time></trkpt><trkpt lat="14.459247234435392" lon="120.93990559202574"><ele>8.0</ele><time>2026-04-14T07:24:33.001Z</time></trkpt><trkpt lat="14.45926316191632" lon="120.93998786015393"><ele>8.0</ele><time>2026-04-14T07:24:35.001Z</time></trkpt><trkpt lat="14.459285556912084" lon="120.94008520455118"><ele>8.0</ele><time>2026-04-14T07:24:37.001Z</time></trkpt><trkpt lat="14.459304833535002" lon="120.94018319305151"><ele>8.0</ele><time>2026-04-14T07:24:39.001Z</time></trkpt><trkpt lat="14.459309630769932" lon="120.94029610117839"><ele>8.0</ele><time>2026-04-14T07:24:41.001Z</time></trkpt><trkpt lat="14.459314959451275" lon="120.9404135962003"><ele>8.0</ele><time>2026-04-14T07:24:43.001Z</time></trkpt><trkpt lat="14.459328438603306" lon="120.94054201747676"><ele>8.0</ele><time>2026-04-14T07:24:45.001Z</time></trkpt><trkpt lat="14.459345695028754" lon="120.94066614603491"><ele>8.0</ele><time>2026-04-14T07:24:47.001Z</time></trkpt><trkpt lat="14.459369971529936" lon="120.94091291834869"><ele>7.666666666666666</ele><time>2026-04-14T07:24:51.001Z</time></trkpt><trkpt lat="14.459382611950607" lon="120.94102327606717"><ele>7.333333333333333</ele><time>2026-04-14T07:24:53.001Z</time></trkpt><trkpt lat="14.459392371609336" lon="120.94112068916895"><ele>7.0</ele><time>2026-04-14T07:24:55.001Z</time></trkpt><trkpt lat="14.459403435535393" lon="120.94120034208865"><ele>6.666666666666666</ele><time>2026-04-14T07:24:57.001Z</time></trkpt><trkpt lat="14.459411249003198" lon="120.94128410281152"><ele>6.333333333333333</ele><time>2026-04-14T07:24:59.001Z</time></trkpt><trkpt lat="14.459418957513922" lon="120.9413737127379"><ele>6.0</ele><time>2026-04-14T07:25:01.001Z</time></trkpt><trkpt lat="14.459420381331046" lon="120.9415101241663"><ele>6.0</ele><time>2026-04-14T07:25:03.001Z</time></trkpt><trkpt lat="14.459426493998041" lon="120.94159834650812"><ele>6.0</ele><time>2026-04-14T07:25:04.001Z</time></trkpt><trkpt lat="14.459435069064808" lon="120.94169660384193"><ele>6.0</ele><time>2026-04-14T07:25:05.001Z</time></trkpt><trkpt lat="14.45944437516909" lon="120.9418021097434"><ele>6.0</ele><time>2026-04-14T07:25:06.001Z</time></trkpt><trkpt lat="14.459453377528032" lon="120.94191183092191"><ele>6.0</ele><time>2026-04-14T07:25:07.001Z</time></trkpt><trkpt lat="14.459462654471626" lon="120.94202510958443"><ele>6.666666666666666</ele><time>2026-04-14T07:25:08.001Z</time></trkpt><trkpt lat="14.459484339491466" lon="120.9422620929939"><ele>7.333333333333333</ele><time>2026-04-14T07:25:10.001Z</time></trkpt><trkpt lat="14.45949304126542" lon="120.94238207858118"><ele>8.0</ele><time>2026-04-14T07:25:11.001Z</time></trkpt><trkpt lat="14.45950451004343" lon="120.94250079466286"><ele>8.0</ele><time>2026-04-14T07:25:12.001Z</time></trkpt><trkpt lat="14.459515333502504" lon="120.94261786990413"><ele>8.0</ele><time>2026-04-14T07:25:13.001Z</time></trkpt><trkpt lat="14.459527057578294" lon="120.94272722382387"><ele>8.0</ele><time>2026-04-14T07:25:14.001Z</time></trkpt><trkpt lat="14.459537889297543" lon="120.9428294421129"><ele>8.0</ele><time>2026-04-14T07:25:15.001Z</time></trkpt><trkpt lat="14.459547662286202" lon="120.94292862837668"><ele>8.0</ele><time>2026-04-14T07:25:16.001Z</time></trkpt><trkpt lat="14.45955612317349" lon="120.94302346895414"><ele>8.0</ele><time>2026-04-14T07:25:17.001Z</time></trkpt><trkpt lat="14.45956371694313" lon="120.94311443270547"><ele>8.0</ele><time>2026-04-14T07:25:18.001Z</time></trkpt><trkpt lat="14.459571350732517" lon="120.94320470486393"><ele>8.0</ele><time>2026-04-14T07:25:19.001Z</time></trkpt><trkpt lat="14.459579294658871" lon="120.94329767666947"><ele>8.0</ele><time>2026-04-14T07:25:20.001Z</time></trkpt><trkpt lat="14.459586372812096" lon="120.94339343768114"><ele>8.0</ele><time>2026-04-14T07:25:21.001Z</time></trkpt><trkpt lat="14.45959422896293" lon="120.94349005334128"><ele>8.0</ele><time>2026-04-14T07:25:22.001Z</time></trkpt><trkpt lat="14.459604854309074" lon="120.94358864620801"><ele>8.0</ele><time>2026-04-14T07:25:23.001Z</time></trkpt><trkpt lat="14.459617010059855" lon="120.94368949974442"><ele>8.0</ele><time>2026-04-14T07:25:24.001Z</time></trkpt><trkpt lat="14.459629580904823" lon="120.9437908369154"><ele>8.0</ele><time>2026-04-14T07:25:25.001Z</time></trkpt><trkpt lat="14.459638552464817" lon="120.9438862134458"><ele>8.0</ele><time>2026-04-14T07:25:26.001Z</time></trkpt><trkpt lat="14.459644707735169" lon="120.94397345150492"><ele>8.0</ele><time>2026-04-14T07:25:27.001Z</time></trkpt><trkpt lat="14.459652636562447" lon="120.94405432532487"><ele>8.0</ele><time>2026-04-14T07:25:28.001Z</time></trkpt><trkpt lat="14.459658720464857" lon="120.94412958586877"><ele>8.0</ele><time>2026-04-14T07:25:29.001Z</time></trkpt><trkpt lat="14.459670524969743" lon="120.94427503940994"><ele>8.0</ele><time>2026-04-14T07:25:31.001Z</time></trkpt><trkpt lat="14.459677280666305" lon="120.94435649309821"><ele>8.0</ele><time>2026-04-14T07:25:32.001Z</time></trkpt><trkpt lat="14.45968289239554" lon="120.944449941585"><ele>7.6000000000000005</ele><time>2026-04-14T07:25:33.001Z</time></trkpt><trkpt lat="14.45968676293732" lon="120.94455222072953"><ele>7.200000000000001</ele><time>2026-04-14T07:25:34.001Z</time></trkpt><trkpt lat="14.459688708510237" lon="120.94465867166224"><ele>6.8</ele><time>2026-04-14T07:25:35.001Z</time></trkpt><trkpt lat="14.459693017105392" lon="120.94476872740874"><ele>6.4</ele><time>2026-04-14T07:25:36.001Z</time></trkpt><trkpt lat="14.459699314064387" lon="120.9448805392349"><ele>6.0</ele><time>2026-04-14T07:25:37.001Z</time></trkpt><trkpt lat="14.459705796527881" lon="120.94499856640546"><ele>6.25</ele><time>2026-04-14T07:25:38.001Z</time></trkpt><trkpt lat="14.45971067830553" lon="120.94511678626368"><ele>6.5</ele><time>2026-04-14T07:25:39.001Z</time></trkpt><trkpt lat="14.459715124893284" lon="120.94523551471751"><ele>6.75</ele><time>2026-04-14T07:25:40.001Z</time></trkpt><trkpt lat="14.45971669177909" lon="120.94535313601028"><ele>7.0</ele><time>2026-04-14T07:25:41.001Z</time></trkpt><trkpt lat="14.459721684480924" lon="120.94546967981863"><ele>7.0</ele><time>2026-04-14T07:25:42.001Z</time></trkpt><trkpt lat="14.459726237089955" lon="120.94558132045775"><ele>6.999999999999999</ele><time>2026-04-14T07:25:43.001Z</time></trkpt><trkpt lat="14.459729411314433" lon="120.94568381326049"><ele>6.999999999999999</ele><time>2026-04-14T07:25:44.001Z</time></trkpt><trkpt lat="14.459732576218242" lon="120.94578410342427"><ele>7.0</ele><time>2026-04-14T07:25:45.001Z</time></trkpt><trkpt lat="14.45973575327943" lon="120.94588791198454"><ele>7.0</ele><time>2026-04-14T07:25:46.002Z</time></trkpt><trkpt lat="14.459738639761946" lon="120.94600047705579"><ele>7.25</ele><time>2026-04-14T07:25:47.002Z</time></trkpt><trkpt lat="14.459738407760057" lon="120.9461149772059"><ele>7.5</ele><time>2026-04-14T07:25:48.002Z</time></trkpt><trkpt lat="14.459740600758558" lon="120.94623170800776"><ele>7.75</ele><time>2026-04-14T07:25:49.002Z</time></trkpt><trkpt lat="14.459744172584312" lon="120.94634960988208"><ele>8.0</ele><time>2026-04-14T07:25:50.002Z</time></trkpt><trkpt lat="14.459752471179629" lon="120.94658551023856"><ele>8.0</ele><time>2026-04-14T07:25:52.002Z</time></trkpt><trkpt lat="14.45975670972735" lon="120.9467037264871"><ele>8.0</ele><time>2026-04-14T07:25:53.002Z</time></trkpt><trkpt lat="14.459763804572388" lon="120.94682291158249"><ele>8.0</ele><time>2026-04-14T07:25:54Z</time></trkpt><trkpt lat="14.459770972535281" lon="120.94694248029529"><ele>8.0</ele><time>2026-04-14T07:25:55Z</time></trkpt><trkpt lat="14.459780833700796" lon="120.94706072035736"><ele>8.0</ele><time>2026-04-14T07:25:56Z</time></trkpt><trkpt lat="14.459791531219487" lon="120.94717832424102"><ele>8.0</ele><time>2026-04-14T07:25:57Z</time></trkpt><trkpt lat="14.45980276126661" lon="120.94729768252724"><ele>8.0</ele><time>2026-04-14T07:25:58Z</time></trkpt><trkpt lat="14.45981479111467" lon="120.94741750774031"><ele>8.0</ele><time>2026-04-14T07:25:59Z</time></trkpt><trkpt lat="14.459821268358555" lon="120.94754116615799"><ele>7.75</ele><time>2026-04-14T07:26:00Z</time></trkpt><trkpt lat="14.459827144482889" lon="120.9476675855412"><ele>7.5</ele><time>2026-04-14T07:26:01Z</time></trkpt><trkpt lat="14.45983890853006" lon="120.94779832854783"><ele>7.25</ele><time>2026-04-14T07:26:02Z</time></trkpt><trkpt lat="14.45985157065069" lon="120.94793128731497"><ele>7.0</ele><time>2026-04-14T07:26:03Z</time></trkpt><trkpt lat="14.459863644016114" lon="120.94806766386466"><ele>7.0</ele><time>2026-04-14T07:26:04Z</time></trkpt><trkpt lat="14.45987615411095" lon="120.94820411017494"><ele>7.0</ele><time>2026-04-14T07:26:05Z</time></trkpt><trkpt lat="14.459890645316642" lon="120.94834003962528"><ele>7.0</ele><time>2026-04-14T07:26:06Z</time></trkpt><trkpt lat="14.459907876349385" lon="120.94847589188126"><ele>7.0</ele><time>2026-04-14T07:26:07Z</time></trkpt><trkpt lat="14.459926866681622" lon="120.94861364868936"><ele>7.0</ele><time>2026-04-14T07:26:08Z</time></trkpt><trkpt lat="14.459943150876063" lon="120.94875413315725"><ele>7.0</ele><time>2026-04-14T07:26:09Z</time></trkpt><trkpt lat="14.459956252973413" lon="120.94889232363059"><ele>7.0</ele><time>2026-04-14T07:26:10Z</time></trkpt><trkpt lat="14.459967829697684" lon="120.94903521728153"><ele>7.0</ele><time>2026-04-14T07:26:11Z</time></trkpt><trkpt lat="14.459992121145" lon="120.94931695226792"><ele>7.0</ele><time>2026-04-14T07:26:13Z</time></trkpt><trkpt lat="14.460005131743236" lon="120.94945920658873"><ele>7.0</ele><time>2026-04-14T07:26:14Z</time></trkpt><trkpt lat="14.460018332882138" lon="120.94959066042682"><ele>7.0</ele><time>2026-04-14T07:26:15Z</time></trkpt><trkpt lat="14.46003272493023" lon="120.9497192172324"><ele>7.0</ele><time>2026-04-14T07:26:16Z</time></trkpt><trkpt lat="14.460046047455176" lon="120.94983977195815"><ele>7.0</ele><time>2026-04-14T07:26:17Z</time></trkpt><trkpt lat="14.460058992998004" lon="120.94995297264958"><ele>6.999999999999999</ele><time>2026-04-14T07:26:18Z</time></trkpt><trkpt lat="14.460071920338486" lon="120.95005691273575"><ele>6.999999999999999</ele><time>2026-04-14T07:26:19Z</time></trkpt><trkpt lat="14.460085649510654" lon="120.95015911793793"><ele>7.0</ele><time>2026-04-14T07:26:20Z</time></trkpt><trkpt lat="14.460100274897792" lon="120.95026128318476"><ele>7.0</ele><time>2026-04-14T07:26:21Z</time></trkpt><trkpt lat="14.460113906547022" lon="120.95036237201938"><ele>7.199999999999999</ele><time>2026-04-14T07:26:22Z</time></trkpt><trkpt lat="14.460125912003155" lon="120.95046492715001"><ele>7.3999999999999995</ele><time>2026-04-14T07:26:23Z</time></trkpt><trkpt lat="14.460133239949613" lon="120.95056978399548"><ele>7.6000000000000005</ele><time>2026-04-14T07:26:24Z</time></trkpt><trkpt lat="14.4601409660023" lon="120.95067675373734"><ele>7.800000000000001</ele><time>2026-04-14T07:26:25Z</time></trkpt><trkpt lat="14.460150112064046" lon="120.95078301889895"><ele>8.0</ele><time>2026-04-14T07:26:26Z</time></trkpt><trkpt lat="14.460159195849878" lon="120.95088507648339"><ele>8.0</ele><time>2026-04-14T07:26:27Z</time></trkpt><trkpt lat="14.460170324258126" lon="120.95098080388489"><ele>8.0</ele><time>2026-04-14T07:26:28Z</time></trkpt><trkpt lat="14.460182080470174" lon="120.95108075183764"><ele>8.0</ele><time>2026-04-14T07:26:29Z</time></trkpt><trkpt lat="14.460193757481195" lon="120.95118070368027"><ele>8.0</ele><time>2026-04-14T07:26:30Z</time></trkpt><trkpt lat="14.460202809140608" lon="120.95128419357742"><ele>8.0</ele><time>2026-04-14T07:26:31Z</time></trkpt><trkpt lat="14.460212293165014" lon="120.95139593282222"><ele>8.0</ele><time>2026-04-14T07:26:32Z</time></trkpt><trkpt lat="14.460231303293593" lon="120.95162662852951"><ele>8.0</ele><time>2026-04-14T07:26:34.001Z</time></trkpt><trkpt lat="14.460245054634097" lon="120.95174433622402"><ele>8.0</ele><time>2026-04-14T07:26:35.001Z</time></trkpt><trkpt lat="14.46025907305325" lon="120.95186178130177"><ele>7.75</ele><time>2026-04-14T07:26:36.001Z</time></trkpt><trkpt lat="14.46027085428562" lon="120.95198218674966"><ele>7.5</ele><time>2026-04-14T07:26:37.001Z</time></trkpt><trkpt lat="14.460285574758075" lon="120.95210475854613"><ele>7.25</ele><time>2026-04-14T07:26:38.001Z</time></trkpt><trkpt lat="14.460298233778918" lon="120.95222725040674"><ele>7.0</ele><time>2026-04-14T07:26:39.001Z</time></trkpt><trkpt lat="14.460309932246691" lon="120.95235124371774"><ele>7.0</ele><time>2026-04-14T07:26:40.001Z</time></trkpt><trkpt lat="14.460321666464713" lon="120.9524747265628"><ele>7.0</ele><time>2026-04-14T07:26:41.001Z</time></trkpt><trkpt lat="14.46033495210284" lon="120.95260054415155"><ele>7.0</ele><time>2026-04-14T07:26:42.001Z</time></trkpt><trkpt lat="14.460349978330301" lon="120.95272472101432"><ele>7.0</ele><time>2026-04-14T07:26:43.001Z</time></trkpt><trkpt lat="14.4603652952992" lon="120.95284711556224"><ele>7.0</ele><time>2026-04-14T07:26:44.001Z</time></trkpt><trkpt lat="14.460383160004469" lon="120.95296049005464"><ele>6.999999999999999</ele><time>2026-04-14T07:26:45.001Z</time></trkpt><trkpt lat="14.460403092325365" lon="120.9530645755461"><ele>6.999999999999999</ele><time>2026-04-14T07:26:46.001Z</time></trkpt><trkpt lat="14.460421543219137" lon="120.95315946707338"><ele>7.0</ele><time>2026-04-14T07:26:47.001Z</time></trkpt><trkpt lat="14.460439282468656" lon="120.95322883378964"><ele>7.0</ele><time>2026-04-14T07:26:48.001Z</time></trkpt><trkpt lat="14.460470734043179" lon="120.95333810485722"><ele>7.25</ele><time>2026-04-14T07:26:50.001Z</time></trkpt><trkpt lat="14.460497232340018" lon="120.95343959334791"><ele>7.5</ele><time>2026-04-14T07:26:52.001Z</time></trkpt><trkpt lat="14.46052917456002" lon="120.95355966696492"><ele>7.75</ele><time>2026-04-14T07:26:54.001Z</time></trkpt><trkpt lat="14.460567628765189" lon="120.95371249034658"><ele>8.0</ele><time>2026-04-14T07:26:56.001Z</time></trkpt><trkpt lat="14.460588218770738" lon="120.95379325345263"><ele>8.0</ele><time>2026-04-14T07:26:57.001Z</time></trkpt><trkpt lat="14.460612944116725" lon="120.95388205866145"><ele>8.0</ele><time>2026-04-14T07:26:58.001Z</time></trkpt><trkpt lat="14.460639271130802" lon="120.95397508851778"><ele>8.0</ele><time>2026-04-14T07:26:59.001Z</time></trkpt><trkpt lat="14.460665533056808" lon="120.95406665804555"><ele>8.0</ele><time>2026-04-14T07:27:00.001Z</time></trkpt><trkpt lat="14.460692692081258" lon="120.95416669853584"><ele>8.0</ele><time>2026-04-14T07:27:01.001Z</time></trkpt><trkpt lat="14.460720550564693" lon="120.95426652154293"><ele>8.0</ele><time>2026-04-14T07:27:02.001Z</time></trkpt><trkpt lat="14.460747552737807" lon="120.95436498719414"><ele>8.0</ele><time>2026-04-14T07:27:03.001Z</time></trkpt><trkpt lat="14.460774924286328" lon="120.95446512245324"><ele>8.0</ele><time>2026-04-14T07:27:04.001Z</time></trkpt><trkpt lat="14.460801238882068" lon="120.95456310990016"><ele>8.0</ele><time>2026-04-14T07:27:05.001Z</time></trkpt><trkpt lat="14.460825264258549" lon="120.95465444227003"><ele>8.0</ele><time>2026-04-14T07:27:06.001Z</time></trkpt><trkpt lat="14.460848130524953" lon="120.9547415378946"><ele>7.999999999999999</ele><time>2026-04-14T07:27:07.001Z</time></trkpt><trkpt lat="14.460872233010583" lon="120.95482470701816"><ele>8.0</ele><time>2026-04-14T07:27:08.001Z</time></trkpt><trkpt lat="14.46089449494274" lon="120.954907192491"><ele>8.0</ele><time>2026-04-14T07:27:09.001Z</time></trkpt><trkpt lat="14.460916364494365" lon="120.95498883043895"><ele>8.0</ele><time>2026-04-14T07:27:10.001Z</time></trkpt><trkpt lat="14.460938345392652" lon="120.95506915397895"><ele>7.999999999999999</ele><time>2026-04-14T07:27:11.001Z</time></trkpt><trkpt lat="14.460960104542256" lon="120.95514851927928"><ele>8.0</ele><time>2026-04-14T07:27:12.001Z</time></trkpt><trkpt lat="14.460982899052896" lon="120.95522591244554"><ele>8.4</ele><time>2026-04-14T07:27:13.001Z</time></trkpt><trkpt lat="14.461003723261141" lon="120.95530281569563"><ele>8.8</ele><time>2026-04-14T07:27:14.001Z</time></trkpt><trkpt lat="14.461022526781392" lon="120.95537474815822"><ele>9.2</ele><time>2026-04-14T07:27:15.001Z</time></trkpt><trkpt lat="14.461071264581442" lon="120.95556166687454"><ele>9.6</ele><time>2026-04-14T07:27:18.001Z</time></trkpt><trkpt lat="14.46110006266041" lon="120.95566424744555"><ele>10.0</ele><time>2026-04-14T07:27:20.001Z</time></trkpt><trkpt lat="14.461130368399749" lon="120.95577769786998"><ele>9.2</ele><time>2026-04-14T07:27:22.001Z</time></trkpt><trkpt lat="14.461165780273639" lon="120.95589332573707"><ele>8.4</ele><time>2026-04-14T07:27:24.001Z</time></trkpt><trkpt lat="14.461200113457139" lon="120.95600798573827"><ele>7.6</ele><time>2026-04-14T07:27:26.001Z</time></trkpt><trkpt lat="14.461230202227602" lon="120.95612636802132"><ele>6.8</ele><time>2026-04-14T07:27:28.001Z</time></trkpt><trkpt lat="14.4612449319175" lon="120.95619053100985"><ele>6.0</ele><time>2026-04-14T07:27:29.001Z</time></trkpt><trkpt lat="14.46127901222389" lon="120.95631206987096"><ele>6.0</ele><time>2026-04-14T07:27:31.001Z</time></trkpt><trkpt lat="14.461311343729822" lon="120.95643030024824"><ele>6.0</ele><time>2026-04-14T07:27:33.001Z</time></trkpt><trkpt lat="14.461339063338238" lon="120.95654708272836"><ele>6.0</ele><time>2026-04-14T07:27:35.001Z</time></trkpt><trkpt lat="14.461369110386574" lon="120.95666264608214"><ele>6.0</ele><time>2026-04-14T07:27:37.001Z</time></trkpt><trkpt lat="14.46140441247603" lon="120.95678940730221"><ele>6.0</ele><time>2026-04-14T07:27:39.001Z</time></trkpt><trkpt lat="14.461426399713693" lon="120.95685729259448"><ele>6.0</ele><time>2026-04-14T07:27:40.001Z</time></trkpt><trkpt lat="14.461451310427018" lon="120.95693696015817"><ele>6.0</ele><time>2026-04-14T07:27:41.001Z</time></trkpt><trkpt lat="14.461478431855904" lon="120.9570281108595"><ele>6.0</ele><time>2026-04-14T07:27:42.001Z</time></trkpt><trkpt lat="14.461502693055474" lon="120.95712550048812"><ele>6.0</ele><time>2026-04-14T07:27:43.001Z</time></trkpt><trkpt lat="14.46152216561214" lon="120.95721976585159"><ele>6.0</ele><time>2026-04-14T07:27:44.001Z</time></trkpt><trkpt lat="14.46154005043035" lon="120.95730525375514"><ele>6.0</ele><time>2026-04-14T07:27:45.001Z</time></trkpt><trkpt lat="14.461558881125903" lon="120.95737675975876"><ele>6.0</ele><time>2026-04-14T07:27:46.001Z</time></trkpt><trkpt lat="14.461574975895731" lon="120.9574418118075"><ele>6.0</ele><time>2026-04-14T07:27:47.001Z</time></trkpt><trkpt lat="14.461612249402565" lon="120.95756400244498"><ele>6.0</ele><time>2026-04-14T07:27:49.001Z</time></trkpt><trkpt lat="14.461646863323429" lon="120.9576837936702"><ele>6.0</ele><time>2026-04-14T07:27:51.001Z</time></trkpt><trkpt lat="14.461672128101316" lon="120.9578007881094"><ele>6.25</ele><time>2026-04-14T07:27:53.002Z</time></trkpt><trkpt lat="14.461696206942742" lon="120.95792806416553"><ele>6.5</ele><time>2026-04-14T07:27:55.002Z</time></trkpt><trkpt lat="14.461727464073144" lon="120.95804616781133"><ele>6.75</ele><time>2026-04-14T07:27:57.002Z</time></trkpt><trkpt lat="14.461754172224525" lon="120.95814461042274"><ele>7.0</ele><time>2026-04-14T07:27:59.002Z</time></trkpt><trkpt lat="14.461826232567635" lon="120.95833881220342"><ele>7.166666666666667</ele><time>2026-04-14T07:28:03Z</time></trkpt><trkpt lat="14.461855425191743" lon="120.95842838002649"><ele>7.333333333333334</ele><time>2026-04-14T07:28:05Z</time></trkpt><trkpt lat="14.461878773078643" lon="120.9585122921253"><ele>7.5</ele><time>2026-04-14T07:28:07Z</time></trkpt><trkpt lat="14.461902951165035" lon="120.95859251298754"><ele>7.666666666666666</ele><time>2026-04-14T07:28:09Z</time></trkpt><trkpt lat="14.461927996417156" lon="120.95870053984149"><ele>7.833333333333333</ele><time>2026-04-14T07:28:11Z</time></trkpt><trkpt lat="14.461949399559336" lon="120.95878247335378"><ele>8.0</ele><time>2026-04-14T07:28:13Z</time></trkpt><trkpt lat="14.461968681382903" lon="120.95885015401906"><ele>8.0</ele><time>2026-04-14T07:28:15Z</time></trkpt><trkpt lat="14.461997389013039" lon="120.95894696720603"><ele>8.0</ele><time>2026-04-14T07:28:17Z</time></trkpt><trkpt lat="14.462019913176537" lon="120.95904057740216"><ele>8.0</ele><time>2026-04-14T07:28:19Z</time></trkpt><trkpt lat="14.462032484935682" lon="120.95910704172245"><ele>8.0</ele><time>2026-04-14T07:28:21Z</time></trkpt><trkpt lat="14.462070412767616" lon="120.9592719136631"><ele>8.0</ele><time>2026-04-14T07:28:26Z</time></trkpt><trkpt lat="14.46209224600478" lon="120.95935128171271"><ele>7.4</ele><time>2026-04-14T07:28:28Z</time></trkpt><trkpt lat="14.462115800404577" lon="120.95941930329305"><ele>6.800000000000001</ele><time>2026-04-14T07:28:30Z</time></trkpt><trkpt lat="14.46214334618214" lon="120.95952127321006"><ele>6.2</ele><time>2026-04-14T07:28:33Z</time></trkpt><trkpt lat="14.46217840789121" lon="120.9596231892354"><ele>5.6</ele><time>2026-04-14T07:28:35Z</time></trkpt><trkpt lat="14.462214454301314" lon="120.95975295487958"><ele>5.0</ele><time>2026-04-14T07:28:37Z</time></trkpt><trkpt lat="14.462230294207423" lon="120.95982776354533"><ele>5.0</ele><time>2026-04-14T07:28:38Z</time></trkpt><trkpt lat="14.462245868651468" lon="120.95990845267411"><ele>5.0</ele><time>2026-04-14T07:28:39Z</time></trkpt><trkpt lat="14.46226496735681" lon="120.95999264932595"><ele>5.0</ele><time>2026-04-14T07:28:40Z</time></trkpt><trkpt lat="14.46228940636928" lon="120.96007933258038"><ele>5.0</ele><time>2026-04-14T07:28:41Z</time></trkpt><trkpt lat="14.462313612720223" lon="120.96016544477574"><ele>5.0</ele><time>2026-04-14T07:28:42Z</time></trkpt><trkpt lat="14.462355389768426" lon="120.96032140262942"><ele>5.0</ele><time>2026-04-14T07:28:44.001Z</time></trkpt><trkpt lat="14.462374873581572" lon="120.96039500638322"><ele>5.0</ele><time>2026-04-14T07:28:45.001Z</time></trkpt><trkpt lat="14.462390701950154" lon="120.96046725090063"><ele>5.0</ele><time>2026-04-14T07:28:46.001Z</time></trkpt><trkpt lat="14.46241200957411" lon="120.96053879801924"><ele>5.0</ele><time>2026-04-14T07:28:47.001Z</time></trkpt><trkpt lat="14.462433974390613" lon="120.96061065038795"><ele>5.0</ele><time>2026-04-14T07:28:48.001Z</time></trkpt><trkpt lat="14.462452280410822" lon="120.9606835919246"><ele>5.0</ele><time>2026-04-14T07:28:49.001Z</time></trkpt><trkpt lat="14.462470195391289" lon="120.9607598440098"><ele>5.0</ele><time>2026-04-14T07:28:50.001Z</time></trkpt><trkpt lat="14.462487096654387" lon="120.9608344506196"><ele>5.5</ele><time>2026-04-14T07:28:51.001Z</time></trkpt><trkpt lat="14.462498016059982" lon="120.96091297276506"><ele>6.0</ele><time>2026-04-14T07:28:52.001Z</time></trkpt><trkpt lat="14.462503336683548" lon="120.96099728798362"><ele>6.5</ele><time>2026-04-14T07:28:53.001Z</time></trkpt><trkpt lat="14.462495089626845" lon="120.96108083114709"><ele>7.0</ele><time>2026-04-14T07:28:54.001Z</time></trkpt><trkpt lat="14.462491531908189" lon="120.961166579577"><ele>7.499999999999999</ele><time>2026-04-14T07:28:55.001Z</time></trkpt><trkpt lat="14.462481817337167" lon="120.96125468783774"><ele>8.0</ele><time>2026-04-14T07:28:56.001Z</time></trkpt><trkpt lat="14.462472905311124" lon="120.96134487167296"><ele>8.0</ele><time>2026-04-14T07:28:57.001Z</time></trkpt><trkpt lat="14.462449104928481" lon="120.9614384490304"><ele>8.0</ele><time>2026-04-14T07:28:58.001Z</time></trkpt><trkpt lat="14.462421791097817" lon="120.961534929417"><ele>8.0</ele><time>2026-04-14T07:28:59.001Z</time></trkpt><trkpt lat="14.462385833815146" lon="120.96163586303302"><ele>8.0</ele><time>2026-04-14T07:29:00.001Z</time></trkpt><trkpt lat="14.462345346323014" lon="120.96173490096785"><ele>8.0</ele><time>2026-04-14T07:29:01.001Z</time></trkpt><trkpt lat="14.462307370184686" lon="120.96183420241921"><ele>8.600000000000001</ele><time>2026-04-14T07:29:02.001Z</time></trkpt><trkpt lat="14.462276658550799" lon="120.96192497586624"><ele>9.200000000000001</ele><time>2026-04-14T07:29:03.001Z</time></trkpt><trkpt lat="14.462223294763012" lon="120.96209236741198"><ele>9.8</ele><time>2026-04-14T07:29:05.001Z</time></trkpt><trkpt lat="14.462203847240929" lon="120.96215779133422"><ele>10.4</ele><time>2026-04-14T07:29:06.001Z</time></trkpt><trkpt lat="14.462179203844933" lon="120.96225218710971"><ele>11.0</ele><time>2026-04-14T07:29:08.001Z</time></trkpt><trkpt lat="14.46215609225144" lon="120.9623388478678"><ele>11.0</ele><time>2026-04-14T07:29:11.001Z</time></trkpt><trkpt lat="14.462128168430624" lon="120.96240623436343"><ele>11.0</ele><time>2026-04-14T07:29:13.001Z</time></trkpt><trkpt lat="14.46209822690393" lon="120.9624878582259"><ele>11.0</ele><time>2026-04-14T07:29:15.001Z</time></trkpt><trkpt lat="14.462036558595559" lon="120.96259702479747"><ele>11.0</ele><time>2026-04-14T07:29:17.001Z</time></trkpt><trkpt lat="14.461979406464701" lon="120.96267976347428"><ele>11.0</ele><time>2026-04-14T07:29:19.001Z</time></trkpt><trkpt lat="14.461936232556658" lon="120.96274691868348"><ele>10.4</ele><time>2026-04-14T07:29:22.001Z</time></trkpt><trkpt lat="14.46191596324281" lon="120.96281927972991"><ele>9.8</ele><time>2026-04-14T07:29:28.001Z</time></trkpt><trkpt lat="14.461927000617603" lon="120.96300814347076"><ele>9.200000000000001</ele><time>2026-04-14T07:29:31.001Z</time></trkpt><trkpt lat="14.461953508869003" lon="120.96307357426588"><ele>8.600000000000001</ele><time>2026-04-14T07:29:32.001Z</time></trkpt><trkpt lat="14.461991412071228" lon="120.96314091111448"><ele>8.0</ele><time>2026-04-14T07:29:33.001Z</time></trkpt><trkpt lat="14.462037447810753" lon="120.96321197448535"><ele>8.0</ele><time>2026-04-14T07:29:34.001Z</time></trkpt><trkpt lat="14.462084638008616" lon="120.96328861305804"><ele>8.0</ele><time>2026-04-14T07:29:35.001Z</time></trkpt><trkpt lat="14.46213516441587" lon="120.96336875026773"><ele>8.0</ele><time>2026-04-14T07:29:36.001Z</time></trkpt><trkpt lat="14.462189468756804" lon="120.963450909193"><ele>8.0</ele><time>2026-04-14T07:29:37.001Z</time></trkpt><trkpt lat="14.46224471164423" lon="120.96353304947795"><ele>8.0</ele><time>2026-04-14T07:29:38.001Z</time></trkpt><trkpt lat="14.462298945279" lon="120.96361443265316"><ele>8.166666666666666</ele><time>2026-04-14T07:29:39.001Z</time></trkpt><trkpt lat="14.462351243139507" lon="120.96369337395954"><ele>8.333333333333332</ele><time>2026-04-14T07:29:40.001Z</time></trkpt><trkpt lat="14.462401641772804" lon="120.96377181905068"><ele>8.5</ele><time>2026-04-14T07:29:41.001Z</time></trkpt><trkpt lat="14.462450807064897" lon="120.96384968226592"><ele>8.666666666666666</ele><time>2026-04-14T07:29:42.001Z</time></trkpt><trkpt lat="14.462499046694756" lon="120.96392633535083"><ele>8.833333333333334</ele><time>2026-04-14T07:29:43.001Z</time></trkpt><trkpt lat="14.462544676596966" lon="120.96399668166757"><ele>9.0</ele><time>2026-04-14T07:29:44.001Z</time></trkpt><trkpt lat="14.462585733262854" lon="120.9640613478805"><ele>9.0</ele><time>2026-04-14T07:29:45.001Z</time></trkpt><trkpt lat="14.462622174723412" lon="120.96411811588212"><ele>9.0</ele><time>2026-04-14T07:29:46.001Z</time></trkpt><trkpt lat="14.462684470577214" lon="120.96422042184308"><ele>9.0</ele><time>2026-04-14T07:29:48.001Z</time></trkpt><trkpt lat="14.4627432357996" lon="120.96433176164263"><ele>9.0</ele><time>2026-04-14T07:29:50.001Z</time></trkpt><trkpt lat="14.462820684957636" lon="120.96444376500247"><ele>9.0</ele><time>2026-04-14T07:29:52.001Z</time></trkpt><trkpt lat="14.462892689958329" lon="120.9645322266246"><ele>8.833333333333334</ele><time>2026-04-14T07:29:54.001Z</time></trkpt><trkpt lat="14.462948995697328" lon="120.96461460186742"><ele>8.666666666666666</ele><time>2026-04-14T07:29:56.001Z</time></trkpt><trkpt lat="14.463002766084658" lon="120.96470694482807"><ele>8.5</ele><time>2026-04-14T07:29:58.001Z</time></trkpt><trkpt lat="14.463037619103622" lon="120.96476484817907"><ele>8.333333333333332</ele><time>2026-04-14T07:29:59.001Z</time></trkpt><trkpt lat="14.463078617387918" lon="120.96482710582082"><ele>8.166666666666666</ele><time>2026-04-14T07:30:00.002Z</time></trkpt><trkpt lat="14.463117294382782" lon="120.96488553976631"><ele>8.0</ele><time>2026-04-14T07:30:01.002Z</time></trkpt><trkpt lat="14.463167414358551" lon="120.96495905678603"><ele>8.166666666666666</ele><time>2026-04-14T07:30:02.002Z</time></trkpt><trkpt lat="14.463216305992962" lon="120.96503091692709"><ele>8.333333333333332</ele><time>2026-04-14T07:30:03.002Z</time></trkpt><trkpt lat="14.463262410661024" lon="120.96510040781612"><ele>8.5</ele><time>2026-04-14T07:30:04.002Z</time></trkpt><trkpt lat="14.463309272849113" lon="120.9651714414987"><ele>8.666666666666666</ele><time>2026-04-14T07:30:05.002Z</time></trkpt><trkpt lat="14.463361090260744" lon="120.96524328850671"><ele>8.833333333333334</ele><time>2026-04-14T07:30:06Z</time></trkpt><trkpt lat="14.463416396335525" lon="120.96532047199369"><ele>9.0</ele><time>2026-04-14T07:30:07Z</time></trkpt><trkpt lat="14.463475485211397" lon="120.96540564265406"><ele>9.0</ele><time>2026-04-14T07:30:08Z</time></trkpt><trkpt lat="14.463534834541786" lon="120.96549881201648"><ele>9.0</ele><time>2026-04-14T07:30:09Z</time></trkpt><trkpt lat="14.463593472502097" lon="120.96559805951276"><ele>9.0</ele><time>2026-04-14T07:30:10Z</time></trkpt><trkpt lat="14.463655545189113" lon="120.96569832017262"><ele>9.0</ele><time>2026-04-14T07:30:11Z</time></trkpt><trkpt lat="14.463778512273732" lon="120.96588959130425"><ele>9.0</ele><time>2026-04-14T07:30:13Z</time></trkpt><trkpt lat="14.463839525452586" lon="120.96597914701205"><ele>9.0</ele><time>2026-04-14T07:30:14Z</time></trkpt><trkpt lat="14.463899447990068" lon="120.96606879899171"><ele>9.0</ele><time>2026-04-14T07:30:15Z</time></trkpt><trkpt lat="14.463958659459271" lon="120.96615942014526"><ele>9.0</ele><time>2026-04-14T07:30:16Z</time></trkpt><trkpt lat="14.464017207457863" lon="120.96625052509879"><ele>9.0</ele><time>2026-04-14T07:30:17Z</time></trkpt><trkpt lat="14.46407388000744" lon="120.96634322367304"><ele>9.0</ele><time>2026-04-14T07:30:18Z</time></trkpt><trkpt lat="14.464130429319603" lon="120.96643642441265"><ele>9.0</ele><time>2026-04-14T07:30:19Z</time></trkpt><trkpt lat="14.46418643292543" lon="120.96653140685463"><ele>9.0</ele><time>2026-04-14T07:30:20Z</time></trkpt><trkpt lat="14.46424035332702" lon="120.96662798992858"><ele>9.0</ele><time>2026-04-14T07:30:21Z</time></trkpt><trkpt lat="14.464293953029031" lon="120.96671968779685"><ele>9.0</ele><time>2026-04-14T07:30:22Z</time></trkpt><trkpt lat="14.464346754314173" lon="120.966806458438"><ele>8.8</ele><time>2026-04-14T07:30:23Z</time></trkpt><trkpt lat="14.464400689061597" lon="120.96688697341277"><ele>8.600000000000001</ele><time>2026-04-14T07:30:24Z</time></trkpt><trkpt lat="14.46445116533415" lon="120.96695923403527"><ele>8.4</ele><time>2026-04-14T07:30:25Z</time></trkpt><trkpt lat="14.464497813477953" lon="120.96702501161728"><ele>8.200000000000001</ele><time>2026-04-14T07:30:26Z</time></trkpt><trkpt lat="14.46457781824111" lon="120.9671186357555"><ele>8.0</ele><time>2026-04-14T07:30:28Z</time></trkpt><trkpt lat="14.464675807850664" lon="120.96719836394965"><ele>8.600000000000001</ele><time>2026-04-14T07:30:30Z</time></trkpt><trkpt lat="14.464733432444358" lon="120.96724214570628"><ele>9.200000000000001</ele><time>2026-04-14T07:30:31Z</time></trkpt><trkpt lat="14.464795595890214" lon="120.96729068923435"><ele>9.8</ele><time>2026-04-14T07:30:32Z</time></trkpt><trkpt lat="14.46493556318737" lon="120.96739483285158"><ele>10.4</ele><time>2026-04-14T07:30:34Z</time></trkpt><trkpt lat="14.465004856844383" lon="120.9674458708074"><ele>11.0</ele><time>2026-04-14T07:30:35Z</time></trkpt><trkpt lat="14.465072636764154" lon="120.96749492597138"><ele>10.833333333333332</ele><time>2026-04-14T07:30:36Z</time></trkpt><trkpt lat="14.465136819743837" lon="120.96754048843843"><ele>10.666666666666666</ele><time>2026-04-14T07:30:37Z</time></trkpt><trkpt lat="14.465195767060493" lon="120.96758206710489"><ele>10.5</ele><time>2026-04-14T07:30:38Z</time></trkpt><trkpt lat="14.465249750798987" lon="120.96761810406129"><ele>10.333333333333334</ele><time>2026-04-14T07:30:39Z</time></trkpt><trkpt lat="14.465340078439624" lon="120.96768187471372"><ele>10.166666666666668</ele><time>2026-04-14T07:30:41Z</time></trkpt><trkpt lat="14.465414676312973" lon="120.9677426775262"><ele>10.0</ele><time>2026-04-14T07:30:43Z</time></trkpt><trkpt lat="14.465470167351125" lon="120.96778457741638"><ele>9.5</ele><time>2026-04-14T07:30:45Z</time></trkpt><trkpt lat="14.465523827330781" lon="120.96782742324149"><ele>9.0</ele><time>2026-04-14T07:30:47Z</time></trkpt><trkpt lat="14.465605559720723" lon="120.96788734754212"><ele>8.5</ele><time>2026-04-14T07:30:49Z</time></trkpt><trkpt lat="14.465657250048606" lon="120.9679274605934"><ele>8.0</ele><time>2026-04-14T07:30:50Z</time></trkpt><trkpt lat="14.465713642631167" lon="120.96797238813679"><ele>7.500000000000001</ele><time>2026-04-14T07:30:51.001Z</time></trkpt><trkpt lat="14.465775244466837" lon="120.96802104221"><ele>7.0</ele><time>2026-04-14T07:30:52.001Z</time></trkpt><trkpt lat="14.465836113390658" lon="120.96807028339397"><ele>7.0</ele><time>2026-04-14T07:30:53.001Z</time></trkpt><trkpt lat="14.465981507201244" lon="120.96819280357296"><ele>7.0</ele><time>2026-04-14T07:30:55.001Z</time></trkpt><trkpt lat="14.46605499336142" lon="120.96825457340303"><ele>7.0</ele><time>2026-04-14T07:30:56.001Z</time></trkpt><trkpt lat="14.466129635608059" lon="120.96831482676211"><ele>7.0</ele><time>2026-04-14T07:30:57.001Z</time></trkpt><trkpt lat="14.466202910390518" lon="120.96837269996375"><ele>7.000000000000001</ele><time>2026-04-14T07:30:58.001Z</time></trkpt><trkpt lat="14.46627412312103" lon="120.96843115178613"><ele>7.0</ele><time>2026-04-14T07:30:59.001Z</time></trkpt><trkpt lat="14.466346678131956" lon="120.9684905612879"><ele>7.0</ele><time>2026-04-14T07:31:00.001Z</time></trkpt><trkpt lat="14.466418807397131" lon="120.96855160758956"><ele>7.0</ele><time>2026-04-14T07:31:01.001Z</time></trkpt><trkpt lat="14.466485132886046" lon="120.9686102577419"><ele>7.000000000000001</ele><time>2026-04-14T07:31:02.001Z</time></trkpt><trkpt lat="14.466542931475523" lon="120.96866397597363"><ele>7.0</ele><time>2026-04-14T07:31:03.001Z</time></trkpt><trkpt lat="14.466624920739864" lon="120.96873672708622"><ele>7.199999999999999</ele><time>2026-04-14T07:31:05.001Z</time></trkpt><trkpt lat="14.466686468332226" lon="120.96878490183462"><ele>7.3999999999999995</ele><time>2026-04-14T07:31:07.001Z</time></trkpt><trkpt lat="14.466750866195067" lon="120.96882876772571"><ele>7.6000000000000005</ele><time>2026-04-14T07:31:10.001Z</time></trkpt><trkpt lat="14.46682440882836" lon="120.96884752589243"><ele>7.800000000000001</ele><time>2026-04-14T07:31:14.001Z</time></trkpt><trkpt lat="14.466954711025295" lon="120.96878711351722"><ele>8.0</ele><time>2026-04-14T07:31:22.001Z</time></trkpt><trkpt lat="14.466868578870763" lon="120.96874233312782"><ele>8.0</ele><time>2026-04-14T07:35:00.001Z</time></trkpt><trkpt lat="14.466803349395022" lon="120.9688649738653"><ele>8.0</ele><time>2026-04-14T07:35:09.001Z</time></trkpt><trkpt lat="14.466857626978133" lon="120.96894702204214"><ele>8.0</ele><time>2026-04-14T07:35:12.001Z</time></trkpt><trkpt lat="14.466920443761085" lon="120.96900556301196"><ele>8.0</ele><time>2026-04-14T07:35:14.001Z</time></trkpt><trkpt lat="14.46698177488378" lon="120.96904302376498"><ele>8.0</ele><time>2026-04-14T07:35:17.001Z</time></trkpt><trkpt lat="14.467052982603676" lon="120.96908547587984"><ele>8.0</ele><time>2026-04-14T07:35:20.001Z</time></trkpt><trkpt lat="14.467108493890652" lon="120.96912706164474"><ele>8.0</ele><time>2026-04-14T07:35:27.001Z</time></trkpt><trkpt lat="14.46725791369338" lon="120.96924136284613"><ele>8.0</ele><time>2026-04-14T07:35:31.001Z</time></trkpt><trkpt lat="14.467316177961434" lon="120.96928338029917"><ele>8.0</ele><time>2026-04-14T07:35:32.001Z</time></trkpt><trkpt lat="14.467382121977638" lon="120.9693394507577"><ele>8.0</ele><time>2026-04-14T07:35:33.001Z</time></trkpt><trkpt lat="14.467454718389048" lon="120.96939638492232"><ele>7.800000000000001</ele><time>2026-04-14T07:35:34.001Z</time></trkpt><trkpt lat="14.467530720880893" lon="120.96945499630023"><ele>7.6000000000000005</ele><time>2026-04-14T07:35:35.001Z</time></trkpt><trkpt lat="14.467607700930209" lon="120.96951471706525"><ele>7.3999999999999995</ele><time>2026-04-14T07:35:36.001Z</time></trkpt><trkpt lat="14.467685861400602" lon="120.9695762498525"><ele>7.199999999999999</ele><time>2026-04-14T07:35:37.001Z</time></trkpt><trkpt lat="14.467761991479039" lon="120.96963535039123"><ele>7.0</ele><time>2026-04-14T07:35:38.001Z</time></trkpt><trkpt lat="14.467836053650565" lon="120.96969234317532"><ele>7.000000000000001</ele><time>2026-04-14T07:35:39.001Z</time></trkpt><trkpt lat="14.467911596194023" lon="120.96974630599499"><ele>7.0</ele><time>2026-04-14T07:35:40.001Z</time></trkpt><trkpt lat="14.467987856282827" lon="120.9697976484426"><ele>7.0</ele><time>2026-04-14T07:35:41.001Z</time></trkpt><trkpt lat="14.468059723654687" lon="120.96984660799538"><ele>7.0</ele><time>2026-04-14T07:35:42.001Z</time></trkpt><trkpt lat="14.468134049257914" lon="120.9698867464677"><ele>7.000000000000001</ele><time>2026-04-14T07:35:43.001Z</time></trkpt><trkpt lat="14.468211420695953" lon="120.96992507918726"><ele>7.0</ele><time>2026-04-14T07:35:44.001Z</time></trkpt><trkpt lat="14.468292408597364" lon="120.96995798232412"><ele>7.0</ele><time>2026-04-14T07:35:45.001Z</time></trkpt><trkpt lat="14.46837495963523" lon="120.96998819725582"><ele>6.999999999999999</ele><time>2026-04-14T07:35:46.001Z</time></trkpt><trkpt lat="14.46845566233401" lon="120.97001973538612"><ele>6.999999999999999</ele><time>2026-04-14T07:35:47.001Z</time></trkpt><trkpt lat="14.468537308686063" lon="120.97005275938473"><ele>7.0</ele><time>2026-04-14T07:35:48.001Z</time></trkpt><trkpt lat="14.468699833923445" lon="120.97011856948"><ele>7.0</ele><time>2026-04-14T07:35:50.001Z</time></trkpt><trkpt lat="14.468783441802675" lon="120.97015765093313"><ele>7.199999999999999</ele><time>2026-04-14T07:35:51.001Z</time></trkpt><trkpt lat="14.46886641771693" lon="120.97020213256269"><ele>7.3999999999999995</ele><time>2026-04-14T07:35:52.001Z</time></trkpt><trkpt lat="14.468947735073098" lon="120.97025044188372"><ele>7.6000000000000005</ele><time>2026-04-14T07:35:53.001Z</time></trkpt><trkpt lat="14.46901956395793" lon="120.970311841385"><ele>7.800000000000001</ele><time>2026-04-14T07:35:54.001Z</time></trkpt><trkpt lat="14.469086522472018" lon="120.97038203252812"><ele>8.0</ele><time>2026-04-14T07:35:55.001Z</time></trkpt><trkpt lat="14.469153310489334" lon="120.97045959457216"><ele>8.0</ele><time>2026-04-14T07:35:56.002Z</time></trkpt><trkpt lat="14.469222522751023" lon="120.9705452038157"><ele>8.0</ele><time>2026-04-14T07:35:57.002Z</time></trkpt><trkpt lat="14.469296557809491" lon="120.9706354435775"><ele>8.0</ele><time>2026-04-14T07:35:58.002Z</time></trkpt><trkpt lat="14.469377372152396" lon="120.9707274544213"><ele>8.0</ele><time>2026-04-14T07:35:59.002Z</time></trkpt><trkpt lat="14.469459099109848" lon="120.97082465505952"><ele>7.75</ele><time>2026-04-14T07:36:00.002Z</time></trkpt><trkpt lat="14.469546160011378" lon="120.97092665378412"><ele>7.5</ele><time>2026-04-14T07:36:01.002Z</time></trkpt><trkpt lat="14.469629428230169" lon="120.9710274970136"><ele>7.25</ele><time>2026-04-14T07:36:02.002Z</time></trkpt><trkpt lat="14.469719786630163" lon="120.97112662125707"><ele>7.0</ele><time>2026-04-14T07:36:03.002Z</time></trkpt><trkpt lat="14.469808297221032" lon="120.97122510610089"><ele>7.0</ele><time>2026-04-14T07:36:04.002Z</time></trkpt><trkpt lat="14.469891025715947" lon="120.9713200443859"><ele>7.0</ele><time>2026-04-14T07:36:05.002Z</time></trkpt><trkpt lat="14.46997208966055" lon="120.97141315267994"><ele>7.0</ele><time>2026-04-14T07:36:06.002Z</time></trkpt><trkpt lat="14.470048734683159" lon="120.97150962051026"><ele>7.0</ele><time>2026-04-14T07:36:07.002Z</time></trkpt><trkpt lat="14.470123910407791" lon="120.97160737361335"><ele>7.0</ele><time>2026-04-14T07:36:08.002Z</time></trkpt><trkpt lat="14.470196844290923" lon="120.97171017677474"><ele>7.0</ele><time>2026-04-14T07:36:09.002Z</time></trkpt><trkpt lat="14.470337099166093" lon="120.97191477583102"><ele>7.0</ele><time>2026-04-14T07:36:11.002Z</time></trkpt><trkpt lat="14.470399187495296" lon="120.97201086343038"><ele>7.000000000000001</ele><time>2026-04-14T07:36:12.002Z</time></trkpt><trkpt lat="14.470454956386007" lon="120.9720953377537"><ele>7.0</ele><time>2026-04-14T07:36:13.002Z</time></trkpt><trkpt lat="14.470506031701152" lon="120.97217353103002"><ele>7.0</ele><time>2026-04-14T07:36:14.002Z</time></trkpt><trkpt lat="14.470546414877075" lon="120.97223944907076"><ele>7.0</ele><time>2026-04-14T07:36:15.002Z</time></trkpt><trkpt lat="14.470583330659107" lon="120.97230095099985"><ele>7.000000000000001</ele><time>2026-04-14T07:36:16.002Z</time></trkpt><trkpt lat="14.470619111163133" lon="120.97235819594438"><ele>7.0</ele><time>2026-04-14T07:36:17.002Z</time></trkpt><trkpt lat="14.470685691284642" lon="120.97246930206661"><ele>7.000000000000001</ele><time>2026-04-14T07:36:19.002Z</time></trkpt><trkpt lat="14.47071882588581" lon="120.9725270065506"><ele>7.0</ele><time>2026-04-14T07:36:20.002Z</time></trkpt><trkpt lat="14.47077244262704" lon="120.9726433968492"><ele>7.0</ele><time>2026-04-14T07:36:22.002Z</time></trkpt><trkpt lat="14.470803776054874" lon="120.97270914630373"><ele>7.0</ele><time>2026-04-14T07:36:23.002Z</time></trkpt><trkpt lat="14.470832207214348" lon="120.97276909396959"><ele>7.000000000000001</ele><time>2026-04-14T07:36:24.001Z</time></trkpt><trkpt lat="14.470889927657604" lon="120.9728478366405"><ele>7.0</ele><time>2026-04-14T07:36:26.001Z</time></trkpt><trkpt lat="14.470936987142933" lon="120.97292044380946"><ele>7.0</ele><time>2026-04-14T07:36:28.001Z</time></trkpt><trkpt lat="14.470976663415689" lon="120.9730064295273"><ele>7.0</ele><time>2026-04-14T07:36:30.001Z</time></trkpt><trkpt lat="14.471077206221569" lon="120.97318599910716"><ele>7.0</ele><time>2026-04-14T07:36:34.001Z</time></trkpt><trkpt lat="14.4711231324544" lon="120.9732859781191"><ele>7.0</ele><time>2026-04-14T07:36:36.001Z</time></trkpt><trkpt lat="14.471172698459869" lon="120.9733846600088"><ele>6.8</ele><time>2026-04-14T07:36:38.001Z</time></trkpt><trkpt lat="14.47122352819459" lon="120.97348382478326"><ele>6.6</ele><time>2026-04-14T07:36:40.001Z</time></trkpt><trkpt lat="14.471275603507362" lon="120.97358693292279"><ele>6.3999999999999995</ele><time>2026-04-14T07:36:42.001Z</time></trkpt><trkpt lat="14.47132725959584" lon="120.97368606792828"><ele>6.199999999999999</ele><time>2026-04-14T07:36:44.001Z</time></trkpt><trkpt lat="14.471379600862976" lon="120.97378179622316"><ele>6.0</ele><time>2026-04-14T07:36:46.001Z</time></trkpt><trkpt lat="14.471427426979115" lon="120.97386547895854"><ele>6.0</ele><time>2026-04-14T07:36:48.001Z</time></trkpt><trkpt lat="14.471467237169845" lon="120.97394393450895"><ele>6.0</ele><time>2026-04-14T07:36:50.001Z</time></trkpt><trkpt lat="14.471499704475502" lon="120.9740137215234"><ele>6.0</ele><time>2026-04-14T07:36:52.001Z</time></trkpt><trkpt lat="14.471551766532718" lon="120.9741731909922"><ele>6.0</ele><time>2026-04-14T07:36:56.001Z</time></trkpt><trkpt lat="14.471614389833118" lon="120.97427021804428"><ele>6.0</ele><time>2026-04-14T07:36:58.001Z</time></trkpt><trkpt lat="14.471642719339679" lon="120.97432859125531"><ele>6.199999999999999</ele><time>2026-04-14T07:36:59.001Z</time></trkpt><trkpt lat="14.471700205369013" lon="120.97444864367745"><ele>6.3999999999999995</ele><time>2026-04-14T07:37:01.001Z</time></trkpt><trkpt lat="14.471734587446887" lon="120.97452390055356"><ele>6.6</ele><time>2026-04-14T07:37:02.001Z</time></trkpt><trkpt lat="14.471771143331585" lon="120.97460097852228"><ele>6.8</ele><time>2026-04-14T07:37:03.001Z</time></trkpt><trkpt lat="14.471808901401936" lon="120.97466284401852"><ele>7.0</ele><time>2026-04-14T07:37:04.001Z</time></trkpt><trkpt lat="14.471866761025408" lon="120.97475727277778"><ele>7.0</ele><time>2026-04-14T07:37:06.001Z</time></trkpt><trkpt lat="14.47191715927865" lon="120.97483405993314"><ele>6.999999999999999</ele><time>2026-04-14T07:37:08.001Z</time></trkpt><trkpt lat="14.471979381836528" lon="120.97491308544784"><ele>6.999999999999999</ele><time>2026-04-14T07:37:10.001Z</time></trkpt><trkpt lat="14.472048070195825" lon="120.97500636215676"><ele>7.0</ele><time>2026-04-14T07:37:12.001Z</time></trkpt><trkpt lat="14.472103428237387" lon="120.97509057372694"><ele>7.0</ele><time>2026-04-14T07:37:14.001Z</time></trkpt><trkpt lat="14.47218848817485" lon="120.97523934104346"><ele>7.000000000000001</ele><time>2026-04-14T07:37:18.001Z</time></trkpt><trkpt lat="14.472223166739214" lon="120.97530747003566"><ele>7.0</ele><time>2026-04-14T07:37:20.001Z</time></trkpt><trkpt lat="14.47228145182401" lon="120.97539288903793"><ele>7.0</ele><time>2026-04-14T07:37:22.001Z</time></trkpt><trkpt lat="14.472363170077685" lon="120.97549752965116"><ele>7.0</ele><time>2026-04-14T07:37:24.001Z</time></trkpt><trkpt lat="14.472406353840816" lon="120.97555323866703"><ele>7.000000000000001</ele><time>2026-04-14T07:37:25.001Z</time></trkpt><trkpt lat="14.472451125130991" lon="120.97561299001104"><ele>7.0</ele><time>2026-04-14T07:37:26.001Z</time></trkpt><trkpt lat="14.472496506623816" lon="120.97567244160878"><ele>7.000000000000001</ele><time>2026-04-14T07:37:27.001Z</time></trkpt><trkpt lat="14.47254049784299" lon="120.97572919911933"><ele>7.0</ele><time>2026-04-14T07:37:28.001Z</time></trkpt><trkpt lat="14.47258243545425" lon="120.97578432361497"><ele>7.0</ele><time>2026-04-14T07:37:29.001Z</time></trkpt><trkpt lat="14.47265351119213" lon="120.97587427208451"><ele>7.0</ele><time>2026-04-14T07:37:31.001Z</time></trkpt><trkpt lat="14.47271970914283" lon="120.97595835087209"><ele>7.000000000000001</ele><time>2026-04-14T07:37:33.001Z</time></trkpt><trkpt lat="14.472777521220412" lon="120.97602962831698"><ele>7.0</ele><time>2026-04-14T07:37:35.001Z</time></trkpt><trkpt lat="14.47289844906894" lon="120.97617637552783"><ele>7.000000000000001</ele><time>2026-04-14T07:37:39.001Z</time></trkpt><trkpt lat="14.472954559364567" lon="120.97624374520042"><ele>7.0</ele><time>2026-04-14T07:37:41.001Z</time></trkpt><trkpt lat="14.473001518275192" lon="120.97629879531772"><ele>7.0</ele><time>2026-04-14T07:37:43.001Z</time></trkpt><trkpt lat="14.47304650187346" lon="120.97636395996054"><ele>7.0</ele><time>2026-04-14T07:37:45.001Z</time></trkpt><trkpt lat="14.473087941143163" lon="120.97642210048745"><ele>7.000000000000001</ele><time>2026-04-14T07:37:47.001Z</time></trkpt><trkpt lat="14.473140479129139" lon="120.97648744626144"><ele>7.0</ele><time>2026-04-14T07:37:49.001Z</time></trkpt><trkpt lat="14.47318870411737" lon="120.97654001644175"><ele>7.0</ele><time>2026-04-14T07:37:51.001Z</time></trkpt><trkpt lat="14.473248957558749" lon="120.97661741691427"><ele>6.999999999999999</ele><time>2026-04-14T07:37:53.001Z</time></trkpt><trkpt lat="14.473315245736858" lon="120.97672401736617"><ele>6.999999999999999</ele><time>2026-04-14T07:37:55.002Z</time></trkpt><trkpt lat="14.473351799653807" lon="120.97678370244567"><ele>7.0</ele><time>2026-04-14T07:37:56.002Z</time></trkpt><trkpt lat="14.47342448935707" lon="120.97689922330379"><ele>7.0</ele><time>2026-04-14T07:37:58.002Z</time></trkpt><trkpt lat="14.473460818596962" lon="120.97695723960075"><ele>6.833333333333334</ele><time>2026-04-14T07:37:59.002Z</time></trkpt><trkpt lat="14.473494245340037" lon="120.97701835434403"><ele>6.666666666666667</ele><time>2026-04-14T07:38:00.002Z</time></trkpt><trkpt lat="14.473528295284016" lon="120.97707570752593"><ele>6.5</ele><time>2026-04-14T07:38:01.002Z</time></trkpt><trkpt lat="14.473591194946703" lon="120.97718395279949"><ele>6.333333333333334</ele><time>2026-04-14T07:38:03.002Z</time></trkpt><trkpt lat="14.473640339668663" lon="120.97727216056482"><ele>6.166666666666667</ele><time>2026-04-14T07:38:05.002Z</time></trkpt><trkpt lat="14.473679215646902" lon="120.97733906339285"><ele>6.0</ele><time>2026-04-14T07:38:09.002Z</time></trkpt><trkpt lat="14.473721367848693" lon="120.97741175473735"><ele>6.0</ele><time>2026-04-14T07:38:12.002Z</time></trkpt><trkpt lat="14.473758251677578" lon="120.97748065578865"><ele>6.0</ele><time>2026-04-14T07:38:14.002Z</time></trkpt><trkpt lat="14.473799894900774" lon="120.97755006594473"><ele>6.0</ele><time>2026-04-14T07:38:16.002Z</time></trkpt><trkpt lat="14.473837048689813" lon="120.97761190112895"><ele>6.0</ele><time>2026-04-14T07:38:18.002Z</time></trkpt><trkpt lat="14.47393510126882" lon="120.97777987056108"><ele>6.0</ele><time>2026-04-14T07:38:22.002Z</time></trkpt><trkpt lat="14.473960423572931" lon="120.97784275937983"><ele>6.0</ele><time>2026-04-14T07:38:23.002Z</time></trkpt><trkpt lat="14.473978694223215" lon="120.97796528448875"><ele>6.0</ele><time>2026-04-14T07:38:25.002Z</time></trkpt><trkpt lat="14.473972420178297" lon="120.97803571341692"><ele>6.0</ele><time>2026-04-14T07:38:26.002Z</time></trkpt><trkpt lat="14.47394481141574" lon="120.97811521964762"><ele>6.0</ele><time>2026-04-14T07:38:27.002Z</time></trkpt><trkpt lat="14.473911459094007" lon="120.97819335093702"><ele>6.0</ele><time>2026-04-14T07:38:28.002Z</time></trkpt><trkpt lat="14.473875972212968" lon="120.97827603250288"><ele>6.0</ele><time>2026-04-14T07:38:29.002Z</time></trkpt><trkpt lat="14.473843999521215" lon="120.97835952512946"><ele>6.166666666666667</ele><time>2026-04-14T07:38:30.001Z</time></trkpt><trkpt lat="14.473813249561504" lon="120.97843892490584"><ele>6.333333333333334</ele><time>2026-04-14T07:38:31.001Z</time></trkpt><trkpt lat="14.473781118926475" lon="120.97852211150472"><ele>6.5</ele><time>2026-04-14T07:38:32.001Z</time></trkpt><trkpt lat="14.473754259155157" lon="120.97860965661789"><ele>6.666666666666667</ele><time>2026-04-14T07:38:33.001Z</time></trkpt><trkpt lat="14.473726775850567" lon="120.97869375359885"><ele>6.833333333333334</ele><time>2026-04-14T07:38:34.001Z</time></trkpt><trkpt lat="14.473704519736915" lon="120.978786414429"><ele>7.0</ele><time>2026-04-14T07:38:35.001Z</time></trkpt><trkpt lat="14.473685252391858" lon="120.97890440381627"><ele>6.75</ele><time>2026-04-14T07:38:36.001Z</time></trkpt><trkpt lat="14.473676022858246" lon="120.97902777709454"><ele>6.5</ele><time>2026-04-14T07:38:37.001Z</time></trkpt><trkpt lat="14.473682595368729" lon="120.97915713788804"><ele>6.25</ele><time>2026-04-14T07:38:38.001Z</time></trkpt><trkpt lat="14.473701222718683" lon="120.97929352556015"><ele>6.0</ele><time>2026-04-14T07:38:39.001Z</time></trkpt><trkpt lat="14.473747361255528" lon="120.97956475219698"><ele>6.0</ele><time>2026-04-14T07:38:41.001Z</time></trkpt><trkpt lat="14.473772429248363" lon="120.97969019772866"><ele>6.0</ele><time>2026-04-14T07:38:42.001Z</time></trkpt><trkpt lat="14.473798999498873" lon="120.97980871244908"><ele>6.0</ele><time>2026-04-14T07:38:43.001Z</time></trkpt><trkpt lat="14.47381665913393" lon="120.97992127713621"><ele>6.0</ele><time>2026-04-14T07:38:44.001Z</time></trkpt><trkpt lat="14.473838794078237" lon="120.98002426505927"><ele>5.833333333333333</ele><time>2026-04-14T07:38:45.001Z</time></trkpt><trkpt lat="14.4738639391547" lon="120.98011943624215"><ele>5.666666666666667</ele><time>2026-04-14T07:38:46.001Z</time></trkpt><trkpt lat="14.47389333062334" lon="120.98020554238126"><ele>5.5</ele><time>2026-04-14T07:38:47.001Z</time></trkpt><trkpt lat="14.473928818246383" lon="120.9802851268053"><ele>5.333333333333334</ele><time>2026-04-14T07:38:48.001Z</time></trkpt><trkpt lat="14.473965758803336" lon="120.98036144218261"><ele>5.166666666666667</ele><time>2026-04-14T07:38:49.001Z</time></trkpt><trkpt lat="14.47401400881365" lon="120.98044484525204"><ele>5.0</ele><time>2026-04-14T07:38:50.001Z</time></trkpt><trkpt lat="14.47406664403594" lon="120.98053069127408"><ele>5.0</ele><time>2026-04-14T07:38:51.001Z</time></trkpt><trkpt lat="14.474120449453316" lon="120.9806236972892"><ele>5.0</ele><time>2026-04-14T07:38:52.001Z</time></trkpt><trkpt lat="14.474177768841248" lon="120.98072280236752"><ele>5.0</ele><time>2026-04-14T07:38:53.001Z</time></trkpt><trkpt lat="14.474238491771269" lon="120.98082733770757"><ele>5.0</ele><time>2026-04-14T07:38:54.001Z</time></trkpt><trkpt lat="14.474305217176461" lon="120.98093592112045"><ele>5.75</ele><time>2026-04-14T07:38:55.001Z</time></trkpt><trkpt lat="14.474374448847566" lon="120.98104432358954"><ele>6.5</ele><time>2026-04-14T07:38:56.001Z</time></trkpt><trkpt lat="14.474459263749964" lon="120.98115772068368"><ele>7.25</ele><time>2026-04-14T07:38:57.001Z</time></trkpt><trkpt lat="14.4745498469256" lon="120.98127455363455"><ele>8.0</ele><time>2026-04-14T07:38:58.001Z</time></trkpt><trkpt lat="14.474646692069781" lon="120.98139227470311"><ele>8.0</ele><time>2026-04-14T07:38:59.001Z</time></trkpt><trkpt lat="14.474746504659228" lon="120.98150949558054"><ele>8.0</ele><time>2026-04-14T07:39:00.001Z</time></trkpt><trkpt lat="14.474970359626871" lon="120.9817428137158"><ele>8.0</ele><time>2026-04-14T07:39:02.001Z</time></trkpt><trkpt lat="14.475084124827344" lon="120.98185872817963"><ele>8.0</ele><time>2026-04-14T07:39:03.001Z</time></trkpt><trkpt lat="14.475199492235161" lon="120.98197534878187"><ele>8.0</ele><time>2026-04-14T07:39:04.001Z</time></trkpt><trkpt lat="14.475317544621312" lon="120.98209489893314"><ele>8.0</ele><time>2026-04-14T07:39:05.001Z</time></trkpt><trkpt lat="14.475437326377072" lon="120.98221669722706"><ele>8.0</ele><time>2026-04-14T07:39:06.001Z</time></trkpt><trkpt lat="14.475559555426441" lon="120.98233986916699"><ele>8.0</ele><time>2026-04-14T07:39:07.001Z</time></trkpt><trkpt lat="14.475686094202159" lon="120.9824668188797"><ele>7.333333333333333</ele><time>2026-04-14T07:39:08.001Z</time></trkpt><trkpt lat="14.475815208175034" lon="120.9825967419983"><ele>6.666666666666666</ele><time>2026-04-14T07:39:09.001Z</time></trkpt><trkpt lat="14.475944719663152" lon="120.9827306071814"><ele>6.0</ele><time>2026-04-14T07:39:10.001Z</time></trkpt><trkpt lat="14.476075968084052" lon="120.98286660104982"><ele>6.0</ele><time>2026-04-14T07:39:11.001Z</time></trkpt><trkpt lat="14.47620847685353" lon="120.98300214605314"><ele>6.0</ele><time>2026-04-14T07:39:12.001Z</time></trkpt><trkpt lat="14.47633760495055" lon="120.98313588149836"><ele>6.0</ele><time>2026-04-14T07:39:13.001Z</time></trkpt><trkpt lat="14.47646278031587" lon="120.98326541222052"><ele>6.6</ele><time>2026-04-14T07:39:14.001Z</time></trkpt><trkpt lat="14.476572437849224" lon="120.98337985998809"><ele>7.199999999999999</ele><time>2026-04-14T07:39:15.001Z</time></trkpt><trkpt lat="14.476640874593521" lon="120.98344715827758"><ele>7.800000000000001</ele><time>2026-04-14T07:39:16.001Z</time></trkpt><trkpt lat="14.476707569167116" lon="120.98350832149761"><ele>8.4</ele><time>2026-04-14T07:39:18.001Z</time></trkpt><trkpt lat="14.476760053932148" lon="120.98356568790278"><ele>9.0</ele><time>2026-04-14T07:39:22.001Z</time></trkpt><trkpt lat="14.476883178198209" lon="120.98368086138144"><ele>9.0</ele><time>2026-04-14T07:39:25.001Z</time></trkpt><trkpt lat="14.476937307521254" lon="120.98373529364615"><ele>9.0</ele><time>2026-04-14T07:39:26.001Z</time></trkpt><trkpt lat="14.477005528845856" lon="120.98380528388407"><ele>9.0</ele><time>2026-04-14T07:39:27.001Z</time></trkpt><trkpt lat="14.477085336905473" lon="120.98388498234404"><ele>9.0</ele><time>2026-04-14T07:39:28.001Z</time></trkpt><trkpt lat="14.477170360661079" lon="120.9839727978411"><ele>9.0</ele><time>2026-04-14T07:39:29.001Z</time></trkpt><trkpt lat="14.477262820596282" lon="120.98406764803765"><ele>7.25</ele><time>2026-04-14T07:39:30.001Z</time></trkpt><trkpt lat="14.477361548437155" lon="120.98416696304731"><ele>5.5</ele><time>2026-04-14T07:39:31.001Z</time></trkpt><trkpt lat="14.477469255138464" lon="120.9842777233261"><ele>3.75</ele><time>2026-04-14T07:39:32.001Z</time></trkpt><trkpt lat="14.477579922931916" lon="120.98439153377112"><ele>2.0</ele><time>2026-04-14T07:39:33.001Z</time></trkpt><trkpt lat="14.47769614256145" lon="120.98451006860832"><ele>2.0</ele><time>2026-04-14T07:39:34.001Z</time></trkpt><trkpt lat="14.477814693032734" lon="120.98463399765262"><ele>2.0</ele><time>2026-04-14T07:39:35.001Z</time></trkpt><trkpt lat="14.477936395516773" lon="120.9847601672448"><ele>2.0</ele><time>2026-04-14T07:39:36.001Z</time></trkpt><trkpt lat="14.478061680726617" lon="120.98488885888996"><ele>5.0</ele><time>2026-04-14T07:39:37.001Z</time></trkpt><trkpt lat="14.478190946262636" lon="120.98502114229835"><ele>8.0</ele><time>2026-04-14T07:39:38.001Z</time></trkpt><trkpt lat="14.478321025569349" lon="120.98515341870538"><ele>11.0</ele><time>2026-04-14T07:39:39.001Z</time></trkpt><trkpt lat="14.478445721807697" lon="120.98528101739747"><ele>11.0</ele><time>2026-04-14T07:39:40.001Z</time></trkpt><trkpt lat="14.478561426920256" lon="120.98540212772409"><ele>11.0</ele><time>2026-04-14T07:39:41.001Z</time></trkpt><trkpt lat="14.47866757644028" lon="120.98551404342679"><ele>11.0</ele><time>2026-04-14T07:39:42.001Z</time></trkpt><trkpt lat="14.478754772513701" lon="120.98560495710544"><ele>11.0</ele><time>2026-04-14T07:39:43.001Z</time></trkpt><trkpt lat="14.478887454643987" lon="120.98573768053507"><ele>9.666666666666666</ele><time>2026-04-14T07:39:45.001Z</time></trkpt><trkpt lat="14.47894170088077" lon="120.98579031917967"><ele>8.333333333333332</ele><time>2026-04-14T07:39:46.001Z</time></trkpt><trkpt lat="14.478995949202652" lon="120.98583932057213"><ele>7.0</ele><time>2026-04-14T07:39:47.001Z</time></trkpt><trkpt lat="14.479053505123606" lon="120.98590153102573"><ele>5.666666666666666</ele><time>2026-04-14T07:39:48.001Z</time></trkpt><trkpt lat="14.47912530902034" lon="120.98597350578865"><ele>4.333333333333333</ele><time>2026-04-14T07:39:49.001Z</time></trkpt><trkpt lat="14.479202922578368" lon="120.98605217867545"><ele>3.0</ele><time>2026-04-14T07:39:50.001Z</time></trkpt><trkpt lat="14.479283841091897" lon="120.98613788416043"><ele>2.75</ele><time>2026-04-14T07:39:51.001Z</time></trkpt><trkpt lat="14.479371442095955" lon="120.98622981874426"><ele>2.5</ele><time>2026-04-14T07:39:52.001Z</time></trkpt><trkpt lat="14.479460987855925" lon="120.98632391183845"><ele>2.25</ele><time>2026-04-14T07:39:53.001Z</time></trkpt><trkpt lat="14.479560134453747" lon="120.98642617159234"><ele>2.0</ele><time>2026-04-14T07:39:54.001Z</time></trkpt><trkpt lat="14.479664712458275" lon="120.9865332969793"><ele>2.0</ele><time>2026-04-14T07:39:55.001Z</time></trkpt><trkpt lat="14.47977488797769" lon="120.98664975838018"><ele>2.0</ele><time>2026-04-14T07:39:56.001Z</time></trkpt><trkpt lat="14.479876159391367" lon="120.98676135401102"><ele>2.0</ele><time>2026-04-14T07:39:57.001Z</time></trkpt><trkpt lat="14.479970021564748" lon="120.98686614747137"><ele>2.0</ele><time>2026-04-14T07:39:58.001Z</time></trkpt><trkpt lat="14.48006092940542" lon="120.98696590930219"><ele>2.4000000000000004</ele><time>2026-04-14T07:39:59.001Z</time></trkpt><trkpt lat="14.480139003814068" lon="120.98704795356569"><ele>2.8000000000000003</ele><time>2026-04-14T07:40:00.001Z</time></trkpt><trkpt lat="14.480211206945327" lon="120.9871166185466"><ele>3.2</ele><time>2026-04-14T07:40:01.001Z</time></trkpt><trkpt lat="14.48026948251374" lon="120.98717560470641"><ele>3.6</ele><time>2026-04-14T07:40:02.001Z</time></trkpt><trkpt lat="14.480326804770845" lon="120.98723419532024"><ele>4.0</ele><time>2026-04-14T07:40:03.001Z</time></trkpt><trkpt lat="14.480389605254542" lon="120.9872921446524"><ele>3.6666666666666665</ele><time>2026-04-14T07:40:04.001Z</time></trkpt><trkpt lat="14.480565010488755" lon="120.98740875610632"><ele>3.333333333333333</ele><time>2026-04-14T07:40:06.001Z</time></trkpt><trkpt lat="14.480677044286653" lon="120.98746605675672"><ele>3.0</ele><time>2026-04-14T07:40:07.001Z</time></trkpt><trkpt lat="14.480798381556022" lon="120.98752852231335"><ele>3.0</ele><time>2026-04-14T07:40:08.001Z</time></trkpt><trkpt lat="14.480925012790784" lon="120.9875928414548"><ele>3.0</ele><time>2026-04-14T07:40:09.001Z</time></trkpt><trkpt lat="14.4810521415644" lon="120.98765779920436"><ele>3.0</ele><time>2026-04-14T07:40:10.001Z</time></trkpt><trkpt lat="14.481178494796021" lon="120.98772236450405"><ele>3.0</ele><time>2026-04-14T07:40:11.001Z</time></trkpt><trkpt lat="14.481301963005373" lon="120.98778166643505"><ele>1.25</ele><time>2026-04-14T07:40:12.001Z</time></trkpt><trkpt lat="14.481425953478546" lon="120.98784080069983"><ele>-0.5</ele><time>2026-04-14T07:40:13.002Z</time></trkpt><trkpt lat="14.481534955238425" lon="120.98789423723412"><ele>-2.25</ele><time>2026-04-14T07:40:14.002Z</time></trkpt><trkpt lat="14.481638696844358" lon="120.98794542816601"><ele>-4.0</ele><time>2026-04-14T07:40:15.002Z</time></trkpt><trkpt lat="14.481733121892063" lon="120.98799300305976"><ele>-3.9999999999999996</ele><time>2026-04-14T07:40:16.002Z</time></trkpt><trkpt lat="14.481823894680932" lon="120.98803877217996"><ele>-4.0</ele><time>2026-04-14T07:40:17.002Z</time></trkpt><trkpt lat="14.481900159030744" lon="120.98807714913369"><ele>-4.0</ele><time>2026-04-14T07:40:18.002Z</time></trkpt><trkpt lat="14.481967358195448" lon="120.98811049554777"><ele>-4.0</ele><time>2026-04-14T07:40:19.002Z</time></trkpt><trkpt lat="14.48202485743533" lon="120.988138762743"><ele>-3.9999999999999996</ele><time>2026-04-14T07:40:20.002Z</time></trkpt><trkpt lat="14.482129008338717" lon="120.98818475564201"><ele>-4.0</ele><time>2026-04-14T07:40:22.002Z</time></trkpt><trkpt lat="14.482237191493452" lon="120.98823491468347"><ele>-2.9999999999999996</ele><time>2026-04-14T07:40:24.002Z</time></trkpt><trkpt lat="14.482297625949045" lon="120.9882656616469"><ele>-2.0</ele><time>2026-04-14T07:40:25.002Z</time></trkpt><trkpt lat="14.482426469257984" lon="120.98833035938414"><ele>-1.0</ele><time>2026-04-14T07:40:27.002Z</time></trkpt><trkpt lat="14.482496466963887" lon="120.98836607150419"><ele>0.0</ele><time>2026-04-14T07:40:28.002Z</time></trkpt><trkpt lat="14.482568842942277" lon="120.98840272001752"><ele>0.9999999999999999</ele><time>2026-04-14T07:40:29.002Z</time></trkpt><trkpt lat="14.48263694613788" lon="120.98844478169016"><ele>2.0</ele><time>2026-04-14T07:40:30.002Z</time></trkpt><trkpt lat="14.482698660173911" lon="120.9884916962729"><ele>2.1666666666666665</ele><time>2026-04-14T07:40:31.002Z</time></trkpt><trkpt lat="14.482758721967318" lon="120.9885466077961"><ele>2.333333333333333</ele><time>2026-04-14T07:40:32.002Z</time></trkpt><trkpt lat="14.482815459055848" lon="120.98861157486499"><ele>2.5</ele><time>2026-04-14T07:40:33.002Z</time></trkpt><trkpt lat="14.482867907629979" lon="120.98868439746872"><ele>2.6666666666666665</ele><time>2026-04-14T07:40:34.002Z</time></trkpt><trkpt lat="14.482920563511666" lon="120.9887589454812"><ele>2.8333333333333335</ele><time>2026-04-14T07:40:35.002Z</time></trkpt><trkpt lat="14.482963612115748" lon="120.98883890086549"><ele>3.0</ele><time>2026-04-14T07:40:36.001Z</time></trkpt><trkpt lat="14.483005574446313" lon="120.9889193765318"><ele>3.0</ele><time>2026-04-14T07:40:37.001Z</time></trkpt><trkpt lat="14.483050602018043" lon="120.98900094675466"><ele>3.0</ele><time>2026-04-14T07:40:38.001Z</time></trkpt><trkpt lat="14.483096164201346" lon="120.98908674255844"><ele>3.0</ele><time>2026-04-14T07:40:39.001Z</time></trkpt><trkpt lat="14.483141724205744" lon="120.98917512643757"><ele>3.0</ele><time>2026-04-14T07:40:40.001Z</time></trkpt><trkpt lat="14.483190381081597" lon="120.98926703639053"><ele>3.0</ele><time>2026-04-14T07:40:41.001Z</time></trkpt><trkpt lat="14.483237672205693" lon="120.98936150878977"><ele>3.0</ele><time>2026-04-14T07:40:42.001Z</time></trkpt><trkpt lat="14.483285463141504" lon="120.98945383533946"><ele>3.0</ele><time>2026-04-14T07:40:43.001Z</time></trkpt><trkpt lat="14.48333514289631" lon="120.98954456169649"><ele>3.0</ele><time>2026-04-14T07:40:44.001Z</time></trkpt><trkpt lat="14.483382709934018" lon="120.98963424229734"><ele>3.0</ele><time>2026-04-14T07:40:45.001Z</time></trkpt><trkpt lat="14.483426723728867" lon="120.98972273174572"><ele>3.0</ele><time>2026-04-14T07:40:46.001Z</time></trkpt><trkpt lat="14.483471864695085" lon="120.98992542682298"><ele>3.8</ele><time>2026-04-14T07:40:48.001Z</time></trkpt><trkpt lat="14.483469842687727" lon="120.99003112743932"><ele>4.6</ele><time>2026-04-14T07:40:49.001Z</time></trkpt><trkpt lat="14.48346097815364" lon="120.99013358000136"><ele>5.3999999999999995</ele><time>2026-04-14T07:40:50.001Z</time></trkpt><trkpt lat="14.483421463982761" lon="120.99023511294587"><ele>6.199999999999999</ele><time>2026-04-14T07:40:51.001Z</time></trkpt><trkpt lat="14.483377324171169" lon="120.99033806153476"><ele>7.0</ele><time>2026-04-14T07:40:52.001Z</time></trkpt><trkpt lat="14.483333245280425" lon="120.99043982362342"><ele>7.0</ele><time>2026-04-14T07:40:53.001Z</time></trkpt><trkpt lat="14.48328704036552" lon="120.99055517829248"><ele>7.0</ele><time>2026-04-14T07:40:54.001Z</time></trkpt><trkpt lat="14.48324455721535" lon="120.99067165114259"><ele>7.0</ele><time>2026-04-14T07:40:55.001Z</time></trkpt><trkpt lat="14.483204148577414" lon="120.99078245759698"><ele>7.0</ele><time>2026-04-14T07:40:56.001Z</time></trkpt><trkpt lat="14.48317565412557" lon="120.99087898903726"><ele>7.0</ele><time>2026-04-14T07:40:57.001Z</time></trkpt><trkpt lat="14.483148723412413" lon="120.99098639552705"><ele>7.0</ele><time>2026-04-14T07:40:58.001Z</time></trkpt><trkpt lat="14.483129311811664" lon="120.99109935844301"><ele>7.0</ele><time>2026-04-14T07:40:59.001Z</time></trkpt><trkpt lat="14.483128426406125" lon="120.99122166515897"><ele>7.0</ele><time>2026-04-14T07:41:00.001Z</time></trkpt><trkpt lat="14.483146568315005" lon="120.99135271386837"><ele>7.0</ele><time>2026-04-14T07:41:01.001Z</time></trkpt><trkpt lat="14.48317161490453" lon="120.99148132987321"><ele>7.0</ele><time>2026-04-14T07:41:02.001Z</time></trkpt><trkpt lat="14.483207498475503" lon="120.99160520118039"><ele>7.0</ele><time>2026-04-14T07:41:03.001Z</time></trkpt><trkpt lat="14.483245084478256" lon="120.99172063021625"><ele>7.0</ele><time>2026-04-14T07:41:04.001Z</time></trkpt><trkpt lat="14.483283865662472" lon="120.99183194948722"><ele>5.75</ele><time>2026-04-14T07:41:05.001Z</time></trkpt><trkpt lat="14.483321018913314" lon="120.99193315390053"><ele>4.5</ele><time>2026-04-14T07:41:06.001Z</time></trkpt><trkpt lat="14.483354139133946" lon="120.99203055013987"><ele>3.25</ele><time>2026-04-14T07:41:07.001Z</time></trkpt><trkpt lat="14.483408709802093" lon="120.99220736552643"><ele>2.0</ele><time>2026-04-14T07:41:09.001Z</time></trkpt><trkpt lat="14.483437884037146" lon="120.99228952919118"><ele>2.0</ele><time>2026-04-14T07:41:10.001Z</time></trkpt><trkpt lat="14.483472084868547" lon="120.99236171642285"><ele>2.0</ele><time>2026-04-14T07:41:11.001Z</time></trkpt><trkpt lat="14.483532793716098" lon="120.9924386024557"><ele>2.0</ele><time>2026-04-14T07:41:12.001Z</time></trkpt><trkpt lat="14.48360308150621" lon="120.99249833343605"><ele>2.0</ele><time>2026-04-14T07:41:13.001Z</time></trkpt><trkpt lat="14.48368136152398" lon="120.99255510853722"><ele>2.0</ele><time>2026-04-14T07:41:14.001Z</time></trkpt><trkpt lat="14.483765555504862" lon="120.99261310740312"><ele>2.8</ele><time>2026-04-14T07:41:15.001Z</time></trkpt><trkpt lat="14.48385277867052" lon="120.99267144253186"><ele>3.6</ele><time>2026-04-14T07:41:16.001Z</time></trkpt><trkpt lat="14.483944841857605" lon="120.9927322618696"><ele>4.3999999999999995</ele><time>2026-04-14T07:41:17.001Z</time></trkpt><trkpt lat="14.484038869499306" lon="120.99279364621398"><ele>5.2</ele><time>2026-04-14T07:41:18.001Z</time></trkpt><trkpt lat="14.484128667949834" lon="120.99285190491904"><ele>6.0</ele><time>2026-04-14T07:41:19.001Z</time></trkpt><trkpt lat="14.48421837495711" lon="120.99290806879475"><ele>6.0</ele><time>2026-04-14T07:41:20.001Z</time></trkpt><trkpt lat="14.48429726577554" lon="120.99295754973609"><ele>6.0</ele><time>2026-04-14T07:41:21.001Z</time></trkpt><trkpt lat="14.484367716317596" lon="120.99300251834073"><ele>6.0</ele><time>2026-04-14T07:41:22.001Z</time></trkpt><trkpt lat="14.484435729777513" lon="120.99304677771582"><ele>6.0</ele><time>2026-04-14T07:41:23.001Z</time></trkpt><trkpt lat="14.484500706071271" lon="120.99308749108013"><ele>6.0</ele><time>2026-04-14T07:41:24.001Z</time></trkpt><trkpt lat="14.484559028834228" lon="120.99312321821252"><ele>6.0</ele><time>2026-04-14T07:41:25.001Z</time></trkpt><trkpt lat="14.48463217757614" lon="120.99316443373905"><ele>6.166666666666667</ele><time>2026-04-14T07:41:27.001Z</time></trkpt><trkpt lat="14.484699859435164" lon="120.99316563512299"><ele>6.333333333333334</ele><time>2026-04-14T07:41:30.001Z</time></trkpt><trkpt lat="14.484780038859737" lon="120.99305924963063"><ele>6.5</ele><time>2026-04-14T07:41:37.001Z</time></trkpt><trkpt lat="14.484829246194067" lon="120.99301204733634"><ele>6.666666666666667</ele><time>2026-04-14T07:41:41.001Z</time></trkpt><trkpt lat="14.484882206564484" lon="120.99297075796497"><ele>6.833333333333334</ele><time>2026-04-14T07:41:46.001Z</time></trkpt><trkpt lat="14.48492328770552" lon="120.99291641099384"><ele>7.0</ele><time>2026-04-14T07:41:50.001Z</time></trkpt><trkpt lat="14.484950426944273" lon="120.99281415510497"><ele>7.0</ele><time>2026-04-14T07:41:52.001Z</time></trkpt><trkpt lat="14.484988325202291" lon="120.9926790684211"><ele>6.999999999999999</ele><time>2026-04-14T07:41:54.001Z</time></trkpt><trkpt lat="14.485010428540786" lon="120.9926024487623"><ele>6.999999999999999</ele><time>2026-04-14T07:41:55.001Z</time></trkpt><trkpt lat="14.485039051273171" lon="120.99251943777251"><ele>7.0</ele><time>2026-04-14T07:41:56.001Z</time></trkpt><trkpt lat="14.485072011345988" lon="120.99243473070061"><ele>7.0</ele><time>2026-04-14T07:41:57.001Z</time></trkpt><trkpt lat="14.485108316059645" lon="120.99234773331163"><ele>7.0</ele><time>2026-04-14T07:41:58.001Z</time></trkpt><trkpt lat="14.485148763034596" lon="120.99225900911173"><ele>6.999999999999999</ele><time>2026-04-14T07:41:59.001Z</time></trkpt><trkpt lat="14.485196441324698" lon="120.99216786736864"><ele>6.999999999999999</ele><time>2026-04-14T07:42:00.001Z</time></trkpt><trkpt lat="14.485252307760122" lon="120.99207882044178"><ele>7.0</ele><time>2026-04-14T07:42:01.001Z</time></trkpt><trkpt lat="14.485313354677833" lon="120.99199131340382"><ele>7.0</ele><time>2026-04-14T07:42:02.001Z</time></trkpt><trkpt lat="14.485376704082261" lon="120.99190805331652"><ele>7.0</ele><time>2026-04-14T07:42:03.001Z</time></trkpt><trkpt lat="14.485443246114533" lon="120.99183131725005"><ele>6.999999999999999</ele><time>2026-04-14T07:42:04.001Z</time></trkpt><trkpt lat="14.485509479644614" lon="120.99175783724338"><ele>6.999999999999999</ele><time>2026-04-14T07:42:05.001Z</time></trkpt><trkpt lat="14.485577332003919" lon="120.99169425756682"><ele>7.0</ele><time>2026-04-14T07:42:06.001Z</time></trkpt><trkpt lat="14.48564493502723" lon="120.99163175294917"><ele>7.0</ele><time>2026-04-14T07:42:07.001Z</time></trkpt><trkpt lat="14.485716294679886" lon="120.99156750832985"><ele>7.6</ele><time>2026-04-14T07:42:08.001Z</time></trkpt><trkpt lat="14.485788845447521" lon="120.99151151680041"><ele>8.2</ele><time>2026-04-14T07:42:09.001Z</time></trkpt><trkpt lat="14.485870139667542" lon="120.9914611714904"><ele>8.8</ele><time>2026-04-14T07:42:10.001Z</time></trkpt><trkpt lat="14.485958884574142" lon="120.9914077394455"><ele>9.4</ele><time>2026-04-14T07:42:11.001Z</time></trkpt><trkpt lat="14.48604666060299" lon="120.99137473093634"><ele>10.0</ele><time>2026-04-14T07:42:12.001Z</time></trkpt><trkpt lat="14.486138806419618" lon="120.99134340833784"><ele>9.5</ele><time>2026-04-14T07:42:13.001Z</time></trkpt><trkpt lat="14.48632284831824" lon="120.99129110099616"><ele>9.0</ele><time>2026-04-14T07:42:15.001Z</time></trkpt><trkpt lat="14.4864154411983" lon="120.9912716809517"><ele>8.5</ele><time>2026-04-14T07:42:16.001Z</time></trkpt><trkpt lat="14.486510189010954" lon="120.99125502266247"><ele>8.0</ele><time>2026-04-14T07:42:17.001Z</time></trkpt><trkpt lat="14.486606906524019" lon="120.99124380977425"><ele>8.0</ele><time>2026-04-14T07:42:18.001Z</time></trkpt><trkpt lat="14.48669882481745" lon="120.99123807518428"><ele>8.0</ele><time>2026-04-14T07:42:19.001Z</time></trkpt><trkpt lat="14.486790489030204" lon="120.99123695947684"><ele>8.0</ele><time>2026-04-14T07:42:20.001Z</time></trkpt><trkpt lat="14.48688772135425" lon="120.9912406042358"><ele>8.0</ele><time>2026-04-14T07:42:21.001Z</time></trkpt><trkpt lat="14.486986544087033" lon="120.99125069263695"><ele>8.0</ele><time>2026-04-14T07:42:22.001Z</time></trkpt><trkpt lat="14.487088078133796" lon="120.99126189519004"><ele>8.0</ele><time>2026-04-14T07:42:23.001Z</time></trkpt><trkpt lat="14.487190124151383" lon="120.99127569493425"><ele>8.0</ele><time>2026-04-14T07:42:24.001Z</time></trkpt><trkpt lat="14.48729541035738" lon="120.99129204372954"><ele>8.0</ele><time>2026-04-14T07:42:25.001Z</time></trkpt><trkpt lat="14.487392277183837" lon="120.99131423410633"><ele>8.0</ele><time>2026-04-14T07:42:26.001Z</time></trkpt><trkpt lat="14.48748501726472" lon="120.99133269554576"><ele>8.0</ele><time>2026-04-14T07:42:27.001Z</time></trkpt><trkpt lat="14.487573561078543" lon="120.99134872882831"><ele>8.0</ele><time>2026-04-14T07:42:28.002Z</time></trkpt><trkpt lat="14.487654307209656" lon="120.99136115925793"><ele>8.0</ele><time>2026-04-14T07:42:29.002Z</time></trkpt><trkpt lat="14.487724147511885" lon="120.99137243224844"><ele>8.0</ele><time>2026-04-14T07:42:30.002Z</time></trkpt><trkpt lat="14.487829443866886" lon="120.99139182959797"><ele>8.0</ele><time>2026-04-14T07:42:32.002Z</time></trkpt><trkpt lat="14.487903491152013" lon="120.99140848111519"><ele>8.0</ele><time>2026-04-14T07:42:34.002Z</time></trkpt><trkpt lat="14.48804484575408" lon="120.99141215491592"><ele>7.75</ele><time>2026-04-14T07:43:33.001Z</time></trkpt><trkpt lat="14.488259545911124" lon="120.99143153683735"><ele>7.5</ele><time>2026-04-14T07:43:36.001Z</time></trkpt><trkpt lat="14.488358221665418" lon="120.99144271929627"><ele>7.25</ele><time>2026-04-14T07:43:37.001Z</time></trkpt><trkpt lat="14.488467036486378" lon="120.9914568194689"><ele>7.0</ele><time>2026-04-14T07:43:38.001Z</time></trkpt><trkpt lat="14.48858572672146" lon="120.99147334328862"><ele>7.0</ele><time>2026-04-14T07:43:39.001Z</time></trkpt><trkpt lat="14.488713290536941" lon="120.99149125129014"><ele>7.0</ele><time>2026-04-14T07:43:40.001Z</time></trkpt><trkpt lat="14.488847261594593" lon="120.99151081506051"><ele>7.0</ele><time>2026-04-14T07:43:41.001Z</time></trkpt><trkpt lat="14.48898603233457" lon="120.99153441599734"><ele>7.0</ele><time>2026-04-14T07:43:42.001Z</time></trkpt><trkpt lat="14.489127926389411" lon="120.99156034727409"><ele>6.666666666666667</ele><time>2026-04-14T07:43:43.001Z</time></trkpt><trkpt lat="14.489272433576296" lon="120.9915883636644"><ele>6.333333333333334</ele><time>2026-04-14T07:43:44.001Z</time></trkpt><trkpt lat="14.489423124373285" lon="120.99161697891088"><ele>6.0</ele><time>2026-04-14T07:43:45.001Z</time></trkpt><trkpt lat="14.48957449103288" lon="120.99164581825876"><ele>5.666666666666667</ele><time>2026-04-14T07:43:46.001Z</time></trkpt><trkpt lat="14.489729599423525" lon="120.99167479712823"><ele>5.333333333333334</ele><time>2026-04-14T07:43:47.001Z</time></trkpt><trkpt lat="14.489886464208345" lon="120.99170294358308"><ele>5.0</ele><time>2026-04-14T07:43:48.001Z</time></trkpt><trkpt lat="14.490046091969807" lon="120.99172916024843"><ele>5.0</ele><time>2026-04-14T07:43:49.001Z</time></trkpt><trkpt lat="14.49020605274986" lon="120.99175498423743"><ele>5.0</ele><time>2026-04-14T07:43:50.001Z</time></trkpt><trkpt lat="14.490368244169451" lon="120.99178112235272"><ele>5.0</ele><time>2026-04-14T07:43:51.001Z</time></trkpt><trkpt lat="14.49052899428538" lon="120.9918057267725"><ele>5.0</ele><time>2026-04-14T07:43:52.001Z</time></trkpt><trkpt lat="14.490691408419584" lon="120.99183064605882"><ele>5.0</ele><time>2026-04-14T07:43:53.001Z</time></trkpt><trkpt lat="14.49085282554802" lon="120.9918559587958"><ele>5.0</ele><time>2026-04-14T07:43:54.001Z</time></trkpt><trkpt lat="14.49117327397965" lon="120.99190890232924"><ele>6.0</ele><time>2026-04-14T07:43:56.001Z</time></trkpt><trkpt lat="14.491324578102331" lon="120.99193927121168"><ele>7.0</ele><time>2026-04-14T07:43:57.001Z</time></trkpt><trkpt lat="14.491475314273613" lon="120.99196862556768"><ele>8.0</ele><time>2026-04-14T07:43:58.001Z</time></trkpt><trkpt lat="14.49162347267831" lon="120.99199684012994"><ele>8.0</ele><time>2026-04-14T07:43:59.001Z</time></trkpt><trkpt lat="14.491761756440567" lon="120.9920238472081"><ele>8.0</ele><time>2026-04-14T07:44:00.001Z</time></trkpt><trkpt lat="14.491893062732638" lon="120.99204417445222"><ele>8.0</ele><time>2026-04-14T07:44:01.001Z</time></trkpt><trkpt lat="14.492019605235326" lon="120.99206142424265"><ele>8.0</ele><time>2026-04-14T07:44:02.001Z</time></trkpt><trkpt lat="14.492132678953856" lon="120.99207569979117"><ele>7.800000000000001</ele><time>2026-04-14T07:44:03.001Z</time></trkpt><trkpt lat="14.492241736986292" lon="120.9920896130669"><ele>7.6000000000000005</ele><time>2026-04-14T07:44:04.001Z</time></trkpt><trkpt lat="14.492348785805273" lon="120.9921046534036"><ele>7.3999999999999995</ele><time>2026-04-14T07:44:05.001Z</time></trkpt><trkpt lat="14.492459057347366" lon="120.99212197559734"><ele>7.199999999999999</ele><time>2026-04-14T07:44:06.001Z</time></trkpt><trkpt lat="14.492572249015794" lon="120.99214109277926"><ele>7.0</ele><time>2026-04-14T07:44:07.001Z</time></trkpt><trkpt lat="14.492700155876662" lon="120.99216070242906"><ele>7.0</ele><time>2026-04-14T07:44:08.001Z</time></trkpt><trkpt lat="14.492833382855453" lon="120.99218058154109"><ele>7.0</ele><time>2026-04-14T07:44:09.001Z</time></trkpt><trkpt lat="14.492971341159004" lon="120.99220295561939"><ele>7.0</ele><time>2026-04-14T07:44:10.001Z</time></trkpt><trkpt lat="14.493115285605443" lon="120.99222680673448"><ele>7.0</ele><time>2026-04-14T07:44:11.001Z</time></trkpt><trkpt lat="14.493266062141977" lon="120.99225168658828"><ele>6.333333333333334</ele><time>2026-04-14T07:44:12.001Z</time></trkpt><trkpt lat="14.49342143545535" lon="120.9922768088106"><ele>5.666666666666667</ele><time>2026-04-14T07:44:13.001Z</time></trkpt><trkpt lat="14.493575091388614" lon="120.99230130729309"><ele>5.0</ele><time>2026-04-14T07:44:14.001Z</time></trkpt><trkpt lat="14.49373824725691" lon="120.99232620817233"><ele>6.0</ele><time>2026-04-14T07:44:15.001Z</time></trkpt><trkpt lat="14.494079338568335" lon="120.99238099341856"><ele>7.0</ele><time>2026-04-14T07:44:17.001Z</time></trkpt><trkpt lat="14.494253829680671" lon="120.99240776711385"><ele>7.0</ele><time>2026-04-14T07:44:18.001Z</time></trkpt><trkpt lat="14.494427980425824" lon="120.99243434290948"><ele>7.0</ele><time>2026-04-14T07:44:19.001Z</time></trkpt><trkpt lat="14.494602597868763" lon="120.99246000378278"><ele>7.0</ele><time>2026-04-14T07:44:20.001Z</time></trkpt><trkpt lat="14.494775880060244" lon="120.99248566551375"><ele>6.0</ele><time>2026-04-14T07:44:21.001Z</time></trkpt><trkpt lat="14.4949486377952" lon="120.9925106340798"><ele>5.0</ele><time>2026-04-14T07:44:22.001Z</time></trkpt><trkpt lat="14.495121706845818" lon="120.99253373643305"><ele>4.0</ele><time>2026-04-14T07:44:23.001Z</time></trkpt><trkpt lat="14.495294294578455" lon="120.99255887704962"><ele>5.0</ele><time>2026-04-14T07:44:24.001Z</time></trkpt><trkpt lat="14.495470129571807" lon="120.99258836259813"><ele>6.0</ele><time>2026-04-14T07:44:25.001Z</time></trkpt><trkpt lat="14.495645930479732" lon="120.99262062807354"><ele>7.0</ele><time>2026-04-14T07:44:26.001Z</time></trkpt><trkpt lat="14.495827692414606" lon="120.99264520621529"><ele>7.0</ele><time>2026-04-14T07:44:27.001Z</time></trkpt><trkpt lat="14.496004697553296" lon="120.99267116152947"><ele>7.0</ele><time>2026-04-14T07:44:28.001Z</time></trkpt><trkpt lat="14.496183349948021" lon="120.99269612026265"><ele>7.0</ele><time>2026-04-14T07:44:29.001Z</time></trkpt><trkpt lat="14.49636174908478" lon="120.99270690854405"><ele>6.666666666666667</ele><time>2026-04-14T07:44:30.001Z</time></trkpt><trkpt lat="14.496546100860662" lon="120.99270971688988"><ele>6.333333333333334</ele><time>2026-04-14T07:44:31.001Z</time></trkpt><trkpt lat="14.496729517869518" lon="120.99269883617893"><ele>6.0</ele><time>2026-04-14T07:44:32.001Z</time></trkpt><trkpt lat="14.49690618842099" lon="120.99268454759265"><ele>6.0</ele><time>2026-04-14T07:44:33.001Z</time></trkpt><trkpt lat="14.497079710249071" lon="120.99266783727987"><ele>6.0</ele><time>2026-04-14T07:44:34.001Z</time></trkpt><trkpt lat="14.497253253675945" lon="120.99264969309739"><ele>6.0</ele><time>2026-04-14T07:44:35.001Z</time></trkpt><trkpt lat="14.497429814012904" lon="120.99262627927978"><ele>6.5</ele><time>2026-04-14T07:44:36.001Z</time></trkpt><trkpt lat="14.497761700093886" lon="120.99258226903586"><ele>7.0</ele><time>2026-04-14T07:44:38.002Z</time></trkpt><trkpt lat="14.497920867748341" lon="120.99257847515804"><ele>7.0</ele><time>2026-04-14T07:44:39.002Z</time></trkpt><trkpt lat="14.49807512550815" lon="120.99259329375585"><ele>7.0</ele><time>2026-04-14T07:44:40.002Z</time></trkpt><trkpt lat="14.498218112460426" lon="120.99261997372815"><ele>7.0</ele><time>2026-04-14T07:44:41.002Z</time></trkpt><trkpt lat="14.498341764823476" lon="120.99268276907561"><ele>7.0</ele><time>2026-04-14T07:44:42.002Z</time></trkpt><trkpt lat="14.498453273196322" lon="120.99275962119128"><ele>7.0</ele><time>2026-04-14T07:44:43.002Z</time></trkpt><trkpt lat="14.498533967262812" lon="120.99286463378465"><ele>7.0</ele><time>2026-04-14T07:44:44.002Z</time></trkpt><trkpt lat="14.498599681575335" lon="120.99298248220411"><ele>7.0</ele><time>2026-04-14T07:44:45.002Z</time></trkpt><trkpt lat="14.498657433460611" lon="120.99311449258596"><ele>7.0</ele><time>2026-04-14T07:44:46.002Z</time></trkpt><trkpt lat="14.498695267430856" lon="120.9932612777653"><ele>6.75</ele><time>2026-04-14T07:44:47.001Z</time></trkpt><trkpt lat="14.49872982962846" lon="120.9934082867254"><ele>6.5</ele><time>2026-04-14T07:44:48.001Z</time></trkpt><trkpt lat="14.498752196405773" lon="120.99356177066059"><ele>6.25</ele><time>2026-04-14T07:44:49.001Z</time></trkpt><trkpt lat="14.498777143971116" lon="120.99371351270722"><ele>6.0</ele><time>2026-04-14T07:44:50.001Z</time></trkpt><trkpt lat="14.498802001560234" lon="120.99386874982872"><ele>5.75</ele><time>2026-04-14T07:44:51.001Z</time></trkpt><trkpt lat="14.498827145294676" lon="120.9940103379674"><ele>5.5</ele><time>2026-04-14T07:44:52.001Z</time></trkpt><trkpt lat="14.498853659781432" lon="120.99413993584082"><ele>5.25</ele><time>2026-04-14T07:44:53.001Z</time></trkpt><trkpt lat="14.4988824014419" lon="120.99426940827303"><ele>5.0</ele><time>2026-04-14T07:44:54.001Z</time></trkpt><trkpt lat="14.498895624902898" lon="120.99438875417692"><ele>4.666666666666667</ele><time>2026-04-14T07:44:55.001Z</time></trkpt><trkpt lat="14.49892433110648" lon="120.99451293605259"><ele>4.333333333333333</ele><time>2026-04-14T07:44:56.001Z</time></trkpt><trkpt lat="14.498947487345236" lon="120.99461882629768"><ele>4.0</ele><time>2026-04-14T07:44:57.001Z</time></trkpt><trkpt lat="14.49899321968487" lon="120.99485158710208"><ele>4.0</ele><time>2026-04-14T07:44:59.001Z</time></trkpt><trkpt lat="14.499011460254058" lon="120.99496627414842"><ele>4.0</ele><time>2026-04-14T07:45:00Z</time></trkpt><trkpt lat="14.499044091536268" lon="120.99508570126264"><ele>4.0</ele><time>2026-04-14T07:45:01Z</time></trkpt><trkpt lat="14.499077987236408" lon="120.9952058783081"><ele>4.0</ele><time>2026-04-14T07:45:02Z</time></trkpt><trkpt lat="14.499103948815867" lon="120.99531888133231"><ele>4.0</ele><time>2026-04-14T07:45:03Z</time></trkpt><trkpt lat="14.499134601406027" lon="120.99543206398599"><ele>4.0</ele><time>2026-04-14T07:45:04Z</time></trkpt><trkpt lat="14.499171798274991" lon="120.99553218085849"><ele>4.0</ele><time>2026-04-14T07:45:05Z</time></trkpt><trkpt lat="14.499206901813825" lon="120.99563572984938"><ele>4.0</ele><time>2026-04-14T07:45:06Z</time></trkpt><trkpt lat="14.499244522435564" lon="120.99573476146641"><ele>4.0</ele><time>2026-04-14T07:45:07.001Z</time></trkpt><trkpt lat="14.499282867044615" lon="120.99583329881987"><ele>4.800000000000001</ele><time>2026-04-14T07:45:08.001Z</time></trkpt><trkpt lat="14.499325750498766" lon="120.9959348367817"><ele>5.6000000000000005</ele><time>2026-04-14T07:45:09.001Z</time></trkpt><trkpt lat="14.499372787300212" lon="120.99603459826064"><ele>6.4</ele><time>2026-04-14T07:45:10.001Z</time></trkpt><trkpt lat="14.499419186444701" lon="120.99613873590181"><ele>7.2</ele><time>2026-04-14T07:45:11.001Z</time></trkpt><trkpt lat="14.499467620171279" lon="120.99624143717858"><ele>8.0</ele><time>2026-04-14T07:45:12.001Z</time></trkpt><trkpt lat="14.49952177242747" lon="120.99633884163279"><ele>8.0</ele><time>2026-04-14T07:45:13.001Z</time></trkpt><trkpt lat="14.499579282673787" lon="120.99642681788845"><ele>8.0</ele><time>2026-04-14T07:45:14.001Z</time></trkpt><trkpt lat="14.49963593475095" lon="120.99650731547509"><ele>8.0</ele><time>2026-04-14T07:45:15.001Z</time></trkpt><trkpt lat="14.499690121906562" lon="120.9965818876027"><ele>8.0</ele><time>2026-04-14T07:45:16.001Z</time></trkpt><trkpt lat="14.499743133812403" lon="120.99665608129999"><ele>8.0</ele><time>2026-04-14T07:45:17.001Z</time></trkpt><trkpt lat="14.499793391850309" lon="120.99672821516222"><ele>7.5</ele><time>2026-04-14T07:45:18.001Z</time></trkpt><trkpt lat="14.499905158431826" lon="120.99687143785987"><ele>7.0</ele><time>2026-04-14T07:45:20.001Z</time></trkpt><trkpt lat="14.49996815647296" lon="120.99694470982378"><ele>6.5</ele><time>2026-04-14T07:45:21.001Z</time></trkpt><trkpt lat="14.500032826032658" lon="120.99702178867896"><ele>6.0</ele><time>2026-04-14T07:45:22.001Z</time></trkpt><trkpt lat="14.500100399593515" lon="120.99709497688904"><ele>6.0</ele><time>2026-04-14T07:45:23.001Z</time></trkpt><trkpt lat="14.500170429265328" lon="120.99716816666418"><ele>6.0</ele><time>2026-04-14T07:45:24.001Z</time></trkpt><trkpt lat="14.500232488292454" lon="120.99723099349852"><ele>6.0</ele><time>2026-04-14T07:45:25.001Z</time></trkpt><trkpt lat="14.500295817758158" lon="120.99729151076899"><ele>6.0</ele><time>2026-04-14T07:45:26.001Z</time></trkpt><trkpt lat="14.500362129972384" lon="120.9973471026356"><ele>6.0</ele><time>2026-04-14T07:45:27.001Z</time></trkpt><trkpt lat="14.500432651407207" lon="120.99740592936179"><ele>6.0</ele><time>2026-04-14T07:45:28.001Z</time></trkpt><trkpt lat="14.500503105788459" lon="120.9974670064906"><ele>5.8</ele><time>2026-04-14T07:45:29.001Z</time></trkpt><trkpt lat="14.500577121649224" lon="120.9975296369074"><ele>5.6</ele><time>2026-04-14T07:45:30.001Z</time></trkpt><trkpt lat="14.50065593416076" lon="120.99759025631539"><ele>5.4</ele><time>2026-04-14T07:45:31.001Z</time></trkpt><trkpt lat="14.500741831354418" lon="120.99765339161051"><ele>5.2</ele><time>2026-04-14T07:45:32.001Z</time></trkpt><trkpt lat="14.500829437654284" lon="120.99771305115841"><ele>5.0</ele><time>2026-04-14T07:45:33.001Z</time></trkpt><trkpt lat="14.50091773808555" lon="120.997774326758"><ele>5.0</ele><time>2026-04-14T07:45:34.001Z</time></trkpt><trkpt lat="14.501007272416135" lon="120.99783388356023"><ele>5.0</ele><time>2026-04-14T07:45:35.001Z</time></trkpt><trkpt lat="14.501094206422772" lon="120.99789330072997"><ele>5.0</ele><time>2026-04-14T07:45:36.001Z</time></trkpt><trkpt lat="14.50117648051862" lon="120.9979428761372"><ele>5.0</ele><time>2026-04-14T07:45:37.001Z</time></trkpt><trkpt lat="14.50125755472097" lon="120.99799360368709"><ele>5.0</ele><time>2026-04-14T07:45:38.001Z</time></trkpt><trkpt lat="14.501338737664318" lon="120.99804446300897"><ele>5.2</ele><time>2026-04-14T07:45:39.001Z</time></trkpt><trkpt lat="14.50149439148383" lon="120.99814004332772"><ele>5.4</ele><time>2026-04-14T07:45:41.001Z</time></trkpt><trkpt lat="14.501563758893218" lon="120.99818472472596"><ele>5.6</ele><time>2026-04-14T07:45:42.001Z</time></trkpt><trkpt lat="14.50162667857388" lon="120.99822679414613"><ele>5.8</ele><time>2026-04-14T07:45:43.001Z</time></trkpt><trkpt lat="14.501716582815526" lon="120.99828713340145"><ele>6.0</ele><time>2026-04-14T07:45:45.001Z</time></trkpt><trkpt lat="14.50178449673479" lon="120.9983323146203"><ele>6.6</ele><time>2026-04-14T07:45:47.001Z</time></trkpt><trkpt lat="14.501856963970281" lon="120.99837968745074"><ele>7.199999999999999</ele><time>2026-04-14T07:45:49.001Z</time></trkpt><trkpt lat="14.501918252463726" lon="120.99842068344581"><ele>7.800000000000001</ele><time>2026-04-14T07:45:51.001Z</time></trkpt><trkpt lat="14.50199687514139" lon="120.99846883438619"><ele>8.4</ele><time>2026-04-14T07:45:53.001Z</time></trkpt><trkpt lat="14.502106684543726" lon="120.99853030787517"><ele>9.0</ele><time>2026-04-14T07:45:55.001Z</time></trkpt><trkpt lat="14.502171793160855" lon="120.9985685511526"><ele>9.0</ele><time>2026-04-14T07:45:56.001Z</time></trkpt><trkpt lat="14.502236857587796" lon="120.9986096773292"><ele>9.0</ele><time>2026-04-14T07:45:57.001Z</time></trkpt><trkpt lat="14.502305217828384" lon="120.99865116931748"><ele>9.0</ele><time>2026-04-14T07:45:58.001Z</time></trkpt><trkpt lat="14.502380686837522" lon="120.99869289673379"><ele>9.0</ele><time>2026-04-14T07:45:59.001Z</time></trkpt><trkpt lat="14.502464266311812" lon="120.99873844066093"><ele>9.0</ele><time>2026-04-14T07:46:00.001Z</time></trkpt><trkpt lat="14.50264583859177" lon="120.99884879318624"><ele>9.0</ele><time>2026-04-14T07:46:02.001Z</time></trkpt><trkpt lat="14.502745629911361" lon="120.99891018716716"><ele>9.0</ele><time>2026-04-14T07:46:03.001Z</time></trkpt><trkpt lat="14.502847989911977" lon="120.99897301088693"><ele>9.0</ele><time>2026-04-14T07:46:04.001Z</time></trkpt><trkpt lat="14.502949356034451" lon="120.99903790316728"><ele>9.0</ele><time>2026-04-14T07:46:05.001Z</time></trkpt><trkpt lat="14.503050073438773" lon="120.99910229617888"><ele>9.0</ele><time>2026-04-14T07:46:06.001Z</time></trkpt><trkpt lat="14.503148789096446" lon="120.999164198523"><ele>9.0</ele><time>2026-04-14T07:46:07.001Z</time></trkpt><trkpt lat="14.503249759619015" lon="120.99922694073983"><ele>9.0</ele><time>2026-04-14T07:46:08.001Z</time></trkpt><trkpt lat="14.503351809691193" lon="120.99928831707781"><ele>9.0</ele><time>2026-04-14T07:46:09.001Z</time></trkpt><trkpt lat="14.503454718530364" lon="120.99935169117258"><ele>9.0</ele><time>2026-04-14T07:46:10.001Z</time></trkpt><trkpt lat="14.50355716759441" lon="120.99941623181837"><ele>9.0</ele><time>2026-04-14T07:46:11.001Z</time></trkpt><trkpt lat="14.503659214486012" lon="120.99947994585945"><ele>9.0</ele><time>2026-04-14T07:46:12.001Z</time></trkpt><trkpt lat="14.50376024474538" lon="120.99954276945518"><ele>9.0</ele><time>2026-04-14T07:46:13.001Z</time></trkpt><trkpt lat="14.50386205191308" lon="120.99960669898812"><ele>9.25</ele><time>2026-04-14T07:46:14.001Z</time></trkpt><trkpt lat="14.503962495303107" lon="120.99967209595438"><ele>9.5</ele><time>2026-04-14T07:46:15.001Z</time></trkpt><trkpt lat="14.504067786539467" lon="120.99973702306096"><ele>9.75</ele><time>2026-04-14T07:46:16.001Z</time></trkpt><trkpt lat="14.504169987817361" lon="120.99980259352148"><ele>10.0</ele><time>2026-04-14T07:46:17.001Z</time></trkpt><trkpt lat="14.504266993570079" lon="120.99987183940902"><ele>10.0</ele><time>2026-04-14T07:46:18.001Z</time></trkpt><trkpt lat="14.504358194313426" lon="120.9999434940003"><ele>10.0</ele><time>2026-04-14T07:46:19.001Z</time></trkpt><trkpt lat="14.504444210648447" lon="121.00001120763653"><ele>10.0</ele><time>2026-04-14T07:46:20.001Z</time></trkpt><trkpt lat="14.504526534854078" lon="121.00007430621321"><ele>10.0</ele><time>2026-04-14T07:46:21.001Z</time></trkpt><trkpt lat="14.504691877669822" lon="121.00018727257805"><ele>9.5</ele><time>2026-04-14T07:46:23.001Z</time></trkpt><trkpt lat="14.504770380516511" lon="121.00023845677616"><ele>9.0</ele><time>2026-04-14T07:46:24.001Z</time></trkpt><trkpt lat="14.50484313994535" lon="121.0002856730261"><ele>8.5</ele><time>2026-04-14T07:46:25.001Z</time></trkpt><trkpt lat="14.504909880484218" lon="121.0003305217626"><ele>8.0</ele><time>2026-04-14T07:46:26.001Z</time></trkpt><trkpt lat="14.50497552641575" lon="121.00037178799005"><ele>7.500000000000001</ele><time>2026-04-14T07:46:27.001Z</time></trkpt><trkpt lat="14.505042832017166" lon="121.00041264534119"><ele>7.0</ele><time>2026-04-14T07:46:28.001Z</time></trkpt><trkpt lat="14.50510610142579" lon="121.00044790540265"><ele>7.0</ele><time>2026-04-14T07:46:29.001Z</time></trkpt><trkpt lat="14.505161228586623" lon="121.00048070442118"><ele>6.999999999999999</ele><time>2026-04-14T07:46:30.001Z</time></trkpt><trkpt lat="14.505263943082067" lon="121.0005458092042"><ele>6.999999999999999</ele><time>2026-04-14T07:46:32.001Z</time></trkpt><trkpt lat="14.505373490866043" lon="121.00061201265741"><ele>7.0</ele><time>2026-04-14T07:46:34.001Z</time></trkpt><trkpt lat="14.50543523536475" lon="121.00064476894272"><ele>7.0</ele><time>2026-04-14T07:46:35.001Z</time></trkpt><trkpt lat="14.505499944088243" lon="121.00067736471797"><ele>7.6</ele><time>2026-04-14T07:46:36.001Z</time></trkpt><trkpt lat="14.505575056737396" lon="121.00071200892263"><ele>8.2</ele><time>2026-04-14T07:46:37.001Z</time></trkpt><trkpt lat="14.505652443795586" lon="121.00074709567784"><ele>8.8</ele><time>2026-04-14T07:46:38.001Z</time></trkpt><trkpt lat="14.505734986959627" lon="121.00078394572672"><ele>9.4</ele><time>2026-04-14T07:46:39.001Z</time></trkpt><trkpt lat="14.505821667841163" lon="121.00082519182362"><ele>10.0</ele><time>2026-04-14T07:46:40.001Z</time></trkpt><trkpt lat="14.505913736653705" lon="121.00086721408029"><ele>10.0</ele><time>2026-04-14T07:46:41.001Z</time></trkpt><trkpt lat="14.506011888024423" lon="121.00090870937744"><ele>10.0</ele><time>2026-04-14T07:46:42.001Z</time></trkpt><trkpt lat="14.506220060735181" lon="121.00099348784738"><ele>10.0</ele><time>2026-04-14T07:46:44.001Z</time></trkpt><trkpt lat="14.506326994575268" lon="121.001035759501"><ele>10.0</ele><time>2026-04-14T07:46:45.001Z</time></trkpt><trkpt lat="14.506429925918464" lon="121.00107417883059"><ele>10.0</ele><time>2026-04-14T07:46:46.001Z</time></trkpt><trkpt lat="14.506527498269552" lon="121.00111004880755"><ele>10.0</ele><time>2026-04-14T07:46:47.001Z</time></trkpt><trkpt lat="14.506620659235422" lon="121.00114339898715"><ele>10.0</ele><time>2026-04-14T07:46:48.001Z</time></trkpt><trkpt lat="14.506711024046432" lon="121.00117462667446"><ele>10.0</ele><time>2026-04-14T07:46:49.001Z</time></trkpt><trkpt lat="14.506797804500968" lon="121.00120568907607"><ele>10.0</ele><time>2026-04-14T07:46:50.001Z</time></trkpt><trkpt lat="14.506879002696971" lon="121.00123573269575"><ele>10.0</ele><time>2026-04-14T07:46:51.001Z</time></trkpt><trkpt lat="14.506961951725774" lon="121.00126573769421"><ele>10.0</ele><time>2026-04-14T07:46:52.001Z</time></trkpt><trkpt lat="14.507033714108323" lon="121.00130018156791"><ele>10.0</ele><time>2026-04-14T07:46:53Z</time></trkpt><trkpt lat="14.507105985602724" lon="121.00133313574874"><ele>10.0</ele><time>2026-04-14T07:46:54Z</time></trkpt><trkpt lat="14.507184554181192" lon="121.00136839273401"><ele>10.0</ele><time>2026-04-14T07:46:55Z</time></trkpt><trkpt lat="14.507275220965521" lon="121.00140626398456"><ele>10.0</ele><time>2026-04-14T07:46:56Z</time></trkpt><trkpt lat="14.507369950987338" lon="121.00144227676648"><ele>9.6</ele><time>2026-04-14T07:46:57Z</time></trkpt><trkpt lat="14.507470389682204" lon="121.00148323932578"><ele>9.2</ele><time>2026-04-14T07:46:58Z</time></trkpt><trkpt lat="14.507569427240414" lon="121.00152442033301"><ele>8.8</ele><time>2026-04-14T07:46:59Z</time></trkpt><trkpt lat="14.50767011445729" lon="121.00158174380705"><ele>8.4</ele><time>2026-04-14T07:47:00Z</time></trkpt><trkpt lat="14.507769743497455" lon="121.00164200885366"><ele>8.0</ele><time>2026-04-14T07:47:01Z</time></trkpt><trkpt lat="14.507870572111331" lon="121.00169728537055"><ele>8.25</ele><time>2026-04-14T07:47:02Z</time></trkpt><trkpt lat="14.507972727943724" lon="121.00174736211765"><ele>8.5</ele><time>2026-04-14T07:47:03Z</time></trkpt><trkpt lat="14.50816593734383" lon="121.00182683234571"><ele>8.75</ele><time>2026-04-14T07:47:05Z</time></trkpt><trkpt lat="14.508258245451719" lon="121.0018573282944"><ele>9.0</ele><time>2026-04-14T07:47:06Z</time></trkpt><trkpt lat="14.508348538880895" lon="121.00188587108251"><ele>9.0</ele><time>2026-04-14T07:47:07Z</time></trkpt><trkpt lat="14.508434294248069" lon="121.00191501163157"><ele>9.0</ele><time>2026-04-14T07:47:08Z</time></trkpt><trkpt lat="14.50852008395886" lon="121.00194529923324"><ele>9.0</ele><time>2026-04-14T07:47:09Z</time></trkpt><trkpt lat="14.508611479084685" lon="121.00197738067016"><ele>9.0</ele><time>2026-04-14T07:47:10Z</time></trkpt><trkpt lat="14.508700873378876" lon="121.00200860645194"><ele>9.0</ele><time>2026-04-14T07:47:11Z</time></trkpt><trkpt lat="14.50879495747186" lon="121.0020372987424"><ele>8.6</ele><time>2026-04-14T07:47:12Z</time></trkpt><trkpt lat="14.508891542006541" lon="121.00205657415106"><ele>8.2</ele><time>2026-04-14T07:47:13Z</time></trkpt><trkpt lat="14.508990363002567" lon="121.00207591059849"><ele>7.799999999999999</ele><time>2026-04-14T07:47:14Z</time></trkpt><trkpt lat="14.509091606377064" lon="121.00209451693372"><ele>7.3999999999999995</ele><time>2026-04-14T07:47:15Z</time></trkpt><trkpt lat="14.50919394463863" lon="121.00211475986946"><ele>7.0</ele><time>2026-04-14T07:47:16Z</time></trkpt><trkpt lat="14.509296798351512" lon="121.00213981155052"><ele>7.0</ele><time>2026-04-14T07:47:17Z</time></trkpt><trkpt lat="14.509399424461881" lon="121.0021714526357"><ele>6.999999999999999</ele><time>2026-04-14T07:47:18Z</time></trkpt><trkpt lat="14.509500135733944" lon="121.00220793963334"><ele>6.999999999999999</ele><time>2026-04-14T07:47:19Z</time></trkpt><trkpt lat="14.509598826580987" lon="121.00224110578554"><ele>7.0</ele><time>2026-04-14T07:47:20Z</time></trkpt><trkpt lat="14.509696569244127" lon="121.00227389564509"><ele>7.0</ele><time>2026-04-14T07:47:21Z</time></trkpt><trkpt lat="14.509796589715062" lon="121.00230471408194"><ele>6.333333333333334</ele><time>2026-04-14T07:47:22Z</time></trkpt><trkpt lat="14.509894766308593" lon="121.00233598276398"><ele>5.666666666666667</ele><time>2026-04-14T07:47:23Z</time></trkpt><trkpt lat="14.510002548409124" lon="121.00237441654129"><ele>5.0</ele><time>2026-04-14T07:47:24Z</time></trkpt><trkpt lat="14.510225259530834" lon="121.00245573198345"><ele>5.0</ele><time>2026-04-14T07:47:26.001Z</time></trkpt><trkpt lat="14.510340842816095" lon="121.00249139347142"><ele>5.0</ele><time>2026-04-14T07:47:27.001Z</time></trkpt><trkpt lat="14.510459745563258" lon="121.00253037591335"><ele>5.0</ele><time>2026-04-14T07:47:28.001Z</time></trkpt><trkpt lat="14.51057755337129" lon="121.00257322770322"><ele>5.0</ele><time>2026-04-14T07:47:29.001Z</time></trkpt><trkpt lat="14.51069064579902" lon="121.00261628942202"><ele>5.2</ele><time>2026-04-14T07:47:30.001Z</time></trkpt><trkpt lat="14.510785221085605" lon="121.00264960579568"><ele>5.4</ele><time>2026-04-14T07:47:31.001Z</time></trkpt><trkpt lat="14.510872481303876" lon="121.00268120814872"><ele>5.6</ele><time>2026-04-14T07:47:32.001Z</time></trkpt><trkpt lat="14.510964146007796" lon="121.00271375578373"><ele>5.8</ele><time>2026-04-14T07:47:33.001Z</time></trkpt><trkpt lat="14.511060948733897" lon="121.00274643229731"><ele>6.0</ele><time>2026-04-14T07:47:34.001Z</time></trkpt><trkpt lat="14.51115554464181" lon="121.00278066081994"><ele>6.0</ele><time>2026-04-14T07:47:35.001Z</time></trkpt><trkpt lat="14.511237278024703" lon="121.00281125735323"><ele>6.0</ele><time>2026-04-14T07:47:36.001Z</time></trkpt><trkpt lat="14.511311512203461" lon="121.00284055365036"><ele>6.0</ele><time>2026-04-14T07:47:37.001Z</time></trkpt><trkpt lat="14.511384494469903" lon="121.00286961028077"><ele>6.0</ele><time>2026-04-14T07:47:38.001Z</time></trkpt><trkpt lat="14.511460467677889" lon="121.00290141007508"><ele>6.0</ele><time>2026-04-14T07:47:39.001Z</time></trkpt><trkpt lat="14.511539696320394" lon="121.00293413722933"><ele>6.0</ele><time>2026-04-14T07:47:40.001Z</time></trkpt><trkpt lat="14.511624881113713" lon="121.00296850787507"><ele>6.0</ele><time>2026-04-14T07:47:41.001Z</time></trkpt><trkpt lat="14.51171188143541" lon="121.00300276876713"><ele>6.0</ele><time>2026-04-14T07:47:42.001Z</time></trkpt><trkpt lat="14.511810088889378" lon="121.00304233888289"><ele>6.0</ele><time>2026-04-14T07:47:43.001Z</time></trkpt><trkpt lat="14.51191556080368" lon="121.00308905245586"><ele>6.0</ele><time>2026-04-14T07:47:44.001Z</time></trkpt><trkpt lat="14.512025364928387" lon="121.0031337028929"><ele>6.0</ele><time>2026-04-14T07:47:45.001Z</time></trkpt><trkpt lat="14.51225299038164" lon="121.0032171185968"><ele>6.25</ele><time>2026-04-14T07:47:47.001Z</time></trkpt><trkpt lat="14.51236953009111" lon="121.00325744324648"><ele>6.5</ele><time>2026-04-14T07:47:48.001Z</time></trkpt><trkpt lat="14.51248477021616" lon="121.00329702310071"><ele>6.75</ele><time>2026-04-14T07:47:49.001Z</time></trkpt><trkpt lat="14.512599861681545" lon="121.00333787318719"><ele>7.0</ele><time>2026-04-14T07:47:50.001Z</time></trkpt><trkpt lat="14.512710715538057" lon="121.00337829611003"><ele>7.0</ele><time>2026-04-14T07:47:51.001Z</time></trkpt><trkpt lat="14.512826268719024" lon="121.00341894911233"><ele>7.0</ele><time>2026-04-14T07:47:52.001Z</time></trkpt><trkpt lat="14.512949012848694" lon="121.00346002604626"><ele>7.0</ele><time>2026-04-14T07:47:53.001Z</time></trkpt><trkpt lat="14.513075526594735" lon="121.00350150135534"><ele>7.0</ele><time>2026-04-14T07:47:54.001Z</time></trkpt><trkpt lat="14.513212608247782" lon="121.00355162043085"><ele>7.25</ele><time>2026-04-14T07:47:55.001Z</time></trkpt><trkpt lat="14.513341992150474" lon="121.00359756494238"><ele>7.5</ele><time>2026-04-14T07:47:56.001Z</time></trkpt><trkpt lat="14.513457289313779" lon="121.00363746800534"><ele>7.75</ele><time>2026-04-14T07:47:57.001Z</time></trkpt><trkpt lat="14.513560916754429" lon="121.00367630171576"><ele>8.0</ele><time>2026-04-14T07:47:58.001Z</time></trkpt><trkpt lat="14.513658350067102" lon="121.0037136490737"><ele>8.666666666666666</ele><time>2026-04-14T07:47:59.001Z</time></trkpt><trkpt lat="14.513753763757132" lon="121.00374917413549"><ele>9.333333333333332</ele><time>2026-04-14T07:48:00.001Z</time></trkpt><trkpt lat="14.513843713260124" lon="121.00378160136961"><ele>10.0</ele><time>2026-04-14T07:48:01.001Z</time></trkpt><trkpt lat="14.513928908821" lon="121.00381213099678"><ele>10.666666666666666</ele><time>2026-04-14T07:48:02.001Z</time></trkpt><trkpt lat="14.51400668345151" lon="121.00384169099316"><ele>11.333333333333334</ele><time>2026-04-14T07:48:03.001Z</time></trkpt><trkpt lat="14.51407093269919" lon="121.00386730382691"><ele>12.0</ele><time>2026-04-14T07:48:04.001Z</time></trkpt><trkpt lat="14.514175043704295" lon="121.00391380828394"><ele>12.0</ele><time>2026-04-14T07:48:06.001Z</time></trkpt><trkpt lat="14.514342088363541" lon="121.00397686563981"><ele>12.0</ele><time>2026-04-14T07:48:09.001Z</time></trkpt><trkpt lat="14.514401707137152" lon="121.0040015473283"><ele>12.0</ele><time>2026-04-14T07:48:10.001Z</time></trkpt><trkpt lat="14.514495639211919" lon="121.00405260244636"><ele>12.0</ele><time>2026-04-14T07:48:12.001Z</time></trkpt><trkpt lat="14.51456342211827" lon="121.00407940428065"><ele>12.0</ele><time>2026-04-14T07:48:14.001Z</time></trkpt><trkpt lat="14.51463439687723" lon="121.00410725627955"><ele>11.4</ele><time>2026-04-14T07:48:18.001Z</time></trkpt><trkpt lat="14.514707720348563" lon="121.00411903475111"><ele>10.799999999999999</ele><time>2026-04-14T07:48:24.001Z</time></trkpt><trkpt lat="14.514774237276427" lon="121.00412360498213"><ele>10.2</ele><time>2026-04-14T07:48:27.001Z</time></trkpt><trkpt lat="14.514928851177359" lon="121.00417353481758"><ele>9.6</ele><time>2026-04-14T07:48:41.001Z</time></trkpt><trkpt lat="14.51501476626389" lon="121.00420442976677"><ele>9.0</ele><time>2026-04-14T07:48:44.001Z</time></trkpt><trkpt lat="14.515080315551266" lon="121.00422674214126"><ele>9.0</ele><time>2026-04-14T07:48:46.001Z</time></trkpt><trkpt lat="14.515154370958568" lon="121.00424663473383"><ele>9.0</ele><time>2026-04-14T07:48:48.001Z</time></trkpt><trkpt lat="14.515290393646758" lon="121.00426379020753"><ele>9.0</ele><time>2026-04-14T07:48:52.001Z</time></trkpt><trkpt lat="14.515364258721888" lon="121.00424355842705"><ele>9.0</ele><time>2026-04-14T07:48:54.001Z</time></trkpt><trkpt lat="14.515422390687776" lon="121.00418147180686"><ele>9.0</ele><time>2026-04-14T07:48:56.001Z</time></trkpt><trkpt lat="14.515475158893365" lon="121.00408967287478"><ele>8.833333333333334</ele><time>2026-04-14T07:48:58.001Z</time></trkpt><trkpt lat="14.515499820871453" lon="121.00402596846358"><ele>8.666666666666666</ele><time>2026-04-14T07:48:59.001Z</time></trkpt><trkpt lat="14.515529867316586" lon="121.00395684523397"><ele>8.5</ele><time>2026-04-14T07:49:00.001Z</time></trkpt><trkpt lat="14.51556235534985" lon="121.00387411316107"><ele>8.333333333333332</ele><time>2026-04-14T07:49:01.001Z</time></trkpt><trkpt lat="14.515597011588914" lon="121.00378851831005"><ele>8.166666666666666</ele><time>2026-04-14T07:49:02.001Z</time></trkpt><trkpt lat="14.515632258382785" lon="121.00369885989598"><ele>8.0</ele><time>2026-04-14T07:49:03.001Z</time></trkpt><trkpt lat="14.515668194457712" lon="121.00361653065498"><ele>8.0</ele><time>2026-04-14T07:49:04.001Z</time></trkpt><trkpt lat="14.515702172991451" lon="121.00353958345616"><ele>8.0</ele><time>2026-04-14T07:49:05.001Z</time></trkpt><trkpt lat="14.515735136900128" lon="121.00345874800655"><ele>8.0</ele><time>2026-04-14T07:49:06.001Z</time></trkpt><trkpt lat="14.515786264882445" lon="121.00338415161879"><ele>8.0</ele><time>2026-04-14T07:49:07.001Z</time></trkpt><trkpt lat="14.515830884549889" lon="121.00329616147117"><ele>8.0</ele><time>2026-04-14T07:49:08.001Z</time></trkpt><trkpt lat="14.515878975248626" lon="121.0032013264426"><ele>7.333333333333333</ele><time>2026-04-14T07:49:09.001Z</time></trkpt><trkpt lat="14.515982546206759" lon="121.00299721095776"><ele>6.666666666666666</ele><time>2026-04-14T07:49:11.001Z</time></trkpt><trkpt lat="14.516037384990996" lon="121.00289409525215"><ele>6.0</ele><time>2026-04-14T07:49:12.001Z</time></trkpt><trkpt lat="14.516095104495736" lon="121.00278188039542"><ele>6.0</ele><time>2026-04-14T07:49:13.001Z</time></trkpt><trkpt lat="14.516150311635052" lon="121.00267262961381"><ele>6.0</ele><time>2026-04-14T07:49:14.001Z</time></trkpt><trkpt lat="14.516209308134831" lon="121.00255651773084"><ele>6.0</ele><time>2026-04-14T07:49:15.001Z</time></trkpt><trkpt lat="14.516235170315031" lon="121.002414526556"><ele>6.0</ele><time>2026-04-14T07:49:16.001Z</time></trkpt><trkpt lat="14.516307631157833" lon="121.00229292652645"><ele>6.25</ele><time>2026-04-14T07:49:17.001Z</time></trkpt><trkpt lat="14.516379092663973" lon="121.00216927464793"><ele>6.5</ele><time>2026-04-14T07:49:18.001Z</time></trkpt><trkpt lat="14.516447430809809" lon="121.00204806503326"><ele>6.75</ele><time>2026-04-14T07:49:19.001Z</time></trkpt><trkpt lat="14.516511892176476" lon="121.00193290086527"><ele>7.0</ele><time>2026-04-14T07:49:20.001Z</time></trkpt><trkpt lat="14.516573250407491" lon="121.00182212058643"><ele>7.0</ele><time>2026-04-14T07:49:21.001Z</time></trkpt><trkpt lat="14.51662995235338" lon="121.00171673820341"><ele>6.999999999999999</ele><time>2026-04-14T07:49:22.001Z</time></trkpt><trkpt lat="14.516679319246022" lon="121.0016223726122"><ele>6.999999999999999</ele><time>2026-04-14T07:49:23.001Z</time></trkpt><trkpt lat="14.5167231253574" lon="121.00153476264316"><ele>7.0</ele><time>2026-04-14T07:49:24.001Z</time></trkpt><trkpt lat="14.51675790388325" lon="121.0014588070609"><ele>7.0</ele><time>2026-04-14T07:49:25.001Z</time></trkpt><trkpt lat="14.516790497152975" lon="121.00139154848587"><ele>6.75</ele><time>2026-04-14T07:49:26.001Z</time></trkpt><trkpt lat="14.516821003040082" lon="121.00132528127223"><ele>6.5</ele><time>2026-04-14T07:49:27.001Z</time></trkpt><trkpt lat="14.516876686310251" lon="121.00122130340709"><ele>6.25</ele><time>2026-04-14T07:49:29.001Z</time></trkpt><trkpt lat="14.516970298485642" lon="121.00113131240546"><ele>6.0</ele><time>2026-04-14T07:49:31.001Z</time></trkpt><trkpt lat="14.517120585468563" lon="121.00107570298087"><ele>5.8</ele><time>2026-04-14T07:49:33.001Z</time></trkpt><trkpt lat="14.517216940249599" lon="121.00106871158674"><ele>5.6</ele><time>2026-04-14T07:49:34.001Z</time></trkpt><trkpt lat="14.517321876383498" lon="121.0010642032444"><ele>5.4</ele><time>2026-04-14T07:49:35.001Z</time></trkpt><trkpt lat="14.517434457183256" lon="121.00106186771424"><ele>5.2</ele><time>2026-04-14T07:49:36.001Z</time></trkpt><trkpt lat="14.517554942217956" lon="121.00105841476865"><ele>5.0</ele><time>2026-04-14T07:49:37.001Z</time></trkpt><trkpt lat="14.517681618464962" lon="121.0010546756345"><ele>5.0</ele><time>2026-04-14T07:49:38.001Z</time></trkpt><trkpt lat="14.517815133502477" lon="121.00104815623878"><ele>5.0</ele><time>2026-04-14T07:49:39.001Z</time></trkpt><trkpt lat="14.517953235764784" lon="121.00104338785025"><ele>5.0</ele><time>2026-04-14T07:49:40.001Z</time></trkpt><trkpt lat="14.518095404373689" lon="121.00103883628378"><ele>5.0</ele><time>2026-04-14T07:49:41.001Z</time></trkpt><trkpt lat="14.518242409981106" lon="121.0010343839749"><ele>5.333333333333334</ele><time>2026-04-14T07:49:42.001Z</time></trkpt><trkpt lat="14.518395547561353" lon="121.0010284515987"><ele>5.666666666666667</ele><time>2026-04-14T07:49:43.001Z</time></trkpt><trkpt lat="14.518554410765798" lon="121.00102305446077"><ele>6.0</ele><time>2026-04-14T07:49:44.001Z</time></trkpt><trkpt lat="14.518718916463365" lon="121.00101727218969"><ele>6.333333333333334</ele><time>2026-04-14T07:49:45.001Z</time></trkpt><trkpt lat="14.518887858336786" lon="121.00101079506737"><ele>6.666666666666667</ele><time>2026-04-14T07:49:46.001Z</time></trkpt><trkpt lat="14.519061392972858" lon="121.00100582182681"><ele>7.0</ele><time>2026-04-14T07:49:47.001Z</time></trkpt><trkpt lat="14.51923971524981" lon="121.0010010016906"><ele>7.0</ele><time>2026-04-14T07:49:48.001Z</time></trkpt><trkpt lat="14.519421715593452" lon="121.00099522577015"><ele>7.0</ele><time>2026-04-14T07:49:49.001Z</time></trkpt><trkpt lat="14.519606681768" lon="121.00098907034389"><ele>7.0</ele><time>2026-04-14T07:49:50.001Z</time></trkpt><trkpt lat="14.51979293588395" lon="121.00098288856852"><ele>6.0</ele><time>2026-04-14T07:49:51.001Z</time></trkpt><trkpt lat="14.51997316375421" lon="121.00097601990926"><ele>5.0</ele><time>2026-04-14T07:49:52.001Z</time></trkpt><trkpt lat="14.520303045722635" lon="121.00096304829727"><ele>5.5</ele><time>2026-04-14T07:49:54.001Z</time></trkpt><trkpt lat="14.520452538667827" lon="121.00095360917977"><ele>6.0</ele><time>2026-04-14T07:49:55.001Z</time></trkpt><trkpt lat="14.520594885165714" lon="121.00094552757037"><ele>6.5</ele><time>2026-04-14T07:49:56.001Z</time></trkpt><trkpt lat="14.52073005841406" lon="121.00094163746198"><ele>7.0</ele><time>2026-04-14T07:49:57.001Z</time></trkpt><trkpt lat="14.520860382900997" lon="121.00093660418064"><ele>7.0</ele><time>2026-04-14T07:49:58.001Z</time></trkpt><trkpt lat="14.520985582438481" lon="121.00092997933629"><ele>6.999999999999999</ele><time>2026-04-14T07:49:59.001Z</time></trkpt><trkpt lat="14.521100076733918" lon="121.00092445799211"><ele>6.999999999999999</ele><time>2026-04-14T07:50:00.001Z</time></trkpt><trkpt lat="14.521210918536111" lon="121.00091920303963"><ele>7.0</ele><time>2026-04-14T07:50:01.001Z</time></trkpt><trkpt lat="14.5212990133535" lon="121.00091639071503"><ele>7.0</ele><time>2026-04-14T07:50:02.001Z</time></trkpt><trkpt lat="14.521374384378374" lon="121.0009159069214"><ele>6.833333333333334</ele><time>2026-04-14T07:50:03.001Z</time></trkpt><trkpt lat="14.521443171544256" lon="121.0009153415415"><ele>6.666666666666667</ele><time>2026-04-14T07:50:04.001Z</time></trkpt><trkpt lat="14.521506906517638" lon="121.00091361982945"><ele>6.5</ele><time>2026-04-14T07:50:05.001Z</time></trkpt><trkpt lat="14.521615938946772" lon="121.00091067194377"><ele>6.333333333333334</ele><time>2026-04-14T07:50:07.001Z</time></trkpt><trkpt lat="14.521719027422304" lon="121.00090780763067"><ele>6.166666666666667</ele><time>2026-04-14T07:50:09.001Z</time></trkpt><trkpt lat="14.521806364962634" lon="121.00090806768216"><ele>6.0</ele><time>2026-04-14T07:50:11.001Z</time></trkpt><trkpt lat="14.52187246218874" lon="121.00091218066825"><ele>6.0</ele><time>2026-04-14T07:50:13.001Z</time></trkpt><trkpt lat="14.522061153049021" lon="121.00092734913422"><ele>6.0</ele><time>2026-04-14T07:50:18.001Z</time></trkpt><trkpt lat="14.52218103599824" lon="121.00092365233326"><ele>6.0</ele><time>2026-04-14T07:50:20.001Z</time></trkpt><trkpt lat="14.522255900353045" lon="121.00092159691039"><ele>6.0</ele><time>2026-04-14T07:50:21.001Z</time></trkpt><trkpt lat="14.52233841828308" lon="121.00091765246155"><ele>5.6</ele><time>2026-04-14T07:50:22.001Z</time></trkpt><trkpt lat="14.522425849756548" lon="121.00091172424075"><ele>5.199999999999999</ele><time>2026-04-14T07:50:23.001Z</time></trkpt><trkpt lat="14.522517842349986" lon="121.00090644232304"><ele>4.800000000000001</ele><time>2026-04-14T07:50:24.001Z</time></trkpt><trkpt lat="14.522613444563536" lon="121.0009029677663"><ele>4.4</ele><time>2026-04-14T07:50:25.001Z</time></trkpt><trkpt lat="14.522713311530064" lon="121.00090261861811"><ele>4.0</ele><time>2026-04-14T07:50:26.001Z</time></trkpt><trkpt lat="14.52281493959399" lon="121.00090112719644"><ele>3.9999999999999996</ele><time>2026-04-14T07:50:27.001Z</time></trkpt><trkpt lat="14.522917810968504" lon="121.00089905312998"><ele>4.0</ele><time>2026-04-14T07:50:28.001Z</time></trkpt><trkpt lat="14.523014774115524" lon="121.00089781890559"><ele>4.0</ele><time>2026-04-14T07:50:29.001Z</time></trkpt><trkpt lat="14.523104681745636" lon="121.0008987539873"><ele>4.0</ele><time>2026-04-14T07:50:30.001Z</time></trkpt><trkpt lat="14.523183525437169" lon="121.0008966860152"><ele>3.9999999999999996</ele><time>2026-04-14T07:50:31.001Z</time></trkpt><trkpt lat="14.523251111701612" lon="121.00089164203833"><ele>4.0</ele><time>2026-04-14T07:50:32.001Z</time></trkpt><trkpt lat="14.523355447798247" lon="121.00088292126568"><ele>4.0</ele><time>2026-04-14T07:50:34.001Z</time></trkpt><trkpt lat="14.523492601281145" lon="121.00086671694686"><ele>4.0</ele><time>2026-04-14T07:50:38.001Z</time></trkpt><trkpt lat="14.52360093673206" lon="121.00085429134208"><ele>4.0</ele><time>2026-04-14T07:50:41.001Z</time></trkpt><trkpt lat="14.52370344694199" lon="121.00085045183853"><ele>4.0</ele><time>2026-04-14T07:50:43.001Z</time></trkpt><trkpt lat="14.52381256700581" lon="121.00085035350665"><ele>4.166666666666666</ele><time>2026-04-14T07:50:45.001Z</time></trkpt><trkpt lat="14.52387760925646" lon="121.00084865282187"><ele>4.333333333333333</ele><time>2026-04-14T07:50:46.001Z</time></trkpt><trkpt lat="14.523949827661692" lon="121.00084771105143"><ele>4.5</ele><time>2026-04-14T07:50:47.001Z</time></trkpt><trkpt lat="14.524030665947905" lon="121.00084385769158"><ele>4.666666666666667</ele><time>2026-04-14T07:50:48.001Z</time></trkpt><trkpt lat="14.524118562325814" lon="121.00083433085143"><ele>4.833333333333334</ele><time>2026-04-14T07:50:49.001Z</time></trkpt><trkpt lat="14.524212741838708" lon="121.00081631582044"><ele>5.0</ele><time>2026-04-14T07:50:50.001Z</time></trkpt><trkpt lat="14.524312034224645" lon="121.00078929073655"><ele>5.25</ele><time>2026-04-14T07:50:51.001Z</time></trkpt><trkpt lat="14.524416638316287" lon="121.00075591112571"><ele>5.5</ele><time>2026-04-14T07:50:52.001Z</time></trkpt><trkpt lat="14.524526667455431" lon="121.00071853119626"><ele>5.75</ele><time>2026-04-14T07:50:53.001Z</time></trkpt><trkpt lat="14.524638721017217" lon="121.0006793403216"><ele>6.0</ele><time>2026-04-14T07:50:54.001Z</time></trkpt><trkpt lat="14.524759395555447" lon="121.0006314223638"><ele>6.333333333333334</ele><time>2026-04-14T07:50:55.001Z</time></trkpt><trkpt lat="14.525012158943218" lon="121.00053523474136"><ele>6.666666666666667</ele><time>2026-04-14T07:50:57.001Z</time></trkpt><trkpt lat="14.52514292656092" lon="121.00048495108909"><ele>7.0</ele><time>2026-04-14T07:50:58.001Z</time></trkpt><trkpt lat="14.525274736185915" lon="121.0004334912271"><ele>6.75</ele><time>2026-04-14T07:50:59.001Z</time></trkpt><trkpt lat="14.525402797545254" lon="121.00038408291266"><ele>6.5</ele><time>2026-04-14T07:51:00.001Z</time></trkpt><trkpt lat="14.525524570190804" lon="121.00033748825575"><ele>6.25</ele><time>2026-04-14T07:51:01.001Z</time></trkpt><trkpt lat="14.52564104806804" lon="121.0002922136275"><ele>6.0</ele><time>2026-04-14T07:51:02.001Z</time></trkpt><trkpt lat="14.525757748296654" lon="121.00024826664372"><ele>6.0</ele><time>2026-04-14T07:51:03.001Z</time></trkpt><trkpt lat="14.525873367012577" lon="121.00020507517982"><ele>6.0</ele><time>2026-04-14T07:51:04.001Z</time></trkpt><trkpt lat="14.525982867691392" lon="121.00016278013622"><ele>6.0</ele><time>2026-04-14T07:51:05.001Z</time></trkpt><trkpt lat="14.526086815334494" lon="121.00012244528185"><ele>6.0</ele><time>2026-04-14T07:51:06.001Z</time></trkpt><trkpt lat="14.526188155660186" lon="121.00008281335278"><ele>6.0</ele><time>2026-04-14T07:51:07.001Z</time></trkpt><trkpt lat="14.526290203684118" lon="121.00004332248147"><ele>6.0</ele><time>2026-04-14T07:51:08.001Z</time></trkpt><trkpt lat="14.526385615254911" lon="121.00000550904893"><ele>6.0</ele><time>2026-04-14T07:51:09.001Z</time></trkpt><trkpt lat="14.526475574728694" lon="120.99997094720673"><ele>6.0</ele><time>2026-04-14T07:51:10.001Z</time></trkpt><trkpt lat="14.526562995983786" lon="120.9999378575863"><ele>6.0</ele><time>2026-04-14T07:51:11.001Z</time></trkpt><trkpt lat="14.52664350525827" lon="120.99990799399228"><ele>6.0</ele><time>2026-04-14T07:51:12.001Z</time></trkpt><trkpt lat="14.526721996943229" lon="120.99987776201594"><ele>6.0</ele><time>2026-04-14T07:51:13.001Z</time></trkpt><trkpt lat="14.526794390739793" lon="120.99985004183547"><ele>6.0</ele><time>2026-04-14T07:51:14.001Z</time></trkpt><trkpt lat="14.526861735229755" lon="120.9998261981457"><ele>6.0</ele><time>2026-04-14T07:51:15.001Z</time></trkpt><trkpt lat="14.52692966370596" lon="120.99980977499645"><ele>6.0</ele><time>2026-04-14T07:51:16.001Z</time></trkpt><trkpt lat="14.527065967198023" lon="120.99979266435945"><ele>6.0</ele><time>2026-04-14T07:51:18.001Z</time></trkpt><trkpt lat="14.52712832878151" lon="120.99977217413623"><ele>5.6</ele><time>2026-04-14T07:51:19.001Z</time></trkpt><trkpt lat="14.527239639499085" lon="120.99987161846546"><ele>5.199999999999999</ele><time>2026-04-14T07:51:20.001Z</time></trkpt><trkpt lat="14.527274029001688" lon="120.99997287335889"><ele>4.800000000000001</ele><time>2026-04-14T07:51:21.001Z</time></trkpt><trkpt lat="14.527314509027898" lon="121.00005597625004"><ele>4.4</ele><time>2026-04-14T07:51:22.001Z</time></trkpt><trkpt lat="14.5273480012436" lon="121.00014929660477"><ele>4.0</ele><time>2026-04-14T07:51:23.001Z</time></trkpt><trkpt lat="14.527379393616245" lon="121.00025097803697"><ele>4.0</ele><time>2026-04-14T07:51:24.001Z</time></trkpt><trkpt lat="14.527410431018238" lon="121.00035718269201"><ele>4.0</ele><time>2026-04-14T07:51:25.001Z</time></trkpt><trkpt lat="14.527447233808793" lon="121.00046448598965"><ele>4.0</ele><time>2026-04-14T07:51:26.001Z</time></trkpt><trkpt lat="14.527495294515974" lon="121.00057039363057"><ele>4.0</ele><time>2026-04-14T07:51:27.001Z</time></trkpt><trkpt lat="14.527551146557158" lon="121.0006757927078"><ele>4.0</ele><time>2026-04-14T07:51:28.001Z</time></trkpt><trkpt lat="14.527621483237327" lon="121.00078009410336"><ele>4.25</ele><time>2026-04-14T07:51:29.001Z</time></trkpt><trkpt lat="14.527696579144385" lon="121.0008846423756"><ele>4.5</ele><time>2026-04-14T07:51:30.001Z</time></trkpt><trkpt lat="14.527773168079126" lon="121.00099201198921"><ele>4.75</ele><time>2026-04-14T07:51:31.001Z</time></trkpt><trkpt lat="14.527849338753015" lon="121.00110140334074"><ele>5.0</ele><time>2026-04-14T07:51:32.001Z</time></trkpt><trkpt lat="14.527923768321525" lon="121.00120951984043"><ele>5.0</ele><time>2026-04-14T07:51:33.001Z</time></trkpt><trkpt lat="14.527993624838881" lon="121.0013164102851"><ele>5.0</ele><time>2026-04-14T07:51:34.001Z</time></trkpt><trkpt lat="14.528063061530538" lon="121.00142372373183"><ele>5.0</ele><time>2026-04-14T07:51:35.001Z</time></trkpt><trkpt lat="14.52812727931484" lon="121.00153460929485"><ele>5.0</ele><time>2026-04-14T07:51:36.001Z</time></trkpt><trkpt lat="14.528182290050514" lon="121.00165150575566"><ele>5.333333333333334</ele><time>2026-04-14T07:51:37.001Z</time></trkpt><trkpt lat="14.528270778407784" lon="121.00192604042184"><ele>5.666666666666667</ele><time>2026-04-14T07:51:39.001Z</time></trkpt><trkpt lat="14.528294772650812" lon="121.00206028326579"><ele>6.0</ele><time>2026-04-14T07:51:40.001Z</time></trkpt><trkpt lat="14.528303354750278" lon="121.0021996255143"><ele>6.0</ele><time>2026-04-14T07:51:41.001Z</time></trkpt><trkpt lat="14.5282896476677" lon="121.00235297989882"><ele>6.0</ele><time>2026-04-14T07:51:42.001Z</time></trkpt><trkpt lat="14.528265617686912" lon="121.00251933348275"><ele>6.0</ele><time>2026-04-14T07:51:43.001Z</time></trkpt><trkpt lat="14.528240557886653" lon="121.00267192970507"><ele>6.0</ele><time>2026-04-14T07:51:44.001Z</time></trkpt><trkpt lat="14.528212705294067" lon="121.00282397573089"><ele>6.0</ele><time>2026-04-14T07:51:45.001Z</time></trkpt><trkpt lat="14.528186915003173" lon="121.00296175548202"><ele>6.0</ele><time>2026-04-14T07:51:46.001Z</time></trkpt><trkpt lat="14.528159125320942" lon="121.00309428979719"><ele>6.0</ele><time>2026-04-14T07:51:47.001Z</time></trkpt><trkpt lat="14.528132045025465" lon="121.0032180801159"><ele>6.0</ele><time>2026-04-14T07:51:48.001Z</time></trkpt><trkpt lat="14.528105557405604" lon="121.00333347228501"><ele>6.0</ele><time>2026-04-14T07:51:49.001Z</time></trkpt><trkpt lat="14.528083925840283" lon="121.00344470474766"><ele>6.0</ele><time>2026-04-14T07:51:50.001Z</time></trkpt><trkpt lat="14.528062164777324" lon="121.0035436984882"><ele>6.0</ele><time>2026-04-14T07:51:51.001Z</time></trkpt><trkpt lat="14.52804339764815" lon="121.00363497028938"><ele>6.0</ele><time>2026-04-14T07:51:52.001Z</time></trkpt><trkpt lat="14.528025184765383" lon="121.00372026946035"><ele>6.0</ele><time>2026-04-14T07:51:53.001Z</time></trkpt><trkpt lat="14.527980096419357" lon="121.00381840938783"><ele>6.0</ele><time>2026-04-14T07:51:55.001Z</time></trkpt><trkpt lat="14.527957516710666" lon="121.00389892339795"><ele>6.0</ele><time>2026-04-14T07:51:58.001Z</time></trkpt><trkpt lat="14.527932478098906" lon="121.00404899510552"><ele>6.0</ele><time>2026-04-14T07:52:03.001Z</time></trkpt><trkpt lat="14.527917722800884" lon="121.0041378377628"><ele>6.0</ele><time>2026-04-14T07:52:05.001Z</time></trkpt><trkpt lat="14.527899511439424" lon="121.00424748971217"><ele>6.4</ele><time>2026-04-14T07:52:07.001Z</time></trkpt><trkpt lat="14.527884232060085" lon="121.0043394879564"><ele>6.8</ele><time>2026-04-14T07:52:09.001Z</time></trkpt><trkpt lat="14.527865309626842" lon="121.00445342122188"><ele>7.200000000000001</ele><time>2026-04-14T07:52:11.001Z</time></trkpt><trkpt lat="14.527844907943853" lon="121.00457626120186"><ele>7.6000000000000005</ele><time>2026-04-14T07:52:13.001Z</time></trkpt><trkpt lat="14.527827195980016" lon="121.0046829061698"><ele>8.0</ele><time>2026-04-14T07:52:15.001Z</time></trkpt><trkpt lat="14.527811306416842" lon="121.0047782344245"><ele>8.0</ele><time>2026-04-14T07:52:17.001Z</time></trkpt><trkpt lat="14.527842460657155" lon="121.00485459358023"><ele>8.0</ele><time>2026-04-14T07:52:19.001Z</time></trkpt><trkpt lat="14.528066272932374" lon="121.00492027034846"><ele>8.0</ele><time>2026-04-14T07:52:24.001Z</time></trkpt><trkpt lat="14.528182924141385" lon="121.00490390772018"><ele>8.0</ele><time>2026-04-14T07:52:26.001Z</time></trkpt><trkpt lat="14.528312780915261" lon="121.0048960776963"><ele>7.999999999999999</ele><time>2026-04-14T07:52:28.001Z</time></trkpt><trkpt lat="14.528386008456502" lon="121.00489256996417"><ele>8.0</ele><time>2026-04-14T07:52:29.001Z</time></trkpt><trkpt lat="14.528472481267698" lon="121.00489210705419"><ele>8.0</ele><time>2026-04-14T07:52:30.001Z</time></trkpt><trkpt lat="14.52856443539882" lon="121.00489050456426"><ele>8.0</ele><time>2026-04-14T07:52:31.001Z</time></trkpt><trkpt lat="14.528658909903722" lon="121.00488637776904"><ele>7.999999999999999</ele><time>2026-04-14T07:52:32.001Z</time></trkpt><trkpt lat="14.52875325313848" lon="121.00488342009963"><ele>8.0</ele><time>2026-04-14T07:52:33.001Z</time></trkpt><trkpt lat="14.528849132897253" lon="121.00488076800073"><ele>8.0</ele><time>2026-04-14T07:52:34.001Z</time></trkpt><trkpt lat="14.52894638824362" lon="121.00487550273694"><ele>8.0</ele><time>2026-04-14T07:52:35.001Z</time></trkpt><trkpt lat="14.52904677444747" lon="121.00486850755011"><ele>8.0</ele><time>2026-04-14T07:52:36.001Z</time></trkpt><trkpt lat="14.529148811710126" lon="121.0048599088096"><ele>8.0</ele><time>2026-04-14T07:52:37.001Z</time></trkpt><trkpt lat="14.529248074851688" lon="121.00484805401663"><ele>8.0</ele><time>2026-04-14T07:52:38.001Z</time></trkpt><trkpt lat="14.529340245185375" lon="121.00483179301409"><ele>8.0</ele><time>2026-04-14T07:52:39.001Z</time></trkpt><trkpt lat="14.529423628318424" lon="121.00480877509887"><ele>8.0</ele><time>2026-04-14T07:52:40.001Z</time></trkpt><trkpt lat="14.52957173425972" lon="121.00476366836398"><ele>8.0</ele><time>2026-04-14T07:52:42.001Z</time></trkpt><trkpt lat="14.529637985752663" lon="121.00474248097181"><ele>8.0</ele><time>2026-04-14T07:52:43.001Z</time></trkpt><trkpt lat="14.529745531906205" lon="121.00470567229361"><ele>8.0</ele><time>2026-04-14T07:52:45.001Z</time></trkpt><trkpt lat="14.529833466213487" lon="121.00468037305758"><ele>7.800000000000001</ele><time>2026-04-14T07:52:47.001Z</time></trkpt><trkpt lat="14.529938472464236" lon="121.00465823940364"><ele>7.6000000000000005</ele><time>2026-04-14T07:52:49.001Z</time></trkpt><trkpt lat="14.530054573624263" lon="121.00463553043936"><ele>7.3999999999999995</ele><time>2026-04-14T07:52:51.001Z</time></trkpt><trkpt lat="14.53015536669606" lon="121.00462027526915"><ele>7.199999999999999</ele><time>2026-04-14T07:52:53.001Z</time></trkpt><trkpt lat="14.530260551888878" lon="121.00458583202769"><ele>7.0</ele><time>2026-04-14T07:52:55.001Z</time></trkpt><trkpt lat="14.530323435525247" lon="121.00456183721991"><ele>6.75</ele><time>2026-04-14T07:52:56.001Z</time></trkpt><trkpt lat="14.530426537480519" lon="121.00452666887477"><ele>6.5</ele><time>2026-04-14T07:52:58.001Z</time></trkpt><trkpt lat="14.53049967901962" lon="121.00449214561631"><ele>6.25</ele><time>2026-04-14T07:53:07.001Z</time></trkpt><trkpt lat="14.530711109234776" lon="121.00445120896609"><ele>6.0</ele><time>2026-04-14T07:53:11.001Z</time></trkpt><trkpt lat="14.530803827854047" lon="121.00442642841098"><ele>6.0</ele><time>2026-04-14T07:53:12.001Z</time></trkpt><trkpt lat="14.530901960428977" lon="121.00438958130947"><ele>6.0</ele><time>2026-04-14T07:53:13.001Z</time></trkpt><trkpt lat="14.531001024395374" lon="121.00435054784433"><ele>6.0</ele><time>2026-04-14T07:53:14.001Z</time></trkpt><trkpt lat="14.53110525364701" lon="121.00431388357497"><ele>6.0</ele><time>2026-04-14T07:53:15.001Z</time></trkpt><trkpt lat="14.531207489786063" lon="121.00428218758891"><ele>6.0</ele><time>2026-04-14T07:53:16.001Z</time></trkpt><trkpt lat="14.531303218224265" lon="121.00425590796337"><ele>6.199999999999999</ele><time>2026-04-14T07:53:17.001Z</time></trkpt><trkpt lat="14.531397621997668" lon="121.00422807083638"><ele>6.3999999999999995</ele><time>2026-04-14T07:53:18.001Z</time></trkpt><trkpt lat="14.53148945826726" lon="121.00420037141379"><ele>6.6</ele><time>2026-04-14T07:53:19.001Z</time></trkpt><trkpt lat="14.531580939106005" lon="121.00416871025395"><ele>6.8</ele><time>2026-04-14T07:53:20.001Z</time></trkpt><trkpt lat="14.531670222529154" lon="121.00413899178643"><ele>7.0</ele><time>2026-04-14T07:53:21.001Z</time></trkpt><trkpt lat="14.531757214715732" lon="121.00411170548178"><ele>6.199999999999999</ele><time>2026-04-14T07:53:22.001Z</time></trkpt><trkpt lat="14.531836643687035" lon="121.00408983771294"><ele>5.3999999999999995</ele><time>2026-04-14T07:53:23.001Z</time></trkpt><trkpt lat="14.531901237983407" lon="121.00407452154253"><ele>4.6</ele><time>2026-04-14T07:53:24.001Z</time></trkpt><trkpt lat="14.532010601717024" lon="121.0040523899387"><ele>3.8</ele><time>2026-04-14T07:53:26Z</time></trkpt><trkpt lat="14.532091650584746" lon="121.0040325841217"><ele>3.0</ele><time>2026-04-14T07:53:28Z</time></trkpt><trkpt lat="14.532297923539163" lon="121.00396479619248"><ele>3.0</ele><time>2026-04-14T07:53:32Z</time></trkpt><trkpt lat="14.53237059515078" lon="121.0039467850568"><ele>3.0</ele><time>2026-04-14T07:53:33Z</time></trkpt><trkpt lat="14.532441965714884" lon="121.00392400571438"><ele>3.0</ele><time>2026-04-14T07:53:34Z</time></trkpt><trkpt lat="14.532511801942523" lon="121.00390249899974"><ele>3.0</ele><time>2026-04-14T07:53:35Z</time></trkpt><trkpt lat="14.532582108907928" lon="121.00387700068322"><ele>3.0</ele><time>2026-04-14T07:53:36Z</time></trkpt><trkpt lat="14.532654567870718" lon="121.00385177323821"><ele>3.0</ele><time>2026-04-14T07:53:37Z</time></trkpt><trkpt lat="14.532727363349693" lon="121.00382689654307"><ele>3.0</ele><time>2026-04-14T07:53:38Z</time></trkpt><trkpt lat="14.532798786723172" lon="121.0038052177208"><ele>3.0</ele><time>2026-04-14T07:53:39Z</time></trkpt><trkpt lat="14.532869967526905" lon="121.00378613855234"><ele>3.0</ele><time>2026-04-14T07:53:40Z</time></trkpt><trkpt lat="14.532945130837472" lon="121.00376288592842"><ele>3.0</ele><time>2026-04-14T07:53:41Z</time></trkpt><trkpt lat="14.53302157758094" lon="121.0037406807818"><ele>3.0</ele><time>2026-04-14T07:53:42.001Z</time></trkpt><trkpt lat="14.533098970665215" lon="121.00371545908853"><ele>3.0</ele><time>2026-04-14T07:53:43.001Z</time></trkpt><trkpt lat="14.53317904128988" lon="121.00369581010915"><ele>3.8</ele><time>2026-04-14T07:53:44.001Z</time></trkpt><trkpt lat="14.533271232288191" lon="121.00367804620942"><ele>4.6</ele><time>2026-04-14T07:53:45.001Z</time></trkpt><trkpt lat="14.533368534316708" lon="121.00365876286698"><ele>5.3999999999999995</ele><time>2026-04-14T07:53:46.001Z</time></trkpt><trkpt lat="14.533465925095898" lon="121.00364145038144"><ele>6.199999999999999</ele><time>2026-04-14T07:53:47.001Z</time></trkpt><trkpt lat="14.533557420309748" lon="121.00362565910339"><ele>7.0</ele><time>2026-04-14T07:53:48.001Z</time></trkpt><trkpt lat="14.533641515399987" lon="121.00361231542544"><ele>7.199999999999999</ele><time>2026-04-14T07:53:49.001Z</time></trkpt><trkpt lat="14.53379674250518" lon="121.0035898265238"><ele>7.3999999999999995</ele><time>2026-04-14T07:53:51.001Z</time></trkpt><trkpt lat="14.533870134725912" lon="121.00357898672212"><ele>7.6000000000000005</ele><time>2026-04-14T07:53:52.001Z</time></trkpt><trkpt lat="14.53394226710179" lon="121.00356881319641"><ele>7.800000000000001</ele><time>2026-04-14T07:53:53.001Z</time></trkpt><trkpt lat="14.53401895315869" lon="121.00356322101173"><ele>8.0</ele><time>2026-04-14T07:53:54.001Z</time></trkpt><trkpt lat="14.534089700961779" lon="121.00356275485038"><ele>8.0</ele><time>2026-04-14T07:53:55.001Z</time></trkpt><trkpt lat="14.534213087499356" lon="121.00355605988814"><ele>8.0</ele><time>2026-04-14T07:53:57.001Z</time></trkpt><trkpt lat="14.534345920601503" lon="121.00354788598698"><ele>8.0</ele><time>2026-04-14T07:53:59.001Z</time></trkpt><trkpt lat="14.534422296605015" lon="121.00354099009063"><ele>8.0</ele><time>2026-04-14T07:54:00.001Z</time></trkpt><trkpt lat="14.534510338764917" lon="121.00353005922042"><ele>8.0</ele><time>2026-04-14T07:54:01.001Z</time></trkpt><trkpt lat="14.534600695296525" lon="121.00352371671666"><ele>7.833333333333333</ele><time>2026-04-14T07:54:02.001Z</time></trkpt><trkpt lat="14.53469096838031" lon="121.00351948195676"><ele>7.666666666666666</ele><time>2026-04-14T07:54:03.001Z</time></trkpt><trkpt lat="14.534778357043267" lon="121.00351719348747"><ele>7.5</ele><time>2026-04-14T07:54:04.001Z</time></trkpt><trkpt lat="14.53486059202115" lon="121.00351205398692"><ele>7.333333333333334</ele><time>2026-04-14T07:54:05.001Z</time></trkpt><trkpt lat="14.534942299666223" lon="121.00350339930587"><ele>7.166666666666667</ele><time>2026-04-14T07:54:06.001Z</time></trkpt><trkpt lat="14.535022493238612" lon="121.00349616003035"><ele>7.0</ele><time>2026-04-14T07:54:07.001Z</time></trkpt><trkpt lat="14.535101895484098" lon="121.00348926411189"><ele>7.000000000000001</ele><time>2026-04-14T07:54:08.001Z</time></trkpt><trkpt lat="14.535176960158045" lon="121.00348044795338"><ele>7.0</ele><time>2026-04-14T07:54:09.001Z</time></trkpt><trkpt lat="14.535246667981948" lon="121.00347346025747"><ele>7.0</ele><time>2026-04-14T07:54:10.001Z</time></trkpt><trkpt lat="14.53537955024917" lon="121.00346349218567"><ele>7.0</ele><time>2026-04-14T07:54:12.001Z</time></trkpt><trkpt lat="14.535457344030382" lon="121.0034648547475"><ele>7.000000000000001</ele><time>2026-04-14T07:54:13.001Z</time></trkpt><trkpt lat="14.53553863622751" lon="121.00346722202366"><ele>7.0</ele><time>2026-04-14T07:54:14.001Z</time></trkpt><trkpt lat="14.53563302634225" lon="121.00346721714513"><ele>6.8</ele><time>2026-04-14T07:54:15.001Z</time></trkpt><trkpt lat="14.535734525189698" lon="121.0034563482524"><ele>6.6</ele><time>2026-04-14T07:54:16.001Z</time></trkpt><trkpt lat="14.535840046719011" lon="121.00344351213425"><ele>6.3999999999999995</ele><time>2026-04-14T07:54:17.001Z</time></trkpt><trkpt lat="14.53594731439241" lon="121.00342874490025"><ele>6.199999999999999</ele><time>2026-04-14T07:54:18.001Z</time></trkpt><trkpt lat="14.536051991071803" lon="121.00341378499724"><ele>6.0</ele><time>2026-04-14T07:54:19.001Z</time></trkpt><trkpt lat="14.536150610152015" lon="121.00339955169795"><ele>6.333333333333333</ele><time>2026-04-14T07:54:20.001Z</time></trkpt><trkpt lat="14.53624744210819" lon="121.00339009595113"><ele>6.666666666666666</ele><time>2026-04-14T07:54:21.001Z</time></trkpt><trkpt lat="14.53634313082737" lon="121.00338268171451"><ele>7.0</ele><time>2026-04-14T07:54:22.001Z</time></trkpt><trkpt lat="14.53642676024329" lon="121.00337128718762"><ele>7.333333333333333</ele><time>2026-04-14T07:54:23.001Z</time></trkpt><trkpt lat="14.536508027908932" lon="121.00336234772351"><ele>7.666666666666666</ele><time>2026-04-14T07:54:24.001Z</time></trkpt><trkpt lat="14.536588379703092" lon="121.00335683434268"><ele>8.0</ele><time>2026-04-14T07:54:25.001Z</time></trkpt><trkpt lat="14.536669514122478" lon="121.00335778393973"><ele>8.0</ele><time>2026-04-14T07:54:26.001Z</time></trkpt><trkpt lat="14.536753796908407" lon="121.00335466619795"><ele>8.0</ele><time>2026-04-14T07:54:27.001Z</time></trkpt><trkpt lat="14.536841386674846" lon="121.00334425467797"><ele>8.0</ele><time>2026-04-14T07:54:28.001Z</time></trkpt><trkpt lat="14.536932495350957" lon="121.00333397509993"><ele>8.0</ele><time>2026-04-14T07:54:29.001Z</time></trkpt><trkpt lat="14.53702817431747" lon="121.00332442889007"><ele>8.0</ele><time>2026-04-14T07:54:30.001Z</time></trkpt><trkpt lat="14.537125477981393" lon="121.0033154301184"><ele>8.0</ele><time>2026-04-14T07:54:31.001Z</time></trkpt><trkpt lat="14.537308512932297" lon="121.00329404621341"><ele>8.0</ele><time>2026-04-14T07:54:33.001Z</time></trkpt><trkpt lat="14.537384440262626" lon="121.00328408803728"><ele>8.0</ele><time>2026-04-14T07:54:34.001Z</time></trkpt><trkpt lat="14.537453825956433" lon="121.00329335665997"><ele>8.0</ele><time>2026-04-14T07:54:35.001Z</time></trkpt><trkpt lat="14.537556052032677" lon="121.00328519005738"><ele>8.0</ele><time>2026-04-14T07:54:37.001Z</time></trkpt><trkpt lat="14.537619805877876" lon="121.00329978041037"><ele>7.499999999999999</ele><time>2026-04-14T07:54:39.001Z</time></trkpt><trkpt lat="14.537672198846803" lon="121.00336064716133"><ele>7.0</ele><time>2026-04-14T07:54:42.001Z</time></trkpt><trkpt lat="14.53769776592534" lon="121.00343498539199"><ele>6.5</ele><time>2026-04-14T07:54:44.001Z</time></trkpt><trkpt lat="14.53771923313084" lon="121.00353592211519"><ele>6.0</ele><time>2026-04-14T07:54:46.001Z</time></trkpt><trkpt lat="14.537736754151892" lon="121.003608135192"><ele>5.5</ele><time>2026-04-14T07:54:47.001Z</time></trkpt><trkpt lat="14.537755546147718" lon="121.00368593928322"><ele>5.0</ele><time>2026-04-14T07:54:48.001Z</time></trkpt><trkpt lat="14.537773036215247" lon="121.00377949414903"><ele>5.0</ele><time>2026-04-14T07:54:49.001Z</time></trkpt><trkpt lat="14.53778960595573" lon="121.00388593222034"><ele>5.0</ele><time>2026-04-14T07:54:50.001Z</time></trkpt><trkpt lat="14.537804762177174" lon="121.00400134394275"><ele>5.0</ele><time>2026-04-14T07:54:51.001Z</time></trkpt><trkpt lat="14.53781944490075" lon="121.0041208521946"><ele>5.0</ele><time>2026-04-14T07:54:52.001Z</time></trkpt><trkpt lat="14.537849421750389" lon="121.00436526956082"><ele>5.5</ele><time>2026-04-14T07:54:54.001Z</time></trkpt><trkpt lat="14.537864474529758" lon="121.0044884067724"><ele>6.0</ele><time>2026-04-14T07:54:55.001Z</time></trkpt><trkpt lat="14.537877481405012" lon="121.00461336428717"><ele>6.5</ele><time>2026-04-14T07:54:56.001Z</time></trkpt><trkpt lat="14.53789300814688" lon="121.0047348013954"><ele>7.0</ele><time>2026-04-14T07:54:57.001Z</time></trkpt><trkpt lat="14.537908075395098" lon="121.00485757996073"><ele>7.0</ele><time>2026-04-14T07:54:58.001Z</time></trkpt><trkpt lat="14.537921608704467" lon="121.00497916565823"><ele>7.0</ele><time>2026-04-14T07:54:59.001Z</time></trkpt><trkpt lat="14.537933604331279" lon="121.00510127780763"><ele>7.0</ele><time>2026-04-14T07:55:00.001Z</time></trkpt><trkpt lat="14.537942708498356" lon="121.00522169128318"><ele>7.0</ele><time>2026-04-14T07:55:01.001Z</time></trkpt><trkpt lat="14.53794834016829" lon="121.00535058522713"><ele>7.25</ele><time>2026-04-14T07:55:02.001Z</time></trkpt><trkpt lat="14.537954586469978" lon="121.0054807706217"><ele>7.5</ele><time>2026-04-14T07:55:03.001Z</time></trkpt><trkpt lat="14.537962138726478" lon="121.00561331085758"><ele>7.75</ele><time>2026-04-14T07:55:04.001Z</time></trkpt><trkpt lat="14.53797551186193" lon="121.00574786766134"><ele>8.0</ele><time>2026-04-14T07:55:05.001Z</time></trkpt><trkpt lat="14.53799045906173" lon="121.00587489930317"><ele>8.25</ele><time>2026-04-14T07:55:06.001Z</time></trkpt><trkpt lat="14.53800651350638" lon="121.00599837020427"><ele>8.5</ele><time>2026-04-14T07:55:07.001Z</time></trkpt><trkpt lat="14.538021702894362" lon="121.0061177884424"><ele>8.75</ele><time>2026-04-14T07:55:08.001Z</time></trkpt><trkpt lat="14.538036476816634" lon="121.0062353303096"><ele>9.0</ele><time>2026-04-14T07:55:09.001Z</time></trkpt><trkpt lat="14.538050940828297" lon="121.00635463915175"><ele>9.0</ele><time>2026-04-14T07:55:10.001Z</time></trkpt><trkpt lat="14.538066030424757" lon="121.00647188173662"><ele>9.0</ele><time>2026-04-14T07:55:11.001Z</time></trkpt><trkpt lat="14.53808155379424" lon="121.00659167489317"><ele>9.0</ele><time>2026-04-14T07:55:12.001Z</time></trkpt><trkpt lat="14.538099339480267" lon="121.00671643883406"><ele>9.0</ele><time>2026-04-14T07:55:13.001Z</time></trkpt><trkpt lat="14.538126898055273" lon="121.00696337364872"><ele>8.5</ele><time>2026-04-14T07:55:15.001Z</time></trkpt><trkpt lat="14.53814350802575" lon="121.00708710874541"><ele>8.0</ele><time>2026-04-14T07:55:16.001Z</time></trkpt><trkpt lat="14.538162861835364" lon="121.00721254600802"><ele>7.5</ele><time>2026-04-14T07:55:17Z</time></trkpt><trkpt lat="14.538183472020766" lon="121.00733929542581"><ele>7.0</ele><time>2026-04-14T07:55:18Z</time></trkpt><trkpt lat="14.538201437829974" lon="121.00746855601604"><ele>7.0</ele><time>2026-04-14T07:55:19Z</time></trkpt><trkpt lat="14.53821919306717" lon="121.00759834622767"><ele>7.0</ele><time>2026-04-14T07:55:20Z</time></trkpt><trkpt lat="14.538236107786751" lon="121.00772844997341"><ele>7.0</ele><time>2026-04-14T07:55:21Z</time></trkpt><trkpt lat="14.53825378190896" lon="121.00785728873103"><ele>7.0</ele><time>2026-04-14T07:55:22Z</time></trkpt><trkpt lat="14.538273275814896" lon="121.00798575762119"><ele>7.0</ele><time>2026-04-14T07:55:23Z</time></trkpt><trkpt lat="14.538293491726238" lon="121.00811500463368"><ele>7.0</ele><time>2026-04-14T07:55:24Z</time></trkpt><trkpt lat="14.538313138915823" lon="121.00824632234432"><ele>7.0</ele><time>2026-04-14T07:55:25Z</time></trkpt><trkpt lat="14.538332019175224" lon="121.00837781449172"><ele>7.0</ele><time>2026-04-14T07:55:26Z</time></trkpt><trkpt lat="14.538351239534354" lon="121.00851029677987"><ele>7.25</ele><time>2026-04-14T07:55:27Z</time></trkpt><trkpt lat="14.538368884641681" lon="121.00863958993216"><ele>7.5</ele><time>2026-04-14T07:55:28Z</time></trkpt><trkpt lat="14.538385958333107" lon="121.00877412183104"><ele>7.75</ele><time>2026-04-14T07:55:29Z</time></trkpt><trkpt lat="14.538397628236382" lon="121.00890794929221"><ele>8.0</ele><time>2026-04-14T07:55:30Z</time></trkpt><trkpt lat="14.538411809963648" lon="121.00904419302584"><ele>8.0</ele><time>2026-04-14T07:55:31Z</time></trkpt><trkpt lat="14.538427055361748" lon="121.00918258592569"><ele>8.0</ele><time>2026-04-14T07:55:32Z</time></trkpt><trkpt lat="14.538443698254033" lon="121.00931659308311"><ele>8.0</ele><time>2026-04-14T07:55:33Z</time></trkpt><trkpt lat="14.538460725193351" lon="121.00945040716607"><ele>8.0</ele><time>2026-04-14T07:55:34Z</time></trkpt><trkpt lat="14.538491867475082" lon="121.00971740579259"><ele>8.0</ele><time>2026-04-14T07:55:36Z</time></trkpt><trkpt lat="14.538506771328061" lon="121.00985021612252"><ele>8.0</ele><time>2026-04-14T07:55:37Z</time></trkpt><trkpt lat="14.53852379498195" lon="121.00997882613525"><ele>8.0</ele><time>2026-04-14T07:55:38Z</time></trkpt><trkpt lat="14.538540511228371" lon="121.01009989906989"><ele>8.0</ele><time>2026-04-14T07:55:39Z</time></trkpt><trkpt lat="14.538556018671226" lon="121.01021609443846"><ele>7.800000000000001</ele><time>2026-04-14T07:55:40Z</time></trkpt><trkpt lat="14.538569564145115" lon="121.01033115359007"><ele>7.6000000000000005</ele><time>2026-04-14T07:55:41Z</time></trkpt><trkpt lat="14.538583623493723" lon="121.01044618624216"><ele>7.3999999999999995</ele><time>2026-04-14T07:55:42Z</time></trkpt><trkpt lat="14.538598970321289" lon="121.01055959235615"><ele>7.199999999999999</ele><time>2026-04-14T07:55:43Z</time></trkpt><trkpt lat="14.538618186448543" lon="121.01066652857145"><ele>7.0</ele><time>2026-04-14T07:55:44Z</time></trkpt><trkpt lat="14.538634471024842" lon="121.01076967661473"><ele>6.8</ele><time>2026-04-14T07:55:45Z</time></trkpt><trkpt lat="14.538645615142931" lon="121.01087590985406"><ele>6.6</ele><time>2026-04-14T07:55:46Z</time></trkpt><trkpt lat="14.538657852505333" lon="121.01098373275005"><ele>6.3999999999999995</ele><time>2026-04-14T07:55:47Z</time></trkpt><trkpt lat="14.53867159294473" lon="121.01109696057718"><ele>6.199999999999999</ele><time>2026-04-14T07:55:48Z</time></trkpt><trkpt lat="14.538688919081544" lon="121.01121347566553"><ele>6.0</ele><time>2026-04-14T07:55:49Z</time></trkpt><trkpt lat="14.538706073220332" lon="121.01132909640071"><ele>6.5</ele><time>2026-04-14T07:55:50Z</time></trkpt><trkpt lat="14.538723877955409" lon="121.01144758530701"><ele>7.0</ele><time>2026-04-14T07:55:51Z</time></trkpt><trkpt lat="14.538741259855113" lon="121.011564537453"><ele>7.5</ele><time>2026-04-14T07:55:52Z</time></trkpt><trkpt lat="14.538758621303549" lon="121.01167947311107"><ele>8.0</ele><time>2026-04-14T07:55:53Z</time></trkpt><trkpt lat="14.538775421121496" lon="121.0117883325079"><ele>9.0</ele><time>2026-04-14T07:55:54Z</time></trkpt><trkpt lat="14.538792361718968" lon="121.01189237171249"><ele>10.0</ele><time>2026-04-14T07:55:55Z</time></trkpt><trkpt lat="14.538831283517846" lon="121.0120876841531"><ele>11.0</ele><time>2026-04-14T07:55:57Z</time></trkpt><trkpt lat="14.538852072457868" lon="121.01218580607402"><ele>12.0</ele><time>2026-04-14T07:55:58Z</time></trkpt><trkpt lat="14.538870002396514" lon="121.0122868738072"><ele>12.0</ele><time>2026-04-14T07:55:59Z</time></trkpt><trkpt lat="14.53888687395129" lon="121.01239235758085"><ele>12.0</ele><time>2026-04-14T07:56:00Z</time></trkpt><trkpt lat="14.538901912875232" lon="121.0124986980322"><ele>12.0</ele><time>2026-04-14T07:56:01Z</time></trkpt><trkpt lat="14.538919415070591" lon="121.01260676888552"><ele>12.0</ele><time>2026-04-14T07:56:02Z</time></trkpt><trkpt lat="14.53893842646461" lon="121.01271631667008"><ele>12.0</ele><time>2026-04-14T07:56:03Z</time></trkpt><trkpt lat="14.538955429480161" lon="121.01282355476421"><ele>11.4</ele><time>2026-04-14T07:56:04Z</time></trkpt><trkpt lat="14.538973975164337" lon="121.01293477180758"><ele>10.799999999999999</ele><time>2026-04-14T07:56:05Z</time></trkpt><trkpt lat="14.538993556349245" lon="121.01304657698644"><ele>10.2</ele><time>2026-04-14T07:56:06Z</time></trkpt><trkpt lat="14.539014175237869" lon="121.01316209846327"><ele>9.6</ele><time>2026-04-14T07:56:07.001Z</time></trkpt><trkpt lat="14.53903531491988" lon="121.0132753535056"><ele>9.0</ele><time>2026-04-14T07:56:08.001Z</time></trkpt><trkpt lat="14.539055566982768" lon="121.01339030638248"><ele>9.0</ele><time>2026-04-14T07:56:09.001Z</time></trkpt><trkpt lat="14.539073368112446" lon="121.0135049609332"><ele>9.0</ele><time>2026-04-14T07:56:10.001Z</time></trkpt><trkpt lat="14.539090608803454" lon="121.0136106341185"><ele>9.0</ele><time>2026-04-14T07:56:11.001Z</time></trkpt><trkpt lat="14.539108122168903" lon="121.01371044523987"><ele>9.0</ele><time>2026-04-14T07:56:12.001Z</time></trkpt><trkpt lat="14.539127600605623" lon="121.01380110338904"><ele>9.0</ele><time>2026-04-14T07:56:13.001Z</time></trkpt><trkpt lat="14.539146259196352" lon="121.01388212007153"><ele>9.0</ele><time>2026-04-14T07:56:14.001Z</time></trkpt><trkpt lat="14.539160042814897" lon="121.013950130618"><ele>9.0</ele><time>2026-04-14T07:56:15.001Z</time></trkpt><trkpt lat="14.539177594435962" lon="121.01404913557244"><ele>9.0</ele><time>2026-04-14T07:56:17.001Z</time></trkpt><trkpt lat="14.539213664405741" lon="121.0142073526603"><ele>9.0</ele><time>2026-04-14T07:56:23.001Z</time></trkpt><trkpt lat="14.539234747668914" lon="121.01429593341483"><ele>9.0</ele><time>2026-04-14T07:56:26.001Z</time></trkpt><trkpt lat="14.53926315556596" lon="121.01440095632107"><ele>8.666666666666666</ele><time>2026-04-14T07:56:29.001Z</time></trkpt><trkpt lat="14.539296612443158" lon="121.01451752857173"><ele>8.333333333333334</ele><time>2026-04-14T07:56:31.001Z</time></trkpt><trkpt lat="14.53931528834026" lon="121.01458819431782"><ele>8.0</ele><time>2026-04-14T07:56:32.001Z</time></trkpt><trkpt lat="14.53933788305976" lon="121.01466186630265"><ele>7.666666666666667</ele><time>2026-04-14T07:56:33.001Z</time></trkpt><trkpt lat="14.539361737584766" lon="121.0147299572371"><ele>7.333333333333334</ele><time>2026-04-14T07:56:34.001Z</time></trkpt><trkpt lat="14.539382811431592" lon="121.0147921189193"><ele>7.0</ele><time>2026-04-14T07:56:35.001Z</time></trkpt><trkpt lat="14.539419361420713" lon="121.0148932984679"><ele>7.000000000000001</ele><time>2026-04-14T07:56:37.001Z</time></trkpt><trkpt lat="14.539443646077283" lon="121.0149596584136"><ele>7.0</ele><time>2026-04-14T07:56:39.001Z</time></trkpt><trkpt lat="14.539490871411145" lon="121.01510410164597"><ele>7.0</ele><time>2026-04-14T07:56:47.001Z</time></trkpt><trkpt lat="14.539504192937029" lon="121.0151775646008"><ele>7.0</ele><time>2026-04-14T07:56:50.001Z</time></trkpt><trkpt lat="14.539522688025585" lon="121.01524070688176"><ele>7.000000000000001</ele><time>2026-04-14T07:56:52.001Z</time></trkpt><trkpt lat="14.539543749394229" lon="121.01533184411636"><ele>7.0</ele><time>2026-04-14T07:56:55.001Z</time></trkpt><trkpt lat="14.539559610828084" lon="121.015398014618"><ele>8.0</ele><time>2026-04-14T07:56:57.001Z</time></trkpt><trkpt lat="14.539584793626688" lon="121.01548764051246"><ele>9.0</ele><time>2026-04-14T07:57:00.001Z</time></trkpt><trkpt lat="14.539666098027162" lon="121.01561092847156"><ele>10.0</ele><time>2026-04-14T07:57:08.001Z</time></trkpt><trkpt lat="14.539749295250722" lon="121.01560941208588"><ele>11.0</ele><time>2026-04-14T07:57:13.001Z</time></trkpt><trkpt lat="14.539869988028252" lon="121.0155817291208"><ele>12.0</ele><time>2026-04-14T07:57:16.001Z</time></trkpt><trkpt lat="14.539956933214201" lon="121.01554796218174"><ele>12.0</ele><time>2026-04-14T07:57:18.001Z</time></trkpt><trkpt lat="14.539964605006018" lon="121.01545985708542"><ele>12.0</ele><time>2026-04-14T07:57:20.001Z</time></trkpt><trkpt lat="14.539956820985473" lon="121.01537248111833"><ele>12.0</ele><time>2026-04-14T07:57:24Z</time></trkpt><trkpt lat="14.539917962933323" lon="121.01523545225427"><ele>12.0</ele><time>2026-04-14T07:57:26Z</time></trkpt><trkpt lat="14.53989116120583" lon="121.01515959465394"><ele>12.0</ele><time>2026-04-14T07:57:27Z</time></trkpt><trkpt lat="14.53985997648277" lon="121.01507863586255"><ele>12.0</ele><time>2026-04-14T07:57:28Z</time></trkpt><trkpt lat="14.539831724144754" lon="121.01499708935566"><ele>12.0</ele><time>2026-04-14T07:57:29Z</time></trkpt><trkpt lat="14.539804902149125" lon="121.01492003215056"><ele>12.0</ele><time>2026-04-14T07:57:30Z</time></trkpt><trkpt lat="14.539774948628958" lon="121.01483886671957"><ele>12.0</ele><time>2026-04-14T07:57:31Z</time></trkpt><trkpt lat="14.539743320334512" lon="121.01475332829988"><ele>12.0</ele><time>2026-04-14T07:57:32Z</time></trkpt><trkpt lat="14.539708693483568" lon="121.01464381780615"><ele>12.0</ele><time>2026-04-14T07:57:33Z</time></trkpt><trkpt lat="14.539673418312105" lon="121.01452574024798"><ele>11.25</ele><time>2026-04-14T07:57:34Z</time></trkpt><trkpt lat="14.539634837172354" lon="121.01441303539848"><ele>10.5</ele><time>2026-04-14T07:57:35Z</time></trkpt><trkpt lat="14.53959431748407" lon="121.01430141070692"><ele>9.75</ele><time>2026-04-14T07:57:36Z</time></trkpt><trkpt lat="14.53955570580012" lon="121.01418833810814"><ele>9.0</ele><time>2026-04-14T07:57:37Z</time></trkpt><trkpt lat="14.53952166780812" lon="121.01407249340183"><ele>9.0</ele><time>2026-04-14T07:57:38Z</time></trkpt><trkpt lat="14.539488975385309" lon="121.01395954364186"><ele>9.0</ele><time>2026-04-14T07:57:39Z</time></trkpt><trkpt lat="14.539456105680447" lon="121.01384436983024"><ele>9.0</ele><time>2026-04-14T07:57:40Z</time></trkpt><trkpt lat="14.539426082047758" lon="121.01372881939918"><ele>9.0</ele><time>2026-04-14T07:57:41Z</time></trkpt><trkpt lat="14.539397974916161" lon="121.01362766604821"><ele>9.0</ele><time>2026-04-14T07:57:42Z</time></trkpt><trkpt lat="14.539373396270891" lon="121.01353777208996"><ele>9.0</ele><time>2026-04-14T07:57:43Z</time></trkpt><trkpt lat="14.53935128472199" lon="121.01345572351907"><ele>9.0</ele><time>2026-04-14T07:57:44Z</time></trkpt><trkpt lat="14.539330616955004" lon="121.01337000095344"><ele>9.0</ele><time>2026-04-14T07:57:45Z</time></trkpt><trkpt lat="14.539289112195503" lon="121.01317744759392"><ele>9.0</ele><time>2026-04-14T07:57:47Z</time></trkpt><trkpt lat="14.539265382770788" lon="121.01306950365917"><ele>9.0</ele><time>2026-04-14T07:57:48Z</time></trkpt><trkpt lat="14.539240479558318" lon="121.01296025697489"><ele>9.0</ele><time>2026-04-14T07:57:49Z</time></trkpt><trkpt lat="14.539216711856888" lon="121.01284411522731"><ele>9.0</ele><time>2026-04-14T07:57:50Z</time></trkpt><trkpt lat="14.539195248734437" lon="121.01273432521552"><ele>9.0</ele><time>2026-04-14T07:57:51Z</time></trkpt><trkpt lat="14.539168038056928" lon="121.01261472298768"><ele>9.0</ele><time>2026-04-14T07:57:52Z</time></trkpt><trkpt lat="14.539142933345678" lon="121.01249651911468"><ele>9.0</ele><time>2026-04-14T07:57:53Z</time></trkpt><trkpt lat="14.53912020326475" lon="121.01237760773606"><ele>9.0</ele><time>2026-04-14T07:57:54Z</time></trkpt><trkpt lat="14.539098765254245" lon="121.0122577625038"><ele>9.0</ele><time>2026-04-14T07:57:55Z</time></trkpt><trkpt lat="14.539076719027996" lon="121.01213937695772"><ele>8.8</ele><time>2026-04-14T07:57:56Z</time></trkpt><trkpt lat="14.539057192389139" lon="121.01201931042624"><ele>8.600000000000001</ele><time>2026-04-14T07:57:57Z</time></trkpt><trkpt lat="14.539039520093064" lon="121.01190005705551"><ele>8.4</ele><time>2026-04-14T07:57:58Z</time></trkpt><trkpt lat="14.539024444381099" lon="121.01178686271854"><ele>8.200000000000001</ele><time>2026-04-14T07:57:59Z</time></trkpt><trkpt lat="14.539009935883195" lon="121.01168143050751"><ele>8.0</ele><time>2026-04-14T07:58:00Z</time></trkpt><trkpt lat="14.53899537673711" lon="121.011578206564"><ele>8.0</ele><time>2026-04-14T07:58:01Z</time></trkpt><trkpt lat="14.538982376552093" lon="121.01148090365409"><ele>8.0</ele><time>2026-04-14T07:58:02Z</time></trkpt><trkpt lat="14.5389677887988" lon="121.01138527397435"><ele>8.0</ele><time>2026-04-14T07:58:03Z</time></trkpt><trkpt lat="14.538952804716196" lon="121.01128600358851"><ele>8.0</ele><time>2026-04-14T07:58:04Z</time></trkpt><trkpt lat="14.538935383195629" lon="121.01118769690918"><ele>8.0</ele><time>2026-04-14T07:58:05Z</time></trkpt><trkpt lat="14.538918514006381" lon="121.01108495360332"><ele>8.0</ele><time>2026-04-14T07:58:06Z</time></trkpt><trkpt lat="14.538880261305865" lon="121.01087180436856"><ele>8.0</ele><time>2026-04-14T07:58:08Z</time></trkpt><trkpt lat="14.538865890432719" lon="121.01076109056336"><ele>8.0</ele><time>2026-04-14T07:58:09Z</time></trkpt><trkpt lat="14.538853296100786" lon="121.01064932877644"><ele>8.0</ele><time>2026-04-14T07:58:10Z</time></trkpt><trkpt lat="14.538840114154889" lon="121.01053709703511"><ele>7.800000000000001</ele><time>2026-04-14T07:58:11Z</time></trkpt><trkpt lat="14.538829841903764" lon="121.01042456630132"><ele>7.6000000000000005</ele><time>2026-04-14T07:58:12Z</time></trkpt><trkpt lat="14.538819126462267" lon="121.01031207864047"><ele>7.3999999999999995</ele><time>2026-04-14T07:58:13Z</time></trkpt><trkpt lat="14.538807992440027" lon="121.0101964418959"><ele>7.199999999999999</ele><time>2026-04-14T07:58:14Z</time></trkpt><trkpt lat="14.538798227010652" lon="121.01007932406833"><ele>7.0</ele><time>2026-04-14T07:58:15Z</time></trkpt><trkpt lat="14.53878536232869" lon="121.00996296869891"><ele>7.0</ele><time>2026-04-14T07:58:16Z</time></trkpt><trkpt lat="14.538770958542193" lon="121.009846446824"><ele>6.999999999999999</ele><time>2026-04-14T07:58:17Z</time></trkpt><trkpt lat="14.538755621155646" lon="121.00973408753498"><ele>6.999999999999999</ele><time>2026-04-14T07:58:18Z</time></trkpt><trkpt lat="14.538737985648183" lon="121.00962514414374"><ele>7.0</ele><time>2026-04-14T07:58:19Z</time></trkpt><trkpt lat="14.538723295926063" lon="121.00951967215092"><ele>7.0</ele><time>2026-04-14T07:58:20Z</time></trkpt><trkpt lat="14.538710119870256" lon="121.00941611957316"><ele>7.199999999999999</ele><time>2026-04-14T07:58:21Z</time></trkpt><trkpt lat="14.538694993863041" lon="121.00931751566219"><ele>7.3999999999999995</ele><time>2026-04-14T07:58:22Z</time></trkpt><trkpt lat="14.538680826641631" lon="121.00922625319376"><ele>7.6000000000000005</ele><time>2026-04-14T07:58:23Z</time></trkpt><trkpt lat="14.538667090322072" lon="121.00914257186687"><ele>7.800000000000001</ele><time>2026-04-14T07:58:24Z</time></trkpt><trkpt lat="14.538655610552722" lon="121.00907089019621"><ele>8.0</ele><time>2026-04-14T07:58:25Z</time></trkpt><trkpt lat="14.538639525052078" lon="121.00894436232693"><ele>8.0</ele><time>2026-04-14T07:58:27Z</time></trkpt><trkpt lat="14.53861912489996" lon="121.00880383762845"><ele>8.0</ele><time>2026-04-14T07:58:29Z</time></trkpt><trkpt lat="14.53860944758546" lon="121.00872532949379"><ele>8.0</ele><time>2026-04-14T07:58:30Z</time></trkpt><trkpt lat="14.538600325529304" lon="121.00864606565624"><ele>8.0</ele><time>2026-04-14T07:58:31Z</time></trkpt><trkpt lat="14.538592420863159" lon="121.0085637116307"><ele>8.0</ele><time>2026-04-14T07:58:32Z</time></trkpt><trkpt lat="14.538590386910284" lon="121.008481921027"><ele>7.999999999999999</ele><time>2026-04-14T07:58:33Z</time></trkpt><trkpt lat="14.538586697133073" lon="121.00838634135107"><ele>8.0</ele><time>2026-04-14T07:58:34Z</time></trkpt><trkpt lat="14.538581172283932" lon="121.00829197407487"><ele>8.0</ele><time>2026-04-14T07:58:35.001Z</time></trkpt><trkpt lat="14.53857584177474" lon="121.00819890723918"><ele>8.0</ele><time>2026-04-14T07:58:36.001Z</time></trkpt><trkpt lat="14.538571975461611" lon="121.00811336976464"><ele>7.999999999999999</ele><time>2026-04-14T07:58:37.001Z</time></trkpt><trkpt lat="14.538568290990685" lon="121.00804000221223"><ele>8.0</ele><time>2026-04-14T07:58:38.001Z</time></trkpt><trkpt lat="14.538558301839153" lon="121.00792770409063"><ele>7.800000000000001</ele><time>2026-04-14T07:58:40.001Z</time></trkpt><trkpt lat="14.538541308693643" lon="121.00783553044045"><ele>7.6000000000000005</ele><time>2026-04-14T07:58:42.001Z</time></trkpt><trkpt lat="14.538521449708094" lon="121.00772610051636"><ele>7.3999999999999995</ele><time>2026-04-14T07:58:44.001Z</time></trkpt><trkpt lat="14.538503816434503" lon="121.00761217902746"><ele>7.199999999999999</ele><time>2026-04-14T07:58:46.001Z</time></trkpt><trkpt lat="14.538494927878576" lon="121.00749367181643"><ele>7.0</ele><time>2026-04-14T07:58:48.001Z</time></trkpt><trkpt lat="14.53848038368423" lon="121.00727922255925"><ele>7.000000000000001</ele><time>2026-04-14T07:58:52.001Z</time></trkpt><trkpt lat="14.538469385033402" lon="121.007205856846"><ele>7.0</ele><time>2026-04-14T07:58:54.001Z</time></trkpt><trkpt lat="14.538461118307323" lon="121.00713584838239"><ele>7.0</ele><time>2026-04-14T07:58:57.001Z</time></trkpt><trkpt lat="14.538444264817928" lon="121.00704779228367"><ele>7.0</ele><time>2026-04-14T07:59:00.001Z</time></trkpt><trkpt lat="14.538442964178357" lon="121.0069757726381"><ele>7.000000000000001</ele><time>2026-04-14T07:59:05.001Z</time></trkpt><trkpt lat="14.538433738784883" lon="121.00689230865937"><ele>7.0</ele><time>2026-04-14T07:59:09.001Z</time></trkpt><trkpt lat="14.538418425371283" lon="121.00675460367678"><ele>7.0</ele><time>2026-04-14T07:59:16.001Z</time></trkpt><trkpt lat="14.53841107019869" lon="121.0066766835541"><ele>6.999999999999999</ele><time>2026-04-14T07:59:18.001Z</time></trkpt><trkpt lat="14.538397382416035" lon="121.00657670407142"><ele>6.999999999999999</ele><time>2026-04-14T07:59:20.001Z</time></trkpt><trkpt lat="14.538380610286257" lon="121.00646968376829"><ele>7.0</ele><time>2026-04-14T07:59:22.001Z</time></trkpt><trkpt lat="14.538368163694436" lon="121.00636448326613"><ele>7.0</ele><time>2026-04-14T07:59:24.001Z</time></trkpt><trkpt lat="14.538355057257437" lon="121.00626026517973"><ele>7.25</ele><time>2026-04-14T07:59:26.001Z</time></trkpt><trkpt lat="14.538342029332483" lon="121.00615716574386"><ele>7.5</ele><time>2026-04-14T07:59:28Z</time></trkpt><trkpt lat="14.538330509948182" lon="121.00606438750371"><ele>7.75</ele><time>2026-04-14T07:59:30Z</time></trkpt><trkpt lat="14.538289491513138" lon="121.00585397516292"><ele>8.0</ele><time>2026-04-14T07:59:34Z</time></trkpt><trkpt lat="14.53828097071653" lon="121.00578916017518"><ele>7.999999999999999</ele><time>2026-04-14T07:59:35Z</time></trkpt><trkpt lat="14.538270301604063" lon="121.00572365966747"><ele>8.0</ele><time>2026-04-14T07:59:36Z</time></trkpt><trkpt lat="14.538257408443137" lon="121.00565999848148"><ele>8.0</ele><time>2026-04-14T07:59:37Z</time></trkpt><trkpt lat="14.538240259360213" lon="121.0055447823841"><ele>8.0</ele><time>2026-04-14T07:59:39Z</time></trkpt><trkpt lat="14.538233005781112" lon="121.00545334710982"><ele>7.999999999999999</ele><time>2026-04-14T07:59:41Z</time></trkpt><trkpt lat="14.538215456597673" lon="121.00538133236645"><ele>8.0</ele><time>2026-04-14T07:59:44Z</time></trkpt><trkpt lat="14.538214585070996" lon="121.00530806673491"><ele>7.999999999999999</ele><time>2026-04-14T07:59:47Z</time></trkpt><trkpt lat="14.538201467544813" lon="121.00522727013322"><ele>8.0</ele><time>2026-04-14T07:59:50Z</time></trkpt><trkpt lat="14.538191543314257" lon="121.00515664302954"><ele>8.0</ele><time>2026-04-14T07:59:52Z</time></trkpt><trkpt lat="14.538186253990641" lon="121.004989731841"><ele>8.0</ele><time>2026-04-14T07:59:56Z</time></trkpt><trkpt lat="14.538202108006372" lon="121.00492030134575"><ele>7.999999999999999</ele><time>2026-04-14T07:59:58Z</time></trkpt><trkpt lat="14.538222569945642" lon="121.00485182167364"><ele>8.0</ele><time>2026-04-14T08:00:08Z</time></trkpt><trkpt lat="14.538233165110226" lon="121.00492036962466"><ele>8.0</ele><time>2026-04-14T08:04:12Z</time></trkpt><trkpt lat="14.538489722208793" lon="121.00504443118025"><ele>8.0</ele><time>2026-04-14T08:10:22Z</time></trkpt><trkpt lat="14.538667031394382" lon="121.00507894352035"><ele>8.333333333333332</ele><time>2026-04-14T08:10:26Z</time></trkpt><trkpt lat="14.538732002324442" lon="121.00508927930981"><ele>8.666666666666666</ele><time>2026-04-14T08:10:29Z</time></trkpt><trkpt lat="14.538818296093089" lon="121.00510610066917"><ele>9.0</ele><time>2026-04-14T08:10:31Z</time></trkpt><trkpt lat="14.538912841243569" lon="121.0051279524081"><ele>9.333333333333334</ele><time>2026-04-14T08:10:33Z</time></trkpt><trkpt lat="14.538999444316644" lon="121.00515397620686"><ele>9.666666666666668</ele><time>2026-04-14T08:10:35Z</time></trkpt><trkpt lat="14.539092825858" lon="121.00517767963308"><ele>10.0</ele><time>2026-04-14T08:10:37Z</time></trkpt><trkpt lat="14.539194054966902" lon="121.00523010716496"><ele>10.0</ele><time>2026-04-14T08:10:39Z</time></trkpt><trkpt lat="14.539297651222249" lon="121.00526389131285"><ele>10.0</ele><time>2026-04-14T08:10:41Z</time></trkpt><trkpt lat="14.539472156159775" lon="121.00532079974467"><ele>10.0</ele><time>2026-04-14T08:10:45Z</time></trkpt><trkpt lat="14.539563109063701" lon="121.00535261319378"><ele>10.0</ele><time>2026-04-14T08:10:47Z</time></trkpt><trkpt lat="14.539668512728346" lon="121.00540681359087"><ele>9.5</ele><time>2026-04-14T08:10:49Z</time></trkpt><trkpt lat="14.539766177650112" lon="121.0054534319487"><ele>9.0</ele><time>2026-04-14T08:10:51Z</time></trkpt><trkpt lat="14.53987078060475" lon="121.00548139555036"><ele>8.5</ele><time>2026-04-14T08:10:53Z</time></trkpt><trkpt lat="14.539952474383266" lon="121.00552483242885"><ele>8.0</ele><time>2026-04-14T08:10:55Z</time></trkpt><trkpt lat="14.54001188762174" lon="121.00555254674325"><ele>7.500000000000001</ele><time>2026-04-14T08:10:57Z</time></trkpt><trkpt lat="14.540071397693511" lon="121.0055834441662"><ele>7.0</ele><time>2026-04-14T08:10:59Z</time></trkpt><trkpt lat="14.540134895561726" lon="121.00561827297945"><ele>7.0</ele><time>2026-04-14T08:11:01Z</time></trkpt><trkpt lat="14.540196507641612" lon="121.005651697644"><ele>6.999999999999999</ele><time>2026-04-14T08:11:03Z</time></trkpt><trkpt lat="14.540357749609491" lon="121.00571970803672"><ele>6.999999999999999</ele><time>2026-04-14T08:11:15Z</time></trkpt><trkpt lat="14.540425451416116" lon="121.0057499418545"><ele>7.0</ele><time>2026-04-14T08:11:17Z</time></trkpt><trkpt lat="14.540500729663393" lon="121.0057783167196"><ele>7.0</ele><time>2026-04-14T08:11:19Z</time></trkpt><trkpt lat="14.54057756603919" lon="121.00581059756877"><ele>7.0</ele><time>2026-04-14T08:11:22.001Z</time></trkpt><trkpt lat="14.540660739888594" lon="121.00583413394754"><ele>6.999999999999999</ele><time>2026-04-14T08:11:26.001Z</time></trkpt><trkpt lat="14.540828836111661" lon="121.0058910258192"><ele>6.999999999999999</ele><time>2026-04-14T08:11:32.001Z</time></trkpt><trkpt lat="14.540898310544975" lon="121.00591037484777"><ele>7.0</ele><time>2026-04-14T08:11:34.001Z</time></trkpt><trkpt lat="14.54097055715991" lon="121.00593157757486"><ele>7.0</ele><time>2026-04-14T08:11:36.001Z</time></trkpt><trkpt lat="14.541053995983983" lon="121.00595569617022"><ele>7.0</ele><time>2026-04-14T08:11:38.001Z</time></trkpt><trkpt lat="14.54114632833827" lon="121.00596981314675"><ele>6.999999999999999</ele><time>2026-04-14T08:11:40.001Z</time></trkpt><trkpt lat="14.541232109745915" lon="121.00598780004766"><ele>6.999999999999999</ele><time>2026-04-14T08:11:42.001Z</time></trkpt><trkpt lat="14.541341466580201" lon="121.0060188061552"><ele>7.0</ele><time>2026-04-14T08:11:44.001Z</time></trkpt><trkpt lat="14.541403376145682" lon="121.00603841430615"><ele>7.0</ele><time>2026-04-14T08:11:45.001Z</time></trkpt><trkpt lat="14.541512664101145" lon="121.00606569049918"><ele>7.25</ele><time>2026-04-14T08:11:47.001Z</time></trkpt><trkpt lat="14.541742669378257" lon="121.00610019003166"><ele>7.5</ele><time>2026-04-14T08:11:51.001Z</time></trkpt><trkpt lat="14.54184033845877" lon="121.00613216759734"><ele>7.75</ele><time>2026-04-14T08:11:53.001Z</time></trkpt><trkpt lat="14.541953220569436" lon="121.0061436946271"><ele>8.0</ele><time>2026-04-14T08:11:55.001Z</time></trkpt><trkpt lat="14.54201883537345" lon="121.00615039492351"><ele>8.166666666666666</ele><time>2026-04-14T08:11:56.001Z</time></trkpt><trkpt lat="14.542084145392463" lon="121.00615706410098"><ele>8.333333333333332</ele><time>2026-04-14T08:11:57.001Z</time></trkpt><trkpt lat="14.542202408771146" lon="121.00616379161283"><ele>8.5</ele><time>2026-04-14T08:11:59.001Z</time></trkpt><trkpt lat="14.542318942279408" lon="121.00616487216921"><ele>8.666666666666666</ele><time>2026-04-14T08:12:01.001Z</time></trkpt><trkpt lat="14.542387476790529" lon="121.0061305803797"><ele>8.833333333333334</ele><time>2026-04-14T08:12:02.001Z</time></trkpt><trkpt lat="14.542448177964268" lon="121.00610428072716"><ele>9.0</ele><time>2026-04-14T08:12:03Z</time></trkpt><trkpt lat="14.542511505465516" lon="121.00607853023784"><ele>9.0</ele><time>2026-04-14T08:12:04Z</time></trkpt><trkpt lat="14.542571254815382" lon="121.0060542347229"><ele>9.0</ele><time>2026-04-14T08:12:05Z</time></trkpt><trkpt lat="14.542691732880742" lon="121.00600950674725"><ele>9.0</ele><time>2026-04-14T08:12:07Z</time></trkpt><trkpt lat="14.542759199016228" lon="121.00602742870537"><ele>9.0</ele><time>2026-04-14T08:12:08Z</time></trkpt><trkpt lat="14.542893934801837" lon="121.00604714613772"><ele>9.0</ele><time>2026-04-14T08:12:10Z</time></trkpt><trkpt lat="14.543007285021304" lon="121.0060637339703"><ele>9.333333333333334</ele><time>2026-04-14T08:12:12Z</time></trkpt><trkpt lat="14.543079156827622" lon="121.00607425179804"><ele>9.666666666666666</ele><time>2026-04-14T08:12:14Z</time></trkpt><trkpt lat="14.54314160068771" lon="121.00608338992339"><ele>10.0</ele><time>2026-04-14T08:12:17Z</time></trkpt><trkpt lat="14.543208797603944" lon="121.00609322355764"><ele>10.333333333333332</ele><time>2026-04-14T08:12:24Z</time></trkpt><trkpt lat="14.543283868420424" lon="121.00610384515956"><ele>10.666666666666666</ele><time>2026-04-14T08:12:26Z</time></trkpt><trkpt lat="14.543346384245705" lon="121.00611277023287"><ele>11.0</ele><time>2026-04-14T08:12:34Z</time></trkpt><trkpt lat="14.543499627270137" lon="121.0061346479842"><ele>11.0</ele><time>2026-04-14T08:12:45Z</time></trkpt><trkpt lat="14.543572185964784" lon="121.00614500683"><ele>11.0</ele><time>2026-04-14T08:12:47Z</time></trkpt><trkpt lat="14.54364797755961" lon="121.00615582721578"><ele>11.0</ele><time>2026-04-14T08:12:50Z</time></trkpt><trkpt lat="14.543712314713225" lon="121.00616501231974"><ele>11.0</ele><time>2026-04-14T08:13:01Z</time></trkpt><trkpt lat="14.543864637705592" lon="121.00618539670991"><ele>11.0</ele><time>2026-04-14T08:13:07Z</time></trkpt><trkpt lat="14.543938182723975" lon="121.00618330709938"><ele>11.0</ele><time>2026-04-14T08:13:10Z</time></trkpt><trkpt lat="14.543998553189166" lon="121.00623141551735"><ele>10.833333333333332</ele><time>2026-04-14T08:13:12Z</time></trkpt><trkpt lat="14.544010908954293" lon="121.00630918936608"><ele>10.666666666666666</ele><time>2026-04-14T08:13:14Z</time></trkpt><trkpt lat="14.544045180378623" lon="121.00637951961319"><ele>10.5</ele><time>2026-04-14T08:13:16Z</time></trkpt><trkpt lat="14.544098182278919" lon="121.00643740936847"><ele>10.333333333333334</ele><time>2026-04-14T08:13:18Z</time></trkpt><trkpt lat="14.544159505042273" lon="121.00646541709848"><ele>10.166666666666668</ele><time>2026-04-14T08:13:20Z</time></trkpt><trkpt lat="14.544251276716151" lon="121.00645733781946"><ele>10.0</ele><time>2026-04-14T08:13:23.001Z</time></trkpt><trkpt lat="14.544387046268291" lon="121.00643650674958"><ele>10.0</ele><time>2026-04-14T08:13:27.001Z</time></trkpt><trkpt lat="14.544473864520043" lon="121.00642318625944"><ele>10.0</ele><time>2026-04-14T08:13:30.001Z</time></trkpt><trkpt lat="14.54455654042155" lon="121.00641152753214"><ele>10.0</ele><time>2026-04-14T08:13:33.001Z</time></trkpt><trkpt lat="14.544635561722881" lon="121.00640108443424"><ele>10.0</ele><time>2026-04-14T08:13:36.001Z</time></trkpt><trkpt lat="14.544753500854968" lon="121.0063863773974"><ele>10.0</ele><time>2026-04-14T08:13:39.001Z</time></trkpt><trkpt lat="14.54486735745566" lon="121.00637229422124"><ele>9.75</ele><time>2026-04-14T08:13:41.001Z</time></trkpt><trkpt lat="14.544950615745645" lon="121.00636199554545"><ele>9.5</ele><time>2026-04-14T08:13:43.001Z</time></trkpt><trkpt lat="14.54502511155155" lon="121.00635278070551"><ele>9.25</ele><time>2026-04-14T08:13:45.001Z</time></trkpt><trkpt lat="14.545233430643377" lon="121.00635334123525"><ele>9.0</ele><time>2026-04-14T08:13:49.001Z</time></trkpt><trkpt lat="14.54531655863318" lon="121.00635171775991"><ele>8.5</ele><time>2026-04-14T08:13:51.001Z</time></trkpt><trkpt lat="14.545393135918633" lon="121.0063499690272"><ele>8.0</ele><time>2026-04-14T08:13:54.001Z</time></trkpt><trkpt lat="14.545467933066123" lon="121.00634806752602"><ele>7.5</ele><time>2026-04-14T08:14:01.001Z</time></trkpt><trkpt lat="14.54553473424883" lon="121.00634636929742"><ele>7.0</ele><time>2026-04-14T08:14:03.001Z</time></trkpt><trkpt lat="14.545621620072843" lon="121.0063441604754"><ele>6.5</ele><time>2026-04-14T08:14:05.001Z</time></trkpt><trkpt lat="14.545702864493782" lon="121.00634209506936"><ele>6.0</ele><time>2026-04-14T08:14:07.001Z</time></trkpt><trkpt lat="14.545870092231437" lon="121.00633784378464"><ele>6.0</ele><time>2026-04-14T08:14:11Z</time></trkpt><trkpt lat="14.54594995273228" lon="121.00633574865316"><ele>6.0</ele><time>2026-04-14T08:14:13Z</time></trkpt><trkpt lat="14.546046638517163" lon="121.00633372950867"><ele>6.0</ele><time>2026-04-14T08:14:15Z</time></trkpt><trkpt lat="14.546145360352915" lon="121.00633190807314"><ele>6.0</ele><time>2026-04-14T08:14:17Z</time></trkpt><trkpt lat="14.546236072081664" lon="121.00633023441382"><ele>6.0</ele><time>2026-04-14T08:14:19Z</time></trkpt><trkpt lat="14.546307866385508" lon="121.0063288395918"><ele>6.0</ele><time>2026-04-14T08:14:22Z</time></trkpt><trkpt lat="14.546395562714384" lon="121.00632716620979"><ele>6.25</ele><time>2026-04-14T08:14:25Z</time></trkpt><trkpt lat="14.54649247000207" lon="121.00631169428036"><ele>6.5</ele><time>2026-04-14T08:14:27Z</time></trkpt><trkpt lat="14.546597390566399" lon="121.00631255646734"><ele>6.75</ele><time>2026-04-14T08:14:29Z</time></trkpt><trkpt lat="14.546814966395345" lon="121.00630327850585"><ele>7.0</ele><time>2026-04-14T08:14:33Z</time></trkpt><trkpt lat="14.546885878208455" lon="121.00630183401438"><ele>7.0</ele><time>2026-04-14T08:14:35Z</time></trkpt><trkpt lat="14.546957870357001" lon="121.00630921354754"><ele>7.0</ele><time>2026-04-14T08:14:37Z</time></trkpt><trkpt lat="14.547028166308806" lon="121.00630669185402"><ele>7.0</ele><time>2026-04-14T08:14:39Z</time></trkpt><trkpt lat="14.547104069218076" lon="121.00631311303655"><ele>7.0</ele><time>2026-04-14T08:14:42Z</time></trkpt><trkpt lat="14.547169913642245" lon="121.00631242821392"><ele>7.0</ele><time>2026-04-14T08:14:44Z</time></trkpt><trkpt lat="14.547259766854912" lon="121.00631149368493"><ele>7.0</ele><time>2026-04-14T08:14:47Z</time></trkpt><trkpt lat="14.547327000900758" lon="121.00631079440926"><ele>7.0</ele><time>2026-04-14T08:14:49Z</time></trkpt><trkpt lat="14.547401144803931" lon="121.00632685900474"><ele>7.0</ele><time>2026-04-14T08:15:05Z</time></trkpt><trkpt lat="14.547284281122" lon="121.00639206366752"><ele>6.999999999999999</ele><time>2026-04-14T08:29:07Z</time></trkpt><trkpt lat="14.547145199944769" lon="121.00637324284094"><ele>6.999999999999999</ele><time>2026-04-14T08:29:14Z</time></trkpt><trkpt lat="14.547075052461226" lon="121.00635894612924"><ele>7.0</ele><time>2026-04-14T08:29:18Z</time></trkpt><trkpt lat="14.547002496152697" lon="121.00636139761815"><ele>7.0</ele><time>2026-04-14T08:29:21Z</time></trkpt><trkpt lat="14.546930119244141" lon="121.00638897498756"><ele>7.0</ele><time>2026-04-14T08:29:25Z</time></trkpt><trkpt lat="14.546848438115981" lon="121.00639168214097"><ele>6.999999999999999</ele><time>2026-04-14T08:29:28Z</time></trkpt><trkpt lat="14.54677525069015" lon="121.00638324255281"><ele>6.999999999999999</ele><time>2026-04-14T08:29:32Z</time></trkpt><trkpt lat="14.54662838090372" lon="121.00640477720654"><ele>7.0</ele><time>2026-04-14T08:29:42Z</time></trkpt><trkpt lat="14.54672706854901" lon="121.00640293834053"><ele>7.0</ele><time>2026-04-14T08:29:50Z</time></trkpt><trkpt lat="14.546819232710659" lon="121.00642452227763"><ele>7.666666666666667</ele><time>2026-04-14T08:30:02Z</time></trkpt><trkpt lat="14.547060303349692" lon="121.0064376443367"><ele>8.333333333333334</ele><time>2026-04-14T08:30:18Z</time></trkpt><trkpt lat="14.54722035043047" lon="121.00640629168245"><ele>9.0</ele><time>2026-04-14T08:30:30Z</time></trkpt><trkpt lat="14.54737006737545" lon="121.00634037247649"><ele>9.0</ele><time>2026-04-14T08:31:13.999Z</time></trkpt><trkpt lat="14.547358622509678" lon="121.00635898023364"><ele>9.0</ele><time>2026-04-14T08:31:51Z</time></trkpt><trkpt lat="14.547146045622158" lon="121.00629979377793"><ele>9.0</ele><time>2026-04-14T08:32:17Z</time></trkpt><trkpt lat="14.547008095152707" lon="121.00632296966847"><ele>9.0</ele><time>2026-04-14T08:32:27Z</time></trkpt><trkpt lat="14.54694296292166" lon="121.0063324840614"><ele>9.0</ele><time>2026-04-14T08:32:32Z</time></trkpt><trkpt lat="14.54688208423451" lon="121.00635799197674"><ele>8.5</ele><time>2026-04-14T08:32:37Z</time></trkpt><trkpt lat="14.546819374740426" lon="121.00632058505416"><ele>8.0</ele><time>2026-04-14T08:32:43Z</time></trkpt><trkpt lat="14.546955527555411" lon="121.00626248925266"><ele>7.5</ele><time>2026-04-14T08:32:50Z</time></trkpt><trkpt lat="14.546802640975372" lon="121.00629101709148"><ele>7.0</ele><time>2026-04-14T08:32:51Z</time></trkpt><trkpt lat="14.546872323986763" lon="121.0062601926923"><ele>7.0</ele><time>2026-04-14T08:32:53Z</time></trkpt><trkpt lat="14.54695097752656" lon="121.00622134586337"><ele>7.0</ele><time>2026-04-14T08:32:55Z</time></trkpt><trkpt lat="14.546989538024913" lon="121.00616331214613"><ele>7.0</ele><time>2026-04-14T08:32:59Z</time></trkpt><trkpt lat="14.547050760775022" lon="121.00618010961394"><ele>7.0</ele><time>2026-04-14T08:33:07.998Z</time></trkpt><trkpt lat="14.547339926150435" lon="121.00618886118879"><ele>7.25</ele><time>2026-04-14T09:22:27Z</time></trkpt><trkpt lat="14.54739014021162" lon="121.00612786754397"><ele>7.5</ele><time>2026-04-14T09:22:29Z</time></trkpt><trkpt lat="14.547492649661038" lon="121.00604232651284"><ele>7.75</ele><time>2026-04-14T09:22:32Z</time></trkpt><trkpt lat="14.547604544930794" lon="121.00583008017182"><ele>8.0</ele><time>2026-04-14T09:22:40Z</time></trkpt><trkpt lat="14.547744693166587" lon="121.00579337377695"><ele>8.5</ele><time>2026-04-14T09:22:41Z</time></trkpt><trkpt lat="14.54768579107963" lon="121.00598907703291"><ele>9.0</ele><time>2026-04-14T09:29:15.001Z</time></trkpt><trkpt lat="14.547604321753308" lon="121.00643851197128"><ele>9.0</ele><time>2026-04-14T09:29:17.001Z</time></trkpt><trkpt lat="14.547374156351887" lon="121.00644333054629"><ele>9.0</ele><time>2026-04-14T10:04:12.001Z</time></trkpt><trkpt lat="14.54726673074319" lon="121.00645799594339"><ele>9.0</ele><time>2026-04-14T10:04:16.001Z</time></trkpt><trkpt lat="14.547086974728348" lon="121.00650792488712"><ele>9.0</ele><time>2026-04-14T10:04:26.001Z</time></trkpt><trkpt lat="14.547017765862078" lon="121.00651277722052"><ele>9.0</ele><time>2026-04-14T10:04:31.001Z</time></trkpt><trkpt lat="14.546913829238697" lon="121.00651223958666"><ele>9.0</ele><time>2026-04-14T10:04:36.001Z</time></trkpt><trkpt lat="14.547015044496902" lon="121.00648458546144"><ele>9.0</ele><time>2026-04-14T10:04:51.001Z</time></trkpt><trkpt lat="14.547118062029828" lon="121.00645505129089"><ele>9.0</ele><time>2026-04-14T10:05:01Z</time></trkpt><trkpt lat="14.547365502148757" lon="121.00643410593949"><ele>9.0</ele><time>2026-04-14T10:05:28Z</time></trkpt><trkpt lat="14.547249810175405" lon="121.00652080699953"><ele>9.0</ele><time>2026-04-14T10:06:20Z</time></trkpt><trkpt lat="14.547137493718504" lon="121.0064531383882"><ele>9.0</ele><time>2026-04-14T10:06:29Z</time></trkpt><trkpt lat="14.547085365162788" lon="121.00640110940252"><ele>9.0</ele><time>2026-04-14T10:06:33Z</time></trkpt><trkpt lat="14.54702285592074" lon="121.00637585607528"><ele>9.0</ele><time>2026-04-14T10:06:36Z</time></trkpt><trkpt lat="14.546968533913049" lon="121.00632526317489"><ele>9.0</ele><time>2026-04-14T10:06:41Z</time></trkpt><trkpt lat="14.547079973606648" lon="121.00631944440454"><ele>9.0</ele><time>2026-04-14T10:06:55Z</time></trkpt><trkpt lat="14.54716589613026" lon="121.00638859085387"><ele>9.0</ele><time>2026-04-14T10:07:23.998Z</time></trkpt><trkpt lat="14.547199026995697" lon="121.00653006120298"><ele>9.0</ele><time>2026-04-14T10:07:32.999Z</time></trkpt><trkpt lat="14.547235988717482" lon="121.00658788393466"><ele>9.0</ele><time>2026-04-14T10:07:39.999Z</time></trkpt><trkpt lat="14.547282427353139" lon="121.00652040065921"><ele>9.0</ele><time>2026-04-14T10:07:46.999Z</time></trkpt><trkpt lat="14.547324195109343" lon="121.00647120930948"><ele>9.0</ele><time>2026-04-14T10:07:49.999Z</time></trkpt><trkpt lat="14.547509081277228" lon="121.0063165575614"><ele>9.0</ele><time>2026-04-14T10:10:45Z</time></trkpt><trkpt lat="14.547649349132918" lon="121.00631043976227"><ele>9.0</ele><time>2026-04-14T10:17:53.002Z</time></trkpt><trkpt lat="14.547718696384761" lon="121.0062855440558"><ele>9.0</ele><time>2026-04-14T10:17:55.002Z</time></trkpt><trkpt lat="14.547791297852163" lon="121.00624915963063"><ele>9.0</ele><time>2026-04-14T10:17:58.002Z</time></trkpt><trkpt lat="14.54785277968012" lon="121.00619994670826"><ele>9.0</ele><time>2026-04-14T10:18:01.002Z</time></trkpt><trkpt lat="14.547900975686039" lon="121.0061544813294"><ele>9.0</ele><time>2026-04-14T10:18:04.002Z</time></trkpt><trkpt lat="14.547954000084912" lon="121.00608265764299"><ele>9.0</ele><time>2026-04-14T10:18:07.001Z</time></trkpt><trkpt lat="14.547964319102574" lon="121.00598303436028"><ele>9.0</ele><time>2026-04-14T10:18:10.001Z</time></trkpt><trkpt lat="14.547952004673434" lon="121.00576650587821"><ele>8.4</ele><time>2026-04-14T10:18:14.001Z</time></trkpt><trkpt lat="14.547940698834944" lon="121.00564129765458"><ele>7.800000000000001</ele><time>2026-04-14T10:18:16.001Z</time></trkpt><trkpt lat="14.547934257475724" lon="121.00552955220783"><ele>7.199999999999999</ele><time>2026-04-14T10:18:18.001Z</time></trkpt><trkpt lat="14.547931925452486" lon="121.00541644173391"><ele>6.6</ele><time>2026-04-14T10:18:20.001Z</time></trkpt><trkpt lat="14.547933619007054" lon="121.00534932611545"><ele>6.0</ele><time>2026-04-14T10:18:21.001Z</time></trkpt><trkpt lat="14.547925366305293" lon="121.0052257053678"><ele>6.0</ele><time>2026-04-14T10:18:23.001Z</time></trkpt><trkpt lat="14.547896151323563" lon="121.00510856998109"><ele>6.0</ele><time>2026-04-14T10:18:25.001Z</time></trkpt><trkpt lat="14.547863121060718" lon="121.00501771130217"><ele>6.0</ele><time>2026-04-14T10:18:27.001Z</time></trkpt><trkpt lat="14.547830043187766" lon="121.0049466641047"><ele>6.0</ele><time>2026-04-14T10:18:31.001Z</time></trkpt><trkpt lat="14.54778214312428" lon="121.00475402922662"><ele>6.333333333333333</ele><time>2026-04-14T10:18:36.001Z</time></trkpt><trkpt lat="14.547752944533817" lon="121.00466213995962"><ele>6.666666666666666</ele><time>2026-04-14T10:18:38.001Z</time></trkpt><trkpt lat="14.547715928435569" lon="121.00458983989701"><ele>7.0</ele><time>2026-04-14T10:18:41.001Z</time></trkpt><trkpt lat="14.547696002275211" lon="121.004515051083"><ele>7.333333333333333</ele><time>2026-04-14T10:18:44.001Z</time></trkpt><trkpt lat="14.547677280558478" lon="121.00442588983113"><ele>7.666666666666666</ele><time>2026-04-14T10:18:46.001Z</time></trkpt><trkpt lat="14.547658491147407" lon="121.0043341507464"><ele>8.0</ele><time>2026-04-14T10:18:48.001Z</time></trkpt><trkpt lat="14.54763501456027" lon="121.00425699559656"><ele>7.999999999999999</ele><time>2026-04-14T10:18:50.001Z</time></trkpt><trkpt lat="14.547613901805684" lon="121.0041806661079"><ele>8.0</ele><time>2026-04-14T10:18:53.001Z</time></trkpt><trkpt lat="14.547738308762616" lon="121.00413013088705"><ele>8.0</ele><time>2026-04-14T10:18:58.001Z</time></trkpt><trkpt lat="14.547803727292926" lon="121.00410658020373"><ele>8.0</ele><time>2026-04-14T10:19:00.001Z</time></trkpt><trkpt lat="14.547865310492677" lon="121.0040798002352"><ele>7.999999999999999</ele><time>2026-04-14T10:19:02.001Z</time></trkpt><trkpt lat="14.547951315059871" lon="121.00404240047042"><ele>8.0</ele><time>2026-04-14T10:19:05.001Z</time></trkpt><trkpt lat="14.548012132046608" lon="121.0040159540763"><ele>7.833333333333333</ele><time>2026-04-14T10:19:07.001Z</time></trkpt><trkpt lat="14.548056933705508" lon="121.00397026039745"><ele>7.666666666666666</ele><time>2026-04-14T10:19:09.001Z</time></trkpt><trkpt lat="14.548131421091405" lon="121.00393133251312"><ele>7.5</ele><time>2026-04-14T10:19:12.001Z</time></trkpt><trkpt lat="14.54819565718514" lon="121.0038942584745"><ele>7.333333333333334</ele><time>2026-04-14T10:19:14.001Z</time></trkpt><trkpt lat="14.548316899137436" lon="121.00381222663036"><ele>7.166666666666667</ele><time>2026-04-14T10:19:18.001Z</time></trkpt><trkpt lat="14.548384736028243" lon="121.00376040593584"><ele>7.0</ele><time>2026-04-14T10:19:21.001Z</time></trkpt><trkpt lat="14.548384709942264" lon="121.0036847257483"><ele>7.0</ele><time>2026-04-14T10:19:25.001Z</time></trkpt><trkpt lat="14.54833324049632" lon="121.00358845872388"><ele>6.999999999999999</ele><time>2026-04-14T10:19:28.001Z</time></trkpt><trkpt lat="14.5483006967116" lon="121.00348218214899"><ele>6.999999999999999</ele><time>2026-04-14T10:19:30.001Z</time></trkpt><trkpt lat="14.548281157705885" lon="121.00338914150548"><ele>7.0</ele><time>2026-04-14T10:19:32.001Z</time></trkpt><trkpt lat="14.548262930990395" lon="121.00329938520044"><ele>7.0</ele><time>2026-04-14T10:19:34.001Z</time></trkpt><trkpt lat="14.548239923612762" lon="121.00322940904756"><ele>7.199999999999999</ele><time>2026-04-14T10:19:36.001Z</time></trkpt><trkpt lat="14.548201891821742" lon="121.00304008087373"><ele>7.3999999999999995</ele><time>2026-04-14T10:19:40.001Z</time></trkpt><trkpt lat="14.548186877711569" lon="121.00292080581687"><ele>7.6000000000000005</ele><time>2026-04-14T10:19:42.001Z</time></trkpt><trkpt lat="14.548181525133373" lon="121.00284918839152"><ele>7.800000000000001</ele><time>2026-04-14T10:19:43.001Z</time></trkpt><trkpt lat="14.548175172491439" lon="121.002778637466"><ele>8.0</ele><time>2026-04-14T10:19:44.001Z</time></trkpt><trkpt lat="14.54816585194167" lon="121.00270766895697"><ele>8.0</ele><time>2026-04-14T10:19:45.001Z</time></trkpt><trkpt lat="14.548162115083397" lon="121.00258991813546"><ele>8.0</ele><time>2026-04-14T10:19:47.001Z</time></trkpt><trkpt lat="14.548152596737367" lon="121.00249620953115"><ele>8.0</ele><time>2026-04-14T10:19:49.001Z</time></trkpt><trkpt lat="14.548144276658295" lon="121.00240722082401"><ele>8.0</ele><time>2026-04-14T10:19:51.001Z</time></trkpt><trkpt lat="14.548135327013625" lon="121.00230967703469"><ele>8.0</ele><time>2026-04-14T10:19:53.001Z</time></trkpt><trkpt lat="14.548126969138492" lon="121.0022114510198"><ele>8.25</ele><time>2026-04-14T10:19:55.001Z</time></trkpt><trkpt lat="14.548119866464498" lon="121.00212797674959"><ele>8.5</ele><time>2026-04-14T10:19:57.001Z</time></trkpt><trkpt lat="14.548103934871286" lon="121.0019407410577"><ele>8.75</ele><time>2026-04-14T10:20:01.001Z</time></trkpt><trkpt lat="14.548101279823111" lon="121.00183366898341"><ele>9.0</ele><time>2026-04-14T10:20:03.001Z</time></trkpt><trkpt lat="14.548095858192072" lon="121.00170035248013"><ele>9.000000000000002</ele><time>2026-04-14T10:20:05.001Z</time></trkpt><trkpt lat="14.548092958980181" lon="121.00162906157622"><ele>9.0</ele><time>2026-04-14T10:20:06.001Z</time></trkpt><trkpt lat="14.548090169720979" lon="121.00156035472709"><ele>9.0</ele><time>2026-04-14T10:20:07.001Z</time></trkpt><trkpt lat="14.54808745934386" lon="121.00149348138054"><ele>9.0</ele><time>2026-04-14T10:20:08.001Z</time></trkpt><trkpt lat="14.548084742788642" lon="121.00142645562079"><ele>9.0</ele><time>2026-04-14T10:20:09.001Z</time></trkpt><trkpt lat="14.548081943291473" lon="121.00135738339603"><ele>9.000000000000002</ele><time>2026-04-14T10:20:10.001Z</time></trkpt><trkpt lat="14.548071109815258" lon="121.00128525670856"><ele>9.0</ele><time>2026-04-14T10:20:11.001Z</time></trkpt><trkpt lat="14.548070914562846" lon="121.0012103042814"><ele>9.0</ele><time>2026-04-14T10:20:12.001Z</time></trkpt><trkpt lat="14.54807219269502" lon="121.00114028588865"><ele>9.0</ele><time>2026-04-14T10:20:13.001Z</time></trkpt><trkpt lat="14.54806806797473" lon="121.00101521040197"><ele>9.0</ele><time>2026-04-14T10:20:15.001Z</time></trkpt><trkpt lat="14.54806596972554" lon="121.00091253015316"><ele>9.0</ele><time>2026-04-14T10:20:17.001Z</time></trkpt><trkpt lat="14.548064109280046" lon="121.00081022335318"><ele>9.0</ele><time>2026-04-14T10:20:19.001Z</time></trkpt><trkpt lat="14.54809331751203" lon="121.00063038688437"><ele>9.166666666666666</ele><time>2026-04-14T10:20:23.001Z</time></trkpt><trkpt lat="14.548170395358301" lon="121.00060266205003"><ele>9.333333333333334</ele><time>2026-04-14T10:20:25.001Z</time></trkpt><trkpt lat="14.548265954139438" lon="121.0005858516792"><ele>9.5</ele><time>2026-04-14T10:20:27.001Z</time></trkpt><trkpt lat="14.548324293687747" lon="121.00056126212922"><ele>9.666666666666668</ele><time>2026-04-14T10:20:28.001Z</time></trkpt><trkpt lat="14.548397276212444" lon="121.00055720256455"><ele>9.833333333333334</ele><time>2026-04-14T10:20:29.001Z</time></trkpt><trkpt lat="14.548480250910906" lon="121.00055378115819"><ele>10.0</ele><time>2026-04-14T10:20:30.001Z</time></trkpt><trkpt lat="14.548566619981868" lon="121.00055060327867"><ele>10.0</ele><time>2026-04-14T10:20:31.001Z</time></trkpt><trkpt lat="14.548655451968326" lon="121.00054185439022"><ele>10.0</ele><time>2026-04-14T10:20:32.001Z</time></trkpt><trkpt lat="14.548744674540597" lon="121.0005325882732"><ele>10.0</ele><time>2026-04-14T10:20:33.001Z</time></trkpt><trkpt lat="14.548820964276155" lon="121.00052590942268"><ele>10.0</ele><time>2026-04-14T10:20:34.001Z</time></trkpt><trkpt lat="14.548887547958323" lon="121.00052162456105"><ele>10.0</ele><time>2026-04-14T10:20:35.001Z</time></trkpt><trkpt lat="14.548999350373157" lon="121.00050458923819"><ele>10.0</ele><time>2026-04-14T10:20:37.001Z</time></trkpt><trkpt lat="14.54911753145196" lon="121.00047633736396"><ele>9.8</ele><time>2026-04-14T10:20:39.001Z</time></trkpt><trkpt lat="14.549183200173594" lon="121.00046680959662"><ele>9.6</ele><time>2026-04-14T10:20:40.001Z</time></trkpt><trkpt lat="14.549326369608696" lon="121.00044916817858"><ele>9.4</ele><time>2026-04-14T10:20:42.001Z</time></trkpt><trkpt lat="14.549406762754518" lon="121.0004379394891"><ele>9.2</ele><time>2026-04-14T10:20:43.001Z</time></trkpt><trkpt lat="14.549489380385637" lon="121.00043058402257"><ele>9.0</ele><time>2026-04-14T10:20:44.001Z</time></trkpt><trkpt lat="14.549570710805918" lon="121.00042023722386"><ele>9.0</ele><time>2026-04-14T10:20:45.001Z</time></trkpt><trkpt lat="14.549653885197527" lon="121.00040661200451"><ele>9.0</ele><time>2026-04-14T10:20:46.001Z</time></trkpt><trkpt lat="14.549739738687595" lon="121.00039278992669"><ele>9.0</ele><time>2026-04-14T10:20:47.001Z</time></trkpt><trkpt lat="14.549827920336767" lon="121.00037926702208"><ele>9.0</ele><time>2026-04-14T10:20:48.001Z</time></trkpt><trkpt lat="14.549918884655156" lon="121.00036125262208"><ele>9.0</ele><time>2026-04-14T10:20:49.001Z</time></trkpt><trkpt lat="14.55000614669436" lon="121.00033889361771"><ele>9.0</ele><time>2026-04-14T10:20:50.001Z</time></trkpt><trkpt lat="14.550093874373962" lon="121.00031432257508"><ele>9.0</ele><time>2026-04-14T10:20:51.001Z</time></trkpt><trkpt lat="14.55018416449926" lon="121.00029172770603"><ele>9.0</ele><time>2026-04-14T10:20:52.001Z</time></trkpt><trkpt lat="14.550275115364101" lon="121.00026753506324"><ele>9.0</ele><time>2026-04-14T10:20:53.001Z</time></trkpt><trkpt lat="14.550367458190799" lon="121.00024369568844"><ele>9.0</ele><time>2026-04-14T10:20:54.001Z</time></trkpt><trkpt lat="14.55045793446186" lon="121.0002196563701"><ele>9.0</ele><time>2026-04-14T10:20:55.001Z</time></trkpt><trkpt lat="14.550551934181946" lon="121.00019768785661"><ele>9.4</ele><time>2026-04-14T10:20:56.001Z</time></trkpt><trkpt lat="14.550647947224359" lon="121.0001781261332"><ele>9.8</ele><time>2026-04-14T10:20:57.001Z</time></trkpt><trkpt lat="14.550743623011739" lon="121.00015680448439"><ele>10.200000000000001</ele><time>2026-04-14T10:20:58.001Z</time></trkpt><trkpt lat="14.550840177585776" lon="121.00013943663717"><ele>10.600000000000001</ele><time>2026-04-14T10:20:59.001Z</time></trkpt><trkpt lat="14.550934086830951" lon="121.00011965117697"><ele>11.0</ele><time>2026-04-14T10:21:00.001Z</time></trkpt><trkpt lat="14.551020187377503" lon="121.00010437403206"><ele>11.0</ele><time>2026-04-14T10:21:01.001Z</time></trkpt><trkpt lat="14.551175174354254" lon="121.00007780651002"><ele>11.0</ele><time>2026-04-14T10:21:03.001Z</time></trkpt><trkpt lat="14.551250805573842" lon="121.00006388017881"><ele>11.0</ele><time>2026-04-14T10:21:04.001Z</time></trkpt><trkpt lat="14.551322859682392" lon="121.00005042381704"><ele>11.0</ele><time>2026-04-14T10:21:05.001Z</time></trkpt><trkpt lat="14.551397131780421" lon="121.00004026643563"><ele>11.0</ele><time>2026-04-14T10:21:06.001Z</time></trkpt><trkpt lat="14.551469812692078" lon="121.00003539055399"><ele>10.571428571428571</ele><time>2026-04-14T10:21:07.001Z</time></trkpt><trkpt lat="14.551538822787846" lon="121.00002918683235"><ele>10.142857142857142</ele><time>2026-04-14T10:21:08.001Z</time></trkpt><trkpt lat="14.551606904471274" lon="121.00001479755214"><ele>9.714285714285714</ele><time>2026-04-14T10:21:09.001Z</time></trkpt><trkpt lat="14.551685795077493" lon="120.99999851929002"><ele>9.285714285714285</ele><time>2026-04-14T10:21:10.001Z</time></trkpt><trkpt lat="14.551752922316656" lon="120.99998426914124"><ele>8.857142857142856</ele><time>2026-04-14T10:21:11.001Z</time></trkpt><trkpt lat="14.551825511845687" lon="120.99996694618932"><ele>8.428571428571429</ele><time>2026-04-14T10:21:12.001Z</time></trkpt><trkpt lat="14.551894223134044" lon="120.999955205711"><ele>8.0</ele><time>2026-04-14T10:21:13.001Z</time></trkpt><trkpt lat="14.551961563719678" lon="120.99994939980255"><ele>7.833333333333333</ele><time>2026-04-14T10:21:14.001Z</time></trkpt><trkpt lat="14.552049614705188" lon="120.99993202328443"><ele>7.666666666666666</ele><time>2026-04-14T10:21:16.001Z</time></trkpt><trkpt lat="14.552135934994494" lon="120.99990988848883"><ele>7.5</ele><time>2026-04-14T10:21:18.001Z</time></trkpt><trkpt lat="14.552198650951095" lon="120.99989183652625"><ele>7.333333333333334</ele><time>2026-04-14T10:21:19.001Z</time></trkpt><trkpt lat="14.552268435386662" lon="120.99986632369263"><ele>7.166666666666667</ele><time>2026-04-14T10:21:20.001Z</time></trkpt><trkpt lat="14.552339731261176" lon="120.99983247957104"><ele>7.0</ele><time>2026-04-14T10:21:21.001Z</time></trkpt><trkpt lat="14.552417370371666" lon="120.99979104807718"><ele>7.0</ele><time>2026-04-14T10:21:22.001Z</time></trkpt><trkpt lat="14.552582680498805" lon="120.99970517369336"><ele>7.0</ele><time>2026-04-14T10:21:24.001Z</time></trkpt><trkpt lat="14.552672941907385" lon="120.99965502918658"><ele>7.0</ele><time>2026-04-14T10:21:25.001Z</time></trkpt><trkpt lat="14.552762170814495" lon="120.99960187702978"><ele>7.0</ele><time>2026-04-14T10:21:26.001Z</time></trkpt><trkpt lat="14.552855497557221" lon="120.99955884939891"><ele>7.3999999999999995</ele><time>2026-04-14T10:21:27.001Z</time></trkpt><trkpt lat="14.55295307079958" lon="120.99951738686677"><ele>7.799999999999999</ele><time>2026-04-14T10:21:28.001Z</time></trkpt><trkpt lat="14.55305352191147" lon="120.99948324505033"><ele>8.2</ele><time>2026-04-14T10:21:29.001Z</time></trkpt><trkpt lat="14.553162850765588" lon="120.99945436332165"><ele>8.6</ele><time>2026-04-14T10:21:30.001Z</time></trkpt><trkpt lat="14.553274118507591" lon="120.99942306243715"><ele>9.0</ele><time>2026-04-14T10:21:31.001Z</time></trkpt><trkpt lat="14.55338104132677" lon="120.99939911039117"><ele>9.0</ele><time>2026-04-14T10:21:32.001Z</time></trkpt><trkpt lat="14.553488000708615" lon="120.99937856409994"><ele>9.0</ele><time>2026-04-14T10:21:33.001Z</time></trkpt><trkpt lat="14.553581807364871" lon="120.99935762608327"><ele>9.0</ele><time>2026-04-14T10:21:34.001Z</time></trkpt><trkpt lat="14.553672446367193" lon="120.99933660678654"><ele>9.0</ele><time>2026-04-14T10:21:35.001Z</time></trkpt><trkpt lat="14.5537637080676" lon="120.99931865524646"><ele>9.0</ele><time>2026-04-14T10:21:36.001Z</time></trkpt><trkpt lat="14.55384918353733" lon="120.99930010613184"><ele>8.833333333333334</ele><time>2026-04-14T10:21:37.001Z</time></trkpt><trkpt lat="14.553927158318062" lon="120.99927977276265"><ele>8.666666666666666</ele><time>2026-04-14T10:21:38.001Z</time></trkpt><trkpt lat="14.554005122479793" lon="120.99925926798566"><ele>8.5</ele><time>2026-04-14T10:21:39.001Z</time></trkpt><trkpt lat="14.55408278449677" lon="120.99924342299613"><ele>8.333333333333332</ele><time>2026-04-14T10:21:40.001Z</time></trkpt><trkpt lat="14.55415109433324" lon="120.99922899743866"><ele>8.166666666666666</ele><time>2026-04-14T10:21:41.001Z</time></trkpt><trkpt lat="14.554263083510923" lon="120.99921721516537"><ele>8.0</ele><time>2026-04-14T10:21:43.001Z</time></trkpt><trkpt lat="14.554429539904005" lon="120.999211774235"><ele>8.0</ele><time>2026-04-14T10:21:48.001Z</time></trkpt><trkpt lat="14.554485316232727" lon="120.99925736108831"><ele>8.0</ele><time>2026-04-14T10:21:54.001Z</time></trkpt><trkpt lat="14.554546343663933" lon="120.999357085795"><ele>8.0</ele><time>2026-04-14T10:21:57.001Z</time></trkpt><trkpt lat="14.554595486282533" lon="120.9994695529955"><ele>8.0</ele><time>2026-04-14T10:21:59.001Z</time></trkpt><trkpt lat="14.554641582099169" lon="120.99958841827585"><ele>8.0</ele><time>2026-04-14T10:22:01.001Z</time></trkpt><trkpt lat="14.554680795465877" lon="120.99966815546648"><ele>7.75</ele><time>2026-04-14T10:22:03.001Z</time></trkpt><trkpt lat="14.554741159729172" lon="120.99973016856954"><ele>7.5</ele><time>2026-04-14T10:22:06.001Z</time></trkpt><trkpt lat="14.554805757411645" lon="120.99957953558282"><ele>7.25</ele><time>2026-04-14T10:22:13.001Z</time></trkpt><trkpt lat="14.554783504420449" lon="120.99947458812353"><ele>7.0</ele><time>2026-04-14T10:22:15.001Z</time></trkpt><trkpt lat="14.554756505134055" lon="120.99934394871272"><ele>7.0</ele><time>2026-04-14T10:22:17.001Z</time></trkpt><trkpt lat="14.554740733153901" lon="120.99928038202879"><ele>7.0</ele><time>2026-04-14T10:22:18.001Z</time></trkpt><trkpt lat="14.554724495041963" lon="120.99921450211743"><ele>7.0</ele><time>2026-04-14T10:22:19.001Z</time></trkpt><trkpt lat="14.554709322141889" lon="120.99914928031193"><ele>7.0</ele><time>2026-04-14T10:22:20.001Z</time></trkpt><trkpt lat="14.554687580793768" lon="120.99908557196218"><ele>7.0</ele><time>2026-04-14T10:22:21.001Z</time></trkpt><trkpt lat="14.554666511038857" lon="120.99902213282857"><ele>7.0</ele><time>2026-04-14T10:22:22.001Z</time></trkpt><trkpt lat="14.554633070841593" lon="120.99890323225128"><ele>7.0</ele><time>2026-04-14T10:22:24.001Z</time></trkpt><trkpt lat="14.554603495866282" lon="120.99879839210162"><ele>7.0</ele><time>2026-04-14T10:22:26.001Z</time></trkpt><trkpt lat="14.55457518421148" lon="120.99871042666241"><ele>6.999999999999999</ele><time>2026-04-14T10:22:28.001Z</time></trkpt><trkpt lat="14.55454846173052" lon="120.99856428551223"><ele>6.999999999999999</ele><time>2026-04-14T10:22:32.001Z</time></trkpt><trkpt lat="14.554537637488577" lon="120.99848842887891"><ele>7.0</ele><time>2026-04-14T10:22:34.001Z</time></trkpt><trkpt lat="14.554518706062055" lon="120.99842116689062"><ele>7.0</ele><time>2026-04-14T10:22:36.001Z</time></trkpt><trkpt lat="14.55448562816809" lon="120.99835027781334"><ele>7.0</ele><time>2026-04-14T10:22:39.001Z</time></trkpt><trkpt lat="14.55446262788565" lon="120.99826491022665"><ele>6.999999999999999</ele><time>2026-04-14T10:22:42.001Z</time></trkpt><trkpt lat="14.554445463947156" lon="120.99817480296706"><ele>6.999999999999999</ele><time>2026-04-14T10:22:45.001Z</time></trkpt><trkpt lat="14.5544317838224" lon="120.9980851890654"><ele>7.0</ele><time>2026-04-14T10:22:47.001Z</time></trkpt><trkpt lat="14.554409872037235" lon="120.99796046679057"><ele>7.0</ele><time>2026-04-14T10:22:49.001Z</time></trkpt><trkpt lat="14.554373972584466" lon="120.99776999057246"><ele>7.000000000000001</ele><time>2026-04-14T10:22:52.001Z</time></trkpt><trkpt lat="14.554360026163625" lon="120.99769896987439"><ele>7.0</ele><time>2026-04-14T10:22:53.001Z</time></trkpt><trkpt lat="14.554346198019642" lon="120.99762805325615"><ele>7.0</ele><time>2026-04-14T10:22:54.001Z</time></trkpt><trkpt lat="14.554328612046444" lon="120.99755115329482"><ele>7.0</ele><time>2026-04-14T10:22:55.001Z</time></trkpt><trkpt lat="14.554313100927674" lon="120.99747648708453"><ele>7.000000000000001</ele><time>2026-04-14T10:22:56.001Z</time></trkpt><trkpt lat="14.554297336505043" lon="120.99740930754818"><ele>7.0</ele><time>2026-04-14T10:22:57.001Z</time></trkpt><trkpt lat="14.55427809271763" lon="120.99730729481679"><ele>6.8</ele><time>2026-04-14T10:22:59.001Z</time></trkpt><trkpt lat="14.554284727384399" lon="120.99723417981507"><ele>6.6</ele><time>2026-04-14T10:23:01.001Z</time></trkpt><trkpt lat="14.554336990774217" lon="120.99716629477544"><ele>6.3999999999999995</ele><time>2026-04-14T10:23:04.001Z</time></trkpt><trkpt lat="14.554407090177657" lon="120.99714814428773"><ele>6.199999999999999</ele><time>2026-04-14T10:23:08.001Z</time></trkpt><trkpt lat="14.554492072234986" lon="120.9971294143825"><ele>6.0</ele><time>2026-04-14T10:23:13.001Z</time></trkpt><trkpt lat="14.554782223582402" lon="120.99712620945736"><ele>6.5</ele><time>2026-04-14T10:23:24.001Z</time></trkpt><trkpt lat="14.554844853671195" lon="120.99710842321488"><ele>7.0</ele><time>2026-04-14T10:23:26.001Z</time></trkpt><trkpt lat="14.554968094922769" lon="120.99707435100449"><ele>7.5</ele><time>2026-04-14T10:23:28.001Z</time></trkpt><trkpt lat="14.55504074181196" lon="120.99705424231357"><ele>8.0</ele><time>2026-04-14T10:23:29.001Z</time></trkpt><trkpt lat="14.555121336477772" lon="120.9970317653885"><ele>8.5</ele><time>2026-04-14T10:23:30.001Z</time></trkpt><trkpt lat="14.555195920286893" lon="120.9969857559561"><ele>9.0</ele><time>2026-04-14T10:23:31.001Z</time></trkpt><trkpt lat="14.5552594311185" lon="120.99694513121601"><ele>9.0</ele><time>2026-04-14T10:23:32.001Z</time></trkpt><trkpt lat="14.555323376786024" lon="120.99692541379106"><ele>9.0</ele><time>2026-04-14T10:23:33.001Z</time></trkpt><trkpt lat="14.555433929196889" lon="120.99689597070146"><ele>9.0</ele><time>2026-04-14T10:23:35.001Z</time></trkpt><trkpt lat="14.555615101999281" lon="120.9968658466902"><ele>9.0</ele><time>2026-04-14T10:23:38.001Z</time></trkpt><trkpt lat="14.555679859302062" lon="120.99685428787247"><ele>9.0</ele><time>2026-04-14T10:23:39.001Z</time></trkpt><trkpt lat="14.555746305898689" lon="120.99683085227278"><ele>9.0</ele><time>2026-04-14T10:23:40.001Z</time></trkpt><trkpt lat="14.555816838992055" lon="120.99680738963974"><ele>9.0</ele><time>2026-04-14T10:23:41.001Z</time></trkpt><trkpt lat="14.555893986849057" lon="120.99678209882404"><ele>9.0</ele><time>2026-04-14T10:23:42.001Z</time></trkpt><trkpt lat="14.555975892932073" lon="120.99675739395117"><ele>9.0</ele><time>2026-04-14T10:23:43.001Z</time></trkpt><trkpt lat="14.556060307253839" lon="120.99673985230281"><ele>9.0</ele><time>2026-04-14T10:23:44.001Z</time></trkpt><trkpt lat="14.556140468636855" lon="120.99672139026258"><ele>9.0</ele><time>2026-04-14T10:23:45.001Z</time></trkpt><trkpt lat="14.55621295702848" lon="120.99670219218407"><ele>9.166666666666666</ele><time>2026-04-14T10:23:46.001Z</time></trkpt><trkpt lat="14.556275094719975" lon="120.99668712893222"><ele>9.333333333333334</ele><time>2026-04-14T10:23:47.001Z</time></trkpt><trkpt lat="14.556363879150307" lon="120.99667297526246"><ele>9.5</ele><time>2026-04-14T10:23:49.001Z</time></trkpt><trkpt lat="14.556442605886504" lon="120.99666232067986"><ele>9.666666666666668</ele><time>2026-04-14T10:23:52.001Z</time></trkpt><trkpt lat="14.556514469616971" lon="120.99664556116755"><ele>9.833333333333334</ele><time>2026-04-14T10:23:55.001Z</time></trkpt><trkpt lat="14.55659158245959" lon="120.99663656749122"><ele>10.0</ele><time>2026-04-14T10:23:57.001Z</time></trkpt><trkpt lat="14.556774721938389" lon="120.99662008117072"><ele>10.2</ele><time>2026-04-14T10:24:00.001Z</time></trkpt><trkpt lat="14.55685784940756" lon="120.99660990243095"><ele>10.4</ele><time>2026-04-14T10:24:01.001Z</time></trkpt><trkpt lat="14.556967495856489" lon="120.99659450755517"><ele>10.600000000000001</ele><time>2026-04-14T10:24:02.001Z</time></trkpt><trkpt lat="14.557085316345612" lon="120.99657900038544"><ele>10.8</ele><time>2026-04-14T10:24:03.001Z</time></trkpt><trkpt lat="14.557187776933889" lon="120.99655211875492"><ele>11.0</ele><time>2026-04-14T10:24:04.001Z</time></trkpt><trkpt lat="14.55728350080298" lon="120.99651244652799"><ele>11.0</ele><time>2026-04-14T10:24:05.001Z</time></trkpt><trkpt lat="14.557399117080179" lon="120.99648275283516"><ele>11.0</ele><time>2026-04-14T10:24:06.001Z</time></trkpt><trkpt lat="14.5575120015618" lon="120.99645504338336"><ele>11.0</ele><time>2026-04-14T10:24:07.001Z</time></trkpt><trkpt lat="14.557619120135552" lon="120.99642654828925"><ele>11.0</ele><time>2026-04-14T10:24:08.001Z</time></trkpt><trkpt lat="14.557723062343152" lon="120.99640123697257"><ele>11.0</ele><time>2026-04-14T10:24:09.001Z</time></trkpt><trkpt lat="14.55782688038109" lon="120.99637821086642"><ele>11.0</ele><time>2026-04-14T10:24:10.001Z</time></trkpt><trkpt lat="14.557919383139721" lon="120.99635696691553"><ele>11.0</ele><time>2026-04-14T10:24:11.001Z</time></trkpt><trkpt lat="14.558005854778731" lon="120.99633920497017"><ele>11.0</ele><time>2026-04-14T10:24:12.001Z</time></trkpt><trkpt lat="14.558083645961567" lon="120.99632343495881"><ele>11.0</ele><time>2026-04-14T10:24:13.001Z</time></trkpt><trkpt lat="14.558147749846603" lon="120.9963149527187"><ele>11.0</ele><time>2026-04-14T10:24:14.001Z</time></trkpt><trkpt lat="14.558254185145433" lon="120.99629441354011"><ele>10.600000000000001</ele><time>2026-04-14T10:24:16.001Z</time></trkpt><trkpt lat="14.55830118513588" lon="120.99620121853249"><ele>10.200000000000001</ele><time>2026-04-14T10:24:22.001Z</time></trkpt><trkpt lat="14.558209164969078" lon="120.99605572198686"><ele>9.8</ele><time>2026-04-14T10:24:27.001Z</time></trkpt><trkpt lat="14.558179195903012" lon="120.99599246539384"><ele>9.4</ele><time>2026-04-14T10:24:29.001Z</time></trkpt><trkpt lat="14.558119666726206" lon="120.99592100774697"><ele>9.0</ele><time>2026-04-14T10:24:31.001Z</time></trkpt><trkpt lat="14.558398380212406" lon="120.99530719060516"><ele>9.0</ele><time>2026-04-14T10:26:21.001Z</time></trkpt></trkseg></trk></gpx>